<?xml version="1.0" encoding="UTF-8" standalone="no" ?>
<gpx xmlns="http://www.topografix.com/GPX/1/1" xmlns:xsi="http://www.w3.org/2001/XMLSchema-instance" xsi:schemaLocation="http://www.topografix.com/GPX/1/1 http://www.topografix.com/GPX/1/1/gpx.xsd" version="1.1" creator="VisuGPX - https://www.visugpx.com">
  <metadata>
    <name>Tour d'Europe: étape 821</name>
    <desc><![CDATA[Étape 821]]></desc>
  </metadata>
  <trk>
    <name><![CDATA[Tour d'Europe: étape 821]]></name>
    <trkseg>
      <trkpt lat="47.10084" lon="15.74838">
        <ele>498.04432</ele>
        <time>2022-09-27T08:05:09.967Z</time>
      </trkpt>
      <trkpt lat="47.10096" lon="15.74821">
        <ele>498.04432</ele>
        <time>2022-09-27T08:05:12.989Z</time>
      </trkpt>
      <trkpt lat="47.10103" lon="15.74809">
        <ele>498.04432</ele>
        <time>2022-09-27T08:05:18.978Z</time>
      </trkpt>
      <trkpt lat="47.1011" lon="15.74793">
        <ele>498.04432</ele>
        <time>2022-09-27T08:05:26.982Z</time>
      </trkpt>
      <trkpt lat="47.10119" lon="15.74771">
        <ele>498.04432</ele>
        <time>2022-09-27T08:05:32.022Z</time>
      </trkpt>
      <trkpt lat="47.10125" lon="15.74758">
        <ele>498.04432</ele>
        <time>2022-09-27T08:05:34.974Z</time>
      </trkpt>
      <trkpt lat="47.10132" lon="15.74743">
        <ele>498.04432</ele>
        <time>2022-09-27T08:05:37.979Z</time>
      </trkpt>
      <trkpt lat="47.1014" lon="15.74728">
        <ele>498.042878</ele>
        <time>2022-09-27T08:05:40.974Z</time>
      </trkpt>
      <trkpt lat="47.10146" lon="15.74717">
        <ele>498.039113</ele>
        <time>2022-09-27T08:05:43.988Z</time>
      </trkpt>
      <trkpt lat="47.10151" lon="15.74706">
        <ele>498.035531</ele>
        <time>2022-09-27T08:05:47.963Z</time>
      </trkpt>
      <trkpt lat="47.10157" lon="15.74695">
        <ele>498.031718</ele>
        <time>2022-09-27T08:05:51.031Z</time>
      </trkpt>
      <trkpt lat="47.10164" lon="15.74682">
        <ele>498.027482</ele>
        <time>2022-09-27T08:05:53.990Z</time>
      </trkpt>
      <trkpt lat="47.1017" lon="15.7467">
        <ele>498.023589</ele>
        <time>2022-09-27T08:05:56.972Z</time>
      </trkpt>
      <trkpt lat="47.10175" lon="15.74657">
        <ele>498.019417</ele>
        <time>2022-09-27T08:06:00.972Z</time>
      </trkpt>
      <trkpt lat="47.10182" lon="15.74644">
        <ele>498.015162</ele>
        <time>2022-09-27T08:06:05.986Z</time>
      </trkpt>
      <trkpt lat="47.10191" lon="15.74632">
        <ele>498.010596</ele>
        <time>2022-09-27T08:06:09.975Z</time>
      </trkpt>
      <trkpt lat="47.10197" lon="15.74621">
        <ele>498.006968</ele>
        <time>2022-09-27T08:06:13.014Z</time>
      </trkpt>
      <trkpt lat="47.10202" lon="15.74608">
        <ele>498.00294</ele>
        <time>2022-09-27T08:06:16.012Z</time>
      </trkpt>
      <trkpt lat="47.10207" lon="15.74594">
        <ele>497.998605</ele>
        <time>2022-09-27T08:06:18.968Z</time>
      </trkpt>
      <trkpt lat="47.10214" lon="15.74576">
        <ele>497.993324</ele>
        <time>2022-09-27T08:06:21.978Z</time>
      </trkpt>
      <trkpt lat="47.1022" lon="15.7456">
        <ele>497.988445</ele>
        <time>2022-09-27T08:06:24.026Z</time>
      </trkpt>
      <trkpt lat="47.10227" lon="15.74543">
        <ele>497.983089</ele>
        <time>2022-09-27T08:06:26.037Z</time>
      </trkpt>
      <trkpt lat="47.10235" lon="15.74526">
        <ele>497.977762</ele>
        <time>2022-09-27T08:06:27.996Z</time>
      </trkpt>
      <trkpt lat="47.1024" lon="15.74511">
        <ele>497.683571</ele>
        <time>2022-09-27T08:06:29.979Z</time>
      </trkpt>
      <trkpt lat="47.10246" lon="15.74498">
        <ele>496.764457</ele>
        <time>2022-09-27T08:06:31.967Z</time>
      </trkpt>
      <trkpt lat="47.10251" lon="15.74486">
        <ele>495.967741</ele>
        <time>2022-09-27T08:06:33.974Z</time>
      </trkpt>
      <trkpt lat="47.10255" lon="15.74475">
        <ele>495.173627</ele>
        <time>2022-09-27T08:06:35.962Z</time>
      </trkpt>
      <trkpt lat="47.10266" lon="15.74468">
        <ele>494.159185</ele>
        <time>2022-09-27T08:06:39.033Z</time>
      </trkpt>
      <trkpt lat="47.10277" lon="15.74473">
        <ele>493.164926</ele>
        <time>2022-09-27T08:06:41.958Z</time>
      </trkpt>
      <trkpt lat="47.10284" lon="15.74483">
        <ele>492.311055</ele>
        <time>2022-09-27T08:06:45.958Z</time>
      </trkpt>
      <trkpt lat="47.10294" lon="15.74491">
        <ele>491.348233</ele>
        <time>2022-09-27T08:06:50.997Z</time>
      </trkpt>
      <trkpt lat="47.10301" lon="15.74503">
        <ele>490.427642</ele>
        <time>2022-09-27T08:06:55.972Z</time>
      </trkpt>
      <trkpt lat="47.10302" lon="15.74517">
        <ele>489.554667</ele>
        <time>2022-09-27T08:06:58.980Z</time>
      </trkpt>
      <trkpt lat="47.10302" lon="15.74537">
        <ele>488.414197</ele>
        <time>2022-09-27T08:07:01.964Z</time>
      </trkpt>
      <trkpt lat="47.10301" lon="15.74557">
        <ele>487.201697</ele>
        <time>2022-09-27T08:07:04.981Z</time>
      </trkpt>
      <trkpt lat="47.10301" lon="15.74574">
        <ele>486.190894</ele>
        <time>2022-09-27T08:07:06.962Z</time>
      </trkpt>
      <trkpt lat="47.10299" lon="15.74589">
        <ele>485.274824</ele>
        <time>2022-09-27T08:07:08.966Z</time>
      </trkpt>
      <trkpt lat="47.10297" lon="15.74605">
        <ele>484.329386</ele>
        <time>2022-09-27T08:07:10.983Z</time>
      </trkpt>
      <trkpt lat="47.10294" lon="15.74622">
        <ele>483.287781</ele>
        <time>2022-09-27T08:07:13.025Z</time>
      </trkpt>
      <trkpt lat="47.10292" lon="15.74639">
        <ele>482.310186</ele>
        <time>2022-09-27T08:07:14.982Z</time>
      </trkpt>
      <trkpt lat="47.1029" lon="15.74653">
        <ele>481.591912</ele>
        <time>2022-09-27T08:07:16.979Z</time>
      </trkpt>
      <trkpt lat="47.10289" lon="15.74669">
        <ele>480.794904</ele>
        <time>2022-09-27T08:07:19.023Z</time>
      </trkpt>
      <trkpt lat="47.10287" lon="15.74684">
        <ele>480.024812</ele>
        <time>2022-09-27T08:07:20.973Z</time>
      </trkpt>
      <trkpt lat="47.10286" lon="15.74698">
        <ele>479.317523</ele>
        <time>2022-09-27T08:07:22.965Z</time>
      </trkpt>
      <trkpt lat="47.10287" lon="15.74715">
        <ele>478.490485</ele>
        <time>2022-09-27T08:07:24.978Z</time>
      </trkpt>
      <trkpt lat="47.10287" lon="15.74732">
        <ele>477.645114</ele>
        <time>2022-09-27T08:07:26.980Z</time>
      </trkpt>
      <trkpt lat="47.10287" lon="15.7475">
        <ele>476.750408</ele>
        <time>2022-09-27T08:07:28.981Z</time>
      </trkpt>
      <trkpt lat="47.10286" lon="15.7477">
        <ele>475.767831</ele>
        <time>2022-09-27T08:07:30.972Z</time>
      </trkpt>
      <trkpt lat="47.10282" lon="15.7479">
        <ele>474.737448</ele>
        <time>2022-09-27T08:07:32.981Z</time>
      </trkpt>
      <trkpt lat="47.10276" lon="15.74809">
        <ele>473.706842</ele>
        <time>2022-09-27T08:07:34.965Z</time>
      </trkpt>
      <trkpt lat="47.10271" lon="15.74828">
        <ele>472.736713</ele>
        <time>2022-09-27T08:07:37.009Z</time>
      </trkpt>
      <trkpt lat="47.10268" lon="15.74842">
        <ele>471.996964</ele>
        <time>2022-09-27T08:07:38.965Z</time>
      </trkpt>
      <trkpt lat="47.10266" lon="15.74857">
        <ele>471.232115</ele>
        <time>2022-09-27T08:07:40.967Z</time>
      </trkpt>
      <trkpt lat="47.10264" lon="15.74872">
        <ele>470.454337</ele>
        <time>2022-09-27T08:07:42.979Z</time>
      </trkpt>
      <trkpt lat="47.10263" lon="15.74891">
        <ele>469.547243</ele>
        <time>2022-09-27T08:07:44.975Z</time>
      </trkpt>
      <trkpt lat="47.10261" lon="15.74911">
        <ele>468.286318</ele>
        <time>2022-09-27T08:07:46.981Z</time>
      </trkpt>
      <trkpt lat="47.1026" lon="15.74932">
        <ele>466.883821</ele>
        <time>2022-09-27T08:07:48.959Z</time>
      </trkpt>
      <trkpt lat="47.10258" lon="15.74952">
        <ele>465.578583</ele>
        <time>2022-09-27T08:07:50.988Z</time>
      </trkpt>
      <trkpt lat="47.10258" lon="15.74971">
        <ele>464.360555</ele>
        <time>2022-09-27T08:07:52.985Z</time>
      </trkpt>
      <trkpt lat="47.10259" lon="15.74989">
        <ele>463.192712</ele>
        <time>2022-09-27T08:07:54.976Z</time>
      </trkpt>
      <trkpt lat="47.1026" lon="15.75008">
        <ele>461.919848</ele>
        <time>2022-09-27T08:07:56.971Z</time>
      </trkpt>
      <trkpt lat="47.10264" lon="15.75029">
        <ele>460.525839</ele>
        <time>2022-09-27T08:07:58.993Z</time>
      </trkpt>
      <trkpt lat="47.10268" lon="15.7505">
        <ele>459.097454</ele>
        <time>2022-09-27T08:08:00.982Z</time>
      </trkpt>
      <trkpt lat="47.10273" lon="15.75068">
        <ele>457.820049</ele>
        <time>2022-09-27T08:08:02.976Z</time>
      </trkpt>
      <trkpt lat="47.10278" lon="15.75085">
        <ele>456.639295</ele>
        <time>2022-09-27T08:08:04.986Z</time>
      </trkpt>
      <trkpt lat="47.10283" lon="15.75101">
        <ele>455.490315</ele>
        <time>2022-09-27T08:08:06.978Z</time>
      </trkpt>
      <trkpt lat="47.10287" lon="15.75117">
        <ele>454.332534</ele>
        <time>2022-09-27T08:08:08.985Z</time>
      </trkpt>
      <trkpt lat="47.10292" lon="15.75134">
        <ele>453.16956</ele>
        <time>2022-09-27T08:08:10.980Z</time>
      </trkpt>
      <trkpt lat="47.10298" lon="15.75153">
        <ele>451.70181</ele>
        <time>2022-09-27T08:08:12.972Z</time>
      </trkpt>
      <trkpt lat="47.10304" lon="15.75172">
        <ele>449.695452</ele>
        <time>2022-09-27T08:08:14.971Z</time>
      </trkpt>
      <trkpt lat="47.1031" lon="15.75189">
        <ele>447.81182</ele>
        <time>2022-09-27T08:08:16.986Z</time>
      </trkpt>
      <trkpt lat="47.10317" lon="15.75204">
        <ele>446.054672</ele>
        <time>2022-09-27T08:08:18.986Z</time>
      </trkpt>
      <trkpt lat="47.10324" lon="15.75217">
        <ele>444.548559</ele>
        <time>2022-09-27T08:08:20.981Z</time>
      </trkpt>
      <trkpt lat="47.1033" lon="15.75227">
        <ele>443.274226</ele>
        <time>2022-09-27T08:08:22.972Z</time>
      </trkpt>
      <trkpt lat="47.10338" lon="15.75239">
        <ele>441.565777</ele>
        <time>2022-09-27T08:08:25.985Z</time>
      </trkpt>
      <trkpt lat="47.10346" lon="15.75249">
        <ele>440.187638</ele>
        <time>2022-09-27T08:08:29.003Z</time>
      </trkpt>
      <trkpt lat="47.10355" lon="15.75256">
        <ele>438.730277</ele>
        <time>2022-09-27T08:08:32.000Z</time>
      </trkpt>
      <trkpt lat="47.10364" lon="15.7526">
        <ele>437.439108</ele>
        <time>2022-09-27T08:08:33.999Z</time>
      </trkpt>
      <trkpt lat="47.10376" lon="15.75265">
        <ele>435.656109</ele>
        <time>2022-09-27T08:08:35.983Z</time>
      </trkpt>
      <trkpt lat="47.10392" lon="15.75272">
        <ele>433.270017</ele>
        <time>2022-09-27T08:08:37.985Z</time>
      </trkpt>
      <trkpt lat="47.10402" lon="15.75274">
        <ele>431.816966</ele>
        <time>2022-09-27T08:08:38.972Z</time>
      </trkpt>
      <trkpt lat="47.10413" lon="15.75277">
        <ele>430.312331</ele>
        <time>2022-09-27T08:08:39.976Z</time>
      </trkpt>
      <trkpt lat="47.10422" lon="15.75282">
        <ele>428.891954</ele>
        <time>2022-09-27T08:08:40.985Z</time>
      </trkpt>
      <trkpt lat="47.10433" lon="15.75286">
        <ele>427.395797</ele>
        <time>2022-09-27T08:08:42.018Z</time>
      </trkpt>
      <trkpt lat="47.10442" lon="15.75293">
        <ele>426.186387</ele>
        <time>2022-09-27T08:08:42.979Z</time>
      </trkpt>
      <trkpt lat="47.10452" lon="15.75301">
        <ele>425.154663</ele>
        <time>2022-09-27T08:08:43.973Z</time>
      </trkpt>
      <trkpt lat="47.10461" lon="15.75312">
        <ele>424.072236</ele>
        <time>2022-09-27T08:08:44.968Z</time>
      </trkpt>
      <trkpt lat="47.10469" lon="15.75324">
        <ele>423.029413</ele>
        <time>2022-09-27T08:08:46.003Z</time>
      </trkpt>
      <trkpt lat="47.10475" lon="15.75336">
        <ele>422.08493</ele>
        <time>2022-09-27T08:08:46.976Z</time>
      </trkpt>
      <trkpt lat="47.1048" lon="15.75348">
        <ele>421.212997</ele>
        <time>2022-09-27T08:08:47.961Z</time>
      </trkpt>
      <trkpt lat="47.10486" lon="15.75371">
        <ele>419.66186</ele>
        <time>2022-09-27T08:08:49.989Z</time>
      </trkpt>
      <trkpt lat="47.10491" lon="15.75391">
        <ele>418.304025</ele>
        <time>2022-09-27T08:08:51.992Z</time>
      </trkpt>
      <trkpt lat="47.10497" lon="15.75407">
        <ele>417.209543</ele>
        <time>2022-09-27T08:08:53.990Z</time>
      </trkpt>
      <trkpt lat="47.10504" lon="15.75419">
        <ele>416.209361</ele>
        <time>2022-09-27T08:08:55.968Z</time>
      </trkpt>
      <trkpt lat="47.1051" lon="15.7543">
        <ele>415.302453</ele>
        <time>2022-09-27T08:08:57.984Z</time>
      </trkpt>
      <trkpt lat="47.10516" lon="15.75442">
        <ele>414.399263</ele>
        <time>2022-09-27T08:08:59.962Z</time>
      </trkpt>
      <trkpt lat="47.10522" lon="15.75453">
        <ele>413.462265</ele>
        <time>2022-09-27T08:09:01.996Z</time>
      </trkpt>
      <trkpt lat="47.10529" lon="15.75466">
        <ele>412.468803</ele>
        <time>2022-09-27T08:09:04.037Z</time>
      </trkpt>
      <trkpt lat="47.10535" lon="15.75477">
        <ele>411.576553</ele>
        <time>2022-09-27T08:09:05.987Z</time>
      </trkpt>
      <trkpt lat="47.10539" lon="15.75489">
        <ele>410.74021</ele>
        <time>2022-09-27T08:09:08.011Z</time>
      </trkpt>
      <trkpt lat="47.10545" lon="15.75499">
        <ele>410.091024</ele>
        <time>2022-09-27T08:09:09.990Z</time>
      </trkpt>
      <trkpt lat="47.10552" lon="15.75514">
        <ele>409.631082</ele>
        <time>2022-09-27T08:09:13.001Z</time>
      </trkpt>
      <trkpt lat="47.10558" lon="15.75528">
        <ele>409.217923</ele>
        <time>2022-09-27T08:09:15.976Z</time>
      </trkpt>
      <trkpt lat="47.10565" lon="15.75544">
        <ele>408.770148</ele>
        <time>2022-09-27T08:09:18.992Z</time>
      </trkpt>
      <trkpt lat="47.1057" lon="15.75555">
        <ele>408.434488</ele>
        <time>2022-09-27T08:09:20.973Z</time>
      </trkpt>
      <trkpt lat="47.10577" lon="15.75568">
        <ele>408.033026</ele>
        <time>2022-09-27T08:09:23.055Z</time>
      </trkpt>
      <trkpt lat="47.10586" lon="15.75581">
        <ele>407.573297</ele>
        <time>2022-09-27T08:09:24.999Z</time>
      </trkpt>
      <trkpt lat="47.10597" lon="15.75594">
        <ele>407.049892</ele>
        <time>2022-09-27T08:09:26.966Z</time>
      </trkpt>
      <trkpt lat="47.1061" lon="15.7561">
        <ele>406.458153</ele>
        <time>2022-09-27T08:09:29.010Z</time>
      </trkpt>
      <trkpt lat="47.10621" lon="15.75629">
        <ele>405.847116</ele>
        <time>2022-09-27T08:09:30.989Z</time>
      </trkpt>
      <trkpt lat="47.10631" lon="15.75647">
        <ele>405.272528</ele>
        <time>2022-09-27T08:09:32.976Z</time>
      </trkpt>
      <trkpt lat="47.10637" lon="15.75665">
        <ele>404.786002</ele>
        <time>2022-09-27T08:09:34.992Z</time>
      </trkpt>
      <trkpt lat="47.1064" lon="15.75679">
        <ele>404.416811</ele>
        <time>2022-09-27T08:09:36.988Z</time>
      </trkpt>
      <trkpt lat="47.10643" lon="15.75693">
        <ele>404.058784</ele>
        <time>2022-09-27T08:09:39.988Z</time>
      </trkpt>
      <trkpt lat="47.10645" lon="15.75707">
        <ele>403.704733</ele>
        <time>2022-09-27T08:09:44.980Z</time>
      </trkpt>
      <trkpt lat="47.10647" lon="15.75721">
        <ele>403.825473</ele>
        <time>2022-09-27T08:09:51.984Z</time>
      </trkpt>
      <trkpt lat="47.10647" lon="15.75737">
        <ele>403.954122</ele>
        <time>2022-09-27T08:09:57.997Z</time>
      </trkpt>
      <trkpt lat="47.10647" lon="15.75752">
        <ele>404.081932</ele>
        <time>2022-09-27T08:10:02.958Z</time>
      </trkpt>
      <trkpt lat="47.10645" lon="15.75766">
        <ele>404.202469</ele>
        <time>2022-09-27T08:10:08.012Z</time>
      </trkpt>
      <trkpt lat="47.10643" lon="15.75779">
        <ele>404.318555</ele>
        <time>2022-09-27T08:10:11.968Z</time>
      </trkpt>
      <trkpt lat="47.10641" lon="15.75794">
        <ele>404.446681</ele>
        <time>2022-09-27T08:10:16.987Z</time>
      </trkpt>
      <trkpt lat="47.10639" lon="15.75809">
        <ele>404.574417</ele>
        <time>2022-09-27T08:10:21.999Z</time>
      </trkpt>
      <trkpt lat="47.10637" lon="15.75823">
        <ele>404.697352</ele>
        <time>2022-09-27T08:10:26.982Z</time>
      </trkpt>
      <trkpt lat="47.10636" lon="15.7584">
        <ele>404.832831</ele>
        <time>2022-09-27T08:10:31.991Z</time>
      </trkpt>
      <trkpt lat="47.10637" lon="15.75853">
        <ele>404.945482</ele>
        <time>2022-09-27T08:10:35.986Z</time>
      </trkpt>
      <trkpt lat="47.10638" lon="15.75868">
        <ele>405.069611</ele>
        <time>2022-09-27T08:10:39.988Z</time>
      </trkpt>
      <trkpt lat="47.10639" lon="15.75883">
        <ele>405.202355</ele>
        <time>2022-09-27T08:10:43.000Z</time>
      </trkpt>
      <trkpt lat="47.10643" lon="15.75899">
        <ele>405.338813</ele>
        <time>2022-09-27T08:10:47.039Z</time>
      </trkpt>
      <trkpt lat="47.10644" lon="15.75914">
        <ele>405.468365</ele>
        <time>2022-09-27T08:10:50.990Z</time>
      </trkpt>
      <trkpt lat="47.10643" lon="15.75929">
        <ele>405.591929</ele>
        <time>2022-09-27T08:10:53.992Z</time>
      </trkpt>
      <trkpt lat="47.10643" lon="15.75945">
        <ele>405.726506</ele>
        <time>2022-09-27T08:10:56.986Z</time>
      </trkpt>
      <trkpt lat="47.10649" lon="15.7596">
        <ele>405.872252</ele>
        <time>2022-09-27T08:10:59.977Z</time>
      </trkpt>
      <trkpt lat="47.10653" lon="15.75972">
        <ele>405.690551</ele>
        <time>2022-09-27T08:11:01.982Z</time>
      </trkpt>
      <trkpt lat="47.10659" lon="15.75986">
        <ele>405.219053</ele>
        <time>2022-09-27T08:11:03.994Z</time>
      </trkpt>
      <trkpt lat="47.10665" lon="15.76001">
        <ele>404.687104</ele>
        <time>2022-09-27T08:11:05.998Z</time>
      </trkpt>
      <trkpt lat="47.1067" lon="15.76019">
        <ele>404.117549</ele>
        <time>2022-09-27T08:11:07.975Z</time>
      </trkpt>
      <trkpt lat="47.10675" lon="15.76038">
        <ele>403.538587</ele>
        <time>2022-09-27T08:11:09.989Z</time>
      </trkpt>
      <trkpt lat="47.10677" lon="15.76058">
        <ele>402.933514</ele>
        <time>2022-09-27T08:11:11.975Z</time>
      </trkpt>
      <trkpt lat="47.1068" lon="15.76079">
        <ele>402.309142</ele>
        <time>2022-09-27T08:11:13.962Z</time>
      </trkpt>
      <trkpt lat="47.10686" lon="15.76097">
        <ele>401.686818</ele>
        <time>2022-09-27T08:11:15.981Z</time>
      </trkpt>
      <trkpt lat="47.10696" lon="15.7611">
        <ele>401.109191</ele>
        <time>2022-09-27T08:11:18.065Z</time>
      </trkpt>
      <trkpt lat="47.10708" lon="15.76121">
        <ele>400.52304</ele>
        <time>2022-09-27T08:11:20.021Z</time>
      </trkpt>
      <trkpt lat="47.10718" lon="15.76132">
        <ele>399.964992</ele>
        <time>2022-09-27T08:11:21.998Z</time>
      </trkpt>
      <trkpt lat="47.10728" lon="15.76144">
        <ele>399.407448</ele>
        <time>2022-09-27T08:11:23.997Z</time>
      </trkpt>
      <trkpt lat="47.10738" lon="15.76158">
        <ele>398.820118</ele>
        <time>2022-09-27T08:11:25.978Z</time>
      </trkpt>
      <trkpt lat="47.10746" lon="15.76171">
        <ele>398.299956</ele>
        <time>2022-09-27T08:11:27.986Z</time>
      </trkpt>
      <trkpt lat="47.10755" lon="15.76182">
        <ele>398.107113</ele>
        <time>2022-09-27T08:11:29.990Z</time>
      </trkpt>
      <trkpt lat="47.10764" lon="15.76195">
        <ele>398.092485</ele>
        <time>2022-09-27T08:11:31.985Z</time>
      </trkpt>
      <trkpt lat="47.10773" lon="15.76206">
        <ele>398.078289</ele>
        <time>2022-09-27T08:11:34.012Z</time>
      </trkpt>
      <trkpt lat="47.10782" lon="15.76216">
        <ele>398.064371</ele>
        <time>2022-09-27T08:11:35.971Z</time>
      </trkpt>
      <trkpt lat="47.10792" lon="15.76225">
        <ele>398.050499</ele>
        <time>2022-09-27T08:11:37.999Z</time>
      </trkpt>
      <trkpt lat="47.10802" lon="15.76236">
        <ele>398.03546</ele>
        <time>2022-09-27T08:11:39.984Z</time>
      </trkpt>
      <trkpt lat="47.10813" lon="15.76246">
        <ele>398.020384</ele>
        <time>2022-09-27T08:11:41.996Z</time>
      </trkpt>
      <trkpt lat="47.10823" lon="15.76259">
        <ele>398.004376</ele>
        <time>2022-09-27T08:11:43.976Z</time>
      </trkpt>
      <trkpt lat="47.10832" lon="15.76271">
        <ele>397.989246</ele>
        <time>2022-09-27T08:11:45.989Z</time>
      </trkpt>
      <trkpt lat="47.10842" lon="15.76284">
        <ele>397.973884</ele>
        <time>2022-09-27T08:11:47.999Z</time>
      </trkpt>
      <trkpt lat="47.1085" lon="15.76297">
        <ele>397.959121</ele>
        <time>2022-09-27T08:11:49.993Z</time>
      </trkpt>
      <trkpt lat="47.10858" lon="15.7631">
        <ele>397.944855</ele>
        <time>2022-09-27T08:11:51.980Z</time>
      </trkpt>
      <trkpt lat="47.10864" lon="15.76324">
        <ele>397.931226</ele>
        <time>2022-09-27T08:11:53.992Z</time>
      </trkpt>
      <trkpt lat="47.10871" lon="15.76338">
        <ele>397.917594</ele>
        <time>2022-09-27T08:11:56.006Z</time>
      </trkpt>
      <trkpt lat="47.10877" lon="15.76352">
        <ele>397.903737</ele>
        <time>2022-09-27T08:11:57.993Z</time>
      </trkpt>
      <trkpt lat="47.10882" lon="15.76369">
        <ele>397.811695</ele>
        <time>2022-09-27T08:11:59.992Z</time>
      </trkpt>
      <trkpt lat="47.10886" lon="15.76386">
        <ele>397.70153</ele>
        <time>2022-09-27T08:12:02.014Z</time>
      </trkpt>
      <trkpt lat="47.10892" lon="15.76401">
        <ele>397.595431</ele>
        <time>2022-09-27T08:12:03.992Z</time>
      </trkpt>
      <trkpt lat="47.10897" lon="15.76417">
        <ele>397.489555</ele>
        <time>2022-09-27T08:12:05.991Z</time>
      </trkpt>
      <trkpt lat="47.10901" lon="15.76431">
        <ele>397.39166</ele>
        <time>2022-09-27T08:12:07.992Z</time>
      </trkpt>
      <trkpt lat="47.10905" lon="15.76446">
        <ele>397.295611</ele>
        <time>2022-09-27T08:12:10.000Z</time>
      </trkpt>
      <trkpt lat="47.10909" lon="15.76461">
        <ele>397.200487</ele>
        <time>2022-09-27T08:12:11.991Z</time>
      </trkpt>
      <trkpt lat="47.10912" lon="15.76476">
        <ele>397.105126</ele>
        <time>2022-09-27T08:12:13.986Z</time>
      </trkpt>
      <trkpt lat="47.10914" lon="15.7649">
        <ele>397.015538</ele>
        <time>2022-09-27T08:12:15.977Z</time>
      </trkpt>
      <trkpt lat="47.10916" lon="15.76504">
        <ele>396.925954</ele>
        <time>2022-09-27T08:12:17.987Z</time>
      </trkpt>
      <trkpt lat="47.10917" lon="15.76518">
        <ele>396.839365</ele>
        <time>2022-09-27T08:12:20.009Z</time>
      </trkpt>
      <trkpt lat="47.10917" lon="15.76533">
        <ele>396.752589</ele>
        <time>2022-09-27T08:12:21.986Z</time>
      </trkpt>
      <trkpt lat="47.10917" lon="15.76546">
        <ele>396.668294</ele>
        <time>2022-09-27T08:12:24.014Z</time>
      </trkpt>
      <trkpt lat="47.10916" lon="15.7656">
        <ele>396.587013</ele>
        <time>2022-09-27T08:12:25.970Z</time>
      </trkpt>
      <trkpt lat="47.10916" lon="15.76578">
        <ele>396.474396</ele>
        <time>2022-09-27T08:12:28.998Z</time>
      </trkpt>
      <trkpt lat="47.10915" lon="15.76597">
        <ele>396.358289</ele>
        <time>2022-09-27T08:12:31.991Z</time>
      </trkpt>
      <trkpt lat="47.10915" lon="15.76615">
        <ele>396.116538</ele>
        <time>2022-09-27T08:12:35.001Z</time>
      </trkpt>
      <trkpt lat="47.10915" lon="15.76632">
        <ele>395.681896</ele>
        <time>2022-09-27T08:12:37.990Z</time>
      </trkpt>
      <trkpt lat="47.10914" lon="15.76648">
        <ele>395.285541</ele>
        <time>2022-09-27T08:12:40.966Z</time>
      </trkpt>
      <trkpt lat="47.10914" lon="15.76661">
        <ele>394.925869</ele>
        <time>2022-09-27T08:12:43.988Z</time>
      </trkpt>
      <trkpt lat="47.10913" lon="15.76676">
        <ele>394.547338</ele>
        <time>2022-09-27T08:12:46.987Z</time>
      </trkpt>
      <trkpt lat="47.10913" lon="15.76691">
        <ele>394.172253</ele>
        <time>2022-09-27T08:12:49.983Z</time>
      </trkpt>
      <trkpt lat="47.10913" lon="15.76707">
        <ele>393.75845</ele>
        <time>2022-09-27T08:12:52.995Z</time>
      </trkpt>
      <trkpt lat="47.10913" lon="15.76724">
        <ele>393.295446</ele>
        <time>2022-09-27T08:12:55.979Z</time>
      </trkpt>
      <trkpt lat="47.10914" lon="15.76744">
        <ele>392.800286</ele>
        <time>2022-09-27T08:12:58.992Z</time>
      </trkpt>
      <trkpt lat="47.10916" lon="15.76758">
        <ele>392.432292</ele>
        <time>2022-09-27T08:13:01.006Z</time>
      </trkpt>
      <trkpt lat="47.10917" lon="15.76772">
        <ele>392.056184</ele>
        <time>2022-09-27T08:13:02.983Z</time>
      </trkpt>
      <trkpt lat="47.10919" lon="15.76787">
        <ele>391.670249</ele>
        <time>2022-09-27T08:13:04.993Z</time>
      </trkpt>
      <trkpt lat="47.10922" lon="15.76802">
        <ele>391.270063</ele>
        <time>2022-09-27T08:13:06.991Z</time>
      </trkpt>
      <trkpt lat="47.10926" lon="15.76816">
        <ele>390.870627</ele>
        <time>2022-09-27T08:13:08.986Z</time>
      </trkpt>
      <trkpt lat="47.1093" lon="15.76831">
        <ele>390.459195</ele>
        <time>2022-09-27T08:13:10.987Z</time>
      </trkpt>
      <trkpt lat="47.10933" lon="15.76845">
        <ele>390.069883</ele>
        <time>2022-09-27T08:13:12.976Z</time>
      </trkpt>
      <trkpt lat="47.10937" lon="15.76859">
        <ele>389.675559</ele>
        <time>2022-09-27T08:13:14.977Z</time>
      </trkpt>
      <trkpt lat="47.10941" lon="15.76875">
        <ele>389.405452</ele>
        <time>2022-09-27T08:13:16.985Z</time>
      </trkpt>
      <trkpt lat="47.10941" lon="15.76891">
        <ele>389.308407</ele>
        <time>2022-09-27T08:13:19.030Z</time>
      </trkpt>
      <trkpt lat="47.1094" lon="15.76908">
        <ele>389.212311</ele>
        <time>2022-09-27T08:13:20.975Z</time>
      </trkpt>
      <trkpt lat="47.10938" lon="15.76924">
        <ele>389.11587</ele>
        <time>2022-09-27T08:13:22.986Z</time>
      </trkpt>
      <trkpt lat="47.10937" lon="15.76939">
        <ele>389.025413</ele>
        <time>2022-09-27T08:13:25.028Z</time>
      </trkpt>
      <trkpt lat="47.10938" lon="15.76955">
        <ele>388.932069</ele>
        <time>2022-09-27T08:13:26.998Z</time>
      </trkpt>
      <trkpt lat="47.10936" lon="15.7697">
        <ele>388.843245</ele>
        <time>2022-09-27T08:13:29.020Z</time>
      </trkpt>
      <trkpt lat="47.10936" lon="15.76985">
        <ele>388.755206</ele>
        <time>2022-09-27T08:13:30.988Z</time>
      </trkpt>
      <trkpt lat="47.10936" lon="15.76999">
        <ele>388.670139</ele>
        <time>2022-09-27T08:13:32.987Z</time>
      </trkpt>
      <trkpt lat="47.10937" lon="15.77014">
        <ele>388.583103</ele>
        <time>2022-09-27T08:13:34.992Z</time>
      </trkpt>
      <trkpt lat="47.10936" lon="15.77029">
        <ele>388.496122</ele>
        <time>2022-09-27T08:13:36.975Z</time>
      </trkpt>
      <trkpt lat="47.10936" lon="15.77045">
        <ele>388.405188</ele>
        <time>2022-09-27T08:13:39.030Z</time>
      </trkpt>
      <trkpt lat="47.10936" lon="15.77061">
        <ele>388.311286</ele>
        <time>2022-09-27T08:13:40.990Z</time>
      </trkpt>
      <trkpt lat="47.10936" lon="15.77076">
        <ele>388.223269</ele>
        <time>2022-09-27T08:13:42.987Z</time>
      </trkpt>
      <trkpt lat="47.10936" lon="15.77091">
        <ele>388.134665</ele>
        <time>2022-09-27T08:13:44.996Z</time>
      </trkpt>
      <trkpt lat="47.10936" lon="15.77105">
        <ele>388.053113</ele>
        <time>2022-09-27T08:13:47.002Z</time>
      </trkpt>
      <trkpt lat="47.10937" lon="15.77119">
        <ele>387.968594</ele>
        <time>2022-09-27T08:13:48.968Z</time>
      </trkpt>
      <trkpt lat="47.10937" lon="15.77132">
        <ele>387.892775</ele>
        <time>2022-09-27T08:13:50.991Z</time>
      </trkpt>
      <trkpt lat="47.10937" lon="15.77152">
        <ele>387.811136</ele>
        <time>2022-09-27T08:13:54.002Z</time>
      </trkpt>
      <trkpt lat="47.10936" lon="15.7717">
        <ele>387.733112</ele>
        <time>2022-09-27T08:13:56.998Z</time>
      </trkpt>
      <trkpt lat="47.10935" lon="15.77188">
        <ele>387.657785</ele>
        <time>2022-09-27T08:13:59.999Z</time>
      </trkpt>
      <trkpt lat="47.10934" lon="15.77207">
        <ele>387.577651</ele>
        <time>2022-09-27T08:14:02.978Z</time>
      </trkpt>
      <trkpt lat="47.1093" lon="15.77224">
        <ele>387.499767</ele>
        <time>2022-09-27T08:14:05.991Z</time>
      </trkpt>
      <trkpt lat="47.10926" lon="15.77241">
        <ele>387.425083</ele>
        <time>2022-09-27T08:14:09.036Z</time>
      </trkpt>
      <trkpt lat="47.10922" lon="15.77256">
        <ele>387.35575</ele>
        <time>2022-09-27T08:14:11.983Z</time>
      </trkpt>
      <trkpt lat="47.10918" lon="15.7727">
        <ele>387.290649</ele>
        <time>2022-09-27T08:14:15.020Z</time>
      </trkpt>
      <trkpt lat="47.10914" lon="15.77286">
        <ele>387.218555</ele>
        <time>2022-09-27T08:14:19.000Z</time>
      </trkpt>
      <trkpt lat="47.1091" lon="15.773">
        <ele>387.155256</ele>
        <time>2022-09-27T08:14:21.991Z</time>
      </trkpt>
      <trkpt lat="47.10906" lon="15.77314">
        <ele>387.090794</ele>
        <time>2022-09-27T08:14:24.992Z</time>
      </trkpt>
      <trkpt lat="47.10902" lon="15.77328">
        <ele>387.026727</ele>
        <time>2022-09-27T08:14:27.991Z</time>
      </trkpt>
      <trkpt lat="47.10898" lon="15.77346">
        <ele>386.949646</ele>
        <time>2022-09-27T08:14:31.011Z</time>
      </trkpt>
      <trkpt lat="47.10895" lon="15.77364">
        <ele>386.868597</ele>
        <time>2022-09-27T08:14:33.972Z</time>
      </trkpt>
      <trkpt lat="47.10892" lon="15.77382">
        <ele>386.790975</ele>
        <time>2022-09-27T08:14:36.962Z</time>
      </trkpt>
      <trkpt lat="47.10889" lon="15.77399">
        <ele>386.599898</ele>
        <time>2022-09-27T08:14:39.971Z</time>
      </trkpt>
      <trkpt lat="47.10887" lon="15.77417">
        <ele>386.38654</ele>
        <time>2022-09-27T08:14:42.999Z</time>
      </trkpt>
      <trkpt lat="47.10885" lon="15.77431">
        <ele>386.232504</ele>
        <time>2022-09-27T08:14:45.001Z</time>
      </trkpt>
      <trkpt lat="47.10884" lon="15.77444">
        <ele>386.076495</ele>
        <time>2022-09-27T08:14:46.974Z</time>
      </trkpt>
      <trkpt lat="47.10882" lon="15.77458">
        <ele>385.913086</ele>
        <time>2022-09-27T08:14:48.979Z</time>
      </trkpt>
      <trkpt lat="47.10879" lon="15.77477">
        <ele>385.69197</ele>
        <time>2022-09-27T08:14:52.017Z</time>
      </trkpt>
      <trkpt lat="47.10877" lon="15.77495">
        <ele>385.474657</ele>
        <time>2022-09-27T08:14:54.982Z</time>
      </trkpt>
      <trkpt lat="47.10876" lon="15.77508">
        <ele>385.319815</ele>
        <time>2022-09-27T08:14:56.979Z</time>
      </trkpt>
      <trkpt lat="47.10874" lon="15.77523">
        <ele>385.153332</ele>
        <time>2022-09-27T08:14:58.988Z</time>
      </trkpt>
      <trkpt lat="47.10871" lon="15.77537">
        <ele>384.980926</ele>
        <time>2022-09-27T08:15:00.992Z</time>
      </trkpt>
      <trkpt lat="47.10869" lon="15.77552">
        <ele>384.808097</ele>
        <time>2022-09-27T08:15:02.978Z</time>
      </trkpt>
      <trkpt lat="47.10866" lon="15.77565">
        <ele>384.643316</ele>
        <time>2022-09-27T08:15:05.056Z</time>
      </trkpt>
      <trkpt lat="47.10863" lon="15.77579">
        <ele>384.481821</ele>
        <time>2022-09-27T08:15:06.989Z</time>
      </trkpt>
      <trkpt lat="47.10858" lon="15.77596">
        <ele>384.258806</ele>
        <time>2022-09-27T08:15:09.977Z</time>
      </trkpt>
      <trkpt lat="47.10854" lon="15.77609">
        <ele>384.098885</ele>
        <time>2022-09-27T08:15:11.983Z</time>
      </trkpt>
      <trkpt lat="47.10851" lon="15.77622">
        <ele>383.937536</ele>
        <time>2022-09-27T08:15:13.978Z</time>
      </trkpt>
      <trkpt lat="47.10847" lon="15.77641">
        <ele>383.719217</ele>
        <time>2022-09-27T08:15:16.985Z</time>
      </trkpt>
      <trkpt lat="47.10844" lon="15.77659">
        <ele>383.49703</ele>
        <time>2022-09-27T08:15:19.985Z</time>
      </trkpt>
      <trkpt lat="47.10842" lon="15.77677">
        <ele>383.287444</ele>
        <time>2022-09-27T08:15:22.983Z</time>
      </trkpt>
      <trkpt lat="47.1084" lon="15.77696">
        <ele>383.06829</ele>
        <time>2022-09-27T08:15:26.053Z</time>
      </trkpt>
      <trkpt lat="47.10838" lon="15.7771">
        <ele>382.913725</ele>
        <time>2022-09-27T08:15:28.009Z</time>
      </trkpt>
      <trkpt lat="47.10836" lon="15.77729">
        <ele>382.690557</ele>
        <time>2022-09-27T08:15:30.989Z</time>
      </trkpt>
      <trkpt lat="47.10834" lon="15.77742">
        <ele>382.532795</ele>
        <time>2022-09-27T08:15:33.294Z</time>
      </trkpt>
      <trkpt lat="47.10831" lon="15.77756">
        <ele>382.367561</ele>
        <time>2022-09-27T08:15:35.002Z</time>
      </trkpt>
      <trkpt lat="47.10827" lon="15.77769">
        <ele>382.200383</ele>
        <time>2022-09-27T08:15:36.975Z</time>
      </trkpt>
      <trkpt lat="47.10822" lon="15.77782">
        <ele>382.037542</ele>
        <time>2022-09-27T08:15:38.970Z</time>
      </trkpt>
      <trkpt lat="47.10816" lon="15.778">
        <ele>381.807875</ele>
        <time>2022-09-27T08:15:41.985Z</time>
      </trkpt>
      <trkpt lat="47.10812" lon="15.77818">
        <ele>381.583605</ele>
        <time>2022-09-27T08:15:44.978Z</time>
      </trkpt>
      <trkpt lat="47.1081" lon="15.77837">
        <ele>381.362938</ele>
        <time>2022-09-27T08:15:48.001Z</time>
      </trkpt>
      <trkpt lat="47.10808" lon="15.7785">
        <ele>381.210542</ele>
        <time>2022-09-27T08:15:49.996Z</time>
      </trkpt>
      <trkpt lat="47.10801" lon="15.77867">
        <ele>380.988553</ele>
        <time>2022-09-27T08:15:52.992Z</time>
      </trkpt>
      <trkpt lat="47.10795" lon="15.77878">
        <ele>380.835892</ele>
        <time>2022-09-27T08:15:54.986Z</time>
      </trkpt>
      <trkpt lat="47.1079" lon="15.77889">
        <ele>380.709845</ele>
        <time>2022-09-27T08:15:57.036Z</time>
      </trkpt>
      <trkpt lat="47.10786" lon="15.77901">
        <ele>380.692483</ele>
        <time>2022-09-27T08:15:58.978Z</time>
      </trkpt>
      <trkpt lat="47.10782" lon="15.77915">
        <ele>380.674344</ele>
        <time>2022-09-27T08:16:01.018Z</time>
      </trkpt>
      <trkpt lat="47.10778" lon="15.77928">
        <ele>380.656322</ele>
        <time>2022-09-27T08:16:03.029Z</time>
      </trkpt>
      <trkpt lat="47.10774" lon="15.7794">
        <ele>380.63935</ele>
        <time>2022-09-27T08:16:04.986Z</time>
      </trkpt>
      <trkpt lat="47.10769" lon="15.77952">
        <ele>380.621663</ele>
        <time>2022-09-27T08:16:06.994Z</time>
      </trkpt>
      <trkpt lat="47.10763" lon="15.77962">
        <ele>380.604655</ele>
        <time>2022-09-27T08:16:09.002Z</time>
      </trkpt>
      <trkpt lat="47.10755" lon="15.7797">
        <ele>380.586603</ele>
        <time>2022-09-27T08:16:10.987Z</time>
      </trkpt>
      <trkpt lat="47.10746" lon="15.77977">
        <ele>380.568733</ele>
        <time>2022-09-27T08:16:12.984Z</time>
      </trkpt>
      <trkpt lat="47.10737" lon="15.77984">
        <ele>380.550422</ele>
        <time>2022-09-27T08:16:14.996Z</time>
      </trkpt>
      <trkpt lat="47.10729" lon="15.77992">
        <ele>380.532434</ele>
        <time>2022-09-27T08:16:16.962Z</time>
      </trkpt>
      <trkpt lat="47.10722" lon="15.78001">
        <ele>380.514999</ele>
        <time>2022-09-27T08:16:18.971Z</time>
      </trkpt>
      <trkpt lat="47.10716" lon="15.78012">
        <ele>380.497655</ele>
        <time>2022-09-27T08:16:20.986Z</time>
      </trkpt>
      <trkpt lat="47.10708" lon="15.78025">
        <ele>380.475241</ele>
        <time>2022-09-27T08:16:23.991Z</time>
      </trkpt>
      <trkpt lat="47.10702" lon="15.78036">
        <ele>380.457938</ele>
        <time>2022-09-27T08:16:26.987Z</time>
      </trkpt>
      <trkpt lat="47.10694" lon="15.78049">
        <ele>380.43604</ele>
        <time>2022-09-27T08:16:31.036Z</time>
      </trkpt>
      <trkpt lat="47.10686" lon="15.78063">
        <ele>380.41399</ele>
        <time>2022-09-27T08:16:34.986Z</time>
      </trkpt>
      <trkpt lat="47.10681" lon="15.78074">
        <ele>380.397252</ele>
        <time>2022-09-27T08:16:37.996Z</time>
      </trkpt>
      <trkpt lat="47.10676" lon="15.78088">
        <ele>380.471598</ele>
        <time>2022-09-27T08:16:42.033Z</time>
      </trkpt>
      <trkpt lat="47.1067" lon="15.78102">
        <ele>380.717108</ele>
        <time>2022-09-27T08:16:45.987Z</time>
      </trkpt>
      <trkpt lat="47.10664" lon="15.78115">
        <ele>380.972689</ele>
        <time>2022-09-27T08:16:49.977Z</time>
      </trkpt>
      <trkpt lat="47.10658" lon="15.78129">
        <ele>381.236772</ele>
        <time>2022-09-27T08:16:53.993Z</time>
      </trkpt>
      <trkpt lat="47.10652" lon="15.7814">
        <ele>381.456553</ele>
        <time>2022-09-27T08:16:56.999Z</time>
      </trkpt>
      <trkpt lat="47.10645" lon="15.78154">
        <ele>381.731946</ele>
        <time>2022-09-27T08:17:00.999Z</time>
      </trkpt>
      <trkpt lat="47.10637" lon="15.78164">
        <ele>381.989377</ele>
        <time>2022-09-27T08:17:05.021Z</time>
      </trkpt>
      <trkpt lat="47.10627" lon="15.78173">
        <ele>382.254221</ele>
        <time>2022-09-27T08:17:09.024Z</time>
      </trkpt>
      <trkpt lat="47.10619" lon="15.78181">
        <ele>382.477921</ele>
        <time>2022-09-27T08:17:12.019Z</time>
      </trkpt>
      <trkpt lat="47.10609" lon="15.78188">
        <ele>382.731916</ele>
        <time>2022-09-27T08:17:15.975Z</time>
      </trkpt>
      <trkpt lat="47.10599" lon="15.78195">
        <ele>382.986417</ele>
        <time>2022-09-27T08:17:19.993Z</time>
      </trkpt>
      <trkpt lat="47.1059" lon="15.78202">
        <ele>383.218618</ele>
        <time>2022-09-27T08:17:23.021Z</time>
      </trkpt>
      <trkpt lat="47.10581" lon="15.78208">
        <ele>383.453064</ele>
        <time>2022-09-27T08:17:25.984Z</time>
      </trkpt>
      <trkpt lat="47.10571" lon="15.78217">
        <ele>383.734651</ele>
        <time>2022-09-27T08:17:29.987Z</time>
      </trkpt>
      <trkpt lat="47.10562" lon="15.78224">
        <ele>383.970815</ele>
        <time>2022-09-27T08:17:32.979Z</time>
      </trkpt>
      <trkpt lat="47.10555" lon="15.78233">
        <ele>384.18335</ele>
        <time>2022-09-27T08:17:36.018Z</time>
      </trkpt>
      <trkpt lat="47.10548" lon="15.78241">
        <ele>384.394682</ele>
        <time>2022-09-27T08:17:38.993Z</time>
      </trkpt>
      <trkpt lat="47.10541" lon="15.78249">
        <ele>384.606556</ele>
        <time>2022-09-27T08:17:43.999Z</time>
      </trkpt>
      <trkpt lat="47.10533" lon="15.78258">
        <ele>384.853434</ele>
        <time>2022-09-27T08:17:48.015Z</time>
      </trkpt>
      <trkpt lat="47.10525" lon="15.78267">
        <ele>385.082214</ele>
        <time>2022-09-27T08:17:51.992Z</time>
      </trkpt>
      <trkpt lat="47.10518" lon="15.78274">
        <ele>385.311093</ele>
        <time>2022-09-27T08:17:57.998Z</time>
      </trkpt>
      <trkpt lat="47.10509" lon="15.78285">
        <ele>385.582616</ele>
        <time>2022-09-27T08:18:01.981Z</time>
      </trkpt>
      <trkpt lat="47.10503" lon="15.78296">
        <ele>385.819223</ele>
        <time>2022-09-27T08:18:05.983Z</time>
      </trkpt>
      <trkpt lat="47.10497" lon="15.78308">
        <ele>386.070029</ele>
        <time>2022-09-27T08:18:11.011Z</time>
      </trkpt>
      <trkpt lat="47.10491" lon="15.78322">
        <ele>386.341756</ele>
        <time>2022-09-27T08:18:15.989Z</time>
      </trkpt>
      <trkpt lat="47.10486" lon="15.78333">
        <ele>386.575929</ele>
        <time>2022-09-27T08:18:19.971Z</time>
      </trkpt>
      <trkpt lat="47.10478" lon="15.78346">
        <ele>386.862972</ele>
        <time>2022-09-27T08:18:23.989Z</time>
      </trkpt>
      <trkpt lat="47.1047" lon="15.78356">
        <ele>387.122186</ele>
        <time>2022-09-27T08:18:27.036Z</time>
      </trkpt>
      <trkpt lat="47.10462" lon="15.78366">
        <ele>387.36377</ele>
        <time>2022-09-27T08:18:29.991Z</time>
      </trkpt>
      <trkpt lat="47.10455" lon="15.78377">
        <ele>387.616768</ele>
        <time>2022-09-27T08:18:32.975Z</time>
      </trkpt>
      <trkpt lat="47.1045" lon="15.78387">
        <ele>387.839176</ele>
        <time>2022-09-27T08:18:35.988Z</time>
      </trkpt>
      <trkpt lat="47.10443" lon="15.78399">
        <ele>388.100062</ele>
        <time>2022-09-27T08:18:39.994Z</time>
      </trkpt>
      <trkpt lat="47.10436" lon="15.78413">
        <ele>388.383121</ele>
        <time>2022-09-27T08:18:43.990Z</time>
      </trkpt>
      <trkpt lat="47.1043" lon="15.78427">
        <ele>388.653815</ele>
        <time>2022-09-27T08:18:47.993Z</time>
      </trkpt>
      <trkpt lat="47.10424" lon="15.7844">
        <ele>388.922447</ele>
        <time>2022-09-27T08:18:51.979Z</time>
      </trkpt>
      <trkpt lat="47.1042" lon="15.78453">
        <ele>388.986846</ele>
        <time>2022-09-27T08:18:55.984Z</time>
      </trkpt>
      <trkpt lat="47.10412" lon="15.78462">
        <ele>389.002305</ele>
        <time>2022-09-27T08:18:59.991Z</time>
      </trkpt>
      <trkpt lat="47.10403" lon="15.78474">
        <ele>389.022037</ele>
        <time>2022-09-27T08:19:05.032Z</time>
      </trkpt>
      <trkpt lat="47.10399" lon="15.78487">
        <ele>389.038248</ele>
        <time>2022-09-27T08:19:09.987Z</time>
      </trkpt>
      <trkpt lat="47.10392" lon="15.78495">
        <ele>389.053085</ele>
        <time>2022-09-27T08:19:13.978Z</time>
      </trkpt>
      <trkpt lat="47.10385" lon="15.78507">
        <ele>389.06992</ele>
        <time>2022-09-27T08:19:19.053Z</time>
      </trkpt>
      <trkpt lat="47.10378" lon="15.78519">
        <ele>389.087968</ele>
        <time>2022-09-27T08:19:23.983Z</time>
      </trkpt>
      <trkpt lat="47.1037" lon="15.78531">
        <ele>389.106576</ele>
        <time>2022-09-27T08:19:28.987Z</time>
      </trkpt>
      <trkpt lat="47.10363" lon="15.78541">
        <ele>389.121561</ele>
        <time>2022-09-27T08:19:32.999Z</time>
      </trkpt>
      <trkpt lat="47.10356" lon="15.78554">
        <ele>389.140652</ele>
        <time>2022-09-27T08:19:36.987Z</time>
      </trkpt>
      <trkpt lat="47.10347" lon="15.78568">
        <ele>389.160971</ele>
        <time>2022-09-27T08:19:40.981Z</time>
      </trkpt>
      <trkpt lat="47.10337" lon="15.78578">
        <ele>389.181337</ele>
        <time>2022-09-27T08:19:43.988Z</time>
      </trkpt>
      <trkpt lat="47.10326" lon="15.78588">
        <ele>389.202491</ele>
        <time>2022-09-27T08:19:46.983Z</time>
      </trkpt>
      <trkpt lat="47.10318" lon="15.78596">
        <ele>389.218212</ele>
        <time>2022-09-27T08:19:49.989Z</time>
      </trkpt>
      <trkpt lat="47.1031" lon="15.78603">
        <ele>389.23317</ele>
        <time>2022-09-27T08:19:52.989Z</time>
      </trkpt>
      <trkpt lat="47.10301" lon="15.7861">
        <ele>389.249925</ele>
        <time>2022-09-27T08:19:55.994Z</time>
      </trkpt>
      <trkpt lat="47.10294" lon="15.7862">
        <ele>389.265198</ele>
        <time>2022-09-27T08:19:58.982Z</time>
      </trkpt>
      <trkpt lat="47.10289" lon="15.78632">
        <ele>389.237865</ele>
        <time>2022-09-27T08:20:02.005Z</time>
      </trkpt>
      <trkpt lat="47.10282" lon="15.78648">
        <ele>389.194552</ele>
        <time>2022-09-27T08:20:04.991Z</time>
      </trkpt>
      <trkpt lat="47.10279" lon="15.78661">
        <ele>389.164047</ele>
        <time>2022-09-27T08:20:06.985Z</time>
      </trkpt>
      <trkpt lat="47.10273" lon="15.78675">
        <ele>389.126951</ele>
        <time>2022-09-27T08:20:10.013Z</time>
      </trkpt>
      <trkpt lat="47.10269" lon="15.78689">
        <ele>389.093055</ele>
        <time>2022-09-27T08:20:12.990Z</time>
      </trkpt>
      <trkpt lat="47.10266" lon="15.78701">
        <ele>389.063232</ele>
        <time>2022-09-27T08:20:16.000Z</time>
      </trkpt>
      <trkpt lat="47.10261" lon="15.78715">
        <ele>389.02661</ele>
        <time>2022-09-27T08:20:19.988Z</time>
      </trkpt>
      <trkpt lat="47.10256" lon="15.78729">
        <ele>388.992307</ele>
        <time>2022-09-27T08:20:23.994Z</time>
      </trkpt>
      <trkpt lat="47.1025" lon="15.78744">
        <ele>388.952448</ele>
        <time>2022-09-27T08:20:27.986Z</time>
      </trkpt>
      <trkpt lat="47.10245" lon="15.78755">
        <ele>388.921626</ele>
        <time>2022-09-27T08:20:30.994Z</time>
      </trkpt>
      <trkpt lat="47.10238" lon="15.78766">
        <ele>388.886768</ele>
        <time>2022-09-27T08:20:34.993Z</time>
      </trkpt>
      <trkpt lat="47.10231" lon="15.78776">
        <ele>388.854703</ele>
        <time>2022-09-27T08:20:39.019Z</time>
      </trkpt>
      <trkpt lat="47.10224" lon="15.78785">
        <ele>388.824049</ele>
        <time>2022-09-27T08:20:43.076Z</time>
      </trkpt>
      <trkpt lat="47.10216" lon="15.78792">
        <ele>388.792154</ele>
        <time>2022-09-27T08:20:45.984Z</time>
      </trkpt>
      <trkpt lat="47.10207" lon="15.788">
        <ele>388.757121</ele>
        <time>2022-09-27T08:20:48.993Z</time>
      </trkpt>
      <trkpt lat="47.10195" lon="15.78806">
        <ele>388.715906</ele>
        <time>2022-09-27T08:20:51.984Z</time>
      </trkpt>
      <trkpt lat="47.10185" lon="15.78812">
        <ele>388.678942</ele>
        <time>2022-09-27T08:20:55.985Z</time>
      </trkpt>
      <trkpt lat="47.10176" lon="15.78815">
        <ele>388.424395</ele>
        <time>2022-09-27T08:21:04.008Z</time>
      </trkpt>
      <trkpt lat="47.10166" lon="15.78817">
        <ele>388.03438</ele>
        <time>2022-09-27T08:21:13.989Z</time>
      </trkpt>
      <trkpt lat="47.10155" lon="15.78825">
        <ele>387.527075</ele>
        <time>2022-09-27T08:21:18.982Z</time>
      </trkpt>
      <trkpt lat="47.10145" lon="15.78837">
        <ele>386.986731</ele>
        <time>2022-09-27T08:21:21.985Z</time>
      </trkpt>
      <trkpt lat="47.10139" lon="15.78849">
        <ele>386.582449</ele>
        <time>2022-09-27T08:21:23.979Z</time>
      </trkpt>
      <trkpt lat="47.10135" lon="15.78864">
        <ele>386.132591</ele>
        <time>2022-09-27T08:21:26.064Z</time>
      </trkpt>
      <trkpt lat="47.10132" lon="15.78881">
        <ele>385.619318</ele>
        <time>2022-09-27T08:21:27.984Z</time>
      </trkpt>
      <trkpt lat="47.10128" lon="15.789">
        <ele>385.07881</ele>
        <time>2022-09-27T08:21:30.035Z</time>
      </trkpt>
      <trkpt lat="47.10123" lon="15.78921">
        <ele>384.451272</ele>
        <time>2022-09-27T08:21:31.995Z</time>
      </trkpt>
      <trkpt lat="47.10119" lon="15.78944">
        <ele>383.779872</ele>
        <time>2022-09-27T08:21:34.019Z</time>
      </trkpt>
      <trkpt lat="47.10114" lon="15.78969">
        <ele>383.064611</ele>
        <time>2022-09-27T08:21:35.986Z</time>
      </trkpt>
      <trkpt lat="47.10112" lon="15.78981">
        <ele>382.69151</ele>
        <time>2022-09-27T08:21:36.993Z</time>
      </trkpt>
      <trkpt lat="47.1011" lon="15.78995">
        <ele>382.304786</ele>
        <time>2022-09-27T08:21:37.994Z</time>
      </trkpt>
      <trkpt lat="47.10108" lon="15.79009">
        <ele>381.90703</ele>
        <time>2022-09-27T08:21:38.990Z</time>
      </trkpt>
      <trkpt lat="47.10105" lon="15.79023">
        <ele>381.505703</ele>
        <time>2022-09-27T08:21:40.024Z</time>
      </trkpt>
      <trkpt lat="47.10103" lon="15.79036">
        <ele>381.226682</ele>
        <time>2022-09-27T08:21:40.979Z</time>
      </trkpt>
      <trkpt lat="47.10101" lon="15.7905">
        <ele>381.146827</ele>
        <time>2022-09-27T08:21:41.989Z</time>
      </trkpt>
      <trkpt lat="47.10098" lon="15.79064">
        <ele>381.066972</ele>
        <time>2022-09-27T08:21:42.974Z</time>
      </trkpt>
      <trkpt lat="47.10096" lon="15.79078">
        <ele>380.986942</ele>
        <time>2022-09-27T08:21:44.008Z</time>
      </trkpt>
      <trkpt lat="47.10094" lon="15.79092">
        <ele>380.907625</ele>
        <time>2022-09-27T08:21:44.985Z</time>
      </trkpt>
      <trkpt lat="47.10092" lon="15.79106">
        <ele>380.827595</ele>
        <time>2022-09-27T08:21:45.981Z</time>
      </trkpt>
      <trkpt lat="47.1009" lon="15.7912">
        <ele>380.748647</ele>
        <time>2022-09-27T08:21:46.986Z</time>
      </trkpt>
      <trkpt lat="47.10088" lon="15.79134">
        <ele>380.672217</ele>
        <time>2022-09-27T08:21:47.970Z</time>
      </trkpt>
      <trkpt lat="47.10085" lon="15.79147">
        <ele>380.596024</ele>
        <time>2022-09-27T08:21:49.010Z</time>
      </trkpt>
      <trkpt lat="47.10082" lon="15.79172">
        <ele>380.452796</ele>
        <time>2022-09-27T08:21:51.018Z</time>
      </trkpt>
      <trkpt lat="47.10081" lon="15.79185">
        <ele>380.379</ele>
        <time>2022-09-27T08:21:51.987Z</time>
      </trkpt>
      <trkpt lat="47.10078" lon="15.79209">
        <ele>380.245712</ele>
        <time>2022-09-27T08:21:53.998Z</time>
      </trkpt>
      <trkpt lat="47.10077" lon="15.79232">
        <ele>380.115779</ele>
        <time>2022-09-27T08:21:55.995Z</time>
      </trkpt>
      <trkpt lat="47.10075" lon="15.79256">
        <ele>379.984906</ele>
        <time>2022-09-27T08:21:57.978Z</time>
      </trkpt>
      <trkpt lat="47.10075" lon="15.79279">
        <ele>379.857889</ele>
        <time>2022-09-27T08:21:59.984Z</time>
      </trkpt>
      <trkpt lat="47.10075" lon="15.79301">
        <ele>379.603238</ele>
        <time>2022-09-27T08:22:02.026Z</time>
      </trkpt>
      <trkpt lat="47.10075" lon="15.79323">
        <ele>379.170373</ele>
        <time>2022-09-27T08:22:03.988Z</time>
      </trkpt>
      <trkpt lat="47.10074" lon="15.79346">
        <ele>378.737481</ele>
        <time>2022-09-27T08:22:05.989Z</time>
      </trkpt>
      <trkpt lat="47.10076" lon="15.79366">
        <ele>378.336143</ele>
        <time>2022-09-27T08:22:07.979Z</time>
      </trkpt>
      <trkpt lat="47.10079" lon="15.79385">
        <ele>377.961123</ele>
        <time>2022-09-27T08:22:09.996Z</time>
      </trkpt>
      <trkpt lat="47.10082" lon="15.79403">
        <ele>377.60802</ele>
        <time>2022-09-27T08:22:11.990Z</time>
      </trkpt>
      <trkpt lat="47.10085" lon="15.7942">
        <ele>377.26456</ele>
        <time>2022-09-27T08:22:13.992Z</time>
      </trkpt>
      <trkpt lat="47.10088" lon="15.79437">
        <ele>376.91958</ele>
        <time>2022-09-27T08:22:15.993Z</time>
      </trkpt>
      <trkpt lat="47.10091" lon="15.79454">
        <ele>376.589774</ele>
        <time>2022-09-27T08:22:17.994Z</time>
      </trkpt>
      <trkpt lat="47.10093" lon="15.79471">
        <ele>376.264872</ele>
        <time>2022-09-27T08:22:19.984Z</time>
      </trkpt>
      <trkpt lat="47.10096" lon="15.79487">
        <ele>375.934395</ele>
        <time>2022-09-27T08:22:21.985Z</time>
      </trkpt>
      <trkpt lat="47.10098" lon="15.79504">
        <ele>375.610244</ele>
        <time>2022-09-27T08:22:24.012Z</time>
      </trkpt>
      <trkpt lat="47.10101" lon="15.7952">
        <ele>375.293022</ele>
        <time>2022-09-27T08:22:25.998Z</time>
      </trkpt>
      <trkpt lat="47.10103" lon="15.79535">
        <ele>374.978912</ele>
        <time>2022-09-27T08:22:27.999Z</time>
      </trkpt>
      <trkpt lat="47.10106" lon="15.79552">
        <ele>374.667687</ele>
        <time>2022-09-27T08:22:29.987Z</time>
      </trkpt>
      <trkpt lat="47.10108" lon="15.79568">
        <ele>374.507024</ele>
        <time>2022-09-27T08:22:32.017Z</time>
      </trkpt>
      <trkpt lat="47.10111" lon="15.79585">
        <ele>374.347008</ele>
        <time>2022-09-27T08:22:33.985Z</time>
      </trkpt>
      <trkpt lat="47.10113" lon="15.79601">
        <ele>374.191948</ele>
        <time>2022-09-27T08:22:35.989Z</time>
      </trkpt>
      <trkpt lat="47.10115" lon="15.79617">
        <ele>374.034105</ele>
        <time>2022-09-27T08:22:38.005Z</time>
      </trkpt>
      <trkpt lat="47.10118" lon="15.79632">
        <ele>373.88526</ele>
        <time>2022-09-27T08:22:39.986Z</time>
      </trkpt>
      <trkpt lat="47.1012" lon="15.79646">
        <ele>373.744165</ele>
        <time>2022-09-27T08:22:41.988Z</time>
      </trkpt>
      <trkpt lat="47.10122" lon="15.7966">
        <ele>373.609859</ele>
        <time>2022-09-27T08:22:43.986Z</time>
      </trkpt>
      <trkpt lat="47.10124" lon="15.79673">
        <ele>373.483583</ele>
        <time>2022-09-27T08:22:46.026Z</time>
      </trkpt>
      <trkpt lat="47.10126" lon="15.79686">
        <ele>373.356446</ele>
        <time>2022-09-27T08:22:47.995Z</time>
      </trkpt>
      <trkpt lat="47.10128" lon="15.79699">
        <ele>373.226517</ele>
        <time>2022-09-27T08:22:49.993Z</time>
      </trkpt>
      <trkpt lat="47.10131" lon="15.79718">
        <ele>373.04039</ele>
        <time>2022-09-27T08:22:52.995Z</time>
      </trkpt>
      <trkpt lat="47.10134" lon="15.79737">
        <ele>372.857438</ele>
        <time>2022-09-27T08:22:55.989Z</time>
      </trkpt>
      <trkpt lat="47.10137" lon="15.79756">
        <ele>372.675723</ele>
        <time>2022-09-27T08:22:58.976Z</time>
      </trkpt>
      <trkpt lat="47.1014" lon="15.79773">
        <ele>372.502986</ele>
        <time>2022-09-27T08:23:01.991Z</time>
      </trkpt>
      <trkpt lat="47.10142" lon="15.7979">
        <ele>372.337649</ele>
        <time>2022-09-27T08:23:05.000Z</time>
      </trkpt>
      <trkpt lat="47.10144" lon="15.79807">
        <ele>372.178665</ele>
        <time>2022-09-27T08:23:07.988Z</time>
      </trkpt>
      <trkpt lat="47.10145" lon="15.79824">
        <ele>372.296996</ele>
        <time>2022-09-27T08:23:11.024Z</time>
      </trkpt>
      <trkpt lat="47.10147" lon="15.7984">
        <ele>372.445547</ele>
        <time>2022-09-27T08:23:14.024Z</time>
      </trkpt>
      <trkpt lat="47.10148" lon="15.79858">
        <ele>372.598944</ele>
        <time>2022-09-27T08:23:16.998Z</time>
      </trkpt>
      <trkpt lat="47.10149" lon="15.79874">
        <ele>372.742339</ele>
        <time>2022-09-27T08:23:20.038Z</time>
      </trkpt>
      <trkpt lat="47.1015" lon="15.79891">
        <ele>372.886054</ele>
        <time>2022-09-27T08:23:22.997Z</time>
      </trkpt>
      <trkpt lat="47.10151" lon="15.79907">
        <ele>373.032607</ele>
        <time>2022-09-27T08:23:25.988Z</time>
      </trkpt>
      <trkpt lat="47.10151" lon="15.79926">
        <ele>373.191834</ele>
        <time>2022-09-27T08:23:28.989Z</time>
      </trkpt>
      <trkpt lat="47.10151" lon="15.79944">
        <ele>373.355175</ele>
        <time>2022-09-27T08:23:31.979Z</time>
      </trkpt>
      <trkpt lat="47.10152" lon="15.79963">
        <ele>373.520342</ele>
        <time>2022-09-27T08:23:34.988Z</time>
      </trkpt>
      <trkpt lat="47.10153" lon="15.79982">
        <ele>373.686702</ele>
        <time>2022-09-27T08:23:37.996Z</time>
      </trkpt>
      <trkpt lat="47.10154" lon="15.8">
        <ele>373.84348</ele>
        <time>2022-09-27T08:23:40.979Z</time>
      </trkpt>
      <trkpt lat="47.10155" lon="15.80017">
        <ele>373.990785</ele>
        <time>2022-09-27T08:23:44.003Z</time>
      </trkpt>
      <trkpt lat="47.10156" lon="15.80034">
        <ele>374.143425</ele>
        <time>2022-09-27T08:23:47.000Z</time>
      </trkpt>
      <trkpt lat="47.10157" lon="15.80051">
        <ele>374.293751</ele>
        <time>2022-09-27T08:23:49.993Z</time>
      </trkpt>
      <trkpt lat="47.10159" lon="15.80069">
        <ele>374.451618</ele>
        <time>2022-09-27T08:23:52.983Z</time>
      </trkpt>
      <trkpt lat="47.10159" lon="15.80086">
        <ele>374.570021</ele>
        <time>2022-09-27T08:23:55.993Z</time>
      </trkpt>
      <trkpt lat="47.10161" lon="15.80104">
        <ele>374.69537</ele>
        <time>2022-09-27T08:23:59.026Z</time>
      </trkpt>
      <trkpt lat="47.10161" lon="15.8012">
        <ele>374.806225</ele>
        <time>2022-09-27T08:24:01.984Z</time>
      </trkpt>
      <trkpt lat="47.10161" lon="15.80137">
        <ele>374.920385</ele>
        <time>2022-09-27T08:24:04.997Z</time>
      </trkpt>
      <trkpt lat="47.10162" lon="15.80155">
        <ele>375.042949</ele>
        <time>2022-09-27T08:24:07.996Z</time>
      </trkpt>
      <trkpt lat="47.10163" lon="15.80174">
        <ele>375.172027</ele>
        <time>2022-09-27T08:24:11.020Z</time>
      </trkpt>
      <trkpt lat="47.10164" lon="15.8019">
        <ele>375.285663</ele>
        <time>2022-09-27T08:24:13.984Z</time>
      </trkpt>
      <trkpt lat="47.10165" lon="15.80207">
        <ele>375.403856</ele>
        <time>2022-09-27T08:24:16.988Z</time>
      </trkpt>
      <trkpt lat="47.10165" lon="15.80223">
        <ele>375.509831</ele>
        <time>2022-09-27T08:24:20.014Z</time>
      </trkpt>
      <trkpt lat="47.10165" lon="15.8024">
        <ele>375.626081</ele>
        <time>2022-09-27T08:24:23.001Z</time>
      </trkpt>
      <trkpt lat="47.10165" lon="15.80256">
        <ele>375.735459</ele>
        <time>2022-09-27T08:24:25.989Z</time>
      </trkpt>
      <trkpt lat="47.10164" lon="15.80272">
        <ele>375.845294</ele>
        <time>2022-09-27T08:24:28.987Z</time>
      </trkpt>
      <trkpt lat="47.10163" lon="15.80288">
        <ele>375.952856</ele>
        <time>2022-09-27T08:24:31.991Z</time>
      </trkpt>
      <trkpt lat="47.10161" lon="15.80304">
        <ele>376.068818</ele>
        <time>2022-09-27T08:24:34.988Z</time>
      </trkpt>
      <trkpt lat="47.1016" lon="15.80323">
        <ele>376.194795</ele>
        <time>2022-09-27T08:24:37.989Z</time>
      </trkpt>
      <trkpt lat="47.1016" lon="15.80343">
        <ele>376.181603</ele>
        <time>2022-09-27T08:24:40.982Z</time>
      </trkpt>
      <trkpt lat="47.10159" lon="15.80356">
        <ele>376.017433</ele>
        <time>2022-09-27T08:24:42.996Z</time>
      </trkpt>
      <trkpt lat="47.10158" lon="15.80376">
        <ele>375.776992</ele>
        <time>2022-09-27T08:24:45.981Z</time>
      </trkpt>
      <trkpt lat="47.10158" lon="15.80393">
        <ele>375.559057</ele>
        <time>2022-09-27T08:24:48.981Z</time>
      </trkpt>
      <trkpt lat="47.10156" lon="15.80412">
        <ele>375.33135</ele>
        <time>2022-09-27T08:24:51.989Z</time>
      </trkpt>
      <trkpt lat="47.10154" lon="15.80431">
        <ele>375.10056</ele>
        <time>2022-09-27T08:24:54.983Z</time>
      </trkpt>
      <trkpt lat="47.10153" lon="15.8045">
        <ele>374.864919</ele>
        <time>2022-09-27T08:24:57.978Z</time>
      </trkpt>
      <trkpt lat="47.10152" lon="15.80463">
        <ele>374.697084</ele>
        <time>2022-09-27T08:24:59.992Z</time>
      </trkpt>
      <trkpt lat="47.10152" lon="15.80478">
        <ele>374.515597</ele>
        <time>2022-09-27T08:25:01.991Z</time>
      </trkpt>
      <trkpt lat="47.10151" lon="15.80493">
        <ele>374.335197</ele>
        <time>2022-09-27T08:25:03.992Z</time>
      </trkpt>
      <trkpt lat="47.10149" lon="15.80509">
        <ele>374.134216</ele>
        <time>2022-09-27T08:25:05.994Z</time>
      </trkpt>
      <trkpt lat="47.10149" lon="15.80525">
        <ele>373.940398</ele>
        <time>2022-09-27T08:25:07.979Z</time>
      </trkpt>
      <trkpt lat="47.10149" lon="15.80543">
        <ele>373.722641</ele>
        <time>2022-09-27T08:25:09.985Z</time>
      </trkpt>
      <trkpt lat="47.10149" lon="15.80559">
        <ele>373.518316</ele>
        <time>2022-09-27T08:25:11.976Z</time>
      </trkpt>
      <trkpt lat="47.1015" lon="15.80578">
        <ele>373.29373</ele>
        <time>2022-09-27T08:25:14.000Z</time>
      </trkpt>
      <trkpt lat="47.1015" lon="15.80596">
        <ele>373.074572</ele>
        <time>2022-09-27T08:25:15.989Z</time>
      </trkpt>
      <trkpt lat="47.10151" lon="15.80615">
        <ele>372.718189</ele>
        <time>2022-09-27T08:25:18.032Z</time>
      </trkpt>
      <trkpt lat="47.10153" lon="15.80635">
        <ele>372.316715</ele>
        <time>2022-09-27T08:25:19.996Z</time>
      </trkpt>
      <trkpt lat="47.10155" lon="15.80656">
        <ele>371.888092</ele>
        <time>2022-09-27T08:25:21.987Z</time>
      </trkpt>
      <trkpt lat="47.10158" lon="15.80678">
        <ele>371.450584</ele>
        <time>2022-09-27T08:25:23.981Z</time>
      </trkpt>
      <trkpt lat="47.10162" lon="15.807">
        <ele>370.995229</ele>
        <time>2022-09-27T08:25:25.976Z</time>
      </trkpt>
      <trkpt lat="47.10165" lon="15.80723">
        <ele>370.535389</ele>
        <time>2022-09-27T08:25:27.987Z</time>
      </trkpt>
      <trkpt lat="47.10168" lon="15.80745">
        <ele>370.082575</ele>
        <time>2022-09-27T08:25:29.994Z</time>
      </trkpt>
      <trkpt lat="47.10171" lon="15.80768">
        <ele>369.629117</ele>
        <time>2022-09-27T08:25:32.003Z</time>
      </trkpt>
      <trkpt lat="47.10173" lon="15.8079">
        <ele>369.197848</ele>
        <time>2022-09-27T08:25:33.989Z</time>
      </trkpt>
      <trkpt lat="47.10174" lon="15.8081">
        <ele>368.789792</ele>
        <time>2022-09-27T08:25:35.972Z</time>
      </trkpt>
      <trkpt lat="47.10174" lon="15.8083">
        <ele>368.393847</ele>
        <time>2022-09-27T08:25:37.971Z</time>
      </trkpt>
      <trkpt lat="47.10174" lon="15.8085">
        <ele>368.008016</ele>
        <time>2022-09-27T08:25:40.012Z</time>
      </trkpt>
      <trkpt lat="47.10173" lon="15.80868">
        <ele>367.783968</ele>
        <time>2022-09-27T08:25:41.989Z</time>
      </trkpt>
      <trkpt lat="47.10172" lon="15.80885">
        <ele>367.719661</ele>
        <time>2022-09-27T08:25:43.970Z</time>
      </trkpt>
      <trkpt lat="47.1017" lon="15.809">
        <ele>367.660951</ele>
        <time>2022-09-27T08:25:45.999Z</time>
      </trkpt>
      <trkpt lat="47.10168" lon="15.80914">
        <ele>367.607041</ele>
        <time>2022-09-27T08:25:47.984Z</time>
      </trkpt>
      <trkpt lat="47.10165" lon="15.80927">
        <ele>367.556013</ele>
        <time>2022-09-27T08:25:49.980Z</time>
      </trkpt>
      <trkpt lat="47.10161" lon="15.80946">
        <ele>367.48269</ele>
        <time>2022-09-27T08:25:52.986Z</time>
      </trkpt>
      <trkpt lat="47.10157" lon="15.80962">
        <ele>367.415145</ele>
        <time>2022-09-27T08:25:55.994Z</time>
      </trkpt>
      <trkpt lat="47.10153" lon="15.80979">
        <ele>367.347885</ele>
        <time>2022-09-27T08:25:59.015Z</time>
      </trkpt>
      <trkpt lat="47.10147" lon="15.80996">
        <ele>367.27787</ele>
        <time>2022-09-27T08:26:02.033Z</time>
      </trkpt>
      <trkpt lat="47.10143" lon="15.81014">
        <ele>367.205917</ele>
        <time>2022-09-27T08:26:04.979Z</time>
      </trkpt>
      <trkpt lat="47.10138" lon="15.81032">
        <ele>367.133458</ele>
        <time>2022-09-27T08:26:07.988Z</time>
      </trkpt>
      <trkpt lat="47.10134" lon="15.81051">
        <ele>367.058353</ele>
        <time>2022-09-27T08:26:10.997Z</time>
      </trkpt>
      <trkpt lat="47.10132" lon="15.81064">
        <ele>367.006653</ele>
        <time>2022-09-27T08:26:13.028Z</time>
      </trkpt>
      <trkpt lat="47.10131" lon="15.81078">
        <ele>366.955849</ele>
        <time>2022-09-27T08:26:15.009Z</time>
      </trkpt>
      <trkpt lat="47.10128" lon="15.81091">
        <ele>366.904358</ele>
        <time>2022-09-27T08:26:16.981Z</time>
      </trkpt>
      <trkpt lat="47.10125" lon="15.81105">
        <ele>366.849234</ele>
        <time>2022-09-27T08:26:18.989Z</time>
      </trkpt>
      <trkpt lat="47.10121" lon="15.81118">
        <ele>366.884441</ele>
        <time>2022-09-27T08:26:20.993Z</time>
      </trkpt>
      <trkpt lat="47.10118" lon="15.81132">
        <ele>367.011683</ele>
        <time>2022-09-27T08:26:22.991Z</time>
      </trkpt>
      <trkpt lat="47.10116" lon="15.81147">
        <ele>367.141604</ele>
        <time>2022-09-27T08:26:24.988Z</time>
      </trkpt>
      <trkpt lat="47.10113" lon="15.81162">
        <ele>367.27532</ele>
        <time>2022-09-27T08:26:26.997Z</time>
      </trkpt>
      <trkpt lat="47.10109" lon="15.81177">
        <ele>367.408569</ele>
        <time>2022-09-27T08:26:28.989Z</time>
      </trkpt>
      <trkpt lat="47.10106" lon="15.81192">
        <ele>367.549209</ele>
        <time>2022-09-27T08:26:30.978Z</time>
      </trkpt>
      <trkpt lat="47.10102" lon="15.81208">
        <ele>367.692362</ele>
        <time>2022-09-27T08:26:33.026Z</time>
      </trkpt>
      <trkpt lat="47.10098" lon="15.81223">
        <ele>367.827735</ele>
        <time>2022-09-27T08:26:35.034Z</time>
      </trkpt>
      <trkpt lat="47.10095" lon="15.81239">
        <ele>367.969092</ele>
        <time>2022-09-27T08:26:36.974Z</time>
      </trkpt>
      <trkpt lat="47.10092" lon="15.81253">
        <ele>368.101626</ele>
        <time>2022-09-27T08:26:38.997Z</time>
      </trkpt>
      <trkpt lat="47.10088" lon="15.81268">
        <ele>368.233452</ele>
        <time>2022-09-27T08:26:41.026Z</time>
      </trkpt>
      <trkpt lat="47.10086" lon="15.81283">
        <ele>368.365802</ele>
        <time>2022-09-27T08:26:42.988Z</time>
      </trkpt>
      <trkpt lat="47.10085" lon="15.81298">
        <ele>368.49536</ele>
        <time>2022-09-27T08:26:44.989Z</time>
      </trkpt>
      <trkpt lat="47.10083" lon="15.81311">
        <ele>368.615425</ele>
        <time>2022-09-27T08:26:47.015Z</time>
      </trkpt>
      <trkpt lat="47.10082" lon="15.81326">
        <ele>368.744426</ele>
        <time>2022-09-27T08:26:48.981Z</time>
      </trkpt>
      <trkpt lat="47.10081" lon="15.8134">
        <ele>368.864596</ele>
        <time>2022-09-27T08:26:50.994Z</time>
      </trkpt>
      <trkpt lat="47.1008" lon="15.81355">
        <ele>368.993507</ele>
        <time>2022-09-27T08:26:52.989Z</time>
      </trkpt>
      <trkpt lat="47.10081" lon="15.8137">
        <ele>369.075154</ele>
        <time>2022-09-27T08:26:54.986Z</time>
      </trkpt>
      <trkpt lat="47.1008" lon="15.81385">
        <ele>369.020739</ele>
        <time>2022-09-27T08:26:56.984Z</time>
      </trkpt>
      <trkpt lat="47.1008" lon="15.814">
        <ele>368.963408</ele>
        <time>2022-09-27T08:26:58.991Z</time>
      </trkpt>
      <trkpt lat="47.10081" lon="15.81415">
        <ele>368.908163</ele>
        <time>2022-09-27T08:27:00.988Z</time>
      </trkpt>
      <trkpt lat="47.10081" lon="15.81429">
        <ele>368.855662</ele>
        <time>2022-09-27T08:27:03.003Z</time>
      </trkpt>
      <trkpt lat="47.10082" lon="15.81443">
        <ele>368.801872</ele>
        <time>2022-09-27T08:27:04.993Z</time>
      </trkpt>
      <trkpt lat="47.10084" lon="15.81457">
        <ele>368.746095</ele>
        <time>2022-09-27T08:27:06.991Z</time>
      </trkpt>
      <trkpt lat="47.10085" lon="15.81473">
        <ele>368.687421</ele>
        <time>2022-09-27T08:27:09.031Z</time>
      </trkpt>
      <trkpt lat="47.10086" lon="15.81488">
        <ele>368.630438</ele>
        <time>2022-09-27T08:27:10.988Z</time>
      </trkpt>
      <trkpt lat="47.10088" lon="15.81503">
        <ele>368.572989</ele>
        <time>2022-09-27T08:27:12.993Z</time>
      </trkpt>
      <trkpt lat="47.10089" lon="15.81518">
        <ele>368.5149</ele>
        <time>2022-09-27T08:27:15.004Z</time>
      </trkpt>
      <trkpt lat="47.10091" lon="15.81533">
        <ele>368.458309</ele>
        <time>2022-09-27T08:27:16.991Z</time>
      </trkpt>
      <trkpt lat="47.10092" lon="15.81548">
        <ele>368.401718</ele>
        <time>2022-09-27T08:27:18.990Z</time>
      </trkpt>
      <trkpt lat="47.10093" lon="15.81563">
        <ele>368.346097</ele>
        <time>2022-09-27T08:27:21.001Z</time>
      </trkpt>
      <trkpt lat="47.10093" lon="15.81577">
        <ele>368.291645</ele>
        <time>2022-09-27T08:27:22.996Z</time>
      </trkpt>
      <trkpt lat="47.10094" lon="15.81591">
        <ele>368.237528</ele>
        <time>2022-09-27T08:27:24.994Z</time>
      </trkpt>
      <trkpt lat="47.10095" lon="15.81605">
        <ele>368.18386</ele>
        <time>2022-09-27T08:27:27.020Z</time>
      </trkpt>
      <trkpt lat="47.10097" lon="15.81621">
        <ele>368.126146</ele>
        <time>2022-09-27T08:27:28.991Z</time>
      </trkpt>
      <trkpt lat="47.10097" lon="15.81636">
        <ele>367.926841</ele>
        <time>2022-09-27T08:27:31.030Z</time>
      </trkpt>
      <trkpt lat="47.10099" lon="15.81651">
        <ele>367.532944</ele>
        <time>2022-09-27T08:27:33.033Z</time>
      </trkpt>
      <trkpt lat="47.101" lon="15.81666">
        <ele>367.137279</ele>
        <time>2022-09-27T08:27:34.979Z</time>
      </trkpt>
      <trkpt lat="47.101" lon="15.81681">
        <ele>366.744856</ele>
        <time>2022-09-27T08:27:36.985Z</time>
      </trkpt>
      <trkpt lat="47.10101" lon="15.81696">
        <ele>366.359505</ele>
        <time>2022-09-27T08:27:38.999Z</time>
      </trkpt>
      <trkpt lat="47.10102" lon="15.8171">
        <ele>366.000655</ele>
        <time>2022-09-27T08:27:40.984Z</time>
      </trkpt>
      <trkpt lat="47.10103" lon="15.81723">
        <ele>365.640655</ele>
        <time>2022-09-27T08:27:42.993Z</time>
      </trkpt>
      <trkpt lat="47.10104" lon="15.81737">
        <ele>365.281805</ele>
        <time>2022-09-27T08:27:45.004Z</time>
      </trkpt>
      <trkpt lat="47.10105" lon="15.81751">
        <ele>364.914084</ele>
        <time>2022-09-27T08:27:47.037Z</time>
      </trkpt>
      <trkpt lat="47.10107" lon="15.81766">
        <ele>364.526933</ele>
        <time>2022-09-27T08:27:48.992Z</time>
      </trkpt>
      <trkpt lat="47.10107" lon="15.81782">
        <ele>364.124178</ele>
        <time>2022-09-27T08:27:50.987Z</time>
      </trkpt>
      <trkpt lat="47.10109" lon="15.81796">
        <ele>363.744171</ele>
        <time>2022-09-27T08:27:53.105Z</time>
      </trkpt>
      <trkpt lat="47.1011" lon="15.8181">
        <ele>363.371848</ele>
        <time>2022-09-27T08:27:54.982Z</time>
      </trkpt>
      <trkpt lat="47.10111" lon="15.81824">
        <ele>363.008133</ele>
        <time>2022-09-27T08:27:57.027Z</time>
      </trkpt>
      <trkpt lat="47.10112" lon="15.81838">
        <ele>362.647263</ele>
        <time>2022-09-27T08:27:58.984Z</time>
      </trkpt>
      <trkpt lat="47.10112" lon="15.81852">
        <ele>362.288413</ele>
        <time>2022-09-27T08:28:00.995Z</time>
      </trkpt>
      <trkpt lat="47.10114" lon="15.81866">
        <ele>361.917669</ele>
        <time>2022-09-27T08:28:03.048Z</time>
      </trkpt>
      <trkpt lat="47.10115" lon="15.81881">
        <ele>361.537076</ele>
        <time>2022-09-27T08:28:05.018Z</time>
      </trkpt>
      <trkpt lat="47.10115" lon="15.81895">
        <ele>361.221309</ele>
        <time>2022-09-27T08:28:06.991Z</time>
      </trkpt>
      <trkpt lat="47.10116" lon="15.8191">
        <ele>361.115947</ele>
        <time>2022-09-27T08:28:08.973Z</time>
      </trkpt>
      <trkpt lat="47.10117" lon="15.81927">
        <ele>360.987877</ele>
        <time>2022-09-27T08:28:11.991Z</time>
      </trkpt>
      <trkpt lat="47.10113" lon="15.81941">
        <ele>360.871941</ele>
        <time>2022-09-27T08:28:17.010Z</time>
      </trkpt>
      <trkpt lat="47.10106" lon="15.81952">
        <ele>360.761597</ele>
        <time>2022-09-27T08:28:20.005Z</time>
      </trkpt>
      <trkpt lat="47.10097" lon="15.81963">
        <ele>360.630605</ele>
        <time>2022-09-27T08:28:22.985Z</time>
      </trkpt>
      <trkpt lat="47.10084" lon="15.81968">
        <ele>360.4868</ele>
        <time>2022-09-27T08:28:25.978Z</time>
      </trkpt>
      <trkpt lat="47.10075" lon="15.8197">
        <ele>360.384506</ele>
        <time>2022-09-27T08:28:27.996Z</time>
      </trkpt>
      <trkpt lat="47.10065" lon="15.81971">
        <ele>360.283951</ele>
        <time>2022-09-27T08:28:29.982Z</time>
      </trkpt>
      <trkpt lat="47.10056" lon="15.81973">
        <ele>360.180794</ele>
        <time>2022-09-27T08:28:32.037Z</time>
      </trkpt>
      <trkpt lat="47.10047" lon="15.81975">
        <ele>360.081241</ele>
        <time>2022-09-27T08:28:33.986Z</time>
      </trkpt>
      <trkpt lat="47.10038" lon="15.81976">
        <ele>359.982924</ele>
        <time>2022-09-27T08:28:36.012Z</time>
      </trkpt>
      <trkpt lat="47.10029" lon="15.81976">
        <ele>359.882879</ele>
        <time>2022-09-27T08:28:37.979Z</time>
      </trkpt>
      <trkpt lat="47.10019" lon="15.81977">
        <ele>359.779556</ele>
        <time>2022-09-27T08:28:39.980Z</time>
      </trkpt>
      <trkpt lat="47.1001" lon="15.81977">
        <ele>359.677359</ele>
        <time>2022-09-27T08:28:42.002Z</time>
      </trkpt>
      <trkpt lat="47.1" lon="15.81976">
        <ele>359.576155</ele>
        <time>2022-09-27T08:28:44.015Z</time>
      </trkpt>
      <trkpt lat="47.09991" lon="15.81976">
        <ele>359.476067</ele>
        <time>2022-09-27T08:28:45.986Z</time>
      </trkpt>
      <trkpt lat="47.09982" lon="15.81975">
        <ele>359.371604</ele>
        <time>2022-09-27T08:28:47.991Z</time>
      </trkpt>
      <trkpt lat="47.09972" lon="15.81974">
        <ele>359.312226</ele>
        <time>2022-09-27T08:28:49.979Z</time>
      </trkpt>
      <trkpt lat="47.09963" lon="15.81972">
        <ele>359.396601</ele>
        <time>2022-09-27T08:28:51.970Z</time>
      </trkpt>
      <trkpt lat="47.09953" lon="15.8197">
        <ele>359.483594</ele>
        <time>2022-09-27T08:28:53.960Z</time>
      </trkpt>
      <trkpt lat="47.09944" lon="15.81968">
        <ele>359.567806</ele>
        <time>2022-09-27T08:28:56.004Z</time>
      </trkpt>
      <trkpt lat="47.09935" lon="15.81967">
        <ele>359.650383</ele>
        <time>2022-09-27T08:28:58.007Z</time>
      </trkpt>
      <trkpt lat="47.09922" lon="15.81965">
        <ele>359.767737</ele>
        <time>2022-09-27T08:29:00.994Z</time>
      </trkpt>
      <trkpt lat="47.09913" lon="15.81964">
        <ele>359.851048</ele>
        <time>2022-09-27T08:29:03.015Z</time>
      </trkpt>
      <trkpt lat="47.09904" lon="15.81962">
        <ele>359.936162</ele>
        <time>2022-09-27T08:29:05.005Z</time>
      </trkpt>
      <trkpt lat="47.09895" lon="15.8196">
        <ele>360.020128</ele>
        <time>2022-09-27T08:29:06.997Z</time>
      </trkpt>
      <trkpt lat="47.09886" lon="15.8196">
        <ele>360.102857</ele>
        <time>2022-09-27T08:29:09.027Z</time>
      </trkpt>
      <trkpt lat="47.09879" lon="15.8197">
        <ele>360.18993</ele>
        <time>2022-09-27T08:29:10.996Z</time>
      </trkpt>
      <trkpt lat="47.09874" lon="15.81983">
        <ele>360.284926</ele>
        <time>2022-09-27T08:29:12.985Z</time>
      </trkpt>
      <trkpt lat="47.09865" lon="15.81991">
        <ele>360.377171</ele>
        <time>2022-09-27T08:29:16.999Z</time>
      </trkpt>
      <trkpt lat="47.09856" lon="15.81987">
        <ele>360.465042</ele>
        <time>2022-09-27T08:29:20.995Z</time>
      </trkpt>
      <trkpt lat="47.09843" lon="15.81986">
        <ele>360.581371</ele>
        <time>2022-09-27T08:29:25.000Z</time>
      </trkpt>
      <trkpt lat="47.09833" lon="15.81993">
        <ele>360.68119</ele>
        <time>2022-09-27T08:29:27.977Z</time>
      </trkpt>
      <trkpt lat="47.09826" lon="15.82004">
        <ele>360.7755</ele>
        <time>2022-09-27T08:29:30.991Z</time>
      </trkpt>
      <trkpt lat="47.09819" lon="15.82018">
        <ele>360.884427</ele>
        <time>2022-09-27T08:29:33.973Z</time>
      </trkpt>
      <trkpt lat="47.09811" lon="15.82034">
        <ele>360.755986</ele>
        <time>2022-09-27T08:29:36.990Z</time>
      </trkpt>
      <trkpt lat="47.09802" lon="15.82049">
        <ele>360.508846</ele>
        <time>2022-09-27T08:29:39.969Z</time>
      </trkpt>
      <trkpt lat="47.09796" lon="15.82064">
        <ele>360.273843</ele>
        <time>2022-09-27T08:29:43.013Z</time>
      </trkpt>
      <trkpt lat="47.09789" lon="15.8208">
        <ele>360.031615</ele>
        <time>2022-09-27T08:29:46.016Z</time>
      </trkpt>
      <trkpt lat="47.09782" lon="15.82094">
        <ele>359.810564</ele>
        <time>2022-09-27T08:29:48.980Z</time>
      </trkpt>
      <trkpt lat="47.09777" lon="15.82109">
        <ele>359.603363</ele>
        <time>2022-09-27T08:29:51.970Z</time>
      </trkpt>
      <trkpt lat="47.09771" lon="15.82122">
        <ele>359.399112</ele>
        <time>2022-09-27T08:29:54.988Z</time>
      </trkpt>
      <trkpt lat="47.09767" lon="15.82136">
        <ele>359.203363</ele>
        <time>2022-09-27T08:29:57.994Z</time>
      </trkpt>
      <trkpt lat="47.09761" lon="15.8215">
        <ele>358.986441</ele>
        <time>2022-09-27T08:30:01.090Z</time>
      </trkpt>
      <trkpt lat="47.09754" lon="15.82167">
        <ele>358.738789</ele>
        <time>2022-09-27T08:30:04.026Z</time>
      </trkpt>
      <trkpt lat="47.0975" lon="15.82179">
        <ele>358.560709</ele>
        <time>2022-09-27T08:30:05.993Z</time>
      </trkpt>
      <trkpt lat="47.09745" lon="15.82192">
        <ele>358.378367</ele>
        <time>2022-09-27T08:30:07.985Z</time>
      </trkpt>
      <trkpt lat="47.0974" lon="15.82204">
        <ele>358.197128</ele>
        <time>2022-09-27T08:30:10.004Z</time>
      </trkpt>
      <trkpt lat="47.09735" lon="15.82216">
        <ele>358.014419</ele>
        <time>2022-09-27T08:30:12.034Z</time>
      </trkpt>
      <trkpt lat="47.0973" lon="15.82229">
        <ele>357.829678</ele>
        <time>2022-09-27T08:30:13.993Z</time>
      </trkpt>
      <trkpt lat="47.09726" lon="15.82242">
        <ele>357.646744</ele>
        <time>2022-09-27T08:30:15.989Z</time>
      </trkpt>
      <trkpt lat="47.09721" lon="15.82255">
        <ele>357.553045</ele>
        <time>2022-09-27T08:30:18.009Z</time>
      </trkpt>
      <trkpt lat="47.09716" lon="15.82267">
        <ele>357.570549</ele>
        <time>2022-09-27T08:30:20.000Z</time>
      </trkpt>
      <trkpt lat="47.09711" lon="15.8228">
        <ele>357.588582</ele>
        <time>2022-09-27T08:30:21.988Z</time>
      </trkpt>
      <trkpt lat="47.09706" lon="15.82293">
        <ele>357.606316</ele>
        <time>2022-09-27T08:30:24.027Z</time>
      </trkpt>
      <trkpt lat="47.097" lon="15.82305">
        <ele>357.624128</ele>
        <time>2022-09-27T08:30:25.986Z</time>
      </trkpt>
      <trkpt lat="47.09695" lon="15.82318">
        <ele>357.641771</ele>
        <time>2022-09-27T08:30:27.986Z</time>
      </trkpt>
      <trkpt lat="47.0969" lon="15.8233">
        <ele>357.659888</ele>
        <time>2022-09-27T08:30:30.043Z</time>
      </trkpt>
      <trkpt lat="47.09684" lon="15.82343">
        <ele>357.677715</ele>
        <time>2022-09-27T08:30:31.986Z</time>
      </trkpt>
      <trkpt lat="47.09677" lon="15.82363">
        <ele>357.704381</ele>
        <time>2022-09-27T08:30:34.985Z</time>
      </trkpt>
      <trkpt lat="47.09673" lon="15.82375">
        <ele>357.721561</ele>
        <time>2022-09-27T08:30:36.999Z</time>
      </trkpt>
      <trkpt lat="47.09669" lon="15.82389">
        <ele>357.739174</ele>
        <time>2022-09-27T08:30:38.983Z</time>
      </trkpt>
      <trkpt lat="47.09664" lon="15.82402">
        <ele>357.757103</ele>
        <time>2022-09-27T08:30:41.020Z</time>
      </trkpt>
      <trkpt lat="47.09659" lon="15.82415">
        <ele>357.775094</ele>
        <time>2022-09-27T08:30:42.981Z</time>
      </trkpt>
      <trkpt lat="47.09654" lon="15.82429">
        <ele>357.793888</ele>
        <time>2022-09-27T08:30:44.962Z</time>
      </trkpt>
      <trkpt lat="47.09649" lon="15.82442">
        <ele>357.812767</ele>
        <time>2022-09-27T08:30:47.084Z</time>
      </trkpt>
      <trkpt lat="47.09643" lon="15.82456">
        <ele>357.832001</ele>
        <time>2022-09-27T08:30:48.999Z</time>
      </trkpt>
      <trkpt lat="47.09638" lon="15.82469">
        <ele>357.851029</ele>
        <time>2022-09-27T08:30:50.978Z</time>
      </trkpt>
      <trkpt lat="47.09632" lon="15.82483">
        <ele>357.859129</ele>
        <time>2022-09-27T08:30:52.990Z</time>
      </trkpt>
      <trkpt lat="47.09626" lon="15.82497">
        <ele>357.849696</ele>
        <time>2022-09-27T08:30:54.995Z</time>
      </trkpt>
      <trkpt lat="47.09621" lon="15.8251">
        <ele>357.840044</ele>
        <time>2022-09-27T08:30:56.991Z</time>
      </trkpt>
      <trkpt lat="47.09615" lon="15.82524">
        <ele>357.830117</ele>
        <time>2022-09-27T08:30:59.024Z</time>
      </trkpt>
      <trkpt lat="47.09609" lon="15.82539">
        <ele>357.819811</ele>
        <time>2022-09-27T08:31:00.984Z</time>
      </trkpt>
      <trkpt lat="47.09603" lon="15.82553">
        <ele>357.80963</ele>
        <time>2022-09-27T08:31:02.987Z</time>
      </trkpt>
      <trkpt lat="47.09598" lon="15.82566">
        <ele>357.800202</ele>
        <time>2022-09-27T08:31:04.976Z</time>
      </trkpt>
      <trkpt lat="47.09593" lon="15.8258">
        <ele>357.790904</ele>
        <time>2022-09-27T08:31:06.989Z</time>
      </trkpt>
      <trkpt lat="47.09587" lon="15.82593">
        <ele>357.781429</ele>
        <time>2022-09-27T08:31:09.009Z</time>
      </trkpt>
      <trkpt lat="47.09581" lon="15.82607">
        <ele>357.771544</ele>
        <time>2022-09-27T08:31:10.988Z</time>
      </trkpt>
      <trkpt lat="47.09577" lon="15.8262">
        <ele>357.762293</ele>
        <time>2022-09-27T08:31:13.009Z</time>
      </trkpt>
      <trkpt lat="47.09573" lon="15.82634">
        <ele>357.753029</ele>
        <time>2022-09-27T08:31:15.026Z</time>
      </trkpt>
      <trkpt lat="47.09568" lon="15.82649">
        <ele>357.743228</ele>
        <time>2022-09-27T08:31:16.980Z</time>
      </trkpt>
      <trkpt lat="47.09562" lon="15.82664">
        <ele>357.73287</ele>
        <time>2022-09-27T08:31:18.987Z</time>
      </trkpt>
      <trkpt lat="47.09558" lon="15.82678">
        <ele>357.723102</ele>
        <time>2022-09-27T08:31:20.988Z</time>
      </trkpt>
      <trkpt lat="47.09553" lon="15.82693">
        <ele>357.713092</ele>
        <time>2022-09-27T08:31:23.007Z</time>
      </trkpt>
      <trkpt lat="47.09548" lon="15.82708">
        <ele>357.702719</ele>
        <time>2022-09-27T08:31:24.991Z</time>
      </trkpt>
      <trkpt lat="47.09543" lon="15.82724">
        <ele>357.692022</ele>
        <time>2022-09-27T08:31:26.992Z</time>
      </trkpt>
      <trkpt lat="47.09538" lon="15.82739">
        <ele>357.681557</ele>
        <time>2022-09-27T08:31:28.993Z</time>
      </trkpt>
      <trkpt lat="47.09534" lon="15.82754">
        <ele>357.671585</ele>
        <time>2022-09-27T08:31:30.997Z</time>
      </trkpt>
      <trkpt lat="47.09529" lon="15.82768">
        <ele>357.661363</ele>
        <time>2022-09-27T08:31:33.003Z</time>
      </trkpt>
      <trkpt lat="47.09524" lon="15.82782">
        <ele>357.651501</ele>
        <time>2022-09-27T08:31:35.084Z</time>
      </trkpt>
      <trkpt lat="47.09518" lon="15.82796">
        <ele>357.641413</ele>
        <time>2022-09-27T08:31:36.994Z</time>
      </trkpt>
      <trkpt lat="47.09512" lon="15.8281">
        <ele>357.631293</ele>
        <time>2022-09-27T08:31:38.988Z</time>
      </trkpt>
      <trkpt lat="47.09506" lon="15.82823">
        <ele>357.621329</ele>
        <time>2022-09-27T08:31:40.979Z</time>
      </trkpt>
      <trkpt lat="47.095" lon="15.82836">
        <ele>357.611931</ele>
        <time>2022-09-27T08:31:42.987Z</time>
      </trkpt>
      <trkpt lat="47.09496" lon="15.8285">
        <ele>357.60211</ele>
        <time>2022-09-27T08:31:44.985Z</time>
      </trkpt>
      <trkpt lat="47.09493" lon="15.82865">
        <ele>357.592491</ele>
        <time>2022-09-27T08:31:46.992Z</time>
      </trkpt>
      <trkpt lat="47.09489" lon="15.82878">
        <ele>357.583217</ele>
        <time>2022-09-27T08:31:48.988Z</time>
      </trkpt>
      <trkpt lat="47.09484" lon="15.82892">
        <ele>357.573772</ele>
        <time>2022-09-27T08:31:50.999Z</time>
      </trkpt>
      <trkpt lat="47.09479" lon="15.82905">
        <ele>357.564106</ele>
        <time>2022-09-27T08:31:52.987Z</time>
      </trkpt>
      <trkpt lat="47.09474" lon="15.82917">
        <ele>357.555097</ele>
        <time>2022-09-27T08:31:54.986Z</time>
      </trkpt>
      <trkpt lat="47.09469" lon="15.8293">
        <ele>357.545996</ele>
        <time>2022-09-27T08:31:56.972Z</time>
      </trkpt>
      <trkpt lat="47.09464" lon="15.82942">
        <ele>357.537178</ele>
        <time>2022-09-27T08:31:58.979Z</time>
      </trkpt>
      <trkpt lat="47.09459" lon="15.82954">
        <ele>357.691833</ele>
        <time>2022-09-27T08:32:00.971Z</time>
      </trkpt>
      <trkpt lat="47.09454" lon="15.82967">
        <ele>357.844856</ele>
        <time>2022-09-27T08:32:02.994Z</time>
      </trkpt>
      <trkpt lat="47.0945" lon="15.82979">
        <ele>357.994028</ele>
        <time>2022-09-27T08:32:04.970Z</time>
      </trkpt>
      <trkpt lat="47.09445" lon="15.82991">
        <ele>358.137206</ele>
        <time>2022-09-27T08:32:06.972Z</time>
      </trkpt>
      <trkpt lat="47.09434" lon="15.83">
        <ele>358.339856</ele>
        <time>2022-09-27T08:32:10.000Z</time>
      </trkpt>
      <trkpt lat="47.09423" lon="15.83007">
        <ele>358.515746</ele>
        <time>2022-09-27T08:32:13.980Z</time>
      </trkpt>
      <trkpt lat="47.09418" lon="15.83019">
        <ele>358.669392</ele>
        <time>2022-09-27T08:32:18.009Z</time>
      </trkpt>
      <trkpt lat="47.09413" lon="15.83033">
        <ele>358.843965</ele>
        <time>2022-09-27T08:32:21.986Z</time>
      </trkpt>
      <trkpt lat="47.09407" lon="15.83049">
        <ele>359.03009</ele>
        <time>2022-09-27T08:32:26.030Z</time>
      </trkpt>
      <trkpt lat="47.09402" lon="15.83061">
        <ele>359.177969</ele>
        <time>2022-09-27T08:32:28.990Z</time>
      </trkpt>
      <trkpt lat="47.09397" lon="15.83073">
        <ele>359.33297</ele>
        <time>2022-09-27T08:32:31.994Z</time>
      </trkpt>
      <trkpt lat="47.09391" lon="15.83087">
        <ele>359.513115</ele>
        <time>2022-09-27T08:32:35.983Z</time>
      </trkpt>
      <trkpt lat="47.09386" lon="15.831">
        <ele>359.66846</ele>
        <time>2022-09-27T08:32:38.986Z</time>
      </trkpt>
      <trkpt lat="47.09381" lon="15.83114">
        <ele>359.840987</ele>
        <time>2022-09-27T08:32:41.984Z</time>
      </trkpt>
      <trkpt lat="47.09376" lon="15.83126">
        <ele>359.994153</ele>
        <time>2022-09-27T08:32:44.989Z</time>
      </trkpt>
      <trkpt lat="47.09372" lon="15.83139">
        <ele>360.143122</ele>
        <time>2022-09-27T08:32:48.011Z</time>
      </trkpt>
      <trkpt lat="47.09366" lon="15.83153">
        <ele>360.325534</ele>
        <time>2022-09-27T08:32:50.986Z</time>
      </trkpt>
      <trkpt lat="47.09359" lon="15.8317">
        <ele>360.633332</ele>
        <time>2022-09-27T08:32:53.999Z</time>
      </trkpt>
      <trkpt lat="47.09354" lon="15.83188">
        <ele>360.945286</ele>
        <time>2022-09-27T08:32:56.962Z</time>
      </trkpt>
      <trkpt lat="47.0935" lon="15.832">
        <ele>361.170348</ele>
        <time>2022-09-27T08:32:58.989Z</time>
      </trkpt>
      <trkpt lat="47.09344" lon="15.83217">
        <ele>361.489005</ele>
        <time>2022-09-27T08:33:01.988Z</time>
      </trkpt>
      <trkpt lat="47.09339" lon="15.83233">
        <ele>361.777729</ele>
        <time>2022-09-27T08:33:04.988Z</time>
      </trkpt>
      <trkpt lat="47.09334" lon="15.8325">
        <ele>362.090343</ele>
        <time>2022-09-27T08:33:07.998Z</time>
      </trkpt>
      <trkpt lat="47.09328" lon="15.83266">
        <ele>362.383505</ele>
        <time>2022-09-27T08:33:11.028Z</time>
      </trkpt>
      <trkpt lat="47.09323" lon="15.83282">
        <ele>362.680492</ele>
        <time>2022-09-27T08:33:14.019Z</time>
      </trkpt>
      <trkpt lat="47.09319" lon="15.83298">
        <ele>362.96437</ele>
        <time>2022-09-27T08:33:16.979Z</time>
      </trkpt>
      <trkpt lat="47.09315" lon="15.83312">
        <ele>363.212754</ele>
        <time>2022-09-27T08:33:20.017Z</time>
      </trkpt>
      <trkpt lat="47.0931" lon="15.83324">
        <ele>363.461351</ele>
        <time>2022-09-27T08:33:22.989Z</time>
      </trkpt>
      <trkpt lat="47.09305" lon="15.83339">
        <ele>363.724978</ele>
        <time>2022-09-27T08:33:25.996Z</time>
      </trkpt>
      <trkpt lat="47.093" lon="15.83353">
        <ele>363.984756</ele>
        <time>2022-09-27T08:33:28.979Z</time>
      </trkpt>
      <trkpt lat="47.09295" lon="15.83365">
        <ele>364.220889</ele>
        <time>2022-09-27T08:33:31.982Z</time>
      </trkpt>
      <trkpt lat="47.0929" lon="15.83376">
        <ele>364.448434</ele>
        <time>2022-09-27T08:33:34.984Z</time>
      </trkpt>
      <trkpt lat="47.09284" lon="15.83391">
        <ele>364.726861</ele>
        <time>2022-09-27T08:33:38.972Z</time>
      </trkpt>
      <trkpt lat="47.09279" lon="15.83403">
        <ele>365.164888</ele>
        <time>2022-09-27T08:33:41.991Z</time>
      </trkpt>
      <trkpt lat="47.09272" lon="15.83416">
        <ele>365.685292</ele>
        <time>2022-09-27T08:33:45.983Z</time>
      </trkpt>
      <trkpt lat="47.09268" lon="15.83431">
        <ele>366.192001</ele>
        <time>2022-09-27T08:33:50.980Z</time>
      </trkpt>
      <trkpt lat="47.09265" lon="15.83446">
        <ele>366.692255</ele>
        <time>2022-09-27T08:33:55.999Z</time>
      </trkpt>
      <trkpt lat="47.09261" lon="15.83462">
        <ele>367.229716</ele>
        <time>2022-09-27T08:33:59.980Z</time>
      </trkpt>
      <trkpt lat="47.09256" lon="15.83479">
        <ele>367.788798</ele>
        <time>2022-09-27T08:34:02.991Z</time>
      </trkpt>
      <trkpt lat="47.09251" lon="15.83497">
        <ele>368.410763</ele>
        <time>2022-09-27T08:34:05.982Z</time>
      </trkpt>
      <trkpt lat="47.09246" lon="15.83515">
        <ele>369.004199</ele>
        <time>2022-09-27T08:34:08.992Z</time>
      </trkpt>
      <trkpt lat="47.09242" lon="15.83529">
        <ele>369.515934</ele>
        <time>2022-09-27T08:34:12.016Z</time>
      </trkpt>
      <trkpt lat="47.09238" lon="15.83543">
        <ele>369.973679</ele>
        <time>2022-09-27T08:34:14.989Z</time>
      </trkpt>
      <trkpt lat="47.09234" lon="15.83556">
        <ele>370.416677</ele>
        <time>2022-09-27T08:34:17.989Z</time>
      </trkpt>
      <trkpt lat="47.09229" lon="15.8357">
        <ele>370.947032</ele>
        <time>2022-09-27T08:34:21.995Z</time>
      </trkpt>
      <trkpt lat="47.09225" lon="15.83586">
        <ele>371.468419</ele>
        <time>2022-09-27T08:34:25.984Z</time>
      </trkpt>
      <trkpt lat="47.0922" lon="15.83598">
        <ele>371.898429</ele>
        <time>2022-09-27T08:34:28.997Z</time>
      </trkpt>
      <trkpt lat="47.09215" lon="15.83613">
        <ele>372.417378</ele>
        <time>2022-09-27T08:34:32.992Z</time>
      </trkpt>
      <trkpt lat="47.09212" lon="15.83626">
        <ele>372.858813</ele>
        <time>2022-09-27T08:34:36.008Z</time>
      </trkpt>
      <trkpt lat="47.09208" lon="15.83639">
        <ele>373.160267</ele>
        <time>2022-09-27T08:34:38.973Z</time>
      </trkpt>
      <trkpt lat="47.09204" lon="15.83651">
        <ele>373.352695</ele>
        <time>2022-09-27T08:34:41.987Z</time>
      </trkpt>
      <trkpt lat="47.092" lon="15.83666">
        <ele>373.595754</ele>
        <time>2022-09-27T08:34:45.999Z</time>
      </trkpt>
      <trkpt lat="47.09198" lon="15.83679">
        <ele>373.791437</ele>
        <time>2022-09-27T08:34:48.991Z</time>
      </trkpt>
      <trkpt lat="47.09194" lon="15.83693">
        <ele>374.013249</ele>
        <time>2022-09-27T08:34:51.992Z</time>
      </trkpt>
      <trkpt lat="47.0919" lon="15.83708">
        <ele>374.243355</ele>
        <time>2022-09-27T08:34:54.994Z</time>
      </trkpt>
      <trkpt lat="47.09187" lon="15.83722">
        <ele>374.450703</ele>
        <time>2022-09-27T08:34:57.989Z</time>
      </trkpt>
      <trkpt lat="47.09183" lon="15.83736">
        <ele>374.665589</ele>
        <time>2022-09-27T08:35:00.992Z</time>
      </trkpt>
      <trkpt lat="47.0918" lon="15.8375">
        <ele>374.888758</ele>
        <time>2022-09-27T08:35:03.982Z</time>
      </trkpt>
      <trkpt lat="47.09176" lon="15.83764">
        <ele>375.101684</ele>
        <time>2022-09-27T08:35:06.994Z</time>
      </trkpt>
      <trkpt lat="47.09172" lon="15.83778">
        <ele>375.320788</ele>
        <time>2022-09-27T08:35:10.989Z</time>
      </trkpt>
      <trkpt lat="47.09169" lon="15.83793">
        <ele>375.548667</ele>
        <time>2022-09-27T08:35:15.998Z</time>
      </trkpt>
      <trkpt lat="47.09163" lon="15.83805">
        <ele>375.762038</ele>
        <time>2022-09-27T08:35:20.991Z</time>
      </trkpt>
      <trkpt lat="47.09159" lon="15.83817">
        <ele>375.963618</ele>
        <time>2022-09-27T08:35:25.996Z</time>
      </trkpt>
      <trkpt lat="47.09155" lon="15.8383">
        <ele>376.164762</ele>
        <time>2022-09-27T08:35:32.007Z</time>
      </trkpt>
      <trkpt lat="47.09151" lon="15.83842">
        <ele>376.362137</ele>
        <time>2022-09-27T08:35:37.992Z</time>
      </trkpt>
      <trkpt lat="47.09149" lon="15.83855">
        <ele>376.55963</ele>
        <time>2022-09-27T08:35:45.993Z</time>
      </trkpt>
      <trkpt lat="47.09146" lon="15.83869">
        <ele>376.765644</ele>
        <time>2022-09-27T08:35:54.988Z</time>
      </trkpt>
      <trkpt lat="47.09142" lon="15.83881">
        <ele>376.795862</ele>
        <time>2022-09-27T08:36:02.024Z</time>
      </trkpt>
      <trkpt lat="47.0914" lon="15.83895">
        <ele>376.590539</ele>
        <time>2022-09-27T08:36:15.986Z</time>
      </trkpt>
      <trkpt lat="47.09139" lon="15.83909">
        <ele>376.399482</ele>
        <time>2022-09-27T08:36:22.988Z</time>
      </trkpt>
      <trkpt lat="47.09137" lon="15.83923">
        <ele>376.182955</ele>
        <time>2022-09-27T08:36:30.980Z</time>
      </trkpt>
      <trkpt lat="47.09133" lon="15.83936">
        <ele>375.980623</ele>
        <time>2022-09-27T08:36:38.985Z</time>
      </trkpt>
      <trkpt lat="47.0913" lon="15.8395">
        <ele>375.774505</ele>
        <time>2022-09-27T08:36:47.007Z</time>
      </trkpt>
      <trkpt lat="47.09128" lon="15.83963">
        <ele>375.583783</ele>
        <time>2022-09-27T08:36:52.980Z</time>
      </trkpt>
      <trkpt lat="47.09125" lon="15.83976">
        <ele>375.386717</ele>
        <time>2022-09-27T08:37:00.014Z</time>
      </trkpt>
      <trkpt lat="47.09124" lon="15.83991">
        <ele>375.172798</ele>
        <time>2022-09-27T08:37:06.984Z</time>
      </trkpt>
      <trkpt lat="47.09122" lon="15.84006">
        <ele>374.961322</ele>
        <time>2022-09-27T08:37:13.987Z</time>
      </trkpt>
      <trkpt lat="47.09119" lon="15.84018">
        <ele>374.764535</ele>
        <time>2022-09-27T08:37:18.972Z</time>
      </trkpt>
      <trkpt lat="47.09116" lon="15.84032">
        <ele>374.557237</ele>
        <time>2022-09-27T08:37:22.983Z</time>
      </trkpt>
      <trkpt lat="47.09114" lon="15.8405">
        <ele>374.305769</ele>
        <time>2022-09-27T08:37:25.996Z</time>
      </trkpt>
      <trkpt lat="47.09109" lon="15.84066">
        <ele>374.045788</ele>
        <time>2022-09-27T08:37:28.992Z</time>
      </trkpt>
      <trkpt lat="47.09103" lon="15.84082">
        <ele>373.791933</ele>
        <time>2022-09-27T08:37:31.994Z</time>
      </trkpt>
      <trkpt lat="47.091" lon="15.84099">
        <ele>373.533789</ele>
        <time>2022-09-27T08:37:34.996Z</time>
      </trkpt>
      <trkpt lat="47.09098" lon="15.84116">
        <ele>373.283511</ele>
        <time>2022-09-27T08:37:37.988Z</time>
      </trkpt>
      <trkpt lat="47.09096" lon="15.84136">
        <ele>372.725221</ele>
        <time>2022-09-27T08:37:41.029Z</time>
      </trkpt>
      <trkpt lat="47.09094" lon="15.84151">
        <ele>371.947626</ele>
        <time>2022-09-27T08:37:43.051Z</time>
      </trkpt>
      <trkpt lat="47.09092" lon="15.84164">
        <ele>371.219244</ele>
        <time>2022-09-27T08:37:44.985Z</time>
      </trkpt>
      <trkpt lat="47.0909" lon="15.84181">
        <ele>370.276858</ele>
        <time>2022-09-27T08:37:47.989Z</time>
      </trkpt>
      <trkpt lat="47.09086" lon="15.84199">
        <ele>369.313509</ele>
        <time>2022-09-27T08:37:50.999Z</time>
      </trkpt>
      <trkpt lat="47.09085" lon="15.84215">
        <ele>368.434911</ele>
        <time>2022-09-27T08:37:52.985Z</time>
      </trkpt>
      <trkpt lat="47.09088" lon="15.84231">
        <ele>367.550194</ele>
        <time>2022-09-27T08:37:55.000Z</time>
      </trkpt>
      <trkpt lat="47.09095" lon="15.84246">
        <ele>366.588135</ele>
        <time>2022-09-27T08:37:57.103Z</time>
      </trkpt>
      <trkpt lat="47.09097" lon="15.84264">
        <ele>365.638721</ele>
        <time>2022-09-27T08:37:59.006Z</time>
      </trkpt>
      <trkpt lat="47.09097" lon="15.84282">
        <ele>364.677653</ele>
        <time>2022-09-27T08:38:01.056Z</time>
      </trkpt>
      <trkpt lat="47.09098" lon="15.84301">
        <ele>363.683993</ele>
        <time>2022-09-27T08:38:02.999Z</time>
      </trkpt>
      <trkpt lat="47.09099" lon="15.84319">
        <ele>362.678959</ele>
        <time>2022-09-27T08:38:04.989Z</time>
      </trkpt>
      <trkpt lat="47.09102" lon="15.84336">
        <ele>361.77092</ele>
        <time>2022-09-27T08:38:06.972Z</time>
      </trkpt>
      <trkpt lat="47.09106" lon="15.84353">
        <ele>360.850952</ele>
        <time>2022-09-27T08:38:09.039Z</time>
      </trkpt>
      <trkpt lat="47.0911" lon="15.84368">
        <ele>359.975039</ele>
        <time>2022-09-27T08:38:10.980Z</time>
      </trkpt>
      <trkpt lat="47.09114" lon="15.84382">
        <ele>359.189577</ele>
        <time>2022-09-27T08:38:12.983Z</time>
      </trkpt>
      <trkpt lat="47.09118" lon="15.84395">
        <ele>358.900497</ele>
        <time>2022-09-27T08:38:15.019Z</time>
      </trkpt>
      <trkpt lat="47.09121" lon="15.84407">
        <ele>358.705122</ele>
        <time>2022-09-27T08:38:16.989Z</time>
      </trkpt>
      <trkpt lat="47.09116" lon="15.84425">
        <ele>358.436577</ele>
        <time>2022-09-27T08:38:19.987Z</time>
      </trkpt>
      <trkpt lat="47.09107" lon="15.84428">
        <ele>358.238788</ele>
        <time>2022-09-27T08:38:21.954Z</time>
      </trkpt>
      <trkpt lat="47.09097" lon="15.84428">
        <ele>358.028667</ele>
        <time>2022-09-27T08:38:25.030Z</time>
      </trkpt>
      <trkpt lat="47.09085" lon="15.84432">
        <ele>357.777041</ele>
        <time>2022-09-27T08:38:28.981Z</time>
      </trkpt>
      <trkpt lat="47.09076" lon="15.84434">
        <ele>357.586744</ele>
        <time>2022-09-27T08:38:32.006Z</time>
      </trkpt>
      <trkpt lat="47.0907" lon="15.84445">
        <ele>357.379873</ele>
        <time>2022-09-27T08:38:34.994Z</time>
      </trkpt>
      <trkpt lat="47.09074" lon="15.84461">
        <ele>357.145195</ele>
        <time>2022-09-27T08:38:37.988Z</time>
      </trkpt>
      <trkpt lat="47.09077" lon="15.84473">
        <ele>356.954728</ele>
        <time>2022-09-27T08:38:39.988Z</time>
      </trkpt>
      <trkpt lat="47.0908" lon="15.84486">
        <ele>356.766296</ele>
        <time>2022-09-27T08:38:41.992Z</time>
      </trkpt>
      <trkpt lat="47.09083" lon="15.845">
        <ele>356.559619</ele>
        <time>2022-09-27T08:38:43.987Z</time>
      </trkpt>
      <trkpt lat="47.09086" lon="15.84514">
        <ele>356.349973</ele>
        <time>2022-09-27T08:38:45.979Z</time>
      </trkpt>
      <trkpt lat="47.09088" lon="15.84529">
        <ele>356.128902</ele>
        <time>2022-09-27T08:38:47.980Z</time>
      </trkpt>
      <trkpt lat="47.0909" lon="15.84544">
        <ele>355.9125</ele>
        <time>2022-09-27T08:38:49.998Z</time>
      </trkpt>
      <trkpt lat="47.09093" lon="15.84559">
        <ele>355.691887</ele>
        <time>2022-09-27T08:38:52.051Z</time>
      </trkpt>
      <trkpt lat="47.09095" lon="15.84574">
        <ele>355.476867</ele>
        <time>2022-09-27T08:38:53.986Z</time>
      </trkpt>
      <trkpt lat="47.09097" lon="15.84589">
        <ele>355.322357</ele>
        <time>2022-09-27T08:38:55.989Z</time>
      </trkpt>
      <trkpt lat="47.091" lon="15.84603">
        <ele>355.302724</ele>
        <time>2022-09-27T08:38:57.990Z</time>
      </trkpt>
      <trkpt lat="47.09102" lon="15.84618">
        <ele>355.28231</ele>
        <time>2022-09-27T08:38:59.985Z</time>
      </trkpt>
      <trkpt lat="47.09105" lon="15.84633">
        <ele>355.26215</ele>
        <time>2022-09-27T08:39:01.990Z</time>
      </trkpt>
      <trkpt lat="47.09107" lon="15.84648">
        <ele>355.242305</ele>
        <time>2022-09-27T08:39:03.976Z</time>
      </trkpt>
      <trkpt lat="47.0911" lon="15.84663">
        <ele>355.221818</ele>
        <time>2022-09-27T08:39:05.991Z</time>
      </trkpt>
      <trkpt lat="47.09112" lon="15.84678">
        <ele>355.201277</ele>
        <time>2022-09-27T08:39:07.995Z</time>
      </trkpt>
      <trkpt lat="47.09115" lon="15.84693">
        <ele>355.18156</ele>
        <time>2022-09-27T08:39:09.975Z</time>
      </trkpt>
      <trkpt lat="47.09117" lon="15.84707">
        <ele>355.161497</ele>
        <time>2022-09-27T08:39:11.983Z</time>
      </trkpt>
      <trkpt lat="47.09119" lon="15.84722">
        <ele>355.141096</ele>
        <time>2022-09-27T08:39:13.990Z</time>
      </trkpt>
      <trkpt lat="47.09122" lon="15.84737">
        <ele>355.121416</ele>
        <time>2022-09-27T08:39:15.976Z</time>
      </trkpt>
      <trkpt lat="47.09125" lon="15.84752">
        <ele>355.100593</ele>
        <time>2022-09-27T08:39:17.990Z</time>
      </trkpt>
      <trkpt lat="47.09128" lon="15.84767">
        <ele>355.080597</ele>
        <time>2022-09-27T08:39:19.988Z</time>
      </trkpt>
      <trkpt lat="47.0913" lon="15.84782">
        <ele>355.060324</ele>
        <time>2022-09-27T08:39:22.017Z</time>
      </trkpt>
      <trkpt lat="47.09133" lon="15.84796">
        <ele>355.040516</ele>
        <time>2022-09-27T08:39:23.988Z</time>
      </trkpt>
      <trkpt lat="47.09135" lon="15.84812">
        <ele>355.019828</ele>
        <time>2022-09-27T08:39:25.992Z</time>
      </trkpt>
      <trkpt lat="47.09137" lon="15.84828">
        <ele>354.998491</ele>
        <time>2022-09-27T08:39:27.998Z</time>
      </trkpt>
      <trkpt lat="47.09138" lon="15.84842">
        <ele>354.976136</ele>
        <time>2022-09-27T08:39:29.992Z</time>
      </trkpt>
      <trkpt lat="47.09139" lon="15.84856">
        <ele>354.880947</ele>
        <time>2022-09-27T08:39:31.994Z</time>
      </trkpt>
      <trkpt lat="47.0914" lon="15.8487">
        <ele>354.786249</ele>
        <time>2022-09-27T08:39:33.977Z</time>
      </trkpt>
      <trkpt lat="47.0914" lon="15.84885">
        <ele>354.688307</ele>
        <time>2022-09-27T08:39:35.981Z</time>
      </trkpt>
      <trkpt lat="47.09141" lon="15.849">
        <ele>354.581028</ele>
        <time>2022-09-27T08:39:38.021Z</time>
      </trkpt>
      <trkpt lat="47.0914" lon="15.84916">
        <ele>354.47302</ele>
        <time>2022-09-27T08:39:39.994Z</time>
      </trkpt>
      <trkpt lat="47.09139" lon="15.84933">
        <ele>354.362027</ele>
        <time>2022-09-27T08:39:41.991Z</time>
      </trkpt>
      <trkpt lat="47.0914" lon="15.84948">
        <ele>354.258064</ele>
        <time>2022-09-27T08:39:43.994Z</time>
      </trkpt>
      <trkpt lat="47.0914" lon="15.84964">
        <ele>354.150799</ele>
        <time>2022-09-27T08:39:45.994Z</time>
      </trkpt>
      <trkpt lat="47.09139" lon="15.8498">
        <ele>354.046835</ele>
        <time>2022-09-27T08:39:47.991Z</time>
      </trkpt>
      <trkpt lat="47.09138" lon="15.84996">
        <ele>353.933651</ele>
        <time>2022-09-27T08:39:50.014Z</time>
      </trkpt>
      <trkpt lat="47.09136" lon="15.85012">
        <ele>353.822404</ele>
        <time>2022-09-27T08:39:51.979Z</time>
      </trkpt>
      <trkpt lat="47.09135" lon="15.85028">
        <ele>353.714918</ele>
        <time>2022-09-27T08:39:53.994Z</time>
      </trkpt>
      <trkpt lat="47.09134" lon="15.85043">
        <ele>353.617453</ele>
        <time>2022-09-27T08:39:55.969Z</time>
      </trkpt>
      <trkpt lat="47.09133" lon="15.85058">
        <ele>353.511315</ele>
        <time>2022-09-27T08:39:57.994Z</time>
      </trkpt>
      <trkpt lat="47.09132" lon="15.85074">
        <ele>353.405408</ele>
        <time>2022-09-27T08:39:59.983Z</time>
      </trkpt>
      <trkpt lat="47.0913" lon="15.85089">
        <ele>353.300779</ele>
        <time>2022-09-27T08:40:01.983Z</time>
      </trkpt>
      <trkpt lat="47.09128" lon="15.85104">
        <ele>353.197394</ele>
        <time>2022-09-27T08:40:03.990Z</time>
      </trkpt>
      <trkpt lat="47.09126" lon="15.85119">
        <ele>353.081141</ele>
        <time>2022-09-27T08:40:05.992Z</time>
      </trkpt>
      <trkpt lat="47.09124" lon="15.85134">
        <ele>352.968895</ele>
        <time>2022-09-27T08:40:07.977Z</time>
      </trkpt>
      <trkpt lat="47.09121" lon="15.85147">
        <ele>352.860098</ele>
        <time>2022-09-27T08:40:09.980Z</time>
      </trkpt>
      <trkpt lat="47.09118" lon="15.85161">
        <ele>352.749117</ele>
        <time>2022-09-27T08:40:12.031Z</time>
      </trkpt>
      <trkpt lat="47.09114" lon="15.85175">
        <ele>352.636435</ele>
        <time>2022-09-27T08:40:13.987Z</time>
      </trkpt>
      <trkpt lat="47.09112" lon="15.8519">
        <ele>352.518139</ele>
        <time>2022-09-27T08:40:15.989Z</time>
      </trkpt>
      <trkpt lat="47.09109" lon="15.85205">
        <ele>352.402465</ele>
        <time>2022-09-27T08:40:18.016Z</time>
      </trkpt>
      <trkpt lat="47.09106" lon="15.85219">
        <ele>352.285929</ele>
        <time>2022-09-27T08:40:20.001Z</time>
      </trkpt>
      <trkpt lat="47.09103" lon="15.85233">
        <ele>352.177197</ele>
        <time>2022-09-27T08:40:21.978Z</time>
      </trkpt>
      <trkpt lat="47.091" lon="15.85248">
        <ele>352.057433</ele>
        <time>2022-09-27T08:40:24.036Z</time>
      </trkpt>
      <trkpt lat="47.09098" lon="15.85262">
        <ele>351.947628</ele>
        <time>2022-09-27T08:40:26.025Z</time>
      </trkpt>
      <trkpt lat="47.09096" lon="15.85278">
        <ele>351.828219</ele>
        <time>2022-09-27T08:40:27.983Z</time>
      </trkpt>
      <trkpt lat="47.09094" lon="15.85293">
        <ele>351.712241</ele>
        <time>2022-09-27T08:40:30.027Z</time>
      </trkpt>
      <trkpt lat="47.0909" lon="15.85306">
        <ele>351.60532</ele>
        <time>2022-09-27T08:40:32.015Z</time>
      </trkpt>
      <trkpt lat="47.09088" lon="15.85319">
        <ele>351.500379</ele>
        <time>2022-09-27T08:40:34.010Z</time>
      </trkpt>
      <trkpt lat="47.09085" lon="15.85334">
        <ele>351.385876</ele>
        <time>2022-09-27T08:40:36.037Z</time>
      </trkpt>
      <trkpt lat="47.09083" lon="15.85347">
        <ele>351.280201</ele>
        <time>2022-09-27T08:40:37.979Z</time>
      </trkpt>
      <trkpt lat="47.09078" lon="15.85364">
        <ele>351.132043</ele>
        <time>2022-09-27T08:40:40.988Z</time>
      </trkpt>
      <trkpt lat="47.09074" lon="15.85377">
        <ele>351.021153</ele>
        <time>2022-09-27T08:40:42.984Z</time>
      </trkpt>
      <trkpt lat="47.09072" lon="15.8539">
        <ele>350.90636</ele>
        <time>2022-09-27T08:40:44.982Z</time>
      </trkpt>
      <trkpt lat="47.09069" lon="15.85404">
        <ele>350.788553</ele>
        <time>2022-09-27T08:40:47.028Z</time>
      </trkpt>
      <trkpt lat="47.09067" lon="15.85418">
        <ele>350.668271</ele>
        <time>2022-09-27T08:40:48.984Z</time>
      </trkpt>
      <trkpt lat="47.09064" lon="15.85432">
        <ele>350.546886</ele>
        <time>2022-09-27T08:40:50.991Z</time>
      </trkpt>
      <trkpt lat="47.0906" lon="15.85447">
        <ele>350.410983</ele>
        <time>2022-09-27T08:40:53.002Z</time>
      </trkpt>
      <trkpt lat="47.09056" lon="15.85462">
        <ele>350.280168</ele>
        <time>2022-09-27T08:40:54.975Z</time>
      </trkpt>
      <trkpt lat="47.09052" lon="15.85476">
        <ele>350.152297</ele>
        <time>2022-09-27T08:40:56.975Z</time>
      </trkpt>
      <trkpt lat="47.09048" lon="15.85491">
        <ele>350.023345</ele>
        <time>2022-09-27T08:40:58.986Z</time>
      </trkpt>
      <trkpt lat="47.09044" lon="15.85505">
        <ele>349.897291</ele>
        <time>2022-09-27T08:41:00.995Z</time>
      </trkpt>
      <trkpt lat="47.0904" lon="15.85518">
        <ele>349.775993</ele>
        <time>2022-09-27T08:41:02.994Z</time>
      </trkpt>
      <trkpt lat="47.09036" lon="15.85532">
        <ele>349.658055</ele>
        <time>2022-09-27T08:41:04.990Z</time>
      </trkpt>
      <trkpt lat="47.09033" lon="15.85546">
        <ele>349.531991</ele>
        <time>2022-09-27T08:41:06.983Z</time>
      </trkpt>
      <trkpt lat="47.09029" lon="15.85559">
        <ele>349.41207</ele>
        <time>2022-09-27T08:41:09.002Z</time>
      </trkpt>
      <trkpt lat="47.09026" lon="15.85573">
        <ele>349.292919</ele>
        <time>2022-09-27T08:41:10.997Z</time>
      </trkpt>
      <trkpt lat="47.09022" lon="15.85586">
        <ele>349.17696</ele>
        <time>2022-09-27T08:41:13.008Z</time>
      </trkpt>
      <trkpt lat="47.09019" lon="15.85599">
        <ele>349.061724</ele>
        <time>2022-09-27T08:41:15.000Z</time>
      </trkpt>
      <trkpt lat="47.09015" lon="15.85612">
        <ele>349.080878</ele>
        <time>2022-09-27T08:41:17.011Z</time>
      </trkpt>
      <trkpt lat="47.09013" lon="15.85625">
        <ele>349.23714</ele>
        <time>2022-09-27T08:41:18.974Z</time>
      </trkpt>
      <trkpt lat="47.09011" lon="15.85639">
        <ele>349.399693</ele>
        <time>2022-09-27T08:41:20.992Z</time>
      </trkpt>
      <trkpt lat="47.09009" lon="15.85652">
        <ele>349.557854</ele>
        <time>2022-09-27T08:41:22.996Z</time>
      </trkpt>
      <trkpt lat="47.09009" lon="15.85666">
        <ele>349.719145</ele>
        <time>2022-09-27T08:41:24.999Z</time>
      </trkpt>
      <trkpt lat="47.09009" lon="15.8568">
        <ele>349.87941</ele>
        <time>2022-09-27T08:41:26.994Z</time>
      </trkpt>
      <trkpt lat="47.09011" lon="15.85699">
        <ele>350.096649</ele>
        <time>2022-09-27T08:41:29.995Z</time>
      </trkpt>
      <trkpt lat="47.09015" lon="15.85718">
        <ele>350.320071</ele>
        <time>2022-09-27T08:41:32.992Z</time>
      </trkpt>
      <trkpt lat="47.09018" lon="15.85731">
        <ele>350.476952</ele>
        <time>2022-09-27T08:41:35.017Z</time>
      </trkpt>
      <trkpt lat="47.09021" lon="15.85744">
        <ele>350.634744</ele>
        <time>2022-09-27T08:41:36.990Z</time>
      </trkpt>
      <trkpt lat="47.09024" lon="15.85758">
        <ele>350.797958</ele>
        <time>2022-09-27T08:41:38.991Z</time>
      </trkpt>
      <trkpt lat="47.09027" lon="15.85772">
        <ele>350.970372</ele>
        <time>2022-09-27T08:41:40.992Z</time>
      </trkpt>
      <trkpt lat="47.09031" lon="15.85786">
        <ele>351.140069</ele>
        <time>2022-09-27T08:41:42.990Z</time>
      </trkpt>
      <trkpt lat="47.09033" lon="15.85799">
        <ele>351.298047</ele>
        <time>2022-09-27T08:41:44.969Z</time>
      </trkpt>
      <trkpt lat="47.09036" lon="15.85813">
        <ele>351.455892</ele>
        <time>2022-09-27T08:41:46.994Z</time>
      </trkpt>
      <trkpt lat="47.09039" lon="15.85825">
        <ele>351.607788</ele>
        <time>2022-09-27T08:41:48.994Z</time>
      </trkpt>
      <trkpt lat="47.09041" lon="15.85839">
        <ele>351.76531</ele>
        <time>2022-09-27T08:41:51.026Z</time>
      </trkpt>
      <trkpt lat="47.09044" lon="15.85852">
        <ele>351.923662</ele>
        <time>2022-09-27T08:41:52.990Z</time>
      </trkpt>
      <trkpt lat="47.09047" lon="15.85865">
        <ele>352.081939</ele>
        <time>2022-09-27T08:41:54.994Z</time>
      </trkpt>
      <trkpt lat="47.0905" lon="15.85879">
        <ele>352.23599</ele>
        <time>2022-09-27T08:41:56.988Z</time>
      </trkpt>
      <trkpt lat="47.09052" lon="15.85892">
        <ele>352.387668</ele>
        <time>2022-09-27T08:41:59.001Z</time>
      </trkpt>
      <trkpt lat="47.09055" lon="15.85905">
        <ele>352.543389</ele>
        <time>2022-09-27T08:42:00.967Z</time>
      </trkpt>
      <trkpt lat="47.09058" lon="15.8592">
        <ele>352.706236</ele>
        <time>2022-09-27T08:42:03.000Z</time>
      </trkpt>
      <trkpt lat="47.09061" lon="15.85934">
        <ele>352.866641</ele>
        <time>2022-09-27T08:42:04.989Z</time>
      </trkpt>
      <trkpt lat="47.09063" lon="15.85948">
        <ele>353.030229</ele>
        <time>2022-09-27T08:42:06.967Z</time>
      </trkpt>
      <trkpt lat="47.09066" lon="15.85962">
        <ele>353.191546</ele>
        <time>2022-09-27T08:42:08.995Z</time>
      </trkpt>
      <trkpt lat="47.09069" lon="15.85976">
        <ele>353.349228</ele>
        <time>2022-09-27T08:42:10.995Z</time>
      </trkpt>
      <trkpt lat="47.09072" lon="15.85989">
        <ele>353.507967</ele>
        <time>2022-09-27T08:42:12.972Z</time>
      </trkpt>
      <trkpt lat="47.09074" lon="15.86003">
        <ele>353.665192</ele>
        <time>2022-09-27T08:42:15.010Z</time>
      </trkpt>
      <trkpt lat="47.09077" lon="15.86017">
        <ele>353.817846</ele>
        <time>2022-09-27T08:42:16.999Z</time>
      </trkpt>
      <trkpt lat="47.09079" lon="15.8603">
        <ele>353.969117</ele>
        <time>2022-09-27T08:42:18.981Z</time>
      </trkpt>
      <trkpt lat="47.09081" lon="15.86043">
        <ele>354.119538</ele>
        <time>2022-09-27T08:42:20.981Z</time>
      </trkpt>
      <trkpt lat="47.09084" lon="15.86056">
        <ele>354.266538</ele>
        <time>2022-09-27T08:42:22.988Z</time>
      </trkpt>
      <trkpt lat="47.09086" lon="15.86069">
        <ele>354.413825</ele>
        <time>2022-09-27T08:42:24.968Z</time>
      </trkpt>
      <trkpt lat="47.09088" lon="15.86082">
        <ele>354.565776</ele>
        <time>2022-09-27T08:42:26.982Z</time>
      </trkpt>
      <trkpt lat="47.09091" lon="15.86096">
        <ele>354.718938</ele>
        <time>2022-09-27T08:42:28.970Z</time>
      </trkpt>
      <trkpt lat="47.09094" lon="15.86109">
        <ele>354.869742</ele>
        <time>2022-09-27T08:42:30.967Z</time>
      </trkpt>
      <trkpt lat="47.09096" lon="15.86121">
        <ele>354.812587</ele>
        <time>2022-09-27T08:42:33.003Z</time>
      </trkpt>
      <trkpt lat="47.09099" lon="15.86134">
        <ele>354.606816</ele>
        <time>2022-09-27T08:42:34.991Z</time>
      </trkpt>
      <trkpt lat="47.09102" lon="15.86147">
        <ele>354.396125</ele>
        <time>2022-09-27T08:42:36.995Z</time>
      </trkpt>
      <trkpt lat="47.09106" lon="15.86166">
        <ele>354.100024</ele>
        <time>2022-09-27T08:42:40.009Z</time>
      </trkpt>
      <trkpt lat="47.0911" lon="15.86184">
        <ele>353.802477</ele>
        <time>2022-09-27T08:42:42.982Z</time>
      </trkpt>
      <trkpt lat="47.09111" lon="15.86204">
        <ele>353.501676</ele>
        <time>2022-09-27T08:42:45.975Z</time>
      </trkpt>
      <trkpt lat="47.09107" lon="15.86216">
        <ele>353.297318</ele>
        <time>2022-09-27T08:42:47.994Z</time>
      </trkpt>
      <trkpt lat="47.09101" lon="15.86225">
        <ele>353.089168</ele>
        <time>2022-09-27T08:42:49.994Z</time>
      </trkpt>
      <trkpt lat="47.09092" lon="15.86232">
        <ele>352.8582</ele>
        <time>2022-09-27T08:42:51.971Z</time>
      </trkpt>
      <trkpt lat="47.09083" lon="15.8624">
        <ele>352.629635</ele>
        <time>2022-09-27T08:42:54.033Z</time>
      </trkpt>
      <trkpt lat="47.09074" lon="15.86249">
        <ele>352.392434</ele>
        <time>2022-09-27T08:42:56.004Z</time>
      </trkpt>
      <trkpt lat="47.09067" lon="15.8626">
        <ele>352.152053</ele>
        <time>2022-09-27T08:42:57.975Z</time>
      </trkpt>
      <trkpt lat="47.0906" lon="15.86271">
        <ele>351.918747</ele>
        <time>2022-09-27T08:42:59.997Z</time>
      </trkpt>
      <trkpt lat="47.09055" lon="15.86283">
        <ele>351.703229</ele>
        <time>2022-09-27T08:43:01.987Z</time>
      </trkpt>
      <trkpt lat="47.0905" lon="15.86296">
        <ele>351.48153</ele>
        <time>2022-09-27T08:43:03.973Z</time>
      </trkpt>
      <trkpt lat="47.09046" lon="15.86309">
        <ele>351.264244</ele>
        <time>2022-09-27T08:43:05.990Z</time>
      </trkpt>
      <trkpt lat="47.09043" lon="15.86322">
        <ele>351.050662</ele>
        <time>2022-09-27T08:43:07.990Z</time>
      </trkpt>
      <trkpt lat="47.09039" lon="15.86336">
        <ele>350.837773</ele>
        <time>2022-09-27T08:43:09.977Z</time>
      </trkpt>
      <trkpt lat="47.09035" lon="15.86349">
        <ele>350.653789</ele>
        <time>2022-09-27T08:43:12.006Z</time>
      </trkpt>
      <trkpt lat="47.09031" lon="15.86362">
        <ele>350.480517</ele>
        <time>2022-09-27T08:43:13.992Z</time>
      </trkpt>
      <trkpt lat="47.09028" lon="15.86375">
        <ele>350.308478</ele>
        <time>2022-09-27T08:43:15.967Z</time>
      </trkpt>
      <trkpt lat="47.09024" lon="15.86388">
        <ele>350.136555</ele>
        <time>2022-09-27T08:43:18.006Z</time>
      </trkpt>
      <trkpt lat="47.0902" lon="15.86401">
        <ele>349.957595</ele>
        <time>2022-09-27T08:43:19.992Z</time>
      </trkpt>
      <trkpt lat="47.09016" lon="15.86415">
        <ele>349.773136</ele>
        <time>2022-09-27T08:43:21.976Z</time>
      </trkpt>
      <trkpt lat="47.09013" lon="15.86428">
        <ele>349.591453</ele>
        <time>2022-09-27T08:43:23.987Z</time>
      </trkpt>
      <trkpt lat="47.09009" lon="15.86442">
        <ele>349.40659</ele>
        <time>2022-09-27T08:43:25.986Z</time>
      </trkpt>
      <trkpt lat="47.09007" lon="15.86457">
        <ele>349.216941</ele>
        <time>2022-09-27T08:43:27.978Z</time>
      </trkpt>
      <trkpt lat="47.09004" lon="15.86471">
        <ele>349.034975</ele>
        <time>2022-09-27T08:43:29.991Z</time>
      </trkpt>
      <trkpt lat="47.09003" lon="15.86485">
        <ele>348.864228</ele>
        <time>2022-09-27T08:43:31.999Z</time>
      </trkpt>
      <trkpt lat="47.09001" lon="15.86498">
        <ele>348.694359</ele>
        <time>2022-09-27T08:43:33.978Z</time>
      </trkpt>
      <trkpt lat="47.08999" lon="15.86513">
        <ele>348.505237</ele>
        <time>2022-09-27T08:43:35.984Z</time>
      </trkpt>
      <trkpt lat="47.08995" lon="15.86527">
        <ele>348.323089</ele>
        <time>2022-09-27T08:43:37.989Z</time>
      </trkpt>
      <trkpt lat="47.08992" lon="15.8654">
        <ele>348.148203</ele>
        <time>2022-09-27T08:43:39.965Z</time>
      </trkpt>
      <trkpt lat="47.08988" lon="15.86553">
        <ele>347.971814</ele>
        <time>2022-09-27T08:43:41.992Z</time>
      </trkpt>
      <trkpt lat="47.08985" lon="15.86567">
        <ele>347.790336</ele>
        <time>2022-09-27T08:43:44.027Z</time>
      </trkpt>
      <trkpt lat="47.08982" lon="15.8658">
        <ele>347.613113</ele>
        <time>2022-09-27T08:43:45.975Z</time>
      </trkpt>
      <trkpt lat="47.08978" lon="15.86593">
        <ele>347.627587</ele>
        <time>2022-09-27T08:43:48.019Z</time>
      </trkpt>
      <trkpt lat="47.08975" lon="15.86606">
        <ele>347.649717</ele>
        <time>2022-09-27T08:43:50.030Z</time>
      </trkpt>
      <trkpt lat="47.08972" lon="15.8662">
        <ele>347.674674</ele>
        <time>2022-09-27T08:43:51.974Z</time>
      </trkpt>
      <trkpt lat="47.08968" lon="15.86634">
        <ele>347.697733</ele>
        <time>2022-09-27T08:43:53.983Z</time>
      </trkpt>
      <trkpt lat="47.08964" lon="15.86646">
        <ele>347.720042</ele>
        <time>2022-09-27T08:43:55.994Z</time>
      </trkpt>
      <trkpt lat="47.0896" lon="15.86659">
        <ele>347.742735</ele>
        <time>2022-09-27T08:43:57.971Z</time>
      </trkpt>
      <trkpt lat="47.08955" lon="15.86677">
        <ele>347.77493</ele>
        <time>2022-09-27T08:44:00.973Z</time>
      </trkpt>
      <trkpt lat="47.08951" lon="15.86691">
        <ele>347.798954</ele>
        <time>2022-09-27T08:44:02.980Z</time>
      </trkpt>
      <trkpt lat="47.08946" lon="15.86704">
        <ele>347.822713</ele>
        <time>2022-09-27T08:44:04.995Z</time>
      </trkpt>
      <trkpt lat="47.0894" lon="15.86715">
        <ele>347.846039</ele>
        <time>2022-09-27T08:44:07.007Z</time>
      </trkpt>
      <trkpt lat="47.08936" lon="15.86728">
        <ele>347.868715</ele>
        <time>2022-09-27T08:44:08.982Z</time>
      </trkpt>
      <trkpt lat="47.08931" lon="15.8674">
        <ele>347.892086</ele>
        <time>2022-09-27T08:44:10.986Z</time>
      </trkpt>
      <trkpt lat="47.08926" lon="15.86752">
        <ele>347.914625</ele>
        <time>2022-09-27T08:44:13.000Z</time>
      </trkpt>
      <trkpt lat="47.08919" lon="15.86769">
        <ele>347.94606</ele>
        <time>2022-09-27T08:44:16.011Z</time>
      </trkpt>
      <trkpt lat="47.08914" lon="15.8678">
        <ele>347.968045</ele>
        <time>2022-09-27T08:44:17.999Z</time>
      </trkpt>
      <trkpt lat="47.08909" lon="15.86791">
        <ele>347.990298</ele>
        <time>2022-09-27T08:44:19.986Z</time>
      </trkpt>
      <trkpt lat="47.08904" lon="15.86802">
        <ele>348.012019</ele>
        <time>2022-09-27T08:44:21.975Z</time>
      </trkpt>
      <trkpt lat="47.08899" lon="15.86814">
        <ele>348.033826</ele>
        <time>2022-09-27T08:44:23.994Z</time>
      </trkpt>
      <trkpt lat="47.08895" lon="15.86826">
        <ele>348.018689</ele>
        <time>2022-09-27T08:44:25.992Z</time>
      </trkpt>
      <trkpt lat="47.08892" lon="15.86839">
        <ele>348.003404</ele>
        <time>2022-09-27T08:44:27.983Z</time>
      </trkpt>
      <trkpt lat="47.0889" lon="15.86852">
        <ele>347.988416</ele>
        <time>2022-09-27T08:44:29.990Z</time>
      </trkpt>
      <trkpt lat="47.0889" lon="15.86867">
        <ele>347.972109</ele>
        <time>2022-09-27T08:44:31.988Z</time>
      </trkpt>
      <trkpt lat="47.08889" lon="15.86882">
        <ele>347.95569</ele>
        <time>2022-09-27T08:44:33.971Z</time>
      </trkpt>
      <trkpt lat="47.08889" lon="15.86896">
        <ele>347.938954</ele>
        <time>2022-09-27T08:44:36.009Z</time>
      </trkpt>
      <trkpt lat="47.0889" lon="15.8691">
        <ele>347.92359</ele>
        <time>2022-09-27T08:44:38.006Z</time>
      </trkpt>
      <trkpt lat="47.08891" lon="15.86924">
        <ele>347.908311</ele>
        <time>2022-09-27T08:44:40.057Z</time>
      </trkpt>
      <trkpt lat="47.0889" lon="15.86943">
        <ele>347.887093</ele>
        <time>2022-09-27T08:44:42.975Z</time>
      </trkpt>
      <trkpt lat="47.0889" lon="15.86961">
        <ele>347.865839</ele>
        <time>2022-09-27T08:44:45.979Z</time>
      </trkpt>
      <trkpt lat="47.08889" lon="15.86975">
        <ele>347.850462</ele>
        <time>2022-09-27T08:44:47.986Z</time>
      </trkpt>
      <trkpt lat="47.08889" lon="15.86988">
        <ele>347.835541</ele>
        <time>2022-09-27T08:44:49.995Z</time>
      </trkpt>
      <trkpt lat="47.08889" lon="15.87002">
        <ele>347.82006</ele>
        <time>2022-09-27T08:44:51.976Z</time>
      </trkpt>
      <trkpt lat="47.08889" lon="15.87016">
        <ele>347.804575</ele>
        <time>2022-09-27T08:44:53.992Z</time>
      </trkpt>
      <trkpt lat="47.08889" lon="15.8703">
        <ele>347.788862</ele>
        <time>2022-09-27T08:44:56.077Z</time>
      </trkpt>
      <trkpt lat="47.08888" lon="15.8705">
        <ele>347.766516</ele>
        <time>2022-09-27T08:44:59.013Z</time>
      </trkpt>
      <trkpt lat="47.08888" lon="15.87065">
        <ele>347.749121</ele>
        <time>2022-09-27T08:45:01.019Z</time>
      </trkpt>
      <trkpt lat="47.08887" lon="15.87081">
        <ele>347.685924</ele>
        <time>2022-09-27T08:45:02.982Z</time>
      </trkpt>
      <trkpt lat="47.08885" lon="15.87096">
        <ele>347.533966</ele>
        <time>2022-09-27T08:45:05.002Z</time>
      </trkpt>
      <trkpt lat="47.08883" lon="15.87112">
        <ele>347.36137</ele>
        <time>2022-09-27T08:45:07.995Z</time>
      </trkpt>
      <trkpt lat="47.08885" lon="15.87127">
        <ele>347.214523</ele>
        <time>2022-09-27T08:45:12.003Z</time>
      </trkpt>
      <trkpt lat="47.08893" lon="15.87141">
        <ele>347.032451</ele>
        <time>2022-09-27T08:45:14.981Z</time>
      </trkpt>
      <trkpt lat="47.089" lon="15.8715">
        <ele>346.898607</ele>
        <time>2022-09-27T08:45:16.985Z</time>
      </trkpt>
      <trkpt lat="47.08907" lon="15.87159">
        <ele>346.763432</ele>
        <time>2022-09-27T08:45:18.980Z</time>
      </trkpt>
      <trkpt lat="47.08914" lon="15.87167">
        <ele>346.627886</ele>
        <time>2022-09-27T08:45:20.990Z</time>
      </trkpt>
      <trkpt lat="47.08921" lon="15.87176">
        <ele>346.488672</ele>
        <time>2022-09-27T08:45:22.991Z</time>
      </trkpt>
      <trkpt lat="47.08928" lon="15.87185">
        <ele>346.345104</ele>
        <time>2022-09-27T08:45:24.992Z</time>
      </trkpt>
      <trkpt lat="47.08935" lon="15.87194">
        <ele>346.212349</ele>
        <time>2022-09-27T08:45:26.992Z</time>
      </trkpt>
      <trkpt lat="47.08945" lon="15.87206">
        <ele>346.018127</ele>
        <time>2022-09-27T08:45:30.000Z</time>
      </trkpt>
      <trkpt lat="47.08955" lon="15.87219">
        <ele>345.825206</ele>
        <time>2022-09-27T08:45:32.998Z</time>
      </trkpt>
      <trkpt lat="47.08966" lon="15.87231">
        <ele>345.628885</ele>
        <time>2022-09-27T08:45:35.985Z</time>
      </trkpt>
      <trkpt lat="47.08975" lon="15.87243">
        <ele>345.443348</ele>
        <time>2022-09-27T08:45:39.011Z</time>
      </trkpt>
      <trkpt lat="47.08985" lon="15.87254">
        <ele>345.26059</ele>
        <time>2022-09-27T08:45:42.003Z</time>
      </trkpt>
      <trkpt lat="47.08995" lon="15.87266">
        <ele>345.090667</ele>
        <time>2022-09-27T08:45:44.998Z</time>
      </trkpt>
      <trkpt lat="47.09004" lon="15.87278">
        <ele>345.161821</ele>
        <time>2022-09-27T08:45:47.988Z</time>
      </trkpt>
      <trkpt lat="47.09014" lon="15.87289">
        <ele>345.23485</ele>
        <time>2022-09-27T08:45:50.991Z</time>
      </trkpt>
      <trkpt lat="47.09025" lon="15.87302">
        <ele>345.312331</ele>
        <time>2022-09-27T08:45:53.990Z</time>
      </trkpt>
      <trkpt lat="47.09032" lon="15.87311">
        <ele>345.366164</ele>
        <time>2022-09-27T08:45:56.058Z</time>
      </trkpt>
      <trkpt lat="47.09039" lon="15.87319">
        <ele>345.419055</ele>
        <time>2022-09-27T08:45:57.996Z</time>
      </trkpt>
      <trkpt lat="47.09046" lon="15.87328">
        <ele>345.471452</ele>
        <time>2022-09-27T08:45:59.996Z</time>
      </trkpt>
      <trkpt lat="47.09056" lon="15.8734">
        <ele>345.546164</ele>
        <time>2022-09-27T08:46:03.003Z</time>
      </trkpt>
      <trkpt lat="47.09066" lon="15.87352">
        <ele>345.623149</ele>
        <time>2022-09-27T08:46:06.003Z</time>
      </trkpt>
      <trkpt lat="47.09076" lon="15.87365">
        <ele>345.698803</ele>
        <time>2022-09-27T08:46:08.989Z</time>
      </trkpt>
      <trkpt lat="47.09086" lon="15.87376">
        <ele>345.771555</ele>
        <time>2022-09-27T08:46:11.977Z</time>
      </trkpt>
      <trkpt lat="47.09095" lon="15.87386">
        <ele>345.835046</ele>
        <time>2022-09-27T08:46:14.996Z</time>
      </trkpt>
      <trkpt lat="47.09102" lon="15.87395">
        <ele>345.888585</ele>
        <time>2022-09-27T08:46:17.989Z</time>
      </trkpt>
      <trkpt lat="47.09111" lon="15.87404">
        <ele>345.94834</ele>
        <time>2022-09-27T08:46:21.003Z</time>
      </trkpt>
      <trkpt lat="47.09122" lon="15.87416">
        <ele>346.02643</ele>
        <time>2022-09-27T08:46:24.097Z</time>
      </trkpt>
      <trkpt lat="47.09129" lon="15.87425">
        <ele>346.084616</ele>
        <time>2022-09-27T08:46:26.019Z</time>
      </trkpt>
      <trkpt lat="47.09137" lon="15.87435">
        <ele>346.140632</ele>
        <time>2022-09-27T08:46:27.995Z</time>
      </trkpt>
      <trkpt lat="47.09145" lon="15.87444">
        <ele>346.194888</ele>
        <time>2022-09-27T08:46:29.994Z</time>
      </trkpt>
      <trkpt lat="47.09152" lon="15.87453">
        <ele>346.24668</ele>
        <time>2022-09-27T08:46:31.991Z</time>
      </trkpt>
      <trkpt lat="47.09159" lon="15.87461">
        <ele>346.295639</ele>
        <time>2022-09-27T08:46:33.991Z</time>
      </trkpt>
      <trkpt lat="47.09169" lon="15.87472">
        <ele>346.36349</ele>
        <time>2022-09-27T08:46:37.035Z</time>
      </trkpt>
      <trkpt lat="47.09179" lon="15.87482">
        <ele>346.424819</ele>
        <time>2022-09-27T08:46:39.975Z</time>
      </trkpt>
      <trkpt lat="47.09185" lon="15.87491">
        <ele>346.47495</ele>
        <time>2022-09-27T08:46:42.970Z</time>
      </trkpt>
      <trkpt lat="47.09193" lon="15.875">
        <ele>346.525211</ele>
        <time>2022-09-27T08:46:45.973Z</time>
      </trkpt>
      <trkpt lat="47.09201" lon="15.87511">
        <ele>346.583808</ele>
        <time>2022-09-27T08:46:49.981Z</time>
      </trkpt>
      <trkpt lat="47.09205" lon="15.87526">
        <ele>346.642916</ele>
        <time>2022-09-27T08:46:53.978Z</time>
      </trkpt>
      <trkpt lat="47.09201" lon="15.87541">
        <ele>346.704149</ele>
        <time>2022-09-27T08:46:56.989Z</time>
      </trkpt>
      <trkpt lat="47.09197" lon="15.87559">
        <ele>346.770796</ele>
        <time>2022-09-27T08:46:59.992Z</time>
      </trkpt>
      <trkpt lat="47.09194" lon="15.87577">
        <ele>346.841681</ele>
        <time>2022-09-27T08:47:02.990Z</time>
      </trkpt>
      <trkpt lat="47.09191" lon="15.87596">
        <ele>346.912998</ele>
        <time>2022-09-27T08:47:05.994Z</time>
      </trkpt>
      <trkpt lat="47.09188" lon="15.87616">
        <ele>346.986247</ele>
        <time>2022-09-27T08:47:08.985Z</time>
      </trkpt>
      <trkpt lat="47.09187" lon="15.87629">
        <ele>347.034801</ele>
        <time>2022-09-27T08:47:10.983Z</time>
      </trkpt>
      <trkpt lat="47.09185" lon="15.87642">
        <ele>347.0846</ele>
        <time>2022-09-27T08:47:12.982Z</time>
      </trkpt>
      <trkpt lat="47.09184" lon="15.87656">
        <ele>347.171636</ele>
        <time>2022-09-27T08:47:14.983Z</time>
      </trkpt>
      <trkpt lat="47.09183" lon="15.87675">
        <ele>347.303269</ele>
        <time>2022-09-27T08:47:17.997Z</time>
      </trkpt>
      <trkpt lat="47.09183" lon="15.87689">
        <ele>347.397691</ele>
        <time>2022-09-27T08:47:19.988Z</time>
      </trkpt>
      <trkpt lat="47.09183" lon="15.87702">
        <ele>347.491348</ele>
        <time>2022-09-27T08:47:21.996Z</time>
      </trkpt>
      <trkpt lat="47.09182" lon="15.87716">
        <ele>347.583301</ele>
        <time>2022-09-27T08:47:23.998Z</time>
      </trkpt>
      <trkpt lat="47.09182" lon="15.87729">
        <ele>347.674991</ele>
        <time>2022-09-27T08:47:25.986Z</time>
      </trkpt>
      <trkpt lat="47.09182" lon="15.87748">
        <ele>347.804877</ele>
        <time>2022-09-27T08:47:28.988Z</time>
      </trkpt>
      <trkpt lat="47.09181" lon="15.87766">
        <ele>347.92666</ele>
        <time>2022-09-27T08:47:32.000Z</time>
      </trkpt>
      <trkpt lat="47.09181" lon="15.87783">
        <ele>348.041521</ele>
        <time>2022-09-27T08:47:35.005Z</time>
      </trkpt>
      <trkpt lat="47.09181" lon="15.87801">
        <ele>348.168673</ele>
        <time>2022-09-27T08:47:37.989Z</time>
      </trkpt>
      <trkpt lat="47.09181" lon="15.87821">
        <ele>348.299927</ele>
        <time>2022-09-27T08:47:40.996Z</time>
      </trkpt>
      <trkpt lat="47.09181" lon="15.8784">
        <ele>348.433971</ele>
        <time>2022-09-27T08:47:43.993Z</time>
      </trkpt>
      <trkpt lat="47.09181" lon="15.8786">
        <ele>348.568639</ele>
        <time>2022-09-27T08:47:47.031Z</time>
      </trkpt>
      <trkpt lat="47.09181" lon="15.87873">
        <ele>348.66112</ele>
        <time>2022-09-27T08:47:49.010Z</time>
      </trkpt>
      <trkpt lat="47.0918" lon="15.87887">
        <ele>348.754284</ele>
        <time>2022-09-27T08:47:50.993Z</time>
      </trkpt>
      <trkpt lat="47.0918" lon="15.87906">
        <ele>348.88485</ele>
        <time>2022-09-27T08:47:53.995Z</time>
      </trkpt>
      <trkpt lat="47.09181" lon="15.87924">
        <ele>349.144728</ele>
        <time>2022-09-27T08:47:56.993Z</time>
      </trkpt>
      <trkpt lat="47.09181" lon="15.87942">
        <ele>349.415728</ele>
        <time>2022-09-27T08:47:59.982Z</time>
      </trkpt>
      <trkpt lat="47.09181" lon="15.87961">
        <ele>349.697064</ele>
        <time>2022-09-27T08:48:02.989Z</time>
      </trkpt>
      <trkpt lat="47.0918" lon="15.87975">
        <ele>349.905262</ele>
        <time>2022-09-27T08:48:05.000Z</time>
      </trkpt>
      <trkpt lat="47.09179" lon="15.87988">
        <ele>350.105283</ele>
        <time>2022-09-27T08:48:07.031Z</time>
      </trkpt>
      <trkpt lat="47.09177" lon="15.88008">
        <ele>350.394998</ele>
        <time>2022-09-27T08:48:10.013Z</time>
      </trkpt>
      <trkpt lat="47.09175" lon="15.88027">
        <ele>350.690144</ele>
        <time>2022-09-27T08:48:12.999Z</time>
      </trkpt>
      <trkpt lat="47.09173" lon="15.8804">
        <ele>350.895208</ele>
        <time>2022-09-27T08:48:15.034Z</time>
      </trkpt>
      <trkpt lat="47.0917" lon="15.88054">
        <ele>351.098886</ele>
        <time>2022-09-27T08:48:16.993Z</time>
      </trkpt>
      <trkpt lat="47.09167" lon="15.88072">
        <ele>351.379167</ele>
        <time>2022-09-27T08:48:19.985Z</time>
      </trkpt>
      <trkpt lat="47.09163" lon="15.8809">
        <ele>351.666189</ele>
        <time>2022-09-27T08:48:23.038Z</time>
      </trkpt>
      <trkpt lat="47.09159" lon="15.88108">
        <ele>351.949981</ele>
        <time>2022-09-27T08:48:26.118Z</time>
      </trkpt>
      <trkpt lat="47.09155" lon="15.88125">
        <ele>352.222396</ele>
        <time>2022-09-27T08:48:28.996Z</time>
      </trkpt>
      <trkpt lat="47.0915" lon="15.88144">
        <ele>352.513369</ele>
        <time>2022-09-27T08:48:32.001Z</time>
      </trkpt>
      <trkpt lat="47.09147" lon="15.88161">
        <ele>352.788717</ele>
        <time>2022-09-27T08:48:35.000Z</time>
      </trkpt>
      <trkpt lat="47.09141" lon="15.88179">
        <ele>352.943007</ele>
        <time>2022-09-27T08:48:38.014Z</time>
      </trkpt>
      <trkpt lat="47.09137" lon="15.88197">
        <ele>353.057074</ele>
        <time>2022-09-27T08:48:40.996Z</time>
      </trkpt>
      <trkpt lat="47.09136" lon="15.88213">
        <ele>353.159652</ele>
        <time>2022-09-27T08:48:44.006Z</time>
      </trkpt>
      <trkpt lat="47.09135" lon="15.88228">
        <ele>353.250457</ele>
        <time>2022-09-27T08:48:47.993Z</time>
      </trkpt>
      <trkpt lat="47.0913" lon="15.88241">
        <ele>353.344433</ele>
        <time>2022-09-27T08:48:51.988Z</time>
      </trkpt>
      <trkpt lat="47.09127" lon="15.88255">
        <ele>353.435198</ele>
        <time>2022-09-27T08:48:54.996Z</time>
      </trkpt>
      <trkpt lat="47.09123" lon="15.88272">
        <ele>353.544004</ele>
        <time>2022-09-27T08:48:57.995Z</time>
      </trkpt>
      <trkpt lat="47.09119" lon="15.8829">
        <ele>353.660972</ele>
        <time>2022-09-27T08:49:00.995Z</time>
      </trkpt>
      <trkpt lat="47.09115" lon="15.88308">
        <ele>353.776247</ele>
        <time>2022-09-27T08:49:04.004Z</time>
      </trkpt>
      <trkpt lat="47.09112" lon="15.88326">
        <ele>353.894836</ele>
        <time>2022-09-27T08:49:06.988Z</time>
      </trkpt>
      <trkpt lat="47.09111" lon="15.8834">
        <ele>353.978244</ele>
        <time>2022-09-27T08:49:09.023Z</time>
      </trkpt>
      <trkpt lat="47.0911" lon="15.88353">
        <ele>354.060699</ele>
        <time>2022-09-27T08:49:10.977Z</time>
      </trkpt>
      <trkpt lat="47.09107" lon="15.88372">
        <ele>354.178687</ele>
        <time>2022-09-27T08:49:13.998Z</time>
      </trkpt>
      <trkpt lat="47.09104" lon="15.8839">
        <ele>354.291264</ele>
        <time>2022-09-27T08:49:17.000Z</time>
      </trkpt>
      <trkpt lat="47.09101" lon="15.88407">
        <ele>354.403519</ele>
        <time>2022-09-27T08:49:19.985Z</time>
      </trkpt>
      <trkpt lat="47.09099" lon="15.88425">
        <ele>354.335481</ele>
        <time>2022-09-27T08:49:22.998Z</time>
      </trkpt>
      <trkpt lat="47.09096" lon="15.88442">
        <ele>353.965134</ele>
        <time>2022-09-27T08:49:25.991Z</time>
      </trkpt>
      <trkpt lat="47.09092" lon="15.88459">
        <ele>353.584926</ele>
        <time>2022-09-27T08:49:28.993Z</time>
      </trkpt>
      <trkpt lat="47.09088" lon="15.88477">
        <ele>353.193692</ele>
        <time>2022-09-27T08:49:32.022Z</time>
      </trkpt>
      <trkpt lat="47.09085" lon="15.88491">
        <ele>352.883929</ele>
        <time>2022-09-27T08:49:35.003Z</time>
      </trkpt>
      <trkpt lat="47.09079" lon="15.88506">
        <ele>352.521066</ele>
        <time>2022-09-27T08:49:38.980Z</time>
      </trkpt>
      <trkpt lat="47.09074" lon="15.88519">
        <ele>352.20549</ele>
        <time>2022-09-27T08:49:42.029Z</time>
      </trkpt>
      <trkpt lat="47.09069" lon="15.88535">
        <ele>351.845531</ele>
        <time>2022-09-27T08:49:44.980Z</time>
      </trkpt>
      <trkpt lat="47.09066" lon="15.8855">
        <ele>351.505556</ele>
        <time>2022-09-27T08:49:47.977Z</time>
      </trkpt>
      <trkpt lat="47.09059" lon="15.88561">
        <ele>351.194484</ele>
        <time>2022-09-27T08:49:50.992Z</time>
      </trkpt>
      <trkpt lat="47.09046" lon="15.88557">
        <ele>350.773247</ele>
        <time>2022-09-27T08:49:54.021Z</time>
      </trkpt>
      <trkpt lat="47.09036" lon="15.88551">
        <ele>350.455832</ele>
        <time>2022-09-27T08:49:55.991Z</time>
      </trkpt>
      <trkpt lat="47.09027" lon="15.88545">
        <ele>350.14743</ele>
        <time>2022-09-27T08:49:57.990Z</time>
      </trkpt>
      <trkpt lat="47.09018" lon="15.8854">
        <ele>349.848739</ele>
        <time>2022-09-27T08:49:59.986Z</time>
      </trkpt>
      <trkpt lat="47.09009" lon="15.88535">
        <ele>349.568963</ele>
        <time>2022-09-27T08:50:01.993Z</time>
      </trkpt>
      <trkpt lat="47.08997" lon="15.88528">
        <ele>349.142357</ele>
        <time>2022-09-27T08:50:05.036Z</time>
      </trkpt>
      <trkpt lat="47.08987" lon="15.88522">
        <ele>348.932769</ele>
        <time>2022-09-27T08:50:06.990Z</time>
      </trkpt>
      <trkpt lat="47.08976" lon="15.88516">
        <ele>348.932164</ele>
        <time>2022-09-27T08:50:08.982Z</time>
      </trkpt>
      <trkpt lat="47.08966" lon="15.88509">
        <ele>348.931532</ele>
        <time>2022-09-27T08:50:10.992Z</time>
      </trkpt>
      <trkpt lat="47.08955" lon="15.88502">
        <ele>348.930866</ele>
        <time>2022-09-27T08:50:12.996Z</time>
      </trkpt>
      <trkpt lat="47.08943" lon="15.88495">
        <ele>348.930182</ele>
        <time>2022-09-27T08:50:14.995Z</time>
      </trkpt>
      <trkpt lat="47.08932" lon="15.88488">
        <ele>348.929474</ele>
        <time>2022-09-27T08:50:16.991Z</time>
      </trkpt>
      <trkpt lat="47.0892" lon="15.88481">
        <ele>348.928797</ele>
        <time>2022-09-27T08:50:19.012Z</time>
      </trkpt>
      <trkpt lat="47.08909" lon="15.88475">
        <ele>348.928121</ele>
        <time>2022-09-27T08:50:21.000Z</time>
      </trkpt>
      <trkpt lat="47.08897" lon="15.8847">
        <ele>348.927463</ele>
        <time>2022-09-27T08:50:23.001Z</time>
      </trkpt>
      <trkpt lat="47.08886" lon="15.88465">
        <ele>348.926786</ele>
        <time>2022-09-27T08:50:24.981Z</time>
      </trkpt>
      <trkpt lat="47.08875" lon="15.88459">
        <ele>348.926171</ele>
        <time>2022-09-27T08:50:27.033Z</time>
      </trkpt>
      <trkpt lat="47.08866" lon="15.88453">
        <ele>348.925608</ele>
        <time>2022-09-27T08:50:28.977Z</time>
      </trkpt>
      <trkpt lat="47.08857" lon="15.88447">
        <ele>348.925087</ele>
        <time>2022-09-27T08:50:30.981Z</time>
      </trkpt>
      <trkpt lat="47.08849" lon="15.88442">
        <ele>348.924578</ele>
        <time>2022-09-27T08:50:33.034Z</time>
      </trkpt>
      <trkpt lat="47.08837" lon="15.88434">
        <ele>348.923848</ele>
        <time>2022-09-27T08:50:35.995Z</time>
      </trkpt>
      <trkpt lat="47.08826" lon="15.88426">
        <ele>348.923193</ele>
        <time>2022-09-27T08:50:38.991Z</time>
      </trkpt>
      <trkpt lat="47.08816" lon="15.88417">
        <ele>348.732994</ele>
        <time>2022-09-27T08:50:41.985Z</time>
      </trkpt>
      <trkpt lat="47.08804" lon="15.8841">
        <ele>348.470197</ele>
        <time>2022-09-27T08:50:44.975Z</time>
      </trkpt>
      <trkpt lat="47.08792" lon="15.88402">
        <ele>348.225207</ele>
        <time>2022-09-27T08:50:47.979Z</time>
      </trkpt>
      <trkpt lat="47.08781" lon="15.88395">
        <ele>347.975235</ele>
        <time>2022-09-27T08:50:50.987Z</time>
      </trkpt>
      <trkpt lat="47.08769" lon="15.88386">
        <ele>347.710571</ele>
        <time>2022-09-27T08:50:53.992Z</time>
      </trkpt>
      <trkpt lat="47.0876" lon="15.88381">
        <ele>347.512809</ele>
        <time>2022-09-27T08:50:56.001Z</time>
      </trkpt>
      <trkpt lat="47.08751" lon="15.88375">
        <ele>347.3224</ele>
        <time>2022-09-27T08:50:58.000Z</time>
      </trkpt>
      <trkpt lat="47.08742" lon="15.8837">
        <ele>347.122793</ele>
        <time>2022-09-27T08:51:00.063Z</time>
      </trkpt>
      <trkpt lat="47.08732" lon="15.88364">
        <ele>346.914277</ele>
        <time>2022-09-27T08:51:01.972Z</time>
      </trkpt>
      <trkpt lat="47.08722" lon="15.88358">
        <ele>346.693443</ele>
        <time>2022-09-27T08:51:03.986Z</time>
      </trkpt>
      <trkpt lat="47.08712" lon="15.88352">
        <ele>346.480364</ele>
        <time>2022-09-27T08:51:05.997Z</time>
      </trkpt>
      <trkpt lat="47.08702" lon="15.88351">
        <ele>346.290738</ele>
        <time>2022-09-27T08:51:07.990Z</time>
      </trkpt>
      <trkpt lat="47.08694" lon="15.88357">
        <ele>346.105952</ele>
        <time>2022-09-27T08:51:09.990Z</time>
      </trkpt>
      <trkpt lat="47.08688" lon="15.88367">
        <ele>345.918565</ele>
        <time>2022-09-27T08:51:12.028Z</time>
      </trkpt>
      <trkpt lat="47.08684" lon="15.8838">
        <ele>345.729057</ele>
        <time>2022-09-27T08:51:14.084Z</time>
      </trkpt>
      <trkpt lat="47.08681" lon="15.88393">
        <ele>345.55005</ele>
        <time>2022-09-27T08:51:15.983Z</time>
      </trkpt>
      <trkpt lat="47.08676" lon="15.88404">
        <ele>345.367669</ele>
        <time>2022-09-27T08:51:17.987Z</time>
      </trkpt>
      <trkpt lat="47.08671" lon="15.88416">
        <ele>345.173869</ele>
        <time>2022-09-27T08:51:19.985Z</time>
      </trkpt>
      <trkpt lat="47.08667" lon="15.88428">
        <ele>344.980512</ele>
        <time>2022-09-27T08:51:21.999Z</time>
      </trkpt>
      <trkpt lat="47.08661" lon="15.88446">
        <ele>344.702137</ele>
        <time>2022-09-27T08:51:24.989Z</time>
      </trkpt>
      <trkpt lat="47.08656" lon="15.88458">
        <ele>344.513735</ele>
        <time>2022-09-27T08:51:26.988Z</time>
      </trkpt>
      <trkpt lat="47.08652" lon="15.8847">
        <ele>344.315927</ele>
        <time>2022-09-27T08:51:28.985Z</time>
      </trkpt>
      <trkpt lat="47.08647" lon="15.88482">
        <ele>344.119567</ele>
        <time>2022-09-27T08:51:30.975Z</time>
      </trkpt>
      <trkpt lat="47.08643" lon="15.88494">
        <ele>343.92938</ele>
        <time>2022-09-27T08:51:33.001Z</time>
      </trkpt>
      <trkpt lat="47.08639" lon="15.88506">
        <ele>343.742833</ele>
        <time>2022-09-27T08:51:34.989Z</time>
      </trkpt>
      <trkpt lat="47.08636" lon="15.88518">
        <ele>343.553097</ele>
        <time>2022-09-27T08:51:36.999Z</time>
      </trkpt>
      <trkpt lat="47.08632" lon="15.88531">
        <ele>343.356582</ele>
        <time>2022-09-27T08:51:39.028Z</time>
      </trkpt>
      <trkpt lat="47.08628" lon="15.88544">
        <ele>343.159272</ele>
        <time>2022-09-27T08:51:40.996Z</time>
      </trkpt>
      <trkpt lat="47.08626" lon="15.88557">
        <ele>342.969763</ele>
        <time>2022-09-27T08:51:42.992Z</time>
      </trkpt>
      <trkpt lat="47.08622" lon="15.88575">
        <ele>342.704729</ele>
        <time>2022-09-27T08:51:45.989Z</time>
      </trkpt>
      <trkpt lat="47.08619" lon="15.88594">
        <ele>342.432548</ele>
        <time>2022-09-27T08:51:48.997Z</time>
      </trkpt>
      <trkpt lat="47.08616" lon="15.88612">
        <ele>342.171818</ele>
        <time>2022-09-27T08:51:51.985Z</time>
      </trkpt>
      <trkpt lat="47.08614" lon="15.8863">
        <ele>341.905959</ele>
        <time>2022-09-27T08:51:54.991Z</time>
      </trkpt>
      <trkpt lat="47.08611" lon="15.88649">
        <ele>341.64245</ele>
        <time>2022-09-27T08:51:57.982Z</time>
      </trkpt>
      <trkpt lat="47.08607" lon="15.88667">
        <ele>341.663798</ele>
        <time>2022-09-27T08:52:01.023Z</time>
      </trkpt>
      <trkpt lat="47.08603" lon="15.88685">
        <ele>341.712042</ele>
        <time>2022-09-27T08:52:03.994Z</time>
      </trkpt>
      <trkpt lat="47.08598" lon="15.88703">
        <ele>341.761805</ele>
        <time>2022-09-27T08:52:07.045Z</time>
      </trkpt>
      <trkpt lat="47.08593" lon="15.88721">
        <ele>341.811803</ele>
        <time>2022-09-27T08:52:09.978Z</time>
      </trkpt>
      <trkpt lat="47.0859" lon="15.88735">
        <ele>341.84726</ele>
        <time>2022-09-27T08:52:12.023Z</time>
      </trkpt>
      <trkpt lat="47.08586" lon="15.88747">
        <ele>341.881553</ele>
        <time>2022-09-27T08:52:13.998Z</time>
      </trkpt>
      <trkpt lat="47.08581" lon="15.88765">
        <ele>341.930898</ele>
        <time>2022-09-27T08:52:16.991Z</time>
      </trkpt>
      <trkpt lat="47.08578" lon="15.88778">
        <ele>341.96527</ele>
        <time>2022-09-27T08:52:18.997Z</time>
      </trkpt>
      <trkpt lat="47.08575" lon="15.8879">
        <ele>342.000008</ele>
        <time>2022-09-27T08:52:20.972Z</time>
      </trkpt>
      <trkpt lat="47.08572" lon="15.88803">
        <ele>342.034502</ele>
        <time>2022-09-27T08:52:22.992Z</time>
      </trkpt>
      <trkpt lat="47.08569" lon="15.88816">
        <ele>342.069002</ele>
        <time>2022-09-27T08:52:24.990Z</time>
      </trkpt>
      <trkpt lat="47.08565" lon="15.88829">
        <ele>342.104109</ele>
        <time>2022-09-27T08:52:26.987Z</time>
      </trkpt>
      <trkpt lat="47.08562" lon="15.88842">
        <ele>342.13874</ele>
        <time>2022-09-27T08:52:29.026Z</time>
      </trkpt>
      <trkpt lat="47.08559" lon="15.88854">
        <ele>342.173848</ele>
        <time>2022-09-27T08:52:30.977Z</time>
      </trkpt>
      <trkpt lat="47.08555" lon="15.88868">
        <ele>342.210041</ele>
        <time>2022-09-27T08:52:33.000Z</time>
      </trkpt>
      <trkpt lat="47.08552" lon="15.88881">
        <ele>342.245183</ele>
        <time>2022-09-27T08:52:34.989Z</time>
      </trkpt>
      <trkpt lat="47.08549" lon="15.88894">
        <ele>342.28064</ele>
        <time>2022-09-27T08:52:36.972Z</time>
      </trkpt>
      <trkpt lat="47.08544" lon="15.88912">
        <ele>342.304383</ele>
        <time>2022-09-27T08:52:39.997Z</time>
      </trkpt>
      <trkpt lat="47.0854" lon="15.88925">
        <ele>342.31668</ele>
        <time>2022-09-27T08:52:42.008Z</time>
      </trkpt>
      <trkpt lat="47.08537" lon="15.88939">
        <ele>342.329528</ele>
        <time>2022-09-27T08:52:43.993Z</time>
      </trkpt>
      <trkpt lat="47.08533" lon="15.88953">
        <ele>342.341578</ele>
        <time>2022-09-27T08:52:46.028Z</time>
      </trkpt>
      <trkpt lat="47.0853" lon="15.88965">
        <ele>342.352963</ele>
        <time>2022-09-27T08:52:47.996Z</time>
      </trkpt>
      <trkpt lat="47.08526" lon="15.88978">
        <ele>342.364459</ele>
        <time>2022-09-27T08:52:49.992Z</time>
      </trkpt>
      <trkpt lat="47.08523" lon="15.8899">
        <ele>342.375909</ele>
        <time>2022-09-27T08:52:52.020Z</time>
      </trkpt>
      <trkpt lat="47.0852" lon="15.89003">
        <ele>342.387471</ele>
        <time>2022-09-27T08:52:54.000Z</time>
      </trkpt>
      <trkpt lat="47.08517" lon="15.89016">
        <ele>342.399196</ele>
        <time>2022-09-27T08:52:55.996Z</time>
      </trkpt>
      <trkpt lat="47.08513" lon="15.89029">
        <ele>342.410659</ele>
        <time>2022-09-27T08:52:57.993Z</time>
      </trkpt>
      <trkpt lat="47.0851" lon="15.89042">
        <ele>342.422268</ele>
        <time>2022-09-27T08:52:59.997Z</time>
      </trkpt>
      <trkpt lat="47.08507" lon="15.89054">
        <ele>342.433719</ele>
        <time>2022-09-27T08:53:01.994Z</time>
      </trkpt>
      <trkpt lat="47.08504" lon="15.89067">
        <ele>342.445407</ele>
        <time>2022-09-27T08:53:03.994Z</time>
      </trkpt>
      <trkpt lat="47.08501" lon="15.8908">
        <ele>342.456972</ele>
        <time>2022-09-27T08:53:05.988Z</time>
      </trkpt>
      <trkpt lat="47.08498" lon="15.89093">
        <ele>342.468294</ele>
        <time>2022-09-27T08:53:08.002Z</time>
      </trkpt>
      <trkpt lat="47.08495" lon="15.89106">
        <ele>342.480194</ele>
        <time>2022-09-27T08:53:10.030Z</time>
      </trkpt>
      <trkpt lat="47.08492" lon="15.8912">
        <ele>342.492201</ele>
        <time>2022-09-27T08:53:11.991Z</time>
      </trkpt>
      <trkpt lat="47.08489" lon="15.89132">
        <ele>342.503651</ele>
        <time>2022-09-27T08:53:14.031Z</time>
      </trkpt>
      <trkpt lat="47.08486" lon="15.89145">
        <ele>342.515181</ele>
        <time>2022-09-27T08:53:15.997Z</time>
      </trkpt>
      <trkpt lat="47.08482" lon="15.89158">
        <ele>342.516129</ele>
        <time>2022-09-27T08:53:17.980Z</time>
      </trkpt>
      <trkpt lat="47.08479" lon="15.8917">
        <ele>342.516729</ele>
        <time>2022-09-27T08:53:20.019Z</time>
      </trkpt>
      <trkpt lat="47.08476" lon="15.89183">
        <ele>342.517354</ele>
        <time>2022-09-27T08:53:22.007Z</time>
      </trkpt>
      <trkpt lat="47.08473" lon="15.89196">
        <ele>342.517963</ele>
        <time>2022-09-27T08:53:23.996Z</time>
      </trkpt>
      <trkpt lat="47.08469" lon="15.89215">
        <ele>342.518843</ele>
        <time>2022-09-27T08:53:26.995Z</time>
      </trkpt>
      <trkpt lat="47.08467" lon="15.89228">
        <ele>342.519453</ele>
        <time>2022-09-27T08:53:28.989Z</time>
      </trkpt>
      <trkpt lat="47.08465" lon="15.89242">
        <ele>342.520068</ele>
        <time>2022-09-27T08:53:30.995Z</time>
      </trkpt>
      <trkpt lat="47.08463" lon="15.89255">
        <ele>342.520707</ele>
        <time>2022-09-27T08:53:32.997Z</time>
      </trkpt>
      <trkpt lat="47.0846" lon="15.89269">
        <ele>342.521335</ele>
        <time>2022-09-27T08:53:34.993Z</time>
      </trkpt>
      <trkpt lat="47.08457" lon="15.89288">
        <ele>342.522199</ele>
        <time>2022-09-27T08:53:38.003Z</time>
      </trkpt>
      <trkpt lat="47.08454" lon="15.89305">
        <ele>342.522999</ele>
        <time>2022-09-27T08:53:40.987Z</time>
      </trkpt>
      <trkpt lat="47.0845" lon="15.89322">
        <ele>342.523792</ele>
        <time>2022-09-27T08:53:44.007Z</time>
      </trkpt>
      <trkpt lat="47.08448" lon="15.8934">
        <ele>342.524631</ele>
        <time>2022-09-27T08:53:46.991Z</time>
      </trkpt>
      <trkpt lat="47.08444" lon="15.89359">
        <ele>342.525491</ele>
        <time>2022-09-27T08:53:50.004Z</time>
      </trkpt>
      <trkpt lat="47.08442" lon="15.89372">
        <ele>342.5261</ele>
        <time>2022-09-27T08:53:52.019Z</time>
      </trkpt>
      <trkpt lat="47.08438" lon="15.8939">
        <ele>342.526951</ele>
        <time>2022-09-27T08:53:54.988Z</time>
      </trkpt>
      <trkpt lat="47.08436" lon="15.89406">
        <ele>342.505025</ele>
        <time>2022-09-27T08:53:56.992Z</time>
      </trkpt>
      <trkpt lat="47.08435" lon="15.8942">
        <ele>342.453834</ele>
        <time>2022-09-27T08:53:59.026Z</time>
      </trkpt>
      <trkpt lat="47.08433" lon="15.89434">
        <ele>342.405451</ele>
        <time>2022-09-27T08:54:00.996Z</time>
      </trkpt>
      <trkpt lat="47.0843" lon="15.89453">
        <ele>342.336461</ele>
        <time>2022-09-27T08:54:03.987Z</time>
      </trkpt>
      <trkpt lat="47.08427" lon="15.89472">
        <ele>342.267213</ele>
        <time>2022-09-27T08:54:06.999Z</time>
      </trkpt>
      <trkpt lat="47.08426" lon="15.89486">
        <ele>342.219116</ele>
        <time>2022-09-27T08:54:09.011Z</time>
      </trkpt>
      <trkpt lat="47.08424" lon="15.895">
        <ele>342.171175</ele>
        <time>2022-09-27T08:54:10.980Z</time>
      </trkpt>
      <trkpt lat="47.08422" lon="15.89513">
        <ele>342.124537</ele>
        <time>2022-09-27T08:54:12.989Z</time>
      </trkpt>
      <trkpt lat="47.08419" lon="15.89532">
        <ele>342.055659</ele>
        <time>2022-09-27T08:54:16.007Z</time>
      </trkpt>
      <trkpt lat="47.08417" lon="15.89545">
        <ele>342.00796</ele>
        <time>2022-09-27T08:54:17.987Z</time>
      </trkpt>
      <trkpt lat="47.08415" lon="15.89559">
        <ele>341.95879</ele>
        <time>2022-09-27T08:54:19.991Z</time>
      </trkpt>
      <trkpt lat="47.08413" lon="15.89572">
        <ele>341.91121</ele>
        <time>2022-09-27T08:54:21.999Z</time>
      </trkpt>
      <trkpt lat="47.08411" lon="15.89586">
        <ele>341.862243</ele>
        <time>2022-09-27T08:54:23.978Z</time>
      </trkpt>
      <trkpt lat="47.08409" lon="15.896">
        <ele>341.812835</ele>
        <time>2022-09-27T08:54:25.993Z</time>
      </trkpt>
      <trkpt lat="47.08407" lon="15.89614">
        <ele>341.763556</ele>
        <time>2022-09-27T08:54:27.999Z</time>
      </trkpt>
      <trkpt lat="47.08406" lon="15.89628">
        <ele>341.713562</ele>
        <time>2022-09-27T08:54:30.000Z</time>
      </trkpt>
      <trkpt lat="47.08404" lon="15.89642">
        <ele>341.665283</ele>
        <time>2022-09-27T08:54:31.980Z</time>
      </trkpt>
      <trkpt lat="47.08402" lon="15.89655">
        <ele>341.618496</ele>
        <time>2022-09-27T08:54:33.999Z</time>
      </trkpt>
      <trkpt lat="47.084" lon="15.89668">
        <ele>341.519533</ele>
        <time>2022-09-27T08:54:35.976Z</time>
      </trkpt>
      <trkpt lat="47.08397" lon="15.89681">
        <ele>341.403218</ele>
        <time>2022-09-27T08:54:38.039Z</time>
      </trkpt>
      <trkpt lat="47.08395" lon="15.89695">
        <ele>341.285423</ele>
        <time>2022-09-27T08:54:40.006Z</time>
      </trkpt>
      <trkpt lat="47.08393" lon="15.89708">
        <ele>341.174259</ele>
        <time>2022-09-27T08:54:42.000Z</time>
      </trkpt>
      <trkpt lat="47.08391" lon="15.89721">
        <ele>341.058966</ele>
        <time>2022-09-27T08:54:44.001Z</time>
      </trkpt>
      <trkpt lat="47.08389" lon="15.89734">
        <ele>340.942289</ele>
        <time>2022-09-27T08:54:45.992Z</time>
      </trkpt>
      <trkpt lat="47.08386" lon="15.89748">
        <ele>340.824789</ele>
        <time>2022-09-27T08:54:47.993Z</time>
      </trkpt>
      <trkpt lat="47.08384" lon="15.89761">
        <ele>340.708396</ele>
        <time>2022-09-27T08:54:49.998Z</time>
      </trkpt>
      <trkpt lat="47.08382" lon="15.89775">
        <ele>340.589795</ele>
        <time>2022-09-27T08:54:51.986Z</time>
      </trkpt>
      <trkpt lat="47.0838" lon="15.89789">
        <ele>340.469274</ele>
        <time>2022-09-27T08:54:54.013Z</time>
      </trkpt>
      <trkpt lat="47.08378" lon="15.89802">
        <ele>340.352831</ele>
        <time>2022-09-27T08:54:55.998Z</time>
      </trkpt>
      <trkpt lat="47.08376" lon="15.89816">
        <ele>340.230917</ele>
        <time>2022-09-27T08:54:57.995Z</time>
      </trkpt>
      <trkpt lat="47.08375" lon="15.8983">
        <ele>340.114473</ele>
        <time>2022-09-27T08:55:00.028Z</time>
      </trkpt>
      <trkpt lat="47.08373" lon="15.89843">
        <ele>339.998613</ele>
        <time>2022-09-27T08:55:01.991Z</time>
      </trkpt>
      <trkpt lat="47.08371" lon="15.89857">
        <ele>339.880011</ele>
        <time>2022-09-27T08:55:03.990Z</time>
      </trkpt>
      <trkpt lat="47.08369" lon="15.89871">
        <ele>339.761968</ele>
        <time>2022-09-27T08:55:06.002Z</time>
      </trkpt>
      <trkpt lat="47.08366" lon="15.89884">
        <ele>339.645814</ele>
        <time>2022-09-27T08:55:08.015Z</time>
      </trkpt>
      <trkpt lat="47.08364" lon="15.89897">
        <ele>339.532118</ele>
        <time>2022-09-27T08:55:09.985Z</time>
      </trkpt>
      <trkpt lat="47.08362" lon="15.8991">
        <ele>339.417087</ele>
        <time>2022-09-27T08:55:11.982Z</time>
      </trkpt>
      <trkpt lat="47.0836" lon="15.89923">
        <ele>339.385588</ele>
        <time>2022-09-27T08:55:13.982Z</time>
      </trkpt>
      <trkpt lat="47.08358" lon="15.89937">
        <ele>339.410537</ele>
        <time>2022-09-27T08:55:15.988Z</time>
      </trkpt>
      <trkpt lat="47.08356" lon="15.89951">
        <ele>339.435833</ele>
        <time>2022-09-27T08:55:17.997Z</time>
      </trkpt>
      <trkpt lat="47.08354" lon="15.89964">
        <ele>339.46007</ele>
        <time>2022-09-27T08:55:19.989Z</time>
      </trkpt>
      <trkpt lat="47.08351" lon="15.89983">
        <ele>339.495635</ele>
        <time>2022-09-27T08:55:23.013Z</time>
      </trkpt>
      <trkpt lat="47.08349" lon="15.89996">
        <ele>339.520577</ele>
        <time>2022-09-27T08:55:24.984Z</time>
      </trkpt>
      <trkpt lat="47.08347" lon="15.90009">
        <ele>339.544476</ele>
        <time>2022-09-27T08:55:26.986Z</time>
      </trkpt>
      <trkpt lat="47.08345" lon="15.90029">
        <ele>339.579896</ele>
        <time>2022-09-27T08:55:29.992Z</time>
      </trkpt>
      <trkpt lat="47.08343" lon="15.90048">
        <ele>339.615568</ele>
        <time>2022-09-27T08:55:33.040Z</time>
      </trkpt>
      <trkpt lat="47.08342" lon="15.90061">
        <ele>339.63961</ele>
        <time>2022-09-27T08:55:35.001Z</time>
      </trkpt>
      <trkpt lat="47.08341" lon="15.90075">
        <ele>339.664762</ele>
        <time>2022-09-27T08:55:36.998Z</time>
      </trkpt>
      <trkpt lat="47.08339" lon="15.90089">
        <ele>339.690306</ele>
        <time>2022-09-27T08:55:38.984Z</time>
      </trkpt>
      <trkpt lat="47.08338" lon="15.90104">
        <ele>339.71639</ele>
        <time>2022-09-27T08:55:40.990Z</time>
      </trkpt>
      <trkpt lat="47.08337" lon="15.90119">
        <ele>339.743714</ele>
        <time>2022-09-27T08:55:43.008Z</time>
      </trkpt>
      <trkpt lat="47.08336" lon="15.90133">
        <ele>339.770001</ele>
        <time>2022-09-27T08:55:45.004Z</time>
      </trkpt>
      <trkpt lat="47.08336" lon="15.90148">
        <ele>339.796965</ele>
        <time>2022-09-27T08:55:46.988Z</time>
      </trkpt>
      <trkpt lat="47.08334" lon="15.90162">
        <ele>339.821797</ele>
        <time>2022-09-27T08:55:49.005Z</time>
      </trkpt>
      <trkpt lat="47.08333" lon="15.90175">
        <ele>339.84681</ele>
        <time>2022-09-27T08:55:51.019Z</time>
      </trkpt>
      <trkpt lat="47.08331" lon="15.90189">
        <ele>339.847209</ele>
        <time>2022-09-27T08:55:52.994Z</time>
      </trkpt>
      <trkpt lat="47.0833" lon="15.90203">
        <ele>339.8466</ele>
        <time>2022-09-27T08:55:55.035Z</time>
      </trkpt>
      <trkpt lat="47.08328" lon="15.90218">
        <ele>339.845979</ele>
        <time>2022-09-27T08:55:56.992Z</time>
      </trkpt>
      <trkpt lat="47.08327" lon="15.90233">
        <ele>339.84533</ele>
        <time>2022-09-27T08:55:59.010Z</time>
      </trkpt>
      <trkpt lat="47.08326" lon="15.90248">
        <ele>339.844683</ele>
        <time>2022-09-27T08:56:00.990Z</time>
      </trkpt>
      <trkpt lat="47.08324" lon="15.90263">
        <ele>339.84405</ele>
        <time>2022-09-27T08:56:02.986Z</time>
      </trkpt>
      <trkpt lat="47.08323" lon="15.90278">
        <ele>339.843415</ele>
        <time>2022-09-27T08:56:04.994Z</time>
      </trkpt>
      <trkpt lat="47.08321" lon="15.90292">
        <ele>339.842811</ele>
        <time>2022-09-27T08:56:06.993Z</time>
      </trkpt>
      <trkpt lat="47.0832" lon="15.90306">
        <ele>339.842192</ele>
        <time>2022-09-27T08:56:08.998Z</time>
      </trkpt>
      <trkpt lat="47.08319" lon="15.9032">
        <ele>339.841589</ele>
        <time>2022-09-27T08:56:11.002Z</time>
      </trkpt>
      <trkpt lat="47.08318" lon="15.90335">
        <ele>339.840979</ele>
        <time>2022-09-27T08:56:12.991Z</time>
      </trkpt>
      <trkpt lat="47.08317" lon="15.90349">
        <ele>339.840356</ele>
        <time>2022-09-27T08:56:15.002Z</time>
      </trkpt>
      <trkpt lat="47.08316" lon="15.90364">
        <ele>339.839741</ele>
        <time>2022-09-27T08:56:17.025Z</time>
      </trkpt>
      <trkpt lat="47.08315" lon="15.90378">
        <ele>339.839125</ele>
        <time>2022-09-27T08:56:18.982Z</time>
      </trkpt>
      <trkpt lat="47.08314" lon="15.90393">
        <ele>339.838511</ele>
        <time>2022-09-27T08:56:20.986Z</time>
      </trkpt>
      <trkpt lat="47.08313" lon="15.90407">
        <ele>339.837902</ele>
        <time>2022-09-27T08:56:23.042Z</time>
      </trkpt>
      <trkpt lat="47.08312" lon="15.90421">
        <ele>339.837278</ele>
        <time>2022-09-27T08:56:24.977Z</time>
      </trkpt>
      <trkpt lat="47.08311" lon="15.90436">
        <ele>339.83665</ele>
        <time>2022-09-27T08:56:27.071Z</time>
      </trkpt>
      <trkpt lat="47.08309" lon="15.90451">
        <ele>339.770941</ele>
        <time>2022-09-27T08:56:28.989Z</time>
      </trkpt>
      <trkpt lat="47.08308" lon="15.90466">
        <ele>339.695545</ele>
        <time>2022-09-27T08:56:30.992Z</time>
      </trkpt>
      <trkpt lat="47.08307" lon="15.90481">
        <ele>339.620054</ele>
        <time>2022-09-27T08:56:33.003Z</time>
      </trkpt>
      <trkpt lat="47.08305" lon="15.90496">
        <ele>339.545054</ele>
        <time>2022-09-27T08:56:34.984Z</time>
      </trkpt>
      <trkpt lat="47.08304" lon="15.90511">
        <ele>339.471035</ele>
        <time>2022-09-27T08:56:36.983Z</time>
      </trkpt>
      <trkpt lat="47.08303" lon="15.90526">
        <ele>339.396035</ele>
        <time>2022-09-27T08:56:38.998Z</time>
      </trkpt>
      <trkpt lat="47.08301" lon="15.90541">
        <ele>339.321035</ele>
        <time>2022-09-27T08:56:40.997Z</time>
      </trkpt>
      <trkpt lat="47.083" lon="15.90556">
        <ele>339.246621</ele>
        <time>2022-09-27T08:56:42.992Z</time>
      </trkpt>
      <trkpt lat="47.08299" lon="15.9057">
        <ele>339.176317</ele>
        <time>2022-09-27T08:56:45.008Z</time>
      </trkpt>
      <trkpt lat="47.08297" lon="15.90584">
        <ele>339.105018</ele>
        <time>2022-09-27T08:56:47.055Z</time>
      </trkpt>
      <trkpt lat="47.08296" lon="15.90599">
        <ele>339.030605</ele>
        <time>2022-09-27T08:56:48.997Z</time>
      </trkpt>
      <trkpt lat="47.08295" lon="15.90614">
        <ele>338.957665</ele>
        <time>2022-09-27T08:56:50.991Z</time>
      </trkpt>
      <trkpt lat="47.08293" lon="15.90628">
        <ele>338.884407</ele>
        <time>2022-09-27T08:56:52.998Z</time>
      </trkpt>
      <trkpt lat="47.08293" lon="15.90643">
        <ele>338.813267</ele>
        <time>2022-09-27T08:56:54.987Z</time>
      </trkpt>
      <trkpt lat="47.08293" lon="15.90656">
        <ele>338.746872</ele>
        <time>2022-09-27T08:56:57.028Z</time>
      </trkpt>
      <trkpt lat="47.08294" lon="15.90676">
        <ele>338.646854</ele>
        <time>2022-09-27T08:56:59.990Z</time>
      </trkpt>
      <trkpt lat="47.08295" lon="15.90691">
        <ele>338.573363</ele>
        <time>2022-09-27T08:57:01.990Z</time>
      </trkpt>
      <trkpt lat="47.08296" lon="15.90706">
        <ele>338.548823</ele>
        <time>2022-09-27T08:57:04.069Z</time>
      </trkpt>
      <trkpt lat="47.08297" lon="15.90721">
        <ele>338.600708</ele>
        <time>2022-09-27T08:57:05.988Z</time>
      </trkpt>
      <trkpt lat="47.08298" lon="15.90736">
        <ele>338.651585</ele>
        <time>2022-09-27T08:57:07.976Z</time>
      </trkpt>
      <trkpt lat="47.08299" lon="15.90751">
        <ele>338.702008</ele>
        <time>2022-09-27T08:57:09.977Z</time>
      </trkpt>
      <trkpt lat="47.083" lon="15.90766">
        <ele>338.752291</ele>
        <time>2022-09-27T08:57:12.015Z</time>
      </trkpt>
      <trkpt lat="47.08301" lon="15.90781">
        <ele>338.803725</ele>
        <time>2022-09-27T08:57:13.987Z</time>
      </trkpt>
      <trkpt lat="47.08302" lon="15.90796">
        <ele>338.855108</ele>
        <time>2022-09-27T08:57:15.996Z</time>
      </trkpt>
      <trkpt lat="47.08303" lon="15.90811">
        <ele>338.906597</ele>
        <time>2022-09-27T08:57:17.992Z</time>
      </trkpt>
      <trkpt lat="47.08304" lon="15.90826">
        <ele>338.958317</ele>
        <time>2022-09-27T08:57:19.987Z</time>
      </trkpt>
      <trkpt lat="47.08305" lon="15.90841">
        <ele>339.009363</ele>
        <time>2022-09-27T08:57:21.987Z</time>
      </trkpt>
      <trkpt lat="47.08307" lon="15.90856">
        <ele>339.059904</ele>
        <time>2022-09-27T08:57:24.006Z</time>
      </trkpt>
      <trkpt lat="47.08308" lon="15.90871">
        <ele>339.111393</ele>
        <time>2022-09-27T08:57:25.985Z</time>
      </trkpt>
      <trkpt lat="47.08309" lon="15.90886">
        <ele>339.161816</ele>
        <time>2022-09-27T08:57:27.991Z</time>
      </trkpt>
      <trkpt lat="47.0831" lon="15.90901">
        <ele>339.213977</ele>
        <time>2022-09-27T08:57:29.988Z</time>
      </trkpt>
      <trkpt lat="47.08312" lon="15.90917">
        <ele>339.265526</ele>
        <time>2022-09-27T08:57:31.989Z</time>
      </trkpt>
      <trkpt lat="47.08313" lon="15.90931">
        <ele>339.31567</ele>
        <time>2022-09-27T08:57:33.972Z</time>
      </trkpt>
      <trkpt lat="47.08314" lon="15.90946">
        <ele>339.365813</ele>
        <time>2022-09-27T08:57:35.992Z</time>
      </trkpt>
      <trkpt lat="47.08315" lon="15.90961">
        <ele>339.415848</ele>
        <time>2022-09-27T08:57:37.995Z</time>
      </trkpt>
      <trkpt lat="47.08316" lon="15.90975">
        <ele>339.530689</ele>
        <time>2022-09-27T08:57:39.991Z</time>
      </trkpt>
      <trkpt lat="47.08317" lon="15.9099">
        <ele>339.652343</ele>
        <time>2022-09-27T08:57:41.981Z</time>
      </trkpt>
      <trkpt lat="47.08319" lon="15.91004">
        <ele>339.774464</ele>
        <time>2022-09-27T08:57:43.996Z</time>
      </trkpt>
      <trkpt lat="47.0832" lon="15.91019">
        <ele>339.895584</ele>
        <time>2022-09-27T08:57:45.983Z</time>
      </trkpt>
      <trkpt lat="47.08321" lon="15.91033">
        <ele>340.017537</ele>
        <time>2022-09-27T08:57:47.992Z</time>
      </trkpt>
      <trkpt lat="47.08322" lon="15.91048">
        <ele>340.141565</ele>
        <time>2022-09-27T08:57:49.988Z</time>
      </trkpt>
      <trkpt lat="47.08323" lon="15.91062">
        <ele>340.265722</ele>
        <time>2022-09-27T08:57:51.994Z</time>
      </trkpt>
      <trkpt lat="47.08324" lon="15.91077">
        <ele>340.392382</ele>
        <time>2022-09-27T08:57:54.003Z</time>
      </trkpt>
      <trkpt lat="47.08325" lon="15.91092">
        <ele>340.516189</ele>
        <time>2022-09-27T08:57:55.979Z</time>
      </trkpt>
      <trkpt lat="47.08326" lon="15.91107">
        <ele>340.642417</ele>
        <time>2022-09-27T08:57:57.989Z</time>
      </trkpt>
      <trkpt lat="47.08327" lon="15.91122">
        <ele>340.770747</ele>
        <time>2022-09-27T08:57:59.993Z</time>
      </trkpt>
      <trkpt lat="47.08328" lon="15.91138">
        <ele>340.899912</ele>
        <time>2022-09-27T08:58:01.999Z</time>
      </trkpt>
      <trkpt lat="47.08329" lon="15.91152">
        <ele>341.026027</ele>
        <time>2022-09-27T08:58:03.985Z</time>
      </trkpt>
      <trkpt lat="47.0833" lon="15.91167">
        <ele>341.152687</ele>
        <time>2022-09-27T08:58:06.039Z</time>
      </trkpt>
      <trkpt lat="47.08332" lon="15.91182">
        <ele>341.278907</ele>
        <time>2022-09-27T08:58:08.007Z</time>
      </trkpt>
      <trkpt lat="47.08334" lon="15.91197">
        <ele>341.402524</ele>
        <time>2022-09-27T08:58:10.021Z</time>
      </trkpt>
      <trkpt lat="47.08335" lon="15.91212">
        <ele>341.527655</ele>
        <time>2022-09-27T08:58:11.999Z</time>
      </trkpt>
      <trkpt lat="47.08336" lon="15.91227">
        <ele>341.637664</ele>
        <time>2022-09-27T08:58:13.976Z</time>
      </trkpt>
      <trkpt lat="47.08337" lon="15.91241">
        <ele>341.613124</ele>
        <time>2022-09-27T08:58:15.996Z</time>
      </trkpt>
      <trkpt lat="47.08339" lon="15.91257">
        <ele>341.587207</ele>
        <time>2022-09-27T08:58:18.008Z</time>
      </trkpt>
      <trkpt lat="47.0834" lon="15.91273">
        <ele>341.56069</ele>
        <time>2022-09-27T08:58:19.990Z</time>
      </trkpt>
      <trkpt lat="47.08341" lon="15.91288">
        <ele>341.534859</ele>
        <time>2022-09-27T08:58:21.987Z</time>
      </trkpt>
      <trkpt lat="47.08342" lon="15.91302">
        <ele>341.51122</ele>
        <time>2022-09-27T08:58:24.003Z</time>
      </trkpt>
      <trkpt lat="47.08343" lon="15.91317">
        <ele>341.486921</ele>
        <time>2022-09-27T08:58:26.027Z</time>
      </trkpt>
      <trkpt lat="47.08344" lon="15.91331">
        <ele>341.462973</ele>
        <time>2022-09-27T08:58:27.985Z</time>
      </trkpt>
      <trkpt lat="47.08344" lon="15.91346">
        <ele>341.439239</ele>
        <time>2022-09-27T08:58:30.009Z</time>
      </trkpt>
      <trkpt lat="47.08344" lon="15.91359">
        <ele>341.416531</ele>
        <time>2022-09-27T08:58:32.001Z</time>
      </trkpt>
      <trkpt lat="47.08344" lon="15.91373">
        <ele>341.393987</ele>
        <time>2022-09-27T08:58:33.989Z</time>
      </trkpt>
      <trkpt lat="47.08344" lon="15.91386">
        <ele>341.372073</ele>
        <time>2022-09-27T08:58:35.997Z</time>
      </trkpt>
      <trkpt lat="47.08343" lon="15.914">
        <ele>341.349829</ele>
        <time>2022-09-27T08:58:37.985Z</time>
      </trkpt>
      <trkpt lat="47.08343" lon="15.91415">
        <ele>341.324108</ele>
        <time>2022-09-27T08:58:39.993Z</time>
      </trkpt>
      <trkpt lat="47.08342" lon="15.91432">
        <ele>341.295863</ele>
        <time>2022-09-27T08:58:41.992Z</time>
      </trkpt>
      <trkpt lat="47.08341" lon="15.91449">
        <ele>341.267863</ele>
        <time>2022-09-27T08:58:43.984Z</time>
      </trkpt>
      <trkpt lat="47.0834" lon="15.91465">
        <ele>341.240901</ele>
        <time>2022-09-27T08:58:46.008Z</time>
      </trkpt>
      <trkpt lat="47.08338" lon="15.91481">
        <ele>341.214549</ele>
        <time>2022-09-27T08:58:48.000Z</time>
      </trkpt>
      <trkpt lat="47.08337" lon="15.91497">
        <ele>341.067305</ele>
        <time>2022-09-27T08:58:50.001Z</time>
      </trkpt>
      <trkpt lat="47.08336" lon="15.91512">
        <ele>340.831572</ele>
        <time>2022-09-27T08:58:52.004Z</time>
      </trkpt>
      <trkpt lat="47.08335" lon="15.91527">
        <ele>340.604139</ele>
        <time>2022-09-27T08:58:54.040Z</time>
      </trkpt>
      <trkpt lat="47.08334" lon="15.91543">
        <ele>340.373144</ele>
        <time>2022-09-27T08:58:55.995Z</time>
      </trkpt>
      <trkpt lat="47.08334" lon="15.91558">
        <ele>340.147483</ele>
        <time>2022-09-27T08:58:57.992Z</time>
      </trkpt>
      <trkpt lat="47.08333" lon="15.91572">
        <ele>339.93195</ele>
        <time>2022-09-27T08:59:00.002Z</time>
      </trkpt>
      <trkpt lat="47.08332" lon="15.9159">
        <ele>339.653134</ele>
        <time>2022-09-27T08:59:02.986Z</time>
      </trkpt>
      <trkpt lat="47.0833" lon="15.91604">
        <ele>339.440899</ele>
        <time>2022-09-27T08:59:05.993Z</time>
      </trkpt>
      <trkpt lat="47.08329" lon="15.91619">
        <ele>339.210069</ele>
        <time>2022-09-27T08:59:11.027Z</time>
      </trkpt>
      <trkpt lat="47.08328" lon="15.91633">
        <ele>339.003376</ele>
        <time>2022-09-27T08:59:15.993Z</time>
      </trkpt>
      <trkpt lat="47.08327" lon="15.91647">
        <ele>338.788015</ele>
        <time>2022-09-27T08:59:19.987Z</time>
      </trkpt>
      <trkpt lat="47.08325" lon="15.91663">
        <ele>338.542134</ele>
        <time>2022-09-27T08:59:23.986Z</time>
      </trkpt>
      <trkpt lat="47.08324" lon="15.91677">
        <ele>338.320381</ele>
        <time>2022-09-27T08:59:26.996Z</time>
      </trkpt>
      <trkpt lat="47.08322" lon="15.91694">
        <ele>338.063354</ele>
        <time>2022-09-27T08:59:30.001Z</time>
      </trkpt>
      <trkpt lat="47.08321" lon="15.91712">
        <ele>337.797706</ele>
        <time>2022-09-27T08:59:33.002Z</time>
      </trkpt>
      <trkpt lat="47.08321" lon="15.91729">
        <ele>337.535252</ele>
        <time>2022-09-27T08:59:35.995Z</time>
      </trkpt>
      <trkpt lat="47.08319" lon="15.91747">
        <ele>337.260661</ele>
        <time>2022-09-27T08:59:39.008Z</time>
      </trkpt>
      <trkpt lat="47.08318" lon="15.91765">
        <ele>337.32225</ele>
        <time>2022-09-27T08:59:41.999Z</time>
      </trkpt>
      <trkpt lat="47.08316" lon="15.91785">
        <ele>337.474942</ele>
        <time>2022-09-27T08:59:45.002Z</time>
      </trkpt>
      <trkpt lat="47.08316" lon="15.91804">
        <ele>337.626364</ele>
        <time>2022-09-27T08:59:47.990Z</time>
      </trkpt>
      <trkpt lat="47.08314" lon="15.91824">
        <ele>337.777958</ele>
        <time>2022-09-27T08:59:51.020Z</time>
      </trkpt>
      <trkpt lat="47.08313" lon="15.91843">
        <ele>337.928453</ele>
        <time>2022-09-27T08:59:54.005Z</time>
      </trkpt>
      <trkpt lat="47.08312" lon="15.91861">
        <ele>338.068074</ele>
        <time>2022-09-27T08:59:57.025Z</time>
      </trkpt>
      <trkpt lat="47.08311" lon="15.9188">
        <ele>338.22105</ele>
        <time>2022-09-27T09:00:00.029Z</time>
      </trkpt>
      <trkpt lat="47.0831" lon="15.91894">
        <ele>338.332182</ele>
        <time>2022-09-27T09:00:01.993Z</time>
      </trkpt>
      <trkpt lat="47.08308" lon="15.91908">
        <ele>338.443495</ele>
        <time>2022-09-27T09:00:04.012Z</time>
      </trkpt>
      <trkpt lat="47.08307" lon="15.91922">
        <ele>338.551982</ele>
        <time>2022-09-27T09:00:05.991Z</time>
      </trkpt>
      <trkpt lat="47.08306" lon="15.91935">
        <ele>338.655288</ele>
        <time>2022-09-27T09:00:08.024Z</time>
      </trkpt>
      <trkpt lat="47.08305" lon="15.91949">
        <ele>338.758308</ele>
        <time>2022-09-27T09:00:09.988Z</time>
      </trkpt>
      <trkpt lat="47.08305" lon="15.91962">
        <ele>338.861613</ele>
        <time>2022-09-27T09:00:11.992Z</time>
      </trkpt>
      <trkpt lat="47.08304" lon="15.91975">
        <ele>338.964715</ele>
        <time>2022-09-27T09:00:14.017Z</time>
      </trkpt>
      <trkpt lat="47.08303" lon="15.91988">
        <ele>339.069371</ele>
        <time>2022-09-27T09:00:15.992Z</time>
      </trkpt>
      <trkpt lat="47.08302" lon="15.92002">
        <ele>339.172473</ele>
        <time>2022-09-27T09:00:18.029Z</time>
      </trkpt>
      <trkpt lat="47.08301" lon="15.92015">
        <ele>339.293165</ele>
        <time>2022-09-27T09:00:19.990Z</time>
      </trkpt>
      <trkpt lat="47.08301" lon="15.92034">
        <ele>339.607414</ele>
        <time>2022-09-27T09:00:22.992Z</time>
      </trkpt>
      <trkpt lat="47.083" lon="15.9205">
        <ele>339.88823</ele>
        <time>2022-09-27T09:00:26.002Z</time>
      </trkpt>
      <trkpt lat="47.08302" lon="15.92063">
        <ele>340.112196</ele>
        <time>2022-09-27T09:00:28.996Z</time>
      </trkpt>
      <trkpt lat="47.08304" lon="15.92081">
        <ele>340.40965</ele>
        <time>2022-09-27T09:00:32.988Z</time>
      </trkpt>
      <trkpt lat="47.08307" lon="15.92096">
        <ele>340.669213</ele>
        <time>2022-09-27T09:00:36.012Z</time>
      </trkpt>
      <trkpt lat="47.08309" lon="15.92113">
        <ele>340.96092</ele>
        <time>2022-09-27T09:00:38.989Z</time>
      </trkpt>
      <trkpt lat="47.08316" lon="15.92128">
        <ele>341.275443</ele>
        <time>2022-09-27T09:00:41.979Z</time>
      </trkpt>
      <trkpt lat="47.08321" lon="15.92139">
        <ele>341.498836</ele>
        <time>2022-09-27T09:00:43.993Z</time>
      </trkpt>
      <trkpt lat="47.08327" lon="15.92155">
        <ele>341.803556</ele>
        <time>2022-09-27T09:00:47.004Z</time>
      </trkpt>
      <trkpt lat="47.08334" lon="15.92171">
        <ele>342.11946</ele>
        <time>2022-09-27T09:00:49.997Z</time>
      </trkpt>
      <trkpt lat="47.08339" lon="15.92188">
        <ele>342.425755</ele>
        <time>2022-09-27T09:00:53.009Z</time>
      </trkpt>
      <trkpt lat="47.08345" lon="15.92205">
        <ele>342.7512</ele>
        <time>2022-09-27T09:00:56.004Z</time>
      </trkpt>
      <trkpt lat="47.0835" lon="15.92216">
        <ele>342.975716</ele>
        <time>2022-09-27T09:00:57.987Z</time>
      </trkpt>
      <trkpt lat="47.08358" lon="15.92232">
        <ele>343.29589</ele>
        <time>2022-09-27T09:01:01.007Z</time>
      </trkpt>
      <trkpt lat="47.08365" lon="15.92248">
        <ele>343.629845</ele>
        <time>2022-09-27T09:01:03.994Z</time>
      </trkpt>
      <trkpt lat="47.0837" lon="15.9226">
        <ele>343.869112</ele>
        <time>2022-09-27T09:01:06.003Z</time>
      </trkpt>
      <trkpt lat="47.08375" lon="15.92272">
        <ele>344.117818</ele>
        <time>2022-09-27T09:01:07.988Z</time>
      </trkpt>
      <trkpt lat="47.0838" lon="15.92283">
        <ele>344.352302</ele>
        <time>2022-09-27T09:01:09.998Z</time>
      </trkpt>
      <trkpt lat="47.08385" lon="15.92295">
        <ele>344.597104</ele>
        <time>2022-09-27T09:01:12.003Z</time>
      </trkpt>
      <trkpt lat="47.08389" lon="15.92307">
        <ele>344.853766</ele>
        <time>2022-09-27T09:01:14.029Z</time>
      </trkpt>
      <trkpt lat="47.08395" lon="15.92319">
        <ele>345.108227</ele>
        <time>2022-09-27T09:01:16.003Z</time>
      </trkpt>
      <trkpt lat="47.084" lon="15.92331">
        <ele>345.362699</ele>
        <time>2022-09-27T09:01:18.088Z</time>
      </trkpt>
      <trkpt lat="47.08405" lon="15.92343">
        <ele>345.604654</ele>
        <time>2022-09-27T09:01:19.993Z</time>
      </trkpt>
      <trkpt lat="47.0841" lon="15.92354">
        <ele>345.850362</ele>
        <time>2022-09-27T09:01:21.987Z</time>
      </trkpt>
      <trkpt lat="47.08415" lon="15.92366">
        <ele>346.093057</ele>
        <time>2022-09-27T09:01:23.993Z</time>
      </trkpt>
      <trkpt lat="47.08423" lon="15.92381">
        <ele>346.427497</ele>
        <time>2022-09-27T09:01:26.993Z</time>
      </trkpt>
      <trkpt lat="47.08431" lon="15.92396">
        <ele>346.770229</ele>
        <time>2022-09-27T09:01:29.991Z</time>
      </trkpt>
      <trkpt lat="47.08438" lon="15.92413">
        <ele>347.126202</ele>
        <time>2022-09-27T09:01:32.995Z</time>
      </trkpt>
      <trkpt lat="47.08444" lon="15.92424">
        <ele>347.380756</ele>
        <time>2022-09-27T09:01:34.989Z</time>
      </trkpt>
      <trkpt lat="47.08449" lon="15.92437">
        <ele>347.642787</ele>
        <time>2022-09-27T09:01:37.044Z</time>
      </trkpt>
      <trkpt lat="47.08454" lon="15.92449">
        <ele>347.891254</ele>
        <time>2022-09-27T09:01:38.991Z</time>
      </trkpt>
      <trkpt lat="47.08461" lon="15.92466">
        <ele>348.239982</ele>
        <time>2022-09-27T09:01:42.064Z</time>
      </trkpt>
      <trkpt lat="47.08467" lon="15.92478">
        <ele>348.143469</ele>
        <time>2022-09-27T09:01:43.988Z</time>
      </trkpt>
      <trkpt lat="47.08472" lon="15.9249">
        <ele>347.655182</ele>
        <time>2022-09-27T09:01:45.996Z</time>
      </trkpt>
      <trkpt lat="47.08475" lon="15.92505">
        <ele>347.065504</ele>
        <time>2022-09-27T09:01:48.992Z</time>
      </trkpt>
      <trkpt lat="47.08467" lon="15.92515">
        <ele>346.506958</ele>
        <time>2022-09-27T09:01:51.994Z</time>
      </trkpt>
      <trkpt lat="47.08457" lon="15.92513">
        <ele>346.005164</ele>
        <time>2022-09-27T09:01:54.992Z</time>
      </trkpt>
      <trkpt lat="47.08447" lon="15.92513">
        <ele>345.44799</ele>
        <time>2022-09-27T09:01:58.032Z</time>
      </trkpt>
      <trkpt lat="47.08435" lon="15.92513">
        <ele>344.772136</ele>
        <time>2022-09-27T09:02:00.993Z</time>
      </trkpt>
      <trkpt lat="47.08422" lon="15.92512">
        <ele>344.063415</ele>
        <time>2022-09-27T09:02:03.988Z</time>
      </trkpt>
      <trkpt lat="47.08412" lon="15.92512">
        <ele>343.533526</ele>
        <time>2022-09-27T09:02:06.008Z</time>
      </trkpt>
      <trkpt lat="47.08402" lon="15.92511">
        <ele>343.024461</ele>
        <time>2022-09-27T09:02:08.003Z</time>
      </trkpt>
      <trkpt lat="47.08393" lon="15.9251">
        <ele>342.508946</ele>
        <time>2022-09-27T09:02:10.032Z</time>
      </trkpt>
      <trkpt lat="47.08383" lon="15.9251">
        <ele>341.967682</ele>
        <time>2022-09-27T09:02:11.987Z</time>
      </trkpt>
      <trkpt lat="47.08374" lon="15.9251">
        <ele>341.470283</ele>
        <time>2022-09-27T09:02:14.005Z</time>
      </trkpt>
      <trkpt lat="47.08361" lon="15.92509">
        <ele>340.810648</ele>
        <time>2022-09-27T09:02:16.988Z</time>
      </trkpt>
      <trkpt lat="47.08352" lon="15.92508">
        <ele>340.315142</ele>
        <time>2022-09-27T09:02:19.996Z</time>
      </trkpt>
      <trkpt lat="47.08343" lon="15.92509">
        <ele>339.793188</ele>
        <time>2022-09-27T09:02:24.002Z</time>
      </trkpt>
      <trkpt lat="47.08331" lon="15.9251">
        <ele>339.171265</ele>
        <time>2022-09-27T09:02:28.012Z</time>
      </trkpt>
      <trkpt lat="47.08321" lon="15.92514">
        <ele>338.680483</ele>
        <time>2022-09-27T09:02:31.001Z</time>
      </trkpt>
      <trkpt lat="47.08308" lon="15.92514">
        <ele>338.799872</ele>
        <time>2022-09-27T09:02:33.991Z</time>
      </trkpt>
      <trkpt lat="47.08296" lon="15.92509">
        <ele>338.915011</ele>
        <time>2022-09-27T09:02:37.078Z</time>
      </trkpt>
      <trkpt lat="47.08288" lon="15.92495">
        <ele>339.029552</ele>
        <time>2022-09-27T09:02:39.996Z</time>
      </trkpt>
      <trkpt lat="47.08282" lon="15.9248">
        <ele>339.141901</ele>
        <time>2022-09-27T09:02:43.007Z</time>
      </trkpt>
      <trkpt lat="47.08275" lon="15.92467">
        <ele>339.249539</ele>
        <time>2022-09-27T09:02:45.993Z</time>
      </trkpt>
      <trkpt lat="47.08265" lon="15.92457">
        <ele>339.361372</ele>
        <time>2022-09-27T09:02:49.009Z</time>
      </trkpt>
      <trkpt lat="47.08252" lon="15.92452">
        <ele>339.483934</ele>
        <time>2022-09-27T09:02:51.990Z</time>
      </trkpt>
      <trkpt lat="47.0824" lon="15.92448">
        <ele>339.602828</ele>
        <time>2022-09-27T09:02:55.017Z</time>
      </trkpt>
      <trkpt lat="47.08227" lon="15.92444">
        <ele>339.72407</ele>
        <time>2022-09-27T09:02:57.991Z</time>
      </trkpt>
      <trkpt lat="47.08214" lon="15.92439">
        <ele>339.847567</ele>
        <time>2022-09-27T09:03:00.986Z</time>
      </trkpt>
      <trkpt lat="47.08202" lon="15.92433">
        <ele>339.968343</ele>
        <time>2022-09-27T09:03:03.985Z</time>
      </trkpt>
      <trkpt lat="47.08189" lon="15.92429">
        <ele>340.088675</ele>
        <time>2022-09-27T09:03:06.989Z</time>
      </trkpt>
      <trkpt lat="47.08177" lon="15.92426">
        <ele>340.201178</ele>
        <time>2022-09-27T09:03:09.985Z</time>
      </trkpt>
      <trkpt lat="47.08165" lon="15.92421">
        <ele>340.318781</ele>
        <time>2022-09-27T09:03:12.991Z</time>
      </trkpt>
      <trkpt lat="47.08152" lon="15.92417">
        <ele>340.305137</ele>
        <time>2022-09-27T09:03:15.994Z</time>
      </trkpt>
      <trkpt lat="47.0814" lon="15.92412">
        <ele>340.25714</ele>
        <time>2022-09-27T09:03:18.990Z</time>
      </trkpt>
      <trkpt lat="47.08128" lon="15.92407">
        <ele>340.20847</ele>
        <time>2022-09-27T09:03:21.992Z</time>
      </trkpt>
      <trkpt lat="47.08116" lon="15.92403">
        <ele>340.160472</ele>
        <time>2022-09-27T09:03:25.002Z</time>
      </trkpt>
      <trkpt lat="47.08104" lon="15.92398">
        <ele>340.111912</ele>
        <time>2022-09-27T09:03:28.125Z</time>
      </trkpt>
      <trkpt lat="47.08092" lon="15.92394">
        <ele>340.063914</ele>
        <time>2022-09-27T09:03:30.994Z</time>
      </trkpt>
      <trkpt lat="47.0808" lon="15.9239">
        <ele>340.017729</ele>
        <time>2022-09-27T09:03:34.005Z</time>
      </trkpt>
      <trkpt lat="47.08069" lon="15.92386">
        <ele>339.971959</ele>
        <time>2022-09-27T09:03:36.999Z</time>
      </trkpt>
      <trkpt lat="47.08058" lon="15.92382">
        <ele>339.92865</ele>
        <time>2022-09-27T09:03:39.999Z</time>
      </trkpt>
      <trkpt lat="47.08048" lon="15.92379">
        <ele>339.891459</ele>
        <time>2022-09-27T09:03:43.004Z</time>
      </trkpt>
      <trkpt lat="47.08038" lon="15.92375">
        <ele>339.851378</ele>
        <time>2022-09-27T09:03:47.007Z</time>
      </trkpt>
      <trkpt lat="47.08028" lon="15.92372">
        <ele>339.810506</ele>
        <time>2022-09-27T09:03:51.987Z</time>
      </trkpt>
      <trkpt lat="47.08018" lon="15.92374">
        <ele>339.769523</ele>
        <time>2022-09-27T09:03:56.980Z</time>
      </trkpt>
      <trkpt lat="47.08" lon="15.92382">
        <ele>339.696612</ele>
        <time>2022-09-27T09:04:01.988Z</time>
      </trkpt>
      <trkpt lat="47.0799" lon="15.92386">
        <ele>339.658233</ele>
        <time>2022-09-27T09:04:03.992Z</time>
      </trkpt>
      <trkpt lat="47.07986" lon="15.924">
        <ele>339.92342</ele>
        <time>2022-09-27T09:04:10.996Z</time>
      </trkpt>
      <trkpt lat="47.07984" lon="15.92418">
        <ele>340.286845</ele>
        <time>2022-09-27T09:04:14.997Z</time>
      </trkpt>
      <trkpt lat="47.07983" lon="15.92435">
        <ele>340.646151</ele>
        <time>2022-09-27T09:04:17.995Z</time>
      </trkpt>
      <trkpt lat="47.07982" lon="15.92454">
        <ele>341.052708</ele>
        <time>2022-09-27T09:04:20.986Z</time>
      </trkpt>
      <trkpt lat="47.07982" lon="15.92472">
        <ele>341.423881</ele>
        <time>2022-09-27T09:04:23.992Z</time>
      </trkpt>
      <trkpt lat="47.0798" lon="15.92492">
        <ele>341.840316</ele>
        <time>2022-09-27T09:04:26.992Z</time>
      </trkpt>
      <trkpt lat="47.0798" lon="15.92505">
        <ele>342.132349</ele>
        <time>2022-09-27T09:04:29.062Z</time>
      </trkpt>
      <trkpt lat="47.07979" lon="15.92519">
        <ele>342.42393</ele>
        <time>2022-09-27T09:04:30.999Z</time>
      </trkpt>
      <trkpt lat="47.07978" lon="15.92534">
        <ele>342.733526</ele>
        <time>2022-09-27T09:04:33.001Z</time>
      </trkpt>
      <trkpt lat="47.07977" lon="15.92549">
        <ele>343.041779</ele>
        <time>2022-09-27T09:04:34.990Z</time>
      </trkpt>
      <trkpt lat="47.07976" lon="15.92563">
        <ele>343.345133</ele>
        <time>2022-09-27T09:04:36.994Z</time>
      </trkpt>
      <trkpt lat="47.07975" lon="15.92578">
        <ele>343.667591</ele>
        <time>2022-09-27T09:04:38.993Z</time>
      </trkpt>
      <trkpt lat="47.07975" lon="15.92594">
        <ele>344.002607</ele>
        <time>2022-09-27T09:04:40.983Z</time>
      </trkpt>
      <trkpt lat="47.07974" lon="15.92609">
        <ele>344.310123</ele>
        <time>2022-09-27T09:04:43.008Z</time>
      </trkpt>
      <trkpt lat="47.07974" lon="15.92623">
        <ele>344.593164</ele>
        <time>2022-09-27T09:04:44.992Z</time>
      </trkpt>
      <trkpt lat="47.07974" lon="15.92637">
        <ele>344.886399</ele>
        <time>2022-09-27T09:04:46.986Z</time>
      </trkpt>
      <trkpt lat="47.07974" lon="15.92651">
        <ele>345.178144</ele>
        <time>2022-09-27T09:04:48.998Z</time>
      </trkpt>
      <trkpt lat="47.07975" lon="15.92665">
        <ele>345.116412</ele>
        <time>2022-09-27T09:04:50.984Z</time>
      </trkpt>
      <trkpt lat="47.07974" lon="15.92679">
        <ele>345.053542</ele>
        <time>2022-09-27T09:04:52.987Z</time>
      </trkpt>
      <trkpt lat="47.07971" lon="15.92691">
        <ele>344.99363</ele>
        <time>2022-09-27T09:04:54.993Z</time>
      </trkpt>
      <trkpt lat="47.07961" lon="15.92695">
        <ele>344.927658</ele>
        <time>2022-09-27T09:04:57.981Z</time>
      </trkpt>
      <trkpt lat="47.07952" lon="15.92688">
        <ele>344.859946</ele>
        <time>2022-09-27T09:05:00.975Z</time>
      </trkpt>
      <trkpt lat="47.07942" lon="15.92686">
        <ele>344.799299</ele>
        <time>2022-09-27T09:05:03.987Z</time>
      </trkpt>
      <trkpt lat="47.07933" lon="15.92689">
        <ele>344.737018</ele>
        <time>2022-09-27T09:05:07.012Z</time>
      </trkpt>
      <trkpt lat="47.07926" lon="15.92699">
        <ele>344.672444</ele>
        <time>2022-09-27T09:05:09.993Z</time>
      </trkpt>
      <trkpt lat="47.07922" lon="15.92714">
        <ele>344.603688</ele>
        <time>2022-09-27T09:05:13.007Z</time>
      </trkpt>
      <trkpt lat="47.0792" lon="15.92729">
        <ele>344.536904</ele>
        <time>2022-09-27T09:05:15.986Z</time>
      </trkpt>
      <trkpt lat="47.07917" lon="15.92747">
        <ele>344.453324</ele>
        <time>2022-09-27T09:05:19.024Z</time>
      </trkpt>
      <trkpt lat="47.07915" lon="15.92764">
        <ele>344.376212</ele>
        <time>2022-09-27T09:05:22.001Z</time>
      </trkpt>
      <trkpt lat="47.07914" lon="15.9278">
        <ele>344.307099</ele>
        <time>2022-09-27T09:05:24.987Z</time>
      </trkpt>
      <trkpt lat="47.07913" lon="15.92795">
        <ele>344.239754</ele>
        <time>2022-09-27T09:05:27.988Z</time>
      </trkpt>
      <trkpt lat="47.07915" lon="15.9281">
        <ele>344.171876</ele>
        <time>2022-09-27T09:05:30.989Z</time>
      </trkpt>
      <trkpt lat="47.07917" lon="15.92823">
        <ele>344.112595</ele>
        <time>2022-09-27T09:05:33.991Z</time>
      </trkpt>
      <trkpt lat="47.0792" lon="15.92835">
        <ele>344.053348</ele>
        <time>2022-09-27T09:05:36.977Z</time>
      </trkpt>
      <trkpt lat="47.07926" lon="15.92851">
        <ele>344.055444</ele>
        <time>2022-09-27T09:05:41.020Z</time>
      </trkpt>
      <trkpt lat="47.07931" lon="15.92865">
        <ele>344.143488</ele>
        <time>2022-09-27T09:05:44.988Z</time>
      </trkpt>
      <trkpt lat="47.07935" lon="15.92879">
        <ele>344.226563</ele>
        <time>2022-09-27T09:05:48.981Z</time>
      </trkpt>
      <trkpt lat="47.07939" lon="15.92895">
        <ele>344.318269</ele>
        <time>2022-09-27T09:05:52.995Z</time>
      </trkpt>
      <trkpt lat="47.07941" lon="15.92908">
        <ele>344.391944</ele>
        <time>2022-09-27T09:05:55.989Z</time>
      </trkpt>
      <trkpt lat="47.07943" lon="15.92922">
        <ele>344.470999</ele>
        <time>2022-09-27T09:05:59.000Z</time>
      </trkpt>
      <trkpt lat="47.07947" lon="15.92937">
        <ele>344.558742</ele>
        <time>2022-09-27T09:06:01.999Z</time>
      </trkpt>
      <trkpt lat="47.07951" lon="15.92956">
        <ele>344.664669</ele>
        <time>2022-09-27T09:06:04.988Z</time>
      </trkpt>
      <trkpt lat="47.07953" lon="15.92971">
        <ele>344.749361</ele>
        <time>2022-09-27T09:06:06.991Z</time>
      </trkpt>
      <trkpt lat="47.07955" lon="15.92986">
        <ele>344.832893</ele>
        <time>2022-09-27T09:06:09.010Z</time>
      </trkpt>
      <trkpt lat="47.07956" lon="15.93001">
        <ele>344.916723</ele>
        <time>2022-09-27T09:06:10.997Z</time>
      </trkpt>
      <trkpt lat="47.07957" lon="15.93017">
        <ele>345.007818</ele>
        <time>2022-09-27T09:06:12.987Z</time>
      </trkpt>
      <trkpt lat="47.07956" lon="15.93035">
        <ele>345.102271</ele>
        <time>2022-09-27T09:06:15.008Z</time>
      </trkpt>
      <trkpt lat="47.07955" lon="15.93053">
        <ele>345.201384</ele>
        <time>2022-09-27T09:06:16.988Z</time>
      </trkpt>
      <trkpt lat="47.07954" lon="15.93072">
        <ele>345.308476</ele>
        <time>2022-09-27T09:06:18.996Z</time>
      </trkpt>
      <trkpt lat="47.07954" lon="15.93091">
        <ele>345.414947</ele>
        <time>2022-09-27T09:06:20.985Z</time>
      </trkpt>
      <trkpt lat="47.07953" lon="15.9311">
        <ele>345.339238</ele>
        <time>2022-09-27T09:06:22.998Z</time>
      </trkpt>
      <trkpt lat="47.07952" lon="15.93127">
        <ele>345.142679</ele>
        <time>2022-09-27T09:06:25.057Z</time>
      </trkpt>
      <trkpt lat="47.07949" lon="15.93144">
        <ele>344.950717</ele>
        <time>2022-09-27T09:06:26.989Z</time>
      </trkpt>
      <trkpt lat="47.07948" lon="15.9316">
        <ele>344.762877</ele>
        <time>2022-09-27T09:06:28.998Z</time>
      </trkpt>
      <trkpt lat="47.07946" lon="15.93175">
        <ele>344.583468</ele>
        <time>2022-09-27T09:06:31.034Z</time>
      </trkpt>
      <trkpt lat="47.07944" lon="15.9319">
        <ele>344.409292</ele>
        <time>2022-09-27T09:06:33.006Z</time>
      </trkpt>
      <trkpt lat="47.07943" lon="15.93205">
        <ele>344.244605</ele>
        <time>2022-09-27T09:06:34.997Z</time>
      </trkpt>
      <trkpt lat="47.07941" lon="15.93223">
        <ele>344.025458</ele>
        <time>2022-09-27T09:06:38.009Z</time>
      </trkpt>
      <trkpt lat="47.07939" lon="15.93241">
        <ele>343.817723</ele>
        <time>2022-09-27T09:06:40.988Z</time>
      </trkpt>
      <trkpt lat="47.07939" lon="15.93258">
        <ele>343.625439</ele>
        <time>2022-09-27T09:06:44.000Z</time>
      </trkpt>
      <trkpt lat="47.07939" lon="15.93275">
        <ele>343.437393</ele>
        <time>2022-09-27T09:06:46.983Z</time>
      </trkpt>
      <trkpt lat="47.07936" lon="15.93291">
        <ele>343.245302</ele>
        <time>2022-09-27T09:06:50.006Z</time>
      </trkpt>
      <trkpt lat="47.07935" lon="15.93309">
        <ele>343.044591</ele>
        <time>2022-09-27T09:06:53.025Z</time>
      </trkpt>
      <trkpt lat="47.07933" lon="15.93326">
        <ele>342.84593</ele>
        <time>2022-09-27T09:06:55.990Z</time>
      </trkpt>
      <trkpt lat="47.07932" lon="15.93342">
        <ele>342.65407</ele>
        <time>2022-09-27T09:06:59.006Z</time>
      </trkpt>
      <trkpt lat="47.0793" lon="15.93361">
        <ele>342.444274</ele>
        <time>2022-09-27T09:07:01.997Z</time>
      </trkpt>
      <trkpt lat="47.07929" lon="15.9338">
        <ele>342.28394</ele>
        <time>2022-09-27T09:07:04.987Z</time>
      </trkpt>
      <trkpt lat="47.07927" lon="15.934">
        <ele>342.125362</ele>
        <time>2022-09-27T09:07:08.006Z</time>
      </trkpt>
      <trkpt lat="47.07926" lon="15.93413">
        <ele>342.018125</ele>
        <time>2022-09-27T09:07:09.988Z</time>
      </trkpt>
      <trkpt lat="47.07925" lon="15.93426">
        <ele>341.908093</ele>
        <time>2022-09-27T09:07:11.992Z</time>
      </trkpt>
      <trkpt lat="47.07924" lon="15.93441">
        <ele>341.788872</ele>
        <time>2022-09-27T09:07:13.998Z</time>
      </trkpt>
      <trkpt lat="47.07923" lon="15.93456">
        <ele>341.671102</ele>
        <time>2022-09-27T09:07:15.998Z</time>
      </trkpt>
      <trkpt lat="47.07921" lon="15.93471">
        <ele>341.548539</ele>
        <time>2022-09-27T09:07:17.990Z</time>
      </trkpt>
      <trkpt lat="47.0792" lon="15.93486">
        <ele>341.423848</ele>
        <time>2022-09-27T09:07:19.988Z</time>
      </trkpt>
      <trkpt lat="47.07919" lon="15.93502">
        <ele>341.298219</ele>
        <time>2022-09-27T09:07:22.002Z</time>
      </trkpt>
      <trkpt lat="47.07917" lon="15.93517">
        <ele>341.174179</ele>
        <time>2022-09-27T09:07:23.996Z</time>
      </trkpt>
      <trkpt lat="47.07915" lon="15.93532">
        <ele>341.050139</ele>
        <time>2022-09-27T09:07:26.004Z</time>
      </trkpt>
      <trkpt lat="47.07914" lon="15.93547">
        <ele>340.929277</ele>
        <time>2022-09-27T09:07:27.997Z</time>
      </trkpt>
      <trkpt lat="47.07912" lon="15.93563">
        <ele>340.800077</ele>
        <time>2022-09-27T09:07:30.048Z</time>
      </trkpt>
      <trkpt lat="47.07909" lon="15.93579">
        <ele>340.663664</ele>
        <time>2022-09-27T09:07:31.993Z</time>
      </trkpt>
      <trkpt lat="47.07907" lon="15.93595">
        <ele>340.53016</ele>
        <time>2022-09-27T09:07:33.993Z</time>
      </trkpt>
      <trkpt lat="47.07905" lon="15.93611">
        <ele>340.401373</ele>
        <time>2022-09-27T09:07:36.003Z</time>
      </trkpt>
      <trkpt lat="47.07902" lon="15.93628">
        <ele>340.236226</ele>
        <time>2022-09-27T09:07:37.999Z</time>
      </trkpt>
      <trkpt lat="47.07901" lon="15.93644">
        <ele>340.020053</ele>
        <time>2022-09-27T09:07:39.976Z</time>
      </trkpt>
      <trkpt lat="47.07899" lon="15.93659">
        <ele>339.822222</ele>
        <time>2022-09-27T09:07:41.983Z</time>
      </trkpt>
      <trkpt lat="47.07897" lon="15.93674">
        <ele>339.6292</ele>
        <time>2022-09-27T09:07:44.006Z</time>
      </trkpt>
      <trkpt lat="47.07895" lon="15.9369">
        <ele>339.421801</ele>
        <time>2022-09-27T09:07:45.996Z</time>
      </trkpt>
      <trkpt lat="47.07893" lon="15.93707">
        <ele>339.202858</ele>
        <time>2022-09-27T09:07:48.003Z</time>
      </trkpt>
      <trkpt lat="47.07892" lon="15.93724">
        <ele>338.977942</ele>
        <time>2022-09-27T09:07:49.999Z</time>
      </trkpt>
      <trkpt lat="47.07891" lon="15.93741">
        <ele>338.758655</ele>
        <time>2022-09-27T09:07:52.036Z</time>
      </trkpt>
      <trkpt lat="47.0789" lon="15.93758">
        <ele>338.542488</ele>
        <time>2022-09-27T09:07:53.986Z</time>
      </trkpt>
      <trkpt lat="47.07889" lon="15.93774">
        <ele>338.338855</ele>
        <time>2022-09-27T09:07:55.996Z</time>
      </trkpt>
      <trkpt lat="47.07887" lon="15.93789">
        <ele>338.146944</ele>
        <time>2022-09-27T09:07:57.992Z</time>
      </trkpt>
      <trkpt lat="47.07886" lon="15.93804">
        <ele>337.951685</ele>
        <time>2022-09-27T09:07:59.997Z</time>
      </trkpt>
      <trkpt lat="47.07884" lon="15.93817">
        <ele>337.76936</ele>
        <time>2022-09-27T09:08:02.008Z</time>
      </trkpt>
      <trkpt lat="47.07882" lon="15.93831">
        <ele>337.587099</ele>
        <time>2022-09-27T09:08:04.032Z</time>
      </trkpt>
      <trkpt lat="47.07881" lon="15.93846">
        <ele>337.396463</ele>
        <time>2022-09-27T09:08:05.995Z</time>
      </trkpt>
      <trkpt lat="47.0788" lon="15.93861">
        <ele>337.207102</ele>
        <time>2022-09-27T09:08:08.000Z</time>
      </trkpt>
      <trkpt lat="47.07878" lon="15.93877">
        <ele>336.997321</ele>
        <time>2022-09-27T09:08:10.002Z</time>
      </trkpt>
      <trkpt lat="47.07877" lon="15.93893">
        <ele>336.758982</ele>
        <time>2022-09-27T09:08:11.988Z</time>
      </trkpt>
      <trkpt lat="47.07876" lon="15.93909">
        <ele>336.490032</ele>
        <time>2022-09-27T09:08:13.999Z</time>
      </trkpt>
      <trkpt lat="47.07874" lon="15.93925">
        <ele>336.229823</ele>
        <time>2022-09-27T09:08:15.999Z</time>
      </trkpt>
      <trkpt lat="47.07872" lon="15.9394">
        <ele>335.985904</ele>
        <time>2022-09-27T09:08:18.009Z</time>
      </trkpt>
      <trkpt lat="47.07871" lon="15.93955">
        <ele>335.738339</ele>
        <time>2022-09-27T09:08:19.996Z</time>
      </trkpt>
      <trkpt lat="47.07869" lon="15.93969">
        <ele>335.504725</ele>
        <time>2022-09-27T09:08:21.996Z</time>
      </trkpt>
      <trkpt lat="47.07866" lon="15.93982">
        <ele>335.27326</ele>
        <time>2022-09-27T09:08:24.011Z</time>
      </trkpt>
      <trkpt lat="47.07863" lon="15.93995">
        <ele>335.056813</ele>
        <time>2022-09-27T09:08:26.031Z</time>
      </trkpt>
      <trkpt lat="47.07859" lon="15.94008">
        <ele>334.815737</ele>
        <time>2022-09-27T09:08:28.004Z</time>
      </trkpt>
      <trkpt lat="47.07854" lon="15.94021">
        <ele>334.577098</ele>
        <time>2022-09-27T09:08:29.986Z</time>
      </trkpt>
      <trkpt lat="47.07849" lon="15.94033">
        <ele>334.354027</ele>
        <time>2022-09-27T09:08:32.049Z</time>
      </trkpt>
      <trkpt lat="47.07844" lon="15.94043">
        <ele>334.136681</ele>
        <time>2022-09-27T09:08:33.999Z</time>
      </trkpt>
      <trkpt lat="47.07837" lon="15.94058">
        <ele>333.848863</ele>
        <time>2022-09-27T09:08:37.006Z</time>
      </trkpt>
      <trkpt lat="47.07832" lon="15.9407">
        <ele>333.615077</ele>
        <time>2022-09-27T09:08:39.987Z</time>
      </trkpt>
      <trkpt lat="47.07826" lon="15.94083">
        <ele>333.35858</ele>
        <time>2022-09-27T09:08:43.018Z</time>
      </trkpt>
      <trkpt lat="47.0782" lon="15.94098">
        <ele>333.076054</ele>
        <time>2022-09-27T09:08:45.994Z</time>
      </trkpt>
      <trkpt lat="47.07814" lon="15.94113">
        <ele>332.793817</ele>
        <time>2022-09-27T09:08:48.985Z</time>
      </trkpt>
      <trkpt lat="47.07809" lon="15.9413">
        <ele>332.775361</ele>
        <time>2022-09-27T09:08:51.989Z</time>
      </trkpt>
      <trkpt lat="47.07804" lon="15.94147">
        <ele>333.221806</ele>
        <time>2022-09-27T09:08:55.011Z</time>
      </trkpt>
      <trkpt lat="47.07798" lon="15.94164">
        <ele>333.692809</ele>
        <time>2022-09-27T09:08:57.990Z</time>
      </trkpt>
      <trkpt lat="47.07794" lon="15.94176">
        <ele>334.038799</ele>
        <time>2022-09-27T09:08:59.987Z</time>
      </trkpt>
      <trkpt lat="47.07791" lon="15.9419">
        <ele>334.389861</ele>
        <time>2022-09-27T09:09:02.013Z</time>
      </trkpt>
      <trkpt lat="47.07788" lon="15.94202">
        <ele>334.73315</ele>
        <time>2022-09-27T09:09:03.995Z</time>
      </trkpt>
      <trkpt lat="47.07784" lon="15.94215">
        <ele>335.073088</ele>
        <time>2022-09-27T09:09:06.008Z</time>
      </trkpt>
      <trkpt lat="47.0778" lon="15.94227">
        <ele>335.410768</ele>
        <time>2022-09-27T09:09:07.999Z</time>
      </trkpt>
      <trkpt lat="47.07776" lon="15.94239">
        <ele>335.751598</ele>
        <time>2022-09-27T09:09:10.001Z</time>
      </trkpt>
      <trkpt lat="47.07772" lon="15.94252">
        <ele>336.08567</ele>
        <time>2022-09-27T09:09:12.032Z</time>
      </trkpt>
      <trkpt lat="47.07767" lon="15.94269">
        <ele>336.560156</ele>
        <time>2022-09-27T09:09:15.055Z</time>
      </trkpt>
      <trkpt lat="47.07761" lon="15.94286">
        <ele>337.036061</ele>
        <time>2022-09-27T09:09:18.004Z</time>
      </trkpt>
      <trkpt lat="47.07757" lon="15.94299">
        <ele>337.38137</ele>
        <time>2022-09-27T09:09:19.989Z</time>
      </trkpt>
      <trkpt lat="47.07752" lon="15.94311">
        <ele>337.731177</ele>
        <time>2022-09-27T09:09:22.048Z</time>
      </trkpt>
      <trkpt lat="47.07746" lon="15.94323">
        <ele>338.111794</ele>
        <time>2022-09-27T09:09:23.990Z</time>
      </trkpt>
      <trkpt lat="47.07741" lon="15.94337">
        <ele>338.505212</ele>
        <time>2022-09-27T09:09:25.992Z</time>
      </trkpt>
      <trkpt lat="47.07736" lon="15.94349">
        <ele>338.850108</ele>
        <time>2022-09-27T09:09:28.018Z</time>
      </trkpt>
      <trkpt lat="47.07731" lon="15.94362">
        <ele>339.203771</ele>
        <time>2022-09-27T09:09:31.027Z</time>
      </trkpt>
      <trkpt lat="47.07726" lon="15.94376">
        <ele>339.480522</ele>
        <time>2022-09-27T09:09:35.004Z</time>
      </trkpt>
      <trkpt lat="47.07722" lon="15.94389">
        <ele>339.732448</ele>
        <time>2022-09-27T09:09:39.033Z</time>
      </trkpt>
      <trkpt lat="47.0772" lon="15.94403">
        <ele>339.972606</ele>
        <time>2022-09-27T09:09:44.007Z</time>
      </trkpt>
      <trkpt lat="47.07719" lon="15.94419">
        <ele>340.253812</ele>
        <time>2022-09-27T09:09:48.999Z</time>
      </trkpt>
      <trkpt lat="47.07718" lon="15.94434">
        <ele>340.497544</ele>
        <time>2022-09-27T09:09:51.994Z</time>
      </trkpt>
      <trkpt lat="47.07718" lon="15.94452">
        <ele>340.806361</ele>
        <time>2022-09-27T09:09:54.986Z</time>
      </trkpt>
      <trkpt lat="47.07718" lon="15.9447">
        <ele>341.128932</ele>
        <time>2022-09-27T09:09:57.992Z</time>
      </trkpt>
      <trkpt lat="47.07719" lon="15.94487">
        <ele>341.423173</ele>
        <time>2022-09-27T09:09:59.973Z</time>
      </trkpt>
      <trkpt lat="47.07718" lon="15.94512">
        <ele>341.840063</ele>
        <time>2022-09-27T09:10:01.984Z</time>
      </trkpt>
      <trkpt lat="47.07714" lon="15.94535">
        <ele>342.253904</ele>
        <time>2022-09-27T09:10:03.976Z</time>
      </trkpt>
      <trkpt lat="47.0771" lon="15.94555">
        <ele>342.607514</ele>
        <time>2022-09-27T09:10:05.994Z</time>
      </trkpt>
      <trkpt lat="47.07708" lon="15.94574">
        <ele>342.939037</ele>
        <time>2022-09-27T09:10:08.008Z</time>
      </trkpt>
      <trkpt lat="47.07705" lon="15.94592">
        <ele>343.247481</ele>
        <time>2022-09-27T09:10:09.997Z</time>
      </trkpt>
      <trkpt lat="47.07702" lon="15.94607">
        <ele>343.523929</ele>
        <time>2022-09-27T09:10:12.032Z</time>
      </trkpt>
      <trkpt lat="47.07699" lon="15.94622">
        <ele>343.594353</ele>
        <time>2022-09-27T09:10:14.008Z</time>
      </trkpt>
      <trkpt lat="47.07697" lon="15.94636">
        <ele>343.243785</ele>
        <time>2022-09-27T09:10:15.990Z</time>
      </trkpt>
      <trkpt lat="47.07694" lon="15.9465">
        <ele>342.894583</ele>
        <time>2022-09-27T09:10:18.000Z</time>
      </trkpt>
      <trkpt lat="47.0769" lon="15.94665">
        <ele>342.53361</ele>
        <time>2022-09-27T09:10:19.990Z</time>
      </trkpt>
      <trkpt lat="47.07687" lon="15.94679">
        <ele>342.182665</ele>
        <time>2022-09-27T09:10:22.005Z</time>
      </trkpt>
      <trkpt lat="47.07684" lon="15.94692">
        <ele>341.864055</ele>
        <time>2022-09-27T09:10:24.010Z</time>
      </trkpt>
      <trkpt lat="47.07681" lon="15.94704">
        <ele>341.549808</ele>
        <time>2022-09-27T09:10:25.996Z</time>
      </trkpt>
      <trkpt lat="47.07676" lon="15.94721">
        <ele>341.110212</ele>
        <time>2022-09-27T09:10:29.005Z</time>
      </trkpt>
      <trkpt lat="47.07672" lon="15.94738">
        <ele>340.696893</ele>
        <time>2022-09-27T09:10:32.007Z</time>
      </trkpt>
      <trkpt lat="47.07668" lon="15.94755">
        <ele>340.262323</ele>
        <time>2022-09-27T09:10:35.000Z</time>
      </trkpt>
      <trkpt lat="47.07665" lon="15.94768">
        <ele>339.948219</ele>
        <time>2022-09-27T09:10:37.001Z</time>
      </trkpt>
      <trkpt lat="47.07661" lon="15.94786">
        <ele>339.514103</ele>
        <time>2022-09-27T09:10:40.000Z</time>
      </trkpt>
      <trkpt lat="47.07658" lon="15.94803">
        <ele>339.088415</ele>
        <time>2022-09-27T09:10:42.997Z</time>
      </trkpt>
      <trkpt lat="47.07661" lon="15.94818">
        <ele>338.716208</ele>
        <time>2022-09-27T09:10:46.997Z</time>
      </trkpt>
      <trkpt lat="47.07674" lon="15.9482">
        <ele>338.266278</ele>
        <time>2022-09-27T09:10:49.986Z</time>
      </trkpt>
      <trkpt lat="47.07685" lon="15.94824">
        <ele>337.892031</ele>
        <time>2022-09-27T09:10:51.979Z</time>
      </trkpt>
      <trkpt lat="47.07694" lon="15.94829">
        <ele>337.543094</ele>
        <time>2022-09-27T09:10:53.988Z</time>
      </trkpt>
      <trkpt lat="47.07704" lon="15.94833">
        <ele>337.410837</ele>
        <time>2022-09-27T09:10:55.987Z</time>
      </trkpt>
      <trkpt lat="47.07713" lon="15.94836">
        <ele>337.319713</ele>
        <time>2022-09-27T09:10:57.995Z</time>
      </trkpt>
      <trkpt lat="47.07722" lon="15.94838">
        <ele>337.224616</ele>
        <time>2022-09-27T09:11:00.003Z</time>
      </trkpt>
      <trkpt lat="47.07732" lon="15.94841">
        <ele>337.129071</ele>
        <time>2022-09-27T09:11:02.015Z</time>
      </trkpt>
      <trkpt lat="47.07741" lon="15.94844">
        <ele>337.035195</ele>
        <time>2022-09-27T09:11:04.026Z</time>
      </trkpt>
      <trkpt lat="47.0775" lon="15.94846">
        <ele>336.943622</ele>
        <time>2022-09-27T09:11:06.026Z</time>
      </trkpt>
      <trkpt lat="47.07761" lon="15.94849">
        <ele>336.843374</ele>
        <time>2022-09-27T09:11:08.010Z</time>
      </trkpt>
      <trkpt lat="47.0777" lon="15.94852">
        <ele>336.746352</ele>
        <time>2022-09-27T09:11:10.001Z</time>
      </trkpt>
      <trkpt lat="47.0778" lon="15.94856">
        <ele>336.645419</ele>
        <time>2022-09-27T09:11:11.991Z</time>
      </trkpt>
      <trkpt lat="47.0779" lon="15.94859">
        <ele>336.547813</ele>
        <time>2022-09-27T09:11:13.991Z</time>
      </trkpt>
      <trkpt lat="47.07799" lon="15.94862">
        <ele>336.453519</ele>
        <time>2022-09-27T09:11:15.995Z</time>
      </trkpt>
      <trkpt lat="47.07809" lon="15.94865">
        <ele>336.35827</ele>
        <time>2022-09-27T09:11:18.090Z</time>
      </trkpt>
      <trkpt lat="47.07818" lon="15.94868">
        <ele>336.26465</ele>
        <time>2022-09-27T09:11:19.985Z</time>
      </trkpt>
      <trkpt lat="47.07827" lon="15.94871">
        <ele>336.172692</ele>
        <time>2022-09-27T09:11:21.988Z</time>
      </trkpt>
      <trkpt lat="47.07837" lon="15.94873">
        <ele>336.079907</ele>
        <time>2022-09-27T09:11:24.012Z</time>
      </trkpt>
      <trkpt lat="47.07846" lon="15.94879">
        <ele>335.985499</ele>
        <time>2022-09-27T09:11:25.997Z</time>
      </trkpt>
      <trkpt lat="47.07851" lon="15.94891">
        <ele>335.891218</ele>
        <time>2022-09-27T09:11:27.999Z</time>
      </trkpt>
      <trkpt lat="47.07849" lon="15.94905">
        <ele>335.79607</ele>
        <time>2022-09-27T09:11:30.011Z</time>
      </trkpt>
      <trkpt lat="47.07843" lon="15.94919">
        <ele>335.758144</ele>
        <time>2022-09-27T09:11:31.998Z</time>
      </trkpt>
      <trkpt lat="47.07838" lon="15.94933">
        <ele>335.82361</ele>
        <time>2022-09-27T09:11:34.004Z</time>
      </trkpt>
      <trkpt lat="47.07835" lon="15.94947">
        <ele>335.886724</ele>
        <time>2022-09-27T09:11:36.008Z</time>
      </trkpt>
      <trkpt lat="47.07833" lon="15.94961">
        <ele>335.950006</ele>
        <time>2022-09-27T09:11:38.001Z</time>
      </trkpt>
      <trkpt lat="47.0783" lon="15.94976">
        <ele>336.016811</ele>
        <time>2022-09-27T09:11:40.032Z</time>
      </trkpt>
      <trkpt lat="47.07827" lon="15.9499">
        <ele>336.08304</ele>
        <time>2022-09-27T09:11:42.001Z</time>
      </trkpt>
      <trkpt lat="47.07825" lon="15.95005">
        <ele>336.146655</ele>
        <time>2022-09-27T09:11:43.983Z</time>
      </trkpt>
      <trkpt lat="47.07823" lon="15.95018">
        <ele>336.20807</ele>
        <time>2022-09-27T09:11:45.985Z</time>
      </trkpt>
      <trkpt lat="47.07821" lon="15.95032">
        <ele>336.267518</ele>
        <time>2022-09-27T09:11:47.996Z</time>
      </trkpt>
      <trkpt lat="47.07819" lon="15.95045">
        <ele>336.327266</ele>
        <time>2022-09-27T09:11:49.991Z</time>
      </trkpt>
      <trkpt lat="47.07817" lon="15.95058">
        <ele>336.385718</ele>
        <time>2022-09-27T09:11:51.995Z</time>
      </trkpt>
      <trkpt lat="47.07814" lon="15.95078">
        <ele>336.47172</ele>
        <time>2022-09-27T09:11:54.995Z</time>
      </trkpt>
      <trkpt lat="47.07812" lon="15.95091">
        <ele>336.531168</ele>
        <time>2022-09-27T09:11:57.029Z</time>
      </trkpt>
      <trkpt lat="47.0781" lon="15.95105">
        <ele>336.592744</ele>
        <time>2022-09-27T09:11:58.993Z</time>
      </trkpt>
      <trkpt lat="47.07808" lon="15.95119">
        <ele>336.655007</ele>
        <time>2022-09-27T09:12:00.999Z</time>
      </trkpt>
      <trkpt lat="47.07806" lon="15.95133">
        <ele>336.715181</ele>
        <time>2022-09-27T09:12:02.992Z</time>
      </trkpt>
      <trkpt lat="47.07805" lon="15.95146">
        <ele>336.773842</ele>
        <time>2022-09-27T09:12:04.999Z</time>
      </trkpt>
      <trkpt lat="47.07803" lon="15.9516">
        <ele>336.834642</ele>
        <time>2022-09-27T09:12:07.007Z</time>
      </trkpt>
      <trkpt lat="47.07801" lon="15.95174">
        <ele>336.866414</ele>
        <time>2022-09-27T09:12:08.994Z</time>
      </trkpt>
      <trkpt lat="47.07799" lon="15.95188">
        <ele>336.840048</ele>
        <time>2022-09-27T09:12:10.989Z</time>
      </trkpt>
      <trkpt lat="47.07797" lon="15.95202">
        <ele>336.814845</ele>
        <time>2022-09-27T09:12:12.997Z</time>
      </trkpt>
      <trkpt lat="47.07795" lon="15.95216">
        <ele>336.78811</ele>
        <time>2022-09-27T09:12:15.006Z</time>
      </trkpt>
      <trkpt lat="47.07793" lon="15.9523">
        <ele>336.761859</ele>
        <time>2022-09-27T09:12:16.982Z</time>
      </trkpt>
      <trkpt lat="47.07792" lon="15.95244">
        <ele>336.736285</ele>
        <time>2022-09-27T09:12:19.021Z</time>
      </trkpt>
      <trkpt lat="47.07791" lon="15.95259">
        <ele>336.709733</ele>
        <time>2022-09-27T09:12:21.001Z</time>
      </trkpt>
      <trkpt lat="47.07789" lon="15.95273">
        <ele>336.68282</ele>
        <time>2022-09-27T09:12:22.995Z</time>
      </trkpt>
      <trkpt lat="47.07786" lon="15.95288">
        <ele>336.656098</ele>
        <time>2022-09-27T09:12:25.005Z</time>
      </trkpt>
      <trkpt lat="47.07784" lon="15.95302">
        <ele>336.628843</ele>
        <time>2022-09-27T09:12:26.993Z</time>
      </trkpt>
      <trkpt lat="47.07782" lon="15.95317">
        <ele>336.60064</ele>
        <time>2022-09-27T09:12:29.002Z</time>
      </trkpt>
      <trkpt lat="47.0778" lon="15.95333">
        <ele>336.571656</ele>
        <time>2022-09-27T09:12:31.001Z</time>
      </trkpt>
      <trkpt lat="47.07777" lon="15.95348">
        <ele>336.54211</ele>
        <time>2022-09-27T09:12:33.010Z</time>
      </trkpt>
      <trkpt lat="47.07774" lon="15.95364">
        <ele>336.513721</ele>
        <time>2022-09-27T09:12:35.010Z</time>
      </trkpt>
      <trkpt lat="47.07772" lon="15.9538">
        <ele>336.483676</ele>
        <time>2022-09-27T09:12:36.991Z</time>
      </trkpt>
      <trkpt lat="47.07769" lon="15.95395">
        <ele>336.45553</ele>
        <time>2022-09-27T09:12:38.999Z</time>
      </trkpt>
      <trkpt lat="47.07767" lon="15.95409">
        <ele>336.428275</ele>
        <time>2022-09-27T09:12:41.036Z</time>
      </trkpt>
      <trkpt lat="47.07765" lon="15.95424">
        <ele>336.401278</ele>
        <time>2022-09-27T09:12:43.015Z</time>
      </trkpt>
      <trkpt lat="47.07763" lon="15.95438">
        <ele>336.200629</ele>
        <time>2022-09-27T09:12:45.000Z</time>
      </trkpt>
      <trkpt lat="47.07762" lon="15.95453">
        <ele>335.949976</ele>
        <time>2022-09-27T09:12:46.986Z</time>
      </trkpt>
      <trkpt lat="47.0776" lon="15.95468">
        <ele>335.680959</ele>
        <time>2022-09-27T09:12:49.009Z</time>
      </trkpt>
      <trkpt lat="47.07757" lon="15.95483">
        <ele>335.413111</ele>
        <time>2022-09-27T09:12:50.997Z</time>
      </trkpt>
      <trkpt lat="47.07754" lon="15.95498">
        <ele>335.144351</ele>
        <time>2022-09-27T09:12:52.994Z</time>
      </trkpt>
      <trkpt lat="47.0775" lon="15.95512">
        <ele>334.881378</ele>
        <time>2022-09-27T09:12:54.999Z</time>
      </trkpt>
      <trkpt lat="47.07746" lon="15.95526">
        <ele>334.626598</ele>
        <time>2022-09-27T09:12:57.006Z</time>
      </trkpt>
      <trkpt lat="47.07742" lon="15.95539">
        <ele>334.37831</ele>
        <time>2022-09-27T09:12:58.999Z</time>
      </trkpt>
      <trkpt lat="47.07737" lon="15.95551">
        <ele>334.140001</ele>
        <time>2022-09-27T09:13:00.992Z</time>
      </trkpt>
      <trkpt lat="47.07732" lon="15.95564">
        <ele>333.886057</ele>
        <time>2022-09-27T09:13:03.031Z</time>
      </trkpt>
      <trkpt lat="47.07727" lon="15.95576">
        <ele>333.635964</ele>
        <time>2022-09-27T09:13:04.982Z</time>
      </trkpt>
      <trkpt lat="47.07723" lon="15.95589">
        <ele>333.381103</ele>
        <time>2022-09-27T09:13:07.000Z</time>
      </trkpt>
      <trkpt lat="47.07718" lon="15.95602">
        <ele>333.132814</ele>
        <time>2022-09-27T09:13:09.018Z</time>
      </trkpt>
      <trkpt lat="47.07714" lon="15.95615">
        <ele>332.881222</ele>
        <time>2022-09-27T09:13:10.999Z</time>
      </trkpt>
      <trkpt lat="47.07709" lon="15.95628">
        <ele>332.626625</ele>
        <time>2022-09-27T09:13:13.012Z</time>
      </trkpt>
      <trkpt lat="47.07704" lon="15.95642">
        <ele>332.354145</ele>
        <time>2022-09-27T09:13:14.990Z</time>
      </trkpt>
      <trkpt lat="47.07699" lon="15.95656">
        <ele>332.086234</ele>
        <time>2022-09-27T09:13:16.996Z</time>
      </trkpt>
      <trkpt lat="47.07695" lon="15.95669">
        <ele>331.842159</ele>
        <time>2022-09-27T09:13:18.999Z</time>
      </trkpt>
      <trkpt lat="47.07694" lon="15.95683">
        <ele>331.838198</ele>
        <time>2022-09-27T09:13:21.006Z</time>
      </trkpt>
      <trkpt lat="47.07693" lon="15.95703">
        <ele>331.832605</ele>
        <time>2022-09-27T09:13:24.013Z</time>
      </trkpt>
      <trkpt lat="47.07694" lon="15.95718">
        <ele>331.828506</ele>
        <time>2022-09-27T09:13:26.027Z</time>
      </trkpt>
      <trkpt lat="47.07694" lon="15.95733">
        <ele>331.824324</ele>
        <time>2022-09-27T09:13:28.013Z</time>
      </trkpt>
      <trkpt lat="47.07694" lon="15.95748">
        <ele>331.820138</ele>
        <time>2022-09-27T09:13:29.995Z</time>
      </trkpt>
      <trkpt lat="47.07695" lon="15.95762">
        <ele>331.816051</ele>
        <time>2022-09-27T09:13:32.004Z</time>
      </trkpt>
      <trkpt lat="47.07696" lon="15.95776">
        <ele>331.812226</ele>
        <time>2022-09-27T09:13:33.995Z</time>
      </trkpt>
      <trkpt lat="47.07694" lon="15.9579">
        <ele>331.80832</ele>
        <time>2022-09-27T09:13:36.002Z</time>
      </trkpt>
      <trkpt lat="47.07691" lon="15.95804">
        <ele>331.803963</ele>
        <time>2022-09-27T09:13:37.972Z</time>
      </trkpt>
      <trkpt lat="47.07685" lon="15.95816">
        <ele>331.799846</ele>
        <time>2022-09-27T09:13:40.002Z</time>
      </trkpt>
      <trkpt lat="47.07678" lon="15.95824">
        <ele>331.796066</ele>
        <time>2022-09-27T09:13:41.986Z</time>
      </trkpt>
      <trkpt lat="47.0767" lon="15.95833">
        <ele>331.792243</ele>
        <time>2022-09-27T09:13:43.993Z</time>
      </trkpt>
      <trkpt lat="47.07663" lon="15.95841">
        <ele>331.788537</ele>
        <time>2022-09-27T09:13:46.008Z</time>
      </trkpt>
      <trkpt lat="47.07657" lon="15.95851">
        <ele>331.784679</ele>
        <time>2022-09-27T09:13:48.024Z</time>
      </trkpt>
      <trkpt lat="47.0765" lon="15.9586">
        <ele>331.780732</ele>
        <time>2022-09-27T09:13:49.996Z</time>
      </trkpt>
      <trkpt lat="47.07643" lon="15.9587">
        <ele>331.776824</ele>
        <time>2022-09-27T09:13:52.009Z</time>
      </trkpt>
      <trkpt lat="47.07635" lon="15.9588">
        <ele>331.772569</ele>
        <time>2022-09-27T09:13:54.024Z</time>
      </trkpt>
      <trkpt lat="47.07626" lon="15.95889">
        <ele>331.76825</ele>
        <time>2022-09-27T09:13:56.035Z</time>
      </trkpt>
      <trkpt lat="47.07619" lon="15.95898">
        <ele>331.605406</ele>
        <time>2022-09-27T09:13:58.004Z</time>
      </trkpt>
      <trkpt lat="47.07612" lon="15.95907">
        <ele>331.444059</ele>
        <time>2022-09-27T09:13:59.996Z</time>
      </trkpt>
      <trkpt lat="47.07603" lon="15.95915">
        <ele>331.277523</ele>
        <time>2022-09-27T09:14:02.004Z</time>
      </trkpt>
      <trkpt lat="47.07595" lon="15.95923">
        <ele>331.105198</ele>
        <time>2022-09-27T09:14:04.000Z</time>
      </trkpt>
      <trkpt lat="47.07587" lon="15.95931">
        <ele>330.940096</ele>
        <time>2022-09-27T09:14:06.004Z</time>
      </trkpt>
      <trkpt lat="47.07579" lon="15.9594">
        <ele>330.766756</ele>
        <time>2022-09-27T09:14:07.993Z</time>
      </trkpt>
      <trkpt lat="47.07572" lon="15.95952">
        <ele>330.583257</ele>
        <time>2022-09-27T09:14:10.045Z</time>
      </trkpt>
      <trkpt lat="47.07564" lon="15.95967">
        <ele>330.37816</ele>
        <time>2022-09-27T09:14:12.008Z</time>
      </trkpt>
      <trkpt lat="47.07559" lon="15.95982">
        <ele>330.173606</ele>
        <time>2022-09-27T09:14:13.996Z</time>
      </trkpt>
      <trkpt lat="47.07554" lon="15.95998">
        <ele>329.979744</ele>
        <time>2022-09-27T09:14:16.008Z</time>
      </trkpt>
      <trkpt lat="47.07549" lon="15.96012">
        <ele>329.793952</ele>
        <time>2022-09-27T09:14:17.991Z</time>
      </trkpt>
      <trkpt lat="47.07545" lon="15.96027">
        <ele>329.605362</ele>
        <time>2022-09-27T09:14:19.991Z</time>
      </trkpt>
      <trkpt lat="47.0754" lon="15.96042">
        <ele>329.420543</ele>
        <time>2022-09-27T09:14:21.998Z</time>
      </trkpt>
      <trkpt lat="47.07535" lon="15.96055">
        <ele>329.241363</ele>
        <time>2022-09-27T09:14:23.996Z</time>
      </trkpt>
      <trkpt lat="47.0753" lon="15.9607">
        <ele>329.053468</ele>
        <time>2022-09-27T09:14:26.013Z</time>
      </trkpt>
      <trkpt lat="47.07523" lon="15.96082">
        <ele>328.866496</ele>
        <time>2022-09-27T09:14:28.018Z</time>
      </trkpt>
      <trkpt lat="47.07513" lon="15.96089">
        <ele>328.836527</ele>
        <time>2022-09-27T09:14:29.987Z</time>
      </trkpt>
      <trkpt lat="47.07503" lon="15.96086">
        <ele>329.294503</ele>
        <time>2022-09-27T09:14:31.973Z</time>
      </trkpt>
      <trkpt lat="47.07495" lon="15.96076">
        <ele>329.767221</ele>
        <time>2022-09-27T09:14:33.996Z</time>
      </trkpt>
      <trkpt lat="47.07488" lon="15.96068">
        <ele>330.209018</ele>
        <time>2022-09-27T09:14:35.998Z</time>
      </trkpt>
      <trkpt lat="47.0748" lon="15.96062">
        <ele>330.630656</ele>
        <time>2022-09-27T09:14:38.035Z</time>
      </trkpt>
      <trkpt lat="47.07469" lon="15.96053">
        <ele>331.195705</ele>
        <time>2022-09-27T09:14:41.004Z</time>
      </trkpt>
      <trkpt lat="47.07459" lon="15.96047">
        <ele>331.716003</ele>
        <time>2022-09-27T09:14:44.038Z</time>
      </trkpt>
      <trkpt lat="47.07449" lon="15.96038">
        <ele>332.222231</ele>
        <time>2022-09-27T09:14:47.007Z</time>
      </trkpt>
      <trkpt lat="47.07439" lon="15.96032">
        <ele>332.716617</ele>
        <time>2022-09-27T09:14:50.030Z</time>
      </trkpt>
      <trkpt lat="47.0743" lon="15.96026">
        <ele>333.220058</ele>
        <time>2022-09-27T09:14:53.009Z</time>
      </trkpt>
      <trkpt lat="47.0742" lon="15.96019">
        <ele>333.731914</ele>
        <time>2022-09-27T09:14:55.989Z</time>
      </trkpt>
      <trkpt lat="47.07411" lon="15.96013">
        <ele>334.160305</ele>
        <time>2022-09-27T09:14:58.989Z</time>
      </trkpt>
      <trkpt lat="47.07403" lon="15.96006">
        <ele>334.608391</ele>
        <time>2022-09-27T09:15:01.982Z</time>
      </trkpt>
      <trkpt lat="47.07395" lon="15.96">
        <ele>335.042257</ele>
        <time>2022-09-27T09:15:04.979Z</time>
      </trkpt>
      <trkpt lat="47.07385" lon="15.95993">
        <ele>335.515081</ele>
        <time>2022-09-27T09:15:09.134Z</time>
      </trkpt>
      <trkpt lat="47.07376" lon="15.95988">
        <ele>335.995924</ele>
        <time>2022-09-27T09:15:12.994Z</time>
      </trkpt>
      <trkpt lat="47.07364" lon="15.95989">
        <ele>336.530995</ele>
        <time>2022-09-27T09:15:16.979Z</time>
      </trkpt>
      <trkpt lat="47.07355" lon="15.95995">
        <ele>337.005298</ele>
        <time>2022-09-27T09:15:19.983Z</time>
      </trkpt>
      <trkpt lat="47.07347" lon="15.96007">
        <ele>336.670352</ele>
        <time>2022-09-27T09:15:23.030Z</time>
      </trkpt>
      <trkpt lat="47.0734" lon="15.96021">
        <ele>336.183745</ele>
        <time>2022-09-27T09:15:26.011Z</time>
      </trkpt>
      <trkpt lat="47.07334" lon="15.96035">
        <ele>335.697433</ele>
        <time>2022-09-27T09:15:28.993Z</time>
      </trkpt>
      <trkpt lat="47.07328" lon="15.96049">
        <ele>335.243999</ele>
        <time>2022-09-27T09:15:32.008Z</time>
      </trkpt>
      <trkpt lat="47.07321" lon="15.96062">
        <ele>334.762283</ele>
        <time>2022-09-27T09:15:34.996Z</time>
      </trkpt>
      <trkpt lat="47.07314" lon="15.96076">
        <ele>334.289931</ele>
        <time>2022-09-27T09:15:37.985Z</time>
      </trkpt>
      <trkpt lat="47.07308" lon="15.9609">
        <ele>333.812879</ele>
        <time>2022-09-27T09:15:40.988Z</time>
      </trkpt>
      <trkpt lat="47.07303" lon="15.96104">
        <ele>333.36008</ele>
        <time>2022-09-27T09:15:43.993Z</time>
      </trkpt>
      <trkpt lat="47.07298" lon="15.96119">
        <ele>332.887309</ele>
        <time>2022-09-27T09:15:46.996Z</time>
      </trkpt>
      <trkpt lat="47.07292" lon="15.96133">
        <ele>332.424026</ele>
        <time>2022-09-27T09:15:50.013Z</time>
      </trkpt>
      <trkpt lat="47.07288" lon="15.96148">
        <ele>331.948646</ele>
        <time>2022-09-27T09:15:53.008Z</time>
      </trkpt>
      <trkpt lat="47.07284" lon="15.96164">
        <ele>331.45594</ele>
        <time>2022-09-27T09:15:56.030Z</time>
      </trkpt>
      <trkpt lat="47.0728" lon="15.9618">
        <ele>330.970027</ele>
        <time>2022-09-27T09:15:58.986Z</time>
      </trkpt>
      <trkpt lat="47.07276" lon="15.96197">
        <ele>330.473586</ele>
        <time>2022-09-27T09:16:01.983Z</time>
      </trkpt>
      <trkpt lat="47.07272" lon="15.96215">
        <ele>329.935217</ele>
        <time>2022-09-27T09:16:04.993Z</time>
      </trkpt>
      <trkpt lat="47.07268" lon="15.96233">
        <ele>329.601978</ele>
        <time>2022-09-27T09:16:07.991Z</time>
      </trkpt>
      <trkpt lat="47.07264" lon="15.96249">
        <ele>329.701837</ele>
        <time>2022-09-27T09:16:10.991Z</time>
      </trkpt>
      <trkpt lat="47.07263" lon="15.96265">
        <ele>329.794348</ele>
        <time>2022-09-27T09:16:13.982Z</time>
      </trkpt>
      <trkpt lat="47.07262" lon="15.96283">
        <ele>329.893043</ele>
        <time>2022-09-27T09:16:16.976Z</time>
      </trkpt>
      <trkpt lat="47.0726" lon="15.963">
        <ele>329.99356</ele>
        <time>2022-09-27T09:16:20.018Z</time>
      </trkpt>
      <trkpt lat="47.07258" lon="15.96318">
        <ele>330.095752</ele>
        <time>2022-09-27T09:16:22.987Z</time>
      </trkpt>
      <trkpt lat="47.07256" lon="15.96336">
        <ele>330.196413</ele>
        <time>2022-09-27T09:16:26.035Z</time>
      </trkpt>
      <trkpt lat="47.07253" lon="15.96352">
        <ele>330.290264</ele>
        <time>2022-09-27T09:16:28.974Z</time>
      </trkpt>
      <trkpt lat="47.07252" lon="15.96368">
        <ele>330.384642</ele>
        <time>2022-09-27T09:16:31.976Z</time>
      </trkpt>
      <trkpt lat="47.0725" lon="15.96385">
        <ele>330.481111</ele>
        <time>2022-09-27T09:16:35.022Z</time>
      </trkpt>
      <trkpt lat="47.07248" lon="15.96403">
        <ele>330.580081</ele>
        <time>2022-09-27T09:16:37.987Z</time>
      </trkpt>
      <trkpt lat="47.07246" lon="15.96419">
        <ele>330.673901</ele>
        <time>2022-09-27T09:16:41.002Z</time>
      </trkpt>
      <trkpt lat="47.07244" lon="15.96437">
        <ele>330.775792</ele>
        <time>2022-09-27T09:16:43.992Z</time>
      </trkpt>
      <trkpt lat="47.07241" lon="15.96455">
        <ele>330.880442</ele>
        <time>2022-09-27T09:16:46.988Z</time>
      </trkpt>
      <trkpt lat="47.0724" lon="15.96472">
        <ele>330.979606</ele>
        <time>2022-09-27T09:16:49.992Z</time>
      </trkpt>
      <trkpt lat="47.07238" lon="15.9649">
        <ele>331.137575</ele>
        <time>2022-09-27T09:16:53.026Z</time>
      </trkpt>
      <trkpt lat="47.07236" lon="15.96509">
        <ele>331.514155</ele>
        <time>2022-09-27T09:16:55.985Z</time>
      </trkpt>
      <trkpt lat="47.07233" lon="15.96528">
        <ele>331.903679</ele>
        <time>2022-09-27T09:16:58.999Z</time>
      </trkpt>
      <trkpt lat="47.07231" lon="15.96547">
        <ele>332.295716</ele>
        <time>2022-09-27T09:17:01.989Z</time>
      </trkpt>
      <trkpt lat="47.07229" lon="15.9656">
        <ele>332.561859</ele>
        <time>2022-09-27T09:17:04.003Z</time>
      </trkpt>
      <trkpt lat="47.07227" lon="15.96573">
        <ele>332.83616</ele>
        <time>2022-09-27T09:17:06.008Z</time>
      </trkpt>
      <trkpt lat="47.07225" lon="15.96592">
        <ele>333.230184</ele>
        <time>2022-09-27T09:17:09.003Z</time>
      </trkpt>
      <trkpt lat="47.07223" lon="15.96605">
        <ele>333.497381</ele>
        <time>2022-09-27T09:17:11.028Z</time>
      </trkpt>
      <trkpt lat="47.07222" lon="15.96618">
        <ele>333.764578</ele>
        <time>2022-09-27T09:17:12.996Z</time>
      </trkpt>
      <trkpt lat="47.07219" lon="15.96637">
        <ele>334.154632</ele>
        <time>2022-09-27T09:17:15.999Z</time>
      </trkpt>
      <trkpt lat="47.07216" lon="15.96656">
        <ele>334.539461</ele>
        <time>2022-09-27T09:17:19.015Z</time>
      </trkpt>
      <trkpt lat="47.07213" lon="15.96672">
        <ele>334.872911</ele>
        <time>2022-09-27T09:17:22.006Z</time>
      </trkpt>
      <trkpt lat="47.07211" lon="15.9669">
        <ele>335.248559</ele>
        <time>2022-09-27T09:17:24.993Z</time>
      </trkpt>
      <trkpt lat="47.07209" lon="15.96707">
        <ele>335.586538</ele>
        <time>2022-09-27T09:17:27.999Z</time>
      </trkpt>
      <trkpt lat="47.07206" lon="15.96724">
        <ele>335.9442</ele>
        <time>2022-09-27T09:17:31.066Z</time>
      </trkpt>
      <trkpt lat="47.07204" lon="15.96741">
        <ele>336.292605</ele>
        <time>2022-09-27T09:17:33.982Z</time>
      </trkpt>
      <trkpt lat="47.07201" lon="15.96759">
        <ele>336.416516</ele>
        <time>2022-09-27T09:17:36.998Z</time>
      </trkpt>
      <trkpt lat="47.07198" lon="15.96777">
        <ele>336.446589</ele>
        <time>2022-09-27T09:17:40.005Z</time>
      </trkpt>
      <trkpt lat="47.07195" lon="15.96793">
        <ele>336.473548</ele>
        <time>2022-09-27T09:17:43.043Z</time>
      </trkpt>
      <trkpt lat="47.07192" lon="15.96806">
        <ele>336.497951</ele>
        <time>2022-09-27T09:17:46.066Z</time>
      </trkpt>
      <trkpt lat="47.07189" lon="15.9682">
        <ele>336.522063</ele>
        <time>2022-09-27T09:17:49.003Z</time>
      </trkpt>
      <trkpt lat="47.07185" lon="15.96835">
        <ele>336.549233</ele>
        <time>2022-09-27T09:17:51.981Z</time>
      </trkpt>
      <trkpt lat="47.07182" lon="15.9685">
        <ele>336.574366</ele>
        <time>2022-09-27T09:17:55.002Z</time>
      </trkpt>
      <trkpt lat="47.07189" lon="15.96862">
        <ele>336.600741</ele>
        <time>2022-09-27T09:17:58.978Z</time>
      </trkpt>
      <trkpt lat="47.07195" lon="15.96871">
        <ele>336.623547</ele>
        <time>2022-09-27T09:18:01.006Z</time>
      </trkpt>
      <trkpt lat="47.07203" lon="15.96882">
        <ele>336.64975</ele>
        <time>2022-09-27T09:18:03.010Z</time>
      </trkpt>
      <trkpt lat="47.07211" lon="15.96895">
        <ele>336.677706</ele>
        <time>2022-09-27T09:18:04.984Z</time>
      </trkpt>
      <trkpt lat="47.07217" lon="15.96909">
        <ele>336.705673</ele>
        <time>2022-09-27T09:18:07.001Z</time>
      </trkpt>
      <trkpt lat="47.07221" lon="15.96926">
        <ele>336.735353</ele>
        <time>2022-09-27T09:18:09.004Z</time>
      </trkpt>
      <trkpt lat="47.07223" lon="15.96945">
        <ele>336.767038</ele>
        <time>2022-09-27T09:18:10.992Z</time>
      </trkpt>
      <trkpt lat="47.07228" lon="15.96961">
        <ele>336.796476</ele>
        <time>2022-09-27T09:18:12.967Z</time>
      </trkpt>
      <trkpt lat="47.07236" lon="15.96975">
        <ele>336.826742</ele>
        <time>2022-09-27T09:18:15.031Z</time>
      </trkpt>
      <trkpt lat="47.07245" lon="15.9699">
        <ele>337.0045</ele>
        <time>2022-09-27T09:18:16.984Z</time>
      </trkpt>
      <trkpt lat="47.07254" lon="15.97004">
        <ele>337.203949</ele>
        <time>2022-09-27T09:18:18.988Z</time>
      </trkpt>
      <trkpt lat="47.07262" lon="15.97017">
        <ele>337.392314</ele>
        <time>2022-09-27T09:18:20.994Z</time>
      </trkpt>
      <trkpt lat="47.0727" lon="15.97028">
        <ele>337.56771</ele>
        <time>2022-09-27T09:18:22.987Z</time>
      </trkpt>
      <trkpt lat="47.07278" lon="15.97039">
        <ele>337.735472</ele>
        <time>2022-09-27T09:18:24.992Z</time>
      </trkpt>
      <trkpt lat="47.07286" lon="15.97049">
        <ele>337.894743</ele>
        <time>2022-09-27T09:18:27.015Z</time>
      </trkpt>
      <trkpt lat="47.07295" lon="15.97057">
        <ele>338.050896</ele>
        <time>2022-09-27T09:18:28.990Z</time>
      </trkpt>
      <trkpt lat="47.07303" lon="15.97065">
        <ele>338.198848</ele>
        <time>2022-09-27T09:18:31.007Z</time>
      </trkpt>
      <trkpt lat="47.07311" lon="15.97072">
        <ele>338.351023</ele>
        <time>2022-09-27T09:18:32.990Z</time>
      </trkpt>
      <trkpt lat="47.0732" lon="15.97078">
        <ele>338.498758</ele>
        <time>2022-09-27T09:18:35.003Z</time>
      </trkpt>
      <trkpt lat="47.07332" lon="15.97086">
        <ele>338.698655</ele>
        <time>2022-09-27T09:18:37.984Z</time>
      </trkpt>
      <trkpt lat="47.07342" lon="15.97095">
        <ele>338.884523</ele>
        <time>2022-09-27T09:18:40.983Z</time>
      </trkpt>
      <trkpt lat="47.07352" lon="15.97108">
        <ele>339.088447</ele>
        <time>2022-09-27T09:18:43.993Z</time>
      </trkpt>
      <trkpt lat="47.07358" lon="15.97117">
        <ele>339.227262</ele>
        <time>2022-09-27T09:18:46.009Z</time>
      </trkpt>
      <trkpt lat="47.07366" lon="15.97132">
        <ele>339.413436</ele>
        <time>2022-09-27T09:18:48.995Z</time>
      </trkpt>
      <trkpt lat="47.07372" lon="15.97144">
        <ele>339.574555</ele>
        <time>2022-09-27T09:18:51.975Z</time>
      </trkpt>
      <trkpt lat="47.07377" lon="15.97155">
        <ele>339.787347</ele>
        <time>2022-09-27T09:18:55.012Z</time>
      </trkpt>
      <trkpt lat="47.07384" lon="15.9717">
        <ele>340.074275</ele>
        <time>2022-09-27T09:18:57.995Z</time>
      </trkpt>
      <trkpt lat="47.07389" lon="15.97182">
        <ele>340.299618</ele>
        <time>2022-09-27T09:19:00.006Z</time>
      </trkpt>
      <trkpt lat="47.07394" lon="15.97194">
        <ele>340.536179</ele>
        <time>2022-09-27T09:19:01.997Z</time>
      </trkpt>
      <trkpt lat="47.07399" lon="15.97207">
        <ele>340.767158</ele>
        <time>2022-09-27T09:19:03.992Z</time>
      </trkpt>
      <trkpt lat="47.07404" lon="15.97219">
        <ele>341.006528</ele>
        <time>2022-09-27T09:19:05.998Z</time>
      </trkpt>
      <trkpt lat="47.07409" lon="15.97232">
        <ele>341.240292</ele>
        <time>2022-09-27T09:19:07.990Z</time>
      </trkpt>
      <trkpt lat="47.07414" lon="15.97244">
        <ele>341.464649</ele>
        <time>2022-09-27T09:19:10.019Z</time>
      </trkpt>
      <trkpt lat="47.07421" lon="15.9726">
        <ele>341.78151</ele>
        <time>2022-09-27T09:19:12.985Z</time>
      </trkpt>
      <trkpt lat="47.07428" lon="15.97276">
        <ele>342.082061</ele>
        <time>2022-09-27T09:19:16.007Z</time>
      </trkpt>
      <trkpt lat="47.07433" lon="15.9729">
        <ele>342.342839</ele>
        <time>2022-09-27T09:19:18.980Z</time>
      </trkpt>
      <trkpt lat="47.07438" lon="15.97302">
        <ele>342.570471</ele>
        <time>2022-09-27T09:19:21.988Z</time>
      </trkpt>
      <trkpt lat="47.07444" lon="15.97317">
        <ele>342.85287</ele>
        <time>2022-09-27T09:19:25.992Z</time>
      </trkpt>
      <trkpt lat="47.0745" lon="15.97331">
        <ele>343.127744</ele>
        <time>2022-09-27T09:19:30.005Z</time>
      </trkpt>
      <trkpt lat="47.07457" lon="15.97342">
        <ele>343.370338</ele>
        <time>2022-09-27T09:19:33.991Z</time>
      </trkpt>
      <trkpt lat="47.07465" lon="15.97352">
        <ele>343.603402</ele>
        <time>2022-09-27T09:19:38.056Z</time>
      </trkpt>
      <trkpt lat="47.07471" lon="15.97362">
        <ele>343.830002</ele>
        <time>2022-09-27T09:19:43.994Z</time>
      </trkpt>
      <trkpt lat="47.0748" lon="15.9737">
        <ele>343.880128</ele>
        <time>2022-09-27T09:19:49.982Z</time>
      </trkpt>
      <trkpt lat="47.07487" lon="15.9738">
        <ele>343.878692</ele>
        <time>2022-09-27T09:19:54.016Z</time>
      </trkpt>
      <trkpt lat="47.07487" lon="15.97393">
        <ele>343.877341</ele>
        <time>2022-09-27T09:19:59.008Z</time>
      </trkpt>
      <trkpt lat="47.07491" lon="15.97406">
        <ele>343.875775</ele>
        <time>2022-09-27T09:20:03.995Z</time>
      </trkpt>
      <trkpt lat="47.07496" lon="15.97418">
        <ele>343.874424</ele>
        <time>2022-09-27T09:20:07.996Z</time>
      </trkpt>
      <trkpt lat="47.07504" lon="15.97427">
        <ele>343.872952</ele>
        <time>2022-09-27T09:20:11.986Z</time>
      </trkpt>
      <trkpt lat="47.07512" lon="15.97436">
        <ele>343.871387</ele>
        <time>2022-09-27T09:20:16.997Z</time>
      </trkpt>
      <trkpt lat="47.07521" lon="15.97446">
        <ele>343.869726</ele>
        <time>2022-09-27T09:20:22.032Z</time>
      </trkpt>
      <trkpt lat="47.07529" lon="15.97455">
        <ele>343.868203</ele>
        <time>2022-09-27T09:20:25.998Z</time>
      </trkpt>
      <trkpt lat="47.07537" lon="15.97464">
        <ele>343.866725</ele>
        <time>2022-09-27T09:20:30.004Z</time>
      </trkpt>
      <trkpt lat="47.07543" lon="15.97474">
        <ele>343.865321</ele>
        <time>2022-09-27T09:20:34.000Z</time>
      </trkpt>
      <trkpt lat="47.07549" lon="15.97485">
        <ele>343.863863</ele>
        <time>2022-09-27T09:20:38.004Z</time>
      </trkpt>
      <trkpt lat="47.07557" lon="15.97499">
        <ele>343.862104</ele>
        <time>2022-09-27T09:20:41.992Z</time>
      </trkpt>
      <trkpt lat="47.07563" lon="15.9751">
        <ele>343.860666</ele>
        <time>2022-09-27T09:20:44.996Z</time>
      </trkpt>
      <trkpt lat="47.07569" lon="15.97521">
        <ele>343.859207</ele>
        <time>2022-09-27T09:20:47.998Z</time>
      </trkpt>
      <trkpt lat="47.07575" lon="15.97532">
        <ele>343.857729</ele>
        <time>2022-09-27T09:20:51.001Z</time>
      </trkpt>
      <trkpt lat="47.0758" lon="15.97543">
        <ele>343.856317</ele>
        <time>2022-09-27T09:20:54.004Z</time>
      </trkpt>
      <trkpt lat="47.07587" lon="15.97556">
        <ele>343.854677</ele>
        <time>2022-09-27T09:20:56.982Z</time>
      </trkpt>
      <trkpt lat="47.07594" lon="15.97571">
        <ele>343.981005</ele>
        <time>2022-09-27T09:21:00.001Z</time>
      </trkpt>
      <trkpt lat="47.07599" lon="15.97587">
        <ele>344.120798</ele>
        <time>2022-09-27T09:21:03.013Z</time>
      </trkpt>
      <trkpt lat="47.07603" lon="15.97602">
        <ele>344.25505</ele>
        <time>2022-09-27T09:21:05.992Z</time>
      </trkpt>
      <trkpt lat="47.07607" lon="15.97618">
        <ele>344.383615</ele>
        <time>2022-09-27T09:21:09.011Z</time>
      </trkpt>
      <trkpt lat="47.07611" lon="15.97634">
        <ele>344.51902</ele>
        <time>2022-09-27T09:21:11.990Z</time>
      </trkpt>
      <trkpt lat="47.07616" lon="15.97649">
        <ele>344.657473</ele>
        <time>2022-09-27T09:21:14.998Z</time>
      </trkpt>
      <trkpt lat="47.0762" lon="15.97663">
        <ele>344.779493</ele>
        <time>2022-09-27T09:21:17.999Z</time>
      </trkpt>
      <trkpt lat="47.07625" lon="15.97677">
        <ele>344.907736</ele>
        <time>2022-09-27T09:21:20.988Z</time>
      </trkpt>
      <trkpt lat="47.0763" lon="15.9769">
        <ele>345.029666</ele>
        <time>2022-09-27T09:21:24.021Z</time>
      </trkpt>
      <trkpt lat="47.07636" lon="15.97704">
        <ele>345.154259</ele>
        <time>2022-09-27T09:21:26.992Z</time>
      </trkpt>
      <trkpt lat="47.07642" lon="15.97719">
        <ele>345.297085</ele>
        <time>2022-09-27T09:21:30.029Z</time>
      </trkpt>
      <trkpt lat="47.07649" lon="15.97736">
        <ele>345.453806</ele>
        <time>2022-09-27T09:21:33.007Z</time>
      </trkpt>
      <trkpt lat="47.07654" lon="15.97747">
        <ele>345.560259</ele>
        <time>2022-09-27T09:21:35.003Z</time>
      </trkpt>
      <trkpt lat="47.07662" lon="15.97762">
        <ele>345.712801</ele>
        <time>2022-09-27T09:21:38.034Z</time>
      </trkpt>
      <trkpt lat="47.07669" lon="15.97778">
        <ele>345.862681</ele>
        <time>2022-09-27T09:21:41.059Z</time>
      </trkpt>
      <trkpt lat="47.07676" lon="15.97794">
        <ele>345.861108</ele>
        <time>2022-09-27T09:21:44.011Z</time>
      </trkpt>
      <trkpt lat="47.07683" lon="15.97808">
        <ele>345.579169</ele>
        <time>2022-09-27T09:21:46.995Z</time>
      </trkpt>
      <trkpt lat="47.0769" lon="15.97823">
        <ele>345.291884</ele>
        <time>2022-09-27T09:21:50.006Z</time>
      </trkpt>
      <trkpt lat="47.07697" lon="15.97838">
        <ele>344.997856</ele>
        <time>2022-09-27T09:21:53.006Z</time>
      </trkpt>
      <trkpt lat="47.07704" lon="15.97853">
        <ele>344.698334</ele>
        <time>2022-09-27T09:21:56.017Z</time>
      </trkpt>
      <trkpt lat="47.07711" lon="15.97868">
        <ele>344.397628</ele>
        <time>2022-09-27T09:21:58.999Z</time>
      </trkpt>
      <trkpt lat="47.07718" lon="15.97883">
        <ele>344.114218</ele>
        <time>2022-09-27T09:22:02.005Z</time>
      </trkpt>
      <trkpt lat="47.07725" lon="15.97898">
        <ele>343.818928</ele>
        <time>2022-09-27T09:22:04.997Z</time>
      </trkpt>
      <trkpt lat="47.07733" lon="15.97913">
        <ele>343.509969</ele>
        <time>2022-09-27T09:22:08.003Z</time>
      </trkpt>
      <trkpt lat="47.07738" lon="15.97925">
        <ele>343.292169</ele>
        <time>2022-09-27T09:22:09.999Z</time>
      </trkpt>
      <trkpt lat="47.07743" lon="15.97935">
        <ele>343.076973</ele>
        <time>2022-09-27T09:22:12.010Z</time>
      </trkpt>
      <trkpt lat="47.0775" lon="15.9795">
        <ele>342.789691</ele>
        <time>2022-09-27T09:22:15.007Z</time>
      </trkpt>
      <trkpt lat="47.07755" lon="15.97961">
        <ele>342.566539</ele>
        <time>2022-09-27T09:22:17.007Z</time>
      </trkpt>
      <trkpt lat="47.0776" lon="15.97973">
        <ele>342.344736</ele>
        <time>2022-09-27T09:22:19.012Z</time>
      </trkpt>
      <trkpt lat="47.07768" lon="15.97989">
        <ele>342.033415</ele>
        <time>2022-09-27T09:22:21.998Z</time>
      </trkpt>
      <trkpt lat="47.07775" lon="15.98005">
        <ele>341.727159</ele>
        <time>2022-09-27T09:22:25.003Z</time>
      </trkpt>
      <trkpt lat="47.07781" lon="15.98019">
        <ele>341.945347</ele>
        <time>2022-09-27T09:22:27.990Z</time>
      </trkpt>
      <trkpt lat="47.07788" lon="15.98035">
        <ele>342.256995</ele>
        <time>2022-09-27T09:22:31.023Z</time>
      </trkpt>
      <trkpt lat="47.07795" lon="15.98052">
        <ele>342.565221</ele>
        <time>2022-09-27T09:22:34.009Z</time>
      </trkpt>
      <trkpt lat="47.07799" lon="15.98063">
        <ele>342.783264</ele>
        <time>2022-09-27T09:22:36.009Z</time>
      </trkpt>
      <trkpt lat="47.07806" lon="15.98079">
        <ele>343.08962</ele>
        <time>2022-09-27T09:22:39.000Z</time>
      </trkpt>
      <trkpt lat="47.07813" lon="15.98094">
        <ele>343.374319</ele>
        <time>2022-09-27T09:22:42.064Z</time>
      </trkpt>
      <trkpt lat="47.07819" lon="15.98108">
        <ele>343.645585</ele>
        <time>2022-09-27T09:22:45.005Z</time>
      </trkpt>
      <trkpt lat="47.07826" lon="15.98121">
        <ele>343.915733</ele>
        <time>2022-09-27T09:22:47.985Z</time>
      </trkpt>
      <trkpt lat="47.07833" lon="15.98134">
        <ele>344.181851</ele>
        <time>2022-09-27T09:22:51.002Z</time>
      </trkpt>
      <trkpt lat="47.0784" lon="15.98149">
        <ele>344.481255</ele>
        <time>2022-09-27T09:22:53.994Z</time>
      </trkpt>
      <trkpt lat="47.07847" lon="15.98163">
        <ele>344.767523</ele>
        <time>2022-09-27T09:22:57.010Z</time>
      </trkpt>
      <trkpt lat="47.07854" lon="15.98179">
        <ele>345.067106</ele>
        <time>2022-09-27T09:22:59.993Z</time>
      </trkpt>
      <trkpt lat="47.07861" lon="15.98196">
        <ele>345.384255</ele>
        <time>2022-09-27T09:23:02.989Z</time>
      </trkpt>
      <trkpt lat="47.07865" lon="15.98207">
        <ele>345.600721</ele>
        <time>2022-09-27T09:23:05.008Z</time>
      </trkpt>
      <trkpt lat="47.07869" lon="15.98219">
        <ele>345.818798</ele>
        <time>2022-09-27T09:23:06.990Z</time>
      </trkpt>
      <trkpt lat="47.07873" lon="15.98232">
        <ele>345.898819</ele>
        <time>2022-09-27T09:23:09.026Z</time>
      </trkpt>
      <trkpt lat="47.07876" lon="15.98247">
        <ele>345.495073</ele>
        <time>2022-09-27T09:23:11.014Z</time>
      </trkpt>
      <trkpt lat="47.07877" lon="15.98262">
        <ele>345.091607</ele>
        <time>2022-09-27T09:23:12.997Z</time>
      </trkpt>
      <trkpt lat="47.07879" lon="15.98278">
        <ele>344.690292</ele>
        <time>2022-09-27T09:23:15.002Z</time>
      </trkpt>
      <trkpt lat="47.0788" lon="15.98293">
        <ele>344.276977</ele>
        <time>2022-09-27T09:23:17.022Z</time>
      </trkpt>
      <trkpt lat="47.07879" lon="15.98307">
        <ele>343.919907</ele>
        <time>2022-09-27T09:23:18.996Z</time>
      </trkpt>
      <trkpt lat="47.0788" lon="15.98323">
        <ele>343.500108</ele>
        <time>2022-09-27T09:23:20.982Z</time>
      </trkpt>
      <trkpt lat="47.07883" lon="15.9834">
        <ele>343.048445</ele>
        <time>2022-09-27T09:23:22.998Z</time>
      </trkpt>
      <trkpt lat="47.07886" lon="15.98354">
        <ele>342.670005</ele>
        <time>2022-09-27T09:23:24.999Z</time>
      </trkpt>
      <trkpt lat="47.07893" lon="15.98371">
        <ele>342.167052</ele>
        <time>2022-09-27T09:23:28.004Z</time>
      </trkpt>
      <trkpt lat="47.07898" lon="15.9839">
        <ele>341.640843</ele>
        <time>2022-09-27T09:23:30.995Z</time>
      </trkpt>
      <trkpt lat="47.07895" lon="15.98405">
        <ele>341.227631</ele>
        <time>2022-09-27T09:23:32.990Z</time>
      </trkpt>
      <trkpt lat="47.07887" lon="15.98417">
        <ele>340.789814</ele>
        <time>2022-09-27T09:23:34.980Z</time>
      </trkpt>
      <trkpt lat="47.07877" lon="15.98429">
        <ele>340.302633</ele>
        <time>2022-09-27T09:23:36.997Z</time>
      </trkpt>
      <trkpt lat="47.07868" lon="15.9844">
        <ele>339.856364</ele>
        <time>2022-09-27T09:23:38.994Z</time>
      </trkpt>
      <trkpt lat="47.07861" lon="15.98453">
        <ele>339.43583</ele>
        <time>2022-09-27T09:23:40.991Z</time>
      </trkpt>
      <trkpt lat="47.07854" lon="15.98464">
        <ele>338.900745</ele>
        <time>2022-09-27T09:23:43.000Z</time>
      </trkpt>
      <trkpt lat="47.07846" lon="15.98476">
        <ele>338.123478</ele>
        <time>2022-09-27T09:23:45.005Z</time>
      </trkpt>
      <trkpt lat="47.07839" lon="15.98487">
        <ele>337.368223</ele>
        <time>2022-09-27T09:23:47.074Z</time>
      </trkpt>
      <trkpt lat="47.07832" lon="15.98498">
        <ele>336.652714</ele>
        <time>2022-09-27T09:23:49.011Z</time>
      </trkpt>
      <trkpt lat="47.07825" lon="15.98507">
        <ele>336.00416</ele>
        <time>2022-09-27T09:23:51.003Z</time>
      </trkpt>
      <trkpt lat="47.07816" lon="15.98518">
        <ele>335.092168</ele>
        <time>2022-09-27T09:23:53.994Z</time>
      </trkpt>
      <trkpt lat="47.07806" lon="15.98528">
        <ele>334.243897</ele>
        <time>2022-09-27T09:23:57.010Z</time>
      </trkpt>
      <trkpt lat="47.07796" lon="15.98536">
        <ele>333.466445</ele>
        <time>2022-09-27T09:23:59.994Z</time>
      </trkpt>
      <trkpt lat="47.07786" lon="15.98541">
        <ele>332.638401</ele>
        <time>2022-09-27T09:24:02.985Z</time>
      </trkpt>
      <trkpt lat="47.07775" lon="15.98546">
        <ele>331.852151</ele>
        <time>2022-09-27T09:24:06.000Z</time>
      </trkpt>
      <trkpt lat="47.07764" lon="15.98551">
        <ele>330.988108</ele>
        <time>2022-09-27T09:24:09.032Z</time>
      </trkpt>
      <trkpt lat="47.07754" lon="15.9856">
        <ele>330.161899</ele>
        <time>2022-09-27T09:24:12.011Z</time>
      </trkpt>
      <trkpt lat="47.07745" lon="15.98571">
        <ele>329.351002</ele>
        <time>2022-09-27T09:24:14.998Z</time>
      </trkpt>
      <trkpt lat="47.07739" lon="15.9858">
        <ele>328.68713</ele>
        <time>2022-09-27T09:24:17.007Z</time>
      </trkpt>
      <trkpt lat="47.07732" lon="15.98589">
        <ele>328.035327</ele>
        <time>2022-09-27T09:24:18.989Z</time>
      </trkpt>
      <trkpt lat="47.07724" lon="15.98601">
        <ele>327.210248</ele>
        <time>2022-09-27T09:24:21.991Z</time>
      </trkpt>
      <trkpt lat="47.07717" lon="15.98617">
        <ele>326.298081</ele>
        <time>2022-09-27T09:24:25.009Z</time>
      </trkpt>
      <trkpt lat="47.07712" lon="15.98629">
        <ele>326.028538</ele>
        <time>2022-09-27T09:24:27.009Z</time>
      </trkpt>
      <trkpt lat="47.07708" lon="15.98643">
        <ele>325.816683</ele>
        <time>2022-09-27T09:24:29.006Z</time>
      </trkpt>
      <trkpt lat="47.07704" lon="15.98657">
        <ele>325.609858</ele>
        <time>2022-09-27T09:24:31.040Z</time>
      </trkpt>
      <trkpt lat="47.07701" lon="15.9867">
        <ele>325.416082</ele>
        <time>2022-09-27T09:24:32.999Z</time>
      </trkpt>
      <trkpt lat="47.077" lon="15.98688">
        <ele>325.159704</ele>
        <time>2022-09-27T09:24:36.004Z</time>
      </trkpt>
      <trkpt lat="47.07698" lon="15.98705">
        <ele>324.924723</ele>
        <time>2022-09-27T09:24:38.999Z</time>
      </trkpt>
      <trkpt lat="47.07697" lon="15.98721">
        <ele>324.698879</ele>
        <time>2022-09-27T09:24:42.076Z</time>
      </trkpt>
      <trkpt lat="47.07695" lon="15.98738">
        <ele>324.457722</ele>
        <time>2022-09-27T09:24:44.999Z</time>
      </trkpt>
      <trkpt lat="47.07692" lon="15.98751">
        <ele>324.269096</ele>
        <time>2022-09-27T09:24:46.998Z</time>
      </trkpt>
      <trkpt lat="47.0769" lon="15.98764">
        <ele>324.072461</ele>
        <time>2022-09-27T09:24:49.000Z</time>
      </trkpt>
      <trkpt lat="47.07687" lon="15.98777">
        <ele>323.880628</ele>
        <time>2022-09-27T09:24:51.001Z</time>
      </trkpt>
      <trkpt lat="47.07684" lon="15.98791">
        <ele>323.685513</ele>
        <time>2022-09-27T09:24:53.043Z</time>
      </trkpt>
      <trkpt lat="47.07681" lon="15.98804">
        <ele>323.481838</ele>
        <time>2022-09-27T09:24:55.003Z</time>
      </trkpt>
      <trkpt lat="47.07678" lon="15.98817">
        <ele>323.295783</ele>
        <time>2022-09-27T09:24:57.075Z</time>
      </trkpt>
      <trkpt lat="47.07674" lon="15.9883">
        <ele>323.095187</ele>
        <time>2022-09-27T09:24:59.045Z</time>
      </trkpt>
      <trkpt lat="47.0767" lon="15.98843">
        <ele>322.895616</ele>
        <time>2022-09-27T09:25:00.990Z</time>
      </trkpt>
      <trkpt lat="47.07665" lon="15.98857">
        <ele>322.673755</ele>
        <time>2022-09-27T09:25:03.018Z</time>
      </trkpt>
      <trkpt lat="47.07659" lon="15.98869">
        <ele>322.554251</ele>
        <time>2022-09-27T09:25:05.038Z</time>
      </trkpt>
      <trkpt lat="47.07652" lon="15.98882">
        <ele>322.79862</ele>
        <time>2022-09-27T09:25:07.006Z</time>
      </trkpt>
      <trkpt lat="47.07646" lon="15.98893">
        <ele>323.036897</ele>
        <time>2022-09-27T09:25:09.025Z</time>
      </trkpt>
      <trkpt lat="47.0764" lon="15.98905">
        <ele>323.2696</ele>
        <time>2022-09-27T09:25:11.014Z</time>
      </trkpt>
      <trkpt lat="47.07634" lon="15.98916">
        <ele>323.489324</ele>
        <time>2022-09-27T09:25:12.991Z</time>
      </trkpt>
      <trkpt lat="47.07628" lon="15.98926">
        <ele>323.711684</ele>
        <time>2022-09-27T09:25:15.011Z</time>
      </trkpt>
      <trkpt lat="47.07622" lon="15.98937">
        <ele>323.934344</ele>
        <time>2022-09-27T09:25:17.037Z</time>
      </trkpt>
      <trkpt lat="47.07617" lon="15.98948">
        <ele>324.149574</ele>
        <time>2022-09-27T09:25:19.008Z</time>
      </trkpt>
      <trkpt lat="47.0761" lon="15.98963">
        <ele>324.429522</ele>
        <time>2022-09-27T09:25:22.008Z</time>
      </trkpt>
      <trkpt lat="47.07604" lon="15.98974">
        <ele>324.670738</ele>
        <time>2022-09-27T09:25:24.989Z</time>
      </trkpt>
      <trkpt lat="47.07596" lon="15.98987">
        <ele>324.930179</ele>
        <time>2022-09-27T09:25:28.995Z</time>
      </trkpt>
      <trkpt lat="47.07597" lon="15.99004">
        <ele>325.210545</ele>
        <time>2022-09-27T09:25:34.026Z</time>
      </trkpt>
      <trkpt lat="47.07604" lon="15.99018">
        <ele>325.482552</ele>
        <time>2022-09-27T09:25:37.005Z</time>
      </trkpt>
      <trkpt lat="47.07611" lon="15.99032">
        <ele>325.763151</ele>
        <time>2022-09-27T09:25:40.018Z</time>
      </trkpt>
      <trkpt lat="47.07619" lon="15.99045">
        <ele>326.048578</ele>
        <time>2022-09-27T09:25:42.998Z</time>
      </trkpt>
      <trkpt lat="47.07628" lon="15.99059">
        <ele>326.336007</ele>
        <time>2022-09-27T09:25:46.010Z</time>
      </trkpt>
      <trkpt lat="47.07636" lon="15.99072">
        <ele>326.636861</ele>
        <time>2022-09-27T09:25:49.013Z</time>
      </trkpt>
      <trkpt lat="47.07643" lon="15.99083">
        <ele>326.83446</ele>
        <time>2022-09-27T09:25:50.979Z</time>
      </trkpt>
      <trkpt lat="47.07649" lon="15.99093">
        <ele>327.00988</ele>
        <time>2022-09-27T09:25:53.010Z</time>
      </trkpt>
      <trkpt lat="47.07655" lon="15.99104">
        <ele>327.200495</ele>
        <time>2022-09-27T09:25:55.044Z</time>
      </trkpt>
      <trkpt lat="47.07662" lon="15.99116">
        <ele>327.393321</ele>
        <time>2022-09-27T09:25:56.999Z</time>
      </trkpt>
      <trkpt lat="47.07669" lon="15.99127">
        <ele>327.587692</ele>
        <time>2022-09-27T09:25:58.995Z</time>
      </trkpt>
      <trkpt lat="47.07676" lon="15.99138">
        <ele>327.772537</ele>
        <time>2022-09-27T09:26:01.003Z</time>
      </trkpt>
      <trkpt lat="47.07682" lon="15.99147">
        <ele>327.954847</ele>
        <time>2022-09-27T09:26:02.960Z</time>
      </trkpt>
      <trkpt lat="47.07689" lon="15.99157">
        <ele>328.135388</ele>
        <time>2022-09-27T09:26:05.007Z</time>
      </trkpt>
      <trkpt lat="47.07696" lon="15.99168">
        <ele>328.323576</ele>
        <time>2022-09-27T09:26:07.003Z</time>
      </trkpt>
      <trkpt lat="47.07703" lon="15.99178">
        <ele>328.512189</ele>
        <time>2022-09-27T09:26:09.020Z</time>
      </trkpt>
      <trkpt lat="47.0771" lon="15.99188">
        <ele>328.6888</ele>
        <time>2022-09-27T09:26:10.998Z</time>
      </trkpt>
      <trkpt lat="47.07716" lon="15.99198">
        <ele>328.863457</ele>
        <time>2022-09-27T09:26:13.036Z</time>
      </trkpt>
      <trkpt lat="47.07723" lon="15.99208">
        <ele>329.045842</ele>
        <time>2022-09-27T09:26:15.019Z</time>
      </trkpt>
      <trkpt lat="47.0773" lon="15.99219">
        <ele>329.235138</ele>
        <time>2022-09-27T09:26:17.021Z</time>
      </trkpt>
      <trkpt lat="47.07737" lon="15.99229">
        <ele>329.423491</ele>
        <time>2022-09-27T09:26:19.002Z</time>
      </trkpt>
      <trkpt lat="47.07743" lon="15.9924">
        <ele>329.611278</ele>
        <time>2022-09-27T09:26:21.083Z</time>
      </trkpt>
      <trkpt lat="47.07751" lon="15.99251">
        <ele>329.810696</ele>
        <time>2022-09-27T09:26:23.030Z</time>
      </trkpt>
      <trkpt lat="47.07758" lon="15.99262">
        <ele>330.002844</ele>
        <time>2022-09-27T09:26:25.002Z</time>
      </trkpt>
      <trkpt lat="47.07764" lon="15.99274">
        <ele>330.087967</ele>
        <time>2022-09-27T09:26:27.003Z</time>
      </trkpt>
      <trkpt lat="47.0777" lon="15.99285">
        <ele>330.014711</ele>
        <time>2022-09-27T09:26:28.998Z</time>
      </trkpt>
      <trkpt lat="47.07775" lon="15.99297">
        <ele>329.942292</ele>
        <time>2022-09-27T09:26:31.001Z</time>
      </trkpt>
      <trkpt lat="47.07779" lon="15.9931">
        <ele>329.868844</ele>
        <time>2022-09-27T09:26:32.985Z</time>
      </trkpt>
      <trkpt lat="47.07782" lon="15.99323">
        <ele>329.798193</ele>
        <time>2022-09-27T09:26:34.998Z</time>
      </trkpt>
      <trkpt lat="47.07782" lon="15.99336">
        <ele>329.729008</ele>
        <time>2022-09-27T09:26:37.085Z</time>
      </trkpt>
      <trkpt lat="47.0778" lon="15.99356">
        <ele>329.623637</ele>
        <time>2022-09-27T09:26:39.996Z</time>
      </trkpt>
      <trkpt lat="47.07777" lon="15.99371">
        <ele>329.54221</ele>
        <time>2022-09-27T09:26:42.158Z</time>
      </trkpt>
      <trkpt lat="47.07772" lon="15.99384">
        <ele>329.467399</ele>
        <time>2022-09-27T09:26:44.007Z</time>
      </trkpt>
      <trkpt lat="47.07767" lon="15.99396">
        <ele>329.394161</ele>
        <time>2022-09-27T09:26:46.047Z</time>
      </trkpt>
      <trkpt lat="47.07762" lon="15.99407">
        <ele>329.324308</ele>
        <time>2022-09-27T09:26:48.005Z</time>
      </trkpt>
      <trkpt lat="47.07757" lon="15.99418">
        <ele>329.255297</ele>
        <time>2022-09-27T09:26:50.001Z</time>
      </trkpt>
      <trkpt lat="47.07752" lon="15.9943">
        <ele>329.186686</ele>
        <time>2022-09-27T09:26:52.006Z</time>
      </trkpt>
      <trkpt lat="47.07748" lon="15.99441">
        <ele>329.116607</ele>
        <time>2022-09-27T09:26:54.058Z</time>
      </trkpt>
      <trkpt lat="47.07743" lon="15.99454">
        <ele>329.044041</ele>
        <time>2022-09-27T09:26:56.036Z</time>
      </trkpt>
      <trkpt lat="47.07738" lon="15.99472">
        <ele>328.943227</ele>
        <time>2022-09-27T09:26:58.991Z</time>
      </trkpt>
      <trkpt lat="47.07732" lon="15.99487">
        <ele>328.853846</ele>
        <time>2022-09-27T09:27:01.997Z</time>
      </trkpt>
      <trkpt lat="47.07731" lon="15.99501">
        <ele>328.77781</ele>
        <time>2022-09-27T09:27:04.984Z</time>
      </trkpt>
      <trkpt lat="47.07738" lon="15.99517">
        <ele>328.968367</ele>
        <time>2022-09-27T09:27:08.010Z</time>
      </trkpt>
      <trkpt lat="47.07742" lon="15.99528">
        <ele>329.184941</ele>
        <time>2022-09-27T09:27:10.053Z</time>
      </trkpt>
      <trkpt lat="47.07747" lon="15.99541">
        <ele>329.411907</ele>
        <time>2022-09-27T09:27:12.006Z</time>
      </trkpt>
      <trkpt lat="47.0775" lon="15.99553">
        <ele>329.62825</ele>
        <time>2022-09-27T09:27:14.013Z</time>
      </trkpt>
      <trkpt lat="47.07755" lon="15.99566">
        <ele>329.873191</ele>
        <time>2022-09-27T09:27:15.989Z</time>
      </trkpt>
      <trkpt lat="47.0776" lon="15.99579">
        <ele>330.113794</ele>
        <time>2022-09-27T09:27:18.003Z</time>
      </trkpt>
      <trkpt lat="47.07764" lon="15.99593">
        <ele>330.356883</ele>
        <time>2022-09-27T09:27:19.990Z</time>
      </trkpt>
      <trkpt lat="47.07768" lon="15.99606">
        <ele>330.595128</ele>
        <time>2022-09-27T09:27:22.008Z</time>
      </trkpt>
      <trkpt lat="47.07773" lon="15.99619">
        <ele>330.841348</ele>
        <time>2022-09-27T09:27:23.988Z</time>
      </trkpt>
      <trkpt lat="47.07778" lon="15.99633">
        <ele>331.082857</ele>
        <time>2022-09-27T09:27:25.993Z</time>
      </trkpt>
      <trkpt lat="47.07783" lon="15.99644">
        <ele>331.312042</ele>
        <time>2022-09-27T09:27:28.009Z</time>
      </trkpt>
      <trkpt lat="47.07789" lon="15.99655">
        <ele>331.54154</ele>
        <time>2022-09-27T09:27:30.002Z</time>
      </trkpt>
      <trkpt lat="47.07794" lon="15.99667">
        <ele>331.765457</ele>
        <time>2022-09-27T09:27:32.011Z</time>
      </trkpt>
      <trkpt lat="47.07799" lon="15.99679">
        <ele>331.993859</ele>
        <time>2022-09-27T09:27:34.025Z</time>
      </trkpt>
      <trkpt lat="47.07803" lon="15.99691">
        <ele>332.216647</ele>
        <time>2022-09-27T09:27:36.006Z</time>
      </trkpt>
      <trkpt lat="47.07811" lon="15.99708">
        <ele>332.544448</ele>
        <time>2022-09-27T09:27:38.985Z</time>
      </trkpt>
      <trkpt lat="47.07817" lon="15.9972">
        <ele>332.789011</ele>
        <time>2022-09-27T09:27:41.037Z</time>
      </trkpt>
      <trkpt lat="47.07823" lon="15.99732">
        <ele>333.034693</ele>
        <time>2022-09-27T09:27:43.008Z</time>
      </trkpt>
      <trkpt lat="47.07829" lon="15.99743">
        <ele>333.10994</ele>
        <time>2022-09-27T09:27:44.997Z</time>
      </trkpt>
      <trkpt lat="47.07835" lon="15.99755">
        <ele>333.164998</ele>
        <time>2022-09-27T09:27:46.995Z</time>
      </trkpt>
      <trkpt lat="47.07841" lon="15.99767">
        <ele>333.218525</ele>
        <time>2022-09-27T09:27:49.015Z</time>
      </trkpt>
      <trkpt lat="47.07847" lon="15.99779">
        <ele>333.275481</ele>
        <time>2022-09-27T09:27:50.996Z</time>
      </trkpt>
      <trkpt lat="47.07853" lon="15.99791">
        <ele>333.33184</ele>
        <time>2022-09-27T09:27:52.996Z</time>
      </trkpt>
      <trkpt lat="47.07858" lon="15.99802">
        <ele>333.383812</ele>
        <time>2022-09-27T09:27:55.045Z</time>
      </trkpt>
      <trkpt lat="47.07865" lon="15.99812">
        <ele>333.438665</ele>
        <time>2022-09-27T09:27:57.021Z</time>
      </trkpt>
      <trkpt lat="47.07873" lon="15.99822">
        <ele>333.49545</ele>
        <time>2022-09-27T09:27:58.985Z</time>
      </trkpt>
      <trkpt lat="47.07881" lon="15.9983">
        <ele>333.550267</ele>
        <time>2022-09-27T09:28:01.065Z</time>
      </trkpt>
      <trkpt lat="47.0789" lon="15.99837">
        <ele>333.606566</ele>
        <time>2022-09-27T09:28:03.009Z</time>
      </trkpt>
      <trkpt lat="47.07898" lon="15.99844">
        <ele>333.661126</ele>
        <time>2022-09-27T09:28:05.002Z</time>
      </trkpt>
      <trkpt lat="47.07907" lon="15.99849">
        <ele>333.712181</ele>
        <time>2022-09-27T09:28:06.992Z</time>
      </trkpt>
      <trkpt lat="47.07915" lon="15.99856">
        <ele>333.766736</ele>
        <time>2022-09-27T09:28:08.991Z</time>
      </trkpt>
      <trkpt lat="47.07927" lon="15.99863">
        <ele>333.840446</ele>
        <time>2022-09-27T09:28:12.031Z</time>
      </trkpt>
      <trkpt lat="47.07936" lon="15.99869">
        <ele>333.892491</ele>
        <time>2022-09-27T09:28:14.007Z</time>
      </trkpt>
      <trkpt lat="47.07944" lon="15.99876">
        <ele>333.947339</ele>
        <time>2022-09-27T09:28:16.002Z</time>
      </trkpt>
      <trkpt lat="47.07953" lon="15.99884">
        <ele>334.00377</ele>
        <time>2022-09-27T09:28:18.004Z</time>
      </trkpt>
      <trkpt lat="47.07961" lon="15.99893">
        <ele>334.06189</ele>
        <time>2022-09-27T09:28:20.032Z</time>
      </trkpt>
      <trkpt lat="47.07968" lon="15.99903">
        <ele>334.130397</ele>
        <time>2022-09-27T09:28:21.996Z</time>
      </trkpt>
      <trkpt lat="47.07975" lon="15.99914">
        <ele>334.199314</ele>
        <time>2022-09-27T09:28:24.023Z</time>
      </trkpt>
      <trkpt lat="47.07982" lon="15.99923">
        <ele>334.262548</ele>
        <time>2022-09-27T09:28:25.999Z</time>
      </trkpt>
      <trkpt lat="47.07989" lon="15.99932">
        <ele>334.329311</ele>
        <time>2022-09-27T09:28:28.010Z</time>
      </trkpt>
      <trkpt lat="47.07999" lon="15.99945">
        <ele>334.421495</ele>
        <time>2022-09-27T09:28:31.002Z</time>
      </trkpt>
      <trkpt lat="47.08009" lon="15.99958">
        <ele>334.513998</ele>
        <time>2022-09-27T09:28:33.995Z</time>
      </trkpt>
      <trkpt lat="47.08019" lon="15.9997">
        <ele>334.605543</ele>
        <time>2022-09-27T09:28:37.005Z</time>
      </trkpt>
      <trkpt lat="47.08028" lon="15.99981">
        <ele>334.690168</ele>
        <time>2022-09-27T09:28:40.046Z</time>
      </trkpt>
      <trkpt lat="47.08038" lon="15.99993">
        <ele>334.780082</ele>
        <time>2022-09-27T09:28:43.069Z</time>
      </trkpt>
      <trkpt lat="47.08047" lon="16.00005">
        <ele>334.867638</ele>
        <time>2022-09-27T09:28:45.997Z</time>
      </trkpt>
      <trkpt lat="47.08057" lon="16.00017">
        <ele>334.953334</ele>
        <time>2022-09-27T09:28:48.989Z</time>
      </trkpt>
      <trkpt lat="47.08067" lon="16.00029">
        <ele>335.046389</ele>
        <time>2022-09-27T09:28:52.004Z</time>
      </trkpt>
      <trkpt lat="47.08077" lon="16.00042">
        <ele>335.138891</ele>
        <time>2022-09-27T09:28:55.014Z</time>
      </trkpt>
      <trkpt lat="47.08086" lon="16.00056">
        <ele>335.228663</ele>
        <time>2022-09-27T09:28:58.010Z</time>
      </trkpt>
      <trkpt lat="47.08095" lon="16.00068">
        <ele>335.314419</ele>
        <time>2022-09-27T09:29:00.993Z</time>
      </trkpt>
      <trkpt lat="47.08103" lon="16.0008">
        <ele>334.935469</ele>
        <time>2022-09-27T09:29:04.003Z</time>
      </trkpt>
      <trkpt lat="47.08111" lon="16.00091">
        <ele>334.483816</ele>
        <time>2022-09-27T09:29:07.043Z</time>
      </trkpt>
      <trkpt lat="47.08119" lon="16.00102">
        <ele>334.064896</ele>
        <time>2022-09-27T09:29:09.996Z</time>
      </trkpt>
      <trkpt lat="47.08126" lon="16.00115">
        <ele>333.641885</ele>
        <time>2022-09-27T09:29:13.041Z</time>
      </trkpt>
      <trkpt lat="47.08132" lon="16.00127">
        <ele>333.21832</ele>
        <time>2022-09-27T09:29:16.000Z</time>
      </trkpt>
      <trkpt lat="47.0814" lon="16.00144">
        <ele>332.67544</ele>
        <time>2022-09-27T09:29:18.998Z</time>
      </trkpt>
      <trkpt lat="47.08146" lon="16.00156">
        <ele>332.287373</ele>
        <time>2022-09-27T09:29:20.995Z</time>
      </trkpt>
      <trkpt lat="47.08152" lon="16.00167">
        <ele>331.909681</ele>
        <time>2022-09-27T09:29:23.047Z</time>
      </trkpt>
      <trkpt lat="47.08157" lon="16.00178">
        <ele>331.543646</ele>
        <time>2022-09-27T09:29:25.071Z</time>
      </trkpt>
      <trkpt lat="47.08163" lon="16.00189">
        <ele>331.190729</ele>
        <time>2022-09-27T09:29:27.019Z</time>
      </trkpt>
      <trkpt lat="47.0817" lon="16.00203">
        <ele>330.70558</ele>
        <time>2022-09-27T09:29:30.044Z</time>
      </trkpt>
      <trkpt lat="47.08176" lon="16.00219">
        <ele>330.220044</ele>
        <time>2022-09-27T09:29:33.007Z</time>
      </trkpt>
      <trkpt lat="47.08179" lon="16.00236">
        <ele>329.746463</ele>
        <time>2022-09-27T09:29:35.992Z</time>
      </trkpt>
      <trkpt lat="47.08177" lon="16.0025">
        <ele>329.36583</ele>
        <time>2022-09-27T09:29:37.986Z</time>
      </trkpt>
      <trkpt lat="47.08172" lon="16.00261">
        <ele>328.993059</ele>
        <time>2022-09-27T09:29:39.997Z</time>
      </trkpt>
      <trkpt lat="47.08163" lon="16.00276">
        <ele>328.474111</ele>
        <time>2022-09-27T09:29:43.027Z</time>
      </trkpt>
      <trkpt lat="47.08155" lon="16.00291">
        <ele>328.01771</ele>
        <time>2022-09-27T09:29:45.996Z</time>
      </trkpt>
      <trkpt lat="47.08147" lon="16.00305">
        <ele>327.599644</ele>
        <time>2022-09-27T09:29:49.008Z</time>
      </trkpt>
      <trkpt lat="47.08138" lon="16.00318">
        <ele>327.172898</ele>
        <time>2022-09-27T09:29:52.003Z</time>
      </trkpt>
      <trkpt lat="47.0813" lon="16.00332">
        <ele>326.760907</ele>
        <time>2022-09-27T09:29:55.006Z</time>
      </trkpt>
      <trkpt lat="47.08122" lon="16.00346">
        <ele>326.327893</ele>
        <time>2022-09-27T09:29:58.046Z</time>
      </trkpt>
      <trkpt lat="47.08114" lon="16.0036">
        <ele>325.90197</ele>
        <time>2022-09-27T09:30:01.023Z</time>
      </trkpt>
      <trkpt lat="47.08106" lon="16.00375">
        <ele>325.456795</ele>
        <time>2022-09-27T09:30:04.001Z</time>
      </trkpt>
      <trkpt lat="47.08097" lon="16.0039">
        <ele>325.004897</ele>
        <time>2022-09-27T09:30:07.014Z</time>
      </trkpt>
      <trkpt lat="47.08092" lon="16.00401">
        <ele>324.696644</ele>
        <time>2022-09-27T09:30:09.037Z</time>
      </trkpt>
      <trkpt lat="47.08084" lon="16.00416">
        <ele>324.263628</ele>
        <time>2022-09-27T09:30:11.998Z</time>
      </trkpt>
      <trkpt lat="47.08075" lon="16.0043">
        <ele>323.828827</ele>
        <time>2022-09-27T09:30:15.017Z</time>
      </trkpt>
      <trkpt lat="47.08067" lon="16.00445">
        <ele>323.383212</ele>
        <time>2022-09-27T09:30:18.007Z</time>
      </trkpt>
      <trkpt lat="47.08058" lon="16.0046">
        <ele>322.934883</ele>
        <time>2022-09-27T09:30:21.033Z</time>
      </trkpt>
      <trkpt lat="47.0805" lon="16.00476">
        <ele>322.482983</ele>
        <time>2022-09-27T09:30:23.996Z</time>
      </trkpt>
      <trkpt lat="47.08044" lon="16.00486">
        <ele>322.187864</ele>
        <time>2022-09-27T09:30:25.998Z</time>
      </trkpt>
      <trkpt lat="47.08038" lon="16.00496">
        <ele>322.019294</ele>
        <time>2022-09-27T09:30:28.016Z</time>
      </trkpt>
      <trkpt lat="47.08032" lon="16.00506">
        <ele>321.848962</ele>
        <time>2022-09-27T09:30:30.007Z</time>
      </trkpt>
      <trkpt lat="47.08026" lon="16.00516">
        <ele>321.680787</ele>
        <time>2022-09-27T09:30:32.012Z</time>
      </trkpt>
      <trkpt lat="47.08021" lon="16.00527">
        <ele>321.50927</ele>
        <time>2022-09-27T09:30:34.009Z</time>
      </trkpt>
      <trkpt lat="47.08012" lon="16.00542">
        <ele>321.257178</ele>
        <time>2022-09-27T09:30:37.039Z</time>
      </trkpt>
      <trkpt lat="47.08006" lon="16.00551">
        <ele>321.088942</ele>
        <time>2022-09-27T09:30:39.013Z</time>
      </trkpt>
      <trkpt lat="47.08" lon="16.00562">
        <ele>320.914487</ele>
        <time>2022-09-27T09:30:41.012Z</time>
      </trkpt>
      <trkpt lat="47.07994" lon="16.00573">
        <ele>320.743345</ele>
        <time>2022-09-27T09:30:43.040Z</time>
      </trkpt>
      <trkpt lat="47.07988" lon="16.00584">
        <ele>320.565749</ele>
        <time>2022-09-27T09:30:45.012Z</time>
      </trkpt>
      <trkpt lat="47.07982" lon="16.00595">
        <ele>320.389468</ele>
        <time>2022-09-27T09:30:47.014Z</time>
      </trkpt>
      <trkpt lat="47.07976" lon="16.00605">
        <ele>320.213093</ele>
        <time>2022-09-27T09:30:49.010Z</time>
      </trkpt>
      <trkpt lat="47.0797" lon="16.00616">
        <ele>320.037241</ele>
        <time>2022-09-27T09:30:51.003Z</time>
      </trkpt>
      <trkpt lat="47.07964" lon="16.00627">
        <ele>319.859956</ele>
        <time>2022-09-27T09:30:53.045Z</time>
      </trkpt>
      <trkpt lat="47.07957" lon="16.00638">
        <ele>319.669606</ele>
        <time>2022-09-27T09:30:55.003Z</time>
      </trkpt>
      <trkpt lat="47.07951" lon="16.00649">
        <ele>319.48748</ele>
        <time>2022-09-27T09:30:57.003Z</time>
      </trkpt>
      <trkpt lat="47.07945" lon="16.0066">
        <ele>319.30752</ele>
        <time>2022-09-27T09:30:59.005Z</time>
      </trkpt>
      <trkpt lat="47.07939" lon="16.00671">
        <ele>319.130907</ele>
        <time>2022-09-27T09:31:01.005Z</time>
      </trkpt>
      <trkpt lat="47.07933" lon="16.00682">
        <ele>318.958767</ele>
        <time>2022-09-27T09:31:02.984Z</time>
      </trkpt>
      <trkpt lat="47.07925" lon="16.00697">
        <ele>318.831205</ele>
        <time>2022-09-27T09:31:06.000Z</time>
      </trkpt>
      <trkpt lat="47.07919" lon="16.00706">
        <ele>318.799911</ele>
        <time>2022-09-27T09:31:08.009Z</time>
      </trkpt>
      <trkpt lat="47.07913" lon="16.00716">
        <ele>318.767743</ele>
        <time>2022-09-27T09:31:10.020Z</time>
      </trkpt>
      <trkpt lat="47.07904" lon="16.00732">
        <ele>318.721398</ele>
        <time>2022-09-27T09:31:13.016Z</time>
      </trkpt>
      <trkpt lat="47.07898" lon="16.00742">
        <ele>318.689423</ele>
        <time>2022-09-27T09:31:15.000Z</time>
      </trkpt>
      <trkpt lat="47.07892" lon="16.00753">
        <ele>318.656592</ele>
        <time>2022-09-27T09:31:16.987Z</time>
      </trkpt>
      <trkpt lat="47.07886" lon="16.00763">
        <ele>318.624027</ele>
        <time>2022-09-27T09:31:19.006Z</time>
      </trkpt>
      <trkpt lat="47.07881" lon="16.00774">
        <ele>318.592272</ele>
        <time>2022-09-27T09:31:21.006Z</time>
      </trkpt>
      <trkpt lat="47.07872" lon="16.00788">
        <ele>318.547578</ele>
        <time>2022-09-27T09:31:24.016Z</time>
      </trkpt>
      <trkpt lat="47.07864" lon="16.00802">
        <ele>318.503333</ele>
        <time>2022-09-27T09:31:27.031Z</time>
      </trkpt>
      <trkpt lat="47.07856" lon="16.00816">
        <ele>318.458591</ele>
        <time>2022-09-27T09:31:30.007Z</time>
      </trkpt>
      <trkpt lat="47.0785" lon="16.00827">
        <ele>318.426866</ele>
        <time>2022-09-27T09:31:31.999Z</time>
      </trkpt>
      <trkpt lat="47.07843" lon="16.00841">
        <ele>318.384278</ele>
        <time>2022-09-27T09:31:34.987Z</time>
      </trkpt>
      <trkpt lat="47.07834" lon="16.00855">
        <ele>318.339764</ele>
        <time>2022-09-27T09:31:37.987Z</time>
      </trkpt>
      <trkpt lat="47.07826" lon="16.0087">
        <ele>318.294563</ele>
        <time>2022-09-27T09:31:40.985Z</time>
      </trkpt>
      <trkpt lat="47.07818" lon="16.00884">
        <ele>318.250609</ele>
        <time>2022-09-27T09:31:43.996Z</time>
      </trkpt>
      <trkpt lat="47.0781" lon="16.00899">
        <ele>318.262842</ele>
        <time>2022-09-27T09:31:46.995Z</time>
      </trkpt>
      <trkpt lat="47.07802" lon="16.00914">
        <ele>318.320513</ele>
        <time>2022-09-27T09:31:50.012Z</time>
      </trkpt>
      <trkpt lat="47.07796" lon="16.00924">
        <ele>318.360441</ele>
        <time>2022-09-27T09:31:52.016Z</time>
      </trkpt>
      <trkpt lat="47.07787" lon="16.00939">
        <ele>318.41947</ele>
        <time>2022-09-27T09:31:55.011Z</time>
      </trkpt>
      <trkpt lat="47.07781" lon="16.00949">
        <ele>318.459467</ele>
        <time>2022-09-27T09:31:57.008Z</time>
      </trkpt>
      <trkpt lat="47.07773" lon="16.00964">
        <ele>318.518239</ele>
        <time>2022-09-27T09:32:00.036Z</time>
      </trkpt>
      <trkpt lat="47.07765" lon="16.00979">
        <ele>318.573733</ele>
        <time>2022-09-27T09:32:03.024Z</time>
      </trkpt>
      <trkpt lat="47.07756" lon="16.00994">
        <ele>318.632611</ele>
        <time>2022-09-27T09:32:06.011Z</time>
      </trkpt>
      <trkpt lat="47.0775" lon="16.01004">
        <ele>318.673115</ele>
        <time>2022-09-27T09:32:08.019Z</time>
      </trkpt>
      <trkpt lat="47.07742" lon="16.01019">
        <ele>318.730555</ele>
        <time>2022-09-27T09:32:11.039Z</time>
      </trkpt>
      <trkpt lat="47.07733" lon="16.01033">
        <ele>318.788297</ele>
        <time>2022-09-27T09:32:13.997Z</time>
      </trkpt>
      <trkpt lat="47.07727" lon="16.01044">
        <ele>318.828741</ele>
        <time>2022-09-27T09:32:15.999Z</time>
      </trkpt>
      <trkpt lat="47.07722" lon="16.01054">
        <ele>318.86944</ele>
        <time>2022-09-27T09:32:17.996Z</time>
      </trkpt>
      <trkpt lat="47.07715" lon="16.01065">
        <ele>318.910789</ele>
        <time>2022-09-27T09:32:20.002Z</time>
      </trkpt>
      <trkpt lat="47.07706" lon="16.01078">
        <ele>318.967834</ele>
        <time>2022-09-27T09:32:23.001Z</time>
      </trkpt>
      <trkpt lat="47.07698" lon="16.01085">
        <ele>319.010816</ele>
        <time>2022-09-27T09:32:24.996Z</time>
      </trkpt>
      <trkpt lat="47.0769" lon="16.01093">
        <ele>318.956433</ele>
        <time>2022-09-27T09:32:26.994Z</time>
      </trkpt>
      <trkpt lat="47.07682" lon="16.01101">
        <ele>318.866319</ele>
        <time>2022-09-27T09:32:28.995Z</time>
      </trkpt>
      <trkpt lat="47.07675" lon="16.01109">
        <ele>318.780782</ele>
        <time>2022-09-27T09:32:31.001Z</time>
      </trkpt>
      <trkpt lat="47.07667" lon="16.01117">
        <ele>318.694091</ele>
        <time>2022-09-27T09:32:33.052Z</time>
      </trkpt>
      <trkpt lat="47.0766" lon="16.01126">
        <ele>318.607275</ele>
        <time>2022-09-27T09:32:35.007Z</time>
      </trkpt>
      <trkpt lat="47.07653" lon="16.01134">
        <ele>318.521327</ele>
        <time>2022-09-27T09:32:37.002Z</time>
      </trkpt>
      <trkpt lat="47.07646" lon="16.01142">
        <ele>318.433509</ele>
        <time>2022-09-27T09:32:38.989Z</time>
      </trkpt>
      <trkpt lat="47.07638" lon="16.0115">
        <ele>318.346448</ele>
        <time>2022-09-27T09:32:41.004Z</time>
      </trkpt>
      <trkpt lat="47.0763" lon="16.01158">
        <ele>318.255563</ele>
        <time>2022-09-27T09:32:43.009Z</time>
      </trkpt>
      <trkpt lat="47.07623" lon="16.01166">
        <ele>318.167358</ele>
        <time>2022-09-27T09:32:45.008Z</time>
      </trkpt>
      <trkpt lat="47.07615" lon="16.01175">
        <ele>318.078384</ele>
        <time>2022-09-27T09:32:47.004Z</time>
      </trkpt>
      <trkpt lat="47.07608" lon="16.01183">
        <ele>317.993218</ele>
        <time>2022-09-27T09:32:49.035Z</time>
      </trkpt>
      <trkpt lat="47.076" lon="16.01191">
        <ele>317.905399</ele>
        <time>2022-09-27T09:32:50.996Z</time>
      </trkpt>
      <trkpt lat="47.07593" lon="16.01199">
        <ele>317.816778</ele>
        <time>2022-09-27T09:32:52.990Z</time>
      </trkpt>
      <trkpt lat="47.07586" lon="16.01207">
        <ele>317.73124</ele>
        <time>2022-09-27T09:32:55.029Z</time>
      </trkpt>
      <trkpt lat="47.07575" lon="16.01219">
        <ele>317.604261</ele>
        <time>2022-09-27T09:32:58.004Z</time>
      </trkpt>
      <trkpt lat="47.07568" lon="16.01227">
        <ele>317.516382</ele>
        <time>2022-09-27T09:33:00.007Z</time>
      </trkpt>
      <trkpt lat="47.07561" lon="16.01236">
        <ele>317.431177</ele>
        <time>2022-09-27T09:33:01.985Z</time>
      </trkpt>
      <trkpt lat="47.07554" lon="16.01244">
        <ele>317.346221</ele>
        <time>2022-09-27T09:33:04.003Z</time>
      </trkpt>
      <trkpt lat="47.07543" lon="16.01257">
        <ele>317.409217</ele>
        <time>2022-09-27T09:33:07.007Z</time>
      </trkpt>
      <trkpt lat="47.07536" lon="16.01265">
        <ele>317.477141</ele>
        <time>2022-09-27T09:33:09.008Z</time>
      </trkpt>
      <trkpt lat="47.07526" lon="16.01277">
        <ele>317.576014</ele>
        <time>2022-09-27T09:33:12.006Z</time>
      </trkpt>
      <trkpt lat="47.07516" lon="16.01289">
        <ele>317.671851</ele>
        <time>2022-09-27T09:33:15.000Z</time>
      </trkpt>
      <trkpt lat="47.07507" lon="16.01302">
        <ele>317.766683</ele>
        <time>2022-09-27T09:33:18.009Z</time>
      </trkpt>
      <trkpt lat="47.07497" lon="16.01314">
        <ele>317.862757</ele>
        <time>2022-09-27T09:33:21.000Z</time>
      </trkpt>
      <trkpt lat="47.07487" lon="16.01327">
        <ele>317.96037</ele>
        <time>2022-09-27T09:33:23.995Z</time>
      </trkpt>
      <trkpt lat="47.07481" lon="16.01337">
        <ele>318.029744</ele>
        <time>2022-09-27T09:33:26.003Z</time>
      </trkpt>
      <trkpt lat="47.07475" lon="16.01348">
        <ele>318.100248</ele>
        <time>2022-09-27T09:33:28.032Z</time>
      </trkpt>
      <trkpt lat="47.07469" lon="16.01358">
        <ele>318.168502</ele>
        <time>2022-09-27T09:33:29.997Z</time>
      </trkpt>
      <trkpt lat="47.07463" lon="16.01368">
        <ele>318.237526</ele>
        <time>2022-09-27T09:33:31.995Z</time>
      </trkpt>
      <trkpt lat="47.07457" lon="16.01378">
        <ele>318.30685</ele>
        <time>2022-09-27T09:33:33.988Z</time>
      </trkpt>
      <trkpt lat="47.07448" lon="16.01393">
        <ele>318.40601</ele>
        <time>2022-09-27T09:33:37.009Z</time>
      </trkpt>
      <trkpt lat="47.0744" lon="16.01406">
        <ele>318.494359</ele>
        <time>2022-09-27T09:33:39.997Z</time>
      </trkpt>
      <trkpt lat="47.07433" lon="16.01418">
        <ele>318.57504</ele>
        <time>2022-09-27T09:33:43.009Z</time>
      </trkpt>
      <trkpt lat="47.07426" lon="16.01431">
        <ele>318.658717</ele>
        <time>2022-09-27T09:33:46.045Z</time>
      </trkpt>
      <trkpt lat="47.07418" lon="16.01444">
        <ele>318.753256</ele>
        <time>2022-09-27T09:33:48.997Z</time>
      </trkpt>
      <trkpt lat="47.07412" lon="16.01454">
        <ele>318.825488</ele>
        <time>2022-09-27T09:33:51.004Z</time>
      </trkpt>
      <trkpt lat="47.07404" lon="16.01469">
        <ele>318.928712</ele>
        <time>2022-09-27T09:33:54.002Z</time>
      </trkpt>
      <trkpt lat="47.07398" lon="16.0148">
        <ele>319.003876</ele>
        <time>2022-09-27T09:33:55.994Z</time>
      </trkpt>
      <trkpt lat="47.07391" lon="16.0149">
        <ele>319.078088</ele>
        <time>2022-09-27T09:33:58.001Z</time>
      </trkpt>
      <trkpt lat="47.07384" lon="16.01504">
        <ele>319.176998</ele>
        <time>2022-09-27T09:34:01.034Z</time>
      </trkpt>
      <trkpt lat="47.07376" lon="16.01518">
        <ele>319.268815</ele>
        <time>2022-09-27T09:34:04.011Z</time>
      </trkpt>
      <trkpt lat="47.07369" lon="16.01532">
        <ele>319.366534</ele>
        <time>2022-09-27T09:34:07.029Z</time>
      </trkpt>
      <trkpt lat="47.0736" lon="16.01546">
        <ele>319.470489</ele>
        <time>2022-09-27T09:34:09.999Z</time>
      </trkpt>
      <trkpt lat="47.07351" lon="16.01561">
        <ele>319.575046</ele>
        <time>2022-09-27T09:34:13.006Z</time>
      </trkpt>
      <trkpt lat="47.07344" lon="16.01574">
        <ele>319.66785</ele>
        <time>2022-09-27T09:34:16.004Z</time>
      </trkpt>
      <trkpt lat="47.07336" lon="16.01589">
        <ele>319.768519</ele>
        <time>2022-09-27T09:34:18.982Z</time>
      </trkpt>
      <trkpt lat="47.07328" lon="16.01604">
        <ele>319.867757</ele>
        <time>2022-09-27T09:34:21.987Z</time>
      </trkpt>
      <trkpt lat="47.07321" lon="16.0162">
        <ele>319.972694</ele>
        <time>2022-09-27T09:34:24.999Z</time>
      </trkpt>
      <trkpt lat="47.07314" lon="16.01635">
        <ele>320.071992</ele>
        <time>2022-09-27T09:34:26.997Z</time>
      </trkpt>
      <trkpt lat="47.07309" lon="16.01649">
        <ele>320.350417</ele>
        <time>2022-09-27T09:34:29.034Z</time>
      </trkpt>
      <trkpt lat="47.07304" lon="16.01663">
        <ele>320.684592</ele>
        <time>2022-09-27T09:34:30.989Z</time>
      </trkpt>
      <trkpt lat="47.07298" lon="16.0168">
        <ele>321.097433</ele>
        <time>2022-09-27T09:34:33.013Z</time>
      </trkpt>
      <trkpt lat="47.07293" lon="16.01699">
        <ele>321.512531</ele>
        <time>2022-09-27T09:34:34.998Z</time>
      </trkpt>
      <trkpt lat="47.07288" lon="16.01715">
        <ele>321.901574</ele>
        <time>2022-09-27T09:34:37.011Z</time>
      </trkpt>
      <trkpt lat="47.07281" lon="16.01731">
        <ele>322.300931</ele>
        <time>2022-09-27T09:34:39.030Z</time>
      </trkpt>
      <trkpt lat="47.07278" lon="16.01745">
        <ele>322.627149</ele>
        <time>2022-09-27T09:34:41.015Z</time>
      </trkpt>
      <trkpt lat="47.07274" lon="16.01758">
        <ele>322.91206</ele>
        <time>2022-09-27T09:34:43.000Z</time>
      </trkpt>
      <trkpt lat="47.07269" lon="16.0177">
        <ele>323.220139</ele>
        <time>2022-09-27T09:34:44.996Z</time>
      </trkpt>
      <trkpt lat="47.07265" lon="16.01782">
        <ele>323.50385</ele>
        <time>2022-09-27T09:34:47.016Z</time>
      </trkpt>
      <trkpt lat="47.07259" lon="16.01796">
        <ele>323.856256</ele>
        <time>2022-09-27T09:34:50.002Z</time>
      </trkpt>
      <trkpt lat="47.07253" lon="16.01812">
        <ele>324.242566</ele>
        <time>2022-09-27T09:34:53.013Z</time>
      </trkpt>
      <trkpt lat="47.07249" lon="16.01825">
        <ele>324.538286</ele>
        <time>2022-09-27T09:34:55.009Z</time>
      </trkpt>
      <trkpt lat="47.07245" lon="16.01839">
        <ele>324.857433</ele>
        <time>2022-09-27T09:34:57.056Z</time>
      </trkpt>
      <trkpt lat="47.07241" lon="16.01858">
        <ele>325.28697</ele>
        <time>2022-09-27T09:34:59.000Z</time>
      </trkpt>
      <trkpt lat="47.07236" lon="16.01874">
        <ele>325.664375</ele>
        <time>2022-09-27T09:35:01.016Z</time>
      </trkpt>
      <trkpt lat="47.07231" lon="16.01885">
        <ele>325.569644</ele>
        <time>2022-09-27T09:35:03.011Z</time>
      </trkpt>
      <trkpt lat="47.07226" lon="16.01898">
        <ele>325.400563</ele>
        <time>2022-09-27T09:35:04.998Z</time>
      </trkpt>
      <trkpt lat="47.07221" lon="16.01912">
        <ele>325.206165</ele>
        <time>2022-09-27T09:35:06.995Z</time>
      </trkpt>
      <trkpt lat="47.07215" lon="16.01929">
        <ele>324.991857</ele>
        <time>2022-09-27T09:35:08.979Z</time>
      </trkpt>
      <trkpt lat="47.0721" lon="16.01945">
        <ele>324.780698</ele>
        <time>2022-09-27T09:35:11.030Z</time>
      </trkpt>
      <trkpt lat="47.07205" lon="16.01959">
        <ele>324.596948</ele>
        <time>2022-09-27T09:35:13.039Z</time>
      </trkpt>
      <trkpt lat="47.07199" lon="16.01974">
        <ele>324.394733</ele>
        <time>2022-09-27T09:35:16.004Z</time>
      </trkpt>
      <trkpt lat="47.07194" lon="16.01985">
        <ele>324.230976</ele>
        <time>2022-09-27T09:35:19.018Z</time>
      </trkpt>
      <trkpt lat="47.07185" lon="16.01991">
        <ele>324.067694</ele>
        <time>2022-09-27T09:35:22.017Z</time>
      </trkpt>
      <trkpt lat="47.07175" lon="16.01992">
        <ele>323.889843</ele>
        <time>2022-09-27T09:35:24.998Z</time>
      </trkpt>
      <trkpt lat="47.07163" lon="16.01993">
        <ele>323.681298</ele>
        <time>2022-09-27T09:35:28.100Z</time>
      </trkpt>
      <trkpt lat="47.0715" lon="16.01994">
        <ele>323.460523</ele>
        <time>2022-09-27T09:35:31.012Z</time>
      </trkpt>
      <trkpt lat="47.07138" lon="16.01996">
        <ele>323.25264</ele>
        <time>2022-09-27T09:35:34.006Z</time>
      </trkpt>
      <trkpt lat="47.07128" lon="16.01997">
        <ele>323.076069</ele>
        <time>2022-09-27T09:35:36.008Z</time>
      </trkpt>
      <trkpt lat="47.07114" lon="16.01998">
        <ele>322.840064</ele>
        <time>2022-09-27T09:35:38.031Z</time>
      </trkpt>
      <trkpt lat="47.071" lon="16.02">
        <ele>322.607178</ele>
        <time>2022-09-27T09:35:39.997Z</time>
      </trkpt>
      <trkpt lat="47.07088" lon="16.02">
        <ele>322.354659</ele>
        <time>2022-09-27T09:35:42.008Z</time>
      </trkpt>
      <trkpt lat="47.07072" lon="16.02002">
        <ele>322.04973</ele>
        <time>2022-09-27T09:35:43.995Z</time>
      </trkpt>
      <trkpt lat="47.0706" lon="16.02004">
        <ele>321.804737</ele>
        <time>2022-09-27T09:35:46.000Z</time>
      </trkpt>
      <trkpt lat="47.07049" lon="16.02012">
        <ele>321.553924</ele>
        <time>2022-09-27T09:35:48.014Z</time>
      </trkpt>
      <trkpt lat="47.07042" lon="16.02022">
        <ele>321.366206</ele>
        <time>2022-09-27T09:35:49.995Z</time>
      </trkpt>
      <trkpt lat="47.07034" lon="16.02033">
        <ele>321.143706</ele>
        <time>2022-09-27T09:35:52.018Z</time>
      </trkpt>
      <trkpt lat="47.07028" lon="16.02045">
        <ele>320.944537</ele>
        <time>2022-09-27T09:35:54.009Z</time>
      </trkpt>
      <trkpt lat="47.07022" lon="16.02056">
        <ele>320.754838</ele>
        <time>2022-09-27T09:35:55.992Z</time>
      </trkpt>
      <trkpt lat="47.07016" lon="16.02073">
        <ele>320.497252</ele>
        <time>2022-09-27T09:35:58.994Z</time>
      </trkpt>
      <trkpt lat="47.07009" lon="16.0209">
        <ele>320.21525</ele>
        <time>2022-09-27T09:36:02.110Z</time>
      </trkpt>
      <trkpt lat="47.07003" lon="16.02103">
        <ele>320.012351</ele>
        <time>2022-09-27T09:36:03.976Z</time>
      </trkpt>
      <trkpt lat="47.06999" lon="16.02121">
        <ele>319.761832</ele>
        <time>2022-09-27T09:36:06.982Z</time>
      </trkpt>
      <trkpt lat="47.06998" lon="16.02134">
        <ele>319.583361</ele>
        <time>2022-09-27T09:36:08.982Z</time>
      </trkpt>
      <trkpt lat="47.06997" lon="16.02149">
        <ele>319.374404</ele>
        <time>2022-09-27T09:36:11.997Z</time>
      </trkpt>
      <trkpt lat="47.06993" lon="16.02168">
        <ele>319.109097</ele>
        <time>2022-09-27T09:36:14.985Z</time>
      </trkpt>
      <trkpt lat="47.06988" lon="16.02181">
        <ele>319.200054</ele>
        <time>2022-09-27T09:36:16.991Z</time>
      </trkpt>
      <trkpt lat="47.06984" lon="16.02193">
        <ele>319.444793</ele>
        <time>2022-09-27T09:36:18.974Z</time>
      </trkpt>
      <trkpt lat="47.06977" lon="16.0221">
        <ele>319.790203</ele>
        <time>2022-09-27T09:36:21.979Z</time>
      </trkpt>
      <trkpt lat="47.0697" lon="16.02219">
        <ele>320.041393</ele>
        <time>2022-09-27T09:36:23.989Z</time>
      </trkpt>
      <trkpt lat="47.06958" lon="16.02222">
        <ele>320.351083</ele>
        <time>2022-09-27T09:36:27.012Z</time>
      </trkpt>
      <trkpt lat="47.06949" lon="16.02222">
        <ele>320.593966</ele>
        <time>2022-09-27T09:36:30.154Z</time>
      </trkpt>
      <trkpt lat="47.06939" lon="16.02223">
        <ele>320.860754</ele>
        <time>2022-09-27T09:36:32.999Z</time>
      </trkpt>
      <trkpt lat="47.06928" lon="16.02223">
        <ele>321.153878</ele>
        <time>2022-09-27T09:36:37.000Z</time>
      </trkpt>
      <trkpt lat="47.06918" lon="16.02224">
        <ele>321.411772</ele>
        <time>2022-09-27T09:36:40.005Z</time>
      </trkpt>
      <trkpt lat="47.06906" lon="16.02226">
        <ele>321.724164</ele>
        <time>2022-09-27T09:36:43.058Z</time>
      </trkpt>
      <trkpt lat="47.06896" lon="16.02226">
        <ele>321.993464</ele>
        <time>2022-09-27T09:36:45.002Z</time>
      </trkpt>
      <trkpt lat="47.06885" lon="16.0223">
        <ele>322.295198</ele>
        <time>2022-09-27T09:36:47.016Z</time>
      </trkpt>
      <trkpt lat="47.06876" lon="16.02245">
        <ele>322.656655</ele>
        <time>2022-09-27T09:36:50.006Z</time>
      </trkpt>
      <trkpt lat="47.06867" lon="16.02258">
        <ele>322.997382</ele>
        <time>2022-09-27T09:36:53.008Z</time>
      </trkpt>
      <trkpt lat="47.0686" lon="16.02271">
        <ele>323.290197</ele>
        <time>2022-09-27T09:36:56.041Z</time>
      </trkpt>
      <trkpt lat="47.06857" lon="16.02284">
        <ele>323.539882</ele>
        <time>2022-09-27T09:36:58.039Z</time>
      </trkpt>
      <trkpt lat="47.06854" lon="16.02298">
        <ele>323.804661</ele>
        <time>2022-09-27T09:37:00.002Z</time>
      </trkpt>
      <trkpt lat="47.06851" lon="16.02318">
        <ele>324.0853</ele>
        <time>2022-09-27T09:37:03.000Z</time>
      </trkpt>
      <trkpt lat="47.06849" lon="16.02334">
        <ele>324.299936</ele>
        <time>2022-09-27T09:37:05.011Z</time>
      </trkpt>
      <trkpt lat="47.06848" lon="16.02349">
        <ele>324.517067</ele>
        <time>2022-09-27T09:37:07.018Z</time>
      </trkpt>
      <trkpt lat="47.06847" lon="16.02365">
        <ele>324.724949</ele>
        <time>2022-09-27T09:37:09.008Z</time>
      </trkpt>
      <trkpt lat="47.06847" lon="16.02378">
        <ele>324.915298</ele>
        <time>2022-09-27T09:37:11.007Z</time>
      </trkpt>
      <trkpt lat="47.06846" lon="16.02392">
        <ele>325.106031</ele>
        <time>2022-09-27T09:37:13.001Z</time>
      </trkpt>
      <trkpt lat="47.06845" lon="16.02407">
        <ele>325.30557</ele>
        <time>2022-09-27T09:37:14.996Z</time>
      </trkpt>
      <trkpt lat="47.06845" lon="16.02423">
        <ele>325.526926</ele>
        <time>2022-09-27T09:37:17.018Z</time>
      </trkpt>
      <trkpt lat="47.06844" lon="16.02439">
        <ele>325.748154</ele>
        <time>2022-09-27T09:37:19.004Z</time>
      </trkpt>
      <trkpt lat="47.06843" lon="16.02454">
        <ele>325.956164</ele>
        <time>2022-09-27T09:37:20.997Z</time>
      </trkpt>
      <trkpt lat="47.06843" lon="16.02469">
        <ele>326.16653</ele>
        <time>2022-09-27T09:37:22.994Z</time>
      </trkpt>
      <trkpt lat="47.06842" lon="16.02485">
        <ele>326.381699</ele>
        <time>2022-09-27T09:37:25.034Z</time>
      </trkpt>
      <trkpt lat="47.0684" lon="16.02499">
        <ele>326.584065</ele>
        <time>2022-09-27T09:37:26.990Z</time>
      </trkpt>
      <trkpt lat="47.06839" lon="16.02513">
        <ele>326.778899</ele>
        <time>2022-09-27T09:37:29.018Z</time>
      </trkpt>
      <trkpt lat="47.06839" lon="16.02528">
        <ele>326.978438</ele>
        <time>2022-09-27T09:37:31.009Z</time>
      </trkpt>
      <trkpt lat="47.06838" lon="16.02543">
        <ele>327.189065</ele>
        <time>2022-09-27T09:37:33.002Z</time>
      </trkpt>
      <trkpt lat="47.06838" lon="16.02559">
        <ele>327.402245</ele>
        <time>2022-09-27T09:37:34.996Z</time>
      </trkpt>
      <trkpt lat="47.06837" lon="16.02575">
        <ele>327.103604</ele>
        <time>2022-09-27T09:37:37.030Z</time>
      </trkpt>
      <trkpt lat="47.06838" lon="16.0259">
        <ele>326.805146</ele>
        <time>2022-09-27T09:37:38.995Z</time>
      </trkpt>
      <trkpt lat="47.06838" lon="16.02605">
        <ele>326.505788</ele>
        <time>2022-09-27T09:37:40.998Z</time>
      </trkpt>
      <trkpt lat="47.06839" lon="16.02619">
        <ele>326.221136</ele>
        <time>2022-09-27T09:37:43.000Z</time>
      </trkpt>
      <trkpt lat="47.0684" lon="16.02639">
        <ele>325.831578</ele>
        <time>2022-09-27T09:37:45.986Z</time>
      </trkpt>
      <trkpt lat="47.06841" lon="16.02652">
        <ele>325.56728</ele>
        <time>2022-09-27T09:37:48.063Z</time>
      </trkpt>
      <trkpt lat="47.06842" lon="16.02665">
        <ele>325.305316</ele>
        <time>2022-09-27T09:37:50.001Z</time>
      </trkpt>
      <trkpt lat="47.06843" lon="16.02679">
        <ele>325.02579</ele>
        <time>2022-09-27T09:37:51.994Z</time>
      </trkpt>
      <trkpt lat="47.06845" lon="16.02693">
        <ele>324.744809</ele>
        <time>2022-09-27T09:37:53.993Z</time>
      </trkpt>
      <trkpt lat="47.06847" lon="16.02706">
        <ele>324.46604</ele>
        <time>2022-09-27T09:37:55.986Z</time>
      </trkpt>
      <trkpt lat="47.06849" lon="16.02721">
        <ele>324.17693</ele>
        <time>2022-09-27T09:37:57.993Z</time>
      </trkpt>
      <trkpt lat="47.06851" lon="16.02735">
        <ele>323.882452</ele>
        <time>2022-09-27T09:38:00.008Z</time>
      </trkpt>
      <trkpt lat="47.06854" lon="16.02749">
        <ele>323.588713</ele>
        <time>2022-09-27T09:38:01.985Z</time>
      </trkpt>
      <trkpt lat="47.06856" lon="16.02764">
        <ele>323.293147</ele>
        <time>2022-09-27T09:38:04.010Z</time>
      </trkpt>
      <trkpt lat="47.06855" lon="16.02778">
        <ele>323.014729</ele>
        <time>2022-09-27T09:38:06.035Z</time>
      </trkpt>
      <trkpt lat="47.06849" lon="16.0279">
        <ele>322.710505</ele>
        <time>2022-09-27T09:38:08.011Z</time>
      </trkpt>
      <trkpt lat="47.06839" lon="16.02803">
        <ele>322.315031</ele>
        <time>2022-09-27T09:38:10.030Z</time>
      </trkpt>
      <trkpt lat="47.06829" lon="16.02807">
        <ele>321.892115</ele>
        <time>2022-09-27T09:38:11.994Z</time>
      </trkpt>
      <trkpt lat="47.06819" lon="16.02805">
        <ele>321.327167</ele>
        <time>2022-09-27T09:38:13.993Z</time>
      </trkpt>
      <trkpt lat="47.06809" lon="16.02804">
        <ele>320.784723</ele>
        <time>2022-09-27T09:38:16.016Z</time>
      </trkpt>
      <trkpt lat="47.06799" lon="16.02804">
        <ele>320.262277</ele>
        <time>2022-09-27T09:38:17.998Z</time>
      </trkpt>
      <trkpt lat="47.06786" lon="16.02804">
        <ele>319.522136</ele>
        <time>2022-09-27T09:38:20.993Z</time>
      </trkpt>
      <trkpt lat="47.06776" lon="16.02803">
        <ele>318.988793</ele>
        <time>2022-09-27T09:38:23.005Z</time>
      </trkpt>
      <trkpt lat="47.06767" lon="16.02808">
        <ele>318.489394</ele>
        <time>2022-09-27T09:38:25.003Z</time>
      </trkpt>
      <trkpt lat="47.06762" lon="16.02823">
        <ele>317.890255</ele>
        <time>2022-09-27T09:38:27.014Z</time>
      </trkpt>
      <trkpt lat="47.06761" lon="16.02837">
        <ele>317.352165</ele>
        <time>2022-09-27T09:38:29.011Z</time>
      </trkpt>
      <trkpt lat="47.06759" lon="16.02851">
        <ele>316.834979</ele>
        <time>2022-09-27T09:38:31.013Z</time>
      </trkpt>
      <trkpt lat="47.06757" lon="16.02865">
        <ele>316.30054</ele>
        <time>2022-09-27T09:38:33.020Z</time>
      </trkpt>
      <trkpt lat="47.06756" lon="16.02878">
        <ele>315.79147</ele>
        <time>2022-09-27T09:38:35.019Z</time>
      </trkpt>
      <trkpt lat="47.06755" lon="16.02892">
        <ele>315.28607</ele>
        <time>2022-09-27T09:38:37.000Z</time>
      </trkpt>
      <trkpt lat="47.06753" lon="16.02906">
        <ele>314.765217</ele>
        <time>2022-09-27T09:38:39.024Z</time>
      </trkpt>
      <trkpt lat="47.06752" lon="16.0292">
        <ele>314.239879</ele>
        <time>2022-09-27T09:38:40.998Z</time>
      </trkpt>
      <trkpt lat="47.06751" lon="16.02934">
        <ele>313.700684</ele>
        <time>2022-09-27T09:38:42.997Z</time>
      </trkpt>
      <trkpt lat="47.06749" lon="16.02949">
        <ele>313.16163</ele>
        <time>2022-09-27T09:38:45.001Z</time>
      </trkpt>
      <trkpt lat="47.06747" lon="16.02962">
        <ele>312.670093</ele>
        <time>2022-09-27T09:38:46.998Z</time>
      </trkpt>
      <trkpt lat="47.06746" lon="16.02975">
        <ele>312.33435</ele>
        <time>2022-09-27T09:38:48.996Z</time>
      </trkpt>
      <trkpt lat="47.06745" lon="16.02988">
        <ele>312.24699</ele>
        <time>2022-09-27T09:38:51.008Z</time>
      </trkpt>
      <trkpt lat="47.06744" lon="16.03002">
        <ele>312.157814</ele>
        <time>2022-09-27T09:38:53.000Z</time>
      </trkpt>
      <trkpt lat="47.06743" lon="16.03015">
        <ele>312.06604</ele>
        <time>2022-09-27T09:38:55.017Z</time>
      </trkpt>
      <trkpt lat="47.06741" lon="16.0303">
        <ele>311.969179</ele>
        <time>2022-09-27T09:38:57.014Z</time>
      </trkpt>
      <trkpt lat="47.0674" lon="16.03044">
        <ele>311.873761</ele>
        <time>2022-09-27T09:38:59.002Z</time>
      </trkpt>
      <trkpt lat="47.06737" lon="16.03059">
        <ele>311.776458</ele>
        <time>2022-09-27T09:39:01.044Z</time>
      </trkpt>
      <trkpt lat="47.06735" lon="16.03073">
        <ele>311.681071</ele>
        <time>2022-09-27T09:39:03.014Z</time>
      </trkpt>
      <trkpt lat="47.06733" lon="16.03087">
        <ele>311.585684</ele>
        <time>2022-09-27T09:39:05.004Z</time>
      </trkpt>
      <trkpt lat="47.06731" lon="16.03101">
        <ele>311.494296</ele>
        <time>2022-09-27T09:39:07.027Z</time>
      </trkpt>
      <trkpt lat="47.06728" lon="16.03115">
        <ele>311.397828</ele>
        <time>2022-09-27T09:39:08.996Z</time>
      </trkpt>
      <trkpt lat="47.06726" lon="16.03129">
        <ele>311.302396</ele>
        <time>2022-09-27T09:39:11.004Z</time>
      </trkpt>
      <trkpt lat="47.06724" lon="16.03144">
        <ele>311.207858</ele>
        <time>2022-09-27T09:39:12.986Z</time>
      </trkpt>
      <trkpt lat="47.06722" lon="16.03158">
        <ele>311.10921</ele>
        <time>2022-09-27T09:39:15.005Z</time>
      </trkpt>
      <trkpt lat="47.06721" lon="16.03174">
        <ele>311.008609</ele>
        <time>2022-09-27T09:39:17.005Z</time>
      </trkpt>
      <trkpt lat="47.06719" lon="16.03188">
        <ele>310.911896</ele>
        <time>2022-09-27T09:39:19.014Z</time>
      </trkpt>
      <trkpt lat="47.06718" lon="16.03203">
        <ele>310.814388</ele>
        <time>2022-09-27T09:39:21.010Z</time>
      </trkpt>
      <trkpt lat="47.06716" lon="16.03217">
        <ele>310.717526</ele>
        <time>2022-09-27T09:39:22.999Z</time>
      </trkpt>
      <trkpt lat="47.06714" lon="16.03232">
        <ele>310.635024</ele>
        <time>2022-09-27T09:39:24.995Z</time>
      </trkpt>
      <trkpt lat="47.06712" lon="16.03246">
        <ele>310.618495</ele>
        <time>2022-09-27T09:39:27.003Z</time>
      </trkpt>
      <trkpt lat="47.06711" lon="16.0326">
        <ele>310.602017</ele>
        <time>2022-09-27T09:39:29.066Z</time>
      </trkpt>
      <trkpt lat="47.06708" lon="16.03274">
        <ele>310.586029</ele>
        <time>2022-09-27T09:39:31.003Z</time>
      </trkpt>
      <trkpt lat="47.06707" lon="16.03288">
        <ele>310.569326</ele>
        <time>2022-09-27T09:39:33.010Z</time>
      </trkpt>
      <trkpt lat="47.06705" lon="16.03303">
        <ele>310.552486</ele>
        <time>2022-09-27T09:39:35.011Z</time>
      </trkpt>
      <trkpt lat="47.06703" lon="16.03318">
        <ele>310.535041</ele>
        <time>2022-09-27T09:39:37.000Z</time>
      </trkpt>
      <trkpt lat="47.06701" lon="16.03332">
        <ele>310.518138</ele>
        <time>2022-09-27T09:39:38.996Z</time>
      </trkpt>
      <trkpt lat="47.067" lon="16.03347">
        <ele>310.501412</ele>
        <time>2022-09-27T09:39:40.999Z</time>
      </trkpt>
      <trkpt lat="47.06698" lon="16.03361">
        <ele>310.484675</ele>
        <time>2022-09-27T09:39:43.012Z</time>
      </trkpt>
      <trkpt lat="47.06696" lon="16.03375">
        <ele>310.468051</ele>
        <time>2022-09-27T09:39:44.997Z</time>
      </trkpt>
      <trkpt lat="47.06694" lon="16.03389">
        <ele>310.451504</ele>
        <time>2022-09-27T09:39:47.000Z</time>
      </trkpt>
      <trkpt lat="47.06692" lon="16.03403">
        <ele>310.435181</ele>
        <time>2022-09-27T09:39:49.012Z</time>
      </trkpt>
      <trkpt lat="47.0669" lon="16.03418">
        <ele>310.417961</ele>
        <time>2022-09-27T09:39:51.027Z</time>
      </trkpt>
      <trkpt lat="47.06688" lon="16.03433">
        <ele>310.400415</ele>
        <time>2022-09-27T09:39:52.979Z</time>
      </trkpt>
      <trkpt lat="47.06687" lon="16.03448">
        <ele>310.382953</ele>
        <time>2022-09-27T09:39:55.010Z</time>
      </trkpt>
      <trkpt lat="47.06685" lon="16.03463">
        <ele>310.366055</ele>
        <time>2022-09-27T09:39:56.998Z</time>
      </trkpt>
      <trkpt lat="47.06683" lon="16.03478">
        <ele>310.348622</ele>
        <time>2022-09-27T09:39:58.975Z</time>
      </trkpt>
      <trkpt lat="47.06681" lon="16.03492">
        <ele>310.363099</ele>
        <time>2022-09-27T09:40:01.000Z</time>
      </trkpt>
      <trkpt lat="47.0668" lon="16.03506">
        <ele>310.483476</ele>
        <time>2022-09-27T09:40:02.985Z</time>
      </trkpt>
      <trkpt lat="47.06679" lon="16.03521">
        <ele>310.609747</ele>
        <time>2022-09-27T09:40:05.017Z</time>
      </trkpt>
      <trkpt lat="47.06677" lon="16.03535">
        <ele>310.731993</ele>
        <time>2022-09-27T09:40:07.024Z</time>
      </trkpt>
      <trkpt lat="47.06676" lon="16.03549">
        <ele>310.850663</ele>
        <time>2022-09-27T09:40:08.996Z</time>
      </trkpt>
      <trkpt lat="47.06676" lon="16.03564">
        <ele>310.975943</ele>
        <time>2022-09-27T09:40:11.008Z</time>
      </trkpt>
      <trkpt lat="47.06675" lon="16.03578">
        <ele>311.102003</ele>
        <time>2022-09-27T09:40:13.039Z</time>
      </trkpt>
      <trkpt lat="47.06675" lon="16.03594">
        <ele>311.233037</ele>
        <time>2022-09-27T09:40:15.004Z</time>
      </trkpt>
      <trkpt lat="47.06675" lon="16.03608">
        <ele>311.354689</ele>
        <time>2022-09-27T09:40:16.999Z</time>
      </trkpt>
      <trkpt lat="47.06675" lon="16.03622">
        <ele>311.475497</ele>
        <time>2022-09-27T09:40:19.012Z</time>
      </trkpt>
      <trkpt lat="47.06675" lon="16.03637">
        <ele>311.60398</ele>
        <time>2022-09-27T09:40:21.001Z</time>
      </trkpt>
      <trkpt lat="47.06675" lon="16.03651">
        <ele>311.722235</ele>
        <time>2022-09-27T09:40:23.012Z</time>
      </trkpt>
      <trkpt lat="47.06675" lon="16.03665">
        <ele>311.842193</ele>
        <time>2022-09-27T09:40:25.075Z</time>
      </trkpt>
      <trkpt lat="47.06676" lon="16.0368">
        <ele>311.967472</ele>
        <time>2022-09-27T09:40:27.003Z</time>
      </trkpt>
      <trkpt lat="47.06676" lon="16.03695">
        <ele>312.092926</ele>
        <time>2022-09-27T09:40:28.999Z</time>
      </trkpt>
      <trkpt lat="47.06677" lon="16.03708">
        <ele>312.209168</ele>
        <time>2022-09-27T09:40:31.016Z</time>
      </trkpt>
      <trkpt lat="47.0668" lon="16.03721">
        <ele>312.323161</ele>
        <time>2022-09-27T09:40:33.008Z</time>
      </trkpt>
      <trkpt lat="47.06682" lon="16.03734">
        <ele>312.437424</ele>
        <time>2022-09-27T09:40:35.030Z</time>
      </trkpt>
      <trkpt lat="47.06692" lon="16.03742">
        <ele>312.575494</ele>
        <time>2022-09-27T09:40:38.062Z</time>
      </trkpt>
      <trkpt lat="47.06701" lon="16.03745">
        <ele>312.656485</ele>
        <time>2022-09-27T09:40:40.016Z</time>
      </trkpt>
      <trkpt lat="47.06709" lon="16.03759">
        <ele>312.755769</ele>
        <time>2022-09-27T09:40:43.011Z</time>
      </trkpt>
      <trkpt lat="47.06712" lon="16.03772">
        <ele>312.832346</ele>
        <time>2022-09-27T09:40:45.011Z</time>
      </trkpt>
      <trkpt lat="47.06714" lon="16.03785">
        <ele>312.911788</ele>
        <time>2022-09-27T09:40:46.983Z</time>
      </trkpt>
      <trkpt lat="47.06717" lon="16.03799">
        <ele>312.989283</ele>
        <time>2022-09-27T09:40:49.003Z</time>
      </trkpt>
      <trkpt lat="47.0672" lon="16.03812">
        <ele>313.064787</ele>
        <time>2022-09-27T09:40:51.032Z</time>
      </trkpt>
      <trkpt lat="47.06723" lon="16.03824">
        <ele>313.141125</ele>
        <time>2022-09-27T09:40:53.007Z</time>
      </trkpt>
      <trkpt lat="47.06726" lon="16.03837">
        <ele>313.217157</ele>
        <time>2022-09-27T09:40:55.019Z</time>
      </trkpt>
      <trkpt lat="47.06729" lon="16.0385">
        <ele>313.292973</ele>
        <time>2022-09-27T09:40:57.009Z</time>
      </trkpt>
      <trkpt lat="47.06734" lon="16.03869">
        <ele>313.405738</ele>
        <time>2022-09-27T09:40:59.998Z</time>
      </trkpt>
      <trkpt lat="47.06736" lon="16.03883">
        <ele>313.48464</ele>
        <time>2022-09-27T09:41:01.997Z</time>
      </trkpt>
      <trkpt lat="47.06739" lon="16.03896">
        <ele>313.560411</ele>
        <time>2022-09-27T09:41:04.000Z</time>
      </trkpt>
      <trkpt lat="47.06743" lon="16.03908">
        <ele>313.63439</ele>
        <time>2022-09-27T09:41:06.004Z</time>
      </trkpt>
      <trkpt lat="47.06747" lon="16.03927">
        <ele>313.746667</ele>
        <time>2022-09-27T09:41:09.004Z</time>
      </trkpt>
      <trkpt lat="47.06751" lon="16.03939">
        <ele>313.822364</ele>
        <time>2022-09-27T09:41:10.990Z</time>
      </trkpt>
      <trkpt lat="47.06755" lon="16.03958">
        <ele>313.931395</ele>
        <time>2022-09-27T09:41:14.011Z</time>
      </trkpt>
      <trkpt lat="47.06759" lon="16.03976">
        <ele>314.039657</ele>
        <time>2022-09-27T09:41:17.005Z</time>
      </trkpt>
      <trkpt lat="47.06761" lon="16.03989">
        <ele>314.14443</ele>
        <time>2022-09-27T09:41:19.048Z</time>
      </trkpt>
      <trkpt lat="47.06764" lon="16.04003">
        <ele>314.265058</ele>
        <time>2022-09-27T09:41:21.013Z</time>
      </trkpt>
      <trkpt lat="47.06766" lon="16.04016">
        <ele>314.38065</ele>
        <time>2022-09-27T09:41:23.065Z</time>
      </trkpt>
      <trkpt lat="47.0677" lon="16.04034">
        <ele>314.540165</ele>
        <time>2022-09-27T09:41:26.000Z</time>
      </trkpt>
      <trkpt lat="47.06773" lon="16.04052">
        <ele>314.70213</ele>
        <time>2022-09-27T09:41:29.015Z</time>
      </trkpt>
      <trkpt lat="47.06778" lon="16.0407">
        <ele>314.862214</ele>
        <time>2022-09-27T09:41:31.995Z</time>
      </trkpt>
      <trkpt lat="47.06782" lon="16.04082">
        <ele>314.982832</ele>
        <time>2022-09-27T09:41:34.010Z</time>
      </trkpt>
      <trkpt lat="47.06785" lon="16.04096">
        <ele>315.106747</ele>
        <time>2022-09-27T09:41:36.013Z</time>
      </trkpt>
      <trkpt lat="47.06789" lon="16.0411">
        <ele>315.235905</ele>
        <time>2022-09-27T09:41:37.998Z</time>
      </trkpt>
      <trkpt lat="47.06792" lon="16.04124">
        <ele>315.361045</ele>
        <time>2022-09-27T09:41:40.010Z</time>
      </trkpt>
      <trkpt lat="47.06796" lon="16.04137">
        <ele>315.477082</ele>
        <time>2022-09-27T09:41:42.079Z</time>
      </trkpt>
      <trkpt lat="47.068" lon="16.04156">
        <ele>315.644222</ele>
        <time>2022-09-27T09:41:45.006Z</time>
      </trkpt>
      <trkpt lat="47.06802" lon="16.04169">
        <ele>315.761054</ele>
        <time>2022-09-27T09:41:46.979Z</time>
      </trkpt>
      <trkpt lat="47.06805" lon="16.04182">
        <ele>315.883751</ele>
        <time>2022-09-27T09:41:49.003Z</time>
      </trkpt>
      <trkpt lat="47.06809" lon="16.04196">
        <ele>316.005471</ele>
        <time>2022-09-27T09:41:51.007Z</time>
      </trkpt>
      <trkpt lat="47.06817" lon="16.04211">
        <ele>316.170627</ele>
        <time>2022-09-27T09:41:54.019Z</time>
      </trkpt>
      <trkpt lat="47.06824" lon="16.04219">
        <ele>316.285234</ele>
        <time>2022-09-27T09:41:56.003Z</time>
      </trkpt>
      <trkpt lat="47.06832" lon="16.04228">
        <ele>316.194264</ele>
        <time>2022-09-27T09:41:58.046Z</time>
      </trkpt>
      <trkpt lat="47.0684" lon="16.04243">
        <ele>316.001734</ele>
        <time>2022-09-27T09:42:00.994Z</time>
      </trkpt>
      <trkpt lat="47.06842" lon="16.04261">
        <ele>315.815081</ele>
        <time>2022-09-27T09:42:04.024Z</time>
      </trkpt>
      <trkpt lat="47.0684" lon="16.04277">
        <ele>315.653013</ele>
        <time>2022-09-27T09:42:06.988Z</time>
      </trkpt>
      <trkpt lat="47.06838" lon="16.04292">
        <ele>315.500652</ele>
        <time>2022-09-27T09:42:10.017Z</time>
      </trkpt>
      <trkpt lat="47.0683" lon="16.04305">
        <ele>315.320129</ele>
        <time>2022-09-27T09:42:13.004Z</time>
      </trkpt>
      <trkpt lat="47.06823" lon="16.04322">
        <ele>315.123674</ele>
        <time>2022-09-27T09:42:15.998Z</time>
      </trkpt>
      <trkpt lat="47.06817" lon="16.04337">
        <ele>314.944033</ele>
        <time>2022-09-27T09:42:19.002Z</time>
      </trkpt>
      <trkpt lat="47.06814" lon="16.04356">
        <ele>314.751886</ele>
        <time>2022-09-27T09:42:22.007Z</time>
      </trkpt>
      <trkpt lat="47.06811" lon="16.04373">
        <ele>314.577202</ele>
        <time>2022-09-27T09:42:25.001Z</time>
      </trkpt>
      <trkpt lat="47.06809" lon="16.04386">
        <ele>314.442788</ele>
        <time>2022-09-27T09:42:27.040Z</time>
      </trkpt>
      <trkpt lat="47.06806" lon="16.04399">
        <ele>314.308669</ele>
        <time>2022-09-27T09:42:29.011Z</time>
      </trkpt>
      <trkpt lat="47.06802" lon="16.04412">
        <ele>314.15816</ele>
        <time>2022-09-27T09:42:30.988Z</time>
      </trkpt>
      <trkpt lat="47.06798" lon="16.04425">
        <ele>314.014351</ele>
        <time>2022-09-27T09:42:32.993Z</time>
      </trkpt>
      <trkpt lat="47.06794" lon="16.04438">
        <ele>313.874833</ele>
        <time>2022-09-27T09:42:35.003Z</time>
      </trkpt>
      <trkpt lat="47.0679" lon="16.0445">
        <ele>313.736874</ele>
        <time>2022-09-27T09:42:37.012Z</time>
      </trkpt>
      <trkpt lat="47.06785" lon="16.04461">
        <ele>313.590095</ele>
        <time>2022-09-27T09:42:39.015Z</time>
      </trkpt>
      <trkpt lat="47.06779" lon="16.04472">
        <ele>313.417313</ele>
        <time>2022-09-27T09:42:41.000Z</time>
      </trkpt>
      <trkpt lat="47.06774" lon="16.04483">
        <ele>313.249788</ele>
        <time>2022-09-27T09:42:43.003Z</time>
      </trkpt>
      <trkpt lat="47.06768" lon="16.04494">
        <ele>313.086203</ele>
        <time>2022-09-27T09:42:45.003Z</time>
      </trkpt>
      <trkpt lat="47.06762" lon="16.04504">
        <ele>312.920581</ele>
        <time>2022-09-27T09:42:46.994Z</time>
      </trkpt>
      <trkpt lat="47.06756" lon="16.04514">
        <ele>312.756813</ele>
        <time>2022-09-27T09:42:48.997Z</time>
      </trkpt>
      <trkpt lat="47.0675" lon="16.04523">
        <ele>312.590403</ele>
        <time>2022-09-27T09:42:51.075Z</time>
      </trkpt>
      <trkpt lat="47.06741" lon="16.04538">
        <ele>312.354217</ele>
        <time>2022-09-27T09:42:54.004Z</time>
      </trkpt>
      <trkpt lat="47.06733" lon="16.04552">
        <ele>312.127429</ele>
        <time>2022-09-27T09:42:57.014Z</time>
      </trkpt>
      <trkpt lat="47.06725" lon="16.04566">
        <ele>311.897581</ele>
        <time>2022-09-27T09:43:00.020Z</time>
      </trkpt>
      <trkpt lat="47.06716" lon="16.04579">
        <ele>311.672646</ele>
        <time>2022-09-27T09:43:03.018Z</time>
      </trkpt>
      <trkpt lat="47.06711" lon="16.0459">
        <ele>311.509219</ele>
        <time>2022-09-27T09:43:05.027Z</time>
      </trkpt>
      <trkpt lat="47.06712" lon="16.04608">
        <ele>311.276173</ele>
        <time>2022-09-27T09:43:08.009Z</time>
      </trkpt>
      <trkpt lat="47.06713" lon="16.04622">
        <ele>311.108144</ele>
        <time>2022-09-27T09:43:09.996Z</time>
      </trkpt>
      <trkpt lat="47.06714" lon="16.0464">
        <ele>310.880489</ele>
        <time>2022-09-27T09:43:12.991Z</time>
      </trkpt>
      <trkpt lat="47.06713" lon="16.04659">
        <ele>310.646738</ele>
        <time>2022-09-27T09:43:15.999Z</time>
      </trkpt>
      <trkpt lat="47.06712" lon="16.04678">
        <ele>310.409012</ele>
        <time>2022-09-27T09:43:18.993Z</time>
      </trkpt>
      <trkpt lat="47.06712" lon="16.04692">
        <ele>310.147818</ele>
        <time>2022-09-27T09:43:20.996Z</time>
      </trkpt>
      <trkpt lat="47.06711" lon="16.04706">
        <ele>309.879207</ele>
        <time>2022-09-27T09:43:23.005Z</time>
      </trkpt>
      <trkpt lat="47.06709" lon="16.0472">
        <ele>309.597733</ele>
        <time>2022-09-27T09:43:25.027Z</time>
      </trkpt>
      <trkpt lat="47.06706" lon="16.04734">
        <ele>309.31747</ele>
        <time>2022-09-27T09:43:27.005Z</time>
      </trkpt>
      <trkpt lat="47.06702" lon="16.04747">
        <ele>309.021654</ele>
        <time>2022-09-27T09:43:28.999Z</time>
      </trkpt>
      <trkpt lat="47.06697" lon="16.0476">
        <ele>308.715854</ele>
        <time>2022-09-27T09:43:30.995Z</time>
      </trkpt>
      <trkpt lat="47.06691" lon="16.04772">
        <ele>308.436119</ele>
        <time>2022-09-27T09:43:33.021Z</time>
      </trkpt>
      <trkpt lat="47.06686" lon="16.04784">
        <ele>308.153136</ele>
        <time>2022-09-27T09:43:35.066Z</time>
      </trkpt>
      <trkpt lat="47.0668" lon="16.04796">
        <ele>307.868389</ele>
        <time>2022-09-27T09:43:37.048Z</time>
      </trkpt>
      <trkpt lat="47.06674" lon="16.04808">
        <ele>307.582122</ele>
        <time>2022-09-27T09:43:39.016Z</time>
      </trkpt>
      <trkpt lat="47.06669" lon="16.04818">
        <ele>307.315032</ele>
        <time>2022-09-27T09:43:41.012Z</time>
      </trkpt>
      <trkpt lat="47.06661" lon="16.04833">
        <ele>306.947846</ele>
        <time>2022-09-27T09:43:44.007Z</time>
      </trkpt>
      <trkpt lat="47.06655" lon="16.04843">
        <ele>306.682646</ele>
        <time>2022-09-27T09:43:46.004Z</time>
      </trkpt>
      <trkpt lat="47.06646" lon="16.04858">
        <ele>306.299838</ele>
        <time>2022-09-27T09:43:48.999Z</time>
      </trkpt>
      <trkpt lat="47.06638" lon="16.04872">
        <ele>305.94137</ele>
        <time>2022-09-27T09:43:52.008Z</time>
      </trkpt>
      <trkpt lat="47.06633" lon="16.04887">
        <ele>305.617554</ele>
        <time>2022-09-27T09:43:55.004Z</time>
      </trkpt>
      <trkpt lat="47.06629" lon="16.04903">
        <ele>305.265983</ele>
        <time>2022-09-27T09:43:58.070Z</time>
      </trkpt>
      <trkpt lat="47.06623" lon="16.0492">
        <ele>305.124316</ele>
        <time>2022-09-27T09:44:00.998Z</time>
      </trkpt>
      <trkpt lat="47.06618" lon="16.04934">
        <ele>305.05233</ele>
        <time>2022-09-27T09:44:04.013Z</time>
      </trkpt>
      <trkpt lat="47.06612" lon="16.04949">
        <ele>304.971498</ele>
        <time>2022-09-27T09:44:07.076Z</time>
      </trkpt>
      <trkpt lat="47.06604" lon="16.04955">
        <ele>304.911365</ele>
        <time>2022-09-27T09:44:10.992Z</time>
      </trkpt>
      <trkpt lat="47.06598" lon="16.04943">
        <ele>304.846169</ele>
        <time>2022-09-27T09:44:13.996Z</time>
      </trkpt>
      <trkpt lat="47.06593" lon="16.0493">
        <ele>304.774099</ele>
        <time>2022-09-27T09:44:17.009Z</time>
      </trkpt>
      <trkpt lat="47.06586" lon="16.0492">
        <ele>304.709198</ele>
        <time>2022-09-27T09:44:19.986Z</time>
      </trkpt>
      <trkpt lat="47.06576" lon="16.04931">
        <ele>304.625555</ele>
        <time>2022-09-27T09:44:23.998Z</time>
      </trkpt>
      <trkpt lat="47.06571" lon="16.04946">
        <ele>304.550966</ele>
        <time>2022-09-27T09:44:27.112Z</time>
      </trkpt>
      <trkpt lat="47.0657" lon="16.0496">
        <ele>304.485033</ele>
        <time>2022-09-27T09:44:30.995Z</time>
      </trkpt>
      <trkpt lat="47.06569" lon="16.04974">
        <ele>304.419513</ele>
        <time>2022-09-27T09:44:35.015Z</time>
      </trkpt>
      <trkpt lat="47.06564" lon="16.04989">
        <ele>304.342871</ele>
        <time>2022-09-27T09:44:38.038Z</time>
      </trkpt>
      <trkpt lat="47.06558" lon="16.05">
        <ele>304.281585</ele>
        <time>2022-09-27T09:44:40.008Z</time>
      </trkpt>
      <trkpt lat="47.06548" lon="16.05011">
        <ele>304.197405</ele>
        <time>2022-09-27T09:44:43.003Z</time>
      </trkpt>
      <trkpt lat="47.06537" lon="16.05019">
        <ele>304.114231</ele>
        <time>2022-09-27T09:44:46.032Z</time>
      </trkpt>
      <trkpt lat="47.06526" lon="16.05027">
        <ele>304.031182</ele>
        <time>2022-09-27T09:44:49.008Z</time>
      </trkpt>
      <trkpt lat="47.06516" lon="16.05034">
        <ele>304.056427</ele>
        <time>2022-09-27T09:44:52.008Z</time>
      </trkpt>
      <trkpt lat="47.06505" lon="16.05041">
        <ele>304.236612</ele>
        <time>2022-09-27T09:44:54.990Z</time>
      </trkpt>
      <trkpt lat="47.06493" lon="16.05049">
        <ele>304.433193</ele>
        <time>2022-09-27T09:44:57.993Z</time>
      </trkpt>
      <trkpt lat="47.06484" lon="16.05054">
        <ele>304.574378</ele>
        <time>2022-09-27T09:45:00.024Z</time>
      </trkpt>
      <trkpt lat="47.06473" lon="16.05061">
        <ele>304.764368</ele>
        <time>2022-09-27T09:45:03.017Z</time>
      </trkpt>
      <trkpt lat="47.06461" lon="16.05067">
        <ele>304.953592</ele>
        <time>2022-09-27T09:45:05.987Z</time>
      </trkpt>
      <trkpt lat="47.0645" lon="16.05075">
        <ele>305.138576</ele>
        <time>2022-09-27T09:45:09.007Z</time>
      </trkpt>
      <trkpt lat="47.06442" lon="16.05081">
        <ele>305.275418</ele>
        <time>2022-09-27T09:45:11.038Z</time>
      </trkpt>
      <trkpt lat="47.06434" lon="16.05088">
        <ele>305.417116</ele>
        <time>2022-09-27T09:45:13.005Z</time>
      </trkpt>
      <trkpt lat="47.06427" lon="16.05097">
        <ele>305.560187</ele>
        <time>2022-09-27T09:45:15.089Z</time>
      </trkpt>
      <trkpt lat="47.0642" lon="16.05109">
        <ele>305.722268</ele>
        <time>2022-09-27T09:45:16.991Z</time>
      </trkpt>
      <trkpt lat="47.06414" lon="16.0512">
        <ele>305.865095</ele>
        <time>2022-09-27T09:45:19.006Z</time>
      </trkpt>
      <trkpt lat="47.06408" lon="16.05131">
        <ele>306.012154</ele>
        <time>2022-09-27T09:45:21.025Z</time>
      </trkpt>
      <trkpt lat="47.06402" lon="16.05143">
        <ele>306.160111</ele>
        <time>2022-09-27T09:45:23.033Z</time>
      </trkpt>
      <trkpt lat="47.06397" lon="16.05154">
        <ele>306.300312</ele>
        <time>2022-09-27T09:45:24.994Z</time>
      </trkpt>
      <trkpt lat="47.06389" lon="16.05169">
        <ele>306.50131</ele>
        <time>2022-09-27T09:45:27.999Z</time>
      </trkpt>
      <trkpt lat="47.06383" lon="16.0518">
        <ele>306.642705</ele>
        <time>2022-09-27T09:45:30.010Z</time>
      </trkpt>
      <trkpt lat="47.06378" lon="16.05191">
        <ele>306.606712</ele>
        <time>2022-09-27T09:45:32.015Z</time>
      </trkpt>
      <trkpt lat="47.06373" lon="16.05203">
        <ele>306.371649</ele>
        <time>2022-09-27T09:45:34.053Z</time>
      </trkpt>
      <trkpt lat="47.06366" lon="16.05214">
        <ele>306.131905</ele>
        <time>2022-09-27T09:45:35.989Z</time>
      </trkpt>
      <trkpt lat="47.0636" lon="16.05225">
        <ele>305.889907</ele>
        <time>2022-09-27T09:45:38.038Z</time>
      </trkpt>
      <trkpt lat="47.06351" lon="16.05238">
        <ele>305.59617</ele>
        <time>2022-09-27T09:45:40.992Z</time>
      </trkpt>
      <trkpt lat="47.06342" lon="16.05238">
        <ele>305.354376</ele>
        <time>2022-09-27T09:45:45.007Z</time>
      </trkpt>
      <trkpt lat="47.06336" lon="16.05248">
        <ele>305.131502</ele>
        <time>2022-09-27T09:45:49.075Z</time>
      </trkpt>
      <trkpt lat="47.06333" lon="16.05264">
        <ele>304.854543</ele>
        <time>2022-09-27T09:45:52.003Z</time>
      </trkpt>
      <trkpt lat="47.0633" lon="16.0528">
        <ele>304.587218</ele>
        <time>2022-09-27T09:45:55.045Z</time>
      </trkpt>
      <trkpt lat="47.06327" lon="16.05296">
        <ele>304.310873</ele>
        <time>2022-09-27T09:45:58.002Z</time>
      </trkpt>
      <trkpt lat="47.06323" lon="16.05311">
        <ele>304.038986</ele>
        <time>2022-09-27T09:46:00.983Z</time>
      </trkpt>
      <trkpt lat="47.06319" lon="16.05327">
        <ele>303.75537</ele>
        <time>2022-09-27T09:46:04.002Z</time>
      </trkpt>
      <trkpt lat="47.06315" lon="16.05345">
        <ele>303.445864</ele>
        <time>2022-09-27T09:46:07.005Z</time>
      </trkpt>
      <trkpt lat="47.0631" lon="16.05362">
        <ele>303.133906</ele>
        <time>2022-09-27T09:46:09.995Z</time>
      </trkpt>
      <trkpt lat="47.06307" lon="16.0538">
        <ele>302.828059</ele>
        <time>2022-09-27T09:46:13.007Z</time>
      </trkpt>
      <trkpt lat="47.06304" lon="16.05399">
        <ele>302.512829</ele>
        <time>2022-09-27T09:46:15.998Z</time>
      </trkpt>
      <trkpt lat="47.06301" lon="16.05411">
        <ele>302.320254</ele>
        <time>2022-09-27T09:46:17.992Z</time>
      </trkpt>
      <trkpt lat="47.06297" lon="16.05429">
        <ele>302.26181</ele>
        <time>2022-09-27T09:46:20.997Z</time>
      </trkpt>
      <trkpt lat="47.06294" lon="16.05442">
        <ele>302.221703</ele>
        <time>2022-09-27T09:46:22.978Z</time>
      </trkpt>
      <trkpt lat="47.0629" lon="16.05461">
        <ele>302.162099</ele>
        <time>2022-09-27T09:46:25.997Z</time>
      </trkpt>
      <trkpt lat="47.06288" lon="16.05474">
        <ele>302.120929</ele>
        <time>2022-09-27T09:46:28.006Z</time>
      </trkpt>
      <trkpt lat="47.06285" lon="16.05487">
        <ele>302.078884</ele>
        <time>2022-09-27T09:46:30.007Z</time>
      </trkpt>
      <trkpt lat="47.06282" lon="16.05506">
        <ele>302.019028</ele>
        <time>2022-09-27T09:46:32.988Z</time>
      </trkpt>
      <trkpt lat="47.06279" lon="16.0552">
        <ele>301.976767</ele>
        <time>2022-09-27T09:46:35.011Z</time>
      </trkpt>
      <trkpt lat="47.06276" lon="16.05533">
        <ele>301.935217</ele>
        <time>2022-09-27T09:46:37.011Z</time>
      </trkpt>
      <trkpt lat="47.06273" lon="16.05547">
        <ele>301.891642</ele>
        <time>2022-09-27T09:46:39.065Z</time>
      </trkpt>
      <trkpt lat="47.0627" lon="16.0556">
        <ele>301.849381</ele>
        <time>2022-09-27T09:46:41.031Z</time>
      </trkpt>
      <trkpt lat="47.06267" lon="16.05572">
        <ele>301.809408</ele>
        <time>2022-09-27T09:46:42.993Z</time>
      </trkpt>
      <trkpt lat="47.06265" lon="16.05585">
        <ele>301.769111</ele>
        <time>2022-09-27T09:46:45.000Z</time>
      </trkpt>
      <trkpt lat="47.06262" lon="16.05598">
        <ele>301.727528</ele>
        <time>2022-09-27T09:46:47.009Z</time>
      </trkpt>
      <trkpt lat="47.0626" lon="16.05611">
        <ele>301.687467</ele>
        <time>2022-09-27T09:46:48.999Z</time>
      </trkpt>
      <trkpt lat="47.06257" lon="16.05624">
        <ele>301.646627</ele>
        <time>2022-09-27T09:46:51.023Z</time>
      </trkpt>
      <trkpt lat="47.06255" lon="16.05637">
        <ele>301.605574</ele>
        <time>2022-09-27T09:46:52.999Z</time>
      </trkpt>
      <trkpt lat="47.06252" lon="16.0565">
        <ele>301.563602</ele>
        <time>2022-09-27T09:46:55.006Z</time>
      </trkpt>
      <trkpt lat="47.06249" lon="16.05664">
        <ele>301.541082</ele>
        <time>2022-09-27T09:46:57.003Z</time>
      </trkpt>
      <trkpt lat="47.06244" lon="16.05682">
        <ele>301.666554</ele>
        <time>2022-09-27T09:47:00.070Z</time>
      </trkpt>
      <trkpt lat="47.0624" lon="16.05701">
        <ele>301.795697</ele>
        <time>2022-09-27T09:47:02.995Z</time>
      </trkpt>
      <trkpt lat="47.06237" lon="16.05714">
        <ele>301.884776</ele>
        <time>2022-09-27T09:47:04.998Z</time>
      </trkpt>
      <trkpt lat="47.06233" lon="16.05732">
        <ele>302.009021</ele>
        <time>2022-09-27T09:47:07.990Z</time>
      </trkpt>
      <trkpt lat="47.0623" lon="16.05744">
        <ele>302.096247</ele>
        <time>2022-09-27T09:47:10.005Z</time>
      </trkpt>
      <trkpt lat="47.06226" lon="16.05758">
        <ele>302.188967</ele>
        <time>2022-09-27T09:47:11.992Z</time>
      </trkpt>
      <trkpt lat="47.06222" lon="16.05771">
        <ele>302.285059</ele>
        <time>2022-09-27T09:47:13.996Z</time>
      </trkpt>
      <trkpt lat="47.06218" lon="16.05784">
        <ele>302.379932</ele>
        <time>2022-09-27T09:47:16.011Z</time>
      </trkpt>
      <trkpt lat="47.06214" lon="16.05797">
        <ele>302.473418</ele>
        <time>2022-09-27T09:47:18.088Z</time>
      </trkpt>
      <trkpt lat="47.0621" lon="16.05811">
        <ele>302.566973</ele>
        <time>2022-09-27T09:47:20.008Z</time>
      </trkpt>
      <trkpt lat="47.06207" lon="16.05824">
        <ele>302.661382</ele>
        <time>2022-09-27T09:47:22.000Z</time>
      </trkpt>
      <trkpt lat="47.06204" lon="16.05838">
        <ele>302.752321</ele>
        <time>2022-09-27T09:47:23.995Z</time>
      </trkpt>
      <trkpt lat="47.062" lon="16.05851">
        <ele>302.845778</ele>
        <time>2022-09-27T09:47:25.995Z</time>
      </trkpt>
      <trkpt lat="47.06196" lon="16.05865">
        <ele>302.943071</ele>
        <time>2022-09-27T09:47:28.008Z</time>
      </trkpt>
      <trkpt lat="47.06193" lon="16.05878">
        <ele>303.036155</ele>
        <time>2022-09-27T09:47:29.986Z</time>
      </trkpt>
      <trkpt lat="47.0619" lon="16.05891">
        <ele>303.123932</ele>
        <time>2022-09-27T09:47:32.020Z</time>
      </trkpt>
      <trkpt lat="47.06186" lon="16.05903">
        <ele>303.212723</ele>
        <time>2022-09-27T09:47:34.011Z</time>
      </trkpt>
      <trkpt lat="47.06183" lon="16.05916">
        <ele>303.361675</ele>
        <time>2022-09-27T09:47:35.999Z</time>
      </trkpt>
      <trkpt lat="47.06179" lon="16.05929">
        <ele>303.561274</ele>
        <time>2022-09-27T09:47:38.009Z</time>
      </trkpt>
      <trkpt lat="47.06175" lon="16.05942">
        <ele>303.756869</ele>
        <time>2022-09-27T09:47:40.028Z</time>
      </trkpt>
      <trkpt lat="47.06172" lon="16.05955">
        <ele>303.950253</ele>
        <time>2022-09-27T09:47:42.008Z</time>
      </trkpt>
      <trkpt lat="47.06167" lon="16.05973">
        <ele>304.230594</ele>
        <time>2022-09-27T09:47:45.006Z</time>
      </trkpt>
      <trkpt lat="47.06163" lon="16.05986">
        <ele>304.42529</ele>
        <time>2022-09-27T09:47:46.996Z</time>
      </trkpt>
      <trkpt lat="47.06159" lon="16.05998">
        <ele>304.617671</ele>
        <time>2022-09-27T09:47:49.007Z</time>
      </trkpt>
      <trkpt lat="47.06154" lon="16.0601">
        <ele>304.81083</ele>
        <time>2022-09-27T09:47:51.031Z</time>
      </trkpt>
      <trkpt lat="47.06149" lon="16.06023">
        <ele>305.016968</ele>
        <time>2022-09-27T09:47:52.999Z</time>
      </trkpt>
      <trkpt lat="47.06145" lon="16.06036">
        <ele>305.219965</ele>
        <time>2022-09-27T09:47:55.011Z</time>
      </trkpt>
      <trkpt lat="47.06141" lon="16.0605">
        <ele>305.428531</ele>
        <time>2022-09-27T09:47:57.037Z</time>
      </trkpt>
      <trkpt lat="47.06137" lon="16.06063">
        <ele>305.625675</ele>
        <time>2022-09-27T09:47:59.012Z</time>
      </trkpt>
      <trkpt lat="47.06133" lon="16.06076">
        <ele>305.821457</ele>
        <time>2022-09-27T09:48:01.016Z</time>
      </trkpt>
      <trkpt lat="47.06128" lon="16.06093">
        <ele>306.085191</ele>
        <time>2022-09-27T09:48:04.097Z</time>
      </trkpt>
      <trkpt lat="47.06124" lon="16.06105">
        <ele>306.275216</ele>
        <time>2022-09-27T09:48:06.018Z</time>
      </trkpt>
      <trkpt lat="47.06119" lon="16.06116">
        <ele>306.460998</ele>
        <time>2022-09-27T09:48:07.997Z</time>
      </trkpt>
      <trkpt lat="47.06113" lon="16.06134">
        <ele>306.731393</ele>
        <time>2022-09-27T09:48:11.032Z</time>
      </trkpt>
      <trkpt lat="47.06109" lon="16.06146">
        <ele>306.923004</ele>
        <time>2022-09-27T09:48:13.031Z</time>
      </trkpt>
      <trkpt lat="47.06104" lon="16.06164">
        <ele>306.730825</ele>
        <time>2022-09-27T09:48:16.009Z</time>
      </trkpt>
      <trkpt lat="47.06101" lon="16.06178">
        <ele>306.571903</ele>
        <time>2022-09-27T09:48:18.020Z</time>
      </trkpt>
      <trkpt lat="47.06098" lon="16.06191">
        <ele>306.411566</ele>
        <time>2022-09-27T09:48:20.040Z</time>
      </trkpt>
      <trkpt lat="47.06093" lon="16.06203">
        <ele>306.249883</ele>
        <time>2022-09-27T09:48:22.011Z</time>
      </trkpt>
      <trkpt lat="47.06089" lon="16.06215">
        <ele>306.095068</ele>
        <time>2022-09-27T09:48:24.050Z</time>
      </trkpt>
      <trkpt lat="47.06085" lon="16.06227">
        <ele>305.940253</ele>
        <time>2022-09-27T09:48:25.997Z</time>
      </trkpt>
      <trkpt lat="47.06081" lon="16.0624">
        <ele>305.777541</ele>
        <time>2022-09-27T09:48:28.006Z</time>
      </trkpt>
      <trkpt lat="47.06077" lon="16.06253">
        <ele>305.618631</ele>
        <time>2022-09-27T09:48:29.986Z</time>
      </trkpt>
      <trkpt lat="47.06073" lon="16.06266">
        <ele>305.456371</ele>
        <time>2022-09-27T09:48:32.011Z</time>
      </trkpt>
      <trkpt lat="47.06069" lon="16.06279">
        <ele>305.297472</ele>
        <time>2022-09-27T09:48:34.010Z</time>
      </trkpt>
      <trkpt lat="47.06065" lon="16.06291">
        <ele>305.137968</ele>
        <time>2022-09-27T09:48:35.994Z</time>
      </trkpt>
      <trkpt lat="47.06058" lon="16.06301">
        <ele>304.986723</ele>
        <time>2022-09-27T09:48:38.008Z</time>
      </trkpt>
      <trkpt lat="47.06049" lon="16.06313">
        <ele>304.780951</ele>
        <time>2022-09-27T09:48:41.125Z</time>
      </trkpt>
      <trkpt lat="47.06046" lon="16.06327">
        <ele>304.619264</ele>
        <time>2022-09-27T09:48:43.016Z</time>
      </trkpt>
      <trkpt lat="47.06046" lon="16.0634">
        <ele>304.466319</ele>
        <time>2022-09-27T09:48:45.002Z</time>
      </trkpt>
      <trkpt lat="47.06045" lon="16.06353">
        <ele>304.313638</ele>
        <time>2022-09-27T09:48:47.012Z</time>
      </trkpt>
      <trkpt lat="47.06043" lon="16.06368">
        <ele>304.150995</ele>
        <time>2022-09-27T09:48:48.995Z</time>
      </trkpt>
      <trkpt lat="47.0604" lon="16.06381">
        <ele>303.984551</ele>
        <time>2022-09-27T09:48:51.009Z</time>
      </trkpt>
      <trkpt lat="47.06036" lon="16.06395">
        <ele>303.964721</ele>
        <time>2022-09-27T09:48:52.998Z</time>
      </trkpt>
      <trkpt lat="47.06032" lon="16.06408">
        <ele>304.003615</ele>
        <time>2022-09-27T09:48:54.998Z</time>
      </trkpt>
      <trkpt lat="47.06027" lon="16.06421">
        <ele>304.045993</ele>
        <time>2022-09-27T09:48:57.000Z</time>
      </trkpt>
      <trkpt lat="47.06022" lon="16.06434">
        <ele>304.084967</ele>
        <time>2022-09-27T09:48:59.007Z</time>
      </trkpt>
      <trkpt lat="47.06017" lon="16.06445">
        <ele>304.121293</ele>
        <time>2022-09-27T09:49:01.011Z</time>
      </trkpt>
      <trkpt lat="47.0601" lon="16.06461">
        <ele>304.174323</ele>
        <time>2022-09-27T09:49:04.005Z</time>
      </trkpt>
      <trkpt lat="47.06003" lon="16.06478">
        <ele>304.227106</ele>
        <time>2022-09-27T09:49:07.013Z</time>
      </trkpt>
      <trkpt lat="47.05997" lon="16.06495">
        <ele>304.280282</ele>
        <time>2022-09-27T09:49:10.034Z</time>
      </trkpt>
      <trkpt lat="47.0599" lon="16.06512">
        <ele>304.334716</ele>
        <time>2022-09-27T09:49:13.013Z</time>
      </trkpt>
      <trkpt lat="47.05985" lon="16.06524">
        <ele>304.372157</ele>
        <time>2022-09-27T09:49:15.006Z</time>
      </trkpt>
      <trkpt lat="47.05978" lon="16.0654">
        <ele>304.423371</ele>
        <time>2022-09-27T09:49:18.006Z</time>
      </trkpt>
      <trkpt lat="47.05972" lon="16.06554">
        <ele>304.470078</ele>
        <time>2022-09-27T09:49:21.010Z</time>
      </trkpt>
      <trkpt lat="47.05973" lon="16.06567">
        <ele>304.506291</ele>
        <time>2022-09-27T09:49:26.012Z</time>
      </trkpt>
      <trkpt lat="47.05981" lon="16.06575">
        <ele>304.547204</ele>
        <time>2022-09-27T09:49:30.008Z</time>
      </trkpt>
      <trkpt lat="47.05982" lon="16.06588">
        <ele>304.58474</ele>
        <time>2022-09-27T09:49:41.999Z</time>
      </trkpt>
      <trkpt lat="47.05967" lon="16.06607">
        <ele>304.571858</ele>
        <time>2022-09-27T10:02:58.011Z</time>
      </trkpt>
      <trkpt lat="47.05959" lon="16.06616">
        <ele>304.163467</ele>
        <time>2022-09-27T10:03:05.003Z</time>
      </trkpt>
      <trkpt lat="47.05949" lon="16.06618">
        <ele>303.718104</ele>
        <time>2022-09-27T10:03:11.026Z</time>
      </trkpt>
      <trkpt lat="47.0594" lon="16.0663">
        <ele>303.219255</ele>
        <time>2022-09-27T10:03:15.010Z</time>
      </trkpt>
      <trkpt lat="47.05933" lon="16.06645">
        <ele>302.715175</ele>
        <time>2022-09-27T10:03:18.996Z</time>
      </trkpt>
      <trkpt lat="47.05928" lon="16.06656">
        <ele>302.320403</ele>
        <time>2022-09-27T10:03:22.025Z</time>
      </trkpt>
      <trkpt lat="47.05922" lon="16.06669">
        <ele>301.871157</ele>
        <time>2022-09-27T10:03:25.011Z</time>
      </trkpt>
      <trkpt lat="47.05915" lon="16.06683">
        <ele>301.388479</ele>
        <time>2022-09-27T10:03:27.997Z</time>
      </trkpt>
      <trkpt lat="47.05909" lon="16.06696">
        <ele>300.912541</ele>
        <time>2022-09-27T10:03:30.989Z</time>
      </trkpt>
      <trkpt lat="47.05902" lon="16.0671">
        <ele>300.406278</ele>
        <time>2022-09-27T10:03:34.002Z</time>
      </trkpt>
      <trkpt lat="47.05895" lon="16.06725">
        <ele>299.902398</ele>
        <time>2022-09-27T10:03:36.998Z</time>
      </trkpt>
      <trkpt lat="47.05889" lon="16.06739">
        <ele>299.424583</ele>
        <time>2022-09-27T10:03:40.013Z</time>
      </trkpt>
      <trkpt lat="47.05883" lon="16.06754">
        <ele>298.915743</ele>
        <time>2022-09-27T10:03:42.991Z</time>
      </trkpt>
      <trkpt lat="47.05877" lon="16.0677">
        <ele>298.405463</ele>
        <time>2022-09-27T10:03:46.002Z</time>
      </trkpt>
      <trkpt lat="47.05871" lon="16.06785">
        <ele>297.909431</ele>
        <time>2022-09-27T10:03:49.012Z</time>
      </trkpt>
      <trkpt lat="47.05865" lon="16.06797">
        <ele>297.472097</ele>
        <time>2022-09-27T10:03:52.014Z</time>
      </trkpt>
      <trkpt lat="47.0586" lon="16.06809">
        <ele>297.065097</ele>
        <time>2022-09-27T10:03:55.018Z</time>
      </trkpt>
      <trkpt lat="47.05857" lon="16.06821">
        <ele>296.865567</ele>
        <time>2022-09-27T10:03:58.030Z</time>
      </trkpt>
      <trkpt lat="47.05852" lon="16.06833">
        <ele>296.656493</ele>
        <time>2022-09-27T10:04:02.006Z</time>
      </trkpt>
      <trkpt lat="47.05847" lon="16.06845">
        <ele>296.453334</ele>
        <time>2022-09-27T10:04:04.998Z</time>
      </trkpt>
      <trkpt lat="47.05841" lon="16.06859">
        <ele>296.207016</ele>
        <time>2022-09-27T10:04:07.998Z</time>
      </trkpt>
      <trkpt lat="47.05834" lon="16.06872">
        <ele>295.965762</ele>
        <time>2022-09-27T10:04:11.007Z</time>
      </trkpt>
      <trkpt lat="47.05828" lon="16.06885">
        <ele>295.72196</ele>
        <time>2022-09-27T10:04:14.022Z</time>
      </trkpt>
      <trkpt lat="47.05821" lon="16.069">
        <ele>295.453502</ele>
        <time>2022-09-27T10:04:17.020Z</time>
      </trkpt>
      <trkpt lat="47.05814" lon="16.06914">
        <ele>295.18671</ele>
        <time>2022-09-27T10:04:20.006Z</time>
      </trkpt>
      <trkpt lat="47.05807" lon="16.06928">
        <ele>294.925621</ele>
        <time>2022-09-27T10:04:23.015Z</time>
      </trkpt>
      <trkpt lat="47.058" lon="16.06942">
        <ele>294.669384</ele>
        <time>2022-09-27T10:04:26.034Z</time>
      </trkpt>
      <trkpt lat="47.05793" lon="16.06957">
        <ele>294.399696</ele>
        <time>2022-09-27T10:04:29.002Z</time>
      </trkpt>
      <trkpt lat="47.05786" lon="16.06971">
        <ele>294.13862</ele>
        <time>2022-09-27T10:04:31.997Z</time>
      </trkpt>
      <trkpt lat="47.05781" lon="16.06985">
        <ele>293.893194</ele>
        <time>2022-09-27T10:04:34.990Z</time>
      </trkpt>
      <trkpt lat="47.05777" lon="16.06998">
        <ele>293.687691</ele>
        <time>2022-09-27T10:04:38.010Z</time>
      </trkpt>
      <trkpt lat="47.05775" lon="16.07012">
        <ele>293.467007</ele>
        <time>2022-09-27T10:04:44.014Z</time>
      </trkpt>
      <trkpt lat="47.05772" lon="16.07026">
        <ele>293.262135</ele>
        <time>2022-09-27T10:04:48.000Z</time>
      </trkpt>
      <trkpt lat="47.05764" lon="16.07035">
        <ele>293.117394</ele>
        <time>2022-09-27T10:04:54.037Z</time>
      </trkpt>
      <trkpt lat="47.05756" lon="16.07049">
        <ele>293.136666</ele>
        <time>2022-09-27T10:04:58.076Z</time>
      </trkpt>
      <trkpt lat="47.05749" lon="16.07062">
        <ele>293.153224</ele>
        <time>2022-09-27T10:05:01.026Z</time>
      </trkpt>
      <trkpt lat="47.05745" lon="16.07075">
        <ele>293.168857</ele>
        <time>2022-09-27T10:05:04.013Z</time>
      </trkpt>
      <trkpt lat="47.05739" lon="16.07089">
        <ele>293.185752</ele>
        <time>2022-09-27T10:05:07.011Z</time>
      </trkpt>
      <trkpt lat="47.05733" lon="16.07102">
        <ele>293.202481</ele>
        <time>2022-09-27T10:05:09.990Z</time>
      </trkpt>
      <trkpt lat="47.05728" lon="16.07115">
        <ele>293.21763</ele>
        <time>2022-09-27T10:05:12.996Z</time>
      </trkpt>
      <trkpt lat="47.05724" lon="16.07128">
        <ele>293.233077</ele>
        <time>2022-09-27T10:05:17.051Z</time>
      </trkpt>
      <trkpt lat="47.05719" lon="16.0714">
        <ele>293.247011</ele>
        <time>2022-09-27T10:05:20.073Z</time>
      </trkpt>
      <trkpt lat="47.05714" lon="16.07152">
        <ele>293.262613</ele>
        <time>2022-09-27T10:05:23.038Z</time>
      </trkpt>
      <trkpt lat="47.05708" lon="16.07167">
        <ele>293.280386</ele>
        <time>2022-09-27T10:05:26.007Z</time>
      </trkpt>
      <trkpt lat="47.05702" lon="16.07182">
        <ele>293.298787</ele>
        <time>2022-09-27T10:05:29.014Z</time>
      </trkpt>
      <trkpt lat="47.05696" lon="16.07196">
        <ele>293.316516</ele>
        <time>2022-09-27T10:05:31.987Z</time>
      </trkpt>
      <trkpt lat="47.05692" lon="16.07212">
        <ele>293.333887</ele>
        <time>2022-09-27T10:05:34.990Z</time>
      </trkpt>
      <trkpt lat="47.05688" lon="16.07226">
        <ele>293.349896</ele>
        <time>2022-09-27T10:05:39.053Z</time>
      </trkpt>
      <trkpt lat="47.0568" lon="16.07234">
        <ele>293.363981</ele>
        <time>2022-09-27T10:05:44.018Z</time>
      </trkpt>
      <trkpt lat="47.0567" lon="16.07244">
        <ele>293.382776</ele>
        <time>2022-09-27T10:05:49.009Z</time>
      </trkpt>
      <trkpt lat="47.05665" lon="16.0726">
        <ele>293.683889</ele>
        <time>2022-09-27T10:05:52.014Z</time>
      </trkpt>
      <trkpt lat="47.05664" lon="16.07279">
        <ele>294.131659</ele>
        <time>2022-09-27T10:05:55.093Z</time>
      </trkpt>
      <trkpt lat="47.05663" lon="16.07298">
        <ele>294.586976</ele>
        <time>2022-09-27T10:05:57.993Z</time>
      </trkpt>
      <trkpt lat="47.05662" lon="16.07314">
        <ele>294.981935</ele>
        <time>2022-09-27T10:06:01.008Z</time>
      </trkpt>
      <trkpt lat="47.0567" lon="16.07319">
        <ele>295.300903</ele>
        <time>2022-09-27T10:06:06.008Z</time>
      </trkpt>
      <trkpt lat="47.05677" lon="16.07307">
        <ele>295.672846</ele>
        <time>2022-09-27T10:06:09.003Z</time>
      </trkpt>
      <trkpt lat="47.05686" lon="16.07304">
        <ele>296.004783</ele>
        <time>2022-09-27T10:06:12.985Z</time>
      </trkpt>
      <trkpt lat="47.05697" lon="16.07308">
        <ele>296.402398</ele>
        <time>2022-09-27T10:06:17.098Z</time>
      </trkpt>
      <trkpt lat="47.05707" lon="16.07313">
        <ele>296.757534</ele>
        <time>2022-09-27T10:06:19.977Z</time>
      </trkpt>
      <trkpt lat="47.05716" lon="16.07319">
        <ele>297.117405</ele>
        <time>2022-09-27T10:06:23.005Z</time>
      </trkpt>
      <trkpt lat="47.05727" lon="16.07326">
        <ele>297.523276</ele>
        <time>2022-09-27T10:06:26.074Z</time>
      </trkpt>
      <trkpt lat="47.05738" lon="16.07335">
        <ele>297.960021</ele>
        <time>2022-09-27T10:06:29.038Z</time>
      </trkpt>
      <trkpt lat="47.05748" lon="16.07343">
        <ele>298.364088</ele>
        <time>2022-09-27T10:06:31.991Z</time>
      </trkpt>
      <trkpt lat="47.05756" lon="16.07352">
        <ele>298.73638</ele>
        <time>2022-09-27T10:06:36.010Z</time>
      </trkpt>
      <trkpt lat="47.05764" lon="16.07361">
        <ele>299.098733</ele>
        <time>2022-09-27T10:06:41.998Z</time>
      </trkpt>
      <trkpt lat="47.05771" lon="16.07373">
        <ele>299.473902</ele>
        <time>2022-09-27T10:06:46.037Z</time>
      </trkpt>
      <trkpt lat="47.05774" lon="16.07386">
        <ele>299.795419</ele>
        <time>2022-09-27T10:06:49.002Z</time>
      </trkpt>
      <trkpt lat="47.05773" lon="16.07402">
        <ele>300.162127</ele>
        <time>2022-09-27T10:06:52.039Z</time>
      </trkpt>
      <trkpt lat="47.05767" lon="16.07414">
        <ele>300.509093</ele>
        <time>2022-09-27T10:06:54.998Z</time>
      </trkpt>
      <trkpt lat="47.05761" lon="16.07425">
        <ele>300.821931</ele>
        <time>2022-09-27T10:06:58.014Z</time>
      </trkpt>
      <trkpt lat="47.05755" lon="16.07438">
        <ele>301.205836</ele>
        <time>2022-09-27T10:07:02.124Z</time>
      </trkpt>
      <trkpt lat="47.05748" lon="16.0745">
        <ele>301.580522</ele>
        <time>2022-09-27T10:07:05.976Z</time>
      </trkpt>
      <trkpt lat="47.05739" lon="16.0746">
        <ele>301.951098</ele>
        <time>2022-09-27T10:07:10.026Z</time>
      </trkpt>
      <trkpt lat="47.0574" lon="16.0748">
        <ele>302.41856</ele>
        <time>2022-09-27T10:12:23.002Z</time>
      </trkpt>
      <trkpt lat="47.05731" lon="16.07462">
        <ele>302.945433</ele>
        <time>2022-09-27T10:42:01.046Z</time>
      </trkpt>
      <trkpt lat="47.05757" lon="16.07428">
        <ele>304.148818</ele>
        <time>2022-09-27T10:45:42.998Z</time>
      </trkpt>
      <trkpt lat="47.05766" lon="16.07421">
        <ele>304.481039</ele>
        <time>2022-09-27T10:45:44.993Z</time>
      </trkpt>
      <trkpt lat="47.05778" lon="16.0742">
        <ele>304.893536</ele>
        <time>2022-09-27T10:45:49.006Z</time>
      </trkpt>
      <trkpt lat="47.05787" lon="16.07415">
        <ele>305.231018</ele>
        <time>2022-09-27T10:45:51.015Z</time>
      </trkpt>
      <trkpt lat="47.05796" lon="16.07409">
        <ele>305.577438</ele>
        <time>2022-09-27T10:45:53.022Z</time>
      </trkpt>
      <trkpt lat="47.05806" lon="16.07404">
        <ele>305.727859</ele>
        <time>2022-09-27T10:45:55.003Z</time>
      </trkpt>
      <trkpt lat="47.05815" lon="16.07398">
        <ele>305.050177</ele>
        <time>2022-09-27T10:45:56.994Z</time>
      </trkpt>
      <trkpt lat="47.05826" lon="16.0739">
        <ele>304.227593</ele>
        <time>2022-09-27T10:46:00.014Z</time>
      </trkpt>
      <trkpt lat="47.05837" lon="16.07385">
        <ele>303.452008</ele>
        <time>2022-09-27T10:46:03.000Z</time>
      </trkpt>
      <trkpt lat="47.05848" lon="16.07376">
        <ele>302.627329</ele>
        <time>2022-09-27T10:46:06.020Z</time>
      </trkpt>
      <trkpt lat="47.05854" lon="16.07362">
        <ele>301.859664</ele>
        <time>2022-09-27T10:46:09.018Z</time>
      </trkpt>
      <trkpt lat="47.05852" lon="16.07348">
        <ele>301.158665</ele>
        <time>2022-09-27T10:46:12.051Z</time>
      </trkpt>
      <trkpt lat="47.05842" lon="16.07343">
        <ele>300.458844</ele>
        <time>2022-09-27T10:46:15.002Z</time>
      </trkpt>
      <trkpt lat="47.0583" lon="16.07341">
        <ele>299.667763</ele>
        <time>2022-09-27T10:46:18.037Z</time>
      </trkpt>
      <trkpt lat="47.0582" lon="16.07336">
        <ele>298.956854</ele>
        <time>2022-09-27T10:46:21.016Z</time>
      </trkpt>
      <trkpt lat="47.0581" lon="16.0733">
        <ele>298.240159</ele>
        <time>2022-09-27T10:46:24.016Z</time>
      </trkpt>
      <trkpt lat="47.058" lon="16.07323">
        <ele>297.46068</ele>
        <time>2022-09-27T10:46:27.005Z</time>
      </trkpt>
      <trkpt lat="47.05788" lon="16.07316">
        <ele>296.592719</ele>
        <time>2022-09-27T10:46:30.013Z</time>
      </trkpt>
      <trkpt lat="47.05775" lon="16.0731">
        <ele>295.696998</ele>
        <time>2022-09-27T10:46:33.026Z</time>
      </trkpt>
      <trkpt lat="47.05762" lon="16.07307">
        <ele>294.818351</ele>
        <time>2022-09-27T10:46:36.024Z</time>
      </trkpt>
      <trkpt lat="47.05749" lon="16.07304">
        <ele>293.920566</ele>
        <time>2022-09-27T10:46:39.020Z</time>
      </trkpt>
      <trkpt lat="47.05739" lon="16.07302">
        <ele>294.039002</ele>
        <time>2022-09-27T10:46:41.009Z</time>
      </trkpt>
      <trkpt lat="47.05729" lon="16.07299">
        <ele>294.365656</ele>
        <time>2022-09-27T10:46:43.019Z</time>
      </trkpt>
      <trkpt lat="47.0572" lon="16.07296">
        <ele>294.679548</ele>
        <time>2022-09-27T10:46:45.025Z</time>
      </trkpt>
      <trkpt lat="47.05711" lon="16.07291">
        <ele>294.991758</ele>
        <time>2022-09-27T10:46:47.028Z</time>
      </trkpt>
      <trkpt lat="47.057" lon="16.0728">
        <ele>295.426686</ele>
        <time>2022-09-27T10:46:50.016Z</time>
      </trkpt>
      <trkpt lat="47.05693" lon="16.07265">
        <ele>295.838391</ele>
        <time>2022-09-27T10:46:53.012Z</time>
      </trkpt>
      <trkpt lat="47.05684" lon="16.07252">
        <ele>296.264867</ele>
        <time>2022-09-27T10:46:56.015Z</time>
      </trkpt>
      <trkpt lat="47.05676" lon="16.07247">
        <ele>296.569324</ele>
        <time>2022-09-27T10:46:58.008Z</time>
      </trkpt>
      <trkpt lat="47.05666" lon="16.07248">
        <ele>296.874125</ele>
        <time>2022-09-27T10:47:00.014Z</time>
      </trkpt>
      <trkpt lat="47.05657" lon="16.07247">
        <ele>297.183012</ele>
        <time>2022-09-27T10:47:02.018Z</time>
      </trkpt>
      <trkpt lat="47.05647" lon="16.07244">
        <ele>297.513342</ele>
        <time>2022-09-27T10:47:03.997Z</time>
      </trkpt>
      <trkpt lat="47.05635" lon="16.0724">
        <ele>297.91165</ele>
        <time>2022-09-27T10:47:07.004Z</time>
      </trkpt>
      <trkpt lat="47.05624" lon="16.07242">
        <ele>298.2898</ele>
        <time>2022-09-27T10:47:10.017Z</time>
      </trkpt>
      <trkpt lat="47.05609" lon="16.07247">
        <ele>298.814873</ele>
        <time>2022-09-27T10:55:36.018Z</time>
      </trkpt>
      <trkpt lat="47.05598" lon="16.0725">
        <ele>299.176168</ele>
        <time>2022-09-27T10:55:40.018Z</time>
      </trkpt>
      <trkpt lat="47.05588" lon="16.07252">
        <ele>299.51695</ele>
        <time>2022-09-27T10:55:44.005Z</time>
      </trkpt>
      <trkpt lat="47.05576" lon="16.07255">
        <ele>299.80677</ele>
        <time>2022-09-27T10:55:48.011Z</time>
      </trkpt>
      <trkpt lat="47.05564" lon="16.07257">
        <ele>299.959915</ele>
        <time>2022-09-27T10:55:51.014Z</time>
      </trkpt>
      <trkpt lat="47.05553" lon="16.0726">
        <ele>300.099405</ele>
        <time>2022-09-27T10:55:54.014Z</time>
      </trkpt>
      <trkpt lat="47.05543" lon="16.07261">
        <ele>300.237128</ele>
        <time>2022-09-27T10:55:57.000Z</time>
      </trkpt>
      <trkpt lat="47.05533" lon="16.07263">
        <ele>300.361825</ele>
        <time>2022-09-27T10:56:00.053Z</time>
      </trkpt>
      <trkpt lat="47.05524" lon="16.07264">
        <ele>300.484454</ele>
        <time>2022-09-27T10:56:03.004Z</time>
      </trkpt>
      <trkpt lat="47.05513" lon="16.07265">
        <ele>300.627926</ele>
        <time>2022-09-27T10:56:05.988Z</time>
      </trkpt>
      <trkpt lat="47.05502" lon="16.07265">
        <ele>300.772436</ele>
        <time>2022-09-27T10:56:09.013Z</time>
      </trkpt>
      <trkpt lat="47.05491" lon="16.07265">
        <ele>300.917069</ele>
        <time>2022-09-27T10:56:11.990Z</time>
      </trkpt>
      <trkpt lat="47.05481" lon="16.07262">
        <ele>301.05141</ele>
        <time>2022-09-27T10:56:15.007Z</time>
      </trkpt>
      <trkpt lat="47.05468" lon="16.07256">
        <ele>301.220078</ele>
        <time>2022-09-27T10:56:17.988Z</time>
      </trkpt>
      <trkpt lat="47.05458" lon="16.07249">
        <ele>301.374608</ele>
        <time>2022-09-27T10:56:21.000Z</time>
      </trkpt>
      <trkpt lat="47.05448" lon="16.0724">
        <ele>301.519135</ele>
        <time>2022-09-27T10:56:24.002Z</time>
      </trkpt>
      <trkpt lat="47.05439" lon="16.0723">
        <ele>301.668166</ele>
        <time>2022-09-27T10:56:26.998Z</time>
      </trkpt>
      <trkpt lat="47.05429" lon="16.07222">
        <ele>301.813607</ele>
        <time>2022-09-27T10:56:31.002Z</time>
      </trkpt>
      <trkpt lat="47.05419" lon="16.07214">
        <ele>301.957165</ele>
        <time>2022-09-27T10:56:35.005Z</time>
      </trkpt>
      <trkpt lat="47.05409" lon="16.07207">
        <ele>302.229756</ele>
        <time>2022-09-27T10:56:38.999Z</time>
      </trkpt>
      <trkpt lat="47.05399" lon="16.07201">
        <ele>302.967157</ele>
        <time>2022-09-27T10:56:43.025Z</time>
      </trkpt>
      <trkpt lat="47.0539" lon="16.07194">
        <ele>303.646463</ele>
        <time>2022-09-27T10:56:47.006Z</time>
      </trkpt>
      <trkpt lat="47.05382" lon="16.07188">
        <ele>304.261646</ele>
        <time>2022-09-27T10:56:51.000Z</time>
      </trkpt>
      <trkpt lat="47.05373" lon="16.0718">
        <ele>304.953676</ele>
        <time>2022-09-27T10:56:56.000Z</time>
      </trkpt>
      <trkpt lat="47.05366" lon="16.07171">
        <ele>305.57278</ele>
        <time>2022-09-27T10:57:00.998Z</time>
      </trkpt>
      <trkpt lat="47.05359" lon="16.07162">
        <ele>306.18159</ele>
        <time>2022-09-27T10:57:07.000Z</time>
      </trkpt>
      <trkpt lat="47.05351" lon="16.07154">
        <ele>306.841348</ele>
        <time>2022-09-27T10:57:14.013Z</time>
      </trkpt>
      <trkpt lat="47.05343" lon="16.07146">
        <ele>307.465094</ele>
        <time>2022-09-27T10:57:21.014Z</time>
      </trkpt>
      <trkpt lat="47.05335" lon="16.07141">
        <ele>308.086477</ele>
        <time>2022-09-27T10:57:30.002Z</time>
      </trkpt>
      <trkpt lat="47.05326" lon="16.07137">
        <ele>308.712331</ele>
        <time>2022-09-27T10:57:38.003Z</time>
      </trkpt>
      <trkpt lat="47.05316" lon="16.07133">
        <ele>309.377886</ele>
        <time>2022-09-27T10:57:45.000Z</time>
      </trkpt>
      <trkpt lat="47.05307" lon="16.07129">
        <ele>309.993584</ele>
        <time>2022-09-27T10:57:51.999Z</time>
      </trkpt>
      <trkpt lat="47.05297" lon="16.07126">
        <ele>310.670661</ele>
        <time>2022-09-27T10:57:59.013Z</time>
      </trkpt>
      <trkpt lat="47.05287" lon="16.07126">
        <ele>311.351176</ele>
        <time>2022-09-27T10:58:06.013Z</time>
      </trkpt>
      <trkpt lat="47.05277" lon="16.07122">
        <ele>312.091007</ele>
        <time>2022-09-27T10:58:12.019Z</time>
      </trkpt>
      <trkpt lat="47.05267" lon="16.07117">
        <ele>312.737469</ele>
        <time>2022-09-27T10:58:17.005Z</time>
      </trkpt>
      <trkpt lat="47.05259" lon="16.07112">
        <ele>313.368292</ele>
        <time>2022-09-27T10:58:23.000Z</time>
      </trkpt>
      <trkpt lat="47.05249" lon="16.07112">
        <ele>314.028696</ele>
        <time>2022-09-27T10:58:31.008Z</time>
      </trkpt>
      <trkpt lat="47.05238" lon="16.07112">
        <ele>314.36392</ele>
        <time>2022-09-27T10:58:38.008Z</time>
      </trkpt>
      <trkpt lat="47.05228" lon="16.07115">
        <ele>314.686909</ele>
        <time>2022-09-27T10:58:44.000Z</time>
      </trkpt>
      <trkpt lat="47.05219" lon="16.07121">
        <ele>314.998233</ele>
        <time>2022-09-27T10:58:49.012Z</time>
      </trkpt>
      <trkpt lat="47.05211" lon="16.07132">
        <ele>315.320709</ele>
        <time>2022-09-27T10:58:54.012Z</time>
      </trkpt>
      <trkpt lat="47.05204" lon="16.0714">
        <ele>315.601399</ele>
        <time>2022-09-27T10:58:58.008Z</time>
      </trkpt>
      <trkpt lat="47.05196" lon="16.07147">
        <ele>315.883435</ele>
        <time>2022-09-27T10:59:01.981Z</time>
      </trkpt>
      <trkpt lat="47.05195" lon="16.07161">
        <ele>316.16213</ele>
        <time>2022-09-27T10:59:06.005Z</time>
      </trkpt>
      <trkpt lat="47.05194" lon="16.07176">
        <ele>316.468635</ele>
        <time>2022-09-27T10:59:10.987Z</time>
      </trkpt>
      <trkpt lat="47.05191" lon="16.0719">
        <ele>316.782303</ele>
        <time>2022-09-27T10:59:15.999Z</time>
      </trkpt>
      <trkpt lat="47.05188" lon="16.07205">
        <ele>317.100086</ele>
        <time>2022-09-27T10:59:21.033Z</time>
      </trkpt>
      <trkpt lat="47.05187" lon="16.0722">
        <ele>317.426633</ele>
        <time>2022-09-27T10:59:25.026Z</time>
      </trkpt>
      <trkpt lat="47.05185" lon="16.07235">
        <ele>317.737136</ele>
        <time>2022-09-27T10:59:28.996Z</time>
      </trkpt>
      <trkpt lat="47.05179" lon="16.07249">
        <ele>318.078038</ele>
        <time>2022-09-27T10:59:33.995Z</time>
      </trkpt>
      <trkpt lat="47.05177" lon="16.07265">
        <ele>318.409672</ele>
        <time>2022-09-27T10:59:37.996Z</time>
      </trkpt>
      <trkpt lat="47.05177" lon="16.07279">
        <ele>318.714229</ele>
        <time>2022-09-27T10:59:42.012Z</time>
      </trkpt>
      <trkpt lat="47.05178" lon="16.07295">
        <ele>319.037987</ele>
        <time>2022-09-27T10:59:46.011Z</time>
      </trkpt>
      <trkpt lat="47.05176" lon="16.07309">
        <ele>319.340925</ele>
        <time>2022-09-27T10:59:50.004Z</time>
      </trkpt>
      <trkpt lat="47.0517" lon="16.07324">
        <ele>319.719375</ele>
        <time>2022-09-27T10:59:54.022Z</time>
      </trkpt>
      <trkpt lat="47.05166" lon="16.07337">
        <ele>320.058339</ele>
        <time>2022-09-27T10:59:57.003Z</time>
      </trkpt>
      <trkpt lat="47.05163" lon="16.07349">
        <ele>320.392074</ele>
        <time>2022-09-27T11:00:00.007Z</time>
      </trkpt>
      <trkpt lat="47.05161" lon="16.07366">
        <ele>320.795859</ele>
        <time>2022-09-27T11:00:04.021Z</time>
      </trkpt>
      <trkpt lat="47.05161" lon="16.07382">
        <ele>321.175915</ele>
        <time>2022-09-27T11:00:08.997Z</time>
      </trkpt>
      <trkpt lat="47.05158" lon="16.07396">
        <ele>321.540202</ele>
        <time>2022-09-27T11:00:12.999Z</time>
      </trkpt>
      <trkpt lat="47.05156" lon="16.07413">
        <ele>321.952731</ele>
        <time>2022-09-27T11:00:17.008Z</time>
      </trkpt>
      <trkpt lat="47.0515" lon="16.07425">
        <ele>322.332664</ele>
        <time>2022-09-27T11:00:21.012Z</time>
      </trkpt>
      <trkpt lat="47.0514" lon="16.07442">
        <ele>322.854742</ele>
        <time>2022-09-27T11:00:24.993Z</time>
      </trkpt>
      <trkpt lat="47.05132" lon="16.07451">
        <ele>323.218652</ele>
        <time>2022-09-27T11:00:27.005Z</time>
      </trkpt>
      <trkpt lat="47.05123" lon="16.07461">
        <ele>323.643087</ele>
        <time>2022-09-27T11:00:31.006Z</time>
      </trkpt>
      <trkpt lat="47.05114" lon="16.07469">
        <ele>324.005571</ele>
        <time>2022-09-27T11:00:34.023Z</time>
      </trkpt>
      <trkpt lat="47.05107" lon="16.0748">
        <ele>324.375398</ele>
        <time>2022-09-27T11:00:37.998Z</time>
      </trkpt>
      <trkpt lat="47.05098" lon="16.07492">
        <ele>324.79109</ele>
        <time>2022-09-27T11:00:42.018Z</time>
      </trkpt>
      <trkpt lat="47.05094" lon="16.07503">
        <ele>325.111376</ele>
        <time>2022-09-27T11:00:45.017Z</time>
      </trkpt>
      <trkpt lat="47.05089" lon="16.07519">
        <ele>325.527633</ele>
        <time>2022-09-27T11:00:49.007Z</time>
      </trkpt>
      <trkpt lat="47.05083" lon="16.07533">
        <ele>325.923373</ele>
        <time>2022-09-27T11:00:53.027Z</time>
      </trkpt>
      <trkpt lat="47.05081" lon="16.07549">
        <ele>326.010018</ele>
        <time>2022-09-27T11:00:57.045Z</time>
      </trkpt>
      <trkpt lat="47.05079" lon="16.07564">
        <ele>326.061826</ele>
        <time>2022-09-27T11:00:59.998Z</time>
      </trkpt>
      <trkpt lat="47.05074" lon="16.07576">
        <ele>326.113602</ele>
        <time>2022-09-27T11:01:03.053Z</time>
      </trkpt>
      <trkpt lat="47.05069" lon="16.07588">
        <ele>326.163454</ele>
        <time>2022-09-27T11:01:06.014Z</time>
      </trkpt>
      <trkpt lat="47.05065" lon="16.07602">
        <ele>326.219859</ele>
        <time>2022-09-27T11:01:09.024Z</time>
      </trkpt>
      <trkpt lat="47.0506" lon="16.07616">
        <ele>326.272898</ele>
        <time>2022-09-27T11:01:12.037Z</time>
      </trkpt>
      <trkpt lat="47.05056" lon="16.07629">
        <ele>326.32481</ele>
        <time>2022-09-27T11:01:15.037Z</time>
      </trkpt>
      <trkpt lat="47.05052" lon="16.0764">
        <ele>326.373039</ele>
        <time>2022-09-27T11:01:18.019Z</time>
      </trkpt>
      <trkpt lat="47.05047" lon="16.07653">
        <ele>326.422157</ele>
        <time>2022-09-27T11:01:21.020Z</time>
      </trkpt>
      <trkpt lat="47.05041" lon="16.07667">
        <ele>326.483672</ele>
        <time>2022-09-27T11:01:25.026Z</time>
      </trkpt>
      <trkpt lat="47.05034" lon="16.07681">
        <ele>326.546345</ele>
        <time>2022-09-27T11:01:29.013Z</time>
      </trkpt>
      <trkpt lat="47.05028" lon="16.07695">
        <ele>326.607525</ele>
        <time>2022-09-27T11:01:33.020Z</time>
      </trkpt>
      <trkpt lat="47.05025" lon="16.07712">
        <ele>326.67015</ele>
        <time>2022-09-27T11:01:37.013Z</time>
      </trkpt>
      <trkpt lat="47.05023" lon="16.0773">
        <ele>326.733136</ele>
        <time>2022-09-27T11:01:41.031Z</time>
      </trkpt>
      <trkpt lat="47.05019" lon="16.07744">
        <ele>326.790416</ele>
        <time>2022-09-27T11:01:45.007Z</time>
      </trkpt>
      <trkpt lat="47.05011" lon="16.07758">
        <ele>326.851457</ele>
        <time>2022-09-27T11:01:49.037Z</time>
      </trkpt>
      <trkpt lat="47.05007" lon="16.07772">
        <ele>326.87742</ele>
        <time>2022-09-27T11:01:53.999Z</time>
      </trkpt>
      <trkpt lat="47.05002" lon="16.07785">
        <ele>326.701846</ele>
        <time>2022-09-27T11:01:57.022Z</time>
      </trkpt>
      <trkpt lat="47.04997" lon="16.078">
        <ele>326.503828</ele>
        <time>2022-09-27T11:02:02.055Z</time>
      </trkpt>
      <trkpt lat="47.04988" lon="16.07811">
        <ele>326.304762</ele>
        <time>2022-09-27T11:02:06.020Z</time>
      </trkpt>
      <trkpt lat="47.04979" lon="16.07816">
        <ele>326.136717</ele>
        <time>2022-09-27T11:02:08.992Z</time>
      </trkpt>
      <trkpt lat="47.04968" lon="16.0782">
        <ele>325.938088</ele>
        <time>2022-09-27T11:02:12.028Z</time>
      </trkpt>
      <trkpt lat="47.04957" lon="16.07827">
        <ele>325.729875</ele>
        <time>2022-09-27T11:02:15.014Z</time>
      </trkpt>
      <trkpt lat="47.04947" lon="16.07838">
        <ele>325.5092</ele>
        <time>2022-09-27T11:02:18.038Z</time>
      </trkpt>
      <trkpt lat="47.04938" lon="16.07844">
        <ele>325.344175</ele>
        <time>2022-09-27T11:02:20.017Z</time>
      </trkpt>
      <trkpt lat="47.04927" lon="16.07853">
        <ele>325.11779</ele>
        <time>2022-09-27T11:02:23.028Z</time>
      </trkpt>
      <trkpt lat="47.04914" lon="16.07863">
        <ele>324.876096</ele>
        <time>2022-09-27T11:02:26.051Z</time>
      </trkpt>
      <trkpt lat="47.04906" lon="16.0787">
        <ele>324.711527</ele>
        <time>2022-09-27T11:02:28.007Z</time>
      </trkpt>
      <trkpt lat="47.04895" lon="16.07881">
        <ele>324.479431</ele>
        <time>2022-09-27T11:02:30.986Z</time>
      </trkpt>
      <trkpt lat="47.04887" lon="16.07888">
        <ele>324.313978</ele>
        <time>2022-09-27T11:02:33.026Z</time>
      </trkpt>
      <trkpt lat="47.04877" lon="16.07894">
        <ele>324.122118</ele>
        <time>2022-09-27T11:02:35.998Z</time>
      </trkpt>
      <trkpt lat="47.04869" lon="16.07903">
        <ele>323.953286</ele>
        <time>2022-09-27T11:02:39.003Z</time>
      </trkpt>
      <trkpt lat="47.04867" lon="16.07917">
        <ele>323.777038</ele>
        <time>2022-09-27T11:02:42.011Z</time>
      </trkpt>
      <trkpt lat="47.04864" lon="16.07931">
        <ele>323.860308</ele>
        <time>2022-09-27T11:02:45.047Z</time>
      </trkpt>
      <trkpt lat="47.04855" lon="16.07944">
        <ele>323.968429</ele>
        <time>2022-09-27T11:02:48.024Z</time>
      </trkpt>
      <trkpt lat="47.04847" lon="16.07957">
        <ele>324.074075</ele>
        <time>2022-09-27T11:02:51.016Z</time>
      </trkpt>
      <trkpt lat="47.04841" lon="16.07971">
        <ele>324.176076</ele>
        <time>2022-09-27T11:02:54.026Z</time>
      </trkpt>
      <trkpt lat="47.04829" lon="16.07981">
        <ele>324.295663</ele>
        <time>2022-09-27T11:02:57.020Z</time>
      </trkpt>
      <trkpt lat="47.04821" lon="16.07988">
        <ele>324.378076</ele>
        <time>2022-09-27T11:02:59.026Z</time>
      </trkpt>
      <trkpt lat="47.04809" lon="16.07996">
        <ele>324.487854</ele>
        <time>2022-09-27T11:03:02.033Z</time>
      </trkpt>
      <trkpt lat="47.048" lon="16.08001">
        <ele>324.572488</ele>
        <time>2022-09-27T11:03:05.015Z</time>
      </trkpt>
      <trkpt lat="47.04794" lon="16.08012">
        <ele>324.65985</ele>
        <time>2022-09-27T11:03:09.990Z</time>
      </trkpt>
      <trkpt lat="47.04788" lon="16.08023">
        <ele>324.742521</ele>
        <time>2022-09-27T11:03:13.020Z</time>
      </trkpt>
      <trkpt lat="47.04781" lon="16.08033">
        <ele>324.830531</ele>
        <time>2022-09-27T11:03:16.017Z</time>
      </trkpt>
      <trkpt lat="47.04772" lon="16.08043">
        <ele>324.927178</ele>
        <time>2022-09-27T11:03:20.005Z</time>
      </trkpt>
      <trkpt lat="47.04768" lon="16.08056">
        <ele>325.011345</ele>
        <time>2022-09-27T11:03:23.061Z</time>
      </trkpt>
      <trkpt lat="47.04772" lon="16.0807">
        <ele>325.10532</ele>
        <time>2022-09-27T11:03:25.998Z</time>
      </trkpt>
      <trkpt lat="47.0478" lon="16.08081">
        <ele>325.201266</ele>
        <time>2022-09-27T11:03:29.019Z</time>
      </trkpt>
      <trkpt lat="47.04786" lon="16.08096">
        <ele>325.301073</ele>
        <time>2022-09-27T11:03:32.000Z</time>
      </trkpt>
      <trkpt lat="47.04793" lon="16.08111">
        <ele>325.100956</ele>
        <time>2022-09-27T11:03:35.006Z</time>
      </trkpt>
      <trkpt lat="47.048" lon="16.08125">
        <ele>324.628148</ele>
        <time>2022-09-27T11:03:38.039Z</time>
      </trkpt>
      <trkpt lat="47.04809" lon="16.0814">
        <ele>324.128805</ele>
        <time>2022-09-27T11:03:41.016Z</time>
      </trkpt>
      <trkpt lat="47.04814" lon="16.08151">
        <ele>323.778404</ele>
        <time>2022-09-27T11:03:43.001Z</time>
      </trkpt>
      <trkpt lat="47.04819" lon="16.08163">
        <ele>323.406481</ele>
        <time>2022-09-27T11:03:45.005Z</time>
      </trkpt>
      <trkpt lat="47.04825" lon="16.08175">
        <ele>323.027705</ele>
        <time>2022-09-27T11:03:47.011Z</time>
      </trkpt>
      <trkpt lat="47.0483" lon="16.08188">
        <ele>322.653589</ele>
        <time>2022-09-27T11:03:49.027Z</time>
      </trkpt>
      <trkpt lat="47.04837" lon="16.08204">
        <ele>322.160175</ele>
        <time>2022-09-27T11:03:51.997Z</time>
      </trkpt>
      <trkpt lat="47.04843" lon="16.08221">
        <ele>321.663605</ele>
        <time>2022-09-27T11:03:55.003Z</time>
      </trkpt>
      <trkpt lat="47.04845" lon="16.08234">
        <ele>321.313271</ele>
        <time>2022-09-27T11:03:57.009Z</time>
      </trkpt>
      <trkpt lat="47.04845" lon="16.08247">
        <ele>320.972113</ele>
        <time>2022-09-27T11:03:59.005Z</time>
      </trkpt>
      <trkpt lat="47.04843" lon="16.0826">
        <ele>320.624296</ele>
        <time>2022-09-27T11:04:01.004Z</time>
      </trkpt>
      <trkpt lat="47.0484" lon="16.08274">
        <ele>320.247543</ele>
        <time>2022-09-27T11:04:03.004Z</time>
      </trkpt>
      <trkpt lat="47.04837" lon="16.08287">
        <ele>319.883</ele>
        <time>2022-09-27T11:04:05.008Z</time>
      </trkpt>
      <trkpt lat="47.04832" lon="16.08306">
        <ele>319.374822</ele>
        <time>2022-09-27T11:04:08.006Z</time>
      </trkpt>
      <trkpt lat="47.04828" lon="16.08318">
        <ele>319.01924</ele>
        <time>2022-09-27T11:04:10.001Z</time>
      </trkpt>
      <trkpt lat="47.04822" lon="16.08335">
        <ele>318.526922</ele>
        <time>2022-09-27T11:04:13.017Z</time>
      </trkpt>
      <trkpt lat="47.04819" lon="16.08348">
        <ele>318.267405</ele>
        <time>2022-09-27T11:04:15.046Z</time>
      </trkpt>
      <trkpt lat="47.04818" lon="16.08363">
        <ele>317.965231</ele>
        <time>2022-09-27T11:04:17.997Z</time>
      </trkpt>
      <trkpt lat="47.04818" lon="16.08381">
        <ele>317.610383</ele>
        <time>2022-09-27T11:04:21.006Z</time>
      </trkpt>
      <trkpt lat="47.04817" lon="16.08395">
        <ele>317.337218</ele>
        <time>2022-09-27T11:04:23.017Z</time>
      </trkpt>
      <trkpt lat="47.04817" lon="16.08409">
        <ele>317.064234</ele>
        <time>2022-09-27T11:04:25.015Z</time>
      </trkpt>
      <trkpt lat="47.04817" lon="16.08423">
        <ele>316.791174</ele>
        <time>2022-09-27T11:04:27.006Z</time>
      </trkpt>
      <trkpt lat="47.04816" lon="16.08438">
        <ele>316.508997</ele>
        <time>2022-09-27T11:04:28.991Z</time>
      </trkpt>
      <trkpt lat="47.04815" lon="16.08451">
        <ele>316.250652</ele>
        <time>2022-09-27T11:04:31.021Z</time>
      </trkpt>
      <trkpt lat="47.04813" lon="16.0847">
        <ele>315.869639</ele>
        <time>2022-09-27T11:04:33.999Z</time>
      </trkpt>
      <trkpt lat="47.04811" lon="16.0849">
        <ele>315.478076</ele>
        <time>2022-09-27T11:04:37.004Z</time>
      </trkpt>
      <trkpt lat="47.04807" lon="16.08506">
        <ele>315.136528</ele>
        <time>2022-09-27T11:04:39.016Z</time>
      </trkpt>
      <trkpt lat="47.04803" lon="16.08522">
        <ele>314.817062</ele>
        <time>2022-09-27T11:04:41.007Z</time>
      </trkpt>
      <trkpt lat="47.04799" lon="16.08538">
        <ele>314.474496</ele>
        <time>2022-09-27T11:04:43.004Z</time>
      </trkpt>
      <trkpt lat="47.04795" lon="16.0856">
        <ele>314.043008</ele>
        <time>2022-09-27T11:04:45.010Z</time>
      </trkpt>
      <trkpt lat="47.0479" lon="16.08582">
        <ele>313.585312</ele>
        <time>2022-09-27T11:04:47.003Z</time>
      </trkpt>
      <trkpt lat="47.04786" lon="16.08606">
        <ele>312.809433</ele>
        <time>2022-09-27T11:04:49.003Z</time>
      </trkpt>
      <trkpt lat="47.04784" lon="16.08633">
        <ele>311.668924</ele>
        <time>2022-09-27T11:04:51.007Z</time>
      </trkpt>
      <trkpt lat="47.04783" lon="16.08648">
        <ele>311.066802</ele>
        <time>2022-09-27T11:04:52.039Z</time>
      </trkpt>
      <trkpt lat="47.04782" lon="16.08662">
        <ele>310.472348</ele>
        <time>2022-09-27T11:04:53.014Z</time>
      </trkpt>
      <trkpt lat="47.04782" lon="16.08677">
        <ele>309.878624</ele>
        <time>2022-09-27T11:04:54.064Z</time>
      </trkpt>
      <trkpt lat="47.04783" lon="16.08691">
        <ele>309.2894</ele>
        <time>2022-09-27T11:04:55.056Z</time>
      </trkpt>
      <trkpt lat="47.04785" lon="16.08706">
        <ele>308.686982</ele>
        <time>2022-09-27T11:04:56.023Z</time>
      </trkpt>
      <trkpt lat="47.04787" lon="16.0872">
        <ele>308.081246</ele>
        <time>2022-09-27T11:04:57.006Z</time>
      </trkpt>
      <trkpt lat="47.04789" lon="16.08734">
        <ele>307.502066</ele>
        <time>2022-09-27T11:04:58.016Z</time>
      </trkpt>
      <trkpt lat="47.04793" lon="16.08747">
        <ele>306.932769</ele>
        <time>2022-09-27T11:04:59.081Z</time>
      </trkpt>
      <trkpt lat="47.04797" lon="16.08759">
        <ele>306.38041</ele>
        <time>2022-09-27T11:05:00.008Z</time>
      </trkpt>
      <trkpt lat="47.04807" lon="16.08781">
        <ele>305.303849</ele>
        <time>2022-09-27T11:05:02.024Z</time>
      </trkpt>
      <trkpt lat="47.04816" lon="16.08801">
        <ele>304.318166</ele>
        <time>2022-09-27T11:05:04.120Z</time>
      </trkpt>
      <trkpt lat="47.04823" lon="16.0882">
        <ele>303.441022</ele>
        <time>2022-09-27T11:05:06.004Z</time>
      </trkpt>
      <trkpt lat="47.04829" lon="16.08839">
        <ele>302.569795</ele>
        <time>2022-09-27T11:05:08.091Z</time>
      </trkpt>
      <trkpt lat="47.04836" lon="16.08859">
        <ele>301.844577</ele>
        <time>2022-09-27T11:05:10.026Z</time>
      </trkpt>
      <trkpt lat="47.04841" lon="16.08879">
        <ele>301.149125</ele>
        <time>2022-09-27T11:05:12.059Z</time>
      </trkpt>
      <trkpt lat="47.04844" lon="16.08898">
        <ele>300.512909</ele>
        <time>2022-09-27T11:05:14.061Z</time>
      </trkpt>
      <trkpt lat="47.04847" lon="16.08915">
        <ele>299.936713</ele>
        <time>2022-09-27T11:05:16.025Z</time>
      </trkpt>
      <trkpt lat="47.04849" lon="16.08932">
        <ele>299.389133</ele>
        <time>2022-09-27T11:05:18.019Z</time>
      </trkpt>
      <trkpt lat="47.04852" lon="16.08948">
        <ele>298.825654</ele>
        <time>2022-09-27T11:05:20.066Z</time>
      </trkpt>
      <trkpt lat="47.04854" lon="16.08966">
        <ele>298.250253</ele>
        <time>2022-09-27T11:05:22.041Z</time>
      </trkpt>
      <trkpt lat="47.04857" lon="16.08982">
        <ele>297.690825</ele>
        <time>2022-09-27T11:05:24.092Z</time>
      </trkpt>
      <trkpt lat="47.04861" lon="16.08996">
        <ele>297.218835</ele>
        <time>2022-09-27T11:05:26.015Z</time>
      </trkpt>
      <trkpt lat="47.04866" lon="16.09007">
        <ele>296.779101</ele>
        <time>2022-09-27T11:05:28.017Z</time>
      </trkpt>
      <trkpt lat="47.04875" lon="16.0902">
        <ele>296.159186</ele>
        <time>2022-09-27T11:05:31.012Z</time>
      </trkpt>
      <trkpt lat="47.04886" lon="16.09027">
        <ele>295.575296</ele>
        <time>2022-09-27T11:05:34.014Z</time>
      </trkpt>
      <trkpt lat="47.049" lon="16.09031">
        <ele>294.9067</ele>
        <time>2022-09-27T11:05:37.019Z</time>
      </trkpt>
      <trkpt lat="47.04912" lon="16.09037">
        <ele>294.288153</ele>
        <time>2022-09-27T11:05:40.052Z</time>
      </trkpt>
      <trkpt lat="47.0492" lon="16.09047">
        <ele>293.973002</ele>
        <time>2022-09-27T11:05:42.009Z</time>
      </trkpt>
      <trkpt lat="47.04926" lon="16.09058">
        <ele>294.023171</ele>
        <time>2022-09-27T11:05:44.025Z</time>
      </trkpt>
      <trkpt lat="47.0493" lon="16.09071">
        <ele>294.075346</ele>
        <time>2022-09-27T11:05:45.990Z</time>
      </trkpt>
      <trkpt lat="47.04935" lon="16.09084">
        <ele>294.127043</ele>
        <time>2022-09-27T11:05:48.004Z</time>
      </trkpt>
      <trkpt lat="47.0494" lon="16.09097">
        <ele>294.17768</ele>
        <time>2022-09-27T11:05:50.051Z</time>
      </trkpt>
      <trkpt lat="47.04945" lon="16.09109">
        <ele>294.226843</ele>
        <time>2022-09-27T11:05:52.015Z</time>
      </trkpt>
      <trkpt lat="47.04949" lon="16.09121">
        <ele>294.275092</ele>
        <time>2022-09-27T11:05:54.022Z</time>
      </trkpt>
      <trkpt lat="47.04954" lon="16.09133">
        <ele>294.322894</ele>
        <time>2022-09-27T11:05:56.041Z</time>
      </trkpt>
      <trkpt lat="47.04958" lon="16.09145">
        <ele>294.371315</ele>
        <time>2022-09-27T11:05:58.016Z</time>
      </trkpt>
      <trkpt lat="47.04962" lon="16.09157">
        <ele>294.4185</ele>
        <time>2022-09-27T11:06:00.100Z</time>
      </trkpt>
      <trkpt lat="47.04967" lon="16.09169">
        <ele>294.466241</ele>
        <time>2022-09-27T11:06:02.017Z</time>
      </trkpt>
      <trkpt lat="47.04972" lon="16.09181">
        <ele>294.514449</ele>
        <time>2022-09-27T11:06:04.011Z</time>
      </trkpt>
      <trkpt lat="47.04977" lon="16.09192">
        <ele>294.562864</ele>
        <time>2022-09-27T11:06:06.012Z</time>
      </trkpt>
      <trkpt lat="47.04982" lon="16.09204">
        <ele>294.612239</ele>
        <time>2022-09-27T11:06:08.018Z</time>
      </trkpt>
      <trkpt lat="47.04987" lon="16.09216">
        <ele>294.661096</ele>
        <time>2022-09-27T11:06:10.021Z</time>
      </trkpt>
      <trkpt lat="47.04991" lon="16.09228">
        <ele>294.707919</ele>
        <time>2022-09-27T11:06:12.006Z</time>
      </trkpt>
      <trkpt lat="47.04996" lon="16.09239">
        <ele>294.754608</ele>
        <time>2022-09-27T11:06:14.021Z</time>
      </trkpt>
      <trkpt lat="47.05001" lon="16.09251">
        <ele>294.801084</ele>
        <time>2022-09-27T11:06:16.016Z</time>
      </trkpt>
      <trkpt lat="47.05005" lon="16.09262">
        <ele>294.84899</ele>
        <time>2022-09-27T11:06:18.003Z</time>
      </trkpt>
      <trkpt lat="47.0501" lon="16.09274">
        <ele>294.903985</ele>
        <time>2022-09-27T11:06:20.024Z</time>
      </trkpt>
      <trkpt lat="47.05016" lon="16.09285">
        <ele>294.978396</ele>
        <time>2022-09-27T11:06:21.997Z</time>
      </trkpt>
      <trkpt lat="47.05021" lon="16.09296">
        <ele>295.055559</ele>
        <time>2022-09-27T11:06:24.006Z</time>
      </trkpt>
      <trkpt lat="47.05027" lon="16.09307">
        <ele>295.129159</ele>
        <time>2022-09-27T11:06:26.020Z</time>
      </trkpt>
      <trkpt lat="47.05034" lon="16.09322">
        <ele>295.234677</ele>
        <time>2022-09-27T11:06:29.013Z</time>
      </trkpt>
      <trkpt lat="47.05041" lon="16.09338">
        <ele>295.33969</ele>
        <time>2022-09-27T11:06:32.025Z</time>
      </trkpt>
      <trkpt lat="47.05046" lon="16.09349">
        <ele>295.412735</ele>
        <time>2022-09-27T11:06:34.055Z</time>
      </trkpt>
      <trkpt lat="47.05052" lon="16.09362">
        <ele>295.496796</ele>
        <time>2022-09-27T11:06:37.002Z</time>
      </trkpt>
      <trkpt lat="47.05057" lon="16.09377">
        <ele>295.591279</ele>
        <time>2022-09-27T11:06:41.015Z</time>
      </trkpt>
      <trkpt lat="47.05062" lon="16.0939">
        <ele>295.672472</ele>
        <time>2022-09-27T11:06:44.011Z</time>
      </trkpt>
      <trkpt lat="47.05069" lon="16.09404">
        <ele>295.766513</ele>
        <time>2022-09-27T11:06:47.027Z</time>
      </trkpt>
      <trkpt lat="47.05076" lon="16.09419">
        <ele>295.867421</ele>
        <time>2022-09-27T11:06:50.095Z</time>
      </trkpt>
      <trkpt lat="47.05083" lon="16.09435">
        <ele>295.972938</ele>
        <time>2022-09-27T11:06:53.001Z</time>
      </trkpt>
      <trkpt lat="47.05091" lon="16.09451">
        <ele>296.080226</ele>
        <time>2022-09-27T11:06:56.009Z</time>
      </trkpt>
      <trkpt lat="47.05096" lon="16.09462">
        <ele>296.154183</ele>
        <time>2022-09-27T11:06:58.022Z</time>
      </trkpt>
      <trkpt lat="47.05103" lon="16.09478">
        <ele>296.260548</ele>
        <time>2022-09-27T11:07:01.040Z</time>
      </trkpt>
      <trkpt lat="47.0511" lon="16.09493">
        <ele>296.339986</ele>
        <time>2022-09-27T11:07:04.000Z</time>
      </trkpt>
      <trkpt lat="47.05118" lon="16.09508">
        <ele>296.335305</ele>
        <time>2022-09-27T11:07:06.982Z</time>
      </trkpt>
      <trkpt lat="47.05124" lon="16.09519">
        <ele>296.332047</ele>
        <time>2022-09-27T11:07:09.024Z</time>
      </trkpt>
      <trkpt lat="47.05129" lon="16.09531">
        <ele>296.328667</ele>
        <time>2022-09-27T11:07:10.980Z</time>
      </trkpt>
      <trkpt lat="47.05134" lon="16.09542">
        <ele>296.325268</ele>
        <time>2022-09-27T11:07:13.003Z</time>
      </trkpt>
      <trkpt lat="47.0514" lon="16.09553">
        <ele>296.321948</ele>
        <time>2022-09-27T11:07:15.030Z</time>
      </trkpt>
      <trkpt lat="47.05147" lon="16.09569">
        <ele>296.317132</ele>
        <time>2022-09-27T11:07:18.009Z</time>
      </trkpt>
      <trkpt lat="47.05155" lon="16.09585">
        <ele>296.312336</ele>
        <time>2022-09-27T11:07:21.026Z</time>
      </trkpt>
      <trkpt lat="47.05162" lon="16.09601">
        <ele>296.307683</ele>
        <time>2022-09-27T11:07:24.015Z</time>
      </trkpt>
      <trkpt lat="47.0517" lon="16.09615">
        <ele>296.303266</ele>
        <time>2022-09-27T11:07:27.016Z</time>
      </trkpt>
      <trkpt lat="47.05176" lon="16.0963">
        <ele>296.299017</ele>
        <time>2022-09-27T11:07:30.011Z</time>
      </trkpt>
      <trkpt lat="47.05183" lon="16.09644">
        <ele>296.294625</ele>
        <time>2022-09-27T11:07:33.030Z</time>
      </trkpt>
      <trkpt lat="47.05191" lon="16.0966">
        <ele>296.290093</ele>
        <time>2022-09-27T11:07:36.009Z</time>
      </trkpt>
      <trkpt lat="47.05197" lon="16.09674">
        <ele>296.285763</ele>
        <time>2022-09-27T11:07:39.004Z</time>
      </trkpt>
      <trkpt lat="47.05205" lon="16.09689">
        <ele>296.281271</ele>
        <time>2022-09-27T11:07:42.036Z</time>
      </trkpt>
      <trkpt lat="47.05212" lon="16.09705">
        <ele>296.276594</ele>
        <time>2022-09-27T11:07:45.014Z</time>
      </trkpt>
      <trkpt lat="47.05219" lon="16.0972">
        <ele>296.355954</ele>
        <time>2022-09-27T11:07:48.056Z</time>
      </trkpt>
      <trkpt lat="47.05226" lon="16.09735">
        <ele>296.435754</ele>
        <time>2022-09-27T11:07:51.007Z</time>
      </trkpt>
      <trkpt lat="47.05233" lon="16.09748">
        <ele>296.512703</ele>
        <time>2022-09-27T11:07:54.017Z</time>
      </trkpt>
      <trkpt lat="47.05239" lon="16.09763">
        <ele>296.59101</ele>
        <time>2022-09-27T11:07:57.007Z</time>
      </trkpt>
      <trkpt lat="47.05246" lon="16.09778">
        <ele>296.672016</ele>
        <time>2022-09-27T11:08:00.024Z</time>
      </trkpt>
      <trkpt lat="47.05252" lon="16.09794">
        <ele>296.755681</ele>
        <time>2022-09-27T11:08:03.024Z</time>
      </trkpt>
      <trkpt lat="47.05259" lon="16.0981">
        <ele>296.838619</ele>
        <time>2022-09-27T11:08:06.004Z</time>
      </trkpt>
      <trkpt lat="47.05265" lon="16.09827">
        <ele>296.925144</ele>
        <time>2022-09-27T11:08:08.998Z</time>
      </trkpt>
      <trkpt lat="47.05272" lon="16.09843">
        <ele>297.013367</ele>
        <time>2022-09-27T11:08:12.007Z</time>
      </trkpt>
      <trkpt lat="47.05278" lon="16.0986">
        <ele>297.097204</ele>
        <time>2022-09-27T11:08:15.023Z</time>
      </trkpt>
      <trkpt lat="47.05284" lon="16.09876">
        <ele>297.179169</ele>
        <time>2022-09-27T11:08:18.007Z</time>
      </trkpt>
      <trkpt lat="47.05289" lon="16.09892">
        <ele>297.26033</ele>
        <time>2022-09-27T11:08:21.239Z</time>
      </trkpt>
      <trkpt lat="47.05293" lon="16.09904">
        <ele>297.320201</ele>
        <time>2022-09-27T11:08:23.035Z</time>
      </trkpt>
      <trkpt lat="47.05299" lon="16.09921">
        <ele>297.408312</ele>
        <time>2022-09-27T11:08:26.013Z</time>
      </trkpt>
      <trkpt lat="47.05305" lon="16.09938">
        <ele>297.342538</ele>
        <time>2022-09-27T11:08:29.003Z</time>
      </trkpt>
      <trkpt lat="47.0531" lon="16.0995">
        <ele>297.070275</ele>
        <time>2022-09-27T11:08:31.022Z</time>
      </trkpt>
      <trkpt lat="47.05314" lon="16.09962">
        <ele>296.800444</ele>
        <time>2022-09-27T11:08:33.009Z</time>
      </trkpt>
      <trkpt lat="47.05318" lon="16.09974">
        <ele>296.527461</ele>
        <time>2022-09-27T11:08:35.007Z</time>
      </trkpt>
      <trkpt lat="47.05323" lon="16.09987">
        <ele>296.233879</ele>
        <time>2022-09-27T11:08:37.078Z</time>
      </trkpt>
      <trkpt lat="47.05327" lon="16.1">
        <ele>295.940296</ele>
        <time>2022-09-27T11:08:39.080Z</time>
      </trkpt>
      <trkpt lat="47.05331" lon="16.10013">
        <ele>295.66166</ele>
        <time>2022-09-27T11:08:41.006Z</time>
      </trkpt>
      <trkpt lat="47.05335" lon="16.10026">
        <ele>295.377514</ele>
        <time>2022-09-27T11:08:43.013Z</time>
      </trkpt>
      <trkpt lat="47.05339" lon="16.10039">
        <ele>295.081119</ele>
        <time>2022-09-27T11:08:45.047Z</time>
      </trkpt>
      <trkpt lat="47.05343" lon="16.10052">
        <ele>294.787206</ele>
        <time>2022-09-27T11:08:47.002Z</time>
      </trkpt>
      <trkpt lat="47.05347" lon="16.10066">
        <ele>294.483791</ele>
        <time>2022-09-27T11:08:49.024Z</time>
      </trkpt>
      <trkpt lat="47.0535" lon="16.1008">
        <ele>294.183332</ele>
        <time>2022-09-27T11:08:51.060Z</time>
      </trkpt>
      <trkpt lat="47.05355" lon="16.10094">
        <ele>293.886362</ele>
        <time>2022-09-27T11:08:53.082Z</time>
      </trkpt>
      <trkpt lat="47.05358" lon="16.10107">
        <ele>293.595545</ele>
        <time>2022-09-27T11:08:55.015Z</time>
      </trkpt>
      <trkpt lat="47.05362" lon="16.1012">
        <ele>293.313306</ele>
        <time>2022-09-27T11:08:57.020Z</time>
      </trkpt>
      <trkpt lat="47.05365" lon="16.10134">
        <ele>293.026249</ele>
        <time>2022-09-27T11:08:59.006Z</time>
      </trkpt>
      <trkpt lat="47.05368" lon="16.10147">
        <ele>292.735604</ele>
        <time>2022-09-27T11:09:01.040Z</time>
      </trkpt>
      <trkpt lat="47.05371" lon="16.1016">
        <ele>292.462108</ele>
        <time>2022-09-27T11:09:03.004Z</time>
      </trkpt>
      <trkpt lat="47.05374" lon="16.10174">
        <ele>292.173273</ele>
        <time>2022-09-27T11:09:05.009Z</time>
      </trkpt>
      <trkpt lat="47.05377" lon="16.10187">
        <ele>291.907424</ele>
        <time>2022-09-27T11:09:07.049Z</time>
      </trkpt>
      <trkpt lat="47.05379" lon="16.10201">
        <ele>291.649782</ele>
        <time>2022-09-27T11:09:09.008Z</time>
      </trkpt>
      <trkpt lat="47.05383" lon="16.10219">
        <ele>291.297677</ele>
        <time>2022-09-27T11:09:12.038Z</time>
      </trkpt>
      <trkpt lat="47.05386" lon="16.10233">
        <ele>291.030305</ele>
        <time>2022-09-27T11:09:14.018Z</time>
      </trkpt>
      <trkpt lat="47.05388" lon="16.10246">
        <ele>290.764999</ele>
        <time>2022-09-27T11:09:16.013Z</time>
      </trkpt>
      <trkpt lat="47.05391" lon="16.1026">
        <ele>290.503327</ele>
        <time>2022-09-27T11:09:18.025Z</time>
      </trkpt>
      <trkpt lat="47.05393" lon="16.10274">
        <ele>290.235213</ele>
        <time>2022-09-27T11:09:20.001Z</time>
      </trkpt>
      <trkpt lat="47.05396" lon="16.10287">
        <ele>289.969915</ele>
        <time>2022-09-27T11:09:22.009Z</time>
      </trkpt>
      <trkpt lat="47.05398" lon="16.10301">
        <ele>289.710707</ele>
        <time>2022-09-27T11:09:24.057Z</time>
      </trkpt>
      <trkpt lat="47.054" lon="16.10315">
        <ele>289.446658</ele>
        <time>2022-09-27T11:09:26.020Z</time>
      </trkpt>
      <trkpt lat="47.05402" lon="16.10329">
        <ele>289.181367</ele>
        <time>2022-09-27T11:09:28.012Z</time>
      </trkpt>
      <trkpt lat="47.05404" lon="16.10342">
        <ele>288.92338</ele>
        <time>2022-09-27T11:09:29.997Z</time>
      </trkpt>
      <trkpt lat="47.05406" lon="16.10355">
        <ele>288.675658</ele>
        <time>2022-09-27T11:09:32.010Z</time>
      </trkpt>
      <trkpt lat="47.05407" lon="16.10368">
        <ele>288.427131</ele>
        <time>2022-09-27T11:09:34.006Z</time>
      </trkpt>
      <trkpt lat="47.05409" lon="16.10382">
        <ele>288.160013</ele>
        <time>2022-09-27T11:09:36.017Z</time>
      </trkpt>
      <trkpt lat="47.05411" lon="16.10397">
        <ele>287.886114</ele>
        <time>2022-09-27T11:09:38.002Z</time>
      </trkpt>
      <trkpt lat="47.05413" lon="16.10411">
        <ele>287.619545</ele>
        <time>2022-09-27T11:09:40.022Z</time>
      </trkpt>
      <trkpt lat="47.05415" lon="16.10425">
        <ele>287.348933</ele>
        <time>2022-09-27T11:09:42.020Z</time>
      </trkpt>
      <trkpt lat="47.05416" lon="16.10439">
        <ele>287.19759</ele>
        <time>2022-09-27T11:09:44.004Z</time>
      </trkpt>
      <trkpt lat="47.05418" lon="16.10453">
        <ele>287.149182</ele>
        <time>2022-09-27T11:09:46.055Z</time>
      </trkpt>
      <trkpt lat="47.0542" lon="16.10468">
        <ele>287.096941</ele>
        <time>2022-09-27T11:09:47.999Z</time>
      </trkpt>
      <trkpt lat="47.05421" lon="16.10483">
        <ele>287.047709</ele>
        <time>2022-09-27T11:09:50.014Z</time>
      </trkpt>
      <trkpt lat="47.05422" lon="16.10497">
        <ele>286.999089</ele>
        <time>2022-09-27T11:09:52.006Z</time>
      </trkpt>
      <trkpt lat="47.05423" lon="16.10511">
        <ele>286.951808</ele>
        <time>2022-09-27T11:09:54.015Z</time>
      </trkpt>
      <trkpt lat="47.05425" lon="16.10524">
        <ele>286.906468</ele>
        <time>2022-09-27T11:09:56.009Z</time>
      </trkpt>
      <trkpt lat="47.05426" lon="16.10538">
        <ele>286.858183</ele>
        <time>2022-09-27T11:09:58.019Z</time>
      </trkpt>
      <trkpt lat="47.05426" lon="16.10553">
        <ele>286.809917</ele>
        <time>2022-09-27T11:10:00.016Z</time>
      </trkpt>
      <trkpt lat="47.05426" lon="16.10567">
        <ele>286.760627</ele>
        <time>2022-09-27T11:10:02.086Z</time>
      </trkpt>
      <trkpt lat="47.05427" lon="16.10582">
        <ele>286.711634</ele>
        <time>2022-09-27T11:10:04.016Z</time>
      </trkpt>
      <trkpt lat="47.05427" lon="16.10597">
        <ele>286.662029</ele>
        <time>2022-09-27T11:10:06.015Z</time>
      </trkpt>
      <trkpt lat="47.05427" lon="16.10611">
        <ele>286.613436</ele>
        <time>2022-09-27T11:10:08.021Z</time>
      </trkpt>
      <trkpt lat="47.05428" lon="16.10626">
        <ele>286.564047</ele>
        <time>2022-09-27T11:10:10.011Z</time>
      </trkpt>
      <trkpt lat="47.05428" lon="16.10641">
        <ele>286.511592</ele>
        <time>2022-09-27T11:10:12.007Z</time>
      </trkpt>
      <trkpt lat="47.0543" lon="16.10657">
        <ele>286.457662</ele>
        <time>2022-09-27T11:10:14.039Z</time>
      </trkpt>
      <trkpt lat="47.0543" lon="16.10673">
        <ele>286.404569</ele>
        <time>2022-09-27T11:10:16.026Z</time>
      </trkpt>
      <trkpt lat="47.0543" lon="16.10687">
        <ele>286.354954</ele>
        <time>2022-09-27T11:10:18.002Z</time>
      </trkpt>
      <trkpt lat="47.05429" lon="16.10707">
        <ele>286.300168</ele>
        <time>2022-09-27T11:10:21.036Z</time>
      </trkpt>
      <trkpt lat="47.05428" lon="16.1072">
        <ele>286.266322</ele>
        <time>2022-09-27T11:10:23.004Z</time>
      </trkpt>
      <trkpt lat="47.05427" lon="16.10735">
        <ele>286.230952</ele>
        <time>2022-09-27T11:10:25.011Z</time>
      </trkpt>
      <trkpt lat="47.05426" lon="16.10749">
        <ele>286.194639</ele>
        <time>2022-09-27T11:10:27.023Z</time>
      </trkpt>
      <trkpt lat="47.05424" lon="16.10763">
        <ele>286.158026</ele>
        <time>2022-09-27T11:10:29.003Z</time>
      </trkpt>
      <trkpt lat="47.05419" lon="16.10776">
        <ele>286.122863</ele>
        <time>2022-09-27T11:10:31.008Z</time>
      </trkpt>
      <trkpt lat="47.05415" lon="16.10788">
        <ele>286.089204</ele>
        <time>2022-09-27T11:10:33.105Z</time>
      </trkpt>
      <trkpt lat="47.05418" lon="16.10806">
        <ele>286.043559</ele>
        <time>2022-09-27T11:10:36.016Z</time>
      </trkpt>
      <trkpt lat="47.05422" lon="16.10824">
        <ele>285.995504</ele>
        <time>2022-09-27T11:10:39.023Z</time>
      </trkpt>
      <trkpt lat="47.05423" lon="16.10839">
        <ele>285.958197</ele>
        <time>2022-09-27T11:10:40.990Z</time>
      </trkpt>
      <trkpt lat="47.05422" lon="16.10854">
        <ele>285.920819</ele>
        <time>2022-09-27T11:10:43.069Z</time>
      </trkpt>
      <trkpt lat="47.0542" lon="16.10869">
        <ele>285.883134</ele>
        <time>2022-09-27T11:10:45.038Z</time>
      </trkpt>
      <trkpt lat="47.05418" lon="16.10884">
        <ele>285.846982</ele>
        <time>2022-09-27T11:10:47.059Z</time>
      </trkpt>
      <trkpt lat="47.05416" lon="16.10898">
        <ele>285.809541</ele>
        <time>2022-09-27T11:10:49.016Z</time>
      </trkpt>
      <trkpt lat="47.05414" lon="16.10913">
        <ele>285.773013</ele>
        <time>2022-09-27T11:10:51.017Z</time>
      </trkpt>
      <trkpt lat="47.05412" lon="16.10927">
        <ele>285.736435</ele>
        <time>2022-09-27T11:10:53.024Z</time>
      </trkpt>
      <trkpt lat="47.05411" lon="16.10942">
        <ele>285.699305</ele>
        <time>2022-09-27T11:10:55.027Z</time>
      </trkpt>
      <trkpt lat="47.05409" lon="16.10957">
        <ele>285.673667</ele>
        <time>2022-09-27T11:10:57.016Z</time>
      </trkpt>
      <trkpt lat="47.05408" lon="16.10972">
        <ele>285.669345</ele>
        <time>2022-09-27T11:10:59.016Z</time>
      </trkpt>
      <trkpt lat="47.05406" lon="16.10986">
        <ele>285.665244</ele>
        <time>2022-09-27T11:11:01.084Z</time>
      </trkpt>
      <trkpt lat="47.05405" lon="16.11">
        <ele>285.660986</ele>
        <time>2022-09-27T11:11:03.019Z</time>
      </trkpt>
      <trkpt lat="47.05403" lon="16.11013">
        <ele>285.657069</ele>
        <time>2022-09-27T11:11:05.016Z</time>
      </trkpt>
      <trkpt lat="47.05402" lon="16.11028">
        <ele>285.652711</ele>
        <time>2022-09-27T11:11:07.008Z</time>
      </trkpt>
      <trkpt lat="47.05401" lon="16.11043">
        <ele>285.648216</ele>
        <time>2022-09-27T11:11:08.989Z</time>
      </trkpt>
      <trkpt lat="47.054" lon="16.11058">
        <ele>285.643753</ele>
        <time>2022-09-27T11:11:11.018Z</time>
      </trkpt>
      <trkpt lat="47.05399" lon="16.11073">
        <ele>285.639402</ele>
        <time>2022-09-27T11:11:13.054Z</time>
      </trkpt>
      <trkpt lat="47.05397" lon="16.11088">
        <ele>285.635005</ele>
        <time>2022-09-27T11:11:15.010Z</time>
      </trkpt>
      <trkpt lat="47.05396" lon="16.11102">
        <ele>285.630729</ele>
        <time>2022-09-27T11:11:17.021Z</time>
      </trkpt>
      <trkpt lat="47.05395" lon="16.11117">
        <ele>285.626545</ele>
        <time>2022-09-27T11:11:19.067Z</time>
      </trkpt>
      <trkpt lat="47.05392" lon="16.1113">
        <ele>285.622358</ele>
        <time>2022-09-27T11:11:21.014Z</time>
      </trkpt>
      <trkpt lat="47.05391" lon="16.11144">
        <ele>285.618222</ele>
        <time>2022-09-27T11:11:23.022Z</time>
      </trkpt>
      <trkpt lat="47.0539" lon="16.11164">
        <ele>285.612506</ele>
        <time>2022-09-27T11:11:26.009Z</time>
      </trkpt>
      <trkpt lat="47.05389" lon="16.11177">
        <ele>285.608613</ele>
        <time>2022-09-27T11:11:28.019Z</time>
      </trkpt>
      <trkpt lat="47.05389" lon="16.11191">
        <ele>285.604602</ele>
        <time>2022-09-27T11:11:30.038Z</time>
      </trkpt>
      <trkpt lat="47.05397" lon="16.11205">
        <ele>285.599267</ele>
        <time>2022-09-27T11:11:33.021Z</time>
      </trkpt>
      <trkpt lat="47.05407" lon="16.11211">
        <ele>285.867021</ele>
        <time>2022-09-27T11:11:35.017Z</time>
      </trkpt>
      <trkpt lat="47.05418" lon="16.11215">
        <ele>286.269382</ele>
        <time>2022-09-27T11:11:37.036Z</time>
      </trkpt>
      <trkpt lat="47.05428" lon="16.11226">
        <ele>286.692163</ele>
        <time>2022-09-27T11:11:40.005Z</time>
      </trkpt>
      <trkpt lat="47.05432" lon="16.11244">
        <ele>287.152544</ele>
        <time>2022-09-27T11:11:43.008Z</time>
      </trkpt>
      <trkpt lat="47.05436" lon="16.11261">
        <ele>287.578459</ele>
        <time>2022-09-27T11:11:46.005Z</time>
      </trkpt>
      <trkpt lat="47.05443" lon="16.11277">
        <ele>288.002091</ele>
        <time>2022-09-27T11:11:49.083Z</time>
      </trkpt>
      <trkpt lat="47.05448" lon="16.11288">
        <ele>288.3147</ele>
        <time>2022-09-27T11:11:51.019Z</time>
      </trkpt>
      <trkpt lat="47.05453" lon="16.11299">
        <ele>288.631563</ele>
        <time>2022-09-27T11:11:53.040Z</time>
      </trkpt>
      <trkpt lat="47.05458" lon="16.11311">
        <ele>288.955846</ele>
        <time>2022-09-27T11:11:55.011Z</time>
      </trkpt>
      <trkpt lat="47.05462" lon="16.11322">
        <ele>289.268179</ele>
        <time>2022-09-27T11:11:57.009Z</time>
      </trkpt>
      <trkpt lat="47.05469" lon="16.11339">
        <ele>289.71395</ele>
        <time>2022-09-27T11:12:00.017Z</time>
      </trkpt>
      <trkpt lat="47.05475" lon="16.11349">
        <ele>290.03154</ele>
        <time>2022-09-27T11:12:01.998Z</time>
      </trkpt>
      <trkpt lat="47.05482" lon="16.11365">
        <ele>290.474297</ele>
        <time>2022-09-27T11:12:05.043Z</time>
      </trkpt>
      <trkpt lat="47.05488" lon="16.1138">
        <ele>290.892309</ele>
        <time>2022-09-27T11:12:08.018Z</time>
      </trkpt>
      <trkpt lat="47.05494" lon="16.11395">
        <ele>291.290057</ele>
        <time>2022-09-27T11:12:11.010Z</time>
      </trkpt>
      <trkpt lat="47.05498" lon="16.11409">
        <ele>291.648082</ele>
        <time>2022-09-27T11:12:14.020Z</time>
      </trkpt>
      <trkpt lat="47.05505" lon="16.11419">
        <ele>291.758941</ele>
        <time>2022-09-27T11:12:17.015Z</time>
      </trkpt>
      <trkpt lat="47.05517" lon="16.11422">
        <ele>291.670267</ele>
        <time>2022-09-27T11:12:20.005Z</time>
      </trkpt>
      <trkpt lat="47.05526" lon="16.11424">
        <ele>291.599786</ele>
        <time>2022-09-27T11:12:24.047Z</time>
      </trkpt>
      <trkpt lat="47.05534" lon="16.11434">
        <ele>291.522614</ele>
        <time>2022-09-27T11:12:29.011Z</time>
      </trkpt>
      <trkpt lat="47.0554" lon="16.11444">
        <ele>291.4537</ele>
        <time>2022-09-27T11:12:33.021Z</time>
      </trkpt>
      <trkpt lat="47.05547" lon="16.11455">
        <ele>291.379274</ele>
        <time>2022-09-27T11:12:37.016Z</time>
      </trkpt>
      <trkpt lat="47.05552" lon="16.11467">
        <ele>291.303104</ele>
        <time>2022-09-27T11:12:42.007Z</time>
      </trkpt>
      <trkpt lat="47.0555" lon="16.11481">
        <ele>291.232974</ele>
        <time>2022-09-27T11:12:46.018Z</time>
      </trkpt>
      <trkpt lat="47.05544" lon="16.11494">
        <ele>291.1549</ele>
        <time>2022-09-27T11:12:49.057Z</time>
      </trkpt>
      <trkpt lat="47.0554" lon="16.11509">
        <ele>291.073632</ele>
        <time>2022-09-27T11:12:52.040Z</time>
      </trkpt>
      <trkpt lat="47.05536" lon="16.11527">
        <ele>290.975486</ele>
        <time>2022-09-27T11:12:55.006Z</time>
      </trkpt>
      <trkpt lat="47.05531" lon="16.11543">
        <ele>290.88405</ele>
        <time>2022-09-27T11:12:58.024Z</time>
      </trkpt>
      <trkpt lat="47.05527" lon="16.11558">
        <ele>290.800913</ele>
        <time>2022-09-27T11:13:01.016Z</time>
      </trkpt>
      <trkpt lat="47.05522" lon="16.11574">
        <ele>290.713452</ele>
        <time>2022-09-27T11:13:04.008Z</time>
      </trkpt>
      <trkpt lat="47.05523" lon="16.1159">
        <ele>290.632124</ele>
        <time>2022-09-27T11:13:07.015Z</time>
      </trkpt>
      <trkpt lat="47.05529" lon="16.11602">
        <ele>290.554692</ele>
        <time>2022-09-27T11:13:10.020Z</time>
      </trkpt>
      <trkpt lat="47.05535" lon="16.11613">
        <ele>290.482949</ele>
        <time>2022-09-27T11:13:13.067Z</time>
      </trkpt>
      <trkpt lat="47.05541" lon="16.11626">
        <ele>290.669294</ele>
        <time>2022-09-27T11:13:17.007Z</time>
      </trkpt>
      <trkpt lat="47.05546" lon="16.11638">
        <ele>290.935382</ele>
        <time>2022-09-27T11:13:20.005Z</time>
      </trkpt>
      <trkpt lat="47.05551" lon="16.11651">
        <ele>291.237183</ele>
        <time>2022-09-27T11:13:23.062Z</time>
      </trkpt>
      <trkpt lat="47.05556" lon="16.11665">
        <ele>291.546781</ele>
        <time>2022-09-27T11:13:26.028Z</time>
      </trkpt>
      <trkpt lat="47.05561" lon="16.1168">
        <ele>291.873572</ele>
        <time>2022-09-27T11:13:29.017Z</time>
      </trkpt>
      <trkpt lat="47.05567" lon="16.11695">
        <ele>292.217715</ele>
        <time>2022-09-27T11:13:32.039Z</time>
      </trkpt>
      <trkpt lat="47.05572" lon="16.11709">
        <ele>292.536708</ele>
        <time>2022-09-27T11:13:35.043Z</time>
      </trkpt>
      <trkpt lat="47.05577" lon="16.11723">
        <ele>292.847207</ele>
        <time>2022-09-27T11:13:38.000Z</time>
      </trkpt>
      <trkpt lat="47.05583" lon="16.11737">
        <ele>293.1756</ele>
        <time>2022-09-27T11:13:41.008Z</time>
      </trkpt>
      <trkpt lat="47.05588" lon="16.11752">
        <ele>293.49936</ele>
        <time>2022-09-27T11:13:44.003Z</time>
      </trkpt>
      <trkpt lat="47.05594" lon="16.11765">
        <ele>293.812869</ele>
        <time>2022-09-27T11:13:47.012Z</time>
      </trkpt>
      <trkpt lat="47.05599" lon="16.11778">
        <ele>294.097746</ele>
        <time>2022-09-27T11:13:50.019Z</time>
      </trkpt>
      <trkpt lat="47.05604" lon="16.11791">
        <ele>294.409682</ele>
        <time>2022-09-27T11:13:54.020Z</time>
      </trkpt>
      <trkpt lat="47.0561" lon="16.11805">
        <ele>294.722097</ele>
        <time>2022-09-27T11:13:58.019Z</time>
      </trkpt>
      <trkpt lat="47.05614" lon="16.11819">
        <ele>295.029283</ele>
        <time>2022-09-27T11:14:03.019Z</time>
      </trkpt>
      <trkpt lat="47.05622" lon="16.11829">
        <ele>295.332677</ele>
        <time>2022-09-27T11:14:07.090Z</time>
      </trkpt>
      <trkpt lat="47.05633" lon="16.1183">
        <ele>295.649465</ele>
        <time>2022-09-27T11:14:10.007Z</time>
      </trkpt>
      <trkpt lat="47.05645" lon="16.11825">
        <ele>295.803255</ele>
        <time>2022-09-27T11:14:13.020Z</time>
      </trkpt>
      <trkpt lat="47.05655" lon="16.1182">
        <ele>295.925965</ele>
        <time>2022-09-27T11:14:16.023Z</time>
      </trkpt>
      <trkpt lat="47.05666" lon="16.11815">
        <ele>296.059963</ele>
        <time>2022-09-27T11:14:19.028Z</time>
      </trkpt>
      <trkpt lat="47.05676" lon="16.11811">
        <ele>296.175778</ele>
        <time>2022-09-27T11:14:22.014Z</time>
      </trkpt>
      <trkpt lat="47.05685" lon="16.11807">
        <ele>296.283762</ele>
        <time>2022-09-27T11:14:25.007Z</time>
      </trkpt>
      <trkpt lat="47.05695" lon="16.11803">
        <ele>296.404433</ele>
        <time>2022-09-27T11:14:28.015Z</time>
      </trkpt>
      <trkpt lat="47.05706" lon="16.11799">
        <ele>296.527999</ele>
        <time>2022-09-27T11:14:31.008Z</time>
      </trkpt>
      <trkpt lat="47.05717" lon="16.11795">
        <ele>296.663371</ele>
        <time>2022-09-27T11:14:34.007Z</time>
      </trkpt>
      <trkpt lat="47.05727" lon="16.11791">
        <ele>296.780655</ele>
        <time>2022-09-27T11:14:37.045Z</time>
      </trkpt>
      <trkpt lat="47.05738" lon="16.11787">
        <ele>296.912036</ele>
        <time>2022-09-27T11:14:41.046Z</time>
      </trkpt>
      <trkpt lat="47.05748" lon="16.11783">
        <ele>297.032099</ele>
        <time>2022-09-27T11:14:44.083Z</time>
      </trkpt>
      <trkpt lat="47.05759" lon="16.1178">
        <ele>297.149327</ele>
        <time>2022-09-27T11:14:47.033Z</time>
      </trkpt>
      <trkpt lat="47.0577" lon="16.11776">
        <ele>297.281836</ele>
        <time>2022-09-27T11:14:50.019Z</time>
      </trkpt>
      <trkpt lat="47.05781" lon="16.11772">
        <ele>297.409302</ele>
        <time>2022-09-27T11:14:53.024Z</time>
      </trkpt>
      <trkpt lat="47.05791" lon="16.11768">
        <ele>297.529172</ele>
        <time>2022-09-27T11:14:56.010Z</time>
      </trkpt>
      <trkpt lat="47.058" lon="16.11766">
        <ele>297.636041</ele>
        <time>2022-09-27T11:14:59.018Z</time>
      </trkpt>
      <trkpt lat="47.0581" lon="16.11762">
        <ele>297.773677</ele>
        <time>2022-09-27T11:15:02.008Z</time>
      </trkpt>
      <trkpt lat="47.0582" lon="16.11759">
        <ele>297.949502</ele>
        <time>2022-09-27T11:15:05.025Z</time>
      </trkpt>
      <trkpt lat="47.0583" lon="16.11755">
        <ele>298.133501</ele>
        <time>2022-09-27T11:15:08.035Z</time>
      </trkpt>
      <trkpt lat="47.05839" lon="16.11751">
        <ele>298.314278</ele>
        <time>2022-09-27T11:15:11.011Z</time>
      </trkpt>
      <trkpt lat="47.05849" lon="16.11747">
        <ele>298.495748</ele>
        <time>2022-09-27T11:15:13.997Z</time>
      </trkpt>
      <trkpt lat="47.05859" lon="16.11743">
        <ele>298.679448</ele>
        <time>2022-09-27T11:15:17.010Z</time>
      </trkpt>
      <trkpt lat="47.05869" lon="16.1174">
        <ele>298.871353</ele>
        <time>2022-09-27T11:15:20.019Z</time>
      </trkpt>
      <trkpt lat="47.05879" lon="16.11736">
        <ele>299.057304</ele>
        <time>2022-09-27T11:15:23.057Z</time>
      </trkpt>
      <trkpt lat="47.05889" lon="16.11732">
        <ele>299.235309</ele>
        <time>2022-09-27T11:15:26.024Z</time>
      </trkpt>
      <trkpt lat="47.059" lon="16.11727">
        <ele>299.443727</ele>
        <time>2022-09-27T11:15:30.063Z</time>
      </trkpt>
      <trkpt lat="47.05909" lon="16.11724">
        <ele>299.617524</ele>
        <time>2022-09-27T11:15:33.036Z</time>
      </trkpt>
      <trkpt lat="47.05921" lon="16.11719">
        <ele>299.834595</ele>
        <time>2022-09-27T11:15:37.015Z</time>
      </trkpt>
      <trkpt lat="47.0593" lon="16.11716">
        <ele>300.008674</ele>
        <time>2022-09-27T11:15:40.000Z</time>
      </trkpt>
      <trkpt lat="47.05941" lon="16.1172">
        <ele>300.209904</ele>
        <time>2022-09-27T11:15:44.020Z</time>
      </trkpt>
      <trkpt lat="47.05948" lon="16.1173">
        <ele>300.386427</ele>
        <time>2022-09-27T11:15:47.010Z</time>
      </trkpt>
      <trkpt lat="47.05953" lon="16.11744">
        <ele>300.578513</ele>
        <time>2022-09-27T11:15:51.016Z</time>
      </trkpt>
      <trkpt lat="47.0596" lon="16.11756">
        <ele>300.781462</ele>
        <time>2022-09-27T11:15:55.014Z</time>
      </trkpt>
      <trkpt lat="47.05965" lon="16.11768">
        <ele>300.945899</ele>
        <time>2022-09-27T11:15:58.000Z</time>
      </trkpt>
      <trkpt lat="47.05971" lon="16.11779">
        <ele>301.317831</ele>
        <time>2022-09-27T11:16:01.027Z</time>
      </trkpt>
      <trkpt lat="47.05977" lon="16.11791">
        <ele>301.746232</ele>
        <time>2022-09-27T11:16:04.047Z</time>
      </trkpt>
      <trkpt lat="47.05983" lon="16.11803">
        <ele>302.158229</ele>
        <time>2022-09-27T11:16:07.012Z</time>
      </trkpt>
      <trkpt lat="47.05988" lon="16.11814">
        <ele>302.556356</ele>
        <time>2022-09-27T11:16:10.017Z</time>
      </trkpt>
      <trkpt lat="47.05994" lon="16.11825">
        <ele>302.963805</ele>
        <time>2022-09-27T11:16:13.003Z</time>
      </trkpt>
      <trkpt lat="47.05999" lon="16.11837">
        <ele>303.361514</ele>
        <time>2022-09-27T11:16:16.006Z</time>
      </trkpt>
      <trkpt lat="47.06006" lon="16.11851">
        <ele>303.855449</ele>
        <time>2022-09-27T11:16:20.017Z</time>
      </trkpt>
      <trkpt lat="47.06013" lon="16.11865">
        <ele>304.349684</ele>
        <time>2022-09-27T11:16:24.033Z</time>
      </trkpt>
      <trkpt lat="47.06018" lon="16.11876">
        <ele>304.728494</ele>
        <time>2022-09-27T11:16:27.002Z</time>
      </trkpt>
      <trkpt lat="47.06023" lon="16.11888">
        <ele>305.123979</ele>
        <time>2022-09-27T11:16:30.005Z</time>
      </trkpt>
      <trkpt lat="47.06028" lon="16.119">
        <ele>305.516313</ele>
        <time>2022-09-27T11:16:33.023Z</time>
      </trkpt>
      <trkpt lat="47.06033" lon="16.11912">
        <ele>305.902573</ele>
        <time>2022-09-27T11:16:36.023Z</time>
      </trkpt>
      <trkpt lat="47.06038" lon="16.11926">
        <ele>306.383569</ele>
        <time>2022-09-27T11:16:40.022Z</time>
      </trkpt>
      <trkpt lat="47.06045" lon="16.11941">
        <ele>306.878297</ele>
        <time>2022-09-27T11:16:44.005Z</time>
      </trkpt>
      <trkpt lat="47.0605" lon="16.11954">
        <ele>307.304072</ele>
        <time>2022-09-27T11:16:47.019Z</time>
      </trkpt>
      <trkpt lat="47.06055" lon="16.11965">
        <ele>307.697142</ele>
        <time>2022-09-27T11:16:50.006Z</time>
      </trkpt>
      <trkpt lat="47.0606" lon="16.11977">
        <ele>308.080971</ele>
        <time>2022-09-27T11:16:53.020Z</time>
      </trkpt>
      <trkpt lat="47.06066" lon="16.11992">
        <ele>308.490756</ele>
        <time>2022-09-27T11:16:57.019Z</time>
      </trkpt>
      <trkpt lat="47.06071" lon="16.12007">
        <ele>308.573195</ele>
        <time>2022-09-27T11:17:01.027Z</time>
      </trkpt>
      <trkpt lat="47.06077" lon="16.1202">
        <ele>308.651278</ele>
        <time>2022-09-27T11:17:05.036Z</time>
      </trkpt>
      <trkpt lat="47.06083" lon="16.12035">
        <ele>308.73394</ele>
        <time>2022-09-27T11:17:09.026Z</time>
      </trkpt>
      <trkpt lat="47.06088" lon="16.12048">
        <ele>308.810051</ele>
        <time>2022-09-27T11:17:13.028Z</time>
      </trkpt>
      <trkpt lat="47.06094" lon="16.12062">
        <ele>308.888817</ele>
        <time>2022-09-27T11:17:17.003Z</time>
      </trkpt>
      <trkpt lat="47.06099" lon="16.12076">
        <ele>308.967402</ele>
        <time>2022-09-27T11:17:21.040Z</time>
      </trkpt>
      <trkpt lat="47.06104" lon="16.12089">
        <ele>309.0365</ele>
        <time>2022-09-27T11:17:25.023Z</time>
      </trkpt>
      <trkpt lat="47.06108" lon="16.12101">
        <ele>309.105074</ele>
        <time>2022-09-27T11:17:29.023Z</time>
      </trkpt>
      <trkpt lat="47.06112" lon="16.12114">
        <ele>309.172505</ele>
        <time>2022-09-27T11:17:33.021Z</time>
      </trkpt>
      <trkpt lat="47.06115" lon="16.12127">
        <ele>309.240572</ele>
        <time>2022-09-27T11:17:37.023Z</time>
      </trkpt>
      <trkpt lat="47.06119" lon="16.12143">
        <ele>309.321737</ele>
        <time>2022-09-27T11:17:42.015Z</time>
      </trkpt>
      <trkpt lat="47.06123" lon="16.12155">
        <ele>309.387431</ele>
        <time>2022-09-27T11:17:46.032Z</time>
      </trkpt>
      <trkpt lat="47.06128" lon="16.12169">
        <ele>309.460882</ele>
        <time>2022-09-27T11:17:51.038Z</time>
      </trkpt>
      <trkpt lat="47.06131" lon="16.12181">
        <ele>309.52591</ele>
        <time>2022-09-27T11:17:55.030Z</time>
      </trkpt>
      <trkpt lat="47.06135" lon="16.12195">
        <ele>309.602274</ele>
        <time>2022-09-27T11:18:00.063Z</time>
      </trkpt>
      <trkpt lat="47.06139" lon="16.12211">
        <ele>309.682015</ele>
        <time>2022-09-27T11:18:05.025Z</time>
      </trkpt>
      <trkpt lat="47.06143" lon="16.12224">
        <ele>309.752523</ele>
        <time>2022-09-27T11:18:09.014Z</time>
      </trkpt>
      <trkpt lat="47.06146" lon="16.12237">
        <ele>310.086385</ele>
        <time>2022-09-27T11:18:13.022Z</time>
      </trkpt>
      <trkpt lat="47.0615" lon="16.12252">
        <ele>310.511626</ele>
        <time>2022-09-27T11:18:18.094Z</time>
      </trkpt>
      <trkpt lat="47.06152" lon="16.12265">
        <ele>310.876187</ele>
        <time>2022-09-27T11:18:22.035Z</time>
      </trkpt>
      <trkpt lat="47.06155" lon="16.1228">
        <ele>311.282199</ele>
        <time>2022-09-27T11:18:27.007Z</time>
      </trkpt>
      <trkpt lat="47.06156" lon="16.12294">
        <ele>311.675825</ele>
        <time>2022-09-27T11:18:32.011Z</time>
      </trkpt>
      <trkpt lat="47.06158" lon="16.12309">
        <ele>312.074743</ele>
        <time>2022-09-27T11:18:37.025Z</time>
      </trkpt>
      <trkpt lat="47.06158" lon="16.12323">
        <ele>312.45277</ele>
        <time>2022-09-27T11:18:42.026Z</time>
      </trkpt>
      <trkpt lat="47.06159" lon="16.12337">
        <ele>312.836477</ele>
        <time>2022-09-27T11:18:47.015Z</time>
      </trkpt>
      <trkpt lat="47.0616" lon="16.12352">
        <ele>313.228981</ele>
        <time>2022-09-27T11:18:52.014Z</time>
      </trkpt>
      <trkpt lat="47.06161" lon="16.12366">
        <ele>313.604103</ele>
        <time>2022-09-27T11:18:57.044Z</time>
      </trkpt>
      <trkpt lat="47.06162" lon="16.12379">
        <ele>313.960963</ele>
        <time>2022-09-27T11:19:02.010Z</time>
      </trkpt>
      <trkpt lat="47.06164" lon="16.12393">
        <ele>314.354017</ele>
        <time>2022-09-27T11:19:07.027Z</time>
      </trkpt>
      <trkpt lat="47.06166" lon="16.12408">
        <ele>314.758345</ele>
        <time>2022-09-27T11:19:12.009Z</time>
      </trkpt>
      <trkpt lat="47.06168" lon="16.12423">
        <ele>315.176407</ele>
        <time>2022-09-27T11:19:18.036Z</time>
      </trkpt>
      <trkpt lat="47.06171" lon="16.12437">
        <ele>315.566314</ele>
        <time>2022-09-27T11:19:24.020Z</time>
      </trkpt>
      <trkpt lat="47.06174" lon="16.1245">
        <ele>315.935921</ele>
        <time>2022-09-27T11:19:30.006Z</time>
      </trkpt>
      <trkpt lat="47.06178" lon="16.12464">
        <ele>316.322793</ele>
        <time>2022-09-27T11:19:37.068Z</time>
      </trkpt>
      <trkpt lat="47.06182" lon="16.12476">
        <ele>316.678389</ele>
        <time>2022-09-27T11:19:42.008Z</time>
      </trkpt>
      <trkpt lat="47.06186" lon="16.12489">
        <ele>316.638521</ele>
        <time>2022-09-27T11:19:48.061Z</time>
      </trkpt>
      <trkpt lat="47.06191" lon="16.12502">
        <ele>316.323723</ele>
        <time>2022-09-27T11:19:53.022Z</time>
      </trkpt>
      <trkpt lat="47.06196" lon="16.12514">
        <ele>316.035478</ele>
        <time>2022-09-27T11:19:57.011Z</time>
      </trkpt>
      <trkpt lat="47.06201" lon="16.12527">
        <ele>315.723311</ele>
        <time>2022-09-27T11:20:02.003Z</time>
      </trkpt>
      <trkpt lat="47.06207" lon="16.12538">
        <ele>315.437116</ele>
        <time>2022-09-27T11:20:07.014Z</time>
      </trkpt>
      <trkpt lat="47.06214" lon="16.12546">
        <ele>315.151511</ele>
        <time>2022-09-27T11:20:12.003Z</time>
      </trkpt>
      <trkpt lat="47.06222" lon="16.12552">
        <ele>314.870123</ele>
        <time>2022-09-27T11:20:15.022Z</time>
      </trkpt>
      <trkpt lat="47.06231" lon="16.12557">
        <ele>314.581988</ele>
        <time>2022-09-27T11:20:18.028Z</time>
      </trkpt>
      <trkpt lat="47.06239" lon="16.12565">
        <ele>314.287656</ele>
        <time>2022-09-27T11:20:21.019Z</time>
      </trkpt>
      <trkpt lat="47.06248" lon="16.12571">
        <ele>313.994342</ele>
        <time>2022-09-27T11:20:24.018Z</time>
      </trkpt>
      <trkpt lat="47.06256" lon="16.12577">
        <ele>313.714338</ele>
        <time>2022-09-27T11:20:26.026Z</time>
      </trkpt>
      <trkpt lat="47.06267" lon="16.12585">
        <ele>313.324103</ele>
        <time>2022-09-27T11:20:29.017Z</time>
      </trkpt>
      <trkpt lat="47.06277" lon="16.1259">
        <ele>312.999493</ele>
        <time>2022-09-27T11:20:32.015Z</time>
      </trkpt>
      <trkpt lat="47.06286" lon="16.12595">
        <ele>312.70957</ele>
        <time>2022-09-27T11:20:35.017Z</time>
      </trkpt>
      <trkpt lat="47.06295" lon="16.12603">
        <ele>312.389115</ele>
        <time>2022-09-27T11:20:39.038Z</time>
      </trkpt>
      <trkpt lat="47.06305" lon="16.1261">
        <ele>312.0358</ele>
        <time>2022-09-27T11:20:43.010Z</time>
      </trkpt>
      <trkpt lat="47.06315" lon="16.12617">
        <ele>311.691576</ele>
        <time>2022-09-27T11:20:47.011Z</time>
      </trkpt>
      <trkpt lat="47.06324" lon="16.12624">
        <ele>311.376841</ele>
        <time>2022-09-27T11:20:51.016Z</time>
      </trkpt>
      <trkpt lat="47.06333" lon="16.1263">
        <ele>312.299277</ele>
        <time>2022-09-27T11:20:55.023Z</time>
      </trkpt>
      <trkpt lat="47.06343" lon="16.12637">
        <ele>313.902917</ele>
        <time>2022-09-27T11:21:00.040Z</time>
      </trkpt>
      <trkpt lat="47.06353" lon="16.12642">
        <ele>315.495593</ele>
        <time>2022-09-27T11:21:05.008Z</time>
      </trkpt>
      <trkpt lat="47.06362" lon="16.12647">
        <ele>316.834463</ele>
        <time>2022-09-27T11:21:11.016Z</time>
      </trkpt>
      <trkpt lat="47.06371" lon="16.12652">
        <ele>318.230316</ele>
        <time>2022-09-27T11:21:17.023Z</time>
      </trkpt>
      <trkpt lat="47.0638" lon="16.12656">
        <ele>319.544525</ele>
        <time>2022-09-27T11:21:23.014Z</time>
      </trkpt>
      <trkpt lat="47.06388" lon="16.12662">
        <ele>320.85976</ele>
        <time>2022-09-27T11:21:30.013Z</time>
      </trkpt>
      <trkpt lat="47.06397" lon="16.12666">
        <ele>322.16505</ele>
        <time>2022-09-27T11:21:39.020Z</time>
      </trkpt>
      <trkpt lat="47.06406" lon="16.12671">
        <ele>323.604961</ele>
        <time>2022-09-27T11:21:50.028Z</time>
      </trkpt>
      <trkpt lat="47.06415" lon="16.12675">
        <ele>325.021028</ele>
        <time>2022-09-27T11:21:58.018Z</time>
      </trkpt>
      <trkpt lat="47.06424" lon="16.1268">
        <ele>326.334602</ele>
        <time>2022-09-27T11:22:07.018Z</time>
      </trkpt>
      <trkpt lat="47.06433" lon="16.12687">
        <ele>327.804921</ele>
        <time>2022-09-27T11:22:16.023Z</time>
      </trkpt>
      <trkpt lat="47.06442" lon="16.12692">
        <ele>329.204008</ele>
        <time>2022-09-27T11:22:26.008Z</time>
      </trkpt>
      <trkpt lat="47.0645" lon="16.12696">
        <ele>330.531215</ele>
        <time>2022-09-27T11:22:37.015Z</time>
      </trkpt>
      <trkpt lat="47.0646" lon="16.127">
        <ele>331.917467</ele>
        <time>2022-09-27T11:22:45.017Z</time>
      </trkpt>
      <trkpt lat="47.06469" lon="16.12705">
        <ele>333.357477</ele>
        <time>2022-09-27T11:22:54.019Z</time>
      </trkpt>
      <trkpt lat="47.06479" lon="16.12707">
        <ele>334.763319</ele>
        <time>2022-09-27T11:23:04.007Z</time>
      </trkpt>
      <trkpt lat="47.06487" lon="16.1271">
        <ele>336.072732</ele>
        <time>2022-09-27T11:23:13.015Z</time>
      </trkpt>
      <trkpt lat="47.06496" lon="16.12712">
        <ele>337.381211</ele>
        <time>2022-09-27T11:23:21.014Z</time>
      </trkpt>
      <trkpt lat="47.06506" lon="16.12711">
        <ele>338.521233</ele>
        <time>2022-09-27T11:23:30.018Z</time>
      </trkpt>
      <trkpt lat="47.06515" lon="16.12713">
        <ele>339.612169</ele>
        <time>2022-09-27T11:23:42.023Z</time>
      </trkpt>
      <trkpt lat="47.06525" lon="16.12718">
        <ele>340.80047</ele>
        <time>2022-09-27T11:23:53.024Z</time>
      </trkpt>
      <trkpt lat="47.06534" lon="16.12719">
        <ele>341.882663</ele>
        <time>2022-09-27T11:24:01.007Z</time>
      </trkpt>
      <trkpt lat="47.06544" lon="16.12717">
        <ele>343.08638</ele>
        <time>2022-09-27T11:24:09.015Z</time>
      </trkpt>
      <trkpt lat="47.06553" lon="16.12713">
        <ele>344.172945</ele>
        <time>2022-09-27T11:24:16.020Z</time>
      </trkpt>
      <trkpt lat="47.06563" lon="16.12711">
        <ele>345.307455</ele>
        <time>2022-09-27T11:24:25.045Z</time>
      </trkpt>
      <trkpt lat="47.06571" lon="16.12705">
        <ele>346.369705</ele>
        <time>2022-09-27T11:24:32.026Z</time>
      </trkpt>
      <trkpt lat="47.0658" lon="16.12702">
        <ele>347.519822</ele>
        <time>2022-09-27T11:24:44.014Z</time>
      </trkpt>
      <trkpt lat="47.06589" lon="16.127">
        <ele>348.599132</ele>
        <time>2022-09-27T11:24:53.021Z</time>
      </trkpt>
      <trkpt lat="47.06599" lon="16.12704">
        <ele>349.791415</ele>
        <time>2022-09-27T11:25:01.021Z</time>
      </trkpt>
      <trkpt lat="47.06608" lon="16.12709">
        <ele>350.897464</ele>
        <time>2022-09-27T11:25:07.027Z</time>
      </trkpt>
      <trkpt lat="47.06617" lon="16.12715">
        <ele>352.061468</ele>
        <time>2022-09-27T11:25:15.029Z</time>
      </trkpt>
      <trkpt lat="47.06624" lon="16.12722">
        <ele>353.127925</ele>
        <time>2022-09-27T11:25:22.020Z</time>
      </trkpt>
      <trkpt lat="47.06633" lon="16.1273">
        <ele>354.323424</ele>
        <time>2022-09-27T11:25:30.032Z</time>
      </trkpt>
      <trkpt lat="47.06641" lon="16.12737">
        <ele>355.424295</ele>
        <time>2022-09-27T11:25:40.040Z</time>
      </trkpt>
      <trkpt lat="47.06648" lon="16.12746">
        <ele>356.502097</ele>
        <time>2022-09-27T11:25:52.021Z</time>
      </trkpt>
      <trkpt lat="47.06653" lon="16.12758">
        <ele>357.639124</ele>
        <time>2022-09-27T11:26:02.031Z</time>
      </trkpt>
      <trkpt lat="47.06656" lon="16.12771">
        <ele>358.538238</ele>
        <time>2022-09-27T11:26:12.034Z</time>
      </trkpt>
      <trkpt lat="47.06658" lon="16.12784">
        <ele>358.906898</ele>
        <time>2022-09-27T11:26:20.022Z</time>
      </trkpt>
      <trkpt lat="47.06657" lon="16.12798">
        <ele>359.279799</ele>
        <time>2022-09-27T11:26:29.027Z</time>
      </trkpt>
      <trkpt lat="47.06659" lon="16.12811">
        <ele>359.664631</ele>
        <time>2022-09-27T11:26:37.022Z</time>
      </trkpt>
      <trkpt lat="47.06661" lon="16.12825">
        <ele>360.039648</ele>
        <time>2022-09-27T11:26:46.027Z</time>
      </trkpt>
      <trkpt lat="47.06667" lon="16.12836">
        <ele>360.434225</ele>
        <time>2022-09-27T11:26:56.040Z</time>
      </trkpt>
      <trkpt lat="47.06674" lon="16.12846">
        <ele>360.824585</ele>
        <time>2022-09-27T11:27:03.028Z</time>
      </trkpt>
      <trkpt lat="47.06682" lon="16.12853">
        <ele>361.207243</ele>
        <time>2022-09-27T11:27:11.061Z</time>
      </trkpt>
      <trkpt lat="47.06691" lon="16.12859">
        <ele>361.618803</ele>
        <time>2022-09-27T11:27:18.019Z</time>
      </trkpt>
      <trkpt lat="47.067" lon="16.12867">
        <ele>362.026956</ele>
        <time>2022-09-27T11:27:24.017Z</time>
      </trkpt>
      <trkpt lat="47.06707" lon="16.12875">
        <ele>362.397679</ele>
        <time>2022-09-27T11:27:30.020Z</time>
      </trkpt>
      <trkpt lat="47.06716" lon="16.12884">
        <ele>362.822374</ele>
        <time>2022-09-27T11:27:36.009Z</time>
      </trkpt>
      <trkpt lat="47.06726" lon="16.1289">
        <ele>363.264841</ele>
        <time>2022-09-27T11:27:41.031Z</time>
      </trkpt>
      <trkpt lat="47.06736" lon="16.12896">
        <ele>363.708365</ele>
        <time>2022-09-27T11:27:46.027Z</time>
      </trkpt>
      <trkpt lat="47.06746" lon="16.12901">
        <ele>364.141459</ele>
        <time>2022-09-27T11:27:51.024Z</time>
      </trkpt>
      <trkpt lat="47.06755" lon="16.12905">
        <ele>364.514211</ele>
        <time>2022-09-27T11:27:56.015Z</time>
      </trkpt>
      <trkpt lat="47.06764" lon="16.1291">
        <ele>364.90068</ele>
        <time>2022-09-27T11:28:01.018Z</time>
      </trkpt>
      <trkpt lat="47.06773" lon="16.12914">
        <ele>365.285875</ele>
        <time>2022-09-27T11:28:05.026Z</time>
      </trkpt>
      <trkpt lat="47.06784" lon="16.12919">
        <ele>365.750605</ele>
        <time>2022-09-27T11:28:09.021Z</time>
      </trkpt>
      <trkpt lat="47.06793" lon="16.12925">
        <ele>366.259887</ele>
        <time>2022-09-27T11:28:12.019Z</time>
      </trkpt>
      <trkpt lat="47.06805" lon="16.12927">
        <ele>366.842157</ele>
        <time>2022-09-27T11:28:15.001Z</time>
      </trkpt>
      <trkpt lat="47.06817" lon="16.12928">
        <ele>367.414609</ele>
        <time>2022-09-27T11:28:18.014Z</time>
      </trkpt>
      <trkpt lat="47.06829" lon="16.12927">
        <ele>368.01136</ele>
        <time>2022-09-27T11:28:21.021Z</time>
      </trkpt>
      <trkpt lat="47.06838" lon="16.12923">
        <ele>368.48821</ele>
        <time>2022-09-27T11:28:24.019Z</time>
      </trkpt>
      <trkpt lat="47.06848" lon="16.12916">
        <ele>369.008266</ele>
        <time>2022-09-27T11:28:28.020Z</time>
      </trkpt>
      <trkpt lat="47.06853" lon="16.12904">
        <ele>369.520736</ele>
        <time>2022-09-27T11:28:33.015Z</time>
      </trkpt>
      <trkpt lat="47.06857" lon="16.12889">
        <ele>370.046099</ele>
        <time>2022-09-27T11:28:38.044Z</time>
      </trkpt>
      <trkpt lat="47.06861" lon="16.12876">
        <ele>370.543044</ele>
        <time>2022-09-27T11:28:43.026Z</time>
      </trkpt>
      <trkpt lat="47.06868" lon="16.12865">
        <ele>371.0214</ele>
        <time>2022-09-27T11:28:49.016Z</time>
      </trkpt>
      <trkpt lat="47.06874" lon="16.12855">
        <ele>371.480197</ele>
        <time>2022-09-27T11:28:56.053Z</time>
      </trkpt>
      <trkpt lat="47.06879" lon="16.12844">
        <ele>371.931782</ele>
        <time>2022-09-27T11:29:05.013Z</time>
      </trkpt>
      <trkpt lat="47.06886" lon="16.12834">
        <ele>372.400882</ele>
        <time>2022-09-27T11:29:13.003Z</time>
      </trkpt>
      <trkpt lat="47.06889" lon="16.12821">
        <ele>372.860908</ele>
        <time>2022-09-27T11:29:22.027Z</time>
      </trkpt>
      <trkpt lat="47.06897" lon="16.12813">
        <ele>373.319702</ele>
        <time>2022-09-27T11:29:33.044Z</time>
      </trkpt>
      <trkpt lat="47.06904" lon="16.12804">
        <ele>373.788757</ele>
        <time>2022-09-27T11:29:39.040Z</time>
      </trkpt>
      <trkpt lat="47.0691" lon="16.12792">
        <ele>374.287496</ele>
        <time>2022-09-27T11:29:48.020Z</time>
      </trkpt>
      <trkpt lat="47.06913" lon="16.12779">
        <ele>374.760406</ele>
        <time>2022-09-27T11:29:57.022Z</time>
      </trkpt>
      <trkpt lat="47.06915" lon="16.12766">
        <ele>375.23259</ele>
        <time>2022-09-27T11:30:07.017Z</time>
      </trkpt>
      <trkpt lat="47.06923" lon="16.12757">
        <ele>375.726743</ele>
        <time>2022-09-27T11:30:16.019Z</time>
      </trkpt>
      <trkpt lat="47.06928" lon="16.12746">
        <ele>376.1991</ele>
        <time>2022-09-27T11:30:24.006Z</time>
      </trkpt>
      <trkpt lat="47.06937" lon="16.12747">
        <ele>376.674488</ele>
        <time>2022-09-27T11:30:29.016Z</time>
      </trkpt>
      <trkpt lat="47.06948" lon="16.12751">
        <ele>377.243662</ele>
        <time>2022-09-27T11:30:34.016Z</time>
      </trkpt>
      <trkpt lat="47.06957" lon="16.12757">
        <ele>377.767993</ele>
        <time>2022-09-27T11:30:39.059Z</time>
      </trkpt>
      <trkpt lat="47.06967" lon="16.12761">
        <ele>378.274749</ele>
        <time>2022-09-27T11:30:44.023Z</time>
      </trkpt>
      <trkpt lat="47.06977" lon="16.12765">
        <ele>378.81601</ele>
        <time>2022-09-27T11:30:50.034Z</time>
      </trkpt>
      <trkpt lat="47.06987" lon="16.12771">
        <ele>379.377765</ele>
        <time>2022-09-27T11:30:55.020Z</time>
      </trkpt>
      <trkpt lat="47.06997" lon="16.12774">
        <ele>379.88798</ele>
        <time>2022-09-27T11:31:00.019Z</time>
      </trkpt>
      <trkpt lat="47.07007" lon="16.12777">
        <ele>380.448767</ele>
        <time>2022-09-27T11:31:05.035Z</time>
      </trkpt>
      <trkpt lat="47.07016" lon="16.12781">
        <ele>380.922101</ele>
        <time>2022-09-27T11:31:09.026Z</time>
      </trkpt>
      <trkpt lat="47.07026" lon="16.12784">
        <ele>381.43305</ele>
        <time>2022-09-27T11:31:13.088Z</time>
      </trkpt>
      <trkpt lat="47.07035" lon="16.12788">
        <ele>381.901244</ele>
        <time>2022-09-27T11:31:17.039Z</time>
      </trkpt>
      <trkpt lat="47.07044" lon="16.12794">
        <ele>382.431383</ele>
        <time>2022-09-27T11:31:22.047Z</time>
      </trkpt>
      <trkpt lat="47.07051" lon="16.12804">
        <ele>382.950064</ele>
        <time>2022-09-27T11:31:28.038Z</time>
      </trkpt>
      <trkpt lat="47.07059" lon="16.12812">
        <ele>383.443641</ele>
        <time>2022-09-27T11:31:33.023Z</time>
      </trkpt>
      <trkpt lat="47.07069" lon="16.12818">
        <ele>384.056109</ele>
        <time>2022-09-27T11:31:38.021Z</time>
      </trkpt>
      <trkpt lat="47.07078" lon="16.12823">
        <ele>384.729185</ele>
        <time>2022-09-27T11:31:43.015Z</time>
      </trkpt>
      <trkpt lat="47.07087" lon="16.12829">
        <ele>385.46898</ele>
        <time>2022-09-27T11:31:49.024Z</time>
      </trkpt>
      <trkpt lat="47.07097" lon="16.12834">
        <ele>386.231813</ele>
        <time>2022-09-27T11:31:55.024Z</time>
      </trkpt>
      <trkpt lat="47.07106" lon="16.12835">
        <ele>386.898151</ele>
        <time>2022-09-27T11:32:01.019Z</time>
      </trkpt>
      <trkpt lat="47.07117" lon="16.12836">
        <ele>387.671032</ele>
        <time>2022-09-27T11:32:08.016Z</time>
      </trkpt>
      <trkpt lat="47.07126" lon="16.12835">
        <ele>388.350283</ele>
        <time>2022-09-27T11:32:13.028Z</time>
      </trkpt>
      <trkpt lat="47.07138" lon="16.12834">
        <ele>389.153262</ele>
        <time>2022-09-27T11:32:18.021Z</time>
      </trkpt>
      <trkpt lat="47.07148" lon="16.12835">
        <ele>389.919915</ele>
        <time>2022-09-27T11:32:23.002Z</time>
      </trkpt>
      <trkpt lat="47.07157" lon="16.12839">
        <ele>390.597711</ele>
        <time>2022-09-27T11:32:27.006Z</time>
      </trkpt>
      <trkpt lat="47.07167" lon="16.12844">
        <ele>391.354634</ele>
        <time>2022-09-27T11:32:31.999Z</time>
      </trkpt>
      <trkpt lat="47.07176" lon="16.12852">
        <ele>392.120925</ele>
        <time>2022-09-27T11:32:38.027Z</time>
      </trkpt>
      <trkpt lat="47.07182" lon="16.12864">
        <ele>392.843922</ele>
        <time>2022-09-27T11:32:44.002Z</time>
      </trkpt>
      <trkpt lat="47.07189" lon="16.12874">
        <ele>393.534703</ele>
        <time>2022-09-27T11:32:50.025Z</time>
      </trkpt>
      <trkpt lat="47.07196" lon="16.12884">
        <ele>394.222942</ele>
        <time>2022-09-27T11:32:56.024Z</time>
      </trkpt>
      <trkpt lat="47.07203" lon="16.12893">
        <ele>394.946247</ele>
        <time>2022-09-27T11:33:03.040Z</time>
      </trkpt>
      <trkpt lat="47.0721" lon="16.12904">
        <ele>395.673031</ele>
        <time>2022-09-27T11:33:11.999Z</time>
      </trkpt>
      <trkpt lat="47.07216" lon="16.12915">
        <ele>396.351685</ele>
        <time>2022-09-27T11:33:18.005Z</time>
      </trkpt>
      <trkpt lat="47.07223" lon="16.12927">
        <ele>396.807138</ele>
        <time>2022-09-27T11:33:25.008Z</time>
      </trkpt>
      <trkpt lat="47.07229" lon="16.12939">
        <ele>396.758843</ele>
        <time>2022-09-27T11:33:31.036Z</time>
      </trkpt>
      <trkpt lat="47.07236" lon="16.1295">
        <ele>396.710013</ele>
        <time>2022-09-27T11:33:37.165Z</time>
      </trkpt>
      <trkpt lat="47.07243" lon="16.1296">
        <ele>396.666965</ele>
        <time>2022-09-27T11:33:42.028Z</time>
      </trkpt>
      <trkpt lat="47.07249" lon="16.12971">
        <ele>396.622276</ele>
        <time>2022-09-27T11:33:47.013Z</time>
      </trkpt>
      <trkpt lat="47.07256" lon="16.1298">
        <ele>396.578089</ele>
        <time>2022-09-27T11:33:53.055Z</time>
      </trkpt>
      <trkpt lat="47.07261" lon="16.12993">
        <ele>396.530664</ele>
        <time>2022-09-27T11:33:58.997Z</time>
      </trkpt>
      <trkpt lat="47.0727" lon="16.13004">
        <ele>396.476229</ele>
        <time>2022-09-27T11:34:04.048Z</time>
      </trkpt>
      <trkpt lat="47.07271" lon="16.12989">
        <ele>396.428731</ele>
        <time>2022-09-27T11:34:11.004Z</time>
      </trkpt>
      <trkpt lat="47.07265" lon="16.12977">
        <ele>396.38189</ele>
        <time>2022-09-27T11:34:16.052Z</time>
      </trkpt>
      <trkpt lat="47.07258" lon="16.12963">
        <ele>396.328985</ele>
        <time>2022-09-27T11:34:20.984Z</time>
      </trkpt>
      <trkpt lat="47.07252" lon="16.12951">
        <ele>396.279222</ele>
        <time>2022-09-27T11:34:25.003Z</time>
      </trkpt>
      <trkpt lat="47.07245" lon="16.1294">
        <ele>396.232272</ele>
        <time>2022-09-27T11:34:28.998Z</time>
      </trkpt>
      <trkpt lat="47.07236" lon="16.12927">
        <ele>396.175674</ele>
        <time>2022-09-27T11:34:33.020Z</time>
      </trkpt>
      <trkpt lat="47.07228" lon="16.12915">
        <ele>396.122284</ele>
        <time>2022-09-27T11:34:36.027Z</time>
      </trkpt>
      <trkpt lat="47.0722" lon="16.12902">
        <ele>396.065639</ele>
        <time>2022-09-27T11:34:38.988Z</time>
      </trkpt>
      <trkpt lat="47.07213" lon="16.12893">
        <ele>396.020852</ele>
        <time>2022-09-27T11:34:41.000Z</time>
      </trkpt>
      <trkpt lat="47.07206" lon="16.12883">
        <ele>395.92288</ele>
        <time>2022-09-27T11:34:43.036Z</time>
      </trkpt>
      <trkpt lat="47.07199" lon="16.12872">
        <ele>395.670402</ele>
        <time>2022-09-27T11:34:46.017Z</time>
      </trkpt>
      <trkpt lat="47.07195" lon="16.12857">
        <ele>395.404003</ele>
        <time>2022-09-27T11:34:50.016Z</time>
      </trkpt>
      <trkpt lat="47.07204" lon="16.12852">
        <ele>395.176675</ele>
        <time>2022-09-27T11:34:54.023Z</time>
      </trkpt>
      <trkpt lat="47.07216" lon="16.12853">
        <ele>394.884105</ele>
        <time>2022-09-27T11:34:58.025Z</time>
      </trkpt>
      <trkpt lat="47.07228" lon="16.12853">
        <ele>394.596231</ele>
        <time>2022-09-27T11:35:02.019Z</time>
      </trkpt>
      <trkpt lat="47.07238" lon="16.12852">
        <ele>394.345115</ele>
        <time>2022-09-27T11:35:05.014Z</time>
      </trkpt>
      <trkpt lat="47.07248" lon="16.12854">
        <ele>394.083471</ele>
        <time>2022-09-27T11:35:08.021Z</time>
      </trkpt>
      <trkpt lat="47.07258" lon="16.12856">
        <ele>393.857009</ele>
        <time>2022-09-27T11:35:11.015Z</time>
      </trkpt>
      <trkpt lat="47.07268" lon="16.12857">
        <ele>393.598333</ele>
        <time>2022-09-27T11:35:15.012Z</time>
      </trkpt>
      <trkpt lat="47.07279" lon="16.12858">
        <ele>393.320028</ele>
        <time>2022-09-27T11:35:19.024Z</time>
      </trkpt>
      <trkpt lat="47.07289" lon="16.12859">
        <ele>393.08135</ele>
        <time>2022-09-27T11:35:23.068Z</time>
      </trkpt>
      <trkpt lat="47.07299" lon="16.12857">
        <ele>392.82705</ele>
        <time>2022-09-27T11:35:29.095Z</time>
      </trkpt>
      <trkpt lat="47.0731" lon="16.12858">
        <ele>392.55575</ele>
        <time>2022-09-27T11:35:35.004Z</time>
      </trkpt>
      <trkpt lat="47.0732" lon="16.1286">
        <ele>392.325553</ele>
        <time>2022-09-27T11:35:39.064Z</time>
      </trkpt>
      <trkpt lat="47.07329" lon="16.12862">
        <ele>392.082312</ele>
        <time>2022-09-27T11:35:44.027Z</time>
      </trkpt>
      <trkpt lat="47.07339" lon="16.12862">
        <ele>391.83638</ele>
        <time>2022-09-27T11:35:49.017Z</time>
      </trkpt>
      <trkpt lat="47.0735" lon="16.12863">
        <ele>391.588029</ele>
        <time>2022-09-27T11:35:53.021Z</time>
      </trkpt>
      <trkpt lat="47.07359" lon="16.12864">
        <ele>391.365509</ele>
        <time>2022-09-27T11:35:59.032Z</time>
      </trkpt>
      <trkpt lat="47.0737" lon="16.12866">
        <ele>391.085936</ele>
        <time>2022-09-27T11:36:04.028Z</time>
      </trkpt>
      <trkpt lat="47.07381" lon="16.12866">
        <ele>390.833849</ele>
        <time>2022-09-27T11:36:07.005Z</time>
      </trkpt>
      <trkpt lat="47.0739" lon="16.12866">
        <ele>390.610358</ele>
        <time>2022-09-27T11:36:09.018Z</time>
      </trkpt>
      <trkpt lat="47.07399" lon="16.12867">
        <ele>390.386358</ele>
        <time>2022-09-27T11:36:11.062Z</time>
      </trkpt>
      <trkpt lat="47.07409" lon="16.12868">
        <ele>390.150617</ele>
        <time>2022-09-27T11:36:13.035Z</time>
      </trkpt>
      <trkpt lat="47.07418" lon="16.12869">
        <ele>389.932088</ele>
        <time>2022-09-27T11:36:15.020Z</time>
      </trkpt>
      <trkpt lat="47.07428" lon="16.1287">
        <ele>389.692591</ele>
        <time>2022-09-27T11:36:18.030Z</time>
      </trkpt>
      <trkpt lat="47.07439" lon="16.12872">
        <ele>389.443749</ele>
        <time>2022-09-27T11:36:22.017Z</time>
      </trkpt>
      <trkpt lat="47.07448" lon="16.12873">
        <ele>389.205506</ele>
        <time>2022-09-27T11:36:29.027Z</time>
      </trkpt>
      <trkpt lat="47.07459" lon="16.12874">
        <ele>388.957875</ele>
        <time>2022-09-27T11:36:34.999Z</time>
      </trkpt>
      <trkpt lat="47.07468" lon="16.12873">
        <ele>388.739247</ele>
        <time>2022-09-27T11:36:41.014Z</time>
      </trkpt>
      <trkpt lat="47.07478" lon="16.12871">
        <ele>388.50222</ele>
        <time>2022-09-27T11:36:50.050Z</time>
      </trkpt>
      <trkpt lat="47.07487" lon="16.1287">
        <ele>388.266917</ele>
        <time>2022-09-27T11:36:58.024Z</time>
      </trkpt>
      <trkpt lat="47.07497" lon="16.12871">
        <ele>388.031176</ele>
        <time>2022-09-27T11:37:04.008Z</time>
      </trkpt>
      <trkpt lat="47.07507" lon="16.12869">
        <ele>387.782345</ele>
        <time>2022-09-27T11:37:10.010Z</time>
      </trkpt>
      <trkpt lat="47.07517" lon="16.12869">
        <ele>387.551866</ele>
        <time>2022-09-27T11:37:17.021Z</time>
      </trkpt>
      <trkpt lat="47.07527" lon="16.12867">
        <ele>387.315769</ele>
        <time>2022-09-27T11:37:24.019Z</time>
      </trkpt>
      <trkpt lat="47.07536" lon="16.12867">
        <ele>387.519688</ele>
        <time>2022-09-27T11:37:30.009Z</time>
      </trkpt>
      <trkpt lat="47.07546" lon="16.12865">
        <ele>387.934342</ele>
        <time>2022-09-27T11:37:36.028Z</time>
      </trkpt>
      <trkpt lat="47.07555" lon="16.12863">
        <ele>388.311635</ele>
        <time>2022-09-27T11:37:41.043Z</time>
      </trkpt>
      <trkpt lat="47.07565" lon="16.12863">
        <ele>388.697525</ele>
        <time>2022-09-27T11:37:47.026Z</time>
      </trkpt>
      <trkpt lat="47.07574" lon="16.12864">
        <ele>389.08812</ele>
        <time>2022-09-27T11:37:53.048Z</time>
      </trkpt>
      <trkpt lat="47.07583" lon="16.12867">
        <ele>389.460605</ele>
        <time>2022-09-27T11:37:58.040Z</time>
      </trkpt>
      <trkpt lat="47.07592" lon="16.12873">
        <ele>389.878482</ele>
        <time>2022-09-27T11:38:05.015Z</time>
      </trkpt>
      <trkpt lat="47.076" lon="16.12883">
        <ele>390.292448</ele>
        <time>2022-09-27T11:38:12.025Z</time>
      </trkpt>
      <trkpt lat="47.0761" lon="16.12883">
        <ele>390.698908</ele>
        <time>2022-09-27T11:38:17.103Z</time>
      </trkpt>
      <trkpt lat="47.07616" lon="16.12871">
        <ele>391.146137</ele>
        <time>2022-09-27T11:38:22.028Z</time>
      </trkpt>
      <trkpt lat="47.07623" lon="16.1286">
        <ele>391.559625</ele>
        <time>2022-09-27T11:38:26.070Z</time>
      </trkpt>
      <trkpt lat="47.0763" lon="16.12851">
        <ele>391.940167</ele>
        <time>2022-09-27T11:38:29.014Z</time>
      </trkpt>
      <trkpt lat="47.07637" lon="16.12839">
        <ele>392.389343</ele>
        <time>2022-09-27T11:38:34.052Z</time>
      </trkpt>
      <trkpt lat="47.07645" lon="16.1283">
        <ele>392.776188</ele>
        <time>2022-09-27T11:38:38.013Z</time>
      </trkpt>
      <trkpt lat="47.07652" lon="16.1282">
        <ele>393.188802</ele>
        <time>2022-09-27T11:38:41.022Z</time>
      </trkpt>
      <trkpt lat="47.07658" lon="16.12809">
        <ele>393.583664</ele>
        <time>2022-09-27T11:38:44.016Z</time>
      </trkpt>
      <trkpt lat="47.07666" lon="16.12796">
        <ele>394.069326</ele>
        <time>2022-09-27T11:38:48.008Z</time>
      </trkpt>
      <trkpt lat="47.07672" lon="16.12786">
        <ele>394.452196</ele>
        <time>2022-09-27T11:38:51.039Z</time>
      </trkpt>
      <trkpt lat="47.0768" lon="16.12773">
        <ele>395.37115</ele>
        <time>2022-09-27T11:38:55.018Z</time>
      </trkpt>
      <trkpt lat="47.07688" lon="16.12764">
        <ele>396.346109</ele>
        <time>2022-09-27T11:38:58.007Z</time>
      </trkpt>
      <trkpt lat="47.07697" lon="16.12756">
        <ele>397.421117</ele>
        <time>2022-09-27T11:39:02.023Z</time>
      </trkpt>
      <trkpt lat="47.07706" lon="16.12746">
        <ele>398.495108</ele>
        <time>2022-09-27T11:39:06.012Z</time>
      </trkpt>
      <trkpt lat="47.07713" lon="16.12736">
        <ele>399.538039</ele>
        <time>2022-09-27T11:39:10.034Z</time>
      </trkpt>
      <trkpt lat="47.07721" lon="16.12728">
        <ele>400.4845</ele>
        <time>2022-09-27T11:39:13.023Z</time>
      </trkpt>
      <trkpt lat="47.07728" lon="16.12719">
        <ele>401.401123</ele>
        <time>2022-09-27T11:39:16.016Z</time>
      </trkpt>
      <trkpt lat="47.07737" lon="16.12711">
        <ele>402.419575</ele>
        <time>2022-09-27T11:39:21.021Z</time>
      </trkpt>
      <trkpt lat="47.07746" lon="16.12707">
        <ele>403.369739</ele>
        <time>2022-09-27T11:39:25.031Z</time>
      </trkpt>
      <trkpt lat="47.07754" lon="16.127">
        <ele>404.317042</ele>
        <time>2022-09-27T11:39:29.030Z</time>
      </trkpt>
      <trkpt lat="47.07758" lon="16.12688">
        <ele>405.213057</ele>
        <time>2022-09-27T11:39:33.014Z</time>
      </trkpt>
      <trkpt lat="47.07765" lon="16.12679">
        <ele>406.196624</ele>
        <time>2022-09-27T11:39:39.038Z</time>
      </trkpt>
      <trkpt lat="47.07774" lon="16.12669">
        <ele>407.24288</ele>
        <time>2022-09-27T11:39:44.028Z</time>
      </trkpt>
      <trkpt lat="47.07782" lon="16.12663">
        <ele>408.186873</ele>
        <time>2022-09-27T11:39:50.011Z</time>
      </trkpt>
      <trkpt lat="47.07791" lon="16.12657">
        <ele>409.140396</ele>
        <time>2022-09-27T11:39:56.006Z</time>
      </trkpt>
      <trkpt lat="47.07798" lon="16.12645">
        <ele>410.233228</ele>
        <time>2022-09-27T11:40:01.033Z</time>
      </trkpt>
      <trkpt lat="47.07807" lon="16.1264">
        <ele>411.159627</ele>
        <time>2022-09-27T11:40:06.020Z</time>
      </trkpt>
      <trkpt lat="47.07815" lon="16.12633">
        <ele>412.097495</ele>
        <time>2022-09-27T11:40:11.022Z</time>
      </trkpt>
      <trkpt lat="47.07825" lon="16.12627">
        <ele>412.593078</ele>
        <time>2022-09-27T11:40:15.013Z</time>
      </trkpt>
      <trkpt lat="47.07833" lon="16.12622">
        <ele>412.713866</ele>
        <time>2022-09-27T11:40:18.988Z</time>
      </trkpt>
      <trkpt lat="47.07842" lon="16.12618">
        <ele>412.830786</ele>
        <time>2022-09-27T11:40:27.036Z</time>
      </trkpt>
      <trkpt lat="47.0785" lon="16.1261">
        <ele>412.959168</ele>
        <time>2022-09-27T11:40:36.020Z</time>
      </trkpt>
      <trkpt lat="47.07859" lon="16.12606">
        <ele>413.077779</ele>
        <time>2022-09-27T11:40:42.006Z</time>
      </trkpt>
      <trkpt lat="47.07869" lon="16.12604">
        <ele>413.204566</ele>
        <time>2022-09-27T11:40:48.027Z</time>
      </trkpt>
      <trkpt lat="47.07878" lon="16.12602">
        <ele>413.33223</ele>
        <time>2022-09-27T11:40:54.013Z</time>
      </trkpt>
      <trkpt lat="47.07888" lon="16.12597">
        <ele>413.462726</ele>
        <time>2022-09-27T11:41:00.020Z</time>
      </trkpt>
      <trkpt lat="47.07897" lon="16.12594">
        <ele>413.581008</ele>
        <time>2022-09-27T11:41:05.021Z</time>
      </trkpt>
      <trkpt lat="47.07907" lon="16.12591">
        <ele>413.711221</ele>
        <time>2022-09-27T11:41:11.027Z</time>
      </trkpt>
      <trkpt lat="47.07917" lon="16.12588">
        <ele>413.839996</ele>
        <time>2022-09-27T11:41:16.019Z</time>
      </trkpt>
      <trkpt lat="47.07927" lon="16.12586">
        <ele>413.972591</ele>
        <time>2022-09-27T11:41:22.031Z</time>
      </trkpt>
      <trkpt lat="47.07937" lon="16.12582">
        <ele>414.108243</ele>
        <time>2022-09-27T11:41:27.012Z</time>
      </trkpt>
      <trkpt lat="47.07946" lon="16.12579">
        <ele>414.227384</ele>
        <time>2022-09-27T11:41:31.024Z</time>
      </trkpt>
      <trkpt lat="47.07954" lon="16.12574">
        <ele>414.344579</ele>
        <time>2022-09-27T11:41:35.036Z</time>
      </trkpt>
      <trkpt lat="47.07964" lon="16.12571">
        <ele>414.47877</ele>
        <time>2022-09-27T11:41:39.025Z</time>
      </trkpt>
      <trkpt lat="47.07974" lon="16.12567">
        <ele>414.611544</ele>
        <time>2022-09-27T11:41:42.015Z</time>
      </trkpt>
      <trkpt lat="47.07985" lon="16.1256">
        <ele>414.762658</ele>
        <time>2022-09-27T11:41:45.023Z</time>
      </trkpt>
      <trkpt lat="47.07996" lon="16.12552">
        <ele>414.733045</ele>
        <time>2022-09-27T11:41:48.016Z</time>
      </trkpt>
      <trkpt lat="47.08004" lon="16.12546">
        <ele>414.559166</ele>
        <time>2022-09-27T11:41:50.023Z</time>
      </trkpt>
      <trkpt lat="47.08014" lon="16.12538">
        <ele>414.368414</ele>
        <time>2022-09-27T11:41:52.061Z</time>
      </trkpt>
      <trkpt lat="47.08021" lon="16.12531">
        <ele>414.203036</ele>
        <time>2022-09-27T11:41:54.028Z</time>
      </trkpt>
      <trkpt lat="47.08032" lon="16.12523">
        <ele>413.988599</ele>
        <time>2022-09-27T11:41:57.027Z</time>
      </trkpt>
      <trkpt lat="47.08042" lon="16.12517">
        <ele>413.793154</ele>
        <time>2022-09-27T11:42:00.022Z</time>
      </trkpt>
      <trkpt lat="47.08049" lon="16.12508">
        <ele>413.617785</ele>
        <time>2022-09-27T11:42:03.054Z</time>
      </trkpt>
      <trkpt lat="47.08057" lon="16.125">
        <ele>413.438779</ele>
        <time>2022-09-27T11:42:06.023Z</time>
      </trkpt>
      <trkpt lat="47.08065" lon="16.12491">
        <ele>413.259777</ele>
        <time>2022-09-27T11:42:09.026Z</time>
      </trkpt>
      <trkpt lat="47.08073" lon="16.12484">
        <ele>413.092105</ele>
        <time>2022-09-27T11:42:12.061Z</time>
      </trkpt>
      <trkpt lat="47.08081" lon="16.12477">
        <ele>412.922163</ele>
        <time>2022-09-27T11:42:15.058Z</time>
      </trkpt>
      <trkpt lat="47.08087" lon="16.12466">
        <ele>412.742443</ele>
        <time>2022-09-27T11:42:19.060Z</time>
      </trkpt>
      <trkpt lat="47.08092" lon="16.12452">
        <ele>412.555096</ele>
        <time>2022-09-27T11:42:23.007Z</time>
      </trkpt>
      <trkpt lat="47.08099" lon="16.12441">
        <ele>412.378827</ele>
        <time>2022-09-27T11:42:26.008Z</time>
      </trkpt>
      <trkpt lat="47.08106" lon="16.12429">
        <ele>412.173148</ele>
        <time>2022-09-27T11:42:30.012Z</time>
      </trkpt>
      <trkpt lat="47.08115" lon="16.12421">
        <ele>411.991955</ele>
        <time>2022-09-27T11:42:34.021Z</time>
      </trkpt>
      <trkpt lat="47.08124" lon="16.12416">
        <ele>411.8064</ele>
        <time>2022-09-27T11:42:38.059Z</time>
      </trkpt>
      <trkpt lat="47.08133" lon="16.12407">
        <ele>411.610228</ele>
        <time>2022-09-27T11:42:44.012Z</time>
      </trkpt>
      <trkpt lat="47.08141" lon="16.12397">
        <ele>411.791353</ele>
        <time>2022-09-27T11:42:50.019Z</time>
      </trkpt>
      <trkpt lat="47.08148" lon="16.12388">
        <ele>412.009682</ele>
        <time>2022-09-27T11:42:55.007Z</time>
      </trkpt>
      <trkpt lat="47.08158" lon="16.12381">
        <ele>412.277061</ele>
        <time>2022-09-27T11:43:00.018Z</time>
      </trkpt>
      <trkpt lat="47.08167" lon="16.12376">
        <ele>412.505983</ele>
        <time>2022-09-27T11:43:05.028Z</time>
      </trkpt>
      <trkpt lat="47.08174" lon="16.12367">
        <ele>412.735126</ele>
        <time>2022-09-27T11:43:10.008Z</time>
      </trkpt>
      <trkpt lat="47.08184" lon="16.12361">
        <ele>412.982611</ele>
        <time>2022-09-27T11:43:16.019Z</time>
      </trkpt>
      <trkpt lat="47.08191" lon="16.12352">
        <ele>413.208742</ele>
        <time>2022-09-27T11:43:22.018Z</time>
      </trkpt>
      <trkpt lat="47.08201" lon="16.12348">
        <ele>413.447003</ele>
        <time>2022-09-27T11:43:27.016Z</time>
      </trkpt>
      <trkpt lat="47.08209" lon="16.12342">
        <ele>413.667149</ele>
        <time>2022-09-27T11:43:31.026Z</time>
      </trkpt>
      <trkpt lat="47.08218" lon="16.12332">
        <ele>413.926282</ele>
        <time>2022-09-27T11:43:36.022Z</time>
      </trkpt>
      <trkpt lat="47.08226" lon="16.12325">
        <ele>414.152162</ele>
        <time>2022-09-27T11:43:39.020Z</time>
      </trkpt>
      <trkpt lat="47.08239" lon="16.12318">
        <ele>414.480422</ele>
        <time>2022-09-27T11:43:42.011Z</time>
      </trkpt>
      <trkpt lat="47.08249" lon="16.12312">
        <ele>414.745958</ele>
        <time>2022-09-27T11:43:44.015Z</time>
      </trkpt>
      <trkpt lat="47.0826" lon="16.12304">
        <ele>415.033954</ele>
        <time>2022-09-27T11:43:46.099Z</time>
      </trkpt>
      <trkpt lat="47.08271" lon="16.12295">
        <ele>415.335671</ele>
        <time>2022-09-27T11:43:48.021Z</time>
      </trkpt>
      <trkpt lat="47.08282" lon="16.12287">
        <ele>415.620141</ele>
        <time>2022-09-27T11:43:50.035Z</time>
      </trkpt>
      <trkpt lat="47.08293" lon="16.12281">
        <ele>415.847137</ele>
        <time>2022-09-27T11:43:52.006Z</time>
      </trkpt>
      <trkpt lat="47.08305" lon="16.12271">
        <ele>415.624566</ele>
        <time>2022-09-27T11:43:54.035Z</time>
      </trkpt>
      <trkpt lat="47.08318" lon="16.1226">
        <ele>415.380722</ele>
        <time>2022-09-27T11:43:56.015Z</time>
      </trkpt>
      <trkpt lat="47.08331" lon="16.12252">
        <ele>415.143157</ele>
        <time>2022-09-27T11:43:58.031Z</time>
      </trkpt>
      <trkpt lat="47.08345" lon="16.12243">
        <ele>414.889666</ele>
        <time>2022-09-27T11:44:00.022Z</time>
      </trkpt>
      <trkpt lat="47.0836" lon="16.12236">
        <ele>414.634972</ele>
        <time>2022-09-27T11:44:02.089Z</time>
      </trkpt>
      <trkpt lat="47.08375" lon="16.12231">
        <ele>414.374893</ele>
        <time>2022-09-27T11:44:04.023Z</time>
      </trkpt>
      <trkpt lat="47.0839" lon="16.12226">
        <ele>414.128889</ele>
        <time>2022-09-27T11:44:06.020Z</time>
      </trkpt>
      <trkpt lat="47.08404" lon="16.12222">
        <ele>413.889084</ele>
        <time>2022-09-27T11:44:08.019Z</time>
      </trkpt>
      <trkpt lat="47.08417" lon="16.12219">
        <ele>413.675919</ele>
        <time>2022-09-27T11:44:10.018Z</time>
      </trkpt>
      <trkpt lat="47.08428" lon="16.12217">
        <ele>413.493046</ele>
        <time>2022-09-27T11:44:12.021Z</time>
      </trkpt>
      <trkpt lat="47.08438" lon="16.12215">
        <ele>413.332391</ele>
        <time>2022-09-27T11:44:14.056Z</time>
      </trkpt>
      <trkpt lat="47.0845" lon="16.12213">
        <ele>413.130468</ele>
        <time>2022-09-27T11:44:17.037Z</time>
      </trkpt>
      <trkpt lat="47.0846" lon="16.12213">
        <ele>412.967337</ele>
        <time>2022-09-27T11:44:20.028Z</time>
      </trkpt>
      <trkpt lat="47.08469" lon="16.12212">
        <ele>413.204673</ele>
        <time>2022-09-27T11:44:23.015Z</time>
      </trkpt>
      <trkpt lat="47.08479" lon="16.12211">
        <ele>413.696296</ele>
        <time>2022-09-27T11:44:27.013Z</time>
      </trkpt>
      <trkpt lat="47.08488" lon="16.12211">
        <ele>414.138935</ele>
        <time>2022-09-27T11:44:32.031Z</time>
      </trkpt>
      <trkpt lat="47.08498" lon="16.12211">
        <ele>414.620096</ele>
        <time>2022-09-27T11:44:38.034Z</time>
      </trkpt>
      <trkpt lat="47.08508" lon="16.12209">
        <ele>415.102847</ele>
        <time>2022-09-27T11:44:44.010Z</time>
      </trkpt>
      <trkpt lat="47.08518" lon="16.12204">
        <ele>415.609702</ele>
        <time>2022-09-27T11:44:50.019Z</time>
      </trkpt>
      <trkpt lat="47.08527" lon="16.12199">
        <ele>416.052335</ele>
        <time>2022-09-27T11:44:58.003Z</time>
      </trkpt>
      <trkpt lat="47.08536" lon="16.12194">
        <ele>416.540377</ele>
        <time>2022-09-27T11:45:06.008Z</time>
      </trkpt>
      <trkpt lat="47.08544" lon="16.12186">
        <ele>416.982741</ele>
        <time>2022-09-27T11:45:13.032Z</time>
      </trkpt>
      <trkpt lat="47.08551" lon="16.12178">
        <ele>417.423113</ele>
        <time>2022-09-27T11:45:19.026Z</time>
      </trkpt>
      <trkpt lat="47.08562" lon="16.12172">
        <ele>417.966373</ele>
        <time>2022-09-27T11:45:24.017Z</time>
      </trkpt>
      <trkpt lat="47.08572" lon="16.12168">
        <ele>418.479703</ele>
        <time>2022-09-27T11:45:27.001Z</time>
      </trkpt>
      <trkpt lat="47.08584" lon="16.12166">
        <ele>419.052838</ele>
        <time>2022-09-27T11:45:30.001Z</time>
      </trkpt>
      <trkpt lat="47.08597" lon="16.12167">
        <ele>419.669538</ele>
        <time>2022-09-27T11:45:33.018Z</time>
      </trkpt>
      <trkpt lat="47.08606" lon="16.12169">
        <ele>420.130386</ele>
        <time>2022-09-27T11:45:35.020Z</time>
      </trkpt>
      <trkpt lat="47.08619" lon="16.12171">
        <ele>420.740123</ele>
        <time>2022-09-27T11:45:38.020Z</time>
      </trkpt>
      <trkpt lat="47.08629" lon="16.12175">
        <ele>421.269203</ele>
        <time>2022-09-27T11:45:41.005Z</time>
      </trkpt>
      <trkpt lat="47.08639" lon="16.12178">
        <ele>421.453052</ele>
        <time>2022-09-27T11:45:44.021Z</time>
      </trkpt>
      <trkpt lat="47.08648" lon="16.12181">
        <ele>421.184044</ele>
        <time>2022-09-27T11:45:47.046Z</time>
      </trkpt>
      <trkpt lat="47.08658" lon="16.12188">
        <ele>420.862335</ele>
        <time>2022-09-27T11:45:51.043Z</time>
      </trkpt>
      <trkpt lat="47.08668" lon="16.12193">
        <ele>420.564221</ele>
        <time>2022-09-27T11:45:54.022Z</time>
      </trkpt>
      <trkpt lat="47.08677" lon="16.12196">
        <ele>420.277781</ele>
        <time>2022-09-27T11:45:57.031Z</time>
      </trkpt>
      <trkpt lat="47.08688" lon="16.12196">
        <ele>419.948477</ele>
        <time>2022-09-27T11:46:00.031Z</time>
      </trkpt>
      <trkpt lat="47.087" lon="16.12196">
        <ele>419.616363</ele>
        <time>2022-09-27T11:46:03.032Z</time>
      </trkpt>
      <trkpt lat="47.08711" lon="16.12196">
        <ele>419.290144</ele>
        <time>2022-09-27T11:46:06.018Z</time>
      </trkpt>
      <trkpt lat="47.08725" lon="16.12196">
        <ele>418.884459</ele>
        <time>2022-09-27T11:46:09.016Z</time>
      </trkpt>
      <trkpt lat="47.08735" lon="16.12197">
        <ele>418.576463</ele>
        <time>2022-09-27T11:46:11.036Z</time>
      </trkpt>
      <trkpt lat="47.08747" lon="16.122">
        <ele>418.225495</ele>
        <time>2022-09-27T11:46:13.020Z</time>
      </trkpt>
      <trkpt lat="47.08759" lon="16.12204">
        <ele>417.85813</ele>
        <time>2022-09-27T11:46:15.014Z</time>
      </trkpt>
      <trkpt lat="47.08772" lon="16.12209">
        <ele>417.45371</ele>
        <time>2022-09-27T11:46:17.016Z</time>
      </trkpt>
      <trkpt lat="47.08787" lon="16.12214">
        <ele>417.022631</ele>
        <time>2022-09-27T11:46:19.012Z</time>
      </trkpt>
      <trkpt lat="47.08802" lon="16.1222">
        <ele>416.559714</ele>
        <time>2022-09-27T11:46:21.066Z</time>
      </trkpt>
      <trkpt lat="47.08818" lon="16.12225">
        <ele>416.110127</ele>
        <time>2022-09-27T11:46:23.031Z</time>
      </trkpt>
      <trkpt lat="47.08834" lon="16.12231">
        <ele>415.744812</ele>
        <time>2022-09-27T11:46:25.027Z</time>
      </trkpt>
      <trkpt lat="47.08848" lon="16.12236">
        <ele>415.392672</ele>
        <time>2022-09-27T11:46:27.036Z</time>
      </trkpt>
      <trkpt lat="47.08862" lon="16.12241">
        <ele>415.068333</ele>
        <time>2022-09-27T11:46:29.020Z</time>
      </trkpt>
      <trkpt lat="47.08875" lon="16.12247">
        <ele>414.754348</ele>
        <time>2022-09-27T11:46:31.016Z</time>
      </trkpt>
      <trkpt lat="47.08887" lon="16.12251">
        <ele>414.461237</ele>
        <time>2022-09-27T11:46:33.011Z</time>
      </trkpt>
      <trkpt lat="47.089" lon="16.12255">
        <ele>414.151904</ele>
        <time>2022-09-27T11:46:35.023Z</time>
      </trkpt>
      <trkpt lat="47.08911" lon="16.12259">
        <ele>413.879886</ele>
        <time>2022-09-27T11:46:37.031Z</time>
      </trkpt>
      <trkpt lat="47.0892" lon="16.12263">
        <ele>413.658682</ele>
        <time>2022-09-27T11:46:39.030Z</time>
      </trkpt>
      <trkpt lat="47.08929" lon="16.12268">
        <ele>413.441439</ele>
        <time>2022-09-27T11:46:41.024Z</time>
      </trkpt>
      <trkpt lat="47.08941" lon="16.12273">
        <ele>413.165456</ele>
        <time>2022-09-27T11:46:44.034Z</time>
      </trkpt>
      <trkpt lat="47.08949" lon="16.12279">
        <ele>412.937879</ele>
        <time>2022-09-27T11:46:47.021Z</time>
      </trkpt>
      <trkpt lat="47.08959" lon="16.12285">
        <ele>412.707046</ele>
        <time>2022-09-27T11:46:50.038Z</time>
      </trkpt>
      <trkpt lat="47.08968" lon="16.1229">
        <ele>412.478485</ele>
        <time>2022-09-27T11:46:53.007Z</time>
      </trkpt>
      <trkpt lat="47.08977" lon="16.12294">
        <ele>412.25506</ele>
        <time>2022-09-27T11:46:56.007Z</time>
      </trkpt>
      <trkpt lat="47.08988" lon="16.12299">
        <ele>412.224054</ele>
        <time>2022-09-27T11:47:00.023Z</time>
      </trkpt>
      <trkpt lat="47.08999" lon="16.12303">
        <ele>412.515883</ele>
        <time>2022-09-27T11:47:04.046Z</time>
      </trkpt>
      <trkpt lat="47.09009" lon="16.12307">
        <ele>412.766978</ele>
        <time>2022-09-27T11:47:07.027Z</time>
      </trkpt>
      <trkpt lat="47.09018" lon="16.1231">
        <ele>413.003688</ele>
        <time>2022-09-27T11:47:10.012Z</time>
      </trkpt>
      <trkpt lat="47.09028" lon="16.12313">
        <ele>413.271207</ele>
        <time>2022-09-27T11:47:15.027Z</time>
      </trkpt>
      <trkpt lat="47.09039" lon="16.12318">
        <ele>413.551867</ele>
        <time>2022-09-27T11:47:20.018Z</time>
      </trkpt>
      <trkpt lat="47.09048" lon="16.12322">
        <ele>413.787005</ele>
        <time>2022-09-27T11:47:24.022Z</time>
      </trkpt>
      <trkpt lat="47.09057" lon="16.12326">
        <ele>414.01729</ele>
        <time>2022-09-27T11:47:29.060Z</time>
      </trkpt>
      <trkpt lat="47.09066" lon="16.1233">
        <ele>414.248519</ele>
        <time>2022-09-27T11:47:34.040Z</time>
      </trkpt>
      <trkpt lat="47.09075" lon="16.12333">
        <ele>414.488097</ele>
        <time>2022-09-27T11:47:39.039Z</time>
      </trkpt>
      <trkpt lat="47.09084" lon="16.12337">
        <ele>414.719816</ele>
        <time>2022-09-27T11:47:45.014Z</time>
      </trkpt>
      <trkpt lat="47.09093" lon="16.12342">
        <ele>414.962989</ele>
        <time>2022-09-27T11:47:50.014Z</time>
      </trkpt>
      <trkpt lat="47.09101" lon="16.12348">
        <ele>415.200839</ele>
        <time>2022-09-27T11:47:55.035Z</time>
      </trkpt>
      <trkpt lat="47.09111" lon="16.12349">
        <ele>415.454242</ele>
        <time>2022-09-27T11:48:00.020Z</time>
      </trkpt>
      <trkpt lat="47.09121" lon="16.12355">
        <ele>415.709318</ele>
        <time>2022-09-27T11:48:05.038Z</time>
      </trkpt>
      <trkpt lat="47.09129" lon="16.12361">
        <ele>415.941034</ele>
        <time>2022-09-27T11:48:09.008Z</time>
      </trkpt>
      <trkpt lat="47.0914" lon="16.12366">
        <ele>416.246457</ele>
        <time>2022-09-27T11:48:13.021Z</time>
      </trkpt>
      <trkpt lat="47.09151" lon="16.12372">
        <ele>416.538836</ele>
        <time>2022-09-27T11:48:16.033Z</time>
      </trkpt>
      <trkpt lat="47.09164" lon="16.12376">
        <ele>416.096261</ele>
        <time>2022-09-27T11:48:19.020Z</time>
      </trkpt>
      <trkpt lat="47.09174" lon="16.12379">
        <ele>415.517223</ele>
        <time>2022-09-27T11:48:21.035Z</time>
      </trkpt>
      <trkpt lat="47.09183" lon="16.12379">
        <ele>414.970639</ele>
        <time>2022-09-27T11:48:23.022Z</time>
      </trkpt>
      <trkpt lat="47.09193" lon="16.12378">
        <ele>414.434909</ele>
        <time>2022-09-27T11:48:25.029Z</time>
      </trkpt>
      <trkpt lat="47.09206" lon="16.12376">
        <ele>413.658898</ele>
        <time>2022-09-27T11:48:28.073Z</time>
      </trkpt>
      <trkpt lat="47.09219" lon="16.12372">
        <ele>412.864816</ele>
        <time>2022-09-27T11:48:31.032Z</time>
      </trkpt>
      <trkpt lat="47.09231" lon="16.12368">
        <ele>412.164419</ele>
        <time>2022-09-27T11:48:34.031Z</time>
      </trkpt>
      <trkpt lat="47.09243" lon="16.12364">
        <ele>411.439348</ele>
        <time>2022-09-27T11:48:37.036Z</time>
      </trkpt>
      <trkpt lat="47.09252" lon="16.12361">
        <ele>410.888823</ele>
        <time>2022-09-27T11:48:39.017Z</time>
      </trkpt>
      <trkpt lat="47.09262" lon="16.12359">
        <ele>410.318842</ele>
        <time>2022-09-27T11:48:41.037Z</time>
      </trkpt>
      <trkpt lat="47.09272" lon="16.12357">
        <ele>409.750014</ele>
        <time>2022-09-27T11:48:43.033Z</time>
      </trkpt>
      <trkpt lat="47.09285" lon="16.12356">
        <ele>408.970395</ele>
        <time>2022-09-27T11:48:46.022Z</time>
      </trkpt>
      <trkpt lat="47.09294" lon="16.12355">
        <ele>408.440988</ele>
        <time>2022-09-27T11:48:48.024Z</time>
      </trkpt>
      <trkpt lat="47.09303" lon="16.12352">
        <ele>407.904156</ele>
        <time>2022-09-27T11:48:50.047Z</time>
      </trkpt>
      <trkpt lat="47.09315" lon="16.12351">
        <ele>407.250673</ele>
        <time>2022-09-27T11:48:54.040Z</time>
      </trkpt>
      <trkpt lat="47.09326" lon="16.1235">
        <ele>406.576612</ele>
        <time>2022-09-27T11:48:57.040Z</time>
      </trkpt>
      <trkpt lat="47.09336" lon="16.1235">
        <ele>405.977714</ele>
        <time>2022-09-27T11:48:59.020Z</time>
      </trkpt>
      <trkpt lat="47.09345" lon="16.12357">
        <ele>405.204668</ele>
        <time>2022-09-27T11:49:02.033Z</time>
      </trkpt>
      <trkpt lat="47.09347" lon="16.12371">
        <ele>404.473659</ele>
        <time>2022-09-27T11:49:05.027Z</time>
      </trkpt>
      <trkpt lat="47.09347" lon="16.1239">
        <ele>403.514305</ele>
        <time>2022-09-27T11:49:08.048Z</time>
      </trkpt>
      <trkpt lat="47.09348" lon="16.12407">
        <ele>402.625815</ele>
        <time>2022-09-27T11:49:11.027Z</time>
      </trkpt>
      <trkpt lat="47.0935" lon="16.12426">
        <ele>401.653121</ele>
        <time>2022-09-27T11:49:14.003Z</time>
      </trkpt>
      <trkpt lat="47.09351" lon="16.12446">
        <ele>400.627134</ele>
        <time>2022-09-27T11:49:17.031Z</time>
      </trkpt>
      <trkpt lat="47.09352" lon="16.12461">
        <ele>399.887378</ele>
        <time>2022-09-27T11:49:19.024Z</time>
      </trkpt>
      <trkpt lat="47.09353" lon="16.12476">
        <ele>399.107888</ele>
        <time>2022-09-27T11:49:21.020Z</time>
      </trkpt>
      <trkpt lat="47.09354" lon="16.12491">
        <ele>398.351363</ele>
        <time>2022-09-27T11:49:23.036Z</time>
      </trkpt>
      <trkpt lat="47.09355" lon="16.12506">
        <ele>397.596887</ele>
        <time>2022-09-27T11:49:25.026Z</time>
      </trkpt>
      <trkpt lat="47.09357" lon="16.1252">
        <ele>396.833778</ele>
        <time>2022-09-27T11:49:27.027Z</time>
      </trkpt>
      <trkpt lat="47.09359" lon="16.12534">
        <ele>396.116035</ele>
        <time>2022-09-27T11:49:29.032Z</time>
      </trkpt>
      <trkpt lat="47.09361" lon="16.12551">
        <ele>395.236593</ele>
        <time>2022-09-27T11:49:32.019Z</time>
      </trkpt>
      <trkpt lat="47.09363" lon="16.12569">
        <ele>394.348287</ele>
        <time>2022-09-27T11:49:35.020Z</time>
      </trkpt>
      <trkpt lat="47.09364" lon="16.12586">
        <ele>393.47217</ele>
        <time>2022-09-27T11:49:38.024Z</time>
      </trkpt>
      <trkpt lat="47.09367" lon="16.12602">
        <ele>392.832741</ele>
        <time>2022-09-27T11:49:41.029Z</time>
      </trkpt>
      <trkpt lat="47.09369" lon="16.12617">
        <ele>393.138536</ele>
        <time>2022-09-27T11:49:44.024Z</time>
      </trkpt>
      <trkpt lat="47.0937" lon="16.12633">
        <ele>393.444688</ele>
        <time>2022-09-27T11:49:47.028Z</time>
      </trkpt>
      <trkpt lat="47.09371" lon="16.12649">
        <ele>393.745728</ele>
        <time>2022-09-27T11:49:50.034Z</time>
      </trkpt>
      <trkpt lat="47.09373" lon="16.12664">
        <ele>394.044148</ele>
        <time>2022-09-27T11:49:53.081Z</time>
      </trkpt>
      <trkpt lat="47.09375" lon="16.12678">
        <ele>394.318006</ele>
        <time>2022-09-27T11:49:56.018Z</time>
      </trkpt>
      <trkpt lat="47.09377" lon="16.12691">
        <ele>394.582441</ele>
        <time>2022-09-27T11:49:59.004Z</time>
      </trkpt>
      <trkpt lat="47.09379" lon="16.12705">
        <ele>394.850875</ele>
        <time>2022-09-27T11:50:02.015Z</time>
      </trkpt>
      <trkpt lat="47.09381" lon="16.12719">
        <ele>395.12173</ele>
        <time>2022-09-27T11:50:05.011Z</time>
      </trkpt>
      <trkpt lat="47.09382" lon="16.12734">
        <ele>395.413205</ele>
        <time>2022-09-27T11:50:08.021Z</time>
      </trkpt>
      <trkpt lat="47.09384" lon="16.12749">
        <ele>395.707309</ele>
        <time>2022-09-27T11:50:11.021Z</time>
      </trkpt>
      <trkpt lat="47.09387" lon="16.12765">
        <ele>396.029489</ele>
        <time>2022-09-27T11:50:14.030Z</time>
      </trkpt>
      <trkpt lat="47.09389" lon="16.12781">
        <ele>396.356107</ele>
        <time>2022-09-27T11:50:17.025Z</time>
      </trkpt>
      <trkpt lat="47.09392" lon="16.12797">
        <ele>396.667567</ele>
        <time>2022-09-27T11:50:20.068Z</time>
      </trkpt>
      <trkpt lat="47.09395" lon="16.12815">
        <ele>397.02226</ele>
        <time>2022-09-27T11:50:23.036Z</time>
      </trkpt>
      <trkpt lat="47.09397" lon="16.12833">
        <ele>397.376293</ele>
        <time>2022-09-27T11:50:26.027Z</time>
      </trkpt>
      <trkpt lat="47.094" lon="16.1285">
        <ele>397.712951</ele>
        <time>2022-09-27T11:50:29.027Z</time>
      </trkpt>
      <trkpt lat="47.09403" lon="16.12866">
        <ele>397.963955</ele>
        <time>2022-09-27T11:50:32.018Z</time>
      </trkpt>
      <trkpt lat="47.09406" lon="16.12883">
        <ele>398.134438</ele>
        <time>2022-09-27T11:50:35.015Z</time>
      </trkpt>
      <trkpt lat="47.09408" lon="16.12899">
        <ele>398.300947</ele>
        <time>2022-09-27T11:50:38.022Z</time>
      </trkpt>
      <trkpt lat="47.0941" lon="16.12914">
        <ele>398.461898</ele>
        <time>2022-09-27T11:50:41.016Z</time>
      </trkpt>
      <trkpt lat="47.09414" lon="16.1293">
        <ele>398.627091</ele>
        <time>2022-09-27T11:50:44.040Z</time>
      </trkpt>
      <trkpt lat="47.09417" lon="16.12945">
        <ele>398.78763</ele>
        <time>2022-09-27T11:50:47.039Z</time>
      </trkpt>
      <trkpt lat="47.09421" lon="16.12961">
        <ele>398.964559</ele>
        <time>2022-09-27T11:50:50.018Z</time>
      </trkpt>
      <trkpt lat="47.09426" lon="16.12979">
        <ele>399.161638</ele>
        <time>2022-09-27T11:50:53.089Z</time>
      </trkpt>
      <trkpt lat="47.09431" lon="16.12997">
        <ele>399.352878</ele>
        <time>2022-09-27T11:50:56.024Z</time>
      </trkpt>
      <trkpt lat="47.09437" lon="16.13014">
        <ele>399.550246</ele>
        <time>2022-09-27T11:50:59.019Z</time>
      </trkpt>
      <trkpt lat="47.09441" lon="16.13033">
        <ele>399.744712</ele>
        <time>2022-09-27T11:51:02.019Z</time>
      </trkpt>
      <trkpt lat="47.09445" lon="16.1305">
        <ele>399.931404</ele>
        <time>2022-09-27T11:51:05.038Z</time>
      </trkpt>
      <trkpt lat="47.0945" lon="16.13064">
        <ele>400.094297</ele>
        <time>2022-09-27T11:51:08.013Z</time>
      </trkpt>
      <trkpt lat="47.09454" lon="16.1308">
        <ele>400.259002</ele>
        <time>2022-09-27T11:51:11.017Z</time>
      </trkpt>
      <trkpt lat="47.09458" lon="16.13095">
        <ele>400.430198</ele>
        <time>2022-09-27T11:51:14.019Z</time>
      </trkpt>
      <trkpt lat="47.09463" lon="16.13111">
        <ele>400.653576</ele>
        <time>2022-09-27T11:51:17.012Z</time>
      </trkpt>
      <trkpt lat="47.09467" lon="16.13125">
        <ele>400.999345</ele>
        <time>2022-09-27T11:51:20.022Z</time>
      </trkpt>
      <trkpt lat="47.09472" lon="16.13139">
        <ele>401.320436</ele>
        <time>2022-09-27T11:51:23.042Z</time>
      </trkpt>
      <trkpt lat="47.09477" lon="16.13152">
        <ele>401.638884</ele>
        <time>2022-09-27T11:51:26.041Z</time>
      </trkpt>
      <trkpt lat="47.09482" lon="16.13163">
        <ele>401.936804</ele>
        <time>2022-09-27T11:51:29.014Z</time>
      </trkpt>
      <trkpt lat="47.09486" lon="16.13175">
        <ele>402.232002</ele>
        <time>2022-09-27T11:51:32.060Z</time>
      </trkpt>
      <trkpt lat="47.09492" lon="16.13188">
        <ele>402.552985</ele>
        <time>2022-09-27T11:51:35.015Z</time>
      </trkpt>
      <trkpt lat="47.09499" lon="16.13198">
        <ele>402.875941</ele>
        <time>2022-09-27T11:51:38.037Z</time>
      </trkpt>
      <trkpt lat="47.09506" lon="16.13208">
        <ele>403.181553</ele>
        <time>2022-09-27T11:51:41.023Z</time>
      </trkpt>
      <trkpt lat="47.09512" lon="16.13222">
        <ele>403.525827</ele>
        <time>2022-09-27T11:51:45.021Z</time>
      </trkpt>
      <trkpt lat="47.09518" lon="16.13235">
        <ele>403.875179</ele>
        <time>2022-09-27T11:51:49.004Z</time>
      </trkpt>
      <trkpt lat="47.09524" lon="16.13248">
        <ele>404.207386</ele>
        <time>2022-09-27T11:51:53.025Z</time>
      </trkpt>
      <trkpt lat="47.09529" lon="16.13259">
        <ele>404.496724</ele>
        <time>2022-09-27T11:51:56.032Z</time>
      </trkpt>
      <trkpt lat="47.09535" lon="16.13272">
        <ele>404.835433</ele>
        <time>2022-09-27T11:52:00.038Z</time>
      </trkpt>
      <trkpt lat="47.0954" lon="16.13284">
        <ele>405.127136</ele>
        <time>2022-09-27T11:52:04.028Z</time>
      </trkpt>
      <trkpt lat="47.09545" lon="16.13295">
        <ele>405.42199</ele>
        <time>2022-09-27T11:52:08.025Z</time>
      </trkpt>
      <trkpt lat="47.09551" lon="16.13306">
        <ele>405.714773</ele>
        <time>2022-09-27T11:52:12.027Z</time>
      </trkpt>
      <trkpt lat="47.09557" lon="16.13318">
        <ele>406.037771</ele>
        <time>2022-09-27T11:52:16.017Z</time>
      </trkpt>
      <trkpt lat="47.09565" lon="16.13329">
        <ele>406.288063</ele>
        <time>2022-09-27T11:52:21.036Z</time>
      </trkpt>
      <trkpt lat="47.0957" lon="16.13342">
        <ele>406.432965</ele>
        <time>2022-09-27T11:52:25.033Z</time>
      </trkpt>
      <trkpt lat="47.09576" lon="16.13355">
        <ele>406.579377</ele>
        <time>2022-09-27T11:52:29.062Z</time>
      </trkpt>
      <trkpt lat="47.09581" lon="16.13369">
        <ele>406.718338</ele>
        <time>2022-09-27T11:52:34.023Z</time>
      </trkpt>
      <trkpt lat="47.09583" lon="16.13382">
        <ele>406.846329</ele>
        <time>2022-09-27T11:52:39.029Z</time>
      </trkpt>
      <trkpt lat="47.09586" lon="16.13397">
        <ele>406.991815</ele>
        <time>2022-09-27T11:52:43.026Z</time>
      </trkpt>
      <trkpt lat="47.0959" lon="16.1341">
        <ele>407.129543</ele>
        <time>2022-09-27T11:52:46.048Z</time>
      </trkpt>
      <trkpt lat="47.09594" lon="16.13425">
        <ele>407.278168</ele>
        <time>2022-09-27T11:52:49.020Z</time>
      </trkpt>
      <trkpt lat="47.09598" lon="16.13442">
        <ele>407.444525</ele>
        <time>2022-09-27T11:52:52.027Z</time>
      </trkpt>
      <trkpt lat="47.09601" lon="16.13455">
        <ele>407.574065</ele>
        <time>2022-09-27T11:52:54.029Z</time>
      </trkpt>
      <trkpt lat="47.09605" lon="16.13468">
        <ele>407.711826</ele>
        <time>2022-09-27T11:52:56.025Z</time>
      </trkpt>
      <trkpt lat="47.09609" lon="16.13483">
        <ele>407.861756</ele>
        <time>2022-09-27T11:52:58.012Z</time>
      </trkpt>
      <trkpt lat="47.09614" lon="16.13498">
        <ele>408.018198</ele>
        <time>2022-09-27T11:53:00.037Z</time>
      </trkpt>
      <trkpt lat="47.09619" lon="16.13511">
        <ele>408.161805</ele>
        <time>2022-09-27T11:53:02.066Z</time>
      </trkpt>
      <trkpt lat="47.09624" lon="16.13524">
        <ele>408.30254</ele>
        <time>2022-09-27T11:53:04.021Z</time>
      </trkpt>
      <trkpt lat="47.09629" lon="16.13537">
        <ele>408.43652</ele>
        <time>2022-09-27T11:53:06.028Z</time>
      </trkpt>
      <trkpt lat="47.09634" lon="16.13549">
        <ele>408.573722</ele>
        <time>2022-09-27T11:53:08.026Z</time>
      </trkpt>
      <trkpt lat="47.09639" lon="16.13562">
        <ele>408.670686</ele>
        <time>2022-09-27T11:53:10.029Z</time>
      </trkpt>
      <trkpt lat="47.09645" lon="16.13573">
        <ele>408.44175</ele>
        <time>2022-09-27T11:53:12.021Z</time>
      </trkpt>
      <trkpt lat="47.09652" lon="16.13585">
        <ele>408.193954</ele>
        <time>2022-09-27T11:53:14.016Z</time>
      </trkpt>
      <trkpt lat="47.09659" lon="16.13597">
        <ele>407.942905</ele>
        <time>2022-09-27T11:53:16.033Z</time>
      </trkpt>
      <trkpt lat="47.09664" lon="16.13608">
        <ele>407.709866</ele>
        <time>2022-09-27T11:53:18.020Z</time>
      </trkpt>
      <trkpt lat="47.09672" lon="16.13624">
        <ele>407.397966</ele>
        <time>2022-09-27T11:53:21.019Z</time>
      </trkpt>
      <trkpt lat="47.09678" lon="16.13641">
        <ele>407.091051</ele>
        <time>2022-09-27T11:53:24.017Z</time>
      </trkpt>
      <trkpt lat="47.09683" lon="16.13652">
        <ele>406.872878</ele>
        <time>2022-09-27T11:53:26.017Z</time>
      </trkpt>
      <trkpt lat="47.09691" lon="16.13668">
        <ele>406.565027</ele>
        <time>2022-09-27T11:53:29.023Z</time>
      </trkpt>
      <trkpt lat="47.09699" lon="16.13681">
        <ele>406.272777</ele>
        <time>2022-09-27T11:53:32.034Z</time>
      </trkpt>
      <trkpt lat="47.09705" lon="16.13693">
        <ele>406.034306</ele>
        <time>2022-09-27T11:53:34.013Z</time>
      </trkpt>
      <trkpt lat="47.09711" lon="16.13704">
        <ele>405.80227</ele>
        <time>2022-09-27T11:53:35.999Z</time>
      </trkpt>
      <trkpt lat="47.09716" lon="16.13715">
        <ele>405.582455</ele>
        <time>2022-09-27T11:53:38.023Z</time>
      </trkpt>
      <trkpt lat="47.09724" lon="16.13731">
        <ele>405.262204</ele>
        <time>2022-09-27T11:53:41.047Z</time>
      </trkpt>
      <trkpt lat="47.0973" lon="16.13742">
        <ele>405.04349</ele>
        <time>2022-09-27T11:53:43.027Z</time>
      </trkpt>
      <trkpt lat="47.09736" lon="16.13752">
        <ele>404.820761</ele>
        <time>2022-09-27T11:53:45.013Z</time>
      </trkpt>
      <trkpt lat="47.09742" lon="16.13763">
        <ele>404.601825</ele>
        <time>2022-09-27T11:53:47.010Z</time>
      </trkpt>
      <trkpt lat="47.09749" lon="16.13779">
        <ele>404.283496</ele>
        <time>2022-09-27T11:53:50.015Z</time>
      </trkpt>
      <trkpt lat="47.09756" lon="16.13794">
        <ele>403.965952</ele>
        <time>2022-09-27T11:53:53.034Z</time>
      </trkpt>
      <trkpt lat="47.09762" lon="16.1381">
        <ele>403.660842</ele>
        <time>2022-09-27T11:53:56.024Z</time>
      </trkpt>
      <trkpt lat="47.09772" lon="16.13823">
        <ele>403.324725</ele>
        <time>2022-09-27T11:53:59.031Z</time>
      </trkpt>
      <trkpt lat="47.09778" lon="16.13835">
        <ele>403.071531</ele>
        <time>2022-09-27T11:54:01.002Z</time>
      </trkpt>
      <trkpt lat="47.09784" lon="16.13848">
        <ele>402.814409</ele>
        <time>2022-09-27T11:54:03.059Z</time>
      </trkpt>
      <trkpt lat="47.0979" lon="16.13862">
        <ele>402.53002</ele>
        <time>2022-09-27T11:54:05.032Z</time>
      </trkpt>
      <trkpt lat="47.09795" lon="16.13877">
        <ele>402.247668</ele>
        <time>2022-09-27T11:54:07.008Z</time>
      </trkpt>
      <trkpt lat="47.09799" lon="16.13893">
        <ele>401.954613</ele>
        <time>2022-09-27T11:54:09.012Z</time>
      </trkpt>
      <trkpt lat="47.09805" lon="16.13909">
        <ele>401.645879</ele>
        <time>2022-09-27T11:54:11.066Z</time>
      </trkpt>
      <trkpt lat="47.0981" lon="16.13926">
        <ele>401.339021</ele>
        <time>2022-09-27T11:54:13.045Z</time>
      </trkpt>
      <trkpt lat="47.09813" lon="16.13942">
        <ele>401.050682</ele>
        <time>2022-09-27T11:54:15.020Z</time>
      </trkpt>
      <trkpt lat="47.09815" lon="16.13958">
        <ele>400.764905</ele>
        <time>2022-09-27T11:54:17.036Z</time>
      </trkpt>
      <trkpt lat="47.09817" lon="16.13977">
        <ele>400.442767</ele>
        <time>2022-09-27T11:54:19.045Z</time>
      </trkpt>
      <trkpt lat="47.09818" lon="16.13994">
        <ele>400.155381</ele>
        <time>2022-09-27T11:54:21.014Z</time>
      </trkpt>
      <trkpt lat="47.0982" lon="16.1401">
        <ele>399.854498</ele>
        <time>2022-09-27T11:54:23.010Z</time>
      </trkpt>
      <trkpt lat="47.09823" lon="16.14026">
        <ele>399.506522</ele>
        <time>2022-09-27T11:54:25.059Z</time>
      </trkpt>
      <trkpt lat="47.09826" lon="16.14039">
        <ele>399.198788</ele>
        <time>2022-09-27T11:54:27.026Z</time>
      </trkpt>
      <trkpt lat="47.09833" lon="16.14053">
        <ele>398.850798</ele>
        <time>2022-09-27T11:54:29.021Z</time>
      </trkpt>
      <trkpt lat="47.09842" lon="16.14064">
        <ele>398.455343</ele>
        <time>2022-09-27T11:54:31.007Z</time>
      </trkpt>
      <trkpt lat="47.09855" lon="16.14074">
        <ele>398.008946</ele>
        <time>2022-09-27T11:54:33.020Z</time>
      </trkpt>
      <trkpt lat="47.09868" lon="16.14082">
        <ele>397.549979</ele>
        <time>2022-09-27T11:54:35.026Z</time>
      </trkpt>
      <trkpt lat="47.09882" lon="16.14089">
        <ele>397.090832</ele>
        <time>2022-09-27T11:54:37.019Z</time>
      </trkpt>
      <trkpt lat="47.09897" lon="16.14093">
        <ele>396.614518</ele>
        <time>2022-09-27T11:54:39.012Z</time>
      </trkpt>
      <trkpt lat="47.09912" lon="16.14099">
        <ele>396.114109</ele>
        <time>2022-09-27T11:54:41.037Z</time>
      </trkpt>
      <trkpt lat="47.09928" lon="16.14103">
        <ele>395.6101</ele>
        <time>2022-09-27T11:54:43.014Z</time>
      </trkpt>
      <trkpt lat="47.09944" lon="16.14109">
        <ele>395.071547</ele>
        <time>2022-09-27T11:54:45.018Z</time>
      </trkpt>
      <trkpt lat="47.09961" lon="16.14115">
        <ele>394.51716</ele>
        <time>2022-09-27T11:54:47.061Z</time>
      </trkpt>
      <trkpt lat="47.09976" lon="16.14124">
        <ele>393.912548</ele>
        <time>2022-09-27T11:54:49.018Z</time>
      </trkpt>
      <trkpt lat="47.09988" lon="16.14135">
        <ele>393.315101</ele>
        <time>2022-09-27T11:54:51.037Z</time>
      </trkpt>
      <trkpt lat="47.09999" lon="16.14148">
        <ele>392.707089</ele>
        <time>2022-09-27T11:54:53.044Z</time>
      </trkpt>
      <trkpt lat="47.10008" lon="16.14162">
        <ele>392.150848</ele>
        <time>2022-09-27T11:54:55.028Z</time>
      </trkpt>
      <trkpt lat="47.10017" lon="16.14174">
        <ele>391.639577</ele>
        <time>2022-09-27T11:54:57.024Z</time>
      </trkpt>
      <trkpt lat="47.10025" lon="16.14185">
        <ele>391.152867</ele>
        <time>2022-09-27T11:54:59.020Z</time>
      </trkpt>
      <trkpt lat="47.10033" lon="16.14195">
        <ele>390.71469</ele>
        <time>2022-09-27T11:55:01.021Z</time>
      </trkpt>
      <trkpt lat="47.1004" lon="16.14204">
        <ele>390.319067</ele>
        <time>2022-09-27T11:55:03.023Z</time>
      </trkpt>
      <trkpt lat="47.10047" lon="16.14212">
        <ele>389.933999</ele>
        <time>2022-09-27T11:55:05.057Z</time>
      </trkpt>
      <trkpt lat="47.10053" lon="16.14221">
        <ele>389.536398</ele>
        <time>2022-09-27T11:55:07.006Z</time>
      </trkpt>
      <trkpt lat="47.10061" lon="16.14233">
        <ele>389.053586</ele>
        <time>2022-09-27T11:55:09.073Z</time>
      </trkpt>
      <trkpt lat="47.1007" lon="16.14248">
        <ele>388.490532</ele>
        <time>2022-09-27T11:55:11.021Z</time>
      </trkpt>
      <trkpt lat="47.10077" lon="16.14263">
        <ele>387.936251</ele>
        <time>2022-09-27T11:55:13.009Z</time>
      </trkpt>
      <trkpt lat="47.10084" lon="16.14279">
        <ele>387.401287</ele>
        <time>2022-09-27T11:55:15.021Z</time>
      </trkpt>
      <trkpt lat="47.1009" lon="16.14295">
        <ele>386.852511</ele>
        <time>2022-09-27T11:55:17.035Z</time>
      </trkpt>
      <trkpt lat="47.10095" lon="16.14311">
        <ele>386.493852</ele>
        <time>2022-09-27T11:55:19.012Z</time>
      </trkpt>
      <trkpt lat="47.10099" lon="16.14326">
        <ele>386.506748</ele>
        <time>2022-09-27T11:55:21.028Z</time>
      </trkpt>
      <trkpt lat="47.10104" lon="16.14341">
        <ele>386.519121</ele>
        <time>2022-09-27T11:55:23.038Z</time>
      </trkpt>
      <trkpt lat="47.10108" lon="16.14354">
        <ele>386.530315</ele>
        <time>2022-09-27T11:55:25.001Z</time>
      </trkpt>
      <trkpt lat="47.10114" lon="16.14371">
        <ele>386.544923</ele>
        <time>2022-09-27T11:55:28.026Z</time>
      </trkpt>
      <trkpt lat="47.1012" lon="16.14386">
        <ele>386.559083</ele>
        <time>2022-09-27T11:55:31.014Z</time>
      </trkpt>
      <trkpt lat="47.10126" lon="16.14402">
        <ele>386.572861</ele>
        <time>2022-09-27T11:55:34.038Z</time>
      </trkpt>
      <trkpt lat="47.10132" lon="16.14419">
        <ele>386.587317</ele>
        <time>2022-09-27T11:55:37.013Z</time>
      </trkpt>
      <trkpt lat="47.10138" lon="16.14435">
        <ele>386.601783</ele>
        <time>2022-09-27T11:55:40.026Z</time>
      </trkpt>
      <trkpt lat="47.10146" lon="16.14449">
        <ele>386.616</ele>
        <time>2022-09-27T11:55:43.066Z</time>
      </trkpt>
      <trkpt lat="47.10154" lon="16.14464">
        <ele>386.631081</ele>
        <time>2022-09-27T11:55:46.018Z</time>
      </trkpt>
      <trkpt lat="47.10163" lon="16.14479">
        <ele>386.646322</ele>
        <time>2022-09-27T11:55:49.027Z</time>
      </trkpt>
      <trkpt lat="47.10171" lon="16.14493">
        <ele>386.660189</ele>
        <time>2022-09-27T11:55:52.028Z</time>
      </trkpt>
      <trkpt lat="47.10179" lon="16.14505">
        <ele>386.673771</ele>
        <time>2022-09-27T11:55:55.010Z</time>
      </trkpt>
      <trkpt lat="47.10187" lon="16.14517">
        <ele>386.686726</ele>
        <time>2022-09-27T11:55:58.014Z</time>
      </trkpt>
      <trkpt lat="47.10195" lon="16.1453">
        <ele>386.860793</ele>
        <time>2022-09-27T11:56:01.011Z</time>
      </trkpt>
      <trkpt lat="47.10202" lon="16.14541">
        <ele>387.268695</ele>
        <time>2022-09-27T11:56:04.031Z</time>
      </trkpt>
      <trkpt lat="47.10209" lon="16.14551">
        <ele>387.652101</ele>
        <time>2022-09-27T11:56:07.014Z</time>
      </trkpt>
      <trkpt lat="47.10216" lon="16.14559">
        <ele>388.022908</ele>
        <time>2022-09-27T11:56:10.017Z</time>
      </trkpt>
      <trkpt lat="47.10223" lon="16.14568">
        <ele>388.388497</ele>
        <time>2022-09-27T11:56:13.030Z</time>
      </trkpt>
      <trkpt lat="47.10231" lon="16.14575">
        <ele>388.743602</ele>
        <time>2022-09-27T11:56:16.042Z</time>
      </trkpt>
      <trkpt lat="47.1024" lon="16.14583">
        <ele>389.16141</ele>
        <time>2022-09-27T11:56:20.076Z</time>
      </trkpt>
      <trkpt lat="47.10248" lon="16.1459">
        <ele>389.541275</ele>
        <time>2022-09-27T11:56:24.024Z</time>
      </trkpt>
      <trkpt lat="47.10256" lon="16.14598">
        <ele>389.918047</ele>
        <time>2022-09-27T11:56:28.019Z</time>
      </trkpt>
      <trkpt lat="47.10265" lon="16.14605">
        <ele>390.286492</ele>
        <time>2022-09-27T11:56:32.024Z</time>
      </trkpt>
      <trkpt lat="47.10273" lon="16.14612">
        <ele>390.660977</ele>
        <time>2022-09-27T11:56:36.057Z</time>
      </trkpt>
      <trkpt lat="47.10281" lon="16.14618">
        <ele>391.025592</ele>
        <time>2022-09-27T11:56:40.030Z</time>
      </trkpt>
      <trkpt lat="47.10291" lon="16.14624">
        <ele>391.449755</ele>
        <time>2022-09-27T11:56:44.071Z</time>
      </trkpt>
      <trkpt lat="47.10301" lon="16.14629">
        <ele>391.846924</ele>
        <time>2022-09-27T11:56:47.025Z</time>
      </trkpt>
      <trkpt lat="47.10311" lon="16.14633">
        <ele>392.275374</ele>
        <time>2022-09-27T11:56:50.031Z</time>
      </trkpt>
      <trkpt lat="47.10322" lon="16.14637">
        <ele>392.698205</ele>
        <time>2022-09-27T11:56:53.023Z</time>
      </trkpt>
      <trkpt lat="47.10332" lon="16.14642">
        <ele>393.135371</ele>
        <time>2022-09-27T11:56:56.021Z</time>
      </trkpt>
      <trkpt lat="47.10344" lon="16.14647">
        <ele>393.604102</ele>
        <time>2022-09-27T11:56:59.023Z</time>
      </trkpt>
      <trkpt lat="47.10355" lon="16.14653">
        <ele>393.769944</ele>
        <time>2022-09-27T11:57:02.023Z</time>
      </trkpt>
      <trkpt lat="47.10368" lon="16.14657">
        <ele>393.78994</ele>
        <time>2022-09-27T11:57:05.020Z</time>
      </trkpt>
      <trkpt lat="47.10378" lon="16.14662">
        <ele>393.804657</ele>
        <time>2022-09-27T11:57:07.024Z</time>
      </trkpt>
      <trkpt lat="47.10387" lon="16.14667">
        <ele>393.819508</ele>
        <time>2022-09-27T11:57:09.029Z</time>
      </trkpt>
      <trkpt lat="47.10397" lon="16.14672">
        <ele>393.835304</ele>
        <time>2022-09-27T11:57:11.053Z</time>
      </trkpt>
      <trkpt lat="47.10408" lon="16.14675">
        <ele>393.851284</ele>
        <time>2022-09-27T11:57:13.064Z</time>
      </trkpt>
      <trkpt lat="47.10418" lon="16.14679">
        <ele>393.866544</ele>
        <time>2022-09-27T11:57:15.011Z</time>
      </trkpt>
      <trkpt lat="47.10428" lon="16.14682">
        <ele>393.882045</ele>
        <time>2022-09-27T11:57:17.051Z</time>
      </trkpt>
      <trkpt lat="47.1044" lon="16.14686">
        <ele>393.900073</ele>
        <time>2022-09-27T11:57:19.032Z</time>
      </trkpt>
      <trkpt lat="47.10452" lon="16.14689">
        <ele>393.918131</ele>
        <time>2022-09-27T11:57:21.018Z</time>
      </trkpt>
      <trkpt lat="47.10463" lon="16.14692">
        <ele>393.935132</ele>
        <time>2022-09-27T11:57:23.049Z</time>
      </trkpt>
      <trkpt lat="47.10475" lon="16.14695">
        <ele>393.952555</ele>
        <time>2022-09-27T11:57:25.030Z</time>
      </trkpt>
      <trkpt lat="47.10487" lon="16.14697">
        <ele>393.970239</ele>
        <time>2022-09-27T11:57:27.018Z</time>
      </trkpt>
      <trkpt lat="47.10498" lon="16.147">
        <ele>393.987662</ele>
        <time>2022-09-27T11:57:29.048Z</time>
      </trkpt>
      <trkpt lat="47.1051" lon="16.14703">
        <ele>394.004891</ele>
        <time>2022-09-27T11:57:31.021Z</time>
      </trkpt>
      <trkpt lat="47.1052" lon="16.14707">
        <ele>394.021424</ele>
        <time>2022-09-27T11:57:33.025Z</time>
      </trkpt>
      <trkpt lat="47.1053" lon="16.14713">
        <ele>393.978407</ele>
        <time>2022-09-27T11:57:35.029Z</time>
      </trkpt>
      <trkpt lat="47.1054" lon="16.14718">
        <ele>393.923444</ele>
        <time>2022-09-27T11:57:37.040Z</time>
      </trkpt>
      <trkpt lat="47.1055" lon="16.14723">
        <ele>393.869346</ele>
        <time>2022-09-27T11:57:39.021Z</time>
      </trkpt>
      <trkpt lat="47.1056" lon="16.14727">
        <ele>393.816669</ele>
        <time>2022-09-27T11:57:41.022Z</time>
      </trkpt>
      <trkpt lat="47.1057" lon="16.14728">
        <ele>393.765769</ele>
        <time>2022-09-27T11:57:43.024Z</time>
      </trkpt>
      <trkpt lat="47.10582" lon="16.14731">
        <ele>393.698902</ele>
        <time>2022-09-27T11:57:46.025Z</time>
      </trkpt>
      <trkpt lat="47.10593" lon="16.14729">
        <ele>393.642609</ele>
        <time>2022-09-27T11:57:49.019Z</time>
      </trkpt>
      <trkpt lat="47.10604" lon="16.14725">
        <ele>393.585205</ele>
        <time>2022-09-27T11:57:52.022Z</time>
      </trkpt>
      <trkpt lat="47.10615" lon="16.14722">
        <ele>393.522874</ele>
        <time>2022-09-27T11:57:55.032Z</time>
      </trkpt>
      <trkpt lat="47.10626" lon="16.14717">
        <ele>393.467296</ele>
        <time>2022-09-27T11:57:58.024Z</time>
      </trkpt>
      <trkpt lat="47.10637" lon="16.14713">
        <ele>393.406458</ele>
        <time>2022-09-27T11:58:02.072Z</time>
      </trkpt>
      <trkpt lat="47.10648" lon="16.14707">
        <ele>393.346247</ele>
        <time>2022-09-27T11:58:06.005Z</time>
      </trkpt>
      <trkpt lat="47.10657" lon="16.14704">
        <ele>393.294628</ele>
        <time>2022-09-27T11:58:09.012Z</time>
      </trkpt>
      <trkpt lat="47.10668" lon="16.14701">
        <ele>393.235499</ele>
        <time>2022-09-27T11:58:12.021Z</time>
      </trkpt>
      <trkpt lat="47.10679" lon="16.14698">
        <ele>393.177024</ele>
        <time>2022-09-27T11:58:15.026Z</time>
      </trkpt>
      <trkpt lat="47.1069" lon="16.14694">
        <ele>393.119954</ele>
        <time>2022-09-27T11:58:18.064Z</time>
      </trkpt>
      <trkpt lat="47.10701" lon="16.1469">
        <ele>393.26679</ele>
        <time>2022-09-27T11:58:22.015Z</time>
      </trkpt>
      <trkpt lat="47.10711" lon="16.14689">
        <ele>393.65305</ele>
        <time>2022-09-27T11:58:26.022Z</time>
      </trkpt>
      <trkpt lat="47.10722" lon="16.14689">
        <ele>394.050031</ele>
        <time>2022-09-27T11:58:30.023Z</time>
      </trkpt>
      <trkpt lat="47.10732" lon="16.14691">
        <ele>394.446851</ele>
        <time>2022-09-27T11:58:34.044Z</time>
      </trkpt>
      <trkpt lat="47.10741" lon="16.14694">
        <ele>394.810463</ele>
        <time>2022-09-27T11:58:38.036Z</time>
      </trkpt>
      <trkpt lat="47.10752" lon="16.14695">
        <ele>395.205478</ele>
        <time>2022-09-27T11:58:43.021Z</time>
      </trkpt>
      <trkpt lat="47.10761" lon="16.14697">
        <ele>395.55329</ele>
        <time>2022-09-27T11:58:49.015Z</time>
      </trkpt>
      <trkpt lat="47.1077" lon="16.147">
        <ele>395.915341</ele>
        <time>2022-09-27T11:58:55.011Z</time>
      </trkpt>
      <trkpt lat="47.10779" lon="16.14701">
        <ele>396.256333</ele>
        <time>2022-09-27T11:59:02.021Z</time>
      </trkpt>
      <trkpt lat="47.10789" lon="16.14703">
        <ele>396.619105</ele>
        <time>2022-09-27T11:59:09.019Z</time>
      </trkpt>
      <trkpt lat="47.10799" lon="16.14705">
        <ele>396.989363</ele>
        <time>2022-09-27T11:59:15.028Z</time>
      </trkpt>
      <trkpt lat="47.10809" lon="16.14708">
        <ele>397.377946</ele>
        <time>2022-09-27T11:59:21.012Z</time>
      </trkpt>
      <trkpt lat="47.10818" lon="16.14712">
        <ele>397.74021</ele>
        <time>2022-09-27T11:59:26.062Z</time>
      </trkpt>
      <trkpt lat="47.10827" lon="16.14711">
        <ele>398.08057</ele>
        <time>2022-09-27T11:59:31.015Z</time>
      </trkpt>
      <trkpt lat="47.10836" lon="16.14713">
        <ele>398.426436</ele>
        <time>2022-09-27T11:59:37.044Z</time>
      </trkpt>
      <trkpt lat="47.10844" lon="16.14718">
        <ele>398.768247</ele>
        <time>2022-09-27T11:59:43.015Z</time>
      </trkpt>
      <trkpt lat="47.10855" lon="16.14722">
        <ele>399.188929</ele>
        <time>2022-09-27T11:59:48.027Z</time>
      </trkpt>
      <trkpt lat="47.10864" lon="16.14723">
        <ele>399.538062</ele>
        <time>2022-09-27T11:59:51.015Z</time>
      </trkpt>
      <trkpt lat="47.10875" lon="16.14729">
        <ele>399.790278</ele>
        <time>2022-09-27T11:59:54.013Z</time>
      </trkpt>
      <trkpt lat="47.10884" lon="16.14735">
        <ele>399.296993</ele>
        <time>2022-09-27T11:59:56.019Z</time>
      </trkpt>
      <trkpt lat="47.10894" lon="16.14745">
        <ele>398.728369</ele>
        <time>2022-09-27T11:59:58.027Z</time>
      </trkpt>
      <trkpt lat="47.10903" lon="16.14754">
        <ele>398.191626</ele>
        <time>2022-09-27T12:00:00.054Z</time>
      </trkpt>
      <trkpt lat="47.10912" lon="16.14764">
        <ele>397.64924</ele>
        <time>2022-09-27T12:00:02.021Z</time>
      </trkpt>
      <trkpt lat="47.10921" lon="16.14773">
        <ele>397.158985</ele>
        <time>2022-09-27T12:00:04.015Z</time>
      </trkpt>
      <trkpt lat="47.10928" lon="16.14782">
        <ele>396.670007</ele>
        <time>2022-09-27T12:00:06.038Z</time>
      </trkpt>
      <trkpt lat="47.10937" lon="16.14792">
        <ele>396.142927</ele>
        <time>2022-09-27T12:00:08.021Z</time>
      </trkpt>
      <trkpt lat="47.10946" lon="16.14803">
        <ele>395.577996</ele>
        <time>2022-09-27T12:00:10.022Z</time>
      </trkpt>
      <trkpt lat="47.10955" lon="16.14813">
        <ele>395.041336</ele>
        <time>2022-09-27T12:00:12.032Z</time>
      </trkpt>
      <trkpt lat="47.10962" lon="16.14823">
        <ele>394.585099</ele>
        <time>2022-09-27T12:00:14.019Z</time>
      </trkpt>
      <trkpt lat="47.10969" lon="16.14837">
        <ele>394.014924</ele>
        <time>2022-09-27T12:00:17.029Z</time>
      </trkpt>
      <trkpt lat="47.10976" lon="16.14854">
        <ele>393.390136</ele>
        <time>2022-09-27T12:00:20.036Z</time>
      </trkpt>
      <trkpt lat="47.1098" lon="16.14868">
        <ele>392.879412</ele>
        <time>2022-09-27T12:00:22.012Z</time>
      </trkpt>
      <trkpt lat="47.10983" lon="16.14886">
        <ele>392.282746</ele>
        <time>2022-09-27T12:00:24.030Z</time>
      </trkpt>
      <trkpt lat="47.10984" lon="16.14907">
        <ele>391.602632</ele>
        <time>2022-09-27T12:00:26.063Z</time>
      </trkpt>
      <trkpt lat="47.10983" lon="16.14929">
        <ele>390.797868</ele>
        <time>2022-09-27T12:00:28.031Z</time>
      </trkpt>
      <trkpt lat="47.10984" lon="16.14951">
        <ele>389.928073</ele>
        <time>2022-09-27T12:00:30.031Z</time>
      </trkpt>
      <trkpt lat="47.10988" lon="16.14976">
        <ele>388.897529</ele>
        <time>2022-09-27T12:00:32.020Z</time>
      </trkpt>
      <trkpt lat="47.1099" lon="16.14989">
        <ele>388.364819</ele>
        <time>2022-09-27T12:00:33.024Z</time>
      </trkpt>
      <trkpt lat="47.10992" lon="16.15002">
        <ele>387.838264</ele>
        <time>2022-09-27T12:00:34.034Z</time>
      </trkpt>
      <trkpt lat="47.10995" lon="16.15015">
        <ele>387.28634</ele>
        <time>2022-09-27T12:00:35.024Z</time>
      </trkpt>
      <trkpt lat="47.10997" lon="16.15029">
        <ele>386.728086</ele>
        <time>2022-09-27T12:00:36.013Z</time>
      </trkpt>
      <trkpt lat="47.10999" lon="16.15042">
        <ele>386.204635</ele>
        <time>2022-09-27T12:00:37.018Z</time>
      </trkpt>
      <trkpt lat="47.11001" lon="16.15055">
        <ele>385.674257</ele>
        <time>2022-09-27T12:00:38.044Z</time>
      </trkpt>
      <trkpt lat="47.11004" lon="16.15068">
        <ele>385.137358</ele>
        <time>2022-09-27T12:00:39.033Z</time>
      </trkpt>
      <trkpt lat="47.11008" lon="16.15081">
        <ele>384.566474</ele>
        <time>2022-09-27T12:00:40.040Z</time>
      </trkpt>
      <trkpt lat="47.11013" lon="16.15105">
        <ele>383.577159</ele>
        <time>2022-09-27T12:00:42.026Z</time>
      </trkpt>
      <trkpt lat="47.11017" lon="16.15118">
        <ele>383.011047</ele>
        <time>2022-09-27T12:00:43.027Z</time>
      </trkpt>
      <trkpt lat="47.11021" lon="16.15131">
        <ele>382.424758</ele>
        <time>2022-09-27T12:00:44.062Z</time>
      </trkpt>
      <trkpt lat="47.11025" lon="16.15145">
        <ele>381.822071</ele>
        <time>2022-09-27T12:00:45.031Z</time>
      </trkpt>
      <trkpt lat="47.11027" lon="16.15161">
        <ele>381.186466</ele>
        <time>2022-09-27T12:00:46.025Z</time>
      </trkpt>
      <trkpt lat="47.11029" lon="16.15176">
        <ele>380.555121</ele>
        <time>2022-09-27T12:00:47.042Z</time>
      </trkpt>
      <trkpt lat="47.1103" lon="16.15191">
        <ele>379.873077</ele>
        <time>2022-09-27T12:00:48.024Z</time>
      </trkpt>
      <trkpt lat="47.11031" lon="16.15206">
        <ele>379.175442</ele>
        <time>2022-09-27T12:00:49.020Z</time>
      </trkpt>
      <trkpt lat="47.11031" lon="16.15221">
        <ele>378.493479</ele>
        <time>2022-09-27T12:00:50.025Z</time>
      </trkpt>
      <trkpt lat="47.11031" lon="16.15236">
        <ele>377.779617</ele>
        <time>2022-09-27T12:00:51.019Z</time>
      </trkpt>
      <trkpt lat="47.11032" lon="16.15251">
        <ele>377.106636</ele>
        <time>2022-09-27T12:00:52.043Z</time>
      </trkpt>
      <trkpt lat="47.11032" lon="16.15266">
        <ele>376.447137</ele>
        <time>2022-09-27T12:00:53.011Z</time>
      </trkpt>
      <trkpt lat="47.11033" lon="16.15279">
        <ele>375.834046</ele>
        <time>2022-09-27T12:00:54.028Z</time>
      </trkpt>
      <trkpt lat="47.11038" lon="16.15304">
        <ele>374.641852</ele>
        <time>2022-09-27T12:00:56.032Z</time>
      </trkpt>
      <trkpt lat="47.11042" lon="16.15318">
        <ele>373.951261</ele>
        <time>2022-09-27T12:00:57.028Z</time>
      </trkpt>
      <trkpt lat="47.11047" lon="16.15331">
        <ele>373.283215</ele>
        <time>2022-09-27T12:00:58.018Z</time>
      </trkpt>
      <trkpt lat="47.11053" lon="16.15342">
        <ele>372.623758</ele>
        <time>2022-09-27T12:00:59.036Z</time>
      </trkpt>
      <trkpt lat="47.11059" lon="16.15352">
        <ele>372.004745</ele>
        <time>2022-09-27T12:01:00.032Z</time>
      </trkpt>
      <trkpt lat="47.11072" lon="16.15369">
        <ele>370.809308</ele>
        <time>2022-09-27T12:01:02.037Z</time>
      </trkpt>
      <trkpt lat="47.11086" lon="16.15383">
        <ele>369.692806</ele>
        <time>2022-09-27T12:01:04.028Z</time>
      </trkpt>
      <trkpt lat="47.11099" lon="16.15396">
        <ele>368.637123</ele>
        <time>2022-09-27T12:01:06.027Z</time>
      </trkpt>
      <trkpt lat="47.11112" lon="16.15409">
        <ele>367.890618</ele>
        <time>2022-09-27T12:01:08.022Z</time>
      </trkpt>
      <trkpt lat="47.11124" lon="16.15421">
        <ele>367.178333</ele>
        <time>2022-09-27T12:01:10.020Z</time>
      </trkpt>
      <trkpt lat="47.11136" lon="16.15432">
        <ele>366.495201</ele>
        <time>2022-09-27T12:01:12.072Z</time>
      </trkpt>
      <trkpt lat="47.11148" lon="16.15442">
        <ele>365.854913</ele>
        <time>2022-09-27T12:01:14.020Z</time>
      </trkpt>
      <trkpt lat="47.1116" lon="16.15451">
        <ele>365.218183</ele>
        <time>2022-09-27T12:01:16.035Z</time>
      </trkpt>
      <trkpt lat="47.1117" lon="16.15459">
        <ele>364.647925</ele>
        <time>2022-09-27T12:01:18.031Z</time>
      </trkpt>
      <trkpt lat="47.11179" lon="16.15466">
        <ele>364.1557</ele>
        <time>2022-09-27T12:01:20.033Z</time>
      </trkpt>
      <trkpt lat="47.11191" lon="16.15473">
        <ele>363.554816</ele>
        <time>2022-09-27T12:01:23.067Z</time>
      </trkpt>
      <trkpt lat="47.11199" lon="16.15479">
        <ele>363.10016</ele>
        <time>2022-09-27T12:01:26.040Z</time>
      </trkpt>
      <trkpt lat="47.11208" lon="16.15486">
        <ele>362.606548</ele>
        <time>2022-09-27T12:01:31.031Z</time>
      </trkpt>
      <trkpt lat="47.11217" lon="16.15493">
        <ele>362.143497</ele>
        <time>2022-09-27T12:01:38.037Z</time>
      </trkpt>
      <trkpt lat="47.11226" lon="16.15501">
        <ele>361.614751</ele>
        <time>2022-09-27T12:01:44.025Z</time>
      </trkpt>
      <trkpt lat="47.11236" lon="16.15512">
        <ele>361.020168</ele>
        <time>2022-09-27T12:01:48.037Z</time>
      </trkpt>
      <trkpt lat="47.11245" lon="16.15524">
        <ele>360.435677</ele>
        <time>2022-09-27T12:01:51.035Z</time>
      </trkpt>
      <trkpt lat="47.11253" lon="16.15536">
        <ele>360.003243</ele>
        <time>2022-09-27T12:01:53.027Z</time>
      </trkpt>
      <trkpt lat="47.11264" lon="16.15552">
        <ele>359.904022</ele>
        <time>2022-09-27T12:01:55.029Z</time>
      </trkpt>
      <trkpt lat="47.11274" lon="16.1557">
        <ele>359.7984</ele>
        <time>2022-09-27T12:01:57.024Z</time>
      </trkpt>
      <trkpt lat="47.11283" lon="16.1559">
        <ele>359.690151</ele>
        <time>2022-09-27T12:01:59.027Z</time>
      </trkpt>
      <trkpt lat="47.11291" lon="16.15614">
        <ele>359.574419</ele>
        <time>2022-09-27T12:02:01.051Z</time>
      </trkpt>
      <trkpt lat="47.11294" lon="16.15626">
        <ele>359.514098</ele>
        <time>2022-09-27T12:02:02.102Z</time>
      </trkpt>
      <trkpt lat="47.11298" lon="16.15639">
        <ele>359.452532</ele>
        <time>2022-09-27T12:02:03.067Z</time>
      </trkpt>
      <trkpt lat="47.11301" lon="16.15652">
        <ele>359.391827</ele>
        <time>2022-09-27T12:02:04.030Z</time>
      </trkpt>
      <trkpt lat="47.11304" lon="16.15665">
        <ele>359.332807</ele>
        <time>2022-09-27T12:02:05.021Z</time>
      </trkpt>
      <trkpt lat="47.11306" lon="16.15678">
        <ele>359.273768</ele>
        <time>2022-09-27T12:02:06.023Z</time>
      </trkpt>
      <trkpt lat="47.1131" lon="16.15702">
        <ele>359.165585</ele>
        <time>2022-09-27T12:02:08.015Z</time>
      </trkpt>
      <trkpt lat="47.11312" lon="16.15722">
        <ele>359.073508</ele>
        <time>2022-09-27T12:02:10.022Z</time>
      </trkpt>
      <trkpt lat="47.11312" lon="16.15739">
        <ele>358.998937</ele>
        <time>2022-09-27T12:02:12.055Z</time>
      </trkpt>
      <trkpt lat="47.11312" lon="16.15757">
        <ele>358.919499</ele>
        <time>2022-09-27T12:02:15.035Z</time>
      </trkpt>
      <trkpt lat="47.11312" lon="16.15771">
        <ele>358.854712</ele>
        <time>2022-09-27T12:02:19.018Z</time>
      </trkpt>
      <trkpt lat="47.11311" lon="16.15785">
        <ele>359.393327</ele>
        <time>2022-09-27T12:02:25.025Z</time>
      </trkpt>
      <trkpt lat="47.11311" lon="16.158">
        <ele>360.010444</ele>
        <time>2022-09-27T12:02:30.035Z</time>
      </trkpt>
      <trkpt lat="47.1131" lon="16.15814">
        <ele>360.560319</ele>
        <time>2022-09-27T12:02:35.075Z</time>
      </trkpt>
      <trkpt lat="47.11308" lon="16.15827">
        <ele>361.128873</ele>
        <time>2022-09-27T12:02:41.022Z</time>
      </trkpt>
      <trkpt lat="47.11307" lon="16.15841">
        <ele>361.694578</ele>
        <time>2022-09-27T12:02:48.027Z</time>
      </trkpt>
      <trkpt lat="47.11307" lon="16.15855">
        <ele>362.275454</ele>
        <time>2022-09-27T12:02:54.027Z</time>
      </trkpt>
      <trkpt lat="47.11308" lon="16.15869">
        <ele>362.864269</ele>
        <time>2022-09-27T12:02:59.998Z</time>
      </trkpt>
      <trkpt lat="47.11307" lon="16.15885">
        <ele>363.511203</ele>
        <time>2022-09-27T12:03:06.015Z</time>
      </trkpt>
      <trkpt lat="47.11307" lon="16.15901">
        <ele>364.173823</ele>
        <time>2022-09-27T12:03:12.032Z</time>
      </trkpt>
      <trkpt lat="47.11306" lon="16.15915">
        <ele>364.746186</ele>
        <time>2022-09-27T12:03:17.031Z</time>
      </trkpt>
      <trkpt lat="47.11306" lon="16.1593">
        <ele>365.384332</ele>
        <time>2022-09-27T12:03:22.018Z</time>
      </trkpt>
      <trkpt lat="47.11307" lon="16.15947">
        <ele>366.059724</ele>
        <time>2022-09-27T12:03:27.042Z</time>
      </trkpt>
      <trkpt lat="47.11307" lon="16.15962">
        <ele>366.676959</ele>
        <time>2022-09-27T12:03:32.020Z</time>
      </trkpt>
      <trkpt lat="47.1131" lon="16.15976">
        <ele>367.286569</ele>
        <time>2022-09-27T12:03:36.099Z</time>
      </trkpt>
      <trkpt lat="47.11314" lon="16.15991">
        <ele>367.958465</ele>
        <time>2022-09-27T12:03:39.024Z</time>
      </trkpt>
      <trkpt lat="47.11317" lon="16.16005">
        <ele>368.572513</ele>
        <time>2022-09-27T12:03:42.040Z</time>
      </trkpt>
      <trkpt lat="47.11323" lon="16.16017">
        <ele>369.171943</ele>
        <time>2022-09-27T12:03:45.031Z</time>
      </trkpt>
      <trkpt lat="47.11335" lon="16.16025">
        <ele>369.298856</ele>
        <time>2022-09-27T12:03:48.027Z</time>
      </trkpt>
      <trkpt lat="47.11345" lon="16.16031">
        <ele>368.20189</ele>
        <time>2022-09-27T12:03:50.059Z</time>
      </trkpt>
      <trkpt lat="47.11356" lon="16.16037">
        <ele>367.008299</ele>
        <time>2022-09-27T12:03:52.029Z</time>
      </trkpt>
      <trkpt lat="47.11368" lon="16.16043">
        <ele>365.787522</ele>
        <time>2022-09-27T12:03:54.027Z</time>
      </trkpt>
      <trkpt lat="47.11378" lon="16.16048">
        <ele>364.609126</ele>
        <time>2022-09-27T12:03:56.032Z</time>
      </trkpt>
      <trkpt lat="47.11389" lon="16.16054">
        <ele>363.461907</ele>
        <time>2022-09-27T12:03:58.019Z</time>
      </trkpt>
      <trkpt lat="47.11399" lon="16.16061">
        <ele>362.337897</ele>
        <time>2022-09-27T12:04:00.035Z</time>
      </trkpt>
      <trkpt lat="47.1141" lon="16.16071">
        <ele>361.001181</ele>
        <time>2022-09-27T12:04:02.030Z</time>
      </trkpt>
      <trkpt lat="47.11422" lon="16.16083">
        <ele>359.501109</ele>
        <time>2022-09-27T12:04:04.069Z</time>
      </trkpt>
      <trkpt lat="47.11433" lon="16.16097">
        <ele>357.97822</ele>
        <time>2022-09-27T12:04:06.030Z</time>
      </trkpt>
      <trkpt lat="47.11446" lon="16.16111">
        <ele>356.407879</ele>
        <time>2022-09-27T12:04:08.040Z</time>
      </trkpt>
      <trkpt lat="47.11458" lon="16.16126">
        <ele>354.763049</ele>
        <time>2022-09-27T12:04:10.018Z</time>
      </trkpt>
      <trkpt lat="47.11471" lon="16.1614">
        <ele>353.126723</ele>
        <time>2022-09-27T12:04:12.035Z</time>
      </trkpt>
      <trkpt lat="47.11482" lon="16.16153">
        <ele>351.712057</ele>
        <time>2022-09-27T12:04:14.025Z</time>
      </trkpt>
      <trkpt lat="47.11492" lon="16.16165">
        <ele>350.343433</ele>
        <time>2022-09-27T12:04:16.016Z</time>
      </trkpt>
      <trkpt lat="47.11503" lon="16.16175">
        <ele>349.011704</ele>
        <time>2022-09-27T12:04:18.021Z</time>
      </trkpt>
      <trkpt lat="47.11513" lon="16.16186">
        <ele>347.742184</ele>
        <time>2022-09-27T12:04:20.055Z</time>
      </trkpt>
      <trkpt lat="47.11523" lon="16.16197">
        <ele>346.460416</ele>
        <time>2022-09-27T12:04:22.001Z</time>
      </trkpt>
      <trkpt lat="47.11535" lon="16.1621">
        <ele>344.964333</ele>
        <time>2022-09-27T12:04:24.026Z</time>
      </trkpt>
      <trkpt lat="47.11548" lon="16.16224">
        <ele>343.311506</ele>
        <time>2022-09-27T12:04:26.016Z</time>
      </trkpt>
      <trkpt lat="47.11561" lon="16.16238">
        <ele>341.70826</ele>
        <time>2022-09-27T12:04:28.007Z</time>
      </trkpt>
      <trkpt lat="47.11573" lon="16.16253">
        <ele>340.057176</ele>
        <time>2022-09-27T12:04:30.033Z</time>
      </trkpt>
      <trkpt lat="47.11582" lon="16.16273">
        <ele>338.405443</ele>
        <time>2022-09-27T12:04:32.021Z</time>
      </trkpt>
      <trkpt lat="47.11588" lon="16.16297">
        <ele>336.59822</ele>
        <time>2022-09-27T12:04:34.005Z</time>
      </trkpt>
      <trkpt lat="47.1159" lon="16.16311">
        <ele>335.620711</ele>
        <time>2022-09-27T12:04:35.024Z</time>
      </trkpt>
      <trkpt lat="47.11591" lon="16.16326">
        <ele>334.602596</ele>
        <time>2022-09-27T12:04:36.024Z</time>
      </trkpt>
      <trkpt lat="47.1159" lon="16.1634">
        <ele>333.627239</ele>
        <time>2022-09-27T12:04:37.039Z</time>
      </trkpt>
      <trkpt lat="47.11589" lon="16.16354">
        <ele>332.661129</ele>
        <time>2022-09-27T12:04:38.038Z</time>
      </trkpt>
      <trkpt lat="47.11589" lon="16.16368">
        <ele>331.817407</ele>
        <time>2022-09-27T12:04:39.034Z</time>
      </trkpt>
      <trkpt lat="47.11588" lon="16.16383">
        <ele>330.9817</ele>
        <time>2022-09-27T12:04:40.011Z</time>
      </trkpt>
      <trkpt lat="47.11588" lon="16.16396">
        <ele>330.16884</ele>
        <time>2022-09-27T12:04:41.027Z</time>
      </trkpt>
      <trkpt lat="47.11588" lon="16.16421">
        <ele>328.697577</ele>
        <time>2022-09-27T12:04:43.084Z</time>
      </trkpt>
      <trkpt lat="47.11588" lon="16.16443">
        <ele>327.455823</ele>
        <time>2022-09-27T12:04:45.034Z</time>
      </trkpt>
      <trkpt lat="47.11588" lon="16.16461">
        <ele>326.372992</ele>
        <time>2022-09-27T12:04:47.048Z</time>
      </trkpt>
      <trkpt lat="47.11588" lon="16.16483">
        <ele>325.084072</ele>
        <time>2022-09-27T12:04:49.018Z</time>
      </trkpt>
      <trkpt lat="47.11589" lon="16.16505">
        <ele>323.768882</ele>
        <time>2022-09-27T12:04:51.027Z</time>
      </trkpt>
      <trkpt lat="47.1159" lon="16.16528">
        <ele>322.414654</ele>
        <time>2022-09-27T12:04:53.033Z</time>
      </trkpt>
      <trkpt lat="47.1159" lon="16.16549">
        <ele>321.201584</ele>
        <time>2022-09-27T12:04:55.036Z</time>
      </trkpt>
      <trkpt lat="47.11592" lon="16.16566">
        <ele>320.158693</ele>
        <time>2022-09-27T12:04:57.021Z</time>
      </trkpt>
      <trkpt lat="47.11596" lon="16.16582">
        <ele>319.158524</ele>
        <time>2022-09-27T12:04:59.030Z</time>
      </trkpt>
      <trkpt lat="47.11604" lon="16.16596">
        <ele>318.098279</ele>
        <time>2022-09-27T12:05:01.153Z</time>
      </trkpt>
      <trkpt lat="47.11615" lon="16.16607">
        <ele>317.100063</ele>
        <time>2022-09-27T12:05:03.017Z</time>
      </trkpt>
      <trkpt lat="47.11628" lon="16.16611">
        <ele>316.296875</ele>
        <time>2022-09-27T12:05:05.041Z</time>
      </trkpt>
      <trkpt lat="47.11642" lon="16.16609">
        <ele>315.438645</ele>
        <time>2022-09-27T12:05:07.005Z</time>
      </trkpt>
      <trkpt lat="47.11655" lon="16.16605">
        <ele>314.660634</ele>
        <time>2022-09-27T12:05:09.044Z</time>
      </trkpt>
      <trkpt lat="47.11664" lon="16.16595">
        <ele>313.982605</ele>
        <time>2022-09-27T12:05:11.012Z</time>
      </trkpt>
      <trkpt lat="47.11673" lon="16.16581">
        <ele>313.255552</ele>
        <time>2022-09-27T12:05:13.007Z</time>
      </trkpt>
      <trkpt lat="47.11682" lon="16.16567">
        <ele>312.46371</ele>
        <time>2022-09-27T12:05:15.026Z</time>
      </trkpt>
      <trkpt lat="47.11691" lon="16.16555">
        <ele>311.723921</ele>
        <time>2022-09-27T12:05:17.044Z</time>
      </trkpt>
      <trkpt lat="47.11703" lon="16.16543">
        <ele>310.889566</ele>
        <time>2022-09-27T12:05:19.091Z</time>
      </trkpt>
      <trkpt lat="47.11715" lon="16.16537">
        <ele>310.159399</ele>
        <time>2022-09-27T12:05:21.016Z</time>
      </trkpt>
      <trkpt lat="47.11727" lon="16.16535">
        <ele>309.398964</ele>
        <time>2022-09-27T12:05:23.050Z</time>
      </trkpt>
      <trkpt lat="47.11741" lon="16.16533">
        <ele>308.614148</ele>
        <time>2022-09-27T12:05:25.006Z</time>
      </trkpt>
      <trkpt lat="47.11751" lon="16.16531">
        <ele>308.012956</ele>
        <time>2022-09-27T12:05:27.044Z</time>
      </trkpt>
      <trkpt lat="47.11761" lon="16.1653">
        <ele>307.427942</ele>
        <time>2022-09-27T12:05:30.027Z</time>
      </trkpt>
      <trkpt lat="47.1177" lon="16.16528">
        <ele>306.856648</ele>
        <time>2022-09-27T12:05:33.016Z</time>
      </trkpt>
      <trkpt lat="47.11779" lon="16.1652">
        <ele>306.526883</ele>
        <time>2022-09-27T12:05:36.025Z</time>
      </trkpt>
      <trkpt lat="47.11784" lon="16.16509">
        <ele>306.262641</ele>
        <time>2022-09-27T12:05:39.000Z</time>
      </trkpt>
      <trkpt lat="47.11792" lon="16.16496">
        <ele>305.940551</ele>
        <time>2022-09-27T12:05:43.092Z</time>
      </trkpt>
      <trkpt lat="47.11798" lon="16.16486">
        <ele>305.687</ele>
        <time>2022-09-27T12:05:46.038Z</time>
      </trkpt>
      <trkpt lat="47.11807" lon="16.16477">
        <ele>305.371258</ele>
        <time>2022-09-27T12:05:50.032Z</time>
      </trkpt>
      <trkpt lat="47.11818" lon="16.16472">
        <ele>305.060936</ele>
        <time>2022-09-27T12:05:54.025Z</time>
      </trkpt>
      <trkpt lat="47.11827" lon="16.1647">
        <ele>304.812007</ele>
        <time>2022-09-27T12:05:56.997Z</time>
      </trkpt>
      <trkpt lat="47.11838" lon="16.16468">
        <ele>304.513386</ele>
        <time>2022-09-27T12:06:02.008Z</time>
      </trkpt>
      <trkpt lat="47.11848" lon="16.16465">
        <ele>304.227059</ele>
        <time>2022-09-27T12:06:10.027Z</time>
      </trkpt>
      <trkpt lat="47.11856" lon="16.1647">
        <ele>303.963502</ele>
        <time>2022-09-27T12:06:13.018Z</time>
      </trkpt>
      <trkpt lat="47.11868" lon="16.1647">
        <ele>303.632697</ele>
        <time>2022-09-27T12:06:17.028Z</time>
      </trkpt>
      <trkpt lat="47.11877" lon="16.16468">
        <ele>303.379479</ele>
        <time>2022-09-27T12:06:20.010Z</time>
      </trkpt>
      <trkpt lat="47.11889" lon="16.16466">
        <ele>303.060453</ele>
        <time>2022-09-27T12:06:24.056Z</time>
      </trkpt>
      <trkpt lat="47.11898" lon="16.16461">
        <ele>302.778063</ele>
        <time>2022-09-27T12:06:27.015Z</time>
      </trkpt>
      <trkpt lat="47.11906" lon="16.16455">
        <ele>302.52796</ele>
        <time>2022-09-27T12:06:30.037Z</time>
      </trkpt>
      <trkpt lat="47.11915" lon="16.16447">
        <ele>302.245136</ele>
        <time>2022-09-27T12:06:34.023Z</time>
      </trkpt>
      <trkpt lat="47.11925" lon="16.16449">
        <ele>301.96495</ele>
        <time>2022-09-27T12:06:39.025Z</time>
      </trkpt>
      <trkpt lat="47.11927" lon="16.16462">
        <ele>301.751213</ele>
        <time>2022-09-27T12:06:42.023Z</time>
      </trkpt>
      <trkpt lat="47.11926" lon="16.16475">
        <ele>301.710796</ele>
        <time>2022-09-27T12:06:45.037Z</time>
      </trkpt>
      <trkpt lat="47.11925" lon="16.16491">
        <ele>301.66015</ele>
        <time>2022-09-27T12:06:49.011Z</time>
      </trkpt>
      <trkpt lat="47.11926" lon="16.16507">
        <ele>301.611961</ele>
        <time>2022-09-27T12:06:53.018Z</time>
      </trkpt>
      <trkpt lat="47.11926" lon="16.16521">
        <ele>301.568699</ele>
        <time>2022-09-27T12:06:57.064Z</time>
      </trkpt>
      <trkpt lat="47.11925" lon="16.16538">
        <ele>301.517802</ele>
        <time>2022-09-27T12:07:01.011Z</time>
      </trkpt>
      <trkpt lat="47.11925" lon="16.16552">
        <ele>301.476024</ele>
        <time>2022-09-27T12:07:04.014Z</time>
      </trkpt>
      <trkpt lat="47.11925" lon="16.16565">
        <ele>301.435482</ele>
        <time>2022-09-27T12:07:07.012Z</time>
      </trkpt>
      <trkpt lat="47.11923" lon="16.16579">
        <ele>301.393701</ele>
        <time>2022-09-27T12:07:10.024Z</time>
      </trkpt>
      <trkpt lat="47.11923" lon="16.16593">
        <ele>301.349109</ele>
        <time>2022-09-27T12:07:13.023Z</time>
      </trkpt>
      <trkpt lat="47.11922" lon="16.16609">
        <ele>301.300897</ele>
        <time>2022-09-27T12:07:16.012Z</time>
      </trkpt>
      <trkpt lat="47.11921" lon="16.16623">
        <ele>301.257117</ele>
        <time>2022-09-27T12:07:19.023Z</time>
      </trkpt>
      <trkpt lat="47.11919" lon="16.16638">
        <ele>301.212364</ele>
        <time>2022-09-27T12:07:22.058Z</time>
      </trkpt>
      <trkpt lat="47.11919" lon="16.16653">
        <ele>301.167802</ele>
        <time>2022-09-27T12:07:25.008Z</time>
      </trkpt>
      <trkpt lat="47.11919" lon="16.16668">
        <ele>301.121484</ele>
        <time>2022-09-27T12:07:28.058Z</time>
      </trkpt>
      <trkpt lat="47.11918" lon="16.16683">
        <ele>301.074227</ele>
        <time>2022-09-27T12:07:31.017Z</time>
      </trkpt>
      <trkpt lat="47.11918" lon="16.167">
        <ele>301.02394</ele>
        <time>2022-09-27T12:07:34.067Z</time>
      </trkpt>
      <trkpt lat="47.11918" lon="16.16718">
        <ele>300.968186</ele>
        <time>2022-09-27T12:07:37.028Z</time>
      </trkpt>
      <trkpt lat="47.11918" lon="16.16734">
        <ele>300.842707</ele>
        <time>2022-09-27T12:07:40.049Z</time>
      </trkpt>
      <trkpt lat="47.11918" lon="16.16751">
        <ele>300.680369</ele>
        <time>2022-09-27T12:07:43.027Z</time>
      </trkpt>
      <trkpt lat="47.11919" lon="16.16767">
        <ele>300.529187</ele>
        <time>2022-09-27T12:07:46.050Z</time>
      </trkpt>
      <trkpt lat="47.11921" lon="16.16783">
        <ele>300.371857</ele>
        <time>2022-09-27T12:07:49.017Z</time>
      </trkpt>
      <trkpt lat="47.11925" lon="16.16799">
        <ele>300.202766</ele>
        <time>2022-09-27T12:07:52.011Z</time>
      </trkpt>
      <trkpt lat="47.11929" lon="16.16815">
        <ele>300.040253</ele>
        <time>2022-09-27T12:07:55.022Z</time>
      </trkpt>
      <trkpt lat="47.11935" lon="16.1683">
        <ele>299.878376</ele>
        <time>2022-09-27T12:07:58.047Z</time>
      </trkpt>
      <trkpt lat="47.11939" lon="16.16845">
        <ele>299.720844</ele>
        <time>2022-09-27T12:08:01.056Z</time>
      </trkpt>
      <trkpt lat="47.11942" lon="16.16859">
        <ele>299.580716</ele>
        <time>2022-09-27T12:08:04.064Z</time>
      </trkpt>
      <trkpt lat="47.11948" lon="16.16872">
        <ele>299.436837</ele>
        <time>2022-09-27T12:08:07.048Z</time>
      </trkpt>
      <trkpt lat="47.11953" lon="16.16885">
        <ele>299.295233</ele>
        <time>2022-09-27T12:08:10.028Z</time>
      </trkpt>
      <trkpt lat="47.1196" lon="16.16898">
        <ele>299.135398</ele>
        <time>2022-09-27T12:08:13.119Z</time>
      </trkpt>
      <trkpt lat="47.11966" lon="16.1691">
        <ele>298.982802</ele>
        <time>2022-09-27T12:08:16.016Z</time>
      </trkpt>
      <trkpt lat="47.11971" lon="16.16922">
        <ele>298.845428</ele>
        <time>2022-09-27T12:08:19.017Z</time>
      </trkpt>
      <trkpt lat="47.11977" lon="16.16935">
        <ele>298.706479</ele>
        <time>2022-09-27T12:08:22.018Z</time>
      </trkpt>
      <trkpt lat="47.11983" lon="16.16947">
        <ele>298.555563</ele>
        <time>2022-09-27T12:08:25.042Z</time>
      </trkpt>
      <trkpt lat="47.1199" lon="16.16959">
        <ele>298.443563</ele>
        <time>2022-09-27T12:08:28.020Z</time>
      </trkpt>
      <trkpt lat="47.11995" lon="16.16971">
        <ele>298.868755</ele>
        <time>2022-09-27T12:08:31.033Z</time>
      </trkpt>
      <trkpt lat="47.12001" lon="16.16983">
        <ele>299.286433</ele>
        <time>2022-09-27T12:08:34.022Z</time>
      </trkpt>
      <trkpt lat="47.12006" lon="16.16995">
        <ele>299.704198</ele>
        <time>2022-09-27T12:08:37.040Z</time>
      </trkpt>
      <trkpt lat="47.1201" lon="16.17008">
        <ele>300.141751</ele>
        <time>2022-09-27T12:08:40.019Z</time>
      </trkpt>
      <trkpt lat="47.12013" lon="16.17023">
        <ele>300.605139</ele>
        <time>2022-09-27T12:08:43.027Z</time>
      </trkpt>
      <trkpt lat="47.12015" lon="16.17038">
        <ele>301.061121</ele>
        <time>2022-09-27T12:08:46.017Z</time>
      </trkpt>
      <trkpt lat="47.12016" lon="16.17053">
        <ele>301.503539</ele>
        <time>2022-09-27T12:08:49.037Z</time>
      </trkpt>
      <trkpt lat="47.12014" lon="16.17067">
        <ele>301.925729</ele>
        <time>2022-09-27T12:08:52.099Z</time>
      </trkpt>
      <trkpt lat="47.12009" lon="16.17079">
        <ele>302.332891</ele>
        <time>2022-09-27T12:08:55.039Z</time>
      </trkpt>
      <trkpt lat="47.12004" lon="16.1709">
        <ele>302.750568</ele>
        <time>2022-09-27T12:08:58.023Z</time>
      </trkpt>
      <trkpt lat="47.11998" lon="16.17101">
        <ele>303.153485</ele>
        <time>2022-09-27T12:09:01.028Z</time>
      </trkpt>
      <trkpt lat="47.11992" lon="16.17115">
        <ele>303.64597</ele>
        <time>2022-09-27T12:09:05.023Z</time>
      </trkpt>
      <trkpt lat="47.11987" lon="16.17126">
        <ele>304.043991</ele>
        <time>2022-09-27T12:09:09.002Z</time>
      </trkpt>
      <trkpt lat="47.11978" lon="16.17134">
        <ele>304.495882</ele>
        <time>2022-09-27T12:09:14.030Z</time>
      </trkpt>
      <trkpt lat="47.1197" lon="16.17137">
        <ele>304.891588</ele>
        <time>2022-09-27T12:09:21.025Z</time>
      </trkpt>
      <trkpt lat="47.1196" lon="16.1714">
        <ele>305.329988</ele>
        <time>2022-09-27T12:09:27.026Z</time>
      </trkpt>
      <trkpt lat="47.11951" lon="16.17146">
        <ele>305.740513</ele>
        <time>2022-09-27T12:09:32.026Z</time>
      </trkpt>
      <trkpt lat="47.11943" lon="16.17154">
        <ele>306.19556</ele>
        <time>2022-09-27T12:09:38.011Z</time>
      </trkpt>
      <trkpt lat="47.11935" lon="16.17162">
        <ele>306.098529</ele>
        <time>2022-09-27T12:09:43.024Z</time>
      </trkpt>
      <trkpt lat="47.11925" lon="16.17172">
        <ele>305.847043</ele>
        <time>2022-09-27T12:09:49.019Z</time>
      </trkpt>
      <trkpt lat="47.11919" lon="16.17184">
        <ele>305.616468</ele>
        <time>2022-09-27T12:09:53.033Z</time>
      </trkpt>
      <trkpt lat="47.11913" lon="16.17197">
        <ele>305.363477</ele>
        <time>2022-09-27T12:09:57.006Z</time>
      </trkpt>
      <trkpt lat="47.11905" lon="16.17213">
        <ele>305.077775</ele>
        <time>2022-09-27T12:10:01.030Z</time>
      </trkpt>
      <trkpt lat="47.11901" lon="16.17225">
        <ele>304.86519</ele>
        <time>2022-09-27T12:10:03.014Z</time>
      </trkpt>
      <trkpt lat="47.11896" lon="16.17237">
        <ele>304.648688</ele>
        <time>2022-09-27T12:10:05.016Z</time>
      </trkpt>
      <trkpt lat="47.11891" lon="16.1725">
        <ele>304.414713</ele>
        <time>2022-09-27T12:10:07.023Z</time>
      </trkpt>
      <trkpt lat="47.11886" lon="16.17266">
        <ele>304.156339</ele>
        <time>2022-09-27T12:10:09.024Z</time>
      </trkpt>
      <trkpt lat="47.11881" lon="16.17282">
        <ele>303.890526</ele>
        <time>2022-09-27T12:10:11.032Z</time>
      </trkpt>
      <trkpt lat="47.11876" lon="16.17298">
        <ele>303.61736</ele>
        <time>2022-09-27T12:10:13.026Z</time>
      </trkpt>
      <trkpt lat="47.11872" lon="16.17316">
        <ele>303.325518</ele>
        <time>2022-09-27T12:10:15.018Z</time>
      </trkpt>
      <trkpt lat="47.11868" lon="16.17335">
        <ele>303.02487</ele>
        <time>2022-09-27T12:10:17.019Z</time>
      </trkpt>
      <trkpt lat="47.11864" lon="16.17355">
        <ele>302.720481</ele>
        <time>2022-09-27T12:10:19.029Z</time>
      </trkpt>
      <trkpt lat="47.11861" lon="16.17375">
        <ele>302.401693</ele>
        <time>2022-09-27T12:10:21.036Z</time>
      </trkpt>
      <trkpt lat="47.11857" lon="16.17395">
        <ele>302.14525</ele>
        <time>2022-09-27T12:10:23.043Z</time>
      </trkpt>
      <trkpt lat="47.11854" lon="16.17416">
        <ele>301.945638</ele>
        <time>2022-09-27T12:10:25.031Z</time>
      </trkpt>
      <trkpt lat="47.11853" lon="16.1744">
        <ele>301.727782</ele>
        <time>2022-09-27T12:10:27.063Z</time>
      </trkpt>
      <trkpt lat="47.11854" lon="16.17464">
        <ele>301.50715</ele>
        <time>2022-09-27T12:10:29.028Z</time>
      </trkpt>
      <trkpt lat="47.11856" lon="16.17486">
        <ele>301.295923</ele>
        <time>2022-09-27T12:10:31.058Z</time>
      </trkpt>
      <trkpt lat="47.11858" lon="16.17508">
        <ele>301.089256</ele>
        <time>2022-09-27T12:10:33.032Z</time>
      </trkpt>
      <trkpt lat="47.11859" lon="16.17529">
        <ele>300.894615</ele>
        <time>2022-09-27T12:10:35.033Z</time>
      </trkpt>
      <trkpt lat="47.11859" lon="16.17549">
        <ele>300.715846</ele>
        <time>2022-09-27T12:10:37.020Z</time>
      </trkpt>
      <trkpt lat="47.11858" lon="16.17565">
        <ele>300.559397</ele>
        <time>2022-09-27T12:10:39.036Z</time>
      </trkpt>
      <trkpt lat="47.11855" lon="16.17579">
        <ele>300.425223</ele>
        <time>2022-09-27T12:10:41.046Z</time>
      </trkpt>
      <trkpt lat="47.1185" lon="16.17595">
        <ele>300.261579</ele>
        <time>2022-09-27T12:10:44.016Z</time>
      </trkpt>
      <trkpt lat="47.11846" lon="16.17609">
        <ele>300.123403</ele>
        <time>2022-09-27T12:10:47.025Z</time>
      </trkpt>
      <trkpt lat="47.11841" lon="16.17624">
        <ele>299.966791</ele>
        <time>2022-09-27T12:10:51.033Z</time>
      </trkpt>
      <trkpt lat="47.11838" lon="16.17639">
        <ele>299.820053</ele>
        <time>2022-09-27T12:10:56.032Z</time>
      </trkpt>
      <trkpt lat="47.11834" lon="16.17653">
        <ele>300.163429</ele>
        <time>2022-09-27T12:11:02.074Z</time>
      </trkpt>
      <trkpt lat="47.11831" lon="16.17667">
        <ele>300.576006</ele>
        <time>2022-09-27T12:11:08.058Z</time>
      </trkpt>
      <trkpt lat="47.11828" lon="16.1768">
        <ele>300.983093</ele>
        <time>2022-09-27T12:11:13.045Z</time>
      </trkpt>
      <trkpt lat="47.11823" lon="16.17692">
        <ele>301.415903</ele>
        <time>2022-09-27T12:11:20.012Z</time>
      </trkpt>
      <trkpt lat="47.11819" lon="16.17706">
        <ele>301.845385</ele>
        <time>2022-09-27T12:11:27.064Z</time>
      </trkpt>
      <trkpt lat="47.11815" lon="16.17718">
        <ele>302.234832</ele>
        <time>2022-09-27T12:11:33.029Z</time>
      </trkpt>
      <trkpt lat="47.11811" lon="16.17732">
        <ele>302.679286</ele>
        <time>2022-09-27T12:11:40.028Z</time>
      </trkpt>
      <trkpt lat="47.11805" lon="16.17746">
        <ele>303.14579</ele>
        <time>2022-09-27T12:11:45.021Z</time>
      </trkpt>
      <trkpt lat="47.11801" lon="16.17759">
        <ele>303.563857</ele>
        <time>2022-09-27T12:11:49.019Z</time>
      </trkpt>
      <trkpt lat="47.11796" lon="16.17773">
        <ele>304.006362</ele>
        <time>2022-09-27T12:11:53.037Z</time>
      </trkpt>
      <trkpt lat="47.11791" lon="16.17786">
        <ele>304.454505</ele>
        <time>2022-09-27T12:11:57.027Z</time>
      </trkpt>
      <trkpt lat="47.11786" lon="16.17799">
        <ele>304.899005</ele>
        <time>2022-09-27T12:12:01.028Z</time>
      </trkpt>
      <trkpt lat="47.11782" lon="16.17814">
        <ele>305.353276</ele>
        <time>2022-09-27T12:12:05.022Z</time>
      </trkpt>
      <trkpt lat="47.11777" lon="16.17829">
        <ele>305.860545</ele>
        <time>2022-09-27T12:12:09.028Z</time>
      </trkpt>
      <trkpt lat="47.11772" lon="16.17843">
        <ele>306.286511</ele>
        <time>2022-09-27T12:12:12.042Z</time>
      </trkpt>
      <trkpt lat="47.11768" lon="16.17856">
        <ele>306.731883</ele>
        <time>2022-09-27T12:12:15.026Z</time>
      </trkpt>
      <trkpt lat="47.11764" lon="16.17871">
        <ele>307.187548</ele>
        <time>2022-09-27T12:12:18.082Z</time>
      </trkpt>
      <trkpt lat="47.1176" lon="16.17887">
        <ele>307.32448</ele>
        <time>2022-09-27T12:12:21.010Z</time>
      </trkpt>
      <trkpt lat="47.11758" lon="16.17904">
        <ele>306.934369</ele>
        <time>2022-09-27T12:12:24.015Z</time>
      </trkpt>
      <trkpt lat="47.11757" lon="16.17917">
        <ele>306.631457</ele>
        <time>2022-09-27T12:12:26.023Z</time>
      </trkpt>
      <trkpt lat="47.11756" lon="16.1793">
        <ele>306.326338</ele>
        <time>2022-09-27T12:12:28.028Z</time>
      </trkpt>
      <trkpt lat="47.11756" lon="16.17944">
        <ele>306.011592</ele>
        <time>2022-09-27T12:12:30.018Z</time>
      </trkpt>
      <trkpt lat="47.11756" lon="16.17959">
        <ele>305.666867</ele>
        <time>2022-09-27T12:12:32.056Z</time>
      </trkpt>
      <trkpt lat="47.11756" lon="16.17975">
        <ele>305.301888</ele>
        <time>2022-09-27T12:12:34.039Z</time>
      </trkpt>
      <trkpt lat="47.11757" lon="16.17993">
        <ele>304.89967</ele>
        <time>2022-09-27T12:12:36.024Z</time>
      </trkpt>
      <trkpt lat="47.11758" lon="16.18013">
        <ele>304.429747</ele>
        <time>2022-09-27T12:12:38.033Z</time>
      </trkpt>
      <trkpt lat="47.11755" lon="16.18036">
        <ele>303.904849</ele>
        <time>2022-09-27T12:12:40.052Z</time>
      </trkpt>
      <trkpt lat="47.11749" lon="16.18059">
        <ele>303.348631</ele>
        <time>2022-09-27T12:12:42.038Z</time>
      </trkpt>
      <trkpt lat="47.11739" lon="16.18079">
        <ele>302.773624</ele>
        <time>2022-09-27T12:12:44.066Z</time>
      </trkpt>
      <trkpt lat="47.11733" lon="16.1809">
        <ele>302.470526</ele>
        <time>2022-09-27T12:12:45.052Z</time>
      </trkpt>
      <trkpt lat="47.11727" lon="16.18099">
        <ele>302.165702</ele>
        <time>2022-09-27T12:12:46.032Z</time>
      </trkpt>
      <trkpt lat="47.11714" lon="16.18115">
        <ele>301.60152</ele>
        <time>2022-09-27T12:12:48.041Z</time>
      </trkpt>
      <trkpt lat="47.11701" lon="16.18128">
        <ele>301.421175</ele>
        <time>2022-09-27T12:12:50.036Z</time>
      </trkpt>
      <trkpt lat="47.11688" lon="16.18137">
        <ele>301.382447</ele>
        <time>2022-09-27T12:12:52.057Z</time>
      </trkpt>
      <trkpt lat="47.11675" lon="16.18146">
        <ele>301.345633</ele>
        <time>2022-09-27T12:12:54.062Z</time>
      </trkpt>
      <trkpt lat="47.11664" lon="16.18155">
        <ele>301.311229</ele>
        <time>2022-09-27T12:12:56.024Z</time>
      </trkpt>
      <trkpt lat="47.11654" lon="16.18165">
        <ele>301.279985</ele>
        <time>2022-09-27T12:12:58.021Z</time>
      </trkpt>
      <trkpt lat="47.11645" lon="16.18174">
        <ele>301.249113</ele>
        <time>2022-09-27T12:13:00.101Z</time>
      </trkpt>
      <trkpt lat="47.11636" lon="16.18184">
        <ele>301.219664</ele>
        <time>2022-09-27T12:13:02.036Z</time>
      </trkpt>
      <trkpt lat="47.11627" lon="16.18193">
        <ele>301.190216</ele>
        <time>2022-09-27T12:13:04.052Z</time>
      </trkpt>
      <trkpt lat="47.11619" lon="16.18203">
        <ele>301.161701</ele>
        <time>2022-09-27T12:13:06.020Z</time>
      </trkpt>
      <trkpt lat="47.11611" lon="16.18214">
        <ele>301.13341</ele>
        <time>2022-09-27T12:13:08.034Z</time>
      </trkpt>
      <trkpt lat="47.11603" lon="16.18225">
        <ele>301.10539</ele>
        <time>2022-09-27T12:13:10.017Z</time>
      </trkpt>
      <trkpt lat="47.11597" lon="16.18236">
        <ele>301.07877</ele>
        <time>2022-09-27T12:13:12.032Z</time>
      </trkpt>
      <trkpt lat="47.1159" lon="16.18246">
        <ele>301.052775</ele>
        <time>2022-09-27T12:13:14.035Z</time>
      </trkpt>
      <trkpt lat="47.11583" lon="16.18257">
        <ele>301.026647</ele>
        <time>2022-09-27T12:13:16.018Z</time>
      </trkpt>
      <trkpt lat="47.11577" lon="16.18267">
        <ele>301.002135</ele>
        <time>2022-09-27T12:13:18.066Z</time>
      </trkpt>
      <trkpt lat="47.11569" lon="16.18281">
        <ele>300.95898</ele>
        <time>2022-09-27T12:13:21.039Z</time>
      </trkpt>
      <trkpt lat="47.11562" lon="16.18296">
        <ele>300.830777</ele>
        <time>2022-09-27T12:13:24.028Z</time>
      </trkpt>
      <trkpt lat="47.11555" lon="16.18312">
        <ele>300.700431</ele>
        <time>2022-09-27T12:13:27.024Z</time>
      </trkpt>
      <trkpt lat="47.1155" lon="16.18328">
        <ele>300.575414</ele>
        <time>2022-09-27T12:13:30.026Z</time>
      </trkpt>
      <trkpt lat="47.11545" lon="16.18345">
        <ele>300.449012</ele>
        <time>2022-09-27T12:13:33.044Z</time>
      </trkpt>
      <trkpt lat="47.11541" lon="16.18362">
        <ele>300.320394</ele>
        <time>2022-09-27T12:13:36.065Z</time>
      </trkpt>
      <trkpt lat="47.11538" lon="16.18375">
        <ele>300.227036</ele>
        <time>2022-09-27T12:13:38.014Z</time>
      </trkpt>
      <trkpt lat="47.11535" lon="16.18388">
        <ele>300.133349</ele>
        <time>2022-09-27T12:13:40.092Z</time>
      </trkpt>
      <trkpt lat="47.11532" lon="16.184">
        <ele>300.040979</ele>
        <time>2022-09-27T12:13:42.028Z</time>
      </trkpt>
      <trkpt lat="47.11528" lon="16.18412">
        <ele>299.948628</ele>
        <time>2022-09-27T12:13:44.029Z</time>
      </trkpt>
      <trkpt lat="47.11523" lon="16.18424">
        <ele>299.855992</ele>
        <time>2022-09-27T12:13:46.024Z</time>
      </trkpt>
      <trkpt lat="47.11516" lon="16.1844">
        <ele>299.717053</ele>
        <time>2022-09-27T12:13:49.032Z</time>
      </trkpt>
      <trkpt lat="47.11511" lon="16.18452">
        <ele>299.622238</ele>
        <time>2022-09-27T12:13:51.067Z</time>
      </trkpt>
      <trkpt lat="47.11503" lon="16.18468">
        <ele>299.484917</ele>
        <time>2022-09-27T12:13:54.018Z</time>
      </trkpt>
      <trkpt lat="47.11497" lon="16.18478">
        <ele>299.389818</ele>
        <time>2022-09-27T12:13:56.034Z</time>
      </trkpt>
      <trkpt lat="47.11491" lon="16.18488">
        <ele>299.297755</ele>
        <time>2022-09-27T12:13:58.039Z</time>
      </trkpt>
      <trkpt lat="47.11484" lon="16.18498">
        <ele>299.20393</ele>
        <time>2022-09-27T12:14:00.031Z</time>
      </trkpt>
      <trkpt lat="47.11477" lon="16.18508">
        <ele>299.170382</ele>
        <time>2022-09-27T12:14:02.011Z</time>
      </trkpt>
      <trkpt lat="47.11471" lon="16.18517">
        <ele>299.283016</ele>
        <time>2022-09-27T12:14:04.031Z</time>
      </trkpt>
      <trkpt lat="47.11464" lon="16.18527">
        <ele>299.395651</ele>
        <time>2022-09-27T12:14:06.031Z</time>
      </trkpt>
      <trkpt lat="47.11457" lon="16.18537">
        <ele>299.510197</ele>
        <time>2022-09-27T12:14:08.033Z</time>
      </trkpt>
      <trkpt lat="47.11451" lon="16.18547">
        <ele>299.623537</ele>
        <time>2022-09-27T12:14:10.007Z</time>
      </trkpt>
      <trkpt lat="47.11442" lon="16.18561">
        <ele>299.780047</ele>
        <time>2022-09-27T12:14:13.028Z</time>
      </trkpt>
      <trkpt lat="47.11434" lon="16.18574">
        <ele>299.929334</ele>
        <time>2022-09-27T12:14:16.028Z</time>
      </trkpt>
      <trkpt lat="47.11426" lon="16.18587">
        <ele>300.067739</ele>
        <time>2022-09-27T12:14:19.024Z</time>
      </trkpt>
      <trkpt lat="47.11419" lon="16.18598">
        <ele>300.192034</ele>
        <time>2022-09-27T12:14:22.033Z</time>
      </trkpt>
      <trkpt lat="47.11411" lon="16.1861">
        <ele>300.328106</ele>
        <time>2022-09-27T12:14:25.082Z</time>
      </trkpt>
      <trkpt lat="47.11404" lon="16.18623">
        <ele>300.464731</ele>
        <time>2022-09-27T12:14:28.025Z</time>
      </trkpt>
      <trkpt lat="47.11398" lon="16.18636">
        <ele>300.595148</ele>
        <time>2022-09-27T12:14:31.140Z</time>
      </trkpt>
      <trkpt lat="47.11392" lon="16.18649">
        <ele>300.722823</ele>
        <time>2022-09-27T12:14:34.020Z</time>
      </trkpt>
      <trkpt lat="47.11387" lon="16.18663">
        <ele>300.852352</ele>
        <time>2022-09-27T12:14:37.027Z</time>
      </trkpt>
      <trkpt lat="47.11383" lon="16.18678">
        <ele>300.97727</ele>
        <time>2022-09-27T12:14:40.038Z</time>
      </trkpt>
      <trkpt lat="47.11382" lon="16.18691">
        <ele>301.086449</ele>
        <time>2022-09-27T12:14:43.030Z</time>
      </trkpt>
      <trkpt lat="47.1138" lon="16.18706">
        <ele>301.21435</ele>
        <time>2022-09-27T12:14:47.040Z</time>
      </trkpt>
      <trkpt lat="47.1138" lon="16.18723">
        <ele>301.310949</ele>
        <time>2022-09-27T12:14:52.086Z</time>
      </trkpt>
      <trkpt lat="47.11381" lon="16.18738">
        <ele>301.349319</ele>
        <time>2022-09-27T12:14:58.053Z</time>
      </trkpt>
      <trkpt lat="47.11384" lon="16.18752">
        <ele>301.385191</ele>
        <time>2022-09-27T12:15:04.046Z</time>
      </trkpt>
      <trkpt lat="47.11389" lon="16.18764">
        <ele>301.421458</ele>
        <time>2022-09-27T12:15:12.028Z</time>
      </trkpt>
      <trkpt lat="47.11394" lon="16.18778">
        <ele>301.460712</ele>
        <time>2022-09-27T12:15:19.037Z</time>
      </trkpt>
      <trkpt lat="47.11398" lon="16.18792">
        <ele>301.498103</ele>
        <time>2022-09-27T12:15:26.059Z</time>
      </trkpt>
      <trkpt lat="47.11404" lon="16.18803">
        <ele>301.534612</ele>
        <time>2022-09-27T12:15:32.023Z</time>
      </trkpt>
      <trkpt lat="47.11411" lon="16.18814">
        <ele>301.571906</ele>
        <time>2022-09-27T12:15:36.079Z</time>
      </trkpt>
      <trkpt lat="47.11419" lon="16.18828">
        <ele>301.615466</ele>
        <time>2022-09-27T12:15:39.039Z</time>
      </trkpt>
      <trkpt lat="47.11426" lon="16.18839">
        <ele>301.654782</ele>
        <time>2022-09-27T12:15:41.033Z</time>
      </trkpt>
      <trkpt lat="47.11435" lon="16.18853">
        <ele>301.702778</ele>
        <time>2022-09-27T12:15:43.015Z</time>
      </trkpt>
      <trkpt lat="47.11445" lon="16.18869">
        <ele>301.754564</ele>
        <time>2022-09-27T12:15:45.051Z</time>
      </trkpt>
      <trkpt lat="47.11455" lon="16.18884">
        <ele>301.808473</ele>
        <time>2022-09-27T12:15:47.017Z</time>
      </trkpt>
      <trkpt lat="47.11467" lon="16.18899">
        <ele>301.864879</ele>
        <time>2022-09-27T12:15:49.112Z</time>
      </trkpt>
      <trkpt lat="47.1148" lon="16.18912">
        <ele>301.924311</ele>
        <time>2022-09-27T12:15:51.056Z</time>
      </trkpt>
      <trkpt lat="47.11494" lon="16.18923">
        <ele>301.844867</ele>
        <time>2022-09-27T12:15:53.036Z</time>
      </trkpt>
      <trkpt lat="47.11508" lon="16.18931">
        <ele>301.638387</ele>
        <time>2022-09-27T12:15:55.017Z</time>
      </trkpt>
      <trkpt lat="47.11521" lon="16.18939">
        <ele>301.430569</ele>
        <time>2022-09-27T12:15:57.037Z</time>
      </trkpt>
      <trkpt lat="47.11536" lon="16.18945">
        <ele>301.214873</ele>
        <time>2022-09-27T12:15:59.018Z</time>
      </trkpt>
      <trkpt lat="47.1155" lon="16.18954">
        <ele>300.995953</ele>
        <time>2022-09-27T12:16:01.083Z</time>
      </trkpt>
      <trkpt lat="47.11564" lon="16.18964">
        <ele>300.782901</ele>
        <time>2022-09-27T12:16:03.059Z</time>
      </trkpt>
      <trkpt lat="47.11576" lon="16.18975">
        <ele>300.581984</ele>
        <time>2022-09-27T12:16:05.037Z</time>
      </trkpt>
      <trkpt lat="47.11584" lon="16.18987">
        <ele>300.413188</ele>
        <time>2022-09-27T12:16:07.005Z</time>
      </trkpt>
      <trkpt lat="47.11591" lon="16.19003">
        <ele>300.235921</ele>
        <time>2022-09-27T12:16:09.015Z</time>
      </trkpt>
      <trkpt lat="47.11596" lon="16.1902">
        <ele>300.057955</ele>
        <time>2022-09-27T12:16:11.024Z</time>
      </trkpt>
      <trkpt lat="47.116" lon="16.19036">
        <ele>299.889963</ele>
        <time>2022-09-27T12:16:13.038Z</time>
      </trkpt>
      <trkpt lat="47.11603" lon="16.19052">
        <ele>299.732487</ele>
        <time>2022-09-27T12:16:15.120Z</time>
      </trkpt>
      <trkpt lat="47.11604" lon="16.19068">
        <ele>299.573983</ele>
        <time>2022-09-27T12:16:17.037Z</time>
      </trkpt>
      <trkpt lat="47.11604" lon="16.19086">
        <ele>299.415212</ele>
        <time>2022-09-27T12:16:19.024Z</time>
      </trkpt>
      <trkpt lat="47.11605" lon="16.19103">
        <ele>299.464105</ele>
        <time>2022-09-27T12:16:21.021Z</time>
      </trkpt>
      <trkpt lat="47.11605" lon="16.1912">
        <ele>299.51018</ele>
        <time>2022-09-27T12:16:23.031Z</time>
      </trkpt>
      <trkpt lat="47.11608" lon="16.19134">
        <ele>299.550899</ele>
        <time>2022-09-27T12:16:25.037Z</time>
      </trkpt>
      <trkpt lat="47.11616" lon="16.19141">
        <ele>299.58844</ele>
        <time>2022-09-27T12:16:27.039Z</time>
      </trkpt>
      <trkpt lat="47.11629" lon="16.19142">
        <ele>299.64425</ele>
        <time>2022-09-27T12:16:30.019Z</time>
      </trkpt>
      <trkpt lat="47.11643" lon="16.19145">
        <ele>299.699462</ele>
        <time>2022-09-27T12:16:33.059Z</time>
      </trkpt>
      <trkpt lat="47.11654" lon="16.19147">
        <ele>299.746935</ele>
        <time>2022-09-27T12:16:36.016Z</time>
      </trkpt>
      <trkpt lat="47.11666" lon="16.19152">
        <ele>299.796887</ele>
        <time>2022-09-27T12:16:39.019Z</time>
      </trkpt>
      <trkpt lat="47.11677" lon="16.19156">
        <ele>299.845</ele>
        <time>2022-09-27T12:16:42.037Z</time>
      </trkpt>
      <trkpt lat="47.11687" lon="16.19161">
        <ele>299.888541</ele>
        <time>2022-09-27T12:16:45.067Z</time>
      </trkpt>
      <trkpt lat="47.11697" lon="16.19166">
        <ele>299.93072</ele>
        <time>2022-09-27T12:16:48.023Z</time>
      </trkpt>
      <trkpt lat="47.11706" lon="16.1917">
        <ele>299.970328</ele>
        <time>2022-09-27T12:16:51.063Z</time>
      </trkpt>
      <trkpt lat="47.11717" lon="16.19172">
        <ele>300.015106</ele>
        <time>2022-09-27T12:16:54.025Z</time>
      </trkpt>
      <trkpt lat="47.11728" lon="16.19173">
        <ele>300.061205</ele>
        <time>2022-09-27T12:16:57.053Z</time>
      </trkpt>
      <trkpt lat="47.11741" lon="16.19175">
        <ele>300.113098</ele>
        <time>2022-09-27T12:17:00.036Z</time>
      </trkpt>
      <trkpt lat="47.1175" lon="16.19176">
        <ele>300.150542</ele>
        <time>2022-09-27T12:17:02.018Z</time>
      </trkpt>
      <trkpt lat="47.11762" lon="16.19175">
        <ele>300.459459</ele>
        <time>2022-09-27T12:17:05.115Z</time>
      </trkpt>
      <trkpt lat="47.11773" lon="16.19171">
        <ele>300.761774</ele>
        <time>2022-09-27T12:17:08.063Z</time>
      </trkpt>
      <trkpt lat="47.11783" lon="16.19167">
        <ele>301.046524</ele>
        <time>2022-09-27T12:17:11.023Z</time>
      </trkpt>
      <trkpt lat="47.11793" lon="16.19162">
        <ele>301.32791</ele>
        <time>2022-09-27T12:17:14.059Z</time>
      </trkpt>
      <trkpt lat="47.11805" lon="16.19153">
        <ele>301.662229</ele>
        <time>2022-09-27T12:17:17.056Z</time>
      </trkpt>
      <trkpt lat="47.11815" lon="16.19145">
        <ele>301.972992</ele>
        <time>2022-09-27T12:17:20.053Z</time>
      </trkpt>
      <trkpt lat="47.11826" lon="16.19137">
        <ele>302.308308</ele>
        <time>2022-09-27T12:17:23.022Z</time>
      </trkpt>
      <trkpt lat="47.11837" lon="16.19129">
        <ele>302.619018</ele>
        <time>2022-09-27T12:17:26.032Z</time>
      </trkpt>
      <trkpt lat="47.11848" lon="16.19121">
        <ele>302.933631</ele>
        <time>2022-09-27T12:17:29.056Z</time>
      </trkpt>
      <trkpt lat="47.11858" lon="16.19113">
        <ele>303.245897</ele>
        <time>2022-09-27T12:17:32.040Z</time>
      </trkpt>
      <trkpt lat="47.11869" lon="16.19106">
        <ele>303.554132</ele>
        <time>2022-09-27T12:17:35.036Z</time>
      </trkpt>
      <trkpt lat="47.11879" lon="16.19097">
        <ele>303.856854</ele>
        <time>2022-09-27T12:17:38.035Z</time>
      </trkpt>
      <trkpt lat="47.11888" lon="16.19088">
        <ele>304.156536</ele>
        <time>2022-09-27T12:17:41.036Z</time>
      </trkpt>
      <trkpt lat="47.11898" lon="16.19079">
        <ele>304.468985</ele>
        <time>2022-09-27T12:17:44.039Z</time>
      </trkpt>
      <trkpt lat="47.11908" lon="16.19071">
        <ele>304.756258</ele>
        <time>2022-09-27T12:17:47.035Z</time>
      </trkpt>
      <trkpt lat="47.11918" lon="16.19064">
        <ele>304.857924</ele>
        <time>2022-09-27T12:17:50.028Z</time>
      </trkpt>
      <trkpt lat="47.11929" lon="16.19054">
        <ele>304.770862</ele>
        <time>2022-09-27T12:17:53.026Z</time>
      </trkpt>
      <trkpt lat="47.11937" lon="16.19047">
        <ele>304.70518</ele>
        <time>2022-09-27T12:17:55.029Z</time>
      </trkpt>
      <trkpt lat="47.11948" lon="16.19039">
        <ele>304.62378</ele>
        <time>2022-09-27T12:17:58.014Z</time>
      </trkpt>
      <trkpt lat="47.11957" lon="16.19029">
        <ele>304.54805</ele>
        <time>2022-09-27T12:18:01.012Z</time>
      </trkpt>
      <trkpt lat="47.11966" lon="16.19019">
        <ele>304.472068</ele>
        <time>2022-09-27T12:18:04.035Z</time>
      </trkpt>
      <trkpt lat="47.11976" lon="16.1901">
        <ele>304.392365</ele>
        <time>2022-09-27T12:18:07.030Z</time>
      </trkpt>
      <trkpt lat="47.11985" lon="16.18999">
        <ele>304.311186</ele>
        <time>2022-09-27T12:18:10.026Z</time>
      </trkpt>
      <trkpt lat="47.11993" lon="16.18987">
        <ele>304.231298</ele>
        <time>2022-09-27T12:18:13.021Z</time>
      </trkpt>
      <trkpt lat="47.12001" lon="16.18974">
        <ele>304.14957</ele>
        <time>2022-09-27T12:18:16.023Z</time>
      </trkpt>
      <trkpt lat="47.12008" lon="16.1896">
        <ele>304.068426</ele>
        <time>2022-09-27T12:18:19.022Z</time>
      </trkpt>
      <trkpt lat="47.12015" lon="16.18946">
        <ele>303.989245</ele>
        <time>2022-09-27T12:18:22.026Z</time>
      </trkpt>
      <trkpt lat="47.12021" lon="16.18932">
        <ele>303.915063</ele>
        <time>2022-09-27T12:18:25.022Z</time>
      </trkpt>
      <trkpt lat="47.12027" lon="16.18919">
        <ele>303.840105</ele>
        <time>2022-09-27T12:18:28.028Z</time>
      </trkpt>
      <trkpt lat="47.12034" lon="16.18907">
        <ele>303.765812</ele>
        <time>2022-09-27T12:18:31.057Z</time>
      </trkpt>
      <trkpt lat="47.1204" lon="16.18895">
        <ele>303.695716</ele>
        <time>2022-09-27T12:18:34.031Z</time>
      </trkpt>
      <trkpt lat="47.12046" lon="16.18883">
        <ele>303.672896</ele>
        <time>2022-09-27T12:18:37.038Z</time>
      </trkpt>
      <trkpt lat="47.12051" lon="16.18871">
        <ele>303.675872</ele>
        <time>2022-09-27T12:18:40.027Z</time>
      </trkpt>
      <trkpt lat="47.12058" lon="16.18857">
        <ele>303.679181</ele>
        <time>2022-09-27T12:18:43.023Z</time>
      </trkpt>
      <trkpt lat="47.12065" lon="16.18843">
        <ele>303.682622</ele>
        <time>2022-09-27T12:18:46.015Z</time>
      </trkpt>
      <trkpt lat="47.12072" lon="16.1883">
        <ele>303.685998</ele>
        <time>2022-09-27T12:18:49.040Z</time>
      </trkpt>
      <trkpt lat="47.12079" lon="16.18819">
        <ele>303.689204</ele>
        <time>2022-09-27T12:18:52.034Z</time>
      </trkpt>
      <trkpt lat="47.12086" lon="16.18808">
        <ele>303.692232</ele>
        <time>2022-09-27T12:18:55.055Z</time>
      </trkpt>
      <trkpt lat="47.12093" lon="16.18797">
        <ele>303.695271</ele>
        <time>2022-09-27T12:18:58.037Z</time>
      </trkpt>
      <trkpt lat="47.12101" lon="16.18786">
        <ele>303.698481</ele>
        <time>2022-09-27T12:19:01.029Z</time>
      </trkpt>
      <trkpt lat="47.12109" lon="16.18776">
        <ele>303.70157</ele>
        <time>2022-09-27T12:19:04.033Z</time>
      </trkpt>
      <trkpt lat="47.12118" lon="16.18767">
        <ele>303.704713</ele>
        <time>2022-09-27T12:19:07.038Z</time>
      </trkpt>
      <trkpt lat="47.12126" lon="16.18758">
        <ele>303.707726</ele>
        <time>2022-09-27T12:19:10.023Z</time>
      </trkpt>
      <trkpt lat="47.12134" lon="16.1875">
        <ele>303.710599</ele>
        <time>2022-09-27T12:19:13.029Z</time>
      </trkpt>
      <trkpt lat="47.12144" lon="16.18744">
        <ele>303.713651</ele>
        <time>2022-09-27T12:19:16.015Z</time>
      </trkpt>
      <trkpt lat="47.12152" lon="16.18737">
        <ele>303.716454</ele>
        <time>2022-09-27T12:19:19.011Z</time>
      </trkpt>
      <trkpt lat="47.12161" lon="16.18732">
        <ele>303.719196</ele>
        <time>2022-09-27T12:19:22.025Z</time>
      </trkpt>
      <trkpt lat="47.12169" lon="16.18725">
        <ele>303.721994</ele>
        <time>2022-09-27T12:19:25.021Z</time>
      </trkpt>
      <trkpt lat="47.12179" lon="16.18716">
        <ele>303.73476</ele>
        <time>2022-09-27T12:19:29.032Z</time>
      </trkpt>
      <trkpt lat="47.12187" lon="16.18709">
        <ele>303.754918</ele>
        <time>2022-09-27T12:19:32.056Z</time>
      </trkpt>
      <trkpt lat="47.12194" lon="16.18701">
        <ele>303.7752</ele>
        <time>2022-09-27T12:19:35.066Z</time>
      </trkpt>
      <trkpt lat="47.12205" lon="16.18691">
        <ele>303.802484</ele>
        <time>2022-09-27T12:19:39.024Z</time>
      </trkpt>
      <trkpt lat="47.12213" lon="16.18684">
        <ele>303.823865</ele>
        <time>2022-09-27T12:19:42.033Z</time>
      </trkpt>
      <trkpt lat="47.12221" lon="16.18677">
        <ele>303.845054</ele>
        <time>2022-09-27T12:19:45.039Z</time>
      </trkpt>
      <trkpt lat="47.1223" lon="16.18671">
        <ele>303.867463</ele>
        <time>2022-09-27T12:19:48.030Z</time>
      </trkpt>
      <trkpt lat="47.12238" lon="16.18664">
        <ele>303.88846</ele>
        <time>2022-09-27T12:19:51.028Z</time>
      </trkpt>
      <trkpt lat="47.12246" lon="16.18656">
        <ele>303.909481</ele>
        <time>2022-09-27T12:19:54.035Z</time>
      </trkpt>
      <trkpt lat="47.12255" lon="16.18648">
        <ele>303.931766</ele>
        <time>2022-09-27T12:19:57.018Z</time>
      </trkpt>
      <trkpt lat="47.12263" lon="16.18641">
        <ele>303.953634</ele>
        <time>2022-09-27T12:20:00.040Z</time>
      </trkpt>
      <trkpt lat="47.12273" lon="16.18635">
        <ele>303.976295</ele>
        <time>2022-09-27T12:20:03.026Z</time>
      </trkpt>
      <trkpt lat="47.12281" lon="16.18628">
        <ele>303.99711</ele>
        <time>2022-09-27T12:20:06.058Z</time>
      </trkpt>
      <trkpt lat="47.12288" lon="16.18621">
        <ele>304.017478</ele>
        <time>2022-09-27T12:20:09.033Z</time>
      </trkpt>
      <trkpt lat="47.12296" lon="16.18613">
        <ele>304.038686</ele>
        <time>2022-09-27T12:20:12.073Z</time>
      </trkpt>
      <trkpt lat="47.12305" lon="16.18605">
        <ele>304.060538</ele>
        <time>2022-09-27T12:20:15.058Z</time>
      </trkpt>
      <trkpt lat="47.12312" lon="16.18598">
        <ele>304.081477</ele>
        <time>2022-09-27T12:20:18.026Z</time>
      </trkpt>
      <trkpt lat="47.1232" lon="16.1859">
        <ele>304.102498</ele>
        <time>2022-09-27T12:20:21.026Z</time>
      </trkpt>
      <trkpt lat="47.12329" lon="16.18583">
        <ele>304.124381</ele>
        <time>2022-09-27T12:20:24.038Z</time>
      </trkpt>
      <trkpt lat="47.12337" lon="16.18576">
        <ele>304.214229</ele>
        <time>2022-09-27T12:20:27.041Z</time>
      </trkpt>
      <trkpt lat="47.12345" lon="16.18569">
        <ele>304.303987</ele>
        <time>2022-09-27T12:20:30.021Z</time>
      </trkpt>
      <trkpt lat="47.12353" lon="16.18562">
        <ele>304.390352</ele>
        <time>2022-09-27T12:20:33.076Z</time>
      </trkpt>
      <trkpt lat="47.12361" lon="16.18555">
        <ele>304.479879</ele>
        <time>2022-09-27T12:20:36.028Z</time>
      </trkpt>
      <trkpt lat="47.12369" lon="16.18546">
        <ele>304.570877</ele>
        <time>2022-09-27T12:20:39.027Z</time>
      </trkpt>
      <trkpt lat="47.12378" lon="16.18538">
        <ele>304.669462</ele>
        <time>2022-09-27T12:20:42.035Z</time>
      </trkpt>
      <trkpt lat="47.12386" lon="16.18532">
        <ele>304.763696</ele>
        <time>2022-09-27T12:20:45.067Z</time>
      </trkpt>
      <trkpt lat="47.12395" lon="16.18525">
        <ele>304.852344</ele>
        <time>2022-09-27T12:20:48.034Z</time>
      </trkpt>
      <trkpt lat="47.12403" lon="16.18517">
        <ele>304.943812</ele>
        <time>2022-09-27T12:20:51.042Z</time>
      </trkpt>
      <trkpt lat="47.12412" lon="16.18507">
        <ele>305.055757</ele>
        <time>2022-09-27T12:20:55.020Z</time>
      </trkpt>
      <trkpt lat="47.1242" lon="16.185">
        <ele>305.14141</ele>
        <time>2022-09-27T12:20:58.032Z</time>
      </trkpt>
      <trkpt lat="47.12428" lon="16.18493">
        <ele>305.228546</ele>
        <time>2022-09-27T12:21:01.045Z</time>
      </trkpt>
      <trkpt lat="47.12436" lon="16.18486">
        <ele>305.319931</ele>
        <time>2022-09-27T12:21:04.040Z</time>
      </trkpt>
      <trkpt lat="47.12444" lon="16.18479">
        <ele>305.406926</ele>
        <time>2022-09-27T12:21:07.063Z</time>
      </trkpt>
      <trkpt lat="47.12452" lon="16.18471">
        <ele>305.495661</ele>
        <time>2022-09-27T12:21:10.031Z</time>
      </trkpt>
      <trkpt lat="47.1246" lon="16.18464">
        <ele>305.583801</ele>
        <time>2022-09-27T12:21:13.033Z</time>
      </trkpt>
      <trkpt lat="47.12468" lon="16.18458">
        <ele>305.674627</ele>
        <time>2022-09-27T12:21:16.035Z</time>
      </trkpt>
      <trkpt lat="47.12476" lon="16.1845">
        <ele>305.763008</ele>
        <time>2022-09-27T12:21:19.034Z</time>
      </trkpt>
      <trkpt lat="47.12484" lon="16.18443">
        <ele>305.865502</ele>
        <time>2022-09-27T12:21:22.031Z</time>
      </trkpt>
      <trkpt lat="47.12492" lon="16.18436">
        <ele>305.996008</ele>
        <time>2022-09-27T12:21:25.046Z</time>
      </trkpt>
      <trkpt lat="47.12502" lon="16.18429">
        <ele>306.144071</ele>
        <time>2022-09-27T12:21:28.038Z</time>
      </trkpt>
      <trkpt lat="47.12511" lon="16.18422">
        <ele>306.283407</ele>
        <time>2022-09-27T12:21:31.034Z</time>
      </trkpt>
      <trkpt lat="47.1252" lon="16.18415">
        <ele>306.422386</ele>
        <time>2022-09-27T12:21:34.045Z</time>
      </trkpt>
      <trkpt lat="47.12529" lon="16.18409">
        <ele>306.567091</ele>
        <time>2022-09-27T12:21:37.036Z</time>
      </trkpt>
      <trkpt lat="47.12538" lon="16.18402">
        <ele>306.704081</ele>
        <time>2022-09-27T12:21:40.057Z</time>
      </trkpt>
      <trkpt lat="47.12547" lon="16.18395">
        <ele>306.845509</ele>
        <time>2022-09-27T12:21:43.038Z</time>
      </trkpt>
      <trkpt lat="47.12557" lon="16.18388">
        <ele>306.995269</ele>
        <time>2022-09-27T12:21:46.064Z</time>
      </trkpt>
      <trkpt lat="47.12568" lon="16.18383">
        <ele>307.151525</ele>
        <time>2022-09-27T12:21:49.028Z</time>
      </trkpt>
      <trkpt lat="47.12577" lon="16.18377">
        <ele>307.287255</ele>
        <time>2022-09-27T12:21:52.076Z</time>
      </trkpt>
      <trkpt lat="47.12586" lon="16.1837">
        <ele>307.427894</ele>
        <time>2022-09-27T12:21:55.034Z</time>
      </trkpt>
      <trkpt lat="47.12596" lon="16.18363">
        <ele>307.584354</ele>
        <time>2022-09-27T12:21:58.033Z</time>
      </trkpt>
      <trkpt lat="47.12605" lon="16.18357">
        <ele>307.724634</ele>
        <time>2022-09-27T12:22:01.058Z</time>
      </trkpt>
      <trkpt lat="47.12615" lon="16.18352">
        <ele>307.86403</ele>
        <time>2022-09-27T12:22:04.036Z</time>
      </trkpt>
      <trkpt lat="47.12625" lon="16.18347">
        <ele>308.009797</ele>
        <time>2022-09-27T12:22:07.025Z</time>
      </trkpt>
      <trkpt lat="47.12636" lon="16.18345">
        <ele>308.159745</ele>
        <time>2022-09-27T12:22:10.021Z</time>
      </trkpt>
      <trkpt lat="47.12646" lon="16.18342">
        <ele>308.301533</ele>
        <time>2022-09-27T12:22:13.036Z</time>
      </trkpt>
      <trkpt lat="47.12656" lon="16.18339">
        <ele>308.333244</ele>
        <time>2022-09-27T12:22:16.028Z</time>
      </trkpt>
      <trkpt lat="47.12665" lon="16.18335">
        <ele>308.351372</ele>
        <time>2022-09-27T12:22:19.034Z</time>
      </trkpt>
      <trkpt lat="47.12675" lon="16.18333">
        <ele>308.371487</ele>
        <time>2022-09-27T12:22:22.029Z</time>
      </trkpt>
      <trkpt lat="47.12685" lon="16.18332">
        <ele>308.390062</ele>
        <time>2022-09-27T12:22:25.062Z</time>
      </trkpt>
      <trkpt lat="47.12695" lon="16.18333">
        <ele>308.411189</ele>
        <time>2022-09-27T12:22:28.035Z</time>
      </trkpt>
      <trkpt lat="47.12706" lon="16.18331">
        <ele>308.431535</ele>
        <time>2022-09-27T12:22:31.026Z</time>
      </trkpt>
      <trkpt lat="47.12717" lon="16.18328">
        <ele>308.45439</ele>
        <time>2022-09-27T12:22:34.024Z</time>
      </trkpt>
      <trkpt lat="47.12729" lon="16.18328">
        <ele>308.476872</ele>
        <time>2022-09-27T12:22:37.031Z</time>
      </trkpt>
      <trkpt lat="47.12738" lon="16.18328">
        <ele>308.495255</ele>
        <time>2022-09-27T12:22:39.023Z</time>
      </trkpt>
      <trkpt lat="47.12752" lon="16.18328">
        <ele>308.522035</ele>
        <time>2022-09-27T12:22:42.036Z</time>
      </trkpt>
      <trkpt lat="47.12762" lon="16.18328">
        <ele>308.54179</ele>
        <time>2022-09-27T12:22:44.018Z</time>
      </trkpt>
      <trkpt lat="47.12772" lon="16.18328">
        <ele>308.561925</ele>
        <time>2022-09-27T12:22:46.046Z</time>
      </trkpt>
      <trkpt lat="47.12783" lon="16.18327">
        <ele>308.583047</ele>
        <time>2022-09-27T12:22:48.042Z</time>
      </trkpt>
      <trkpt lat="47.12794" lon="16.18329">
        <ele>308.605389</ele>
        <time>2022-09-27T12:22:50.023Z</time>
      </trkpt>
      <trkpt lat="47.12806" lon="16.1833">
        <ele>308.628299</ele>
        <time>2022-09-27T12:22:52.027Z</time>
      </trkpt>
      <trkpt lat="47.12818" lon="16.1833">
        <ele>308.651787</ele>
        <time>2022-09-27T12:22:54.113Z</time>
      </trkpt>
      <trkpt lat="47.12831" lon="16.18331">
        <ele>308.498769</ele>
        <time>2022-09-27T12:22:56.044Z</time>
      </trkpt>
      <trkpt lat="47.12843" lon="16.18331">
        <ele>308.119179</ele>
        <time>2022-09-27T12:22:58.043Z</time>
      </trkpt>
      <trkpt lat="47.12854" lon="16.1833">
        <ele>307.760968</ele>
        <time>2022-09-27T12:23:00.032Z</time>
      </trkpt>
      <trkpt lat="47.12869" lon="16.1833">
        <ele>307.303807</ele>
        <time>2022-09-27T12:23:02.027Z</time>
      </trkpt>
      <trkpt lat="47.12884" lon="16.18328">
        <ele>306.84822</ele>
        <time>2022-09-27T12:23:04.079Z</time>
      </trkpt>
      <trkpt lat="47.12896" lon="16.18324">
        <ele>306.461851</ele>
        <time>2022-09-27T12:23:06.046Z</time>
      </trkpt>
      <trkpt lat="47.12908" lon="16.18321">
        <ele>306.096795</ele>
        <time>2022-09-27T12:23:08.078Z</time>
      </trkpt>
      <trkpt lat="47.12919" lon="16.18317">
        <ele>305.725453</ele>
        <time>2022-09-27T12:23:10.016Z</time>
      </trkpt>
      <trkpt lat="47.12933" lon="16.18311">
        <ele>305.267991</ele>
        <time>2022-09-27T12:23:12.037Z</time>
      </trkpt>
      <trkpt lat="47.12948" lon="16.18303">
        <ele>304.779876</ele>
        <time>2022-09-27T12:23:14.059Z</time>
      </trkpt>
      <trkpt lat="47.12962" lon="16.18292">
        <ele>304.277409</ele>
        <time>2022-09-27T12:23:16.022Z</time>
      </trkpt>
      <trkpt lat="47.12978" lon="16.18281">
        <ele>303.747064</ele>
        <time>2022-09-27T12:23:18.052Z</time>
      </trkpt>
      <trkpt lat="47.12992" lon="16.18267">
        <ele>303.22074</ele>
        <time>2022-09-27T12:23:20.032Z</time>
      </trkpt>
      <trkpt lat="47.13006" lon="16.18253">
        <ele>302.545223</ele>
        <time>2022-09-27T12:23:22.027Z</time>
      </trkpt>
      <trkpt lat="47.13013" lon="16.18245">
        <ele>302.160853</ele>
        <time>2022-09-27T12:23:23.039Z</time>
      </trkpt>
      <trkpt lat="47.13021" lon="16.18238">
        <ele>301.779875</ele>
        <time>2022-09-27T12:23:24.038Z</time>
      </trkpt>
      <trkpt lat="47.13034" lon="16.18223">
        <ele>301.055537</ele>
        <time>2022-09-27T12:23:26.035Z</time>
      </trkpt>
      <trkpt lat="47.13047" lon="16.18208">
        <ele>300.368712</ele>
        <time>2022-09-27T12:23:28.052Z</time>
      </trkpt>
      <trkpt lat="47.1306" lon="16.18194">
        <ele>299.697335</ele>
        <time>2022-09-27T12:23:30.037Z</time>
      </trkpt>
      <trkpt lat="47.13072" lon="16.1818">
        <ele>299.027272</ele>
        <time>2022-09-27T12:23:32.013Z</time>
      </trkpt>
      <trkpt lat="47.13085" lon="16.18167">
        <ele>298.38495</ele>
        <time>2022-09-27T12:23:34.032Z</time>
      </trkpt>
      <trkpt lat="47.13097" lon="16.18154">
        <ele>297.740817</ele>
        <time>2022-09-27T12:23:36.060Z</time>
      </trkpt>
      <trkpt lat="47.13109" lon="16.18141">
        <ele>297.105128</ele>
        <time>2022-09-27T12:23:38.013Z</time>
      </trkpt>
      <trkpt lat="47.13121" lon="16.18129">
        <ele>296.481505</ele>
        <time>2022-09-27T12:23:40.026Z</time>
      </trkpt>
      <trkpt lat="47.13133" lon="16.18116">
        <ele>295.864783</ele>
        <time>2022-09-27T12:23:42.040Z</time>
      </trkpt>
      <trkpt lat="47.13145" lon="16.18104">
        <ele>295.484003</ele>
        <time>2022-09-27T12:23:44.080Z</time>
      </trkpt>
      <trkpt lat="47.13157" lon="16.18093">
        <ele>295.596491</ele>
        <time>2022-09-27T12:23:46.025Z</time>
      </trkpt>
      <trkpt lat="47.13169" lon="16.18082">
        <ele>295.71129</ele>
        <time>2022-09-27T12:23:48.042Z</time>
      </trkpt>
      <trkpt lat="47.13182" lon="16.18071">
        <ele>295.824733</ele>
        <time>2022-09-27T12:23:50.032Z</time>
      </trkpt>
      <trkpt lat="47.13193" lon="16.18063">
        <ele>295.924292</ele>
        <time>2022-09-27T12:23:52.025Z</time>
      </trkpt>
      <trkpt lat="47.13204" lon="16.18056">
        <ele>296.021069</ele>
        <time>2022-09-27T12:23:54.033Z</time>
      </trkpt>
      <trkpt lat="47.13216" lon="16.18051">
        <ele>296.117495</ele>
        <time>2022-09-27T12:23:56.035Z</time>
      </trkpt>
      <trkpt lat="47.13226" lon="16.18046">
        <ele>296.205184</ele>
        <time>2022-09-27T12:23:58.022Z</time>
      </trkpt>
      <trkpt lat="47.13237" lon="16.1804">
        <ele>296.294335</ele>
        <time>2022-09-27T12:24:00.038Z</time>
      </trkpt>
      <trkpt lat="47.13247" lon="16.18035">
        <ele>296.377192</ele>
        <time>2022-09-27T12:24:02.016Z</time>
      </trkpt>
      <trkpt lat="47.13257" lon="16.18029">
        <ele>296.461044</ele>
        <time>2022-09-27T12:24:04.039Z</time>
      </trkpt>
      <trkpt lat="47.13266" lon="16.18023">
        <ele>296.538881</ele>
        <time>2022-09-27T12:24:06.042Z</time>
      </trkpt>
      <trkpt lat="47.13274" lon="16.18018">
        <ele>296.610997</ele>
        <time>2022-09-27T12:24:08.037Z</time>
      </trkpt>
      <trkpt lat="47.13286" lon="16.18011">
        <ele>296.707972</ele>
        <time>2022-09-27T12:24:11.024Z</time>
      </trkpt>
      <trkpt lat="47.13296" lon="16.18006">
        <ele>296.798978</ele>
        <time>2022-09-27T12:24:14.062Z</time>
      </trkpt>
      <trkpt lat="47.13308" lon="16.17999">
        <ele>296.827625</ele>
        <time>2022-09-27T12:24:17.027Z</time>
      </trkpt>
      <trkpt lat="47.1332" lon="16.17992">
        <ele>296.669746</ele>
        <time>2022-09-27T12:24:20.039Z</time>
      </trkpt>
      <trkpt lat="47.13331" lon="16.17984">
        <ele>296.518506</ele>
        <time>2022-09-27T12:24:23.042Z</time>
      </trkpt>
      <trkpt lat="47.13343" lon="16.17974">
        <ele>296.358324</ele>
        <time>2022-09-27T12:24:26.062Z</time>
      </trkpt>
      <trkpt lat="47.13351" lon="16.17968">
        <ele>296.249268</ele>
        <time>2022-09-27T12:24:28.034Z</time>
      </trkpt>
      <trkpt lat="47.13363" lon="16.17962">
        <ele>296.090554</ele>
        <time>2022-09-27T12:24:31.032Z</time>
      </trkpt>
      <trkpt lat="47.13375" lon="16.17953">
        <ele>295.930894</ele>
        <time>2022-09-27T12:24:34.015Z</time>
      </trkpt>
      <trkpt lat="47.13385" lon="16.17942">
        <ele>295.773549</ele>
        <time>2022-09-27T12:24:37.022Z</time>
      </trkpt>
      <trkpt lat="47.13396" lon="16.17932">
        <ele>295.612925</ele>
        <time>2022-09-27T12:24:40.035Z</time>
      </trkpt>
      <trkpt lat="47.13407" lon="16.17921">
        <ele>295.453379</ele>
        <time>2022-09-27T12:24:43.035Z</time>
      </trkpt>
      <trkpt lat="47.13418" lon="16.1791">
        <ele>295.296149</ele>
        <time>2022-09-27T12:24:46.037Z</time>
      </trkpt>
      <trkpt lat="47.13429" lon="16.179">
        <ele>295.138922</ele>
        <time>2022-09-27T12:24:49.012Z</time>
      </trkpt>
      <trkpt lat="47.13441" lon="16.1789">
        <ele>294.976868</ele>
        <time>2022-09-27T12:24:52.075Z</time>
      </trkpt>
      <trkpt lat="47.13452" lon="16.17881">
        <ele>294.817886</ele>
        <time>2022-09-27T12:24:55.030Z</time>
      </trkpt>
      <trkpt lat="47.13461" lon="16.17874">
        <ele>294.699173</ele>
        <time>2022-09-27T12:24:57.038Z</time>
      </trkpt>
      <trkpt lat="47.13469" lon="16.17867">
        <ele>294.687669</ele>
        <time>2022-09-27T12:24:59.022Z</time>
      </trkpt>
      <trkpt lat="47.13479" lon="16.17861">
        <ele>294.690279</ele>
        <time>2022-09-27T12:25:01.030Z</time>
      </trkpt>
      <trkpt lat="47.13487" lon="16.17854">
        <ele>294.692704</ele>
        <time>2022-09-27T12:25:03.020Z</time>
      </trkpt>
      <trkpt lat="47.13495" lon="16.17849">
        <ele>294.695089</ele>
        <time>2022-09-27T12:25:05.036Z</time>
      </trkpt>
      <trkpt lat="47.13505" lon="16.17844">
        <ele>294.697627</ele>
        <time>2022-09-27T12:25:07.033Z</time>
      </trkpt>
      <trkpt lat="47.13513" lon="16.17838">
        <ele>294.699968</ele>
        <time>2022-09-27T12:25:09.037Z</time>
      </trkpt>
      <trkpt lat="47.13522" lon="16.17834">
        <ele>294.702365</ele>
        <time>2022-09-27T12:25:11.026Z</time>
      </trkpt>
      <trkpt lat="47.13531" lon="16.1783">
        <ele>294.70497</ele>
        <time>2022-09-27T12:25:13.024Z</time>
      </trkpt>
      <trkpt lat="47.13541" lon="16.17826">
        <ele>294.707529</ele>
        <time>2022-09-27T12:25:15.021Z</time>
      </trkpt>
      <trkpt lat="47.1355" lon="16.17822">
        <ele>294.710063</ele>
        <time>2022-09-27T12:25:17.028Z</time>
      </trkpt>
      <trkpt lat="47.13563" lon="16.17815">
        <ele>294.713501</ele>
        <time>2022-09-27T12:25:20.061Z</time>
      </trkpt>
      <trkpt lat="47.13575" lon="16.17808">
        <ele>294.71684</ele>
        <time>2022-09-27T12:25:23.040Z</time>
      </trkpt>
      <trkpt lat="47.13587" lon="16.17801">
        <ele>294.72032</ele>
        <time>2022-09-27T12:25:26.033Z</time>
      </trkpt>
      <trkpt lat="47.13597" lon="16.17797">
        <ele>294.722963</ele>
        <time>2022-09-27T12:25:28.034Z</time>
      </trkpt>
      <trkpt lat="47.13606" lon="16.17792">
        <ele>294.725384</ele>
        <time>2022-09-27T12:25:30.029Z</time>
      </trkpt>
      <trkpt lat="47.13615" lon="16.17788">
        <ele>294.727839</ele>
        <time>2022-09-27T12:25:32.064Z</time>
      </trkpt>
      <trkpt lat="47.13625" lon="16.17785">
        <ele>294.730424</ele>
        <time>2022-09-27T12:25:34.022Z</time>
      </trkpt>
      <trkpt lat="47.13634" lon="16.1778">
        <ele>294.763385</ele>
        <time>2022-09-27T12:25:36.056Z</time>
      </trkpt>
      <trkpt lat="47.13643" lon="16.17776">
        <ele>294.83027</ele>
        <time>2022-09-27T12:25:38.033Z</time>
      </trkpt>
      <trkpt lat="47.13652" lon="16.17772">
        <ele>294.898768</ele>
        <time>2022-09-27T12:25:40.022Z</time>
      </trkpt>
      <trkpt lat="47.13661" lon="16.17767">
        <ele>294.966502</ele>
        <time>2022-09-27T12:25:42.026Z</time>
      </trkpt>
      <trkpt lat="47.13673" lon="16.1776">
        <ele>295.060357</ele>
        <time>2022-09-27T12:25:45.041Z</time>
      </trkpt>
      <trkpt lat="47.13682" lon="16.17756">
        <ele>295.13039</ele>
        <time>2022-09-27T12:25:47.066Z</time>
      </trkpt>
      <trkpt lat="47.13691" lon="16.17752">
        <ele>295.19944</ele>
        <time>2022-09-27T12:25:49.030Z</time>
      </trkpt>
      <trkpt lat="47.13703" lon="16.17747">
        <ele>295.292903</ele>
        <time>2022-09-27T12:25:52.019Z</time>
      </trkpt>
      <trkpt lat="47.13713" lon="16.17743">
        <ele>295.364045</ele>
        <time>2022-09-27T12:25:54.017Z</time>
      </trkpt>
      <trkpt lat="47.13721" lon="16.17738">
        <ele>295.431779</ele>
        <time>2022-09-27T12:25:56.020Z</time>
      </trkpt>
      <trkpt lat="47.1373" lon="16.17734">
        <ele>295.500731</ele>
        <time>2022-09-27T12:25:58.031Z</time>
      </trkpt>
      <trkpt lat="47.1374" lon="16.17729">
        <ele>295.573834</ele>
        <time>2022-09-27T12:26:00.020Z</time>
      </trkpt>
      <trkpt lat="47.13749" lon="16.17725">
        <ele>295.643104</ele>
        <time>2022-09-27T12:26:02.031Z</time>
      </trkpt>
      <trkpt lat="47.13761" lon="16.17718">
        <ele>295.735222</ele>
        <time>2022-09-27T12:26:05.035Z</time>
      </trkpt>
      <trkpt lat="47.13772" lon="16.17714">
        <ele>295.819501</ele>
        <time>2022-09-27T12:26:08.113Z</time>
      </trkpt>
      <trkpt lat="47.13781" lon="16.17711">
        <ele>295.887056</ele>
        <time>2022-09-27T12:26:10.043Z</time>
      </trkpt>
      <trkpt lat="47.1379" lon="16.17707">
        <ele>295.957499</ele>
        <time>2022-09-27T12:26:12.018Z</time>
      </trkpt>
      <trkpt lat="47.13799" lon="16.17702">
        <ele>296.024547</ele>
        <time>2022-09-27T12:26:14.066Z</time>
      </trkpt>
      <trkpt lat="47.13808" lon="16.17698">
        <ele>295.882929</ele>
        <time>2022-09-27T12:26:16.027Z</time>
      </trkpt>
      <trkpt lat="47.13818" lon="16.17694">
        <ele>295.670313</ele>
        <time>2022-09-27T12:26:18.016Z</time>
      </trkpt>
      <trkpt lat="47.1383" lon="16.17692">
        <ele>295.436151</ele>
        <time>2022-09-27T12:26:20.030Z</time>
      </trkpt>
      <trkpt lat="47.1384" lon="16.17689">
        <ele>295.225084</ele>
        <time>2022-09-27T12:26:22.032Z</time>
      </trkpt>
      <trkpt lat="47.1385" lon="16.17687">
        <ele>295.0042</ele>
        <time>2022-09-27T12:26:24.113Z</time>
      </trkpt>
      <trkpt lat="47.13862" lon="16.17683">
        <ele>294.75844</ele>
        <time>2022-09-27T12:26:27.025Z</time>
      </trkpt>
      <trkpt lat="47.13871" lon="16.17681">
        <ele>294.55616</ele>
        <time>2022-09-27T12:26:30.020Z</time>
      </trkpt>
      <trkpt lat="47.13884" lon="16.17683">
        <ele>294.296337</ele>
        <time>2022-09-27T12:26:33.024Z</time>
      </trkpt>
      <trkpt lat="47.13898" lon="16.17687">
        <ele>294.009348</ele>
        <time>2022-09-27T12:26:36.065Z</time>
      </trkpt>
      <trkpt lat="47.13909" lon="16.17693">
        <ele>293.754127</ele>
        <time>2022-09-27T12:26:39.036Z</time>
      </trkpt>
      <trkpt lat="47.13921" lon="16.17696">
        <ele>293.508386</ele>
        <time>2022-09-27T12:26:42.051Z</time>
      </trkpt>
      <trkpt lat="47.13933" lon="16.17701">
        <ele>293.252283</ele>
        <time>2022-09-27T12:26:45.028Z</time>
      </trkpt>
      <trkpt lat="47.13942" lon="16.17705">
        <ele>293.06089</ele>
        <time>2022-09-27T12:26:47.070Z</time>
      </trkpt>
      <trkpt lat="47.13952" lon="16.17708">
        <ele>292.85262</ele>
        <time>2022-09-27T12:26:49.036Z</time>
      </trkpt>
      <trkpt lat="47.13961" lon="16.17711">
        <ele>292.651656</ele>
        <time>2022-09-27T12:26:51.020Z</time>
      </trkpt>
      <trkpt lat="47.13974" lon="16.17715">
        <ele>292.380495</ele>
        <time>2022-09-27T12:26:54.024Z</time>
      </trkpt>
      <trkpt lat="47.13984" lon="16.17717">
        <ele>292.164456</ele>
        <time>2022-09-27T12:26:56.043Z</time>
      </trkpt>
      <trkpt lat="47.13994" lon="16.17719">
        <ele>291.957447</ele>
        <time>2022-09-27T12:26:58.028Z</time>
      </trkpt>
      <trkpt lat="47.14004" lon="16.1772">
        <ele>291.769873</ele>
        <time>2022-09-27T12:27:00.023Z</time>
      </trkpt>
      <trkpt lat="47.14014" lon="16.17722">
        <ele>291.558791</ele>
        <time>2022-09-27T12:27:02.033Z</time>
      </trkpt>
      <trkpt lat="47.14024" lon="16.17724">
        <ele>291.349564</ele>
        <time>2022-09-27T12:27:04.076Z</time>
      </trkpt>
      <trkpt lat="47.14033" lon="16.17725">
        <ele>291.154123</ele>
        <time>2022-09-27T12:27:06.034Z</time>
      </trkpt>
      <trkpt lat="47.14047" lon="16.17725">
        <ele>290.876934</ele>
        <time>2022-09-27T12:27:09.016Z</time>
      </trkpt>
      <trkpt lat="47.14056" lon="16.17725">
        <ele>290.67984</ele>
        <time>2022-09-27T12:27:11.029Z</time>
      </trkpt>
      <trkpt lat="47.14067" lon="16.17725">
        <ele>290.466308</ele>
        <time>2022-09-27T12:27:13.029Z</time>
      </trkpt>
      <trkpt lat="47.14078" lon="16.17726">
        <ele>290.24384</ele>
        <time>2022-09-27T12:27:15.079Z</time>
      </trkpt>
      <trkpt lat="47.14088" lon="16.17727">
        <ele>290.035693</ele>
        <time>2022-09-27T12:27:17.027Z</time>
      </trkpt>
      <trkpt lat="47.14097" lon="16.17728">
        <ele>289.836154</ele>
        <time>2022-09-27T12:27:19.028Z</time>
      </trkpt>
      <trkpt lat="47.14107" lon="16.17728">
        <ele>289.645203</ele>
        <time>2022-09-27T12:27:21.024Z</time>
      </trkpt>
      <trkpt lat="47.1412" lon="16.17728">
        <ele>289.363909</ele>
        <time>2022-09-27T12:27:24.035Z</time>
      </trkpt>
      <trkpt lat="47.1413" lon="16.17729">
        <ele>289.164527</ele>
        <time>2022-09-27T12:27:26.022Z</time>
      </trkpt>
      <trkpt lat="47.14139" lon="16.17729">
        <ele>288.979671</ele>
        <time>2022-09-27T12:27:28.027Z</time>
      </trkpt>
      <trkpt lat="47.14149" lon="16.1773">
        <ele>288.786607</ele>
        <time>2022-09-27T12:27:30.028Z</time>
      </trkpt>
      <trkpt lat="47.14159" lon="16.17731">
        <ele>288.777785</ele>
        <time>2022-09-27T12:27:32.029Z</time>
      </trkpt>
      <trkpt lat="47.14168" lon="16.17732">
        <ele>289.297405</ele>
        <time>2022-09-27T12:27:34.037Z</time>
      </trkpt>
      <trkpt lat="47.1418" lon="16.17733">
        <ele>289.990771</ele>
        <time>2022-09-27T12:27:37.030Z</time>
      </trkpt>
      <trkpt lat="47.14193" lon="16.17734">
        <ele>290.716752</ele>
        <time>2022-09-27T12:27:40.047Z</time>
      </trkpt>
      <trkpt lat="47.14203" lon="16.17736">
        <ele>291.252931</ele>
        <time>2022-09-27T12:27:42.042Z</time>
      </trkpt>
      <trkpt lat="47.14213" lon="16.17739">
        <ele>291.806833</ele>
        <time>2022-09-27T12:27:44.020Z</time>
      </trkpt>
      <trkpt lat="47.14222" lon="16.17742">
        <ele>292.353239</ele>
        <time>2022-09-27T12:27:46.023Z</time>
      </trkpt>
      <trkpt lat="47.14235" lon="16.17746">
        <ele>293.06354</ele>
        <time>2022-09-27T12:27:49.026Z</time>
      </trkpt>
      <trkpt lat="47.14246" lon="16.17752">
        <ele>293.762169</ele>
        <time>2022-09-27T12:27:52.034Z</time>
      </trkpt>
      <trkpt lat="47.14259" lon="16.1776">
        <ele>294.50849</ele>
        <time>2022-09-27T12:27:55.133Z</time>
      </trkpt>
      <trkpt lat="47.14266" lon="16.17768">
        <ele>295.014623</ele>
        <time>2022-09-27T12:27:57.047Z</time>
      </trkpt>
      <trkpt lat="47.14273" lon="16.17776">
        <ele>295.518385</ele>
        <time>2022-09-27T12:27:59.005Z</time>
      </trkpt>
      <trkpt lat="47.14281" lon="16.17791">
        <ele>296.234052</ele>
        <time>2022-09-27T12:28:02.024Z</time>
      </trkpt>
      <trkpt lat="47.14286" lon="16.17806">
        <ele>296.880986</ele>
        <time>2022-09-27T12:28:05.028Z</time>
      </trkpt>
      <trkpt lat="47.14291" lon="16.1782">
        <ele>297.459467</ele>
        <time>2022-09-27T12:28:08.038Z</time>
      </trkpt>
      <trkpt lat="47.14298" lon="16.17834">
        <ele>298.096007</ele>
        <time>2022-09-27T12:28:11.031Z</time>
      </trkpt>
      <trkpt lat="47.14306" lon="16.17847">
        <ele>298.723873</ele>
        <time>2022-09-27T12:28:14.031Z</time>
      </trkpt>
      <trkpt lat="47.14315" lon="16.17857">
        <ele>299.06474</ele>
        <time>2022-09-27T12:28:17.113Z</time>
      </trkpt>
      <trkpt lat="47.14322" lon="16.17868">
        <ele>299.370119</ele>
        <time>2022-09-27T12:28:21.063Z</time>
      </trkpt>
      <trkpt lat="47.14329" lon="16.17879">
        <ele>299.683965</ele>
        <time>2022-09-27T12:28:25.058Z</time>
      </trkpt>
      <trkpt lat="47.14337" lon="16.17891">
        <ele>300.011904</ele>
        <time>2022-09-27T12:28:29.051Z</time>
      </trkpt>
      <trkpt lat="47.14343" lon="16.17902">
        <ele>300.29537</ele>
        <time>2022-09-27T12:28:32.078Z</time>
      </trkpt>
      <trkpt lat="47.14349" lon="16.17916">
        <ele>300.634143</ele>
        <time>2022-09-27T12:28:36.030Z</time>
      </trkpt>
      <trkpt lat="47.14349" lon="16.1793">
        <ele>300.917226</ele>
        <time>2022-09-27T12:28:40.021Z</time>
      </trkpt>
      <trkpt lat="47.14346" lon="16.17943">
        <ele>301.189065</ele>
        <time>2022-09-27T12:28:43.027Z</time>
      </trkpt>
      <trkpt lat="47.14337" lon="16.17955">
        <ele>301.538184</ele>
        <time>2022-09-27T12:28:47.024Z</time>
      </trkpt>
      <trkpt lat="47.14331" lon="16.17965">
        <ele>301.816394</ele>
        <time>2022-09-27T12:28:51.045Z</time>
      </trkpt>
      <trkpt lat="47.14322" lon="16.17975">
        <ele>302.152587</ele>
        <time>2022-09-27T12:28:55.039Z</time>
      </trkpt>
      <trkpt lat="47.14314" lon="16.17981">
        <ele>302.42297</ele>
        <time>2022-09-27T12:28:58.030Z</time>
      </trkpt>
      <trkpt lat="47.14305" lon="16.1799">
        <ele>302.747244</ele>
        <time>2022-09-27T12:29:01.048Z</time>
      </trkpt>
      <trkpt lat="47.14297" lon="16.18002">
        <ele>303.076871</ele>
        <time>2022-09-27T12:29:04.069Z</time>
      </trkpt>
      <trkpt lat="47.14293" lon="16.18016">
        <ele>303.387192</ele>
        <time>2022-09-27T12:29:07.043Z</time>
      </trkpt>
      <trkpt lat="47.14288" lon="16.18028">
        <ele>303.661097</ele>
        <time>2022-09-27T12:29:10.038Z</time>
      </trkpt>
      <trkpt lat="47.14282" lon="16.18041">
        <ele>303.981819</ele>
        <time>2022-09-27T12:29:13.034Z</time>
      </trkpt>
      <trkpt lat="47.14277" lon="16.18057">
        <ele>303.557004</ele>
        <time>2022-09-27T12:29:16.037Z</time>
      </trkpt>
      <trkpt lat="47.14271" lon="16.18073">
        <ele>303.080353</ele>
        <time>2022-09-27T12:29:19.026Z</time>
      </trkpt>
      <trkpt lat="47.14266" lon="16.18091">
        <ele>302.561386</ele>
        <time>2022-09-27T12:29:22.069Z</time>
      </trkpt>
      <trkpt lat="47.14263" lon="16.18108">
        <ele>302.105774</ele>
        <time>2022-09-27T12:29:25.026Z</time>
      </trkpt>
      <trkpt lat="47.1426" lon="16.18124">
        <ele>301.648734</ele>
        <time>2022-09-27T12:29:28.026Z</time>
      </trkpt>
      <trkpt lat="47.14256" lon="16.1814">
        <ele>301.205725</ele>
        <time>2022-09-27T12:29:31.043Z</time>
      </trkpt>
      <trkpt lat="47.14251" lon="16.18156">
        <ele>300.746513</ele>
        <time>2022-09-27T12:29:34.016Z</time>
      </trkpt>
      <trkpt lat="47.14246" lon="16.18172">
        <ele>300.276053</ele>
        <time>2022-09-27T12:29:37.044Z</time>
      </trkpt>
      <trkpt lat="47.14241" lon="16.18189">
        <ele>299.769845</ele>
        <time>2022-09-27T12:29:40.029Z</time>
      </trkpt>
      <trkpt lat="47.14238" lon="16.18202">
        <ele>299.402433</ele>
        <time>2022-09-27T12:29:42.028Z</time>
      </trkpt>
      <trkpt lat="47.14235" lon="16.18216">
        <ele>299.009944</ele>
        <time>2022-09-27T12:29:44.092Z</time>
      </trkpt>
      <trkpt lat="47.14231" lon="16.18231">
        <ele>298.597373</ele>
        <time>2022-09-27T12:29:46.030Z</time>
      </trkpt>
      <trkpt lat="47.14227" lon="16.18246">
        <ele>298.180433</ele>
        <time>2022-09-27T12:29:48.024Z</time>
      </trkpt>
      <trkpt lat="47.14223" lon="16.1826">
        <ele>297.781528</ele>
        <time>2022-09-27T12:29:50.063Z</time>
      </trkpt>
      <trkpt lat="47.14219" lon="16.18273">
        <ele>297.388121</ele>
        <time>2022-09-27T12:29:52.035Z</time>
      </trkpt>
      <trkpt lat="47.14215" lon="16.18288">
        <ele>296.99296</ele>
        <time>2022-09-27T12:29:54.039Z</time>
      </trkpt>
      <trkpt lat="47.14211" lon="16.18302">
        <ele>296.949238</ele>
        <time>2022-09-27T12:29:56.039Z</time>
      </trkpt>
      <trkpt lat="47.14207" lon="16.18317">
        <ele>296.905678</ele>
        <time>2022-09-27T12:29:58.019Z</time>
      </trkpt>
      <trkpt lat="47.14202" lon="16.18331">
        <ele>296.862378</ele>
        <time>2022-09-27T12:30:00.014Z</time>
      </trkpt>
      <trkpt lat="47.14198" lon="16.18345">
        <ele>296.819668</ele>
        <time>2022-09-27T12:30:02.061Z</time>
      </trkpt>
      <trkpt lat="47.14194" lon="16.18359">
        <ele>296.777697</ele>
        <time>2022-09-27T12:30:04.044Z</time>
      </trkpt>
      <trkpt lat="47.1419" lon="16.18374">
        <ele>296.733372</ele>
        <time>2022-09-27T12:30:06.067Z</time>
      </trkpt>
      <trkpt lat="47.14185" lon="16.18387">
        <ele>296.692868</ele>
        <time>2022-09-27T12:30:08.015Z</time>
      </trkpt>
      <trkpt lat="47.14181" lon="16.18402">
        <ele>296.647521</ele>
        <time>2022-09-27T12:30:10.023Z</time>
      </trkpt>
      <trkpt lat="47.14177" lon="16.18418">
        <ele>296.600227</ele>
        <time>2022-09-27T12:30:12.012Z</time>
      </trkpt>
      <trkpt lat="47.14173" lon="16.18433">
        <ele>296.554663</ele>
        <time>2022-09-27T12:30:14.035Z</time>
      </trkpt>
      <trkpt lat="47.14169" lon="16.18449">
        <ele>296.509123</ele>
        <time>2022-09-27T12:30:16.023Z</time>
      </trkpt>
      <trkpt lat="47.14165" lon="16.18464">
        <ele>296.464103</ele>
        <time>2022-09-27T12:30:18.030Z</time>
      </trkpt>
      <trkpt lat="47.14161" lon="16.1848">
        <ele>296.418423</ele>
        <time>2022-09-27T12:30:20.026Z</time>
      </trkpt>
      <trkpt lat="47.14157" lon="16.18495">
        <ele>296.372102</ele>
        <time>2022-09-27T12:30:22.016Z</time>
      </trkpt>
      <trkpt lat="47.14154" lon="16.18511">
        <ele>296.327479</ele>
        <time>2022-09-27T12:30:24.058Z</time>
      </trkpt>
      <trkpt lat="47.14149" lon="16.18525">
        <ele>296.283154</ele>
        <time>2022-09-27T12:30:26.021Z</time>
      </trkpt>
      <trkpt lat="47.14145" lon="16.1854">
        <ele>296.17708</ele>
        <time>2022-09-27T12:30:28.066Z</time>
      </trkpt>
      <trkpt lat="47.14142" lon="16.18555">
        <ele>296.01972</ele>
        <time>2022-09-27T12:30:30.032Z</time>
      </trkpt>
      <trkpt lat="47.14138" lon="16.1857">
        <ele>295.866055</ele>
        <time>2022-09-27T12:30:32.031Z</time>
      </trkpt>
      <trkpt lat="47.14135" lon="16.18585">
        <ele>295.710963</ele>
        <time>2022-09-27T12:30:34.053Z</time>
      </trkpt>
      <trkpt lat="47.14131" lon="16.186">
        <ele>295.556257</ele>
        <time>2022-09-27T12:30:36.038Z</time>
      </trkpt>
      <trkpt lat="47.14127" lon="16.18615">
        <ele>295.405545</ele>
        <time>2022-09-27T12:30:38.027Z</time>
      </trkpt>
      <trkpt lat="47.14123" lon="16.18629">
        <ele>295.255221</ele>
        <time>2022-09-27T12:30:40.041Z</time>
      </trkpt>
      <trkpt lat="47.14119" lon="16.18643">
        <ele>295.099991</ele>
        <time>2022-09-27T12:30:42.045Z</time>
      </trkpt>
      <trkpt lat="47.14115" lon="16.18657">
        <ele>294.95198</ele>
        <time>2022-09-27T12:30:44.027Z</time>
      </trkpt>
      <trkpt lat="47.14111" lon="16.18671">
        <ele>294.808669</ele>
        <time>2022-09-27T12:30:46.047Z</time>
      </trkpt>
      <trkpt lat="47.14107" lon="16.18684">
        <ele>294.668236</ele>
        <time>2022-09-27T12:30:48.050Z</time>
      </trkpt>
      <trkpt lat="47.14103" lon="16.18698">
        <ele>294.523237</ele>
        <time>2022-09-27T12:30:50.013Z</time>
      </trkpt>
      <trkpt lat="47.14099" lon="16.18712">
        <ele>294.374983</ele>
        <time>2022-09-27T12:30:52.024Z</time>
      </trkpt>
      <trkpt lat="47.14096" lon="16.18726">
        <ele>294.228681</ele>
        <time>2022-09-27T12:30:54.034Z</time>
      </trkpt>
      <trkpt lat="47.14092" lon="16.1874">
        <ele>294.084208</ele>
        <time>2022-09-27T12:30:56.023Z</time>
      </trkpt>
      <trkpt lat="47.14088" lon="16.18753">
        <ele>293.945047</ele>
        <time>2022-09-27T12:30:58.032Z</time>
      </trkpt>
      <trkpt lat="47.14085" lon="16.18766">
        <ele>293.806231</ele>
        <time>2022-09-27T12:31:00.017Z</time>
      </trkpt>
      <trkpt lat="47.14081" lon="16.1878">
        <ele>293.654337</ele>
        <time>2022-09-27T12:31:02.038Z</time>
      </trkpt>
      <trkpt lat="47.14077" lon="16.18793">
        <ele>293.448719</ele>
        <time>2022-09-27T12:31:04.043Z</time>
      </trkpt>
      <trkpt lat="47.14074" lon="16.18806">
        <ele>293.249794</ele>
        <time>2022-09-27T12:31:06.036Z</time>
      </trkpt>
      <trkpt lat="47.14069" lon="16.18823">
        <ele>292.969204</ele>
        <time>2022-09-27T12:31:09.024Z</time>
      </trkpt>
      <trkpt lat="47.14064" lon="16.18836">
        <ele>292.76879</ele>
        <time>2022-09-27T12:31:11.024Z</time>
      </trkpt>
      <trkpt lat="47.14061" lon="16.18854">
        <ele>292.496137</ele>
        <time>2022-09-27T12:31:14.032Z</time>
      </trkpt>
      <trkpt lat="47.14057" lon="16.18869">
        <ele>292.256592</ele>
        <time>2022-09-27T12:31:17.035Z</time>
      </trkpt>
      <trkpt lat="47.14052" lon="16.18886">
        <ele>291.99146</ele>
        <time>2022-09-27T12:31:20.035Z</time>
      </trkpt>
      <trkpt lat="47.14047" lon="16.189">
        <ele>291.768907</ele>
        <time>2022-09-27T12:31:22.035Z</time>
      </trkpt>
      <trkpt lat="47.14044" lon="16.18915">
        <ele>291.53748</ele>
        <time>2022-09-27T12:31:24.078Z</time>
      </trkpt>
      <trkpt lat="47.1404" lon="16.18931">
        <ele>291.297789</ele>
        <time>2022-09-27T12:31:26.023Z</time>
      </trkpt>
      <trkpt lat="47.14036" lon="16.18946">
        <ele>291.061555</ele>
        <time>2022-09-27T12:31:28.034Z</time>
      </trkpt>
      <trkpt lat="47.14031" lon="16.18962">
        <ele>290.816848</ele>
        <time>2022-09-27T12:31:30.042Z</time>
      </trkpt>
      <trkpt lat="47.14027" lon="16.18977">
        <ele>290.575047</ele>
        <time>2022-09-27T12:31:32.034Z</time>
      </trkpt>
      <trkpt lat="47.14023" lon="16.18993">
        <ele>290.336707</ele>
        <time>2022-09-27T12:31:34.040Z</time>
      </trkpt>
      <trkpt lat="47.14019" lon="16.19009">
        <ele>290.090244</ele>
        <time>2022-09-27T12:31:36.028Z</time>
      </trkpt>
      <trkpt lat="47.14015" lon="16.19025">
        <ele>289.82334</ele>
        <time>2022-09-27T12:31:38.028Z</time>
      </trkpt>
      <trkpt lat="47.14011" lon="16.19041">
        <ele>289.493932</ele>
        <time>2022-09-27T12:31:40.031Z</time>
      </trkpt>
      <trkpt lat="47.14007" lon="16.19057">
        <ele>289.158622</ele>
        <time>2022-09-27T12:31:42.036Z</time>
      </trkpt>
      <trkpt lat="47.14002" lon="16.19074">
        <ele>288.821501</ele>
        <time>2022-09-27T12:31:44.030Z</time>
      </trkpt>
      <trkpt lat="47.13998" lon="16.1909">
        <ele>288.477125</ele>
        <time>2022-09-27T12:31:46.086Z</time>
      </trkpt>
      <trkpt lat="47.13995" lon="16.19106">
        <ele>288.156517</ele>
        <time>2022-09-27T12:31:48.033Z</time>
      </trkpt>
      <trkpt lat="47.13991" lon="16.1912">
        <ele>287.872349</ele>
        <time>2022-09-27T12:31:50.041Z</time>
      </trkpt>
      <trkpt lat="47.13988" lon="16.19134">
        <ele>287.57634</ele>
        <time>2022-09-27T12:31:52.029Z</time>
      </trkpt>
      <trkpt lat="47.13985" lon="16.19151">
        <ele>287.249396</ele>
        <time>2022-09-27T12:31:54.045Z</time>
      </trkpt>
      <trkpt lat="47.13981" lon="16.19167">
        <ele>286.923334</ele>
        <time>2022-09-27T12:31:56.031Z</time>
      </trkpt>
      <trkpt lat="47.13977" lon="16.19181">
        <ele>286.628138</ele>
        <time>2022-09-27T12:31:58.034Z</time>
      </trkpt>
      <trkpt lat="47.13975" lon="16.19195">
        <ele>286.347699</ele>
        <time>2022-09-27T12:32:00.018Z</time>
      </trkpt>
      <trkpt lat="47.13974" lon="16.19209">
        <ele>286.080806</ele>
        <time>2022-09-27T12:32:02.038Z</time>
      </trkpt>
      <trkpt lat="47.13971" lon="16.19223">
        <ele>285.799665</ele>
        <time>2022-09-27T12:32:04.038Z</time>
      </trkpt>
      <trkpt lat="47.13967" lon="16.19236">
        <ele>285.527881</ele>
        <time>2022-09-27T12:32:06.031Z</time>
      </trkpt>
      <trkpt lat="47.13962" lon="16.19248">
        <ele>285.261135</ele>
        <time>2022-09-27T12:32:08.095Z</time>
      </trkpt>
      <trkpt lat="47.13959" lon="16.19261">
        <ele>284.980717</ele>
        <time>2022-09-27T12:32:10.031Z</time>
      </trkpt>
      <trkpt lat="47.13957" lon="16.19275">
        <ele>284.754689</ele>
        <time>2022-09-27T12:32:12.025Z</time>
      </trkpt>
      <trkpt lat="47.13953" lon="16.19289">
        <ele>284.713402</ele>
        <time>2022-09-27T12:32:14.073Z</time>
      </trkpt>
      <trkpt lat="47.1395" lon="16.19302">
        <ele>284.673684</ele>
        <time>2022-09-27T12:32:16.047Z</time>
      </trkpt>
      <trkpt lat="47.13945" lon="16.19314">
        <ele>284.635881</ele>
        <time>2022-09-27T12:32:18.024Z</time>
      </trkpt>
      <trkpt lat="47.13942" lon="16.19327">
        <ele>284.599494</ele>
        <time>2022-09-27T12:32:20.054Z</time>
      </trkpt>
      <trkpt lat="47.13937" lon="16.19343">
        <ele>284.548287</ele>
        <time>2022-09-27T12:32:23.033Z</time>
      </trkpt>
      <trkpt lat="47.13931" lon="16.1936">
        <ele>284.496425</ele>
        <time>2022-09-27T12:32:26.033Z</time>
      </trkpt>
      <trkpt lat="47.13925" lon="16.19376">
        <ele>284.446631</ele>
        <time>2022-09-27T12:32:29.041Z</time>
      </trkpt>
      <trkpt lat="47.1392" lon="16.1939">
        <ele>284.40285</ele>
        <time>2022-09-27T12:32:32.034Z</time>
      </trkpt>
      <trkpt lat="47.13915" lon="16.19407">
        <ele>284.352909</ele>
        <time>2022-09-27T12:32:35.041Z</time>
      </trkpt>
      <trkpt lat="47.13911" lon="16.19425">
        <ele>284.299036</ele>
        <time>2022-09-27T12:32:38.043Z</time>
      </trkpt>
      <trkpt lat="47.13907" lon="16.19444">
        <ele>284.245817</ele>
        <time>2022-09-27T12:32:41.012Z</time>
      </trkpt>
      <trkpt lat="47.13905" lon="16.19456">
        <ele>284.209209</ele>
        <time>2022-09-27T12:32:43.051Z</time>
      </trkpt>
      <trkpt lat="47.13902" lon="16.19474">
        <ele>284.158518</ele>
        <time>2022-09-27T12:32:46.054Z</time>
      </trkpt>
      <trkpt lat="47.139" lon="16.19488">
        <ele>284.120741</ele>
        <time>2022-09-27T12:32:48.035Z</time>
      </trkpt>
      <trkpt lat="47.13898" lon="16.19501">
        <ele>284.083856</ele>
        <time>2022-09-27T12:32:50.042Z</time>
      </trkpt>
      <trkpt lat="47.13895" lon="16.19519">
        <ele>284.032804</ele>
        <time>2022-09-27T12:32:53.019Z</time>
      </trkpt>
      <trkpt lat="47.13893" lon="16.19536">
        <ele>283.896078</ele>
        <time>2022-09-27T12:32:56.035Z</time>
      </trkpt>
      <trkpt lat="47.1389" lon="16.19554">
        <ele>283.753609</ele>
        <time>2022-09-27T12:32:59.035Z</time>
      </trkpt>
      <trkpt lat="47.13887" lon="16.19572">
        <ele>283.607872</ele>
        <time>2022-09-27T12:33:02.032Z</time>
      </trkpt>
      <trkpt lat="47.13885" lon="16.19585">
        <ele>283.503514</ele>
        <time>2022-09-27T12:33:04.024Z</time>
      </trkpt>
      <trkpt lat="47.13882" lon="16.19604">
        <ele>283.347604</ele>
        <time>2022-09-27T12:33:07.038Z</time>
      </trkpt>
      <trkpt lat="47.1388" lon="16.19619">
        <ele>283.234107</ele>
        <time>2022-09-27T12:33:09.043Z</time>
      </trkpt>
      <trkpt lat="47.13877" lon="16.19633">
        <ele>283.12036</ele>
        <time>2022-09-27T12:33:11.037Z</time>
      </trkpt>
      <trkpt lat="47.13875" lon="16.19647">
        <ele>283.005799</ele>
        <time>2022-09-27T12:33:13.030Z</time>
      </trkpt>
      <trkpt lat="47.13872" lon="16.19661">
        <ele>282.89426</ele>
        <time>2022-09-27T12:33:15.106Z</time>
      </trkpt>
      <trkpt lat="47.1387" lon="16.19675">
        <ele>282.78242</ele>
        <time>2022-09-27T12:33:17.021Z</time>
      </trkpt>
      <trkpt lat="47.13867" lon="16.19688">
        <ele>282.676752</ele>
        <time>2022-09-27T12:33:19.036Z</time>
      </trkpt>
      <trkpt lat="47.13865" lon="16.19702">
        <ele>282.562243</ele>
        <time>2022-09-27T12:33:21.039Z</time>
      </trkpt>
      <trkpt lat="47.13863" lon="16.19715">
        <ele>282.454473</ele>
        <time>2022-09-27T12:33:23.039Z</time>
      </trkpt>
      <trkpt lat="47.1386" lon="16.19728">
        <ele>282.350772</ele>
        <time>2022-09-27T12:33:25.073Z</time>
      </trkpt>
      <trkpt lat="47.13858" lon="16.19741">
        <ele>282.245014</ele>
        <time>2022-09-27T12:33:27.024Z</time>
      </trkpt>
      <trkpt lat="47.13855" lon="16.19755">
        <ele>282.135277</ele>
        <time>2022-09-27T12:33:29.027Z</time>
      </trkpt>
      <trkpt lat="47.13852" lon="16.19773">
        <ele>281.984949</ele>
        <time>2022-09-27T12:33:32.042Z</time>
      </trkpt>
      <trkpt lat="47.1385" lon="16.19786">
        <ele>281.970448</ele>
        <time>2022-09-27T12:33:34.037Z</time>
      </trkpt>
      <trkpt lat="47.13846" lon="16.19805">
        <ele>281.976856</ele>
        <time>2022-09-27T12:33:37.119Z</time>
      </trkpt>
      <trkpt lat="47.13843" lon="16.19823">
        <ele>281.983358</ele>
        <time>2022-09-27T12:33:40.043Z</time>
      </trkpt>
      <trkpt lat="47.1384" lon="16.19841">
        <ele>281.989696</ele>
        <time>2022-09-27T12:33:43.059Z</time>
      </trkpt>
      <trkpt lat="47.13838" lon="16.19859">
        <ele>281.99559</ele>
        <time>2022-09-27T12:33:46.053Z</time>
      </trkpt>
      <trkpt lat="47.13841" lon="16.19877">
        <ele>282.00192</ele>
        <time>2022-09-27T12:33:49.084Z</time>
      </trkpt>
      <trkpt lat="47.13849" lon="16.19886">
        <ele>282.007126</ele>
        <time>2022-09-27T12:33:52.029Z</time>
      </trkpt>
      <trkpt lat="47.13858" lon="16.19895">
        <ele>282.012272</ele>
        <time>2022-09-27T12:33:55.020Z</time>
      </trkpt>
      <trkpt lat="47.13866" lon="16.19905">
        <ele>282.01752</ele>
        <time>2022-09-27T12:33:58.040Z</time>
      </trkpt>
      <trkpt lat="47.13875" lon="16.19914">
        <ele>282.023022</ele>
        <time>2022-09-27T12:34:01.051Z</time>
      </trkpt>
      <trkpt lat="47.13883" lon="16.19923">
        <ele>282.028086</ele>
        <time>2022-09-27T12:34:04.035Z</time>
      </trkpt>
      <trkpt lat="47.13892" lon="16.19932">
        <ele>282.033448</ele>
        <time>2022-09-27T12:34:07.036Z</time>
      </trkpt>
      <trkpt lat="47.13901" lon="16.19942">
        <ele>282.039015</ele>
        <time>2022-09-27T12:34:11.057Z</time>
      </trkpt>
      <trkpt lat="47.1391" lon="16.19949">
        <ele>282.044229</ele>
        <time>2022-09-27T12:34:15.034Z</time>
      </trkpt>
      <trkpt lat="47.13919" lon="16.19959">
        <ele>282.049731</ele>
        <time>2022-09-27T12:34:20.034Z</time>
      </trkpt>
      <trkpt lat="47.13928" lon="16.19967">
        <ele>282.055032</ele>
        <time>2022-09-27T12:34:24.036Z</time>
      </trkpt>
      <trkpt lat="47.13936" lon="16.19976">
        <ele>282.529915</ele>
        <time>2022-09-27T12:34:30.039Z</time>
      </trkpt>
      <trkpt lat="47.13944" lon="16.19984">
        <ele>283.14596</ele>
        <time>2022-09-27T12:34:35.035Z</time>
      </trkpt>
      <trkpt lat="47.13951" lon="16.19993">
        <ele>283.719771</ele>
        <time>2022-09-27T12:34:43.024Z</time>
      </trkpt>
      <trkpt lat="47.13959" lon="16.2">
        <ele>284.303542</ele>
        <time>2022-09-27T12:34:49.050Z</time>
      </trkpt>
      <trkpt lat="47.13967" lon="16.20009">
        <ele>284.922217</ele>
        <time>2022-09-27T12:34:54.035Z</time>
      </trkpt>
      <trkpt lat="47.13978" lon="16.20015">
        <ele>285.608725</ele>
        <time>2022-09-27T12:34:57.023Z</time>
      </trkpt>
      <trkpt lat="47.13987" lon="16.20024">
        <ele>286.321785</ele>
        <time>2022-09-27T12:35:01.024Z</time>
      </trkpt>
      <trkpt lat="47.13994" lon="16.20035">
        <ele>286.94261</ele>
        <time>2022-09-27T12:35:07.064Z</time>
      </trkpt>
      <trkpt lat="47.14002" lon="16.20044">
        <ele>287.538871</ele>
        <time>2022-09-27T12:35:12.036Z</time>
      </trkpt>
      <trkpt lat="47.14009" lon="16.20051">
        <ele>288.099989</ele>
        <time>2022-09-27T12:35:17.041Z</time>
      </trkpt>
      <trkpt lat="47.14016" lon="16.20059">
        <ele>288.661106</ele>
        <time>2022-09-27T12:35:22.040Z</time>
      </trkpt>
      <trkpt lat="47.14024" lon="16.20067">
        <ele>289.219737</ele>
        <time>2022-09-27T12:35:28.032Z</time>
      </trkpt>
      <trkpt lat="47.14031" lon="16.20078">
        <ele>289.856371</ele>
        <time>2022-09-27T12:35:36.089Z</time>
      </trkpt>
      <trkpt lat="47.14039" lon="16.20087">
        <ele>290.495618</ele>
        <time>2022-09-27T12:35:44.030Z</time>
      </trkpt>
      <trkpt lat="47.14047" lon="16.20097">
        <ele>291.141888</ele>
        <time>2022-09-27T12:35:50.018Z</time>
      </trkpt>
      <trkpt lat="47.14056" lon="16.20103">
        <ele>291.729498</ele>
        <time>2022-09-27T12:35:55.026Z</time>
      </trkpt>
      <trkpt lat="47.14065" lon="16.20111">
        <ele>292.415933</ele>
        <time>2022-09-27T12:36:00.042Z</time>
      </trkpt>
      <trkpt lat="47.14069" lon="16.20127">
        <ele>293.106038</ele>
        <time>2022-09-27T12:36:05.029Z</time>
      </trkpt>
      <trkpt lat="47.14067" lon="16.20143">
        <ele>293.420219</ele>
        <time>2022-09-27T12:36:08.026Z</time>
      </trkpt>
      <trkpt lat="47.14066" lon="16.2016">
        <ele>293.714024</ele>
        <time>2022-09-27T12:36:11.082Z</time>
      </trkpt>
      <trkpt lat="47.14068" lon="16.20177">
        <ele>293.995558</ele>
        <time>2022-09-27T12:36:14.101Z</time>
      </trkpt>
      <trkpt lat="47.14063" lon="16.20192">
        <ele>294.279402</ele>
        <time>2022-09-27T12:36:18.036Z</time>
      </trkpt>
      <trkpt lat="47.14057" lon="16.20202">
        <ele>294.505836</ele>
        <time>2022-09-27T12:36:21.036Z</time>
      </trkpt>
      <trkpt lat="47.1405" lon="16.20217">
        <ele>294.806402</ele>
        <time>2022-09-27T12:36:24.027Z</time>
      </trkpt>
      <trkpt lat="47.14042" lon="16.20232">
        <ele>295.112035</ele>
        <time>2022-09-27T12:36:27.023Z</time>
      </trkpt>
      <trkpt lat="47.14037" lon="16.20244">
        <ele>295.365798</ele>
        <time>2022-09-27T12:36:30.028Z</time>
      </trkpt>
      <trkpt lat="47.14031" lon="16.20256">
        <ele>295.608449</ele>
        <time>2022-09-27T12:36:33.019Z</time>
      </trkpt>
      <trkpt lat="47.14025" lon="16.20267">
        <ele>295.846649</ele>
        <time>2022-09-27T12:36:36.088Z</time>
      </trkpt>
      <trkpt lat="47.14019" lon="16.20282">
        <ele>296.132683</ele>
        <time>2022-09-27T12:36:40.037Z</time>
      </trkpt>
      <trkpt lat="47.14015" lon="16.20298">
        <ele>296.413688</ele>
        <time>2022-09-27T12:36:44.026Z</time>
      </trkpt>
      <trkpt lat="47.1401" lon="16.20312">
        <ele>296.675103</ele>
        <time>2022-09-27T12:36:48.027Z</time>
      </trkpt>
      <trkpt lat="47.14002" lon="16.20327">
        <ele>296.992348</ele>
        <time>2022-09-27T12:36:52.040Z</time>
      </trkpt>
      <trkpt lat="47.13995" lon="16.20342">
        <ele>297.291552</ele>
        <time>2022-09-27T12:36:55.038Z</time>
      </trkpt>
      <trkpt lat="47.13989" lon="16.20357">
        <ele>297.581914</ele>
        <time>2022-09-27T12:36:58.036Z</time>
      </trkpt>
      <trkpt lat="47.13984" lon="16.20374">
        <ele>297.320142</ele>
        <time>2022-09-27T12:37:01.024Z</time>
      </trkpt>
      <trkpt lat="47.13979" lon="16.20391">
        <ele>297.011224</ele>
        <time>2022-09-27T12:37:04.039Z</time>
      </trkpt>
      <trkpt lat="47.13976" lon="16.20404">
        <ele>296.7958</ele>
        <time>2022-09-27T12:37:06.038Z</time>
      </trkpt>
      <trkpt lat="47.1397" lon="16.20422">
        <ele>296.476036</ele>
        <time>2022-09-27T12:37:09.033Z</time>
      </trkpt>
      <trkpt lat="47.13966" lon="16.20434">
        <ele>296.253542</ele>
        <time>2022-09-27T12:37:11.021Z</time>
      </trkpt>
      <trkpt lat="47.13962" lon="16.20446">
        <ele>296.03879</ele>
        <time>2022-09-27T12:37:13.022Z</time>
      </trkpt>
      <trkpt lat="47.13958" lon="16.20461">
        <ele>295.774855</ele>
        <time>2022-09-27T12:37:16.032Z</time>
      </trkpt>
      <trkpt lat="47.13953" lon="16.20474">
        <ele>295.534643</ele>
        <time>2022-09-27T12:37:19.017Z</time>
      </trkpt>
      <trkpt lat="47.13948" lon="16.20491">
        <ele>295.23209</ele>
        <time>2022-09-27T12:37:22.030Z</time>
      </trkpt>
      <trkpt lat="47.13944" lon="16.20504">
        <ele>295.000257</ele>
        <time>2022-09-27T12:37:24.069Z</time>
      </trkpt>
      <trkpt lat="47.1394" lon="16.20517">
        <ele>294.774304</ele>
        <time>2022-09-27T12:37:26.031Z</time>
      </trkpt>
      <trkpt lat="47.13935" lon="16.20535">
        <ele>294.45883</ele>
        <time>2022-09-27T12:37:29.022Z</time>
      </trkpt>
      <trkpt lat="47.1393" lon="16.20552">
        <ele>294.151737</ele>
        <time>2022-09-27T12:37:32.039Z</time>
      </trkpt>
      <trkpt lat="47.13925" lon="16.20569">
        <ele>293.858111</ele>
        <time>2022-09-27T12:37:35.041Z</time>
      </trkpt>
      <trkpt lat="47.1392" lon="16.20585">
        <ele>293.568757</ele>
        <time>2022-09-27T12:37:38.063Z</time>
      </trkpt>
      <trkpt lat="47.13914" lon="16.20599">
        <ele>293.320354</ele>
        <time>2022-09-27T12:37:41.028Z</time>
      </trkpt>
      <trkpt lat="47.13909" lon="16.20612">
        <ele>293.306331</ele>
        <time>2022-09-27T12:37:44.030Z</time>
      </trkpt>
      <trkpt lat="47.13904" lon="16.20626">
        <ele>293.292176</ele>
        <time>2022-09-27T12:37:47.030Z</time>
      </trkpt>
      <trkpt lat="47.139" lon="16.20642">
        <ele>293.27648</ele>
        <time>2022-09-27T12:37:50.030Z</time>
      </trkpt>
      <trkpt lat="47.13895" lon="16.20658">
        <ele>293.260815</ele>
        <time>2022-09-27T12:37:53.083Z</time>
      </trkpt>
      <trkpt lat="47.1389" lon="16.20672">
        <ele>293.246005</ele>
        <time>2022-09-27T12:37:56.036Z</time>
      </trkpt>
      <trkpt lat="47.13887" lon="16.20687">
        <ele>293.231392</ele>
        <time>2022-09-27T12:37:59.022Z</time>
      </trkpt>
      <trkpt lat="47.13882" lon="16.20703">
        <ele>293.216113</ele>
        <time>2022-09-27T12:38:02.018Z</time>
      </trkpt>
      <trkpt lat="47.13877" lon="16.20717">
        <ele>293.201043</ele>
        <time>2022-09-27T12:38:05.017Z</time>
      </trkpt>
      <trkpt lat="47.13871" lon="16.20734">
        <ele>293.184156</ele>
        <time>2022-09-27T12:38:08.031Z</time>
      </trkpt>
      <trkpt lat="47.13865" lon="16.2075">
        <ele>293.167695</ele>
        <time>2022-09-27T12:38:11.042Z</time>
      </trkpt>
      <trkpt lat="47.13859" lon="16.20766">
        <ele>293.150292</ele>
        <time>2022-09-27T12:38:14.042Z</time>
      </trkpt>
      <trkpt lat="47.13852" lon="16.20783">
        <ele>293.132467</ele>
        <time>2022-09-27T12:38:17.028Z</time>
      </trkpt>
      <trkpt lat="47.13849" lon="16.20795">
        <ele>293.120239</ele>
        <time>2022-09-27T12:38:19.052Z</time>
      </trkpt>
      <trkpt lat="47.13844" lon="16.20807">
        <ele>293.108157</ele>
        <time>2022-09-27T12:38:21.038Z</time>
      </trkpt>
      <trkpt lat="47.13838" lon="16.20824">
        <ele>293.09045</ele>
        <time>2022-09-27T12:38:24.039Z</time>
      </trkpt>
      <trkpt lat="47.13831" lon="16.2084">
        <ele>293.073401</ele>
        <time>2022-09-27T12:38:27.031Z</time>
      </trkpt>
      <trkpt lat="47.13824" lon="16.20855">
        <ele>293.057258</ele>
        <time>2022-09-27T12:38:30.039Z</time>
      </trkpt>
      <trkpt lat="47.13818" lon="16.2087">
        <ele>293.041755</ele>
        <time>2022-09-27T12:38:33.026Z</time>
      </trkpt>
      <trkpt lat="47.13811" lon="16.20885">
        <ele>293.025899</ele>
        <time>2022-09-27T12:38:36.021Z</time>
      </trkpt>
      <trkpt lat="47.13804" lon="16.209">
        <ele>293.010622</ele>
        <time>2022-09-27T12:38:39.042Z</time>
      </trkpt>
      <trkpt lat="47.13798" lon="16.20916">
        <ele>292.994164</ele>
        <time>2022-09-27T12:38:42.024Z</time>
      </trkpt>
      <trkpt lat="47.13793" lon="16.20928">
        <ele>292.982166</ele>
        <time>2022-09-27T12:38:44.017Z</time>
      </trkpt>
      <trkpt lat="47.13788" lon="16.20941">
        <ele>292.969138</ele>
        <time>2022-09-27T12:38:46.034Z</time>
      </trkpt>
      <trkpt lat="47.13783" lon="16.20954">
        <ele>292.95566</ele>
        <time>2022-09-27T12:38:48.061Z</time>
      </trkpt>
      <trkpt lat="47.13777" lon="16.20967">
        <ele>292.942122</ele>
        <time>2022-09-27T12:38:50.016Z</time>
      </trkpt>
      <trkpt lat="47.13772" lon="16.20979">
        <ele>292.929801</ele>
        <time>2022-09-27T12:38:52.018Z</time>
      </trkpt>
      <trkpt lat="47.13767" lon="16.20992">
        <ele>292.91685</ele>
        <time>2022-09-27T12:38:54.044Z</time>
      </trkpt>
      <trkpt lat="47.13762" lon="16.21005">
        <ele>292.90376</ele>
        <time>2022-09-27T12:38:56.047Z</time>
      </trkpt>
      <trkpt lat="47.13757" lon="16.21018">
        <ele>292.890631</ele>
        <time>2022-09-27T12:38:58.043Z</time>
      </trkpt>
      <trkpt lat="47.13751" lon="16.21032">
        <ele>292.876496</ele>
        <time>2022-09-27T12:39:00.047Z</time>
      </trkpt>
      <trkpt lat="47.13745" lon="16.21047">
        <ele>292.861109</ele>
        <time>2022-09-27T12:39:02.047Z</time>
      </trkpt>
      <trkpt lat="47.1374" lon="16.21063">
        <ele>292.838545</ele>
        <time>2022-09-27T12:39:04.055Z</time>
      </trkpt>
      <trkpt lat="47.13734" lon="16.21079">
        <ele>292.78546</ele>
        <time>2022-09-27T12:39:06.046Z</time>
      </trkpt>
      <trkpt lat="47.13728" lon="16.21095">
        <ele>292.734368</ele>
        <time>2022-09-27T12:39:08.040Z</time>
      </trkpt>
      <trkpt lat="47.13723" lon="16.2111">
        <ele>292.683477</ele>
        <time>2022-09-27T12:39:10.034Z</time>
      </trkpt>
      <trkpt lat="47.13716" lon="16.21126">
        <ele>292.630154</ele>
        <time>2022-09-27T12:39:12.035Z</time>
      </trkpt>
      <trkpt lat="47.13709" lon="16.21142">
        <ele>292.576183</ele>
        <time>2022-09-27T12:39:14.026Z</time>
      </trkpt>
      <trkpt lat="47.13704" lon="16.21157">
        <ele>292.52514</ele>
        <time>2022-09-27T12:39:16.034Z</time>
      </trkpt>
      <trkpt lat="47.13698" lon="16.21173">
        <ele>292.474249</ele>
        <time>2022-09-27T12:39:18.042Z</time>
      </trkpt>
      <trkpt lat="47.13692" lon="16.21189">
        <ele>292.420391</ele>
        <time>2022-09-27T12:39:20.030Z</time>
      </trkpt>
      <trkpt lat="47.13686" lon="16.21204">
        <ele>292.369216</ele>
        <time>2022-09-27T12:39:22.028Z</time>
      </trkpt>
      <trkpt lat="47.1368" lon="16.2122">
        <ele>292.316697</ele>
        <time>2022-09-27T12:39:24.020Z</time>
      </trkpt>
      <trkpt lat="47.13674" lon="16.21235">
        <ele>292.268253</ele>
        <time>2022-09-27T12:39:26.054Z</time>
      </trkpt>
      <trkpt lat="47.13669" lon="16.21248">
        <ele>292.222124</ele>
        <time>2022-09-27T12:39:28.032Z</time>
      </trkpt>
      <trkpt lat="47.13663" lon="16.21261">
        <ele>292.17775</ele>
        <time>2022-09-27T12:39:30.039Z</time>
      </trkpt>
      <trkpt lat="47.1366" lon="16.21274">
        <ele>292.138121</ele>
        <time>2022-09-27T12:39:32.030Z</time>
      </trkpt>
      <trkpt lat="47.13654" lon="16.21286">
        <ele>292.096158</ele>
        <time>2022-09-27T12:39:34.026Z</time>
      </trkpt>
      <trkpt lat="47.1365" lon="16.21298">
        <ele>291.922984</ele>
        <time>2022-09-27T12:39:36.036Z</time>
      </trkpt>
      <trkpt lat="47.13644" lon="16.2131">
        <ele>291.668374</ele>
        <time>2022-09-27T12:39:38.029Z</time>
      </trkpt>
      <trkpt lat="47.13639" lon="16.21321">
        <ele>291.421145</ele>
        <time>2022-09-27T12:39:40.034Z</time>
      </trkpt>
      <trkpt lat="47.13632" lon="16.21337">
        <ele>291.076045</ele>
        <time>2022-09-27T12:39:43.038Z</time>
      </trkpt>
      <trkpt lat="47.13626" lon="16.21352">
        <ele>290.768708</ele>
        <time>2022-09-27T12:39:46.024Z</time>
      </trkpt>
      <trkpt lat="47.13619" lon="16.21367">
        <ele>290.453383</ele>
        <time>2022-09-27T12:39:49.035Z</time>
      </trkpt>
      <trkpt lat="47.13614" lon="16.21378">
        <ele>290.213359</ele>
        <time>2022-09-27T12:39:51.040Z</time>
      </trkpt>
      <trkpt lat="47.13608" lon="16.21396">
        <ele>289.857711</ele>
        <time>2022-09-27T12:39:54.034Z</time>
      </trkpt>
      <trkpt lat="47.13602" lon="16.21412">
        <ele>289.522535</ele>
        <time>2022-09-27T12:39:57.031Z</time>
      </trkpt>
      <trkpt lat="47.13595" lon="16.21427">
        <ele>289.202798</ele>
        <time>2022-09-27T12:40:00.019Z</time>
      </trkpt>
      <trkpt lat="47.13588" lon="16.21443">
        <ele>288.864904</ele>
        <time>2022-09-27T12:40:03.035Z</time>
      </trkpt>
      <trkpt lat="47.13584" lon="16.21455">
        <ele>288.62648</ele>
        <time>2022-09-27T12:40:05.059Z</time>
      </trkpt>
      <trkpt lat="47.1358" lon="16.21467">
        <ele>288.38563</ele>
        <time>2022-09-27T12:40:07.029Z</time>
      </trkpt>
      <trkpt lat="47.13574" lon="16.21484">
        <ele>288.041172</ele>
        <time>2022-09-27T12:40:10.040Z</time>
      </trkpt>
      <trkpt lat="47.13567" lon="16.215">
        <ele>287.697666</ele>
        <time>2022-09-27T12:40:13.039Z</time>
      </trkpt>
      <trkpt lat="47.13559" lon="16.21516">
        <ele>287.346556</ele>
        <time>2022-09-27T12:40:16.023Z</time>
      </trkpt>
      <trkpt lat="47.13554" lon="16.21527">
        <ele>287.304261</ele>
        <time>2022-09-27T12:40:18.022Z</time>
      </trkpt>
      <trkpt lat="47.13549" lon="16.21539">
        <ele>287.261974</ele>
        <time>2022-09-27T12:40:20.029Z</time>
      </trkpt>
      <trkpt lat="47.13541" lon="16.21555">
        <ele>287.199917</ele>
        <time>2022-09-27T12:40:23.025Z</time>
      </trkpt>
      <trkpt lat="47.13537" lon="16.21567">
        <ele>287.15734</ele>
        <time>2022-09-27T12:40:25.037Z</time>
      </trkpt>
      <trkpt lat="47.13531" lon="16.21579">
        <ele>287.110643</ele>
        <time>2022-09-27T12:40:27.048Z</time>
      </trkpt>
      <trkpt lat="47.13525" lon="16.21592">
        <ele>287.060306</ele>
        <time>2022-09-27T12:40:29.073Z</time>
      </trkpt>
      <trkpt lat="47.13519" lon="16.21606">
        <ele>287.010308</ele>
        <time>2022-09-27T12:40:31.035Z</time>
      </trkpt>
      <trkpt lat="47.13513" lon="16.21623">
        <ele>286.951542</ele>
        <time>2022-09-27T12:40:34.019Z</time>
      </trkpt>
      <trkpt lat="47.13508" lon="16.21638">
        <ele>286.897316</ele>
        <time>2022-09-27T12:40:37.066Z</time>
      </trkpt>
      <trkpt lat="47.13503" lon="16.21655">
        <ele>286.838533</ele>
        <time>2022-09-27T12:40:40.041Z</time>
      </trkpt>
      <trkpt lat="47.13496" lon="16.21672">
        <ele>286.778475</ele>
        <time>2022-09-27T12:40:43.106Z</time>
      </trkpt>
      <trkpt lat="47.1349" lon="16.21688">
        <ele>286.720699</ele>
        <time>2022-09-27T12:40:46.030Z</time>
      </trkpt>
      <trkpt lat="47.13484" lon="16.21704">
        <ele>286.662102</ele>
        <time>2022-09-27T12:40:49.047Z</time>
      </trkpt>
      <trkpt lat="47.13477" lon="16.2172">
        <ele>286.604326</ele>
        <time>2022-09-27T12:40:52.011Z</time>
      </trkpt>
      <trkpt lat="47.13471" lon="16.21737">
        <ele>286.544851</ele>
        <time>2022-09-27T12:40:55.040Z</time>
      </trkpt>
      <trkpt lat="47.13465" lon="16.21752">
        <ele>286.187037</ele>
        <time>2022-09-27T12:40:58.036Z</time>
      </trkpt>
      <trkpt lat="47.13459" lon="16.2177">
        <ele>285.480733</ele>
        <time>2022-09-27T12:41:01.034Z</time>
      </trkpt>
      <trkpt lat="47.13454" lon="16.21784">
        <ele>284.930647</ele>
        <time>2022-09-27T12:41:03.037Z</time>
      </trkpt>
      <trkpt lat="47.1345" lon="16.21799">
        <ele>284.325924</ele>
        <time>2022-09-27T12:41:05.034Z</time>
      </trkpt>
      <trkpt lat="47.13444" lon="16.21817">
        <ele>283.653646</ele>
        <time>2022-09-27T12:41:07.028Z</time>
      </trkpt>
      <trkpt lat="47.13439" lon="16.21837">
        <ele>282.887788</ele>
        <time>2022-09-27T12:41:09.029Z</time>
      </trkpt>
      <trkpt lat="47.13433" lon="16.21859">
        <ele>282.039443</ele>
        <time>2022-09-27T12:41:11.035Z</time>
      </trkpt>
      <trkpt lat="47.13425" lon="16.21882">
        <ele>281.116028</ele>
        <time>2022-09-27T12:41:13.063Z</time>
      </trkpt>
      <trkpt lat="47.13416" lon="16.21906">
        <ele>280.186339</ele>
        <time>2022-09-27T12:41:15.029Z</time>
      </trkpt>
      <trkpt lat="47.13408" lon="16.21929">
        <ele>279.275436</ele>
        <time>2022-09-27T12:41:17.034Z</time>
      </trkpt>
      <trkpt lat="47.13402" lon="16.2195">
        <ele>278.45715</ele>
        <time>2022-09-27T12:41:19.059Z</time>
      </trkpt>
      <trkpt lat="47.13397" lon="16.21969">
        <ele>277.720675</ele>
        <time>2022-09-27T12:41:21.030Z</time>
      </trkpt>
      <trkpt lat="47.13393" lon="16.21987">
        <ele>277.13309</ele>
        <time>2022-09-27T12:41:23.027Z</time>
      </trkpt>
      <trkpt lat="47.1339" lon="16.22003">
        <ele>276.856428</ele>
        <time>2022-09-27T12:41:25.047Z</time>
      </trkpt>
      <trkpt lat="47.13387" lon="16.22019">
        <ele>276.601105</ele>
        <time>2022-09-27T12:41:27.026Z</time>
      </trkpt>
      <trkpt lat="47.13383" lon="16.22033">
        <ele>276.352089</ele>
        <time>2022-09-27T12:41:29.027Z</time>
      </trkpt>
      <trkpt lat="47.1338" lon="16.22048">
        <ele>276.100084</ele>
        <time>2022-09-27T12:41:31.067Z</time>
      </trkpt>
      <trkpt lat="47.13377" lon="16.22063">
        <ele>275.84732</ele>
        <time>2022-09-27T12:41:33.043Z</time>
      </trkpt>
      <trkpt lat="47.13373" lon="16.22078">
        <ele>275.601358</ele>
        <time>2022-09-27T12:41:35.053Z</time>
      </trkpt>
      <trkpt lat="47.1337" lon="16.22092">
        <ele>275.366691</ele>
        <time>2022-09-27T12:41:37.030Z</time>
      </trkpt>
      <trkpt lat="47.13368" lon="16.22105">
        <ele>275.145789</ele>
        <time>2022-09-27T12:41:39.032Z</time>
      </trkpt>
      <trkpt lat="47.13365" lon="16.22122">
        <ele>274.857958</ele>
        <time>2022-09-27T12:41:42.023Z</time>
      </trkpt>
      <trkpt lat="47.13363" lon="16.22138">
        <ele>274.598286</ele>
        <time>2022-09-27T12:41:45.047Z</time>
      </trkpt>
      <trkpt lat="47.1336" lon="16.22153">
        <ele>274.349119</ele>
        <time>2022-09-27T12:41:48.027Z</time>
      </trkpt>
      <trkpt lat="47.13357" lon="16.22168">
        <ele>274.103868</ele>
        <time>2022-09-27T12:41:51.042Z</time>
      </trkpt>
      <trkpt lat="47.13354" lon="16.22184">
        <ele>273.835775</ele>
        <time>2022-09-27T12:41:54.037Z</time>
      </trkpt>
      <trkpt lat="47.13351" lon="16.22199">
        <ele>273.591618</ele>
        <time>2022-09-27T12:41:57.030Z</time>
      </trkpt>
      <trkpt lat="47.13349" lon="16.22213">
        <ele>273.356737</ele>
        <time>2022-09-27T12:42:00.041Z</time>
      </trkpt>
      <trkpt lat="47.13346" lon="16.22228">
        <ele>273.100272</ele>
        <time>2022-09-27T12:42:04.044Z</time>
      </trkpt>
      <trkpt lat="47.13344" lon="16.22244">
        <ele>273.084623</ele>
        <time>2022-09-27T12:42:09.034Z</time>
      </trkpt>
      <trkpt lat="47.13338" lon="16.22267">
        <ele>273.655355</ele>
        <time>2022-09-27T12:43:04.044Z</time>
      </trkpt>
      <trkpt lat="47.13336" lon="16.22282">
        <ele>274.010923</ele>
        <time>2022-09-27T12:43:08.023Z</time>
      </trkpt>
      <trkpt lat="47.13331" lon="16.22296">
        <ele>274.36706</ele>
        <time>2022-09-27T12:43:12.039Z</time>
      </trkpt>
      <trkpt lat="47.13324" lon="16.22308">
        <ele>274.732143</ele>
        <time>2022-09-27T12:43:15.064Z</time>
      </trkpt>
      <trkpt lat="47.13319" lon="16.2232">
        <ele>275.062141</ele>
        <time>2022-09-27T12:43:18.064Z</time>
      </trkpt>
      <trkpt lat="47.13313" lon="16.22332">
        <ele>275.420036</ele>
        <time>2022-09-27T12:43:21.040Z</time>
      </trkpt>
      <trkpt lat="47.13305" lon="16.22343">
        <ele>275.78492</ele>
        <time>2022-09-27T12:43:24.026Z</time>
      </trkpt>
      <trkpt lat="47.13297" lon="16.22356">
        <ele>276.190526</ele>
        <time>2022-09-27T12:43:28.032Z</time>
      </trkpt>
      <trkpt lat="47.1329" lon="16.22368">
        <ele>276.547557</ele>
        <time>2022-09-27T12:43:31.047Z</time>
      </trkpt>
      <trkpt lat="47.13282" lon="16.22382">
        <ele>276.977674</ele>
        <time>2022-09-27T12:43:34.025Z</time>
      </trkpt>
      <trkpt lat="47.13275" lon="16.22397">
        <ele>277.408769</ele>
        <time>2022-09-27T12:43:37.060Z</time>
      </trkpt>
      <trkpt lat="47.13268" lon="16.22414">
        <ele>277.857348</ele>
        <time>2022-09-27T12:43:40.028Z</time>
      </trkpt>
      <trkpt lat="47.13263" lon="16.2243">
        <ele>278.28148</ele>
        <time>2022-09-27T12:43:43.032Z</time>
      </trkpt>
      <trkpt lat="47.13257" lon="16.22447">
        <ele>278.706347</ele>
        <time>2022-09-27T12:43:46.030Z</time>
      </trkpt>
      <trkpt lat="47.13251" lon="16.22462">
        <ele>279.138714</ele>
        <time>2022-09-27T12:43:49.062Z</time>
      </trkpt>
      <trkpt lat="47.13246" lon="16.22478">
        <ele>279.850561</ele>
        <time>2022-09-27T12:43:52.099Z</time>
      </trkpt>
      <trkpt lat="47.13242" lon="16.22493">
        <ele>280.535301</ele>
        <time>2022-09-27T12:43:55.043Z</time>
      </trkpt>
      <trkpt lat="47.13239" lon="16.22507">
        <ele>281.15003</ele>
        <time>2022-09-27T12:43:58.028Z</time>
      </trkpt>
      <trkpt lat="47.13236" lon="16.22523">
        <ele>281.82809</ele>
        <time>2022-09-27T12:44:01.052Z</time>
      </trkpt>
      <trkpt lat="47.13233" lon="16.2254">
        <ele>282.519638</ele>
        <time>2022-09-27T12:44:04.037Z</time>
      </trkpt>
      <trkpt lat="47.1323" lon="16.22556">
        <ele>283.224682</ele>
        <time>2022-09-27T12:44:07.047Z</time>
      </trkpt>
      <trkpt lat="47.13226" lon="16.22571">
        <ele>283.859549</ele>
        <time>2022-09-27T12:44:10.095Z</time>
      </trkpt>
      <trkpt lat="47.13224" lon="16.22586">
        <ele>284.491254</ele>
        <time>2022-09-27T12:44:13.035Z</time>
      </trkpt>
      <trkpt lat="47.13223" lon="16.22599">
        <ele>285.036789</ele>
        <time>2022-09-27T12:44:16.037Z</time>
      </trkpt>
      <trkpt lat="47.13233" lon="16.22609">
        <ele>285.760636</ele>
        <time>2022-09-27T12:44:20.018Z</time>
      </trkpt>
      <trkpt lat="47.13246" lon="16.22615">
        <ele>286.557501</ele>
        <time>2022-09-27T12:44:23.024Z</time>
      </trkpt>
      <trkpt lat="47.13256" lon="16.2262">
        <ele>287.227835</ele>
        <time>2022-09-27T12:44:26.070Z</time>
      </trkpt>
      <trkpt lat="47.13267" lon="16.22624">
        <ele>287.90209</ele>
        <time>2022-09-27T12:44:30.025Z</time>
      </trkpt>
      <trkpt lat="47.13277" lon="16.22628">
        <ele>288.533263</ele>
        <time>2022-09-27T12:44:33.038Z</time>
      </trkpt>
      <trkpt lat="47.13287" lon="16.22631">
        <ele>289.156738</ele>
        <time>2022-09-27T12:44:36.019Z</time>
      </trkpt>
      <trkpt lat="47.13298" lon="16.22634">
        <ele>289.826856</ele>
        <time>2022-09-27T12:44:39.144Z</time>
      </trkpt>
      <trkpt lat="47.13311" lon="16.22638">
        <ele>289.35196</ele>
        <time>2022-09-27T12:44:42.031Z</time>
      </trkpt>
      <trkpt lat="47.13321" lon="16.22642">
        <ele>288.846646</ele>
        <time>2022-09-27T12:44:45.030Z</time>
      </trkpt>
      <trkpt lat="47.13332" lon="16.22646">
        <ele>288.337954</ele>
        <time>2022-09-27T12:44:48.028Z</time>
      </trkpt>
      <trkpt lat="47.13337" lon="16.22661">
        <ele>287.783124</ele>
        <time>2022-09-27T12:44:52.040Z</time>
      </trkpt>
      <trkpt lat="47.13336" lon="16.22676">
        <ele>287.301205</ele>
        <time>2022-09-27T12:44:55.034Z</time>
      </trkpt>
      <trkpt lat="47.13336" lon="16.22691">
        <ele>286.806687</ele>
        <time>2022-09-27T12:44:58.075Z</time>
      </trkpt>
      <trkpt lat="47.13338" lon="16.22708">
        <ele>286.260979</ele>
        <time>2022-09-27T12:45:01.020Z</time>
      </trkpt>
      <trkpt lat="47.13341" lon="16.22723">
        <ele>285.728466</ele>
        <time>2022-09-27T12:45:04.038Z</time>
      </trkpt>
      <trkpt lat="47.13349" lon="16.22736">
        <ele>285.158711</ele>
        <time>2022-09-27T12:45:07.039Z</time>
      </trkpt>
      <trkpt lat="47.13361" lon="16.22736">
        <ele>284.602849</ele>
        <time>2022-09-27T12:45:10.024Z</time>
      </trkpt>
      <trkpt lat="47.13369" lon="16.22727">
        <ele>284.109017</ele>
        <time>2022-09-27T12:45:13.025Z</time>
      </trkpt>
      <trkpt lat="47.13379" lon="16.22719">
        <ele>283.581094</ele>
        <time>2022-09-27T12:45:16.030Z</time>
      </trkpt>
      <trkpt lat="47.1339" lon="16.22715">
        <ele>283.058677</ele>
        <time>2022-09-27T12:45:19.038Z</time>
      </trkpt>
      <trkpt lat="47.134" lon="16.22709">
        <ele>282.512412</ele>
        <time>2022-09-27T12:45:22.035Z</time>
      </trkpt>
      <trkpt lat="47.13411" lon="16.22702">
        <ele>281.954913</ele>
        <time>2022-09-27T12:45:25.035Z</time>
      </trkpt>
      <trkpt lat="47.13423" lon="16.22695">
        <ele>281.36397</ele>
        <time>2022-09-27T12:45:28.028Z</time>
      </trkpt>
      <trkpt lat="47.13434" lon="16.2269">
        <ele>280.776893</ele>
        <time>2022-09-27T12:45:31.037Z</time>
      </trkpt>
      <trkpt lat="47.13444" lon="16.22683">
        <ele>280.26334</ele>
        <time>2022-09-27T12:45:34.035Z</time>
      </trkpt>
      <trkpt lat="47.13452" lon="16.22676">
        <ele>279.807321</ele>
        <time>2022-09-27T12:45:37.023Z</time>
      </trkpt>
      <trkpt lat="47.13462" lon="16.22669">
        <ele>279.299571</ele>
        <time>2022-09-27T12:45:40.101Z</time>
      </trkpt>
      <trkpt lat="47.13472" lon="16.22662">
        <ele>278.738669</ele>
        <time>2022-09-27T12:45:43.038Z</time>
      </trkpt>
      <trkpt lat="47.13484" lon="16.22655">
        <ele>278.14146</ele>
        <time>2022-09-27T12:45:46.029Z</time>
      </trkpt>
      <trkpt lat="47.13495" lon="16.22647">
        <ele>277.554738</ele>
        <time>2022-09-27T12:45:49.035Z</time>
      </trkpt>
      <trkpt lat="47.13506" lon="16.22638">
        <ele>276.963496</ele>
        <time>2022-09-27T12:45:52.018Z</time>
      </trkpt>
      <trkpt lat="47.13516" lon="16.22631">
        <ele>276.398252</ele>
        <time>2022-09-27T12:45:55.041Z</time>
      </trkpt>
      <trkpt lat="47.13527" lon="16.22623">
        <ele>275.847317</ele>
        <time>2022-09-27T12:45:58.036Z</time>
      </trkpt>
      <trkpt lat="47.13537" lon="16.22616">
        <ele>275.317688</ele>
        <time>2022-09-27T12:46:01.034Z</time>
      </trkpt>
      <trkpt lat="47.13547" lon="16.22611">
        <ele>274.768929</ele>
        <time>2022-09-27T12:46:04.026Z</time>
      </trkpt>
      <trkpt lat="47.13558" lon="16.22605">
        <ele>274.233584</ele>
        <time>2022-09-27T12:46:07.061Z</time>
      </trkpt>
      <trkpt lat="47.13567" lon="16.22599">
        <ele>273.738555</ele>
        <time>2022-09-27T12:46:10.044Z</time>
      </trkpt>
      <trkpt lat="47.13576" lon="16.22591">
        <ele>273.257546</ele>
        <time>2022-09-27T12:46:13.085Z</time>
      </trkpt>
      <trkpt lat="47.13585" lon="16.22585">
        <ele>272.782672</ele>
        <time>2022-09-27T12:46:16.046Z</time>
      </trkpt>
      <trkpt lat="47.13594" lon="16.2258">
        <ele>272.963849</ele>
        <time>2022-09-27T12:46:19.027Z</time>
      </trkpt>
      <trkpt lat="47.13604" lon="16.22573">
        <ele>273.219623</ele>
        <time>2022-09-27T12:46:22.021Z</time>
      </trkpt>
      <trkpt lat="47.13613" lon="16.22567">
        <ele>273.467362</ele>
        <time>2022-09-27T12:46:25.035Z</time>
      </trkpt>
      <trkpt lat="47.13622" lon="16.22562">
        <ele>273.701268</ele>
        <time>2022-09-27T12:46:28.024Z</time>
      </trkpt>
      <trkpt lat="47.13631" lon="16.22556">
        <ele>273.940972</ele>
        <time>2022-09-27T12:46:31.047Z</time>
      </trkpt>
      <trkpt lat="47.1364" lon="16.22549">
        <ele>274.187052</ele>
        <time>2022-09-27T12:46:34.026Z</time>
      </trkpt>
      <trkpt lat="47.13649" lon="16.22543">
        <ele>274.429558</ele>
        <time>2022-09-27T12:46:37.045Z</time>
      </trkpt>
      <trkpt lat="47.13658" lon="16.22536">
        <ele>274.678649</ele>
        <time>2022-09-27T12:46:40.044Z</time>
      </trkpt>
      <trkpt lat="47.13667" lon="16.2253">
        <ele>274.919603</ele>
        <time>2022-09-27T12:46:43.018Z</time>
      </trkpt>
      <trkpt lat="47.13676" lon="16.22525">
        <ele>275.152028</ele>
        <time>2022-09-27T12:46:46.010Z</time>
      </trkpt>
      <trkpt lat="47.13685" lon="16.22521">
        <ele>275.38236</ele>
        <time>2022-09-27T12:46:49.065Z</time>
      </trkpt>
      <trkpt lat="47.13696" lon="16.22517">
        <ele>275.667083</ele>
        <time>2022-09-27T12:46:53.058Z</time>
      </trkpt>
      <trkpt lat="47.13706" lon="16.22515">
        <ele>275.906009</ele>
        <time>2022-09-27T12:46:56.040Z</time>
      </trkpt>
      <trkpt lat="47.13716" lon="16.22512">
        <ele>276.162804</ele>
        <time>2022-09-27T12:46:59.050Z</time>
      </trkpt>
      <trkpt lat="47.13727" lon="16.22509">
        <ele>276.425509</ele>
        <time>2022-09-27T12:47:02.027Z</time>
      </trkpt>
      <trkpt lat="47.13736" lon="16.22506">
        <ele>276.659796</ele>
        <time>2022-09-27T12:47:05.034Z</time>
      </trkpt>
      <trkpt lat="47.13745" lon="16.22503">
        <ele>276.885277</ele>
        <time>2022-09-27T12:47:08.028Z</time>
      </trkpt>
      <trkpt lat="47.13755" lon="16.225">
        <ele>277.127843</ele>
        <time>2022-09-27T12:47:11.028Z</time>
      </trkpt>
      <trkpt lat="47.13765" lon="16.22497">
        <ele>277.104961</ele>
        <time>2022-09-27T12:47:14.029Z</time>
      </trkpt>
      <trkpt lat="47.13774" lon="16.22495">
        <ele>277.083817</ele>
        <time>2022-09-27T12:47:17.028Z</time>
      </trkpt>
      <trkpt lat="47.13784" lon="16.22493">
        <ele>277.061098</ele>
        <time>2022-09-27T12:47:20.031Z</time>
      </trkpt>
      <trkpt lat="47.13793" lon="16.2249">
        <ele>277.038786</ele>
        <time>2022-09-27T12:47:23.026Z</time>
      </trkpt>
      <trkpt lat="47.13803" lon="16.22488">
        <ele>277.016191</ele>
        <time>2022-09-27T12:47:26.024Z</time>
      </trkpt>
      <trkpt lat="47.13812" lon="16.22485">
        <ele>276.993051</ele>
        <time>2022-09-27T12:47:29.039Z</time>
      </trkpt>
      <trkpt lat="47.13822" lon="16.22482">
        <ele>276.9698</ele>
        <time>2022-09-27T12:47:32.023Z</time>
      </trkpt>
      <trkpt lat="47.13832" lon="16.22481">
        <ele>276.9477</ele>
        <time>2022-09-27T12:47:35.043Z</time>
      </trkpt>
      <trkpt lat="47.13841" lon="16.22479">
        <ele>276.925439</ele>
        <time>2022-09-27T12:47:38.041Z</time>
      </trkpt>
      <trkpt lat="47.13851" lon="16.22476">
        <ele>276.901905</ele>
        <time>2022-09-27T12:47:41.031Z</time>
      </trkpt>
      <trkpt lat="47.13861" lon="16.22474">
        <ele>276.880212</ele>
        <time>2022-09-27T12:47:44.035Z</time>
      </trkpt>
      <trkpt lat="47.1387" lon="16.22471">
        <ele>276.857391</ele>
        <time>2022-09-27T12:47:47.066Z</time>
      </trkpt>
      <trkpt lat="47.13879" lon="16.22467">
        <ele>276.835537</ele>
        <time>2022-09-27T12:47:50.034Z</time>
      </trkpt>
      <trkpt lat="47.13889" lon="16.22465">
        <ele>276.812336</ele>
        <time>2022-09-27T12:47:53.020Z</time>
      </trkpt>
      <trkpt lat="47.139" lon="16.22463">
        <ele>276.786699</ele>
        <time>2022-09-27T12:47:56.046Z</time>
      </trkpt>
      <trkpt lat="47.1391" lon="16.2246">
        <ele>276.763165</ele>
        <time>2022-09-27T12:47:59.025Z</time>
      </trkpt>
      <trkpt lat="47.1392" lon="16.22458">
        <ele>276.739659</ele>
        <time>2022-09-27T12:48:02.034Z</time>
      </trkpt>
      <trkpt lat="47.1393" lon="16.22455">
        <ele>276.715723</ele>
        <time>2022-09-27T12:48:05.024Z</time>
      </trkpt>
      <trkpt lat="47.13941" lon="16.22453">
        <ele>276.64916</ele>
        <time>2022-09-27T12:48:08.023Z</time>
      </trkpt>
      <trkpt lat="47.13951" lon="16.2245">
        <ele>276.572294</ele>
        <time>2022-09-27T12:48:11.088Z</time>
      </trkpt>
      <trkpt lat="47.13961" lon="16.22447">
        <ele>276.497661</ele>
        <time>2022-09-27T12:48:14.065Z</time>
      </trkpt>
      <trkpt lat="47.13971" lon="16.22445">
        <ele>276.420368</ele>
        <time>2022-09-27T12:48:17.036Z</time>
      </trkpt>
      <trkpt lat="47.13981" lon="16.22443">
        <ele>276.345654</ele>
        <time>2022-09-27T12:48:20.042Z</time>
      </trkpt>
      <trkpt lat="47.13991" lon="16.22442">
        <ele>276.27256</ele>
        <time>2022-09-27T12:48:23.025Z</time>
      </trkpt>
      <trkpt lat="47.14001" lon="16.22441">
        <ele>276.200509</ele>
        <time>2022-09-27T12:48:26.036Z</time>
      </trkpt>
      <trkpt lat="47.14011" lon="16.22439">
        <ele>276.124592</ele>
        <time>2022-09-27T12:48:30.025Z</time>
      </trkpt>
      <trkpt lat="47.14021" lon="16.22436">
        <ele>276.052663</ele>
        <time>2022-09-27T12:48:33.021Z</time>
      </trkpt>
      <trkpt lat="47.1403" lon="16.22434">
        <ele>275.985976</ele>
        <time>2022-09-27T12:48:36.038Z</time>
      </trkpt>
      <trkpt lat="47.14039" lon="16.22432">
        <ele>275.915047</ele>
        <time>2022-09-27T12:48:39.045Z</time>
      </trkpt>
      <trkpt lat="47.14049" lon="16.2243">
        <ele>275.841794</ele>
        <time>2022-09-27T12:48:42.022Z</time>
      </trkpt>
      <trkpt lat="47.14059" lon="16.22429">
        <ele>275.770894</ele>
        <time>2022-09-27T12:48:45.048Z</time>
      </trkpt>
      <trkpt lat="47.14071" lon="16.22427">
        <ele>275.682685</ele>
        <time>2022-09-27T12:48:49.028Z</time>
      </trkpt>
      <trkpt lat="47.14082" lon="16.22424">
        <ele>275.59533</ele>
        <time>2022-09-27T12:48:53.015Z</time>
      </trkpt>
      <trkpt lat="47.14091" lon="16.22423">
        <ele>275.529599</ele>
        <time>2022-09-27T12:48:56.046Z</time>
      </trkpt>
      <trkpt lat="47.14103" lon="16.22422">
        <ele>275.443366</ele>
        <time>2022-09-27T12:49:00.043Z</time>
      </trkpt>
      <trkpt lat="47.14115" lon="16.22421">
        <ele>275.37532</ele>
        <time>2022-09-27T12:49:04.053Z</time>
      </trkpt>
      <trkpt lat="47.14124" lon="16.22419">
        <ele>275.344167</ele>
        <time>2022-09-27T12:49:07.026Z</time>
      </trkpt>
      <trkpt lat="47.14134" lon="16.22417">
        <ele>275.309079</ele>
        <time>2022-09-27T12:49:10.035Z</time>
      </trkpt>
      <trkpt lat="47.14145" lon="16.22414">
        <ele>275.269435</ele>
        <time>2022-09-27T12:49:13.064Z</time>
      </trkpt>
      <trkpt lat="47.14156" lon="16.22412">
        <ele>275.232953</ele>
        <time>2022-09-27T12:49:16.025Z</time>
      </trkpt>
      <trkpt lat="47.14167" lon="16.2241">
        <ele>275.193841</ele>
        <time>2022-09-27T12:49:19.021Z</time>
      </trkpt>
      <trkpt lat="47.14179" lon="16.22408">
        <ele>275.150701</ele>
        <time>2022-09-27T12:49:22.053Z</time>
      </trkpt>
      <trkpt lat="47.14192" lon="16.22407">
        <ele>275.108711</ele>
        <time>2022-09-27T12:49:25.053Z</time>
      </trkpt>
      <trkpt lat="47.14203" lon="16.22407">
        <ele>275.069166</ele>
        <time>2022-09-27T12:49:28.042Z</time>
      </trkpt>
      <trkpt lat="47.14214" lon="16.22406">
        <ele>275.029965</ele>
        <time>2022-09-27T12:49:31.071Z</time>
      </trkpt>
      <trkpt lat="47.14226" lon="16.22406">
        <ele>274.988725</ele>
        <time>2022-09-27T12:49:34.035Z</time>
      </trkpt>
      <trkpt lat="47.14239" lon="16.22407">
        <ele>274.94611</ele>
        <time>2022-09-27T12:49:37.039Z</time>
      </trkpt>
      <trkpt lat="47.14251" lon="16.22406">
        <ele>274.905173</ele>
        <time>2022-09-27T12:49:40.156Z</time>
      </trkpt>
      <trkpt lat="47.14263" lon="16.22406">
        <ele>274.864278</ele>
        <time>2022-09-27T12:49:43.050Z</time>
      </trkpt>
      <trkpt lat="47.14274" lon="16.22405">
        <ele>274.824741</ele>
        <time>2022-09-27T12:49:46.031Z</time>
      </trkpt>
      <trkpt lat="47.14285" lon="16.22405">
        <ele>274.786235</ele>
        <time>2022-09-27T12:49:49.030Z</time>
      </trkpt>
      <trkpt lat="47.14296" lon="16.22405">
        <ele>274.792288</ele>
        <time>2022-09-27T12:49:52.025Z</time>
      </trkpt>
      <trkpt lat="47.14307" lon="16.22404">
        <ele>274.823651</ele>
        <time>2022-09-27T12:49:55.050Z</time>
      </trkpt>
      <trkpt lat="47.14318" lon="16.22402">
        <ele>274.856359</ele>
        <time>2022-09-27T12:49:58.039Z</time>
      </trkpt>
      <trkpt lat="47.14329" lon="16.22398">
        <ele>274.889009</ele>
        <time>2022-09-27T12:50:01.020Z</time>
      </trkpt>
      <trkpt lat="47.14339" lon="16.22393">
        <ele>274.919965</ele>
        <time>2022-09-27T12:50:04.023Z</time>
      </trkpt>
      <trkpt lat="47.14347" lon="16.22389">
        <ele>274.947584</ele>
        <time>2022-09-27T12:50:07.075Z</time>
      </trkpt>
      <trkpt lat="47.14357" lon="16.2238">
        <ele>274.981504</ele>
        <time>2022-09-27T12:50:11.019Z</time>
      </trkpt>
      <trkpt lat="47.14365" lon="16.22372">
        <ele>275.008847</ele>
        <time>2022-09-27T12:50:14.032Z</time>
      </trkpt>
      <trkpt lat="47.14374" lon="16.22365">
        <ele>275.040253</ele>
        <time>2022-09-27T12:50:18.034Z</time>
      </trkpt>
      <trkpt lat="47.14381" lon="16.22354">
        <ele>275.06896</ele>
        <time>2022-09-27T12:50:21.035Z</time>
      </trkpt>
      <trkpt lat="47.14386" lon="16.22343">
        <ele>275.095759</ele>
        <time>2022-09-27T12:50:24.121Z</time>
      </trkpt>
      <trkpt lat="47.14392" lon="16.22333">
        <ele>275.122628</ele>
        <time>2022-09-27T12:50:27.033Z</time>
      </trkpt>
      <trkpt lat="47.14397" lon="16.22322">
        <ele>275.149575</ele>
        <time>2022-09-27T12:50:30.036Z</time>
      </trkpt>
      <trkpt lat="47.14403" lon="16.22311">
        <ele>275.178548</ele>
        <time>2022-09-27T12:50:33.031Z</time>
      </trkpt>
      <trkpt lat="47.14411" lon="16.22303">
        <ele>275.206315</ele>
        <time>2022-09-27T12:50:36.033Z</time>
      </trkpt>
      <trkpt lat="47.14421" lon="16.22293">
        <ele>275.241881</ele>
        <time>2022-09-27T12:50:40.040Z</time>
      </trkpt>
      <trkpt lat="47.14429" lon="16.22281">
        <ele>275.275122</ele>
        <time>2022-09-27T12:50:44.073Z</time>
      </trkpt>
      <trkpt lat="47.14436" lon="16.22273">
        <ele>275.302882</ele>
        <time>2022-09-27T12:50:47.025Z</time>
      </trkpt>
      <trkpt lat="47.14446" lon="16.22263">
        <ele>275.687064</ele>
        <time>2022-09-27T12:50:50.036Z</time>
      </trkpt>
      <trkpt lat="47.14456" lon="16.22252">
        <ele>276.092245</ele>
        <time>2022-09-27T12:50:53.061Z</time>
      </trkpt>
      <trkpt lat="47.14463" lon="16.22245">
        <ele>276.392879</ele>
        <time>2022-09-27T12:50:56.035Z</time>
      </trkpt>
      <trkpt lat="47.14472" lon="16.22239">
        <ele>276.712949</ele>
        <time>2022-09-27T12:51:00.043Z</time>
      </trkpt>
      <trkpt lat="47.14481" lon="16.22231">
        <ele>277.04305</ele>
        <time>2022-09-27T12:51:05.039Z</time>
      </trkpt>
      <trkpt lat="47.14489" lon="16.22224">
        <ele>277.365776</ele>
        <time>2022-09-27T12:51:10.045Z</time>
      </trkpt>
      <trkpt lat="47.14497" lon="16.22217">
        <ele>277.665401</ele>
        <time>2022-09-27T12:51:14.032Z</time>
      </trkpt>
      <trkpt lat="47.14505" lon="16.22211">
        <ele>277.965828</ele>
        <time>2022-09-27T12:51:18.047Z</time>
      </trkpt>
      <trkpt lat="47.14515" lon="16.22209">
        <ele>278.273221</ele>
        <time>2022-09-27T12:51:21.039Z</time>
      </trkpt>
      <trkpt lat="47.14523" lon="16.22202">
        <ele>278.58294</ele>
        <time>2022-09-27T12:51:25.074Z</time>
      </trkpt>
      <trkpt lat="47.14531" lon="16.22194">
        <ele>278.911728</ele>
        <time>2022-09-27T12:51:30.025Z</time>
      </trkpt>
      <trkpt lat="47.1454" lon="16.22188">
        <ele>279.226306</ele>
        <time>2022-09-27T12:51:34.087Z</time>
      </trkpt>
      <trkpt lat="47.1455" lon="16.22182">
        <ele>279.574693</ele>
        <time>2022-09-27T12:51:39.048Z</time>
      </trkpt>
      <trkpt lat="47.14559" lon="16.22178">
        <ele>279.897259</ele>
        <time>2022-09-27T12:51:43.026Z</time>
      </trkpt>
      <trkpt lat="47.14569" lon="16.2217">
        <ele>280.262513</ele>
        <time>2022-09-27T12:51:48.045Z</time>
      </trkpt>
      <trkpt lat="47.14578" lon="16.22162">
        <ele>280.621574</ele>
        <time>2022-09-27T12:51:53.051Z</time>
      </trkpt>
      <trkpt lat="47.14587" lon="16.22155">
        <ele>280.958651</ele>
        <time>2022-09-27T12:51:57.040Z</time>
      </trkpt>
      <trkpt lat="47.14596" lon="16.22146">
        <ele>281.267031</ele>
        <time>2022-09-27T12:52:02.103Z</time>
      </trkpt>
      <trkpt lat="47.14607" lon="16.22139">
        <ele>281.444204</ele>
        <time>2022-09-27T12:52:06.032Z</time>
      </trkpt>
      <trkpt lat="47.14617" lon="16.22134">
        <ele>281.597631</ele>
        <time>2022-09-27T12:52:09.052Z</time>
      </trkpt>
      <trkpt lat="47.14627" lon="16.22127">
        <ele>281.768322</ele>
        <time>2022-09-27T12:52:12.037Z</time>
      </trkpt>
      <trkpt lat="47.14638" lon="16.22121">
        <ele>281.948523</ele>
        <time>2022-09-27T12:52:15.065Z</time>
      </trkpt>
      <trkpt lat="47.14651" lon="16.22115">
        <ele>282.140176</ele>
        <time>2022-09-27T12:52:18.027Z</time>
      </trkpt>
      <trkpt lat="47.1466" lon="16.22112">
        <ele>282.28736</ele>
        <time>2022-09-27T12:52:20.065Z</time>
      </trkpt>
      <trkpt lat="47.14669" lon="16.22108">
        <ele>282.422941</ele>
        <time>2022-09-27T12:52:22.033Z</time>
      </trkpt>
      <trkpt lat="47.14682" lon="16.22102">
        <ele>282.624729</ele>
        <time>2022-09-27T12:52:25.031Z</time>
      </trkpt>
      <trkpt lat="47.14695" lon="16.22097">
        <ele>282.827041</ele>
        <time>2022-09-27T12:52:28.037Z</time>
      </trkpt>
      <trkpt lat="47.14707" lon="16.22091">
        <ele>283.021386</ele>
        <time>2022-09-27T12:52:31.045Z</time>
      </trkpt>
      <trkpt lat="47.14718" lon="16.22085">
        <ele>283.202741</ele>
        <time>2022-09-27T12:52:34.025Z</time>
      </trkpt>
      <trkpt lat="47.1473" lon="16.22082">
        <ele>283.383896</ele>
        <time>2022-09-27T12:52:37.035Z</time>
      </trkpt>
      <trkpt lat="47.14742" lon="16.22078">
        <ele>283.568422</ele>
        <time>2022-09-27T12:52:40.028Z</time>
      </trkpt>
      <trkpt lat="47.14754" lon="16.22075">
        <ele>283.745312</ele>
        <time>2022-09-27T12:52:43.040Z</time>
      </trkpt>
      <trkpt lat="47.14765" lon="16.22074">
        <ele>283.918207</ele>
        <time>2022-09-27T12:52:46.077Z</time>
      </trkpt>
      <trkpt lat="47.14776" lon="16.22072">
        <ele>283.96257</ele>
        <time>2022-09-27T12:52:49.032Z</time>
      </trkpt>
      <trkpt lat="47.14787" lon="16.2207">
        <ele>284.004582</ele>
        <time>2022-09-27T12:52:52.040Z</time>
      </trkpt>
      <trkpt lat="47.14799" lon="16.22068">
        <ele>284.052722</ele>
        <time>2022-09-27T12:52:55.065Z</time>
      </trkpt>
      <trkpt lat="47.1481" lon="16.22065">
        <ele>284.097984</ele>
        <time>2022-09-27T12:52:58.046Z</time>
      </trkpt>
      <trkpt lat="47.14821" lon="16.22063">
        <ele>284.140272</ele>
        <time>2022-09-27T12:53:01.036Z</time>
      </trkpt>
      <trkpt lat="47.14833" lon="16.22062">
        <ele>284.186267</ele>
        <time>2022-09-27T12:53:04.048Z</time>
      </trkpt>
      <trkpt lat="47.14846" lon="16.22061">
        <ele>284.238894</ele>
        <time>2022-09-27T12:53:07.019Z</time>
      </trkpt>
      <trkpt lat="47.14858" lon="16.22059">
        <ele>284.288213</ele>
        <time>2022-09-27T12:53:10.032Z</time>
      </trkpt>
      <trkpt lat="47.1487" lon="16.22057">
        <ele>284.33467</ele>
        <time>2022-09-27T12:53:13.038Z</time>
      </trkpt>
      <trkpt lat="47.14881" lon="16.22055">
        <ele>284.377982</ele>
        <time>2022-09-27T12:53:16.032Z</time>
      </trkpt>
      <trkpt lat="47.14892" lon="16.22053">
        <ele>284.423652</ele>
        <time>2022-09-27T12:53:19.058Z</time>
      </trkpt>
      <trkpt lat="47.14904" lon="16.22051">
        <ele>284.468983</ele>
        <time>2022-09-27T12:53:22.044Z</time>
      </trkpt>
      <trkpt lat="47.14915" lon="16.22049">
        <ele>284.514766</ele>
        <time>2022-09-27T12:53:25.026Z</time>
      </trkpt>
      <trkpt lat="47.14927" lon="16.22048">
        <ele>284.563127</ele>
        <time>2022-09-27T12:53:28.035Z</time>
      </trkpt>
      <trkpt lat="47.14939" lon="16.22046">
        <ele>284.61121</ele>
        <time>2022-09-27T12:53:31.043Z</time>
      </trkpt>
      <trkpt lat="47.14951" lon="16.22043">
        <ele>284.763253</ele>
        <time>2022-09-27T12:53:34.042Z</time>
      </trkpt>
      <trkpt lat="47.14963" lon="16.22041">
        <ele>284.978667</ele>
        <time>2022-09-27T12:53:37.033Z</time>
      </trkpt>
      <trkpt lat="47.14975" lon="16.2204">
        <ele>285.211633</ele>
        <time>2022-09-27T12:53:40.032Z</time>
      </trkpt>
      <trkpt lat="47.14986" lon="16.22038">
        <ele>285.414651</ele>
        <time>2022-09-27T12:53:43.038Z</time>
      </trkpt>
      <trkpt lat="47.14997" lon="16.22037">
        <ele>285.613273</ele>
        <time>2022-09-27T12:53:46.047Z</time>
      </trkpt>
      <trkpt lat="47.15008" lon="16.22035">
        <ele>285.815836</ele>
        <time>2022-09-27T12:53:49.047Z</time>
      </trkpt>
      <trkpt lat="47.1502" lon="16.22034">
        <ele>286.034365</ele>
        <time>2022-09-27T12:53:52.077Z</time>
      </trkpt>
      <trkpt lat="47.15031" lon="16.22031">
        <ele>286.237906</ele>
        <time>2022-09-27T12:53:55.037Z</time>
      </trkpt>
      <trkpt lat="47.15043" lon="16.2203">
        <ele>286.462055</ele>
        <time>2022-09-27T12:53:58.076Z</time>
      </trkpt>
      <trkpt lat="47.15054" lon="16.22029">
        <ele>286.673218</ele>
        <time>2022-09-27T12:54:01.044Z</time>
      </trkpt>
      <trkpt lat="47.15066" lon="16.22026">
        <ele>286.893759</ele>
        <time>2022-09-27T12:54:04.066Z</time>
      </trkpt>
      <trkpt lat="47.15077" lon="16.22023">
        <ele>287.110094</ele>
        <time>2022-09-27T12:54:07.032Z</time>
      </trkpt>
      <trkpt lat="47.15089" lon="16.22022">
        <ele>287.321358</ele>
        <time>2022-09-27T12:54:10.031Z</time>
      </trkpt>
      <trkpt lat="47.15099" lon="16.2202">
        <ele>287.516888</ele>
        <time>2022-09-27T12:54:13.043Z</time>
      </trkpt>
      <trkpt lat="47.15109" lon="16.22017">
        <ele>287.702835</ele>
        <time>2022-09-27T12:54:16.012Z</time>
      </trkpt>
      <trkpt lat="47.15119" lon="16.22016">
        <ele>287.887938</ele>
        <time>2022-09-27T12:54:19.018Z</time>
      </trkpt>
      <trkpt lat="47.15129" lon="16.22016">
        <ele>288.087583</ele>
        <time>2022-09-27T12:54:22.044Z</time>
      </trkpt>
      <trkpt lat="47.15138" lon="16.22016">
        <ele>288.306066</ele>
        <time>2022-09-27T12:54:25.025Z</time>
      </trkpt>
      <trkpt lat="47.15147" lon="16.22012">
        <ele>288.522901</ele>
        <time>2022-09-27T12:54:28.026Z</time>
      </trkpt>
      <trkpt lat="47.15156" lon="16.22009">
        <ele>288.736759</ele>
        <time>2022-09-27T12:54:31.047Z</time>
      </trkpt>
      <trkpt lat="47.15165" lon="16.22006">
        <ele>288.94998</ele>
        <time>2022-09-27T12:54:34.035Z</time>
      </trkpt>
      <trkpt lat="47.15175" lon="16.22005">
        <ele>289.182546</ele>
        <time>2022-09-27T12:54:37.064Z</time>
      </trkpt>
      <trkpt lat="47.15186" lon="16.22005">
        <ele>289.435693</ele>
        <time>2022-09-27T12:54:40.039Z</time>
      </trkpt>
      <trkpt lat="47.15195" lon="16.22002">
        <ele>289.659448</ele>
        <time>2022-09-27T12:54:43.027Z</time>
      </trkpt>
      <trkpt lat="47.15206" lon="16.22">
        <ele>289.898318</ele>
        <time>2022-09-27T12:54:46.042Z</time>
      </trkpt>
      <trkpt lat="47.15216" lon="16.22">
        <ele>290.149423</ele>
        <time>2022-09-27T12:54:49.023Z</time>
      </trkpt>
      <trkpt lat="47.15226" lon="16.21996">
        <ele>290.373397</ele>
        <time>2022-09-27T12:54:52.036Z</time>
      </trkpt>
      <trkpt lat="47.15236" lon="16.21993">
        <ele>290.614861</ele>
        <time>2022-09-27T12:54:55.048Z</time>
      </trkpt>
      <trkpt lat="47.15246" lon="16.21991">
        <ele>290.858134</ele>
        <time>2022-09-27T12:54:58.034Z</time>
      </trkpt>
      <trkpt lat="47.15256" lon="16.21987">
        <ele>291.095709</ele>
        <time>2022-09-27T12:55:01.038Z</time>
      </trkpt>
      <trkpt lat="47.15265" lon="16.21983">
        <ele>291.316642</ele>
        <time>2022-09-27T12:55:04.024Z</time>
      </trkpt>
      <trkpt lat="47.15274" lon="16.21978">
        <ele>291.535356</ele>
        <time>2022-09-27T12:55:07.032Z</time>
      </trkpt>
      <trkpt lat="47.15283" lon="16.21975">
        <ele>291.750931</ele>
        <time>2022-09-27T12:55:10.031Z</time>
      </trkpt>
      <trkpt lat="47.15292" lon="16.2197">
        <ele>291.973297</ele>
        <time>2022-09-27T12:55:13.041Z</time>
      </trkpt>
      <trkpt lat="47.15302" lon="16.21964">
        <ele>292.161363</ele>
        <time>2022-09-27T12:55:17.043Z</time>
      </trkpt>
      <trkpt lat="47.15313" lon="16.21959">
        <ele>292.255932</ele>
        <time>2022-09-27T12:55:21.048Z</time>
      </trkpt>
      <trkpt lat="47.15323" lon="16.21956">
        <ele>292.329752</ele>
        <time>2022-09-27T12:55:24.015Z</time>
      </trkpt>
      <trkpt lat="47.15334" lon="16.21951">
        <ele>292.424805</ele>
        <time>2022-09-27T12:55:28.036Z</time>
      </trkpt>
      <trkpt lat="47.15345" lon="16.21945">
        <ele>292.51981</ele>
        <time>2022-09-27T12:55:32.041Z</time>
      </trkpt>
      <trkpt lat="47.15354" lon="16.21939">
        <ele>292.600489</ele>
        <time>2022-09-27T12:55:35.025Z</time>
      </trkpt>
      <trkpt lat="47.15363" lon="16.21934">
        <ele>292.677041</ele>
        <time>2022-09-27T12:55:38.039Z</time>
      </trkpt>
      <trkpt lat="47.15372" lon="16.21928">
        <ele>292.758469</ele>
        <time>2022-09-27T12:55:41.049Z</time>
      </trkpt>
      <trkpt lat="47.15384" lon="16.21925">
        <ele>292.851378</ele>
        <time>2022-09-27T12:55:44.046Z</time>
      </trkpt>
      <trkpt lat="47.15395" lon="16.21922">
        <ele>292.944793</ele>
        <time>2022-09-27T12:55:47.038Z</time>
      </trkpt>
      <trkpt lat="47.15407" lon="16.2192">
        <ele>293.038525</ele>
        <time>2022-09-27T12:55:50.042Z</time>
      </trkpt>
      <trkpt lat="47.15419" lon="16.21917">
        <ele>293.132822</ele>
        <time>2022-09-27T12:55:53.061Z</time>
      </trkpt>
      <trkpt lat="47.15429" lon="16.21915">
        <ele>293.220126</ele>
        <time>2022-09-27T12:55:56.047Z</time>
      </trkpt>
      <trkpt lat="47.15439" lon="16.21913">
        <ele>293.298866</ele>
        <time>2022-09-27T12:55:59.029Z</time>
      </trkpt>
      <trkpt lat="47.15449" lon="16.21911">
        <ele>293.376423</ele>
        <time>2022-09-27T12:56:02.051Z</time>
      </trkpt>
      <trkpt lat="47.15461" lon="16.21911">
        <ele>293.474997</ele>
        <time>2022-09-27T12:56:06.034Z</time>
      </trkpt>
      <trkpt lat="47.15473" lon="16.21908">
        <ele>293.58233</ele>
        <time>2022-09-27T12:56:09.050Z</time>
      </trkpt>
      <trkpt lat="47.15485" lon="16.21902">
        <ele>294.278244</ele>
        <time>2022-09-27T12:56:12.030Z</time>
      </trkpt>
      <trkpt lat="47.15497" lon="16.21897">
        <ele>294.906387</ele>
        <time>2022-09-27T12:56:15.040Z</time>
      </trkpt>
      <trkpt lat="47.15509" lon="16.21894">
        <ele>295.570039</ele>
        <time>2022-09-27T12:56:18.031Z</time>
      </trkpt>
      <trkpt lat="47.15522" lon="16.2189">
        <ele>296.271675</ele>
        <time>2022-09-27T12:56:21.035Z</time>
      </trkpt>
      <trkpt lat="47.15534" lon="16.21886">
        <ele>296.901428</ele>
        <time>2022-09-27T12:56:24.028Z</time>
      </trkpt>
      <trkpt lat="47.15545" lon="16.21879">
        <ele>297.560737</ele>
        <time>2022-09-27T12:56:27.049Z</time>
      </trkpt>
      <trkpt lat="47.15557" lon="16.21874">
        <ele>298.21217</ele>
        <time>2022-09-27T12:56:30.037Z</time>
      </trkpt>
      <trkpt lat="47.15569" lon="16.21871">
        <ele>298.855064</ele>
        <time>2022-09-27T12:56:33.042Z</time>
      </trkpt>
      <trkpt lat="47.15578" lon="16.2187">
        <ele>299.332144</ele>
        <time>2022-09-27T12:56:35.034Z</time>
      </trkpt>
      <trkpt lat="47.15588" lon="16.21866">
        <ele>299.856186</ele>
        <time>2022-09-27T12:56:37.023Z</time>
      </trkpt>
      <trkpt lat="47.15598" lon="16.21862">
        <ele>300.381203</ele>
        <time>2022-09-27T12:56:39.031Z</time>
      </trkpt>
      <trkpt lat="47.15607" lon="16.21859">
        <ele>300.888258</ele>
        <time>2022-09-27T12:56:41.044Z</time>
      </trkpt>
      <trkpt lat="47.15617" lon="16.21856">
        <ele>301.431429</ele>
        <time>2022-09-27T12:56:43.040Z</time>
      </trkpt>
      <trkpt lat="47.15628" lon="16.21853">
        <ele>302.002316</ele>
        <time>2022-09-27T12:56:45.035Z</time>
      </trkpt>
      <trkpt lat="47.15638" lon="16.21849">
        <ele>302.566365</ele>
        <time>2022-09-27T12:56:47.019Z</time>
      </trkpt>
      <trkpt lat="47.15648" lon="16.21846">
        <ele>303.003052</ele>
        <time>2022-09-27T12:56:49.052Z</time>
      </trkpt>
      <trkpt lat="47.15659" lon="16.21842">
        <ele>302.615284</ele>
        <time>2022-09-27T12:56:51.058Z</time>
      </trkpt>
      <trkpt lat="47.15671" lon="16.21838">
        <ele>302.207958</ele>
        <time>2022-09-27T12:56:53.039Z</time>
      </trkpt>
      <trkpt lat="47.15683" lon="16.21833">
        <ele>301.776393</ele>
        <time>2022-09-27T12:56:55.027Z</time>
      </trkpt>
      <trkpt lat="47.15695" lon="16.21829">
        <ele>301.363502</ele>
        <time>2022-09-27T12:56:57.086Z</time>
      </trkpt>
      <trkpt lat="47.15707" lon="16.21825">
        <ele>300.962761</ele>
        <time>2022-09-27T12:56:59.038Z</time>
      </trkpt>
      <trkpt lat="47.15718" lon="16.21821">
        <ele>300.575728</ele>
        <time>2022-09-27T12:57:01.049Z</time>
      </trkpt>
      <trkpt lat="47.15728" lon="16.21818">
        <ele>300.211115</ele>
        <time>2022-09-27T12:57:03.040Z</time>
      </trkpt>
      <trkpt lat="47.15738" lon="16.21814">
        <ele>299.894246</ele>
        <time>2022-09-27T12:57:05.055Z</time>
      </trkpt>
      <trkpt lat="47.1575" lon="16.21812">
        <ele>299.463355</ele>
        <time>2022-09-27T12:57:08.088Z</time>
      </trkpt>
      <trkpt lat="47.15759" lon="16.21809">
        <ele>299.153591</ele>
        <time>2022-09-27T12:57:10.073Z</time>
      </trkpt>
      <trkpt lat="47.15769" lon="16.21805">
        <ele>298.796852</ele>
        <time>2022-09-27T12:57:12.053Z</time>
      </trkpt>
      <trkpt lat="47.15779" lon="16.218">
        <ele>298.435205</ele>
        <time>2022-09-27T12:57:14.039Z</time>
      </trkpt>
      <trkpt lat="47.15789" lon="16.21794">
        <ele>298.065437</ele>
        <time>2022-09-27T12:57:16.042Z</time>
      </trkpt>
      <trkpt lat="47.15799" lon="16.21788">
        <ele>297.702809</ele>
        <time>2022-09-27T12:57:18.027Z</time>
      </trkpt>
      <trkpt lat="47.15809" lon="16.21781">
        <ele>297.327575</ele>
        <time>2022-09-27T12:57:20.048Z</time>
      </trkpt>
      <trkpt lat="47.15819" lon="16.21774">
        <ele>296.960636</ele>
        <time>2022-09-27T12:57:22.035Z</time>
      </trkpt>
      <trkpt lat="47.15828" lon="16.21768">
        <ele>296.535896</ele>
        <time>2022-09-27T12:57:24.037Z</time>
      </trkpt>
      <trkpt lat="47.15835" lon="16.21761">
        <ele>296.130884</ele>
        <time>2022-09-27T12:57:26.026Z</time>
      </trkpt>
      <trkpt lat="47.15847" lon="16.21751">
        <ele>295.537992</ele>
        <time>2022-09-27T12:57:29.025Z</time>
      </trkpt>
      <trkpt lat="47.15855" lon="16.21744">
        <ele>295.113628</ele>
        <time>2022-09-27T12:57:31.042Z</time>
      </trkpt>
      <trkpt lat="47.15865" lon="16.21733">
        <ele>294.553438</ele>
        <time>2022-09-27T12:57:34.024Z</time>
      </trkpt>
      <trkpt lat="47.15875" lon="16.21724">
        <ele>294.031592</ele>
        <time>2022-09-27T12:57:37.036Z</time>
      </trkpt>
      <trkpt lat="47.15885" lon="16.21716">
        <ele>293.52605</ele>
        <time>2022-09-27T12:57:40.045Z</time>
      </trkpt>
      <trkpt lat="47.15895" lon="16.2171">
        <ele>293.012285</ele>
        <time>2022-09-27T12:57:43.023Z</time>
      </trkpt>
      <trkpt lat="47.15905" lon="16.21704">
        <ele>292.536328</ele>
        <time>2022-09-27T12:57:46.048Z</time>
      </trkpt>
      <trkpt lat="47.15914" lon="16.21698">
        <ele>292.091299</ele>
        <time>2022-09-27T12:57:49.038Z</time>
      </trkpt>
      <trkpt lat="47.15924" lon="16.21694">
        <ele>291.621509</ele>
        <time>2022-09-27T12:57:52.076Z</time>
      </trkpt>
      <trkpt lat="47.15934" lon="16.2169">
        <ele>291.168608</ele>
        <time>2022-09-27T12:57:55.042Z</time>
      </trkpt>
      <trkpt lat="47.15944" lon="16.21687">
        <ele>290.742977</ele>
        <time>2022-09-27T12:57:58.067Z</time>
      </trkpt>
      <trkpt lat="47.15955" lon="16.21685">
        <ele>290.216863</ele>
        <time>2022-09-27T12:58:02.041Z</time>
      </trkpt>
      <trkpt lat="47.15964" lon="16.21681">
        <ele>289.786444</ele>
        <time>2022-09-27T12:58:05.039Z</time>
      </trkpt>
      <trkpt lat="47.15975" lon="16.21678">
        <ele>289.307427</ele>
        <time>2022-09-27T12:58:08.037Z</time>
      </trkpt>
      <trkpt lat="47.15987" lon="16.21676">
        <ele>288.903942</ele>
        <time>2022-09-27T12:58:11.051Z</time>
      </trkpt>
      <trkpt lat="47.15998" lon="16.21672">
        <ele>288.946227</ele>
        <time>2022-09-27T12:58:14.036Z</time>
      </trkpt>
      <trkpt lat="47.16008" lon="16.21667">
        <ele>288.988273</ele>
        <time>2022-09-27T12:58:17.049Z</time>
      </trkpt>
      <trkpt lat="47.16018" lon="16.21662">
        <ele>289.029856</ele>
        <time>2022-09-27T12:58:20.049Z</time>
      </trkpt>
      <trkpt lat="47.16029" lon="16.21655">
        <ele>289.07243</ele>
        <time>2022-09-27T12:58:23.042Z</time>
      </trkpt>
      <trkpt lat="47.16039" lon="16.2165">
        <ele>289.114722</ele>
        <time>2022-09-27T12:58:26.036Z</time>
      </trkpt>
      <trkpt lat="47.16049" lon="16.21645">
        <ele>289.152558</ele>
        <time>2022-09-27T12:58:29.050Z</time>
      </trkpt>
      <trkpt lat="47.16058" lon="16.21639">
        <ele>289.191285</ele>
        <time>2022-09-27T12:58:32.062Z</time>
      </trkpt>
      <trkpt lat="47.16067" lon="16.21636">
        <ele>289.227117</ele>
        <time>2022-09-27T12:58:35.050Z</time>
      </trkpt>
      <trkpt lat="47.16079" lon="16.21632">
        <ele>289.27294</ele>
        <time>2022-09-27T12:58:39.039Z</time>
      </trkpt>
      <trkpt lat="47.1609" lon="16.21629">
        <ele>289.316888</ele>
        <time>2022-09-27T12:58:43.061Z</time>
      </trkpt>
      <trkpt lat="47.16102" lon="16.21627">
        <ele>289.360677</ele>
        <time>2022-09-27T12:58:47.049Z</time>
      </trkpt>
      <trkpt lat="47.16111" lon="16.21627">
        <ele>289.397203</ele>
        <time>2022-09-27T12:58:50.066Z</time>
      </trkpt>
      <trkpt lat="47.1612" lon="16.21627">
        <ele>289.431487</ele>
        <time>2022-09-27T12:58:53.064Z</time>
      </trkpt>
      <trkpt lat="47.1613" lon="16.21628">
        <ele>289.468443</ele>
        <time>2022-09-27T12:58:56.035Z</time>
      </trkpt>
      <trkpt lat="47.16142" lon="16.21628">
        <ele>289.512938</ele>
        <time>2022-09-27T12:59:00.066Z</time>
      </trkpt>
      <trkpt lat="47.16152" lon="16.21629">
        <ele>289.550689</ele>
        <time>2022-09-27T12:59:03.072Z</time>
      </trkpt>
      <trkpt lat="47.16162" lon="16.21631">
        <ele>289.484578</ele>
        <time>2022-09-27T12:59:06.083Z</time>
      </trkpt>
      <trkpt lat="47.16172" lon="16.21632">
        <ele>289.20375</ele>
        <time>2022-09-27T12:59:09.045Z</time>
      </trkpt>
      <trkpt lat="47.16185" lon="16.21636">
        <ele>288.849462</ele>
        <time>2022-09-27T12:59:12.086Z</time>
      </trkpt>
      <trkpt lat="47.16197" lon="16.21642">
        <ele>288.505047</ele>
        <time>2022-09-27T12:59:15.014Z</time>
      </trkpt>
      <trkpt lat="47.16209" lon="16.21648">
        <ele>288.169574</ele>
        <time>2022-09-27T12:59:18.023Z</time>
      </trkpt>
      <trkpt lat="47.16218" lon="16.2165">
        <ele>287.917508</ele>
        <time>2022-09-27T12:59:20.040Z</time>
      </trkpt>
      <trkpt lat="47.16231" lon="16.21655">
        <ele>287.564258</ele>
        <time>2022-09-27T12:59:23.057Z</time>
      </trkpt>
      <trkpt lat="47.16244" lon="16.21661">
        <ele>287.199578</ele>
        <time>2022-09-27T12:59:26.050Z</time>
      </trkpt>
      <trkpt lat="47.16252" lon="16.21666">
        <ele>286.946723</ele>
        <time>2022-09-27T12:59:28.110Z</time>
      </trkpt>
      <trkpt lat="47.16261" lon="16.21671">
        <ele>286.683907</ele>
        <time>2022-09-27T12:59:30.045Z</time>
      </trkpt>
      <trkpt lat="47.16271" lon="16.21677">
        <ele>286.407919</ele>
        <time>2022-09-27T12:59:32.051Z</time>
      </trkpt>
      <trkpt lat="47.16281" lon="16.21683">
        <ele>286.12052</ele>
        <time>2022-09-27T12:59:34.037Z</time>
      </trkpt>
      <trkpt lat="47.1629" lon="16.21689">
        <ele>285.844824</ele>
        <time>2022-09-27T12:59:36.043Z</time>
      </trkpt>
      <trkpt lat="47.16299" lon="16.21695">
        <ele>285.589161</ele>
        <time>2022-09-27T12:59:38.022Z</time>
      </trkpt>
      <trkpt lat="47.1631" lon="16.21702">
        <ele>285.245067</ele>
        <time>2022-09-27T12:59:41.045Z</time>
      </trkpt>
      <trkpt lat="47.16323" lon="16.21706">
        <ele>284.887746</ele>
        <time>2022-09-27T12:59:44.090Z</time>
      </trkpt>
      <trkpt lat="47.16335" lon="16.21707">
        <ele>284.722243</ele>
        <time>2022-09-27T12:59:47.047Z</time>
      </trkpt>
      <trkpt lat="47.16345" lon="16.21707">
        <ele>284.75307</ele>
        <time>2022-09-27T12:59:50.069Z</time>
      </trkpt>
      <trkpt lat="47.16355" lon="16.21706">
        <ele>284.782433</ele>
        <time>2022-09-27T12:59:53.046Z</time>
      </trkpt>
      <trkpt lat="47.16366" lon="16.21706">
        <ele>284.815355</ele>
        <time>2022-09-27T12:59:56.032Z</time>
      </trkpt>
      <trkpt lat="47.16377" lon="16.21705">
        <ele>284.848017</ele>
        <time>2022-09-27T12:59:59.062Z</time>
      </trkpt>
      <trkpt lat="47.16386" lon="16.21704">
        <ele>284.876016</ele>
        <time>2022-09-27T13:00:02.024Z</time>
      </trkpt>
      <trkpt lat="47.16396" lon="16.21702">
        <ele>284.90498</ele>
        <time>2022-09-27T13:00:05.043Z</time>
      </trkpt>
      <trkpt lat="47.16406" lon="16.217">
        <ele>284.936047</ele>
        <time>2022-09-27T13:00:08.052Z</time>
      </trkpt>
      <trkpt lat="47.16416" lon="16.21697">
        <ele>284.966475</ele>
        <time>2022-09-27T13:00:11.053Z</time>
      </trkpt>
      <trkpt lat="47.16427" lon="16.21694">
        <ele>284.999406</ele>
        <time>2022-09-27T13:00:14.050Z</time>
      </trkpt>
      <trkpt lat="47.16437" lon="16.21688">
        <ele>285.032991</ele>
        <time>2022-09-27T13:00:17.082Z</time>
      </trkpt>
      <trkpt lat="47.16446" lon="16.2168">
        <ele>285.065547</ele>
        <time>2022-09-27T13:00:20.053Z</time>
      </trkpt>
      <trkpt lat="47.16454" lon="16.21672">
        <ele>285.092551</ele>
        <time>2022-09-27T13:00:23.042Z</time>
      </trkpt>
      <trkpt lat="47.16463" lon="16.21664">
        <ele>285.125673</ele>
        <time>2022-09-27T13:00:26.058Z</time>
      </trkpt>
      <trkpt lat="47.16471" lon="16.21653">
        <ele>285.157516</ele>
        <time>2022-09-27T13:00:29.051Z</time>
      </trkpt>
      <trkpt lat="47.16478" lon="16.21643">
        <ele>285.185795</ele>
        <time>2022-09-27T13:00:32.044Z</time>
      </trkpt>
      <trkpt lat="47.16485" lon="16.21634">
        <ele>285.214439</ele>
        <time>2022-09-27T13:00:35.019Z</time>
      </trkpt>
      <trkpt lat="47.1649" lon="16.2162">
        <ele>285.245155</ele>
        <time>2022-09-27T13:00:38.025Z</time>
      </trkpt>
      <trkpt lat="47.16494" lon="16.21607">
        <ele>285.950703</ele>
        <time>2022-09-27T13:00:41.054Z</time>
      </trkpt>
      <trkpt lat="47.16499" lon="16.21594">
        <ele>286.630389</ele>
        <time>2022-09-27T13:00:44.038Z</time>
      </trkpt>
      <trkpt lat="47.16507" lon="16.21582">
        <ele>287.434058</ele>
        <time>2022-09-27T13:00:48.039Z</time>
      </trkpt>
      <trkpt lat="47.16517" lon="16.21574">
        <ele>288.232011</ele>
        <time>2022-09-27T13:00:52.038Z</time>
      </trkpt>
      <trkpt lat="47.16525" lon="16.21567">
        <ele>288.886816</ele>
        <time>2022-09-27T13:00:56.028Z</time>
      </trkpt>
      <trkpt lat="47.16533" lon="16.2156">
        <ele>289.530807</ele>
        <time>2022-09-27T13:01:00.054Z</time>
      </trkpt>
      <trkpt lat="47.1654" lon="16.2155">
        <ele>290.226631</ele>
        <time>2022-09-27T13:01:06.065Z</time>
      </trkpt>
      <trkpt lat="47.16548" lon="16.21541">
        <ele>290.913119</ele>
        <time>2022-09-27T13:01:12.068Z</time>
      </trkpt>
      <trkpt lat="47.16558" lon="16.21533">
        <ele>291.654149</ele>
        <time>2022-09-27T13:01:17.072Z</time>
      </trkpt>
      <trkpt lat="47.16566" lon="16.21526">
        <ele>292.301654</ele>
        <time>2022-09-27T13:01:22.021Z</time>
      </trkpt>
      <trkpt lat="47.16573" lon="16.21518">
        <ele>292.946101</ele>
        <time>2022-09-27T13:01:27.044Z</time>
      </trkpt>
      <trkpt lat="47.16581" lon="16.21511">
        <ele>293.613742</ele>
        <time>2022-09-27T13:01:31.034Z</time>
      </trkpt>
      <trkpt lat="47.1659" lon="16.21505">
        <ele>294.280141</ele>
        <time>2022-09-27T13:01:36.040Z</time>
      </trkpt>
      <trkpt lat="47.16599" lon="16.21497">
        <ele>295.022483</ele>
        <time>2022-09-27T13:01:40.075Z</time>
      </trkpt>
      <trkpt lat="47.16607" lon="16.2149">
        <ele>295.668205</ele>
        <time>2022-09-27T13:01:44.034Z</time>
      </trkpt>
      <trkpt lat="47.16615" lon="16.21484">
        <ele>296.296945</ele>
        <time>2022-09-27T13:01:48.036Z</time>
      </trkpt>
      <trkpt lat="47.16624" lon="16.21479">
        <ele>296.932137</ele>
        <time>2022-09-27T13:01:52.053Z</time>
      </trkpt>
      <trkpt lat="47.16634" lon="16.21473">
        <ele>297.673135</ele>
        <time>2022-09-27T13:01:57.073Z</time>
      </trkpt>
      <trkpt lat="47.16643" lon="16.21469">
        <ele>297.689929</ele>
        <time>2022-09-27T13:02:01.033Z</time>
      </trkpt>
      <trkpt lat="47.16653" lon="16.21465">
        <ele>297.608987</ele>
        <time>2022-09-27T13:02:05.026Z</time>
      </trkpt>
      <trkpt lat="47.16663" lon="16.21459">
        <ele>297.519474</ele>
        <time>2022-09-27T13:02:09.041Z</time>
      </trkpt>
      <trkpt lat="47.16674" lon="16.21455">
        <ele>297.435426</ele>
        <time>2022-09-27T13:02:13.032Z</time>
      </trkpt>
      <trkpt lat="47.16683" lon="16.21453">
        <ele>297.359724</ele>
        <time>2022-09-27T13:02:17.045Z</time>
      </trkpt>
      <trkpt lat="47.16694" lon="16.21451">
        <ele>297.273756</ele>
        <time>2022-09-27T13:02:21.054Z</time>
      </trkpt>
      <trkpt lat="47.16704" lon="16.21447">
        <ele>297.192776</ele>
        <time>2022-09-27T13:02:24.039Z</time>
      </trkpt>
      <trkpt lat="47.16716" lon="16.21445">
        <ele>297.091564</ele>
        <time>2022-09-27T13:02:27.024Z</time>
      </trkpt>
      <trkpt lat="47.1673" lon="16.21443">
        <ele>296.984848</ele>
        <time>2022-09-27T13:02:30.028Z</time>
      </trkpt>
      <trkpt lat="47.16741" lon="16.21441">
        <ele>296.896573</ele>
        <time>2022-09-27T13:02:32.019Z</time>
      </trkpt>
      <trkpt lat="47.16752" lon="16.2144">
        <ele>296.804408</ele>
        <time>2022-09-27T13:02:34.028Z</time>
      </trkpt>
      <trkpt lat="47.16765" lon="16.21439">
        <ele>296.708585</ele>
        <time>2022-09-27T13:02:36.046Z</time>
      </trkpt>
      <trkpt lat="47.16777" lon="16.21439">
        <ele>296.608857</ele>
        <time>2022-09-27T13:02:38.046Z</time>
      </trkpt>
      <trkpt lat="47.1679" lon="16.2144">
        <ele>296.503359</ele>
        <time>2022-09-27T13:02:40.058Z</time>
      </trkpt>
      <trkpt lat="47.16804" lon="16.21442">
        <ele>296.399273</ele>
        <time>2022-09-27T13:02:42.040Z</time>
      </trkpt>
      <trkpt lat="47.16816" lon="16.21444">
        <ele>296.147161</ele>
        <time>2022-09-27T13:02:44.041Z</time>
      </trkpt>
      <trkpt lat="47.16828" lon="16.21445">
        <ele>295.564954</ele>
        <time>2022-09-27T13:02:46.065Z</time>
      </trkpt>
      <trkpt lat="47.16841" lon="16.21447">
        <ele>294.958384</ele>
        <time>2022-09-27T13:02:48.037Z</time>
      </trkpt>
      <trkpt lat="47.16854" lon="16.21449">
        <ele>294.331574</ele>
        <time>2022-09-27T13:02:50.047Z</time>
      </trkpt>
      <trkpt lat="47.16866" lon="16.21449">
        <ele>293.806799</ele>
        <time>2022-09-27T13:02:52.042Z</time>
      </trkpt>
      <trkpt lat="47.16875" lon="16.2145">
        <ele>293.34245</ele>
        <time>2022-09-27T13:02:54.034Z</time>
      </trkpt>
      <trkpt lat="47.16886" lon="16.21451">
        <ele>292.858556</ele>
        <time>2022-09-27T13:02:56.027Z</time>
      </trkpt>
      <trkpt lat="47.16895" lon="16.21452">
        <ele>292.42282</ele>
        <time>2022-09-27T13:02:58.036Z</time>
      </trkpt>
      <trkpt lat="47.16904" lon="16.21451">
        <ele>291.991847</ele>
        <time>2022-09-27T13:03:00.032Z</time>
      </trkpt>
      <trkpt lat="47.16917" lon="16.21453">
        <ele>291.400512</ele>
        <time>2022-09-27T13:03:03.035Z</time>
      </trkpt>
      <trkpt lat="47.16928" lon="16.21453">
        <ele>290.870826</ele>
        <time>2022-09-27T13:03:06.026Z</time>
      </trkpt>
      <trkpt lat="47.16941" lon="16.21453">
        <ele>290.280649</ele>
        <time>2022-09-27T13:03:09.040Z</time>
      </trkpt>
      <trkpt lat="47.16953" lon="16.21452">
        <ele>289.704282</ele>
        <time>2022-09-27T13:03:12.039Z</time>
      </trkpt>
      <trkpt lat="47.16964" lon="16.21452">
        <ele>289.197991</ele>
        <time>2022-09-27T13:03:15.049Z</time>
      </trkpt>
      <trkpt lat="47.16975" lon="16.2145">
        <ele>288.680312</ele>
        <time>2022-09-27T13:03:18.034Z</time>
      </trkpt>
      <trkpt lat="47.16988" lon="16.21449">
        <ele>288.07919</ele>
        <time>2022-09-27T13:03:21.032Z</time>
      </trkpt>
      <trkpt lat="47.17" lon="16.21448">
        <ele>288.227263</ele>
        <time>2022-09-27T13:03:24.046Z</time>
      </trkpt>
      <trkpt lat="47.17013" lon="16.21447">
        <ele>288.673092</ele>
        <time>2022-09-27T13:03:27.058Z</time>
      </trkpt>
      <trkpt lat="47.17026" lon="16.21445">
        <ele>289.122433</ele>
        <time>2022-09-27T13:03:30.061Z</time>
      </trkpt>
      <trkpt lat="47.17035" lon="16.21443">
        <ele>289.445511</ele>
        <time>2022-09-27T13:03:32.035Z</time>
      </trkpt>
      <trkpt lat="47.17048" lon="16.2144">
        <ele>289.912514</ele>
        <time>2022-09-27T13:03:35.048Z</time>
      </trkpt>
      <trkpt lat="47.1706" lon="16.21436">
        <ele>290.365607</ele>
        <time>2022-09-27T13:03:38.050Z</time>
      </trkpt>
      <trkpt lat="47.17072" lon="16.21432">
        <ele>290.781085</ele>
        <time>2022-09-27T13:03:41.042Z</time>
      </trkpt>
      <trkpt lat="47.17082" lon="16.21427">
        <ele>291.162698</ele>
        <time>2022-09-27T13:03:44.054Z</time>
      </trkpt>
      <trkpt lat="47.17091" lon="16.21422">
        <ele>291.516799</ele>
        <time>2022-09-27T13:03:47.082Z</time>
      </trkpt>
      <trkpt lat="47.17101" lon="16.21416">
        <ele>291.875759</ele>
        <time>2022-09-27T13:03:50.037Z</time>
      </trkpt>
      <trkpt lat="47.17111" lon="16.21409">
        <ele>292.255716</ele>
        <time>2022-09-27T13:03:53.071Z</time>
      </trkpt>
      <trkpt lat="47.1712" lon="16.21401">
        <ele>292.635503</ele>
        <time>2022-09-27T13:03:56.040Z</time>
      </trkpt>
      <trkpt lat="47.1713" lon="16.21392">
        <ele>293.047525</ele>
        <time>2022-09-27T13:03:59.036Z</time>
      </trkpt>
      <trkpt lat="47.1714" lon="16.21383">
        <ele>293.466307</ele>
        <time>2022-09-27T13:04:02.049Z</time>
      </trkpt>
      <trkpt lat="47.1715" lon="16.21375">
        <ele>293.854084</ele>
        <time>2022-09-27T13:04:05.047Z</time>
      </trkpt>
      <trkpt lat="47.1716" lon="16.21366">
        <ele>294.298766</ele>
        <time>2022-09-27T13:04:08.034Z</time>
      </trkpt>
      <trkpt lat="47.17171" lon="16.21355">
        <ele>294.88536</ele>
        <time>2022-09-27T13:04:11.039Z</time>
      </trkpt>
      <trkpt lat="47.1718" lon="16.21345">
        <ele>295.403921</ele>
        <time>2022-09-27T13:04:14.032Z</time>
      </trkpt>
      <trkpt lat="47.17188" lon="16.21336">
        <ele>295.873078</ele>
        <time>2022-09-27T13:04:17.040Z</time>
      </trkpt>
      <trkpt lat="47.17196" lon="16.21328">
        <ele>296.294653</ele>
        <time>2022-09-27T13:04:20.040Z</time>
      </trkpt>
      <trkpt lat="47.17206" lon="16.21322">
        <ele>296.804105</ele>
        <time>2022-09-27T13:04:24.071Z</time>
      </trkpt>
      <trkpt lat="47.17217" lon="16.21317">
        <ele>297.315605</ele>
        <time>2022-09-27T13:04:28.047Z</time>
      </trkpt>
      <trkpt lat="47.17226" lon="16.21311">
        <ele>297.789649</ele>
        <time>2022-09-27T13:04:32.044Z</time>
      </trkpt>
      <trkpt lat="47.17237" lon="16.21307">
        <ele>298.285511</ele>
        <time>2022-09-27T13:04:36.036Z</time>
      </trkpt>
      <trkpt lat="47.17247" lon="16.21302">
        <ele>298.784807</ele>
        <time>2022-09-27T13:04:40.061Z</time>
      </trkpt>
      <trkpt lat="47.17256" lon="16.21297">
        <ele>299.211943</ele>
        <time>2022-09-27T13:04:44.021Z</time>
      </trkpt>
      <trkpt lat="47.17265" lon="16.21294">
        <ele>299.628745</ele>
        <time>2022-09-27T13:04:48.060Z</time>
      </trkpt>
      <trkpt lat="47.17275" lon="16.2129">
        <ele>300.087877</ele>
        <time>2022-09-27T13:04:52.067Z</time>
      </trkpt>
      <trkpt lat="47.17284" lon="16.21286">
        <ele>300.539151</ele>
        <time>2022-09-27T13:04:56.040Z</time>
      </trkpt>
      <trkpt lat="47.17294" lon="16.21282">
        <ele>300.991414</ele>
        <time>2022-09-27T13:05:00.026Z</time>
      </trkpt>
      <trkpt lat="47.17304" lon="16.21279">
        <ele>301.45093</ele>
        <time>2022-09-27T13:05:04.053Z</time>
      </trkpt>
      <trkpt lat="47.17313" lon="16.21275">
        <ele>301.900871</ele>
        <time>2022-09-27T13:05:08.039Z</time>
      </trkpt>
      <trkpt lat="47.17324" lon="16.21272">
        <ele>302.39314</ele>
        <time>2022-09-27T13:05:12.088Z</time>
      </trkpt>
      <trkpt lat="47.17334" lon="16.21268">
        <ele>302.554042</ele>
        <time>2022-09-27T13:05:16.045Z</time>
      </trkpt>
      <trkpt lat="47.17343" lon="16.21265">
        <ele>302.677683</ele>
        <time>2022-09-27T13:05:20.046Z</time>
      </trkpt>
      <trkpt lat="47.17352" lon="16.21262">
        <ele>302.804145</ele>
        <time>2022-09-27T13:05:24.030Z</time>
      </trkpt>
      <trkpt lat="47.17362" lon="16.21259">
        <ele>302.935383</ele>
        <time>2022-09-27T13:05:28.034Z</time>
      </trkpt>
      <trkpt lat="47.17373" lon="16.21257">
        <ele>303.069884</ele>
        <time>2022-09-27T13:05:32.040Z</time>
      </trkpt>
      <trkpt lat="47.17383" lon="16.21254">
        <ele>303.212526</ele>
        <time>2022-09-27T13:05:36.044Z</time>
      </trkpt>
      <trkpt lat="47.17395" lon="16.21251">
        <ele>303.369893</ele>
        <time>2022-09-27T13:05:40.041Z</time>
      </trkpt>
      <trkpt lat="47.17404" lon="16.21249">
        <ele>303.49111</ele>
        <time>2022-09-27T13:05:43.039Z</time>
      </trkpt>
      <trkpt lat="47.17414" lon="16.21246">
        <ele>303.619623</ele>
        <time>2022-09-27T13:05:46.083Z</time>
      </trkpt>
      <trkpt lat="47.17424" lon="16.21244">
        <ele>303.744709</ele>
        <time>2022-09-27T13:05:49.033Z</time>
      </trkpt>
      <trkpt lat="47.17433" lon="16.21242">
        <ele>303.863155</ele>
        <time>2022-09-27T13:05:52.032Z</time>
      </trkpt>
      <trkpt lat="47.17441" lon="16.21237">
        <ele>303.984017</ele>
        <time>2022-09-27T13:05:55.041Z</time>
      </trkpt>
      <trkpt lat="47.17451" lon="16.21231">
        <ele>304.12512</ele>
        <time>2022-09-27T13:05:59.037Z</time>
      </trkpt>
      <trkpt lat="47.17462" lon="16.21225">
        <ele>304.279096</ele>
        <time>2022-09-27T13:06:03.042Z</time>
      </trkpt>
      <trkpt lat="47.17471" lon="16.21219">
        <ele>304.401325</ele>
        <time>2022-09-27T13:06:06.048Z</time>
      </trkpt>
      <trkpt lat="47.17479" lon="16.21213">
        <ele>304.523035</ele>
        <time>2022-09-27T13:06:10.042Z</time>
      </trkpt>
      <trkpt lat="47.17488" lon="16.21208">
        <ele>304.64965</ele>
        <time>2022-09-27T13:06:15.047Z</time>
      </trkpt>
      <trkpt lat="47.17496" lon="16.212">
        <ele>304.775351</ele>
        <time>2022-09-27T13:06:22.055Z</time>
      </trkpt>
      <trkpt lat="47.17506" lon="16.21196">
        <ele>305.473331</ele>
        <time>2022-09-27T13:06:28.028Z</time>
      </trkpt>
      <trkpt lat="47.17515" lon="16.21189">
        <ele>306.245221</ele>
        <time>2022-09-27T13:06:34.065Z</time>
      </trkpt>
      <trkpt lat="47.17524" lon="16.21183">
        <ele>306.905316</ele>
        <time>2022-09-27T13:06:38.041Z</time>
      </trkpt>
      <trkpt lat="47.17533" lon="16.21179">
        <ele>307.626416</ele>
        <time>2022-09-27T13:06:42.068Z</time>
      </trkpt>
      <trkpt lat="47.17544" lon="16.21175">
        <ele>308.428602</ele>
        <time>2022-09-27T13:06:47.039Z</time>
      </trkpt>
      <trkpt lat="47.17553" lon="16.21169">
        <ele>309.146841</ele>
        <time>2022-09-27T13:06:52.047Z</time>
      </trkpt>
      <trkpt lat="47.17564" lon="16.21167">
        <ele>309.903852</ele>
        <time>2022-09-27T13:06:57.048Z</time>
      </trkpt>
      <trkpt lat="47.17574" lon="16.21163">
        <ele>310.647083</ele>
        <time>2022-09-27T13:07:02.045Z</time>
      </trkpt>
      <trkpt lat="47.17583" lon="16.2116">
        <ele>311.329722</ele>
        <time>2022-09-27T13:07:07.048Z</time>
      </trkpt>
      <trkpt lat="47.17593" lon="16.21156">
        <ele>312.078626</ele>
        <time>2022-09-27T13:07:13.035Z</time>
      </trkpt>
      <trkpt lat="47.17604" lon="16.21154">
        <ele>312.855441</ele>
        <time>2022-09-27T13:07:18.046Z</time>
      </trkpt>
      <trkpt lat="47.17614" lon="16.21153">
        <ele>313.545507</ele>
        <time>2022-09-27T13:07:21.076Z</time>
      </trkpt>
      <trkpt lat="47.17624" lon="16.21153">
        <ele>314.278307</ele>
        <time>2022-09-27T13:07:24.046Z</time>
      </trkpt>
      <trkpt lat="47.17636" lon="16.21152">
        <ele>315.140846</ele>
        <time>2022-09-27T13:07:27.042Z</time>
      </trkpt>
      <trkpt lat="47.17645" lon="16.21152">
        <ele>315.795454</ele>
        <time>2022-09-27T13:07:29.033Z</time>
      </trkpt>
      <trkpt lat="47.17658" lon="16.21151">
        <ele>316.716015</ele>
        <time>2022-09-27T13:07:32.078Z</time>
      </trkpt>
      <trkpt lat="47.17667" lon="16.2115">
        <ele>317.393818</ele>
        <time>2022-09-27T13:07:34.051Z</time>
      </trkpt>
      <trkpt lat="47.17677" lon="16.21148">
        <ele>317.45146</ele>
        <time>2022-09-27T13:07:36.033Z</time>
      </trkpt>
      <trkpt lat="47.17687" lon="16.21146">
        <ele>316.98233</ele>
        <time>2022-09-27T13:07:38.117Z</time>
      </trkpt>
      <trkpt lat="47.17699" lon="16.21145">
        <ele>316.441559</ele>
        <time>2022-09-27T13:07:40.039Z</time>
      </trkpt>
      <trkpt lat="47.17711" lon="16.21144">
        <ele>315.890285</ele>
        <time>2022-09-27T13:07:42.021Z</time>
      </trkpt>
      <trkpt lat="47.17724" lon="16.21142">
        <ele>315.290659</ele>
        <time>2022-09-27T13:07:44.039Z</time>
      </trkpt>
      <trkpt lat="47.17738" lon="16.21141">
        <ele>314.671629</ele>
        <time>2022-09-27T13:07:46.056Z</time>
      </trkpt>
      <trkpt lat="47.17753" lon="16.21138">
        <ele>313.988699</ele>
        <time>2022-09-27T13:07:48.040Z</time>
      </trkpt>
      <trkpt lat="47.17769" lon="16.21133">
        <ele>313.247118</ele>
        <time>2022-09-27T13:07:50.040Z</time>
      </trkpt>
      <trkpt lat="47.17785" lon="16.21126">
        <ele>312.495096</ele>
        <time>2022-09-27T13:07:52.032Z</time>
      </trkpt>
      <trkpt lat="47.178" lon="16.21113">
        <ele>311.713237</ele>
        <time>2022-09-27T13:07:54.035Z</time>
      </trkpt>
      <trkpt lat="47.17814" lon="16.21099">
        <ele>310.916337</ele>
        <time>2022-09-27T13:07:56.056Z</time>
      </trkpt>
      <trkpt lat="47.17829" lon="16.21087">
        <ele>310.129979</ele>
        <time>2022-09-27T13:07:58.069Z</time>
      </trkpt>
      <trkpt lat="47.17845" lon="16.21078">
        <ele>309.415808</ele>
        <time>2022-09-27T13:08:00.015Z</time>
      </trkpt>
      <trkpt lat="47.17858" lon="16.2107">
        <ele>308.860583</ele>
        <time>2022-09-27T13:08:02.044Z</time>
      </trkpt>
      <trkpt lat="47.17869" lon="16.21062">
        <ele>308.410764</ele>
        <time>2022-09-27T13:08:04.035Z</time>
      </trkpt>
      <trkpt lat="47.17877" lon="16.21054">
        <ele>308.040136</ele>
        <time>2022-09-27T13:08:06.037Z</time>
      </trkpt>
      <trkpt lat="47.17887" lon="16.21043">
        <ele>307.562202</ele>
        <time>2022-09-27T13:08:09.047Z</time>
      </trkpt>
      <trkpt lat="47.17897" lon="16.21037">
        <ele>307.182082</ele>
        <time>2022-09-27T13:08:12.047Z</time>
      </trkpt>
      <trkpt lat="47.17905" lon="16.21032">
        <ele>306.827651</ele>
        <time>2022-09-27T13:08:15.061Z</time>
      </trkpt>
      <trkpt lat="47.17916" lon="16.21027">
        <ele>306.411293</ele>
        <time>2022-09-27T13:08:18.101Z</time>
      </trkpt>
      <trkpt lat="47.17927" lon="16.21021">
        <ele>305.949392</ele>
        <time>2022-09-27T13:08:21.025Z</time>
      </trkpt>
      <trkpt lat="47.1794" lon="16.21016">
        <ele>305.475964</ele>
        <time>2022-09-27T13:08:24.043Z</time>
      </trkpt>
      <trkpt lat="47.17948" lon="16.21014">
        <ele>305.13558</ele>
        <time>2022-09-27T13:08:26.057Z</time>
      </trkpt>
      <trkpt lat="47.17958" lon="16.21012">
        <ele>304.780762</ele>
        <time>2022-09-27T13:08:28.039Z</time>
      </trkpt>
      <trkpt lat="47.17967" lon="16.2101">
        <ele>304.441227</ele>
        <time>2022-09-27T13:08:30.024Z</time>
      </trkpt>
      <trkpt lat="47.17979" lon="16.21004">
        <ele>303.945335</ele>
        <time>2022-09-27T13:08:33.097Z</time>
      </trkpt>
      <trkpt lat="47.17988" lon="16.20998">
        <ele>303.594471</ele>
        <time>2022-09-27T13:08:35.056Z</time>
      </trkpt>
      <trkpt lat="47.17995" lon="16.2099">
        <ele>303.234837</ele>
        <time>2022-09-27T13:08:37.042Z</time>
      </trkpt>
      <trkpt lat="47.18004" lon="16.20977">
        <ele>302.768403</ele>
        <time>2022-09-27T13:08:40.043Z</time>
      </trkpt>
      <trkpt lat="47.18009" lon="16.20961">
        <ele>303.001145</ele>
        <time>2022-09-27T13:08:43.021Z</time>
      </trkpt>
      <trkpt lat="47.18013" lon="16.20944">
        <ele>303.238979</ele>
        <time>2022-09-27T13:08:46.028Z</time>
      </trkpt>
      <trkpt lat="47.18018" lon="16.20928">
        <ele>303.477307</ele>
        <time>2022-09-27T13:08:49.032Z</time>
      </trkpt>
      <trkpt lat="47.18025" lon="16.20912">
        <ele>303.733263</ele>
        <time>2022-09-27T13:08:52.040Z</time>
      </trkpt>
      <trkpt lat="47.18032" lon="16.20903">
        <ele>303.911949</ele>
        <time>2022-09-27T13:08:54.027Z</time>
      </trkpt>
      <trkpt lat="47.18043" lon="16.20892">
        <ele>304.172352</ele>
        <time>2022-09-27T13:08:57.003Z</time>
      </trkpt>
      <trkpt lat="47.18053" lon="16.20883">
        <ele>304.405384</ele>
        <time>2022-09-27T13:09:00.025Z</time>
      </trkpt>
      <trkpt lat="47.18061" lon="16.20876">
        <ele>304.594333</ele>
        <time>2022-09-27T13:09:03.025Z</time>
      </trkpt>
      <trkpt lat="47.1807" lon="16.20868">
        <ele>304.793055</ele>
        <time>2022-09-27T13:09:07.024Z</time>
      </trkpt>
      <trkpt lat="47.18079" lon="16.20859">
        <ele>305.005809</ele>
        <time>2022-09-27T13:09:11.039Z</time>
      </trkpt>
      <trkpt lat="47.18087" lon="16.20852">
        <ele>305.198858</ele>
        <time>2022-09-27T13:09:15.008Z</time>
      </trkpt>
      <trkpt lat="47.18095" lon="16.20844">
        <ele>305.386244</ele>
        <time>2022-09-27T13:09:19.030Z</time>
      </trkpt>
      <trkpt lat="47.18104" lon="16.20837">
        <ele>305.593874</ele>
        <time>2022-09-27T13:09:24.007Z</time>
      </trkpt>
      <trkpt lat="47.18113" lon="16.20831">
        <ele>305.791513</ele>
        <time>2022-09-27T13:09:28.035Z</time>
      </trkpt>
      <trkpt lat="47.18124" lon="16.20823">
        <ele>306.019204</ele>
        <time>2022-09-27T13:09:32.019Z</time>
      </trkpt>
      <trkpt lat="47.18133" lon="16.20816">
        <ele>306.221741</ele>
        <time>2022-09-27T13:09:35.015Z</time>
      </trkpt>
      <trkpt lat="47.18142" lon="16.20808">
        <ele>306.1975</ele>
        <time>2022-09-27T13:09:38.041Z</time>
      </trkpt>
      <trkpt lat="47.18152" lon="16.208">
        <ele>305.98011</ele>
        <time>2022-09-27T13:09:41.024Z</time>
      </trkpt>
      <trkpt lat="47.18161" lon="16.20794">
        <ele>305.79368</ele>
        <time>2022-09-27T13:09:43.030Z</time>
      </trkpt>
      <trkpt lat="47.18169" lon="16.20788">
        <ele>305.614293</ele>
        <time>2022-09-27T13:09:45.100Z</time>
      </trkpt>
      <trkpt lat="47.18177" lon="16.20782">
        <ele>305.434998</ele>
        <time>2022-09-27T13:09:47.025Z</time>
      </trkpt>
      <trkpt lat="47.18189" lon="16.20773">
        <ele>305.179194</ele>
        <time>2022-09-27T13:09:50.024Z</time>
      </trkpt>
      <trkpt lat="47.18197" lon="16.20767">
        <ele>305.007287</ele>
        <time>2022-09-27T13:09:52.017Z</time>
      </trkpt>
      <trkpt lat="47.18209" lon="16.20758">
        <ele>304.750818</ele>
        <time>2022-09-27T13:09:55.042Z</time>
      </trkpt>
      <trkpt lat="47.18218" lon="16.20751">
        <ele>304.572635</ele>
        <time>2022-09-27T13:09:57.035Z</time>
      </trkpt>
      <trkpt lat="47.18229" lon="16.20742">
        <ele>304.320601</ele>
        <time>2022-09-27T13:10:00.040Z</time>
      </trkpt>
      <trkpt lat="47.18241" lon="16.20733">
        <ele>304.070863</ele>
        <time>2022-09-27T13:10:03.031Z</time>
      </trkpt>
      <trkpt lat="47.18252" lon="16.20724">
        <ele>303.827391</ele>
        <time>2022-09-27T13:10:06.024Z</time>
      </trkpt>
      <trkpt lat="47.18264" lon="16.20715">
        <ele>303.57558</ele>
        <time>2022-09-27T13:10:09.020Z</time>
      </trkpt>
      <trkpt lat="47.18275" lon="16.20706">
        <ele>303.325474</ele>
        <time>2022-09-27T13:10:12.023Z</time>
      </trkpt>
      <trkpt lat="47.18287" lon="16.20697">
        <ele>303.072575</ele>
        <time>2022-09-27T13:10:15.026Z</time>
      </trkpt>
      <trkpt lat="47.18298" lon="16.20688">
        <ele>302.941582</ele>
        <time>2022-09-27T13:10:18.068Z</time>
      </trkpt>
      <trkpt lat="47.1831" lon="16.20679">
        <ele>303.249338</ele>
        <time>2022-09-27T13:10:21.022Z</time>
      </trkpt>
      <trkpt lat="47.18321" lon="16.2067">
        <ele>303.538772</ele>
        <time>2022-09-27T13:10:24.060Z</time>
      </trkpt>
      <trkpt lat="47.18332" lon="16.20662">
        <ele>303.833699</ele>
        <time>2022-09-27T13:10:27.022Z</time>
      </trkpt>
      <trkpt lat="47.18343" lon="16.20654">
        <ele>304.118678</ele>
        <time>2022-09-27T13:10:30.032Z</time>
      </trkpt>
      <trkpt lat="47.18354" lon="16.20646">
        <ele>304.42357</ele>
        <time>2022-09-27T13:10:33.032Z</time>
      </trkpt>
      <trkpt lat="47.18363" lon="16.20641">
        <ele>304.64508</ele>
        <time>2022-09-27T13:10:35.069Z</time>
      </trkpt>
      <trkpt lat="47.18371" lon="16.20635">
        <ele>304.856172</ele>
        <time>2022-09-27T13:10:37.036Z</time>
      </trkpt>
      <trkpt lat="47.18379" lon="16.20629">
        <ele>305.070634</ele>
        <time>2022-09-27T13:10:39.022Z</time>
      </trkpt>
      <trkpt lat="47.18388" lon="16.20623">
        <ele>305.292128</ele>
        <time>2022-09-27T13:10:41.024Z</time>
      </trkpt>
      <trkpt lat="47.18396" lon="16.20617">
        <ele>305.517145</ele>
        <time>2022-09-27T13:10:43.022Z</time>
      </trkpt>
      <trkpt lat="47.18406" lon="16.20611">
        <ele>305.766709</ele>
        <time>2022-09-27T13:10:45.025Z</time>
      </trkpt>
      <trkpt lat="47.18416" lon="16.20605">
        <ele>306.023304</ele>
        <time>2022-09-27T13:10:47.035Z</time>
      </trkpt>
      <trkpt lat="47.18427" lon="16.206">
        <ele>306.293372</ele>
        <time>2022-09-27T13:10:49.028Z</time>
      </trkpt>
      <trkpt lat="47.18438" lon="16.20595">
        <ele>306.565684</ele>
        <time>2022-09-27T13:10:51.023Z</time>
      </trkpt>
      <trkpt lat="47.18449" lon="16.2059">
        <ele>306.824357</ele>
        <time>2022-09-27T13:10:53.026Z</time>
      </trkpt>
      <trkpt lat="47.18458" lon="16.20586">
        <ele>307.059094</ele>
        <time>2022-09-27T13:10:55.035Z</time>
      </trkpt>
      <trkpt lat="47.18467" lon="16.20582">
        <ele>307.222805</ele>
        <time>2022-09-27T13:10:57.048Z</time>
      </trkpt>
      <trkpt lat="47.1848" lon="16.20577">
        <ele>307.412942</ele>
        <time>2022-09-27T13:11:00.045Z</time>
      </trkpt>
      <trkpt lat="47.18491" lon="16.20573">
        <ele>307.586073</ele>
        <time>2022-09-27T13:11:03.017Z</time>
      </trkpt>
      <trkpt lat="47.18504" lon="16.20569">
        <ele>307.76793</ele>
        <time>2022-09-27T13:11:06.031Z</time>
      </trkpt>
      <trkpt lat="47.18516" lon="16.20566">
        <ele>307.956162</ele>
        <time>2022-09-27T13:11:09.035Z</time>
      </trkpt>
      <trkpt lat="47.18525" lon="16.20563">
        <ele>308.091932</ele>
        <time>2022-09-27T13:11:11.036Z</time>
      </trkpt>
      <trkpt lat="47.18538" lon="16.2056">
        <ele>308.284361</ele>
        <time>2022-09-27T13:11:14.027Z</time>
      </trkpt>
      <trkpt lat="47.18551" lon="16.20558">
        <ele>308.477833</ele>
        <time>2022-09-27T13:11:17.041Z</time>
      </trkpt>
      <trkpt lat="47.18564" lon="16.20556">
        <ele>308.665123</ele>
        <time>2022-09-27T13:11:20.027Z</time>
      </trkpt>
      <trkpt lat="47.18577" lon="16.20554">
        <ele>308.857733</ele>
        <time>2022-09-27T13:11:23.026Z</time>
      </trkpt>
      <trkpt lat="47.1859" lon="16.20553">
        <ele>309.04688</ele>
        <time>2022-09-27T13:11:26.039Z</time>
      </trkpt>
      <trkpt lat="47.18603" lon="16.20552">
        <ele>309.237595</ele>
        <time>2022-09-27T13:11:29.025Z</time>
      </trkpt>
      <trkpt lat="47.18616" lon="16.20551">
        <ele>309.425195</ele>
        <time>2022-09-27T13:11:32.038Z</time>
      </trkpt>
      <trkpt lat="47.18629" lon="16.20549">
        <ele>309.61976</ele>
        <time>2022-09-27T13:11:35.026Z</time>
      </trkpt>
      <trkpt lat="47.18638" lon="16.20548">
        <ele>309.752442</ele>
        <time>2022-09-27T13:11:37.077Z</time>
      </trkpt>
      <trkpt lat="47.1865" lon="16.20545">
        <ele>309.752442</ele>
        <time>2022-09-27T13:11:40.055Z</time>
      </trkpt>
      <trkpt lat="47.18662" lon="16.20541">
        <ele>309.752442</ele>
        <time>2022-09-27T13:11:43.027Z</time>
      </trkpt>
      <trkpt lat="47.18673" lon="16.20536">
        <ele>309.752442</ele>
        <time>2022-09-27T13:11:46.050Z</time>
      </trkpt>
      <trkpt lat="47.18684" lon="16.20534">
        <ele>309.752442</ele>
        <time>2022-09-27T13:11:49.079Z</time>
      </trkpt>
      <trkpt lat="47.18691" lon="16.20548">
        <ele>309.752442</ele>
        <time>2022-09-27T13:11:53.031Z</time>
      </trkpt>
      <trkpt lat="47.18693" lon="16.20565">
        <ele>309.752442</ele>
        <time>2022-09-27T13:11:57.060Z</time>
      </trkpt>
      <trkpt lat="47.18696" lon="16.2058">
        <ele>309.752442</ele>
        <time>2022-09-27T13:12:02.026Z</time>
      </trkpt>
      <trkpt lat="47.18699" lon="16.20597">
        <ele>309.752442</ele>
        <time>2022-09-27T13:12:06.024Z</time>
      </trkpt>
      <trkpt lat="47.18703" lon="16.20612">
        <ele>309.752442</ele>
        <time>2022-09-27T13:12:10.025Z</time>
      </trkpt>
      <trkpt lat="47.18708" lon="16.20626">
        <ele>309.752442</ele>
        <time>2022-09-27T13:12:14.088Z</time>
      </trkpt>
      <trkpt lat="47.18714" lon="16.20639">
        <ele>309.752442</ele>
        <time>2022-09-27T13:12:18.028Z</time>
      </trkpt>
      <trkpt lat="47.18721" lon="16.20653">
        <ele>309.752442</ele>
        <time>2022-09-27T13:12:22.028Z</time>
      </trkpt>
      <trkpt lat="47.18728" lon="16.20663">
        <ele>309.752442</ele>
        <time>2022-09-27T13:12:25.109Z</time>
      </trkpt>
      <trkpt lat="47.18736" lon="16.20671">
        <ele>309.752442</ele>
        <time>2022-09-27T13:12:28.015Z</time>
      </trkpt>
      <trkpt lat="47.18744" lon="16.20681">
        <ele>309.752442</ele>
        <time>2022-09-27T13:12:32.010Z</time>
      </trkpt>
      <trkpt lat="47.18753" lon="16.20691">
        <ele>309.752442</ele>
        <time>2022-09-27T13:12:36.028Z</time>
      </trkpt>
      <trkpt lat="47.1876" lon="16.207">
        <ele>309.752442</ele>
        <time>2022-09-27T13:12:40.018Z</time>
      </trkpt>
      <trkpt lat="47.18767" lon="16.20709">
        <ele>309.752442</ele>
        <time>2022-09-27T13:12:45.022Z</time>
      </trkpt>
      <trkpt lat="47.18761" lon="16.20738">
        <ele>309.752442</ele>
        <time>2022-09-27T13:14:41.024Z</time>
      </trkpt>
      <trkpt lat="47.18751" lon="16.20736">
        <ele>309.752442</ele>
        <time>2022-09-27T13:14:49.018Z</time>
      </trkpt>
      <trkpt lat="47.18749" lon="16.2073">
        <ele>309.752442</ele>
        <time>2022-09-27T13:17:56.516Z</time>
      </trkpt>
    </trkseg>
  </trk>
</gpx>